<?xml version="1.0" encoding="UTF-8" standalone="no" ?>
<gpx xmlns="http://www.topografix.com/GPX/1/1" xmlns:xsi="http://www.w3.org/2001/XMLSchema-instance" xsi:schemaLocation="http://www.topografix.com/GPX/1/1 http://www.topografix.com/GPX/1/1/gpx.xsd" version="1.1" creator="VisuGPX - https://www.visugpx.com">
  <metadata>
    <name>Davrinche20104</name>
    <desc><![CDATA[la partie 4 des itinéraires de repérage]]></desc>
  </metadata>
  <trk>
    <name><![CDATA[--Chapdes-Beaufort-- OR-5373888:ser-jb03-b]]></name>
    <trkseg>
      <trkpt lat="45.89273" lon="2.86183">
        <ele>779</ele>
        <time>2015-10-17T12:39:12Z</time>
      </trkpt>
      <trkpt lat="45.89285" lon="2.86185">
        <ele>778</ele>
        <time>2015-10-17T12:41:12Z</time>
      </trkpt>
      <trkpt lat="45.89293" lon="2.86187">
        <ele>778</ele>
        <time>2015-10-17T12:43:12Z</time>
      </trkpt>
      <trkpt lat="45.89305" lon="2.86198">
        <ele>777</ele>
        <time>2015-10-17T12:45:12Z</time>
      </trkpt>
      <trkpt lat="45.89317" lon="2.86209">
        <ele>777</ele>
        <time>2015-10-17T12:47:12Z</time>
      </trkpt>
      <trkpt lat="45.89343" lon="2.86223">
        <ele>775</ele>
        <time>2015-10-17T12:49:12Z</time>
      </trkpt>
      <trkpt lat="45.89361" lon="2.86225">
        <ele>773</ele>
        <time>2015-10-17T12:51:12Z</time>
      </trkpt>
      <trkpt lat="45.89378" lon="2.86236">
        <ele>771</ele>
        <time>2015-10-17T12:53:12Z</time>
      </trkpt>
      <trkpt lat="45.89389" lon="2.86244">
        <ele>770</ele>
        <time>2015-10-17T12:55:12Z</time>
      </trkpt>
      <trkpt lat="45.89408" lon="2.86265">
        <ele>769</ele>
        <time>2015-10-17T12:57:12Z</time>
      </trkpt>
      <trkpt lat="45.89425" lon="2.86293">
        <ele>769</ele>
        <time>2015-10-17T12:59:12Z</time>
      </trkpt>
      <trkpt lat="45.89435" lon="2.8631">
        <ele>769</ele>
        <time>2015-10-17T13:01:12Z</time>
      </trkpt>
      <trkpt lat="45.89448" lon="2.86319">
        <ele>768</ele>
        <time>2015-10-17T13:03:12Z</time>
      </trkpt>
      <trkpt lat="45.89464" lon="2.86322">
        <ele>767</ele>
        <time>2015-10-17T13:05:12Z</time>
      </trkpt>
      <trkpt lat="45.89486" lon="2.86321">
        <ele>764</ele>
        <time>2015-10-17T13:07:12Z</time>
      </trkpt>
      <trkpt lat="45.89503" lon="2.86325">
        <ele>763</ele>
        <time>2015-10-17T13:09:12Z</time>
      </trkpt>
      <trkpt lat="45.8952" lon="2.86326">
        <ele>762</ele>
        <time>2015-10-17T13:11:12Z</time>
      </trkpt>
      <trkpt lat="45.89535" lon="2.86333">
        <ele>762</ele>
        <time>2015-10-17T13:13:12Z</time>
      </trkpt>
      <trkpt lat="45.89555" lon="2.86346">
        <ele>762</ele>
        <time>2015-10-17T13:15:12Z</time>
      </trkpt>
      <trkpt lat="45.89593" lon="2.86365">
        <ele>761</ele>
        <time>2015-10-17T13:17:12Z</time>
      </trkpt>
      <trkpt lat="45.89614" lon="2.86375">
        <ele>761</ele>
        <time>2015-10-17T13:19:12Z</time>
      </trkpt>
      <trkpt lat="45.89662" lon="2.86396">
        <ele>760</ele>
        <time>2015-10-17T13:21:12Z</time>
      </trkpt>
      <trkpt lat="45.89688" lon="2.86407">
        <ele>760</ele>
        <time>2015-10-17T13:23:12Z</time>
      </trkpt>
      <trkpt lat="45.89716" lon="2.86421">
        <ele>761</ele>
        <time>2015-10-17T13:25:12Z</time>
      </trkpt>
      <trkpt lat="45.89747" lon="2.86436">
        <ele>761</ele>
        <time>2015-10-17T13:27:12Z</time>
      </trkpt>
      <trkpt lat="45.89768" lon="2.86445">
        <ele>760</ele>
        <time>2015-10-17T13:29:12Z</time>
      </trkpt>
      <trkpt lat="45.89785" lon="2.86452">
        <ele>759</ele>
        <time>2015-10-17T13:31:12Z</time>
      </trkpt>
      <trkpt lat="45.89783" lon="2.86465">
        <ele>760</ele>
        <time>2015-10-17T13:33:12Z</time>
      </trkpt>
      <trkpt lat="45.89776" lon="2.86478">
        <ele>761</ele>
        <time>2015-10-17T13:35:12Z</time>
      </trkpt>
      <trkpt lat="45.89782" lon="2.86493">
        <ele>761</ele>
        <time>2015-10-17T13:37:12Z</time>
      </trkpt>
      <trkpt lat="45.89783" lon="2.86514">
        <ele>761</ele>
        <time>2015-10-17T13:39:12Z</time>
      </trkpt>
      <trkpt lat="45.89783" lon="2.86528">
        <ele>761</ele>
        <time>2015-10-17T13:41:12Z</time>
      </trkpt>
      <trkpt lat="45.89782" lon="2.86557">
        <ele>760</ele>
        <time>2015-10-17T13:43:12Z</time>
      </trkpt>
      <trkpt lat="45.89779" lon="2.86585">
        <ele>760</ele>
        <time>2015-10-17T13:45:12Z</time>
      </trkpt>
      <trkpt lat="45.89768" lon="2.8662">
        <ele>760</ele>
        <time>2015-10-17T13:47:12Z</time>
      </trkpt>
      <trkpt lat="45.89762" lon="2.86643">
        <ele>759</ele>
        <time>2015-10-17T13:49:12Z</time>
      </trkpt>
      <trkpt lat="45.89754" lon="2.86666">
        <ele>759</ele>
        <time>2015-10-17T13:51:12Z</time>
      </trkpt>
      <trkpt lat="45.89744" lon="2.86694">
        <ele>760</ele>
        <time>2015-10-17T13:53:12Z</time>
      </trkpt>
      <trkpt lat="45.89733" lon="2.86714">
        <ele>761</ele>
        <time>2015-10-17T13:55:12Z</time>
      </trkpt>
      <trkpt lat="45.89721" lon="2.86746">
        <ele>764</ele>
        <time>2015-10-17T13:57:12Z</time>
      </trkpt>
      <trkpt lat="45.89712" lon="2.86768">
        <ele>765</ele>
        <time>2015-10-17T13:59:12Z</time>
      </trkpt>
      <trkpt lat="45.89695" lon="2.86768">
        <ele>768</ele>
        <time>2015-10-17T14:01:12Z</time>
      </trkpt>
      <trkpt lat="45.89681" lon="2.86785">
        <ele>770</ele>
        <time>2015-10-17T14:03:12Z</time>
      </trkpt>
      <trkpt lat="45.8967" lon="2.86796">
        <ele>772</ele>
        <time>2015-10-17T14:05:12Z</time>
      </trkpt>
      <trkpt lat="45.89652" lon="2.86813">
        <ele>772</ele>
        <time>2015-10-17T14:07:12Z</time>
      </trkpt>
      <trkpt lat="45.89633" lon="2.86828">
        <ele>773</ele>
        <time>2015-10-17T14:09:12Z</time>
      </trkpt>
      <trkpt lat="45.8964" lon="2.86846">
        <ele>771</ele>
        <time>2015-10-17T14:11:12Z</time>
      </trkpt>
      <trkpt lat="45.89637" lon="2.86903">
        <ele>767</ele>
        <time>2015-10-17T14:13:12Z</time>
      </trkpt>
      <trkpt lat="45.89637" lon="2.86925">
        <ele>766</ele>
        <time>2015-10-17T14:15:12Z</time>
      </trkpt>
      <trkpt lat="45.89636" lon="2.86963">
        <ele>765</ele>
        <time>2015-10-17T14:17:12Z</time>
      </trkpt>
      <trkpt lat="45.8963" lon="2.86997">
        <ele>764</ele>
        <time>2015-10-17T14:19:12Z</time>
      </trkpt>
      <trkpt lat="45.89612" lon="2.87023">
        <ele>764</ele>
        <time>2015-10-17T14:21:12Z</time>
      </trkpt>
      <trkpt lat="45.89595" lon="2.87053">
        <ele>763</ele>
        <time>2015-10-17T14:23:12Z</time>
      </trkpt>
      <trkpt lat="45.89582" lon="2.87104">
        <ele>760</ele>
        <time>2015-10-17T14:25:12Z</time>
      </trkpt>
      <trkpt lat="45.89586" lon="2.87154">
        <ele>758</ele>
        <time>2015-10-17T14:27:12Z</time>
      </trkpt>
      <trkpt lat="45.89597" lon="2.87191">
        <ele>760</ele>
        <time>2015-10-17T14:29:12Z</time>
      </trkpt>
      <trkpt lat="45.89591" lon="2.87227">
        <ele>762</ele>
        <time>2015-10-17T14:31:12Z</time>
      </trkpt>
      <trkpt lat="45.89579" lon="2.87279">
        <ele>765</ele>
        <time>2015-10-17T14:33:12Z</time>
      </trkpt>
      <trkpt lat="45.89582" lon="2.87327">
        <ele>768</ele>
        <time>2015-10-17T14:35:12Z</time>
      </trkpt>
      <trkpt lat="45.89591" lon="2.87348">
        <ele>770</ele>
        <time>2015-10-17T14:37:12Z</time>
      </trkpt>
      <trkpt lat="45.89608" lon="2.87365">
        <ele>771</ele>
        <time>2015-10-17T14:39:12Z</time>
      </trkpt>
      <trkpt lat="45.89627" lon="2.87379">
        <ele>772</ele>
        <time>2015-10-17T14:41:12Z</time>
      </trkpt>
      <trkpt lat="45.89651" lon="2.874">
        <ele>774</ele>
        <time>2015-10-17T14:43:12Z</time>
      </trkpt>
      <trkpt lat="45.89676" lon="2.87417">
        <ele>776</ele>
        <time>2015-10-17T14:45:12Z</time>
      </trkpt>
      <trkpt lat="45.89697" lon="2.87435">
        <ele>777</ele>
        <time>2015-10-17T14:47:12Z</time>
      </trkpt>
      <trkpt lat="45.89715" lon="2.87457">
        <ele>777</ele>
        <time>2015-10-17T14:49:12Z</time>
      </trkpt>
      <trkpt lat="45.89746" lon="2.8751">
        <ele>780</ele>
        <time>2015-10-17T14:51:12Z</time>
      </trkpt>
      <trkpt lat="45.89768" lon="2.87536">
        <ele>781</ele>
        <time>2015-10-17T14:53:12Z</time>
      </trkpt>
      <trkpt lat="45.8979" lon="2.87577">
        <ele>784</ele>
        <time>2015-10-17T14:55:12Z</time>
      </trkpt>
      <trkpt lat="45.89817" lon="2.87638">
        <ele>787</ele>
        <time>2015-10-17T14:57:12Z</time>
      </trkpt>
      <trkpt lat="45.89762" lon="2.87706">
        <ele>795</ele>
        <time>2015-10-17T14:59:12Z</time>
      </trkpt>
      <trkpt lat="45.89748" lon="2.8772">
        <ele>797</ele>
        <time>2015-10-17T15:01:12Z</time>
      </trkpt>
      <trkpt lat="45.897" lon="2.8779">
        <ele>803</ele>
        <time>2015-10-17T15:03:12Z</time>
      </trkpt>
      <trkpt lat="45.89679" lon="2.87821">
        <ele>805</ele>
        <time>2015-10-17T15:05:12Z</time>
      </trkpt>
      <trkpt lat="45.89663" lon="2.8785">
        <ele>807</ele>
        <time>2015-10-17T15:07:12Z</time>
      </trkpt>
      <trkpt lat="45.89647" lon="2.87873">
        <ele>808</ele>
        <time>2015-10-17T15:09:12Z</time>
      </trkpt>
      <trkpt lat="45.89616" lon="2.87923">
        <ele>812</ele>
        <time>2015-10-17T15:11:12Z</time>
      </trkpt>
      <trkpt lat="45.8961" lon="2.87951">
        <ele>815</ele>
        <time>2015-10-17T15:13:12Z</time>
      </trkpt>
      <trkpt lat="45.89605" lon="2.88001">
        <ele>820</ele>
        <time>2015-10-17T15:15:12Z</time>
      </trkpt>
      <trkpt lat="45.89602" lon="2.88044">
        <ele>824</ele>
        <time>2015-10-17T15:17:12Z</time>
      </trkpt>
      <trkpt lat="45.89603" lon="2.88081">
        <ele>826</ele>
        <time>2015-10-17T15:19:12Z</time>
      </trkpt>
      <trkpt lat="45.89596" lon="2.88099">
        <ele>829</ele>
        <time>2015-10-17T15:21:12Z</time>
      </trkpt>
      <trkpt lat="45.89585" lon="2.88095">
        <ele>830</ele>
        <time>2015-10-17T15:23:12Z</time>
      </trkpt>
      <trkpt lat="45.89572" lon="2.88095">
        <ele>829</ele>
        <time>2015-10-17T15:25:12Z</time>
      </trkpt>
      <trkpt lat="45.89568" lon="2.88114">
        <ele>830</ele>
        <time>2015-10-17T15:27:12Z</time>
      </trkpt>
      <trkpt lat="45.89565" lon="2.88139">
        <ele>831</ele>
        <time>2015-10-17T15:29:12Z</time>
      </trkpt>
      <trkpt lat="45.89574" lon="2.88165">
        <ele>833</ele>
        <time>2015-10-17T15:31:12Z</time>
      </trkpt>
      <trkpt lat="45.89588" lon="2.88198">
        <ele>837</ele>
        <time>2015-10-17T15:33:12Z</time>
      </trkpt>
      <trkpt lat="45.89595" lon="2.88218">
        <ele>839</ele>
        <time>2015-10-17T15:35:12Z</time>
      </trkpt>
      <trkpt lat="45.89599" lon="2.88244">
        <ele>841</ele>
        <time>2015-10-17T15:37:12Z</time>
      </trkpt>
      <trkpt lat="45.89596" lon="2.88273">
        <ele>842</ele>
        <time>2015-10-17T15:39:12Z</time>
      </trkpt>
      <trkpt lat="45.89599" lon="2.88305">
        <ele>844</ele>
        <time>2015-10-17T15:41:12Z</time>
      </trkpt>
      <trkpt lat="45.89608" lon="2.88323">
        <ele>845</ele>
        <time>2015-10-17T15:43:12Z</time>
      </trkpt>
      <trkpt lat="45.89625" lon="2.88335">
        <ele>845</ele>
        <time>2015-10-17T15:45:12Z</time>
      </trkpt>
      <trkpt lat="45.89644" lon="2.88357">
        <ele>848</ele>
        <time>2015-10-17T15:47:12Z</time>
      </trkpt>
      <trkpt lat="45.89658" lon="2.88376">
        <ele>851</ele>
        <time>2015-10-17T15:49:12Z</time>
      </trkpt>
      <trkpt lat="45.8966" lon="2.88397">
        <ele>854</ele>
        <time>2015-10-17T15:51:12Z</time>
      </trkpt>
      <trkpt lat="45.89652" lon="2.88418">
        <ele>856</ele>
        <time>2015-10-17T15:53:12Z</time>
      </trkpt>
      <trkpt lat="45.89641" lon="2.88435">
        <ele>858</ele>
        <time>2015-10-17T15:55:12Z</time>
      </trkpt>
      <trkpt lat="45.8963" lon="2.88451">
        <ele>860</ele>
        <time>2015-10-17T15:57:12Z</time>
      </trkpt>
      <trkpt lat="45.89638" lon="2.88466">
        <ele>862</ele>
        <time>2015-10-17T15:59:12Z</time>
      </trkpt>
      <trkpt lat="45.8966" lon="2.88517">
        <ele>871</ele>
        <time>2015-10-17T16:01:12Z</time>
      </trkpt>
      <trkpt lat="45.89672" lon="2.88558">
        <ele>874</ele>
        <time>2015-10-17T16:03:12Z</time>
      </trkpt>
      <trkpt lat="45.8965" lon="2.88493">
        <ele>867</ele>
        <time>2015-10-17T16:05:12Z</time>
      </trkpt>
      <trkpt lat="45.89629" lon="2.88442">
        <ele>858</ele>
        <time>2015-10-17T16:07:12Z</time>
      </trkpt>
      <trkpt lat="45.89611" lon="2.88457">
        <ele>859</ele>
        <time>2015-10-17T16:09:12Z</time>
      </trkpt>
      <trkpt lat="45.89578" lon="2.88478">
        <ele>858</ele>
        <time>2015-10-17T16:11:12Z</time>
      </trkpt>
      <trkpt lat="45.8955" lon="2.88476">
        <ele>855</ele>
        <time>2015-10-17T16:13:12Z</time>
      </trkpt>
      <trkpt lat="45.89535" lon="2.88465">
        <ele>853</ele>
        <time>2015-10-17T16:15:12Z</time>
      </trkpt>
      <trkpt lat="45.8952" lon="2.8845">
        <ele>850</ele>
        <time>2015-10-17T16:17:12Z</time>
      </trkpt>
      <trkpt lat="45.89502" lon="2.8843">
        <ele>847</ele>
        <time>2015-10-17T16:19:12Z</time>
      </trkpt>
      <trkpt lat="45.89491" lon="2.88413">
        <ele>845</ele>
        <time>2015-10-17T16:21:12Z</time>
      </trkpt>
      <trkpt lat="45.89476" lon="2.88396">
        <ele>844</ele>
        <time>2015-10-17T16:23:12Z</time>
      </trkpt>
      <trkpt lat="45.89456" lon="2.88388">
        <ele>843</ele>
        <time>2015-10-17T16:25:12Z</time>
      </trkpt>
      <trkpt lat="45.89425" lon="2.88374">
        <ele>841</ele>
        <time>2015-10-17T16:27:12Z</time>
      </trkpt>
      <trkpt lat="45.89402" lon="2.8838">
        <ele>842</ele>
        <time>2015-10-17T16:29:12Z</time>
      </trkpt>
      <trkpt lat="45.8938" lon="2.88393">
        <ele>842</ele>
        <time>2015-10-17T16:31:12Z</time>
      </trkpt>
      <trkpt lat="45.89357" lon="2.88395">
        <ele>843</ele>
        <time>2015-10-17T16:33:12Z</time>
      </trkpt>
      <trkpt lat="45.89325" lon="2.88405">
        <ele>843</ele>
        <time>2015-10-17T16:35:12Z</time>
      </trkpt>
      <trkpt lat="45.89305" lon="2.88411">
        <ele>843</ele>
        <time>2015-10-17T16:37:12Z</time>
      </trkpt>
      <trkpt lat="45.89287" lon="2.88425">
        <ele>843</ele>
        <time>2015-10-17T16:39:12Z</time>
      </trkpt>
      <trkpt lat="45.89269" lon="2.88433">
        <ele>844</ele>
        <time>2015-10-17T16:41:12Z</time>
      </trkpt>
      <trkpt lat="45.89228" lon="2.88463">
        <ele>845</ele>
        <time>2015-10-17T16:43:12Z</time>
      </trkpt>
      <trkpt lat="45.89204" lon="2.88467">
        <ele>845</ele>
        <time>2015-10-17T16:45:12Z</time>
      </trkpt>
      <trkpt lat="45.89185" lon="2.88473">
        <ele>845</ele>
        <time>2015-10-17T16:47:12Z</time>
      </trkpt>
      <trkpt lat="45.89187" lon="2.88499">
        <ele>846</ele>
        <time>2015-10-17T16:49:12Z</time>
      </trkpt>
      <trkpt lat="45.89185" lon="2.88519">
        <ele>847</ele>
        <time>2015-10-17T16:51:12Z</time>
      </trkpt>
      <trkpt lat="45.89184" lon="2.88549">
        <ele>848</ele>
        <time>2015-10-17T16:53:12Z</time>
      </trkpt>
      <trkpt lat="45.8919" lon="2.88585">
        <ele>849</ele>
        <time>2015-10-17T16:55:12Z</time>
      </trkpt>
      <trkpt lat="45.89193" lon="2.88618">
        <ele>850</ele>
        <time>2015-10-17T16:57:12Z</time>
      </trkpt>
      <trkpt lat="45.89198" lon="2.88653">
        <ele>851</ele>
        <time>2015-10-17T16:59:12Z</time>
      </trkpt>
      <trkpt lat="45.89219" lon="2.88659">
        <ele>851</ele>
        <time>2015-10-17T17:01:12Z</time>
      </trkpt>
      <trkpt lat="45.89222" lon="2.88676">
        <ele>851</ele>
        <time>2015-10-17T17:03:12Z</time>
      </trkpt>
      <trkpt lat="45.89236" lon="2.88688">
        <ele>850</ele>
        <time>2015-10-17T17:05:12Z</time>
      </trkpt>
      <trkpt lat="45.89252" lon="2.88699">
        <ele>850</ele>
        <time>2015-10-17T17:07:12Z</time>
      </trkpt>
      <trkpt lat="45.89268" lon="2.88715">
        <ele>850</ele>
        <time>2015-10-17T17:09:12Z</time>
      </trkpt>
      <trkpt lat="45.89276" lon="2.88735">
        <ele>849</ele>
        <time>2015-10-17T17:11:12Z</time>
      </trkpt>
      <trkpt lat="45.89271" lon="2.88755">
        <ele>848</ele>
        <time>2015-10-17T17:13:12Z</time>
      </trkpt>
      <trkpt lat="45.89257" lon="2.88805">
        <ele>843</ele>
        <time>2015-10-17T17:15:12Z</time>
      </trkpt>
      <trkpt lat="45.89246" lon="2.88823">
        <ele>842</ele>
        <time>2015-10-17T17:17:12Z</time>
      </trkpt>
      <trkpt lat="45.89224" lon="2.88834">
        <ele>843</ele>
        <time>2015-10-17T17:19:12Z</time>
      </trkpt>
      <trkpt lat="45.89209" lon="2.88847">
        <ele>843</ele>
        <time>2015-10-17T17:21:12Z</time>
      </trkpt>
      <trkpt lat="45.89203" lon="2.8887">
        <ele>841</ele>
        <time>2015-10-17T17:23:12Z</time>
      </trkpt>
      <trkpt lat="45.89201" lon="2.88906">
        <ele>836</ele>
        <time>2015-10-17T17:25:12Z</time>
      </trkpt>
      <trkpt lat="45.89202" lon="2.88946">
        <ele>833</ele>
        <time>2015-10-17T17:27:12Z</time>
      </trkpt>
      <trkpt lat="45.89197" lon="2.88996">
        <ele>832</ele>
        <time>2015-10-17T17:29:12Z</time>
      </trkpt>
      <trkpt lat="45.89181" lon="2.89074">
        <ele>832</ele>
        <time>2015-10-17T17:31:12Z</time>
      </trkpt>
      <trkpt lat="45.89184" lon="2.89103">
        <ele>831</ele>
        <time>2015-10-17T17:33:12Z</time>
      </trkpt>
      <trkpt lat="45.89211" lon="2.89159">
        <ele>828</ele>
        <time>2015-10-17T17:35:12Z</time>
      </trkpt>
      <trkpt lat="45.89229" lon="2.89202">
        <ele>824</ele>
        <time>2015-10-17T17:37:12Z</time>
      </trkpt>
      <trkpt lat="45.8925" lon="2.89243">
        <ele>820</ele>
        <time>2015-10-17T17:39:12Z</time>
      </trkpt>
      <trkpt lat="45.89272" lon="2.89274">
        <ele>818</ele>
        <time>2015-10-17T17:41:12Z</time>
      </trkpt>
      <trkpt lat="45.89296" lon="2.89316">
        <ele>816</ele>
        <time>2015-10-17T17:43:12Z</time>
      </trkpt>
      <trkpt lat="45.89313" lon="2.89348">
        <ele>815</ele>
        <time>2015-10-17T17:45:12Z</time>
      </trkpt>
      <trkpt lat="45.89324" lon="2.89385">
        <ele>814</ele>
        <time>2015-10-17T17:47:12Z</time>
      </trkpt>
      <trkpt lat="45.89336" lon="2.89429">
        <ele>813</ele>
        <time>2015-10-17T17:49:12Z</time>
      </trkpt>
      <trkpt lat="45.89345" lon="2.89461">
        <ele>812</ele>
        <time>2015-10-17T17:51:12Z</time>
      </trkpt>
      <trkpt lat="45.8934" lon="2.89484">
        <ele>812</ele>
        <time>2015-10-17T17:53:12Z</time>
      </trkpt>
      <trkpt lat="45.89327" lon="2.89508">
        <ele>812</ele>
        <time>2015-10-17T17:55:12Z</time>
      </trkpt>
      <trkpt lat="45.89314" lon="2.89524">
        <ele>812</ele>
        <time>2015-10-17T17:57:12Z</time>
      </trkpt>
      <trkpt lat="45.89302" lon="2.89549">
        <ele>812</ele>
        <time>2015-10-17T17:59:12Z</time>
      </trkpt>
      <trkpt lat="45.89291" lon="2.89579">
        <ele>813</ele>
        <time>2015-10-17T18:01:12Z</time>
      </trkpt>
      <trkpt lat="45.89287" lon="2.89599">
        <ele>812</ele>
        <time>2015-10-17T18:03:12Z</time>
      </trkpt>
      <trkpt lat="45.89271" lon="2.89623">
        <ele>813</ele>
        <time>2015-10-17T18:05:12Z</time>
      </trkpt>
      <trkpt lat="45.89237" lon="2.89649">
        <ele>814</ele>
        <time>2015-10-17T18:07:12Z</time>
      </trkpt>
      <trkpt lat="45.89222" lon="2.89665">
        <ele>815</ele>
        <time>2015-10-17T18:09:12Z</time>
      </trkpt>
      <trkpt lat="45.8921" lon="2.8968">
        <ele>816</ele>
        <time>2015-10-17T18:11:12Z</time>
      </trkpt>
      <trkpt lat="45.89196" lon="2.8969">
        <ele>817</ele>
        <time>2015-10-17T18:13:12Z</time>
      </trkpt>
      <trkpt lat="45.89181" lon="2.89694">
        <ele>817</ele>
        <time>2015-10-17T18:15:12Z</time>
      </trkpt>
      <trkpt lat="45.89157" lon="2.89712">
        <ele>819</ele>
        <time>2015-10-17T18:17:12Z</time>
      </trkpt>
      <trkpt lat="45.89142" lon="2.89692">
        <ele>820</ele>
        <time>2015-10-17T18:19:12Z</time>
      </trkpt>
      <trkpt lat="45.89119" lon="2.8969">
        <ele>822</ele>
        <time>2015-10-17T18:21:12Z</time>
      </trkpt>
      <trkpt lat="45.89099" lon="2.89684">
        <ele>824</ele>
        <time>2015-10-17T18:23:12Z</time>
      </trkpt>
      <trkpt lat="45.89082" lon="2.89677">
        <ele>825</ele>
        <time>2015-10-17T18:25:12Z</time>
      </trkpt>
      <trkpt lat="45.89066" lon="2.89673">
        <ele>827</ele>
        <time>2015-10-17T18:27:12Z</time>
      </trkpt>
      <trkpt lat="45.89051" lon="2.89668">
        <ele>828</ele>
        <time>2015-10-17T18:29:12Z</time>
      </trkpt>
      <trkpt lat="45.89031" lon="2.89662">
        <ele>831</ele>
        <time>2015-10-17T18:31:12Z</time>
      </trkpt>
      <trkpt lat="45.89007" lon="2.89654">
        <ele>833</ele>
        <time>2015-10-17T18:33:12Z</time>
      </trkpt>
      <trkpt lat="45.88989" lon="2.89643">
        <ele>835</ele>
        <time>2015-10-17T18:35:12Z</time>
      </trkpt>
      <trkpt lat="45.88974" lon="2.89634">
        <ele>836</ele>
        <time>2015-10-17T18:37:12Z</time>
      </trkpt>
      <trkpt lat="45.8896" lon="2.89628">
        <ele>837</ele>
        <time>2015-10-17T18:39:12Z</time>
      </trkpt>
      <trkpt lat="45.88944" lon="2.89632">
        <ele>838</ele>
        <time>2015-10-17T18:41:12Z</time>
      </trkpt>
      <trkpt lat="45.88926" lon="2.89633">
        <ele>840</ele>
        <time>2015-10-17T18:43:12Z</time>
      </trkpt>
      <trkpt lat="45.88899" lon="2.8962">
        <ele>841</ele>
        <time>2015-10-17T18:45:12Z</time>
      </trkpt>
      <trkpt lat="45.88863" lon="2.89602">
        <ele>843</ele>
        <time>2015-10-17T18:47:12Z</time>
      </trkpt>
      <trkpt lat="45.88849" lon="2.89596">
        <ele>843</ele>
        <time>2015-10-17T18:49:12Z</time>
      </trkpt>
      <trkpt lat="45.88813" lon="2.89582">
        <ele>845</ele>
        <time>2015-10-17T18:51:12Z</time>
      </trkpt>
      <trkpt lat="45.88791" lon="2.89568">
        <ele>846</ele>
        <time>2015-10-17T18:53:12Z</time>
      </trkpt>
      <trkpt lat="45.88762" lon="2.89556">
        <ele>847</ele>
        <time>2015-10-17T18:55:12Z</time>
      </trkpt>
      <trkpt lat="45.88739" lon="2.89543">
        <ele>848</ele>
        <time>2015-10-17T18:57:12Z</time>
      </trkpt>
      <trkpt lat="45.88712" lon="2.89532">
        <ele>848</ele>
        <time>2015-10-17T18:59:12Z</time>
      </trkpt>
      <trkpt lat="45.88694" lon="2.8952">
        <ele>849</ele>
        <time>2015-10-17T19:01:12Z</time>
      </trkpt>
      <trkpt lat="45.88675" lon="2.89507">
        <ele>849</ele>
        <time>2015-10-17T19:03:12Z</time>
      </trkpt>
      <trkpt lat="45.88657" lon="2.8949">
        <ele>849</ele>
        <time>2015-10-17T19:05:12Z</time>
      </trkpt>
      <trkpt lat="45.88649" lon="2.89478">
        <ele>849</ele>
        <time>2015-10-17T19:07:12Z</time>
      </trkpt>
      <trkpt lat="45.88633" lon="2.89455">
        <ele>849</ele>
        <time>2015-10-17T19:09:12Z</time>
      </trkpt>
      <trkpt lat="45.88626" lon="2.89439">
        <ele>850</ele>
        <time>2015-10-17T19:11:12Z</time>
      </trkpt>
      <trkpt lat="45.88606" lon="2.89374">
        <ele>852</ele>
        <time>2015-10-17T19:13:12Z</time>
      </trkpt>
      <trkpt lat="45.88597" lon="2.89325">
        <ele>853</ele>
        <time>2015-10-17T19:15:12Z</time>
      </trkpt>
      <trkpt lat="45.88593" lon="2.89286">
        <ele>854</ele>
        <time>2015-10-17T19:17:12Z</time>
      </trkpt>
      <trkpt lat="45.88592" lon="2.89236">
        <ele>856</ele>
        <time>2015-10-17T19:19:12Z</time>
      </trkpt>
      <trkpt lat="45.88588" lon="2.89174">
        <ele>857</ele>
        <time>2015-10-17T19:21:12Z</time>
      </trkpt>
      <trkpt lat="45.88601" lon="2.89138">
        <ele>860</ele>
        <time>2015-10-17T19:23:12Z</time>
      </trkpt>
      <trkpt lat="45.88611" lon="2.89103">
        <ele>863</ele>
        <time>2015-10-17T19:25:12Z</time>
      </trkpt>
      <trkpt lat="45.88617" lon="2.89068">
        <ele>865</ele>
        <time>2015-10-17T19:27:12Z</time>
      </trkpt>
      <trkpt lat="45.88626" lon="2.89019">
        <ele>868</ele>
        <time>2015-10-17T19:29:12Z</time>
      </trkpt>
      <trkpt lat="45.88631" lon="2.88988">
        <ele>870</ele>
        <time>2015-10-17T19:31:12Z</time>
      </trkpt>
      <trkpt lat="45.88629" lon="2.88955">
        <ele>871</ele>
        <time>2015-10-17T19:33:12Z</time>
      </trkpt>
      <trkpt lat="45.88624" lon="2.88935">
        <ele>871</ele>
        <time>2015-10-17T19:35:12Z</time>
      </trkpt>
      <trkpt lat="45.88612" lon="2.88922">
        <ele>869</ele>
        <time>2015-10-17T19:37:12Z</time>
      </trkpt>
      <trkpt lat="45.88596" lon="2.88913">
        <ele>867</ele>
        <time>2015-10-17T19:39:12Z</time>
      </trkpt>
      <trkpt lat="45.88564" lon="2.88883">
        <ele>865</ele>
        <time>2015-10-17T19:41:12Z</time>
      </trkpt>
      <trkpt lat="45.88554" lon="2.8887">
        <ele>866</ele>
        <time>2015-10-17T19:43:12Z</time>
      </trkpt>
      <trkpt lat="45.88547" lon="2.88863">
        <ele>866</ele>
        <time>2015-10-17T19:45:12Z</time>
      </trkpt>
      <trkpt lat="45.88529" lon="2.8885">
        <ele>866</ele>
        <time>2015-10-17T19:47:12Z</time>
      </trkpt>
      <trkpt lat="45.88514" lon="2.88849">
        <ele>865</ele>
        <time>2015-10-17T19:49:12Z</time>
      </trkpt>
      <trkpt lat="45.88497" lon="2.88855">
        <ele>862</ele>
        <time>2015-10-17T19:51:12Z</time>
      </trkpt>
      <trkpt lat="45.88489" lon="2.88858">
        <ele>861</ele>
        <time>2015-10-17T19:53:12Z</time>
      </trkpt>
      <trkpt lat="45.88472" lon="2.88861">
        <ele>858</ele>
        <time>2015-10-17T19:55:12Z</time>
      </trkpt>
      <trkpt lat="45.88455" lon="2.88859">
        <ele>857</ele>
        <time>2015-10-17T19:57:12Z</time>
      </trkpt>
      <trkpt lat="45.88438" lon="2.88859">
        <ele>856</ele>
        <time>2015-10-17T19:59:12Z</time>
      </trkpt>
      <trkpt lat="45.88422" lon="2.88862">
        <ele>854</ele>
        <time>2015-10-17T20:01:12Z</time>
      </trkpt>
      <trkpt lat="45.88411" lon="2.88859">
        <ele>853</ele>
        <time>2015-10-17T20:03:12Z</time>
      </trkpt>
      <trkpt lat="45.88402" lon="2.88865">
        <ele>851</ele>
        <time>2015-10-17T20:05:12Z</time>
      </trkpt>
      <trkpt lat="45.88386" lon="2.88869">
        <ele>848</ele>
        <time>2015-10-17T20:07:12Z</time>
      </trkpt>
      <trkpt lat="45.88369" lon="2.88872">
        <ele>845</ele>
        <time>2015-10-17T20:09:12Z</time>
      </trkpt>
      <trkpt lat="45.88325" lon="2.88865">
        <ele>841</ele>
        <time>2015-10-17T20:11:12Z</time>
      </trkpt>
      <trkpt lat="45.88306" lon="2.88845">
        <ele>841</ele>
        <time>2015-10-17T20:13:12Z</time>
      </trkpt>
      <trkpt lat="45.88288" lon="2.88823">
        <ele>840</ele>
        <time>2015-10-17T20:15:12Z</time>
      </trkpt>
      <trkpt lat="45.88258" lon="2.88778">
        <ele>837</ele>
        <time>2015-10-17T20:17:12Z</time>
      </trkpt>
      <trkpt lat="45.88241" lon="2.88751">
        <ele>835</ele>
        <time>2015-10-17T20:19:12Z</time>
      </trkpt>
      <trkpt lat="45.88233" lon="2.88737">
        <ele>833</ele>
        <time>2015-10-17T20:21:12Z</time>
      </trkpt>
      <trkpt lat="45.8822" lon="2.88705">
        <ele>830</ele>
        <time>2015-10-17T20:23:12Z</time>
      </trkpt>
      <trkpt lat="45.88216" lon="2.88676">
        <ele>829</ele>
        <time>2015-10-17T20:25:12Z</time>
      </trkpt>
      <trkpt lat="45.88216" lon="2.88625">
        <ele>829</ele>
        <time>2015-10-17T20:27:12Z</time>
      </trkpt>
      <trkpt lat="45.88213" lon="2.8857">
        <ele>829</ele>
        <time>2015-10-17T20:29:12Z</time>
      </trkpt>
      <trkpt lat="45.8821" lon="2.88521">
        <ele>827</ele>
        <time>2015-10-17T20:31:12Z</time>
      </trkpt>
      <trkpt lat="45.88211" lon="2.88484">
        <ele>826</ele>
        <time>2015-10-17T20:33:12Z</time>
      </trkpt>
      <trkpt lat="45.88199" lon="2.88482">
        <ele>823</ele>
        <time>2015-10-17T20:35:12Z</time>
      </trkpt>
      <trkpt lat="45.88188" lon="2.88467">
        <ele>821</ele>
        <time>2015-10-17T20:37:12Z</time>
      </trkpt>
      <trkpt lat="45.8818" lon="2.88449">
        <ele>819</ele>
        <time>2015-10-17T20:39:12Z</time>
      </trkpt>
      <trkpt lat="45.88166" lon="2.88438">
        <ele>816</ele>
        <time>2015-10-17T20:41:12Z</time>
      </trkpt>
      <trkpt lat="45.88148" lon="2.88439">
        <ele>815</ele>
        <time>2015-10-17T20:43:12Z</time>
      </trkpt>
      <trkpt lat="45.88128" lon="2.8844">
        <ele>813</ele>
        <time>2015-10-17T20:45:12Z</time>
      </trkpt>
      <trkpt lat="45.88071" lon="2.88436">
        <ele>807</ele>
        <time>2015-10-17T20:47:12Z</time>
      </trkpt>
      <trkpt lat="45.88055" lon="2.88428">
        <ele>806</ele>
        <time>2015-10-17T20:49:12Z</time>
      </trkpt>
      <trkpt lat="45.88022" lon="2.88423">
        <ele>803</ele>
        <time>2015-10-17T20:51:12Z</time>
      </trkpt>
      <trkpt lat="45.88001" lon="2.88421">
        <ele>801</ele>
        <time>2015-10-17T20:53:12Z</time>
      </trkpt>
      <trkpt lat="45.87986" lon="2.88409">
        <ele>799</ele>
        <time>2015-10-17T20:55:12Z</time>
      </trkpt>
      <trkpt lat="45.87968" lon="2.88391">
        <ele>796</ele>
        <time>2015-10-17T20:57:12Z</time>
      </trkpt>
      <trkpt lat="45.87958" lon="2.8838">
        <ele>794</ele>
        <time>2015-10-17T20:59:12Z</time>
      </trkpt>
      <trkpt lat="45.87947" lon="2.88374">
        <ele>792</ele>
        <time>2015-10-17T21:01:12Z</time>
      </trkpt>
      <trkpt lat="45.87927" lon="2.88374">
        <ele>790</ele>
        <time>2015-10-17T21:03:12Z</time>
      </trkpt>
      <trkpt lat="45.87908" lon="2.88363">
        <ele>787</ele>
        <time>2015-10-17T21:05:12Z</time>
      </trkpt>
      <trkpt lat="45.87868" lon="2.88347">
        <ele>781</ele>
        <time>2015-10-17T21:07:12Z</time>
      </trkpt>
      <trkpt lat="45.87843" lon="2.88333">
        <ele>778</ele>
        <time>2015-10-17T21:09:12Z</time>
      </trkpt>
      <trkpt lat="45.87825" lon="2.88323">
        <ele>776</ele>
        <time>2015-10-17T21:11:12Z</time>
      </trkpt>
      <trkpt lat="45.87804" lon="2.88318">
        <ele>774</ele>
        <time>2015-10-17T21:13:12Z</time>
      </trkpt>
      <trkpt lat="45.8778" lon="2.88302">
        <ele>772</ele>
        <time>2015-10-17T21:15:12Z</time>
      </trkpt>
      <trkpt lat="45.87771" lon="2.88233">
        <ele>773</ele>
        <time>2015-10-17T21:17:12Z</time>
      </trkpt>
      <trkpt lat="45.87762" lon="2.88207">
        <ele>773</ele>
        <time>2015-10-17T21:19:12Z</time>
      </trkpt>
      <trkpt lat="45.87744" lon="2.88112">
        <ele>772</ele>
        <time>2015-10-17T21:21:12Z</time>
      </trkpt>
      <trkpt lat="45.8775" lon="2.88094">
        <ele>772</ele>
        <time>2015-10-17T21:23:12Z</time>
      </trkpt>
      <trkpt lat="45.87757" lon="2.88069">
        <ele>771</ele>
        <time>2015-10-17T21:25:12Z</time>
      </trkpt>
      <trkpt lat="45.87768" lon="2.88044">
        <ele>769</ele>
        <time>2015-10-17T21:27:12Z</time>
      </trkpt>
      <trkpt lat="45.87772" lon="2.88015">
        <ele>767</ele>
        <time>2015-10-17T21:29:12Z</time>
      </trkpt>
      <trkpt lat="45.8776" lon="2.88008">
        <ele>767</ele>
        <time>2015-10-17T21:31:12Z</time>
      </trkpt>
      <trkpt lat="45.87768" lon="2.87984">
        <ele>766</ele>
        <time>2015-10-17T21:33:12Z</time>
      </trkpt>
      <trkpt lat="45.8776" lon="2.87957">
        <ele>765</ele>
        <time>2015-10-17T21:35:12Z</time>
      </trkpt>
      <trkpt lat="45.87749" lon="2.87941">
        <ele>764</ele>
        <time>2015-10-17T21:37:12Z</time>
      </trkpt>
      <trkpt lat="45.8772" lon="2.8793">
        <ele>764</ele>
        <time>2015-10-17T21:39:12Z</time>
      </trkpt>
      <trkpt lat="45.87691" lon="2.87926">
        <ele>765</ele>
        <time>2015-10-17T21:41:12Z</time>
      </trkpt>
      <trkpt lat="45.87696" lon="2.87912">
        <ele>765</ele>
        <time>2015-10-17T21:43:12Z</time>
      </trkpt>
      <trkpt lat="45.87712" lon="2.87886">
        <ele>765</ele>
        <time>2015-10-17T21:45:12Z</time>
      </trkpt>
      <trkpt lat="45.87722" lon="2.87863">
        <ele>765</ele>
        <time>2015-10-17T21:47:12Z</time>
      </trkpt>
      <trkpt lat="45.87726" lon="2.8785">
        <ele>765</ele>
        <time>2015-10-17T21:49:12Z</time>
      </trkpt>
      <trkpt lat="45.87747" lon="2.87816">
        <ele>763</ele>
        <time>2015-10-17T21:51:12Z</time>
      </trkpt>
      <trkpt lat="45.87758" lon="2.87799">
        <ele>764</ele>
        <time>2015-10-17T21:53:12Z</time>
      </trkpt>
      <trkpt lat="45.87774" lon="2.87737">
        <ele>768</ele>
        <time>2015-10-17T21:55:12Z</time>
      </trkpt>
      <trkpt lat="45.87795" lon="2.8767">
        <ele>776</ele>
        <time>2015-10-17T21:57:12Z</time>
      </trkpt>
      <trkpt lat="45.87808" lon="2.87635">
        <ele>779</ele>
        <time>2015-10-17T21:59:12Z</time>
      </trkpt>
      <trkpt lat="45.87821" lon="2.87585">
        <ele>782</ele>
        <time>2015-10-17T22:01:12Z</time>
      </trkpt>
      <trkpt lat="45.87827" lon="2.87555">
        <ele>781</ele>
        <time>2015-10-17T22:03:12Z</time>
      </trkpt>
      <trkpt lat="45.87824" lon="2.87518">
        <ele>783</ele>
        <time>2015-10-17T22:05:12Z</time>
      </trkpt>
      <trkpt lat="45.87803" lon="2.87468">
        <ele>789</ele>
        <time>2015-10-17T22:07:12Z</time>
      </trkpt>
      <trkpt lat="45.87768" lon="2.87442">
        <ele>798</ele>
        <time>2015-10-17T22:09:12Z</time>
      </trkpt>
      <trkpt lat="45.87759" lon="2.87461">
        <ele>802</ele>
        <time>2015-10-17T22:11:12Z</time>
      </trkpt>
      <trkpt lat="45.87745" lon="2.87468">
        <ele>806</ele>
        <time>2015-10-17T22:13:12Z</time>
      </trkpt>
      <trkpt lat="45.87727" lon="2.87456">
        <ele>809</ele>
        <time>2015-10-17T22:15:12Z</time>
      </trkpt>
      <trkpt lat="45.87691" lon="2.87398">
        <ele>815</ele>
        <time>2015-10-17T22:17:12Z</time>
      </trkpt>
      <trkpt lat="45.8767" lon="2.87315">
        <ele>819</ele>
        <time>2015-10-17T22:19:12Z</time>
      </trkpt>
      <trkpt lat="45.87657" lon="2.87218">
        <ele>819</ele>
        <time>2015-10-17T22:21:12Z</time>
      </trkpt>
      <trkpt lat="45.87647" lon="2.87165">
        <ele>821</ele>
        <time>2015-10-17T22:23:12Z</time>
      </trkpt>
      <trkpt lat="45.87639" lon="2.87133">
        <ele>821</ele>
        <time>2015-10-17T22:25:12Z</time>
      </trkpt>
      <trkpt lat="45.87635" lon="2.87059">
        <ele>820</ele>
        <time>2015-10-17T22:27:12Z</time>
      </trkpt>
      <trkpt lat="45.87647" lon="2.87034">
        <ele>816</ele>
        <time>2015-10-17T22:29:12Z</time>
      </trkpt>
      <trkpt lat="45.8765" lon="2.8702">
        <ele>815</ele>
        <time>2015-10-17T22:31:12Z</time>
      </trkpt>
      <trkpt lat="45.87645" lon="2.86992">
        <ele>815</ele>
        <time>2015-10-17T22:33:12Z</time>
      </trkpt>
      <trkpt lat="45.8763" lon="2.86976">
        <ele>817</ele>
        <time>2015-10-17T22:35:12Z</time>
      </trkpt>
      <trkpt lat="45.87615" lon="2.86968">
        <ele>819</ele>
        <time>2015-10-17T22:37:12Z</time>
      </trkpt>
      <trkpt lat="45.87592" lon="2.86945">
        <ele>820</ele>
        <time>2015-10-17T22:39:12Z</time>
      </trkpt>
      <trkpt lat="45.87577" lon="2.86929">
        <ele>820</ele>
        <time>2015-10-17T22:41:12Z</time>
      </trkpt>
      <trkpt lat="45.87566" lon="2.86911">
        <ele>819</ele>
        <time>2015-10-17T22:43:12Z</time>
      </trkpt>
      <trkpt lat="45.87558" lon="2.86886">
        <ele>818</ele>
        <time>2015-10-17T22:45:12Z</time>
      </trkpt>
      <trkpt lat="45.87554" lon="2.86853">
        <ele>817</ele>
        <time>2015-10-17T22:47:12Z</time>
      </trkpt>
      <trkpt lat="45.87548" lon="2.86813">
        <ele>816</ele>
        <time>2015-10-17T22:49:12Z</time>
      </trkpt>
      <trkpt lat="45.87538" lon="2.86753">
        <ele>817</ele>
        <time>2015-10-17T22:51:12Z</time>
      </trkpt>
      <trkpt lat="45.87536" lon="2.86718">
        <ele>817</ele>
        <time>2015-10-17T22:53:12Z</time>
      </trkpt>
      <trkpt lat="45.87535" lon="2.86694">
        <ele>817</ele>
        <time>2015-10-17T22:55:12Z</time>
      </trkpt>
      <trkpt lat="45.87532" lon="2.86672">
        <ele>817</ele>
        <time>2015-10-17T22:57:12Z</time>
      </trkpt>
      <trkpt lat="45.87532" lon="2.86645">
        <ele>817</ele>
        <time>2015-10-17T22:59:12Z</time>
      </trkpt>
      <trkpt lat="45.87534" lon="2.86618">
        <ele>816</ele>
        <time>2015-10-17T23:01:12Z</time>
      </trkpt>
      <trkpt lat="45.87535" lon="2.86581">
        <ele>815</ele>
        <time>2015-10-17T23:03:12Z</time>
      </trkpt>
      <trkpt lat="45.87533" lon="2.86563">
        <ele>816</ele>
        <time>2015-10-17T23:05:12Z</time>
      </trkpt>
      <trkpt lat="45.87526" lon="2.86537">
        <ele>817</ele>
        <time>2015-10-17T23:07:12Z</time>
      </trkpt>
      <trkpt lat="45.87523" lon="2.8651">
        <ele>817</ele>
        <time>2015-10-17T23:09:12Z</time>
      </trkpt>
      <trkpt lat="45.87511" lon="2.86465">
        <ele>817</ele>
        <time>2015-10-17T23:11:12Z</time>
      </trkpt>
      <trkpt lat="45.87495" lon="2.86439">
        <ele>817</ele>
        <time>2015-10-17T23:13:12Z</time>
      </trkpt>
      <trkpt lat="45.87473" lon="2.86409">
        <ele>818</ele>
        <time>2015-10-17T23:15:12Z</time>
      </trkpt>
      <trkpt lat="45.87467" lon="2.86373">
        <ele>817</ele>
        <time>2015-10-17T23:17:12Z</time>
      </trkpt>
      <trkpt lat="45.87478" lon="2.8634">
        <ele>815</ele>
        <time>2015-10-17T23:19:12Z</time>
      </trkpt>
      <trkpt lat="45.87469" lon="2.86318">
        <ele>815</ele>
        <time>2015-10-17T23:21:12Z</time>
      </trkpt>
      <trkpt lat="45.8745" lon="2.86289">
        <ele>816</ele>
        <time>2015-10-17T23:23:12Z</time>
      </trkpt>
      <trkpt lat="45.87428" lon="2.86282">
        <ele>818</ele>
        <time>2015-10-17T23:25:12Z</time>
      </trkpt>
      <trkpt lat="45.87408" lon="2.86282">
        <ele>820</ele>
        <time>2015-10-17T23:27:12Z</time>
      </trkpt>
      <trkpt lat="45.87387" lon="2.86287">
        <ele>821</ele>
        <time>2015-10-17T23:29:12Z</time>
      </trkpt>
      <trkpt lat="45.87366" lon="2.86288">
        <ele>821</ele>
        <time>2015-10-17T23:31:12Z</time>
      </trkpt>
      <trkpt lat="45.87327" lon="2.86298">
        <ele>823</ele>
        <time>2015-10-17T23:33:12Z</time>
      </trkpt>
      <trkpt lat="45.87307" lon="2.86301">
        <ele>823</ele>
        <time>2015-10-17T23:35:12Z</time>
      </trkpt>
      <trkpt lat="45.87267" lon="2.86309">
        <ele>824</ele>
        <time>2015-10-17T23:37:12Z</time>
      </trkpt>
      <trkpt lat="45.87254" lon="2.86306">
        <ele>824</ele>
        <time>2015-10-17T23:39:12Z</time>
      </trkpt>
      <trkpt lat="45.8724" lon="2.86298">
        <ele>823</ele>
        <time>2015-10-17T23:41:12Z</time>
      </trkpt>
      <trkpt lat="45.8723" lon="2.86286">
        <ele>822</ele>
        <time>2015-10-17T23:43:12Z</time>
      </trkpt>
      <trkpt lat="45.87221" lon="2.86267">
        <ele>822</ele>
        <time>2015-10-17T23:45:12Z</time>
      </trkpt>
      <trkpt lat="45.87211" lon="2.86246">
        <ele>821</ele>
        <time>2015-10-17T23:47:12Z</time>
      </trkpt>
      <trkpt lat="45.87207" lon="2.86222">
        <ele>820</ele>
        <time>2015-10-17T23:49:12Z</time>
      </trkpt>
      <trkpt lat="45.8722" lon="2.86173">
        <ele>819</ele>
        <time>2015-10-17T23:51:12Z</time>
      </trkpt>
      <trkpt lat="45.87222" lon="2.86115">
        <ele>817</ele>
        <time>2015-10-17T23:53:12Z</time>
      </trkpt>
      <trkpt lat="45.87219" lon="2.86088">
        <ele>816</ele>
        <time>2015-10-17T23:55:12Z</time>
      </trkpt>
      <trkpt lat="45.87215" lon="2.86026">
        <ele>812</ele>
        <time>2015-10-17T23:57:12Z</time>
      </trkpt>
      <trkpt lat="45.87218" lon="2.86007">
        <ele>811</ele>
        <time>2015-10-17T23:59:12Z</time>
      </trkpt>
      <trkpt lat="45.87223" lon="2.85987">
        <ele>811</ele>
        <time>2015-10-18T00:01:12Z</time>
      </trkpt>
      <trkpt lat="45.87233" lon="2.85953">
        <ele>810</ele>
        <time>2015-10-18T00:03:12Z</time>
      </trkpt>
      <trkpt lat="45.87245" lon="2.85903">
        <ele>809</ele>
        <time>2015-10-18T00:05:12Z</time>
      </trkpt>
      <trkpt lat="45.87261" lon="2.85901">
        <ele>809</ele>
        <time>2015-10-18T00:07:12Z</time>
      </trkpt>
      <trkpt lat="45.87285" lon="2.85899">
        <ele>808</ele>
        <time>2015-10-18T00:09:12Z</time>
      </trkpt>
      <trkpt lat="45.8731" lon="2.85898">
        <ele>807</ele>
        <time>2015-10-18T00:11:12Z</time>
      </trkpt>
      <trkpt lat="45.87348" lon="2.85892">
        <ele>805</ele>
        <time>2015-10-18T00:13:12Z</time>
      </trkpt>
      <trkpt lat="45.87393" lon="2.85869">
        <ele>801</ele>
        <time>2015-10-18T00:15:12Z</time>
      </trkpt>
      <trkpt lat="45.87447" lon="2.85832">
        <ele>798</ele>
        <time>2015-10-18T00:17:12Z</time>
      </trkpt>
      <trkpt lat="45.87474" lon="2.85812">
        <ele>795</ele>
        <time>2015-10-18T00:19:12Z</time>
      </trkpt>
      <trkpt lat="45.87497" lon="2.85795">
        <ele>793</ele>
        <time>2015-10-18T00:21:12Z</time>
      </trkpt>
      <trkpt lat="45.87525" lon="2.85777">
        <ele>791</ele>
        <time>2015-10-18T00:23:12Z</time>
      </trkpt>
      <trkpt lat="45.87547" lon="2.85769">
        <ele>789</ele>
        <time>2015-10-18T00:25:12Z</time>
      </trkpt>
      <trkpt lat="45.87567" lon="2.85762">
        <ele>788</ele>
        <time>2015-10-18T00:27:12Z</time>
      </trkpt>
      <trkpt lat="45.87591" lon="2.85742">
        <ele>786</ele>
        <time>2015-10-18T00:29:12Z</time>
      </trkpt>
      <trkpt lat="45.87597" lon="2.85671">
        <ele>786</ele>
        <time>2015-10-18T00:31:12Z</time>
      </trkpt>
      <trkpt lat="45.87597" lon="2.85658">
        <ele>786</ele>
        <time>2015-10-18T00:33:12Z</time>
      </trkpt>
      <trkpt lat="45.87599" lon="2.85633">
        <ele>786</ele>
        <time>2015-10-18T00:35:12Z</time>
      </trkpt>
      <trkpt lat="45.87602" lon="2.85599">
        <ele>786</ele>
        <time>2015-10-18T00:37:12Z</time>
      </trkpt>
      <trkpt lat="45.87607" lon="2.85525">
        <ele>785</ele>
        <time>2015-10-18T00:39:12Z</time>
      </trkpt>
      <trkpt lat="45.87611" lon="2.85503">
        <ele>784</ele>
        <time>2015-10-18T00:41:12Z</time>
      </trkpt>
      <trkpt lat="45.87621" lon="2.85433">
        <ele>784</ele>
        <time>2015-10-18T00:43:12Z</time>
      </trkpt>
      <trkpt lat="45.87631" lon="2.85406">
        <ele>784</ele>
        <time>2015-10-18T00:45:12Z</time>
      </trkpt>
      <trkpt lat="45.87657" lon="2.85348">
        <ele>783</ele>
        <time>2015-10-18T00:47:12Z</time>
      </trkpt>
      <trkpt lat="45.87668" lon="2.85321">
        <ele>783</ele>
        <time>2015-10-18T00:49:12Z</time>
      </trkpt>
      <trkpt lat="45.87676" lon="2.85305">
        <ele>783</ele>
        <time>2015-10-18T00:51:12Z</time>
      </trkpt>
      <trkpt lat="45.87684" lon="2.85281">
        <ele>783</ele>
        <time>2015-10-18T00:53:12Z</time>
      </trkpt>
      <trkpt lat="45.87691" lon="2.85262">
        <ele>784</ele>
        <time>2015-10-18T00:55:12Z</time>
      </trkpt>
      <trkpt lat="45.87697" lon="2.85238">
        <ele>783</ele>
        <time>2015-10-18T00:57:12Z</time>
      </trkpt>
      <trkpt lat="45.87702" lon="2.8521">
        <ele>782</ele>
        <time>2015-10-18T00:59:12Z</time>
      </trkpt>
      <trkpt lat="45.87712" lon="2.8516">
        <ele>781</ele>
        <time>2015-10-18T01:01:12Z</time>
      </trkpt>
      <trkpt lat="45.87713" lon="2.85123">
        <ele>778</ele>
        <time>2015-10-18T01:03:12Z</time>
      </trkpt>
      <trkpt lat="45.87715" lon="2.85069">
        <ele>775</ele>
        <time>2015-10-18T01:05:12Z</time>
      </trkpt>
      <trkpt lat="45.87713" lon="2.85039">
        <ele>773</ele>
        <time>2015-10-18T01:07:12Z</time>
      </trkpt>
      <trkpt lat="45.87706" lon="2.84975">
        <ele>770</ele>
        <time>2015-10-18T01:09:12Z</time>
      </trkpt>
      <trkpt lat="45.87701" lon="2.84949">
        <ele>769</ele>
        <time>2015-10-18T01:11:12Z</time>
      </trkpt>
      <trkpt lat="45.87702" lon="2.84929">
        <ele>769</ele>
        <time>2015-10-18T01:13:12Z</time>
      </trkpt>
      <trkpt lat="45.87715" lon="2.84903">
        <ele>771</ele>
        <time>2015-10-18T01:15:12Z</time>
      </trkpt>
      <trkpt lat="45.87729" lon="2.84881">
        <ele>771</ele>
        <time>2015-10-18T01:17:12Z</time>
      </trkpt>
      <trkpt lat="45.87745" lon="2.84869">
        <ele>772</ele>
        <time>2015-10-18T01:19:12Z</time>
      </trkpt>
      <trkpt lat="45.87758" lon="2.84859">
        <ele>771</ele>
        <time>2015-10-18T01:21:12Z</time>
      </trkpt>
      <trkpt lat="45.87752" lon="2.84829">
        <ele>770</ele>
        <time>2015-10-18T01:23:12Z</time>
      </trkpt>
      <trkpt lat="45.87743" lon="2.84774">
        <ele>768</ele>
        <time>2015-10-18T01:25:12Z</time>
      </trkpt>
      <trkpt lat="45.87725" lon="2.84708">
        <ele>765</ele>
        <time>2015-10-18T01:27:12Z</time>
      </trkpt>
      <trkpt lat="45.8773" lon="2.84704">
        <ele>765</ele>
        <time>2015-10-18T01:29:12Z</time>
      </trkpt>
      <trkpt lat="45.87737" lon="2.84707">
        <ele>765</ele>
        <time>2015-10-18T01:31:12Z</time>
      </trkpt>
      <trkpt lat="45.87746" lon="2.84712">
        <ele>765</ele>
        <time>2015-10-18T01:33:12Z</time>
      </trkpt>
      <trkpt lat="45.87753" lon="2.84722">
        <ele>765</ele>
        <time>2015-10-18T01:35:12Z</time>
      </trkpt>
      <trkpt lat="45.87766" lon="2.84754">
        <ele>764</ele>
        <time>2015-10-18T01:37:12Z</time>
      </trkpt>
      <trkpt lat="45.87777" lon="2.8478">
        <ele>764</ele>
        <time>2015-10-18T01:39:12Z</time>
      </trkpt>
      <trkpt lat="45.87784" lon="2.84793">
        <ele>764</ele>
        <time>2015-10-18T01:41:12Z</time>
      </trkpt>
      <trkpt lat="45.87792" lon="2.84805">
        <ele>764</ele>
        <time>2015-10-18T01:43:12Z</time>
      </trkpt>
      <trkpt lat="45.8781" lon="2.84821">
        <ele>764</ele>
        <time>2015-10-18T01:45:12Z</time>
      </trkpt>
      <trkpt lat="45.87819" lon="2.84828">
        <ele>764</ele>
        <time>2015-10-18T01:47:12Z</time>
      </trkpt>
      <trkpt lat="45.87829" lon="2.84829">
        <ele>763</ele>
        <time>2015-10-18T01:49:12Z</time>
      </trkpt>
      <trkpt lat="45.87837" lon="2.84829">
        <ele>762</ele>
        <time>2015-10-18T01:51:12Z</time>
      </trkpt>
      <trkpt lat="45.87847" lon="2.84828">
        <ele>761</ele>
        <time>2015-10-18T01:53:12Z</time>
      </trkpt>
      <trkpt lat="45.87856" lon="2.84827">
        <ele>760</ele>
        <time>2015-10-18T01:55:12Z</time>
      </trkpt>
      <trkpt lat="45.87869" lon="2.84829">
        <ele>759</ele>
        <time>2015-10-18T01:57:12Z</time>
      </trkpt>
      <trkpt lat="45.8788" lon="2.84839">
        <ele>759</ele>
        <time>2015-10-18T01:59:12Z</time>
      </trkpt>
      <trkpt lat="45.87895" lon="2.84846">
        <ele>758</ele>
        <time>2015-10-18T02:01:12Z</time>
      </trkpt>
      <trkpt lat="45.87912" lon="2.84865">
        <ele>759</ele>
        <time>2015-10-18T02:03:12Z</time>
      </trkpt>
      <trkpt lat="45.87923" lon="2.84874">
        <ele>758</ele>
        <time>2015-10-18T02:05:12Z</time>
      </trkpt>
      <trkpt lat="45.87958" lon="2.84898">
        <ele>755</ele>
        <time>2015-10-18T02:07:12Z</time>
      </trkpt>
      <trkpt lat="45.87971" lon="2.84908">
        <ele>754</ele>
        <time>2015-10-18T02:09:12Z</time>
      </trkpt>
      <trkpt lat="45.87983" lon="2.84918">
        <ele>753</ele>
        <time>2015-10-18T02:11:12Z</time>
      </trkpt>
      <trkpt lat="45.88001" lon="2.84945">
        <ele>752</ele>
        <time>2015-10-18T02:13:12Z</time>
      </trkpt>
      <trkpt lat="45.88012" lon="2.84977">
        <ele>753</ele>
        <time>2015-10-18T02:15:12Z</time>
      </trkpt>
      <trkpt lat="45.88014" lon="2.8499">
        <ele>753</ele>
        <time>2015-10-18T02:17:12Z</time>
      </trkpt>
      <trkpt lat="45.88016" lon="2.85008">
        <ele>754</ele>
        <time>2015-10-18T02:19:12Z</time>
      </trkpt>
      <trkpt lat="45.88014" lon="2.85026">
        <ele>756</ele>
        <time>2015-10-18T02:21:12Z</time>
      </trkpt>
      <trkpt lat="45.88008" lon="2.85041">
        <ele>758</ele>
        <time>2015-10-18T02:23:12Z</time>
      </trkpt>
      <trkpt lat="45.88006" lon="2.85065">
        <ele>760</ele>
        <time>2015-10-18T02:25:12Z</time>
      </trkpt>
      <trkpt lat="45.88008" lon="2.85078">
        <ele>761</ele>
        <time>2015-10-18T02:27:12Z</time>
      </trkpt>
      <trkpt lat="45.88011" lon="2.85095">
        <ele>761</ele>
        <time>2015-10-18T02:29:12Z</time>
      </trkpt>
      <trkpt lat="45.88016" lon="2.85113">
        <ele>762</ele>
        <time>2015-10-18T02:31:12Z</time>
      </trkpt>
      <trkpt lat="45.88024" lon="2.85121">
        <ele>760</ele>
        <time>2015-10-18T02:33:12Z</time>
      </trkpt>
      <trkpt lat="45.88034" lon="2.85126">
        <ele>759</ele>
        <time>2015-10-18T02:35:12Z</time>
      </trkpt>
      <trkpt lat="45.88048" lon="2.85129">
        <ele>756</ele>
        <time>2015-10-18T02:37:12Z</time>
      </trkpt>
      <trkpt lat="45.88063" lon="2.85134">
        <ele>754</ele>
        <time>2015-10-18T02:39:12Z</time>
      </trkpt>
      <trkpt lat="45.88088" lon="2.85141">
        <ele>750</ele>
        <time>2015-10-18T02:41:12Z</time>
      </trkpt>
      <trkpt lat="45.88104" lon="2.85145">
        <ele>749</ele>
        <time>2015-10-18T02:43:12Z</time>
      </trkpt>
      <trkpt lat="45.88119" lon="2.85151">
        <ele>748</ele>
        <time>2015-10-18T02:45:12Z</time>
      </trkpt>
      <trkpt lat="45.88133" lon="2.85154">
        <ele>747</ele>
        <time>2015-10-18T02:47:12Z</time>
      </trkpt>
      <trkpt lat="45.88166" lon="2.85178">
        <ele>747</ele>
        <time>2015-10-18T02:49:12Z</time>
      </trkpt>
      <trkpt lat="45.88197" lon="2.85196">
        <ele>745</ele>
        <time>2015-10-18T02:51:12Z</time>
      </trkpt>
      <trkpt lat="45.88208" lon="2.85205">
        <ele>745</ele>
        <time>2015-10-18T02:53:12Z</time>
      </trkpt>
      <trkpt lat="45.88223" lon="2.85225">
        <ele>746</ele>
        <time>2015-10-18T02:55:12Z</time>
      </trkpt>
      <trkpt lat="45.88252" lon="2.85251">
        <ele>748</ele>
        <time>2015-10-18T02:57:12Z</time>
      </trkpt>
      <trkpt lat="45.88279" lon="2.8527">
        <ele>744</ele>
        <time>2015-10-18T02:59:12Z</time>
      </trkpt>
      <trkpt lat="45.88288" lon="2.85282">
        <ele>744</ele>
        <time>2015-10-18T03:01:12Z</time>
      </trkpt>
      <trkpt lat="45.88302" lon="2.85299">
        <ele>744</ele>
        <time>2015-10-18T03:03:12Z</time>
      </trkpt>
      <trkpt lat="45.88331" lon="2.8532">
        <ele>742</ele>
        <time>2015-10-18T03:05:12Z</time>
      </trkpt>
      <trkpt lat="45.88345" lon="2.85339">
        <ele>740</ele>
        <time>2015-10-18T03:07:12Z</time>
      </trkpt>
      <trkpt lat="45.88361" lon="2.85352">
        <ele>735</ele>
        <time>2015-10-18T03:09:12Z</time>
      </trkpt>
      <trkpt lat="45.88378" lon="2.85369">
        <ele>731</ele>
        <time>2015-10-18T03:11:12Z</time>
      </trkpt>
      <trkpt lat="45.88391" lon="2.85384">
        <ele>728</ele>
        <time>2015-10-18T03:13:12Z</time>
      </trkpt>
      <trkpt lat="45.88396" lon="2.8539">
        <ele>727</ele>
        <time>2015-10-18T03:15:12Z</time>
      </trkpt>
      <trkpt lat="45.88391" lon="2.85402">
        <ele>727</ele>
        <time>2015-10-18T03:17:12Z</time>
      </trkpt>
      <trkpt lat="45.88362" lon="2.85408">
        <ele>731</ele>
        <time>2015-10-18T03:19:12Z</time>
      </trkpt>
      <trkpt lat="45.88318" lon="2.85414">
        <ele>735</ele>
        <time>2015-10-18T03:21:12Z</time>
      </trkpt>
      <trkpt lat="45.88294" lon="2.85421">
        <ele>737</ele>
        <time>2015-10-18T03:23:12Z</time>
      </trkpt>
      <trkpt lat="45.88278" lon="2.85433">
        <ele>737</ele>
        <time>2015-10-18T03:25:12Z</time>
      </trkpt>
      <trkpt lat="45.88268" lon="2.85444">
        <ele>736</ele>
        <time>2015-10-18T03:27:12Z</time>
      </trkpt>
      <trkpt lat="45.88258" lon="2.85465">
        <ele>733</ele>
        <time>2015-10-18T03:29:12Z</time>
      </trkpt>
      <trkpt lat="45.88248" lon="2.85473">
        <ele>733</ele>
        <time>2015-10-18T03:31:12Z</time>
      </trkpt>
      <trkpt lat="45.88232" lon="2.85487">
        <ele>733</ele>
        <time>2015-10-18T03:33:12Z</time>
      </trkpt>
      <trkpt lat="45.88213" lon="2.8552">
        <ele>734</ele>
        <time>2015-10-18T03:35:12Z</time>
      </trkpt>
      <trkpt lat="45.88219" lon="2.85535">
        <ele>733</ele>
        <time>2015-10-18T03:37:12Z</time>
      </trkpt>
      <trkpt lat="45.88228" lon="2.85538">
        <ele>733</ele>
        <time>2015-10-18T03:39:12Z</time>
      </trkpt>
      <trkpt lat="45.88252" lon="2.85538">
        <ele>731</ele>
        <time>2015-10-18T03:41:12Z</time>
      </trkpt>
      <trkpt lat="45.8827" lon="2.8554">
        <ele>732</ele>
        <time>2015-10-18T03:43:12Z</time>
      </trkpt>
      <trkpt lat="45.88281" lon="2.8554">
        <ele>732</ele>
        <time>2015-10-18T03:45:12Z</time>
      </trkpt>
      <trkpt lat="45.883" lon="2.85552">
        <ele>734</ele>
        <time>2015-10-18T03:47:12Z</time>
      </trkpt>
      <trkpt lat="45.8834" lon="2.85571">
        <ele>740</ele>
        <time>2015-10-18T03:49:12Z</time>
      </trkpt>
      <trkpt lat="45.88354" lon="2.85585">
        <ele>743</ele>
        <time>2015-10-18T03:51:12Z</time>
      </trkpt>
      <trkpt lat="45.8837" lon="2.85599">
        <ele>745</ele>
        <time>2015-10-18T03:53:12Z</time>
      </trkpt>
      <trkpt lat="45.88391" lon="2.85617">
        <ele>748</ele>
        <time>2015-10-18T03:55:12Z</time>
      </trkpt>
      <trkpt lat="45.88416" lon="2.85637">
        <ele>751</ele>
        <time>2015-10-18T03:57:12Z</time>
      </trkpt>
      <trkpt lat="45.88426" lon="2.8564">
        <ele>751</ele>
        <time>2015-10-18T03:59:12Z</time>
      </trkpt>
      <trkpt lat="45.88447" lon="2.85645">
        <ele>752</ele>
        <time>2015-10-18T04:01:12Z</time>
      </trkpt>
      <trkpt lat="45.88465" lon="2.85651">
        <ele>752</ele>
        <time>2015-10-18T04:03:12Z</time>
      </trkpt>
      <trkpt lat="45.88482" lon="2.85655">
        <ele>752</ele>
        <time>2015-10-18T04:05:12Z</time>
      </trkpt>
      <trkpt lat="45.88488" lon="2.85655">
        <ele>751</ele>
        <time>2015-10-18T04:07:12Z</time>
      </trkpt>
      <trkpt lat="45.88498" lon="2.85656">
        <ele>751</ele>
        <time>2015-10-18T04:09:12Z</time>
      </trkpt>
      <trkpt lat="45.88514" lon="2.85642">
        <ele>750</ele>
        <time>2015-10-18T04:11:12Z</time>
      </trkpt>
      <trkpt lat="45.88526" lon="2.85637">
        <ele>750</ele>
        <time>2015-10-18T04:13:12Z</time>
      </trkpt>
      <trkpt lat="45.88538" lon="2.85626">
        <ele>749</ele>
        <time>2015-10-18T04:15:12Z</time>
      </trkpt>
      <trkpt lat="45.88552" lon="2.85624">
        <ele>749</ele>
        <time>2015-10-18T04:17:12Z</time>
      </trkpt>
      <trkpt lat="45.8857" lon="2.85625">
        <ele>750</ele>
        <time>2015-10-18T04:19:12Z</time>
      </trkpt>
      <trkpt lat="45.8859" lon="2.85626">
        <ele>751</ele>
        <time>2015-10-18T04:21:12Z</time>
      </trkpt>
      <trkpt lat="45.88606" lon="2.85629">
        <ele>751</ele>
        <time>2015-10-18T04:23:12Z</time>
      </trkpt>
      <trkpt lat="45.88619" lon="2.85635">
        <ele>751</ele>
        <time>2015-10-18T04:25:12Z</time>
      </trkpt>
      <trkpt lat="45.88635" lon="2.85639">
        <ele>751</ele>
        <time>2015-10-18T04:27:12Z</time>
      </trkpt>
      <trkpt lat="45.88652" lon="2.85646">
        <ele>752</ele>
        <time>2015-10-18T04:29:12Z</time>
      </trkpt>
      <trkpt lat="45.88676" lon="2.85655">
        <ele>752</ele>
        <time>2015-10-18T04:31:12Z</time>
      </trkpt>
      <trkpt lat="45.887" lon="2.85663">
        <ele>752</ele>
        <time>2015-10-18T04:33:12Z</time>
      </trkpt>
      <trkpt lat="45.88735" lon="2.85672">
        <ele>750</ele>
        <time>2015-10-18T04:35:12Z</time>
      </trkpt>
      <trkpt lat="45.88765" lon="2.85694">
        <ele>753</ele>
        <time>2015-10-18T04:37:12Z</time>
      </trkpt>
      <trkpt lat="45.88795" lon="2.85719">
        <ele>756</ele>
        <time>2015-10-18T04:39:12Z</time>
      </trkpt>
      <trkpt lat="45.88824" lon="2.85732">
        <ele>755</ele>
        <time>2015-10-18T04:41:12Z</time>
      </trkpt>
      <trkpt lat="45.88848" lon="2.85743">
        <ele>756</ele>
        <time>2015-10-18T04:43:12Z</time>
      </trkpt>
      <trkpt lat="45.88868" lon="2.85748">
        <ele>758</ele>
        <time>2015-10-18T04:45:12Z</time>
      </trkpt>
      <trkpt lat="45.88889" lon="2.85762">
        <ele>760</ele>
        <time>2015-10-18T04:47:12Z</time>
      </trkpt>
      <trkpt lat="45.88918" lon="2.85774">
        <ele>762</ele>
        <time>2015-10-18T04:49:12Z</time>
      </trkpt>
      <trkpt lat="45.88932" lon="2.85784">
        <ele>764</ele>
        <time>2015-10-18T04:51:12Z</time>
      </trkpt>
      <trkpt lat="45.88949" lon="2.85792">
        <ele>765</ele>
        <time>2015-10-18T04:53:12Z</time>
      </trkpt>
      <trkpt lat="45.88993" lon="2.85812">
        <ele>767</ele>
        <time>2015-10-18T04:55:12Z</time>
      </trkpt>
      <trkpt lat="45.89013" lon="2.85844">
        <ele>769</ele>
        <time>2015-10-18T04:57:12Z</time>
      </trkpt>
      <trkpt lat="45.89022" lon="2.85872">
        <ele>771</ele>
        <time>2015-10-18T04:59:12Z</time>
      </trkpt>
      <trkpt lat="45.89036" lon="2.85938">
        <ele>774</ele>
        <time>2015-10-18T05:01:12Z</time>
      </trkpt>
      <trkpt lat="45.89045" lon="2.85966">
        <ele>775</ele>
        <time>2015-10-18T05:03:12Z</time>
      </trkpt>
      <trkpt lat="45.8905" lon="2.85999">
        <ele>776</ele>
        <time>2015-10-18T05:05:12Z</time>
      </trkpt>
      <trkpt lat="45.8907" lon="2.86047">
        <ele>779</ele>
        <time>2015-10-18T05:07:12Z</time>
      </trkpt>
      <trkpt lat="45.89092" lon="2.86091">
        <ele>781</ele>
        <time>2015-10-18T05:09:12Z</time>
      </trkpt>
      <trkpt lat="45.89118" lon="2.86101">
        <ele>780</ele>
        <time>2015-10-18T05:11:12Z</time>
      </trkpt>
      <trkpt lat="45.89135" lon="2.86107">
        <ele>779</ele>
        <time>2015-10-18T05:13:12Z</time>
      </trkpt>
      <trkpt lat="45.89151" lon="2.86129">
        <ele>780</ele>
        <time>2015-10-18T05:15:12Z</time>
      </trkpt>
      <trkpt lat="45.8916" lon="2.86146">
        <ele>781</ele>
        <time>2015-10-18T05:17:12Z</time>
      </trkpt>
      <trkpt lat="45.89176" lon="2.86165">
        <ele>782</ele>
        <time>2015-10-18T05:19:12Z</time>
      </trkpt>
      <trkpt lat="45.89186" lon="2.8618">
        <ele>782</ele>
        <time>2015-10-18T05:21:12Z</time>
      </trkpt>
      <trkpt lat="45.8919" lon="2.86201">
        <ele>783</ele>
        <time>2015-10-18T05:23:12Z</time>
      </trkpt>
      <trkpt lat="45.89206" lon="2.86193">
        <ele>782</ele>
        <time>2015-10-18T05:25:12Z</time>
      </trkpt>
      <trkpt lat="45.89247" lon="2.86174">
        <ele>780</ele>
        <time>2015-10-18T05:27:12Z</time>
      </trkpt>
      <trkpt lat="45.89264" lon="2.86182">
        <ele>779</ele>
        <time>2015-10-18T05:29:12Z</time>
      </trkpt>
    </trkseg>
  </trk>
  <trk>
    <name><![CDATA[--Chapdes-Beaufort-- OR-5373892:ser-jb03-l]]></name>
    <trkseg>
      <trkpt lat="45.89274" lon="2.86171">
        <ele>779</ele>
        <time>2015-10-17T12:39:25Z</time>
      </trkpt>
      <trkpt lat="45.89255" lon="2.86172">
        <ele>780</ele>
        <time>2015-10-17T12:41:25Z</time>
      </trkpt>
      <trkpt lat="45.89248" lon="2.86157">
        <ele>780</ele>
        <time>2015-10-17T12:43:25Z</time>
      </trkpt>
      <trkpt lat="45.89251" lon="2.86131">
        <ele>778</ele>
        <time>2015-10-17T12:45:25Z</time>
      </trkpt>
      <trkpt lat="45.89256" lon="2.86099">
        <ele>777</ele>
        <time>2015-10-17T12:47:25Z</time>
      </trkpt>
      <trkpt lat="45.89257" lon="2.86077">
        <ele>776</ele>
        <time>2015-10-17T12:49:25Z</time>
      </trkpt>
      <trkpt lat="45.89255" lon="2.8605">
        <ele>774</ele>
        <time>2015-10-17T12:51:25Z</time>
      </trkpt>
      <trkpt lat="45.89256" lon="2.86004">
        <ele>772</ele>
        <time>2015-10-17T12:53:25Z</time>
      </trkpt>
      <trkpt lat="45.89256" lon="2.8598">
        <ele>773</ele>
        <time>2015-10-17T12:55:25Z</time>
      </trkpt>
      <trkpt lat="45.89269" lon="2.85975">
        <ele>773</ele>
        <time>2015-10-17T12:57:25Z</time>
      </trkpt>
      <trkpt lat="45.89283" lon="2.85975">
        <ele>774</ele>
        <time>2015-10-17T12:59:25Z</time>
      </trkpt>
      <trkpt lat="45.89293" lon="2.85972">
        <ele>774</ele>
        <time>2015-10-17T13:01:25Z</time>
      </trkpt>
      <trkpt lat="45.89305" lon="2.85965">
        <ele>774</ele>
        <time>2015-10-17T13:03:25Z</time>
      </trkpt>
      <trkpt lat="45.89314" lon="2.8595">
        <ele>775</ele>
        <time>2015-10-17T13:05:25Z</time>
      </trkpt>
      <trkpt lat="45.8932" lon="2.85928">
        <ele>775</ele>
        <time>2015-10-17T13:07:25Z</time>
      </trkpt>
      <trkpt lat="45.89328" lon="2.85902">
        <ele>776</ele>
        <time>2015-10-17T13:09:25Z</time>
      </trkpt>
      <trkpt lat="45.89336" lon="2.85877">
        <ele>777</ele>
        <time>2015-10-17T13:11:25Z</time>
      </trkpt>
      <trkpt lat="45.89346" lon="2.85846">
        <ele>778</ele>
        <time>2015-10-17T13:13:25Z</time>
      </trkpt>
      <trkpt lat="45.89354" lon="2.85826">
        <ele>779</ele>
        <time>2015-10-17T13:15:25Z</time>
      </trkpt>
      <trkpt lat="45.89361" lon="2.85803">
        <ele>780</ele>
        <time>2015-10-17T13:17:25Z</time>
      </trkpt>
      <trkpt lat="45.89368" lon="2.85781">
        <ele>780</ele>
        <time>2015-10-17T13:19:25Z</time>
      </trkpt>
      <trkpt lat="45.89375" lon="2.85748">
        <ele>781</ele>
        <time>2015-10-17T13:21:25Z</time>
      </trkpt>
      <trkpt lat="45.89381" lon="2.85718">
        <ele>781</ele>
        <time>2015-10-17T13:23:25Z</time>
      </trkpt>
      <trkpt lat="45.89387" lon="2.85697">
        <ele>781</ele>
        <time>2015-10-17T13:25:25Z</time>
      </trkpt>
      <trkpt lat="45.89392" lon="2.85679">
        <ele>780</ele>
        <time>2015-10-17T13:27:25Z</time>
      </trkpt>
      <trkpt lat="45.89396" lon="2.8566">
        <ele>780</ele>
        <time>2015-10-17T13:29:25Z</time>
      </trkpt>
      <trkpt lat="45.89399" lon="2.85636">
        <ele>780</ele>
        <time>2015-10-17T13:31:25Z</time>
      </trkpt>
      <trkpt lat="45.89406" lon="2.85591">
        <ele>780</ele>
        <time>2015-10-17T13:33:25Z</time>
      </trkpt>
      <trkpt lat="45.89422" lon="2.8551">
        <ele>780</ele>
        <time>2015-10-17T13:35:25Z</time>
      </trkpt>
      <trkpt lat="45.89437" lon="2.85447">
        <ele>779</ele>
        <time>2015-10-17T13:37:25Z</time>
      </trkpt>
      <trkpt lat="45.89437" lon="2.85415">
        <ele>779</ele>
        <time>2015-10-17T13:39:25Z</time>
      </trkpt>
      <trkpt lat="45.89434" lon="2.85357">
        <ele>778</ele>
        <time>2015-10-17T13:41:25Z</time>
      </trkpt>
      <trkpt lat="45.89435" lon="2.85293">
        <ele>778</ele>
        <time>2015-10-17T13:43:25Z</time>
      </trkpt>
      <trkpt lat="45.89428" lon="2.85268">
        <ele>778</ele>
        <time>2015-10-17T13:45:25Z</time>
      </trkpt>
      <trkpt lat="45.89416" lon="2.85222">
        <ele>778</ele>
        <time>2015-10-17T13:47:25Z</time>
      </trkpt>
      <trkpt lat="45.89402" lon="2.85145">
        <ele>775</ele>
        <time>2015-10-17T13:49:25Z</time>
      </trkpt>
      <trkpt lat="45.89402" lon="2.85115">
        <ele>774</ele>
        <time>2015-10-17T13:51:25Z</time>
      </trkpt>
      <trkpt lat="45.89399" lon="2.85082">
        <ele>772</ele>
        <time>2015-10-17T13:53:25Z</time>
      </trkpt>
      <trkpt lat="45.89387" lon="2.85038">
        <ele>769</ele>
        <time>2015-10-17T13:55:25Z</time>
      </trkpt>
      <trkpt lat="45.89378" lon="2.84999">
        <ele>767</ele>
        <time>2015-10-17T13:57:25Z</time>
      </trkpt>
      <trkpt lat="45.89378" lon="2.84973">
        <ele>766</ele>
        <time>2015-10-17T13:59:25Z</time>
      </trkpt>
      <trkpt lat="45.89377" lon="2.84942">
        <ele>764</ele>
        <time>2015-10-17T14:01:25Z</time>
      </trkpt>
      <trkpt lat="45.89377" lon="2.849">
        <ele>762</ele>
        <time>2015-10-17T14:03:25Z</time>
      </trkpt>
      <trkpt lat="45.89383" lon="2.84869">
        <ele>761</ele>
        <time>2015-10-17T14:05:25Z</time>
      </trkpt>
      <trkpt lat="45.89387" lon="2.84839">
        <ele>760</ele>
        <time>2015-10-17T14:07:25Z</time>
      </trkpt>
      <trkpt lat="45.89396" lon="2.84804">
        <ele>758</ele>
        <time>2015-10-17T14:09:25Z</time>
      </trkpt>
      <trkpt lat="45.89404" lon="2.84757">
        <ele>756</ele>
        <time>2015-10-17T14:11:25Z</time>
      </trkpt>
      <trkpt lat="45.89412" lon="2.84725">
        <ele>754</ele>
        <time>2015-10-17T14:13:25Z</time>
      </trkpt>
      <trkpt lat="45.89422" lon="2.84684">
        <ele>751</ele>
        <time>2015-10-17T14:15:25Z</time>
      </trkpt>
      <trkpt lat="45.89428" lon="2.84636">
        <ele>749</ele>
        <time>2015-10-17T14:17:25Z</time>
      </trkpt>
      <trkpt lat="45.89431" lon="2.84597">
        <ele>747</ele>
        <time>2015-10-17T14:19:25Z</time>
      </trkpt>
      <trkpt lat="45.89433" lon="2.84572">
        <ele>745</ele>
        <time>2015-10-17T14:21:25Z</time>
      </trkpt>
      <trkpt lat="45.89444" lon="2.84547">
        <ele>744</ele>
        <time>2015-10-17T14:23:25Z</time>
      </trkpt>
      <trkpt lat="45.89451" lon="2.8453">
        <ele>743</ele>
        <time>2015-10-17T14:25:25Z</time>
      </trkpt>
      <trkpt lat="45.89463" lon="2.84517">
        <ele>743</ele>
        <time>2015-10-17T14:27:25Z</time>
      </trkpt>
      <trkpt lat="45.89479" lon="2.84507">
        <ele>743</ele>
        <time>2015-10-17T14:29:25Z</time>
      </trkpt>
      <trkpt lat="45.89489" lon="2.84486">
        <ele>743</ele>
        <time>2015-10-17T14:31:25Z</time>
      </trkpt>
      <trkpt lat="45.8949" lon="2.84462">
        <ele>741</ele>
        <time>2015-10-17T14:33:25Z</time>
      </trkpt>
      <trkpt lat="45.89483" lon="2.84438">
        <ele>739</ele>
        <time>2015-10-17T14:35:25Z</time>
      </trkpt>
      <trkpt lat="45.89478" lon="2.84409">
        <ele>737</ele>
        <time>2015-10-17T14:37:25Z</time>
      </trkpt>
      <trkpt lat="45.89476" lon="2.84391">
        <ele>737</ele>
        <time>2015-10-17T14:39:25Z</time>
      </trkpt>
      <trkpt lat="45.8947" lon="2.84374">
        <ele>736</ele>
        <time>2015-10-17T14:41:25Z</time>
      </trkpt>
      <trkpt lat="45.89467" lon="2.84342">
        <ele>735</ele>
        <time>2015-10-17T14:43:25Z</time>
      </trkpt>
      <trkpt lat="45.89464" lon="2.84311">
        <ele>735</ele>
        <time>2015-10-17T14:45:25Z</time>
      </trkpt>
      <trkpt lat="45.89462" lon="2.84285">
        <ele>736</ele>
        <time>2015-10-17T14:47:25Z</time>
      </trkpt>
      <trkpt lat="45.89458" lon="2.84255">
        <ele>736</ele>
        <time>2015-10-17T14:49:25Z</time>
      </trkpt>
      <trkpt lat="45.89453" lon="2.84226">
        <ele>736</ele>
        <time>2015-10-17T14:51:25Z</time>
      </trkpt>
      <trkpt lat="45.8945" lon="2.84192">
        <ele>736</ele>
        <time>2015-10-17T14:53:25Z</time>
      </trkpt>
      <trkpt lat="45.89444" lon="2.84166">
        <ele>736</ele>
        <time>2015-10-17T14:55:25Z</time>
      </trkpt>
      <trkpt lat="45.89437" lon="2.84141">
        <ele>736</ele>
        <time>2015-10-17T14:57:25Z</time>
      </trkpt>
      <trkpt lat="45.89431" lon="2.84122">
        <ele>736</ele>
        <time>2015-10-17T14:59:25Z</time>
      </trkpt>
      <trkpt lat="45.89425" lon="2.84105">
        <ele>735</ele>
        <time>2015-10-17T15:01:25Z</time>
      </trkpt>
      <trkpt lat="45.8942" lon="2.84086">
        <ele>735</ele>
        <time>2015-10-17T15:03:25Z</time>
      </trkpt>
      <trkpt lat="45.89412" lon="2.84071">
        <ele>734</ele>
        <time>2015-10-17T15:05:25Z</time>
      </trkpt>
      <trkpt lat="45.89402" lon="2.84053">
        <ele>733</ele>
        <time>2015-10-17T15:07:25Z</time>
      </trkpt>
      <trkpt lat="45.8939" lon="2.84037">
        <ele>731</ele>
        <time>2015-10-17T15:09:25Z</time>
      </trkpt>
      <trkpt lat="45.89381" lon="2.84011">
        <ele>729</ele>
        <time>2015-10-17T15:11:25Z</time>
      </trkpt>
      <trkpt lat="45.89369" lon="2.83997">
        <ele>727</ele>
        <time>2015-10-17T15:13:25Z</time>
      </trkpt>
      <trkpt lat="45.89358" lon="2.83983">
        <ele>725</ele>
        <time>2015-10-17T15:15:25Z</time>
      </trkpt>
      <trkpt lat="45.89346" lon="2.83968">
        <ele>724</ele>
        <time>2015-10-17T15:17:25Z</time>
      </trkpt>
      <trkpt lat="45.89334" lon="2.83953">
        <ele>723</ele>
        <time>2015-10-17T15:19:25Z</time>
      </trkpt>
      <trkpt lat="45.8932" lon="2.83942">
        <ele>721</ele>
        <time>2015-10-17T15:21:25Z</time>
      </trkpt>
      <trkpt lat="45.89305" lon="2.83921">
        <ele>718</ele>
        <time>2015-10-17T15:23:25Z</time>
      </trkpt>
      <trkpt lat="45.8929" lon="2.839">
        <ele>716</ele>
        <time>2015-10-17T15:25:25Z</time>
      </trkpt>
      <trkpt lat="45.89281" lon="2.83888">
        <ele>714</ele>
        <time>2015-10-17T15:27:25Z</time>
      </trkpt>
      <trkpt lat="45.89268" lon="2.8387">
        <ele>713</ele>
        <time>2015-10-17T15:29:25Z</time>
      </trkpt>
      <trkpt lat="45.89256" lon="2.83849">
        <ele>712</ele>
        <time>2015-10-17T15:31:25Z</time>
      </trkpt>
      <trkpt lat="45.89246" lon="2.83828">
        <ele>711</ele>
        <time>2015-10-17T15:33:25Z</time>
      </trkpt>
      <trkpt lat="45.8924" lon="2.83802">
        <ele>708</ele>
        <time>2015-10-17T15:35:25Z</time>
      </trkpt>
      <trkpt lat="45.89231" lon="2.8377">
        <ele>704</ele>
        <time>2015-10-17T15:37:25Z</time>
      </trkpt>
      <trkpt lat="45.89222" lon="2.83702">
        <ele>696</ele>
        <time>2015-10-17T15:39:25Z</time>
      </trkpt>
      <trkpt lat="45.89239" lon="2.83687">
        <ele>695</ele>
        <time>2015-10-17T15:41:25Z</time>
      </trkpt>
      <trkpt lat="45.89251" lon="2.83681">
        <ele>696</ele>
        <time>2015-10-17T15:43:25Z</time>
      </trkpt>
      <trkpt lat="45.8926" lon="2.83671">
        <ele>695</ele>
        <time>2015-10-17T15:45:25Z</time>
      </trkpt>
      <trkpt lat="45.89268" lon="2.83659">
        <ele>693</ele>
        <time>2015-10-17T15:47:25Z</time>
      </trkpt>
      <trkpt lat="45.89287" lon="2.83637">
        <ele>688</ele>
        <time>2015-10-17T15:49:25Z</time>
      </trkpt>
      <trkpt lat="45.893" lon="2.83625">
        <ele>686</ele>
        <time>2015-10-17T15:51:25Z</time>
      </trkpt>
      <trkpt lat="45.89328" lon="2.83615">
        <ele>685</ele>
        <time>2015-10-17T15:53:25Z</time>
      </trkpt>
      <trkpt lat="45.89344" lon="2.83608">
        <ele>683</ele>
        <time>2015-10-17T15:55:25Z</time>
      </trkpt>
      <trkpt lat="45.89357" lon="2.83604">
        <ele>682</ele>
        <time>2015-10-17T15:57:25Z</time>
      </trkpt>
      <trkpt lat="45.89374" lon="2.83593">
        <ele>679</ele>
        <time>2015-10-17T15:59:25Z</time>
      </trkpt>
      <trkpt lat="45.8939" lon="2.83579">
        <ele>676</ele>
        <time>2015-10-17T16:01:25Z</time>
      </trkpt>
      <trkpt lat="45.89408" lon="2.83571">
        <ele>676</ele>
        <time>2015-10-17T16:03:25Z</time>
      </trkpt>
      <trkpt lat="45.89427" lon="2.83574">
        <ele>675</ele>
        <time>2015-10-17T16:05:25Z</time>
      </trkpt>
      <trkpt lat="45.89442" lon="2.83573">
        <ele>674</ele>
        <time>2015-10-17T16:07:25Z</time>
      </trkpt>
      <trkpt lat="45.89454" lon="2.83575">
        <ele>674</ele>
        <time>2015-10-17T16:09:25Z</time>
      </trkpt>
      <trkpt lat="45.89458" lon="2.83561">
        <ele>674</ele>
        <time>2015-10-17T16:11:25Z</time>
      </trkpt>
      <trkpt lat="45.89449" lon="2.83551">
        <ele>674</ele>
        <time>2015-10-17T16:13:25Z</time>
      </trkpt>
      <trkpt lat="45.89442" lon="2.83539">
        <ele>675</ele>
        <time>2015-10-17T16:15:25Z</time>
      </trkpt>
      <trkpt lat="45.89442" lon="2.83521">
        <ele>675</ele>
        <time>2015-10-17T16:17:25Z</time>
      </trkpt>
      <trkpt lat="45.89449" lon="2.83507">
        <ele>676</ele>
        <time>2015-10-17T16:19:25Z</time>
      </trkpt>
      <trkpt lat="45.89464" lon="2.83505">
        <ele>677</ele>
        <time>2015-10-17T16:21:25Z</time>
      </trkpt>
      <trkpt lat="45.89478" lon="2.83517">
        <ele>677</ele>
        <time>2015-10-17T16:23:25Z</time>
      </trkpt>
      <trkpt lat="45.89488" lon="2.83524">
        <ele>677</ele>
        <time>2015-10-17T16:25:25Z</time>
      </trkpt>
      <trkpt lat="45.89505" lon="2.83534">
        <ele>676</ele>
        <time>2015-10-17T16:27:25Z</time>
      </trkpt>
      <trkpt lat="45.8953" lon="2.83539">
        <ele>678</ele>
        <time>2015-10-17T16:29:25Z</time>
      </trkpt>
      <trkpt lat="45.89545" lon="2.83541">
        <ele>680</ele>
        <time>2015-10-17T16:31:25Z</time>
      </trkpt>
      <trkpt lat="45.89557" lon="2.83545">
        <ele>680</ele>
        <time>2015-10-17T16:33:25Z</time>
      </trkpt>
      <trkpt lat="45.89584" lon="2.8354">
        <ele>684</ele>
        <time>2015-10-17T16:35:25Z</time>
      </trkpt>
      <trkpt lat="45.89582" lon="2.83526">
        <ele>686</ele>
        <time>2015-10-17T16:37:25Z</time>
      </trkpt>
      <trkpt lat="45.89573" lon="2.83516">
        <ele>686</ele>
        <time>2015-10-17T16:39:25Z</time>
      </trkpt>
      <trkpt lat="45.89564" lon="2.83504">
        <ele>687</ele>
        <time>2015-10-17T16:41:25Z</time>
      </trkpt>
      <trkpt lat="45.89543" lon="2.8348">
        <ele>690</ele>
        <time>2015-10-17T16:43:25Z</time>
      </trkpt>
      <trkpt lat="45.89523" lon="2.8346">
        <ele>692</ele>
        <time>2015-10-17T16:45:25Z</time>
      </trkpt>
      <trkpt lat="45.89508" lon="2.83444">
        <ele>694</ele>
        <time>2015-10-17T16:47:25Z</time>
      </trkpt>
      <trkpt lat="45.8949" lon="2.83432">
        <ele>695</ele>
        <time>2015-10-17T16:49:25Z</time>
      </trkpt>
      <trkpt lat="45.89479" lon="2.83404">
        <ele>699</ele>
        <time>2015-10-17T16:51:25Z</time>
      </trkpt>
      <trkpt lat="45.89467" lon="2.83385">
        <ele>701</ele>
        <time>2015-10-17T16:53:25Z</time>
      </trkpt>
      <trkpt lat="45.89458" lon="2.8336">
        <ele>703</ele>
        <time>2015-10-17T16:55:25Z</time>
      </trkpt>
      <trkpt lat="45.89444" lon="2.83333">
        <ele>706</ele>
        <time>2015-10-17T16:57:25Z</time>
      </trkpt>
      <trkpt lat="45.89431" lon="2.83318">
        <ele>706</ele>
        <time>2015-10-17T16:59:25Z</time>
      </trkpt>
      <trkpt lat="45.8942" lon="2.83294">
        <ele>708</ele>
        <time>2015-10-17T17:01:25Z</time>
      </trkpt>
      <trkpt lat="45.89405" lon="2.83274">
        <ele>711</ele>
        <time>2015-10-17T17:03:25Z</time>
      </trkpt>
      <trkpt lat="45.8939" lon="2.83253">
        <ele>713</ele>
        <time>2015-10-17T17:05:25Z</time>
      </trkpt>
      <trkpt lat="45.89378" lon="2.83242">
        <ele>714</ele>
        <time>2015-10-17T17:07:25Z</time>
      </trkpt>
      <trkpt lat="45.89362" lon="2.83229">
        <ele>714</ele>
        <time>2015-10-17T17:09:25Z</time>
      </trkpt>
      <trkpt lat="45.8935" lon="2.83205">
        <ele>715</ele>
        <time>2015-10-17T17:11:25Z</time>
      </trkpt>
      <trkpt lat="45.89341" lon="2.83191">
        <ele>715</ele>
        <time>2015-10-17T17:13:25Z</time>
      </trkpt>
      <trkpt lat="45.89336" lon="2.83169">
        <ele>715</ele>
        <time>2015-10-17T17:15:25Z</time>
      </trkpt>
      <trkpt lat="45.89329" lon="2.8315">
        <ele>715</ele>
        <time>2015-10-17T17:17:25Z</time>
      </trkpt>
      <trkpt lat="45.89324" lon="2.83127">
        <ele>715</ele>
        <time>2015-10-17T17:19:25Z</time>
      </trkpt>
      <trkpt lat="45.89322" lon="2.83107">
        <ele>715</ele>
        <time>2015-10-17T17:21:25Z</time>
      </trkpt>
      <trkpt lat="45.89319" lon="2.83084">
        <ele>715</ele>
        <time>2015-10-17T17:23:25Z</time>
      </trkpt>
      <trkpt lat="45.89318" lon="2.83057">
        <ele>715</ele>
        <time>2015-10-17T17:25:25Z</time>
      </trkpt>
      <trkpt lat="45.89319" lon="2.83036">
        <ele>716</ele>
        <time>2015-10-17T17:27:25Z</time>
      </trkpt>
      <trkpt lat="45.89324" lon="2.8302">
        <ele>717</ele>
        <time>2015-10-17T17:29:25Z</time>
      </trkpt>
      <trkpt lat="45.89325" lon="2.83002">
        <ele>717</ele>
        <time>2015-10-17T17:31:25Z</time>
      </trkpt>
      <trkpt lat="45.8932" lon="2.82975">
        <ele>716</ele>
        <time>2015-10-17T17:33:25Z</time>
      </trkpt>
      <trkpt lat="45.89316" lon="2.8295">
        <ele>715</ele>
        <time>2015-10-17T17:35:25Z</time>
      </trkpt>
      <trkpt lat="45.89316" lon="2.82925">
        <ele>715</ele>
        <time>2015-10-17T17:37:25Z</time>
      </trkpt>
      <trkpt lat="45.89321" lon="2.82901">
        <ele>715</ele>
        <time>2015-10-17T17:39:25Z</time>
      </trkpt>
      <trkpt lat="45.89325" lon="2.82878">
        <ele>715</ele>
        <time>2015-10-17T17:41:25Z</time>
      </trkpt>
      <trkpt lat="45.89331" lon="2.82861">
        <ele>715</ele>
        <time>2015-10-17T17:43:25Z</time>
      </trkpt>
      <trkpt lat="45.89334" lon="2.82838">
        <ele>715</ele>
        <time>2015-10-17T17:45:25Z</time>
      </trkpt>
      <trkpt lat="45.89335" lon="2.82804">
        <ele>715</ele>
        <time>2015-10-17T17:47:25Z</time>
      </trkpt>
      <trkpt lat="45.89339" lon="2.82779">
        <ele>714</ele>
        <time>2015-10-17T17:49:25Z</time>
      </trkpt>
      <trkpt lat="45.8934" lon="2.827">
        <ele>716</ele>
        <time>2015-10-17T17:51:25Z</time>
      </trkpt>
      <trkpt lat="45.89341" lon="2.82638">
        <ele>717</ele>
        <time>2015-10-17T17:53:25Z</time>
      </trkpt>
      <trkpt lat="45.89352" lon="2.82637">
        <ele>717</ele>
        <time>2015-10-17T17:55:25Z</time>
      </trkpt>
      <trkpt lat="45.89361" lon="2.8264">
        <ele>717</ele>
        <time>2015-10-17T17:57:25Z</time>
      </trkpt>
      <trkpt lat="45.89381" lon="2.82621">
        <ele>716</ele>
        <time>2015-10-17T17:59:25Z</time>
      </trkpt>
      <trkpt lat="45.894" lon="2.82611">
        <ele>715</ele>
        <time>2015-10-17T18:01:25Z</time>
      </trkpt>
      <trkpt lat="45.89415" lon="2.82602">
        <ele>715</ele>
        <time>2015-10-17T18:03:25Z</time>
      </trkpt>
      <trkpt lat="45.89431" lon="2.82603">
        <ele>714</ele>
        <time>2015-10-17T18:05:25Z</time>
      </trkpt>
      <trkpt lat="45.89467" lon="2.8262">
        <ele>713</ele>
        <time>2015-10-17T18:07:25Z</time>
      </trkpt>
      <trkpt lat="45.89479" lon="2.82625">
        <ele>713</ele>
        <time>2015-10-17T18:09:25Z</time>
      </trkpt>
      <trkpt lat="45.89503" lon="2.82627">
        <ele>712</ele>
        <time>2015-10-17T18:11:25Z</time>
      </trkpt>
      <trkpt lat="45.89525" lon="2.82622">
        <ele>712</ele>
        <time>2015-10-17T18:13:25Z</time>
      </trkpt>
      <trkpt lat="45.8954" lon="2.82613">
        <ele>712</ele>
        <time>2015-10-17T18:15:25Z</time>
      </trkpt>
      <trkpt lat="45.89561" lon="2.82606">
        <ele>712</ele>
        <time>2015-10-17T18:17:25Z</time>
      </trkpt>
      <trkpt lat="45.89587" lon="2.82587">
        <ele>711</ele>
        <time>2015-10-17T18:19:25Z</time>
      </trkpt>
      <trkpt lat="45.89605" lon="2.82573">
        <ele>710</ele>
        <time>2015-10-17T18:21:25Z</time>
      </trkpt>
      <trkpt lat="45.89626" lon="2.82564">
        <ele>708</ele>
        <time>2015-10-17T18:23:25Z</time>
      </trkpt>
      <trkpt lat="45.8965" lon="2.82558">
        <ele>707</ele>
        <time>2015-10-17T18:25:25Z</time>
      </trkpt>
      <trkpt lat="45.89668" lon="2.82553">
        <ele>706</ele>
        <time>2015-10-17T18:27:25Z</time>
      </trkpt>
      <trkpt lat="45.89683" lon="2.82546">
        <ele>706</ele>
        <time>2015-10-17T18:29:25Z</time>
      </trkpt>
      <trkpt lat="45.89695" lon="2.82535">
        <ele>706</ele>
        <time>2015-10-17T18:31:25Z</time>
      </trkpt>
      <trkpt lat="45.89708" lon="2.82527">
        <ele>706</ele>
        <time>2015-10-17T18:33:25Z</time>
      </trkpt>
      <trkpt lat="45.89745" lon="2.82519">
        <ele>706</ele>
        <time>2015-10-17T18:35:25Z</time>
      </trkpt>
      <trkpt lat="45.89758" lon="2.82516">
        <ele>706</ele>
        <time>2015-10-17T18:37:25Z</time>
      </trkpt>
      <trkpt lat="45.8978" lon="2.82515">
        <ele>705</ele>
        <time>2015-10-17T18:39:25Z</time>
      </trkpt>
      <trkpt lat="45.89803" lon="2.82505">
        <ele>705</ele>
        <time>2015-10-17T18:41:25Z</time>
      </trkpt>
      <trkpt lat="45.89809" lon="2.82462">
        <ele>705</ele>
        <time>2015-10-17T18:43:25Z</time>
      </trkpt>
      <trkpt lat="45.89815" lon="2.8243">
        <ele>706</ele>
        <time>2015-10-17T18:45:25Z</time>
      </trkpt>
      <trkpt lat="45.89823" lon="2.82363">
        <ele>708</ele>
        <time>2015-10-17T18:47:25Z</time>
      </trkpt>
      <trkpt lat="45.89829" lon="2.82319">
        <ele>709</ele>
        <time>2015-10-17T18:49:25Z</time>
      </trkpt>
      <trkpt lat="45.8984" lon="2.82278">
        <ele>708</ele>
        <time>2015-10-17T18:51:25Z</time>
      </trkpt>
      <trkpt lat="45.89852" lon="2.82239">
        <ele>706</ele>
        <time>2015-10-17T18:53:25Z</time>
      </trkpt>
      <trkpt lat="45.89863" lon="2.82197">
        <ele>705</ele>
        <time>2015-10-17T18:55:25Z</time>
      </trkpt>
      <trkpt lat="45.89876" lon="2.8214">
        <ele>704</ele>
        <time>2015-10-17T18:57:25Z</time>
      </trkpt>
      <trkpt lat="45.89879" lon="2.82112">
        <ele>703</ele>
        <time>2015-10-17T18:59:25Z</time>
      </trkpt>
      <trkpt lat="45.89912" lon="2.82126">
        <ele>703</ele>
        <time>2015-10-17T19:01:25Z</time>
      </trkpt>
      <trkpt lat="45.89938" lon="2.8214">
        <ele>701</ele>
        <time>2015-10-17T19:03:25Z</time>
      </trkpt>
      <trkpt lat="45.89959" lon="2.82159">
        <ele>699</ele>
        <time>2015-10-17T19:05:25Z</time>
      </trkpt>
      <trkpt lat="45.89972" lon="2.82172">
        <ele>698</ele>
        <time>2015-10-17T19:07:25Z</time>
      </trkpt>
      <trkpt lat="45.89997" lon="2.82195">
        <ele>696</ele>
        <time>2015-10-17T19:09:25Z</time>
      </trkpt>
      <trkpt lat="45.90013" lon="2.82205">
        <ele>695</ele>
        <time>2015-10-17T19:11:25Z</time>
      </trkpt>
      <trkpt lat="45.90033" lon="2.82221">
        <ele>694</ele>
        <time>2015-10-17T19:13:25Z</time>
      </trkpt>
      <trkpt lat="45.90049" lon="2.82231">
        <ele>693</ele>
        <time>2015-10-17T19:15:25Z</time>
      </trkpt>
      <trkpt lat="45.90089" lon="2.82253">
        <ele>692</ele>
        <time>2015-10-17T19:17:25Z</time>
      </trkpt>
      <trkpt lat="45.90113" lon="2.82266">
        <ele>691</ele>
        <time>2015-10-17T19:19:25Z</time>
      </trkpt>
      <trkpt lat="45.90132" lon="2.82284">
        <ele>690</ele>
        <time>2015-10-17T19:21:25Z</time>
      </trkpt>
      <trkpt lat="45.90148" lon="2.823">
        <ele>689</ele>
        <time>2015-10-17T19:23:25Z</time>
      </trkpt>
      <trkpt lat="45.90159" lon="2.82317">
        <ele>687</ele>
        <time>2015-10-17T19:25:25Z</time>
      </trkpt>
      <trkpt lat="45.90178" lon="2.82333">
        <ele>684</ele>
        <time>2015-10-17T19:27:25Z</time>
      </trkpt>
      <trkpt lat="45.90186" lon="2.82347">
        <ele>681</ele>
        <time>2015-10-17T19:29:25Z</time>
      </trkpt>
      <trkpt lat="45.90201" lon="2.82355">
        <ele>678</ele>
        <time>2015-10-17T19:31:25Z</time>
      </trkpt>
      <trkpt lat="45.90217" lon="2.82355">
        <ele>676</ele>
        <time>2015-10-17T19:33:25Z</time>
      </trkpt>
      <trkpt lat="45.90227" lon="2.82349">
        <ele>675</ele>
        <time>2015-10-17T19:35:25Z</time>
      </trkpt>
      <trkpt lat="45.90237" lon="2.82338">
        <ele>674</ele>
        <time>2015-10-17T19:37:25Z</time>
      </trkpt>
      <trkpt lat="45.9024" lon="2.82319">
        <ele>675</ele>
        <time>2015-10-17T19:39:25Z</time>
      </trkpt>
      <trkpt lat="45.90242" lon="2.8229">
        <ele>676</ele>
        <time>2015-10-17T19:41:25Z</time>
      </trkpt>
      <trkpt lat="45.90245" lon="2.82172">
        <ele>672</ele>
        <time>2015-10-17T19:43:25Z</time>
      </trkpt>
      <trkpt lat="45.90248" lon="2.82137">
        <ele>665</ele>
        <time>2015-10-17T19:45:25Z</time>
      </trkpt>
      <trkpt lat="45.90247" lon="2.82123">
        <ele>662</ele>
        <time>2015-10-17T19:47:25Z</time>
      </trkpt>
      <trkpt lat="45.90238" lon="2.82111">
        <ele>661</ele>
        <time>2015-10-17T19:49:25Z</time>
      </trkpt>
      <trkpt lat="45.90203" lon="2.82105">
        <ele>669</ele>
        <time>2015-10-17T19:51:25Z</time>
      </trkpt>
      <trkpt lat="45.90189" lon="2.82092">
        <ele>670</ele>
        <time>2015-10-17T19:53:25Z</time>
      </trkpt>
      <trkpt lat="45.90171" lon="2.82079">
        <ele>673</ele>
        <time>2015-10-17T19:55:25Z</time>
      </trkpt>
      <trkpt lat="45.90172" lon="2.82063">
        <ele>673</ele>
        <time>2015-10-17T19:57:25Z</time>
      </trkpt>
      <trkpt lat="45.90186" lon="2.82053">
        <ele>669</ele>
        <time>2015-10-17T19:59:25Z</time>
      </trkpt>
      <trkpt lat="45.90199" lon="2.82039">
        <ele>665</ele>
        <time>2015-10-17T20:01:25Z</time>
      </trkpt>
      <trkpt lat="45.90211" lon="2.82018">
        <ele>661</ele>
        <time>2015-10-17T20:03:25Z</time>
      </trkpt>
      <trkpt lat="45.90217" lon="2.81993">
        <ele>658</ele>
        <time>2015-10-17T20:05:25Z</time>
      </trkpt>
      <trkpt lat="45.90218" lon="2.81971">
        <ele>658</ele>
        <time>2015-10-17T20:07:25Z</time>
      </trkpt>
      <trkpt lat="45.90213" lon="2.81948">
        <ele>659</ele>
        <time>2015-10-17T20:09:25Z</time>
      </trkpt>
      <trkpt lat="45.90208" lon="2.81928">
        <ele>661</ele>
        <time>2015-10-17T20:11:25Z</time>
      </trkpt>
      <trkpt lat="45.90204" lon="2.81906">
        <ele>662</ele>
        <time>2015-10-17T20:13:25Z</time>
      </trkpt>
      <trkpt lat="45.90197" lon="2.81885">
        <ele>664</ele>
        <time>2015-10-17T20:15:25Z</time>
      </trkpt>
      <trkpt lat="45.90187" lon="2.81871">
        <ele>668</ele>
        <time>2015-10-17T20:17:25Z</time>
      </trkpt>
      <trkpt lat="45.9018" lon="2.81852">
        <ele>670</ele>
        <time>2015-10-17T20:19:25Z</time>
      </trkpt>
      <trkpt lat="45.90183" lon="2.81838">
        <ele>668</ele>
        <time>2015-10-17T20:21:25Z</time>
      </trkpt>
      <trkpt lat="45.90195" lon="2.8183">
        <ele>663</ele>
        <time>2015-10-17T20:23:25Z</time>
      </trkpt>
      <trkpt lat="45.90211" lon="2.81808">
        <ele>657</ele>
        <time>2015-10-17T20:25:25Z</time>
      </trkpt>
      <trkpt lat="45.90215" lon="2.81786">
        <ele>655</ele>
        <time>2015-10-17T20:27:25Z</time>
      </trkpt>
      <trkpt lat="45.90212" lon="2.81758">
        <ele>657</ele>
        <time>2015-10-17T20:29:25Z</time>
      </trkpt>
      <trkpt lat="45.90206" lon="2.81737">
        <ele>658</ele>
        <time>2015-10-17T20:31:25Z</time>
      </trkpt>
      <trkpt lat="45.902" lon="2.81712">
        <ele>659</ele>
        <time>2015-10-17T20:33:25Z</time>
      </trkpt>
      <trkpt lat="45.90195" lon="2.81695">
        <ele>660</ele>
        <time>2015-10-17T20:35:25Z</time>
      </trkpt>
      <trkpt lat="45.90195" lon="2.81676">
        <ele>659</ele>
        <time>2015-10-17T20:37:25Z</time>
      </trkpt>
      <trkpt lat="45.90198" lon="2.81651">
        <ele>656</ele>
        <time>2015-10-17T20:39:25Z</time>
      </trkpt>
      <trkpt lat="45.90194" lon="2.81627">
        <ele>655</ele>
        <time>2015-10-17T20:41:25Z</time>
      </trkpt>
      <trkpt lat="45.90189" lon="2.81616">
        <ele>655</ele>
        <time>2015-10-17T20:43:25Z</time>
      </trkpt>
      <trkpt lat="45.90186" lon="2.81598">
        <ele>654</ele>
        <time>2015-10-17T20:45:25Z</time>
      </trkpt>
      <trkpt lat="45.90172" lon="2.81586">
        <ele>658</ele>
        <time>2015-10-17T20:47:25Z</time>
      </trkpt>
      <trkpt lat="45.9016" lon="2.81579">
        <ele>662</ele>
        <time>2015-10-17T20:49:25Z</time>
      </trkpt>
      <trkpt lat="45.90152" lon="2.81568">
        <ele>665</ele>
        <time>2015-10-17T20:51:25Z</time>
      </trkpt>
      <trkpt lat="45.90154" lon="2.81553">
        <ele>665</ele>
        <time>2015-10-17T20:53:25Z</time>
      </trkpt>
      <trkpt lat="45.90166" lon="2.81537">
        <ele>662</ele>
        <time>2015-10-17T20:55:25Z</time>
      </trkpt>
      <trkpt lat="45.90172" lon="2.8152">
        <ele>660</ele>
        <time>2015-10-17T20:57:25Z</time>
      </trkpt>
      <trkpt lat="45.90177" lon="2.81501">
        <ele>659</ele>
        <time>2015-10-17T20:59:25Z</time>
      </trkpt>
      <trkpt lat="45.90176" lon="2.81482">
        <ele>661</ele>
        <time>2015-10-17T21:01:25Z</time>
      </trkpt>
      <trkpt lat="45.90173" lon="2.81465">
        <ele>664</ele>
        <time>2015-10-17T21:03:25Z</time>
      </trkpt>
      <trkpt lat="45.90164" lon="2.81451">
        <ele>669</ele>
        <time>2015-10-17T21:05:25Z</time>
      </trkpt>
      <trkpt lat="45.90158" lon="2.81438">
        <ele>672</ele>
        <time>2015-10-17T21:07:25Z</time>
      </trkpt>
      <trkpt lat="45.90162" lon="2.81421">
        <ele>672</ele>
        <time>2015-10-17T21:09:25Z</time>
      </trkpt>
      <trkpt lat="45.90169" lon="2.81406">
        <ele>672</ele>
        <time>2015-10-17T21:11:25Z</time>
      </trkpt>
      <trkpt lat="45.9018" lon="2.81396">
        <ele>667</ele>
        <time>2015-10-17T21:13:25Z</time>
      </trkpt>
      <trkpt lat="45.90193" lon="2.8137">
        <ele>663</ele>
        <time>2015-10-17T21:15:25Z</time>
      </trkpt>
      <trkpt lat="45.90197" lon="2.81353">
        <ele>662</ele>
        <time>2015-10-17T21:17:25Z</time>
      </trkpt>
      <trkpt lat="45.90193" lon="2.81335">
        <ele>666</ele>
        <time>2015-10-17T21:19:25Z</time>
      </trkpt>
      <trkpt lat="45.90189" lon="2.81309">
        <ele>672</ele>
        <time>2015-10-17T21:21:25Z</time>
      </trkpt>
      <trkpt lat="45.90183" lon="2.81277">
        <ele>679</ele>
        <time>2015-10-17T21:23:25Z</time>
      </trkpt>
      <trkpt lat="45.90186" lon="2.81257">
        <ele>680</ele>
        <time>2015-10-17T21:25:25Z</time>
      </trkpt>
      <trkpt lat="45.90187" lon="2.81237">
        <ele>683</ele>
        <time>2015-10-17T21:27:25Z</time>
      </trkpt>
      <trkpt lat="45.90189" lon="2.81206">
        <ele>688</ele>
        <time>2015-10-17T21:29:25Z</time>
      </trkpt>
      <trkpt lat="45.90186" lon="2.81163">
        <ele>696</ele>
        <time>2015-10-17T21:31:25Z</time>
      </trkpt>
      <trkpt lat="45.90183" lon="2.81144">
        <ele>699</ele>
        <time>2015-10-17T21:33:25Z</time>
      </trkpt>
      <trkpt lat="45.90174" lon="2.8113">
        <ele>702</ele>
        <time>2015-10-17T21:35:25Z</time>
      </trkpt>
      <trkpt lat="45.90167" lon="2.8111">
        <ele>705</ele>
        <time>2015-10-17T21:37:25Z</time>
      </trkpt>
      <trkpt lat="45.90153" lon="2.81111">
        <ele>705</ele>
        <time>2015-10-17T21:39:25Z</time>
      </trkpt>
      <trkpt lat="45.90136" lon="2.8111">
        <ele>704</ele>
        <time>2015-10-17T21:41:25Z</time>
      </trkpt>
      <trkpt lat="45.90119" lon="2.81109">
        <ele>703</ele>
        <time>2015-10-17T21:43:25Z</time>
      </trkpt>
      <trkpt lat="45.90105" lon="2.8112">
        <ele>702</ele>
        <time>2015-10-17T21:45:25Z</time>
      </trkpt>
      <trkpt lat="45.90077" lon="2.81163">
        <ele>700</ele>
        <time>2015-10-17T21:47:25Z</time>
      </trkpt>
      <trkpt lat="45.90056" lon="2.81183">
        <ele>698</ele>
        <time>2015-10-17T21:49:25Z</time>
      </trkpt>
      <trkpt lat="45.90036" lon="2.81215">
        <ele>695</ele>
        <time>2015-10-17T21:51:25Z</time>
      </trkpt>
      <trkpt lat="45.90018" lon="2.81238">
        <ele>694</ele>
        <time>2015-10-17T21:53:25Z</time>
      </trkpt>
      <trkpt lat="45.89999" lon="2.81263">
        <ele>693</ele>
        <time>2015-10-17T21:55:25Z</time>
      </trkpt>
      <trkpt lat="45.89982" lon="2.8122">
        <ele>693</ele>
        <time>2015-10-17T21:57:25Z</time>
      </trkpt>
      <trkpt lat="45.89969" lon="2.81188">
        <ele>692</ele>
        <time>2015-10-17T21:59:25Z</time>
      </trkpt>
      <trkpt lat="45.89959" lon="2.81153">
        <ele>692</ele>
        <time>2015-10-17T22:01:25Z</time>
      </trkpt>
      <trkpt lat="45.89952" lon="2.81129">
        <ele>691</ele>
        <time>2015-10-17T22:03:25Z</time>
      </trkpt>
      <trkpt lat="45.89943" lon="2.81088">
        <ele>691</ele>
        <time>2015-10-17T22:05:25Z</time>
      </trkpt>
      <trkpt lat="45.89935" lon="2.8106">
        <ele>689</ele>
        <time>2015-10-17T22:07:25Z</time>
      </trkpt>
      <trkpt lat="45.89924" lon="2.81041">
        <ele>687</ele>
        <time>2015-10-17T22:09:25Z</time>
      </trkpt>
      <trkpt lat="45.89909" lon="2.81018">
        <ele>683</ele>
        <time>2015-10-17T22:11:25Z</time>
      </trkpt>
      <trkpt lat="45.899" lon="2.80998">
        <ele>681</ele>
        <time>2015-10-17T22:13:25Z</time>
      </trkpt>
      <trkpt lat="45.89894" lon="2.80979">
        <ele>678</ele>
        <time>2015-10-17T22:15:25Z</time>
      </trkpt>
      <trkpt lat="45.89892" lon="2.80953">
        <ele>677</ele>
        <time>2015-10-17T22:17:25Z</time>
      </trkpt>
      <trkpt lat="45.899" lon="2.80918">
        <ele>677</ele>
        <time>2015-10-17T22:19:25Z</time>
      </trkpt>
      <trkpt lat="45.89922" lon="2.80853">
        <ele>671</ele>
        <time>2015-10-17T22:21:25Z</time>
      </trkpt>
      <trkpt lat="45.89944" lon="2.80786">
        <ele>664</ele>
        <time>2015-10-17T22:23:25Z</time>
      </trkpt>
      <trkpt lat="45.89952" lon="2.80768">
        <ele>663</ele>
        <time>2015-10-17T22:25:25Z</time>
      </trkpt>
      <trkpt lat="45.89965" lon="2.80757">
        <ele>664</ele>
        <time>2015-10-17T22:27:25Z</time>
      </trkpt>
      <trkpt lat="45.89983" lon="2.8075">
        <ele>668</ele>
        <time>2015-10-17T22:29:25Z</time>
      </trkpt>
      <trkpt lat="45.89994" lon="2.80748">
        <ele>670</ele>
        <time>2015-10-17T22:31:25Z</time>
      </trkpt>
      <trkpt lat="45.89999" lon="2.80732">
        <ele>670</ele>
        <time>2015-10-17T22:33:25Z</time>
      </trkpt>
      <trkpt lat="45.89999" lon="2.80714">
        <ele>669</ele>
        <time>2015-10-17T22:35:25Z</time>
      </trkpt>
      <trkpt lat="45.89991" lon="2.807">
        <ele>666</ele>
        <time>2015-10-17T22:37:25Z</time>
      </trkpt>
      <trkpt lat="45.89981" lon="2.8068">
        <ele>661</ele>
        <time>2015-10-17T22:39:25Z</time>
      </trkpt>
      <trkpt lat="45.89965" lon="2.80655">
        <ele>654</ele>
        <time>2015-10-17T22:41:25Z</time>
      </trkpt>
      <trkpt lat="45.89957" lon="2.80635">
        <ele>651</ele>
        <time>2015-10-17T22:43:25Z</time>
      </trkpt>
      <trkpt lat="45.89943" lon="2.80594">
        <ele>645</ele>
        <time>2015-10-17T22:45:25Z</time>
      </trkpt>
      <trkpt lat="45.89935" lon="2.80574">
        <ele>641</ele>
        <time>2015-10-17T22:47:25Z</time>
      </trkpt>
      <trkpt lat="45.89921" lon="2.80511">
        <ele>636</ele>
        <time>2015-10-17T22:49:25Z</time>
      </trkpt>
      <trkpt lat="45.89915" lon="2.8045">
        <ele>635</ele>
        <time>2015-10-17T22:51:25Z</time>
      </trkpt>
      <trkpt lat="45.89907" lon="2.80422">
        <ele>632</ele>
        <time>2015-10-17T22:53:25Z</time>
      </trkpt>
      <trkpt lat="45.89897" lon="2.80368">
        <ele>625</ele>
        <time>2015-10-17T22:55:25Z</time>
      </trkpt>
      <trkpt lat="45.89907" lon="2.80297">
        <ele>618</ele>
        <time>2015-10-17T22:57:25Z</time>
      </trkpt>
      <trkpt lat="45.89919" lon="2.8027">
        <ele>615</ele>
        <time>2015-10-17T22:59:25Z</time>
      </trkpt>
      <trkpt lat="45.89938" lon="2.80259">
        <ele>615</ele>
        <time>2015-10-17T23:01:25Z</time>
      </trkpt>
      <trkpt lat="45.89955" lon="2.80251">
        <ele>616</ele>
        <time>2015-10-17T23:03:25Z</time>
      </trkpt>
      <trkpt lat="45.89984" lon="2.80236">
        <ele>616</ele>
        <time>2015-10-17T23:05:25Z</time>
      </trkpt>
      <trkpt lat="45.90025" lon="2.80206">
        <ele>611</ele>
        <time>2015-10-17T23:07:25Z</time>
      </trkpt>
      <trkpt lat="45.90044" lon="2.80176">
        <ele>603</ele>
        <time>2015-10-17T23:09:25Z</time>
      </trkpt>
      <trkpt lat="45.90074" lon="2.80145">
        <ele>592</ele>
        <time>2015-10-17T23:11:25Z</time>
      </trkpt>
      <trkpt lat="45.90065" lon="2.80132">
        <ele>589</ele>
        <time>2015-10-17T23:13:25Z</time>
      </trkpt>
      <trkpt lat="45.90052" lon="2.80123">
        <ele>587</ele>
        <time>2015-10-17T23:15:25Z</time>
      </trkpt>
      <trkpt lat="45.90026" lon="2.80121">
        <ele>588</ele>
        <time>2015-10-17T23:17:25Z</time>
      </trkpt>
      <trkpt lat="45.90006" lon="2.80133">
        <ele>593</ele>
        <time>2015-10-17T23:19:25Z</time>
      </trkpt>
      <trkpt lat="45.89985" lon="2.80146">
        <ele>596</ele>
        <time>2015-10-17T23:21:25Z</time>
      </trkpt>
      <trkpt lat="45.89968" lon="2.80152">
        <ele>596</ele>
        <time>2015-10-17T23:23:25Z</time>
      </trkpt>
      <trkpt lat="45.89943" lon="2.80143">
        <ele>590</ele>
        <time>2015-10-17T23:25:25Z</time>
      </trkpt>
      <trkpt lat="45.89915" lon="2.80124">
        <ele>582</ele>
        <time>2015-10-17T23:27:25Z</time>
      </trkpt>
      <trkpt lat="45.8993" lon="2.80108">
        <ele>578</ele>
        <time>2015-10-17T23:29:25Z</time>
      </trkpt>
      <trkpt lat="45.89942" lon="2.80104">
        <ele>578</ele>
        <time>2015-10-17T23:31:25Z</time>
      </trkpt>
      <trkpt lat="45.89964" lon="2.80087">
        <ele>574</ele>
        <time>2015-10-17T23:33:25Z</time>
      </trkpt>
      <trkpt lat="45.89977" lon="2.80073">
        <ele>571</ele>
        <time>2015-10-17T23:35:25Z</time>
      </trkpt>
      <trkpt lat="45.89989" lon="2.80058">
        <ele>568</ele>
        <time>2015-10-17T23:37:25Z</time>
      </trkpt>
      <trkpt lat="45.90007" lon="2.80032">
        <ele>561</ele>
        <time>2015-10-17T23:39:25Z</time>
      </trkpt>
      <trkpt lat="45.90019" lon="2.80008">
        <ele>554</ele>
        <time>2015-10-17T23:41:25Z</time>
      </trkpt>
      <trkpt lat="45.90031" lon="2.79998">
        <ele>551</ele>
        <time>2015-10-17T23:43:25Z</time>
      </trkpt>
      <trkpt lat="45.90052" lon="2.79992">
        <ele>549</ele>
        <time>2015-10-17T23:45:25Z</time>
      </trkpt>
      <trkpt lat="45.90079" lon="2.79992">
        <ele>548</ele>
        <time>2015-10-17T23:47:25Z</time>
      </trkpt>
      <trkpt lat="45.90103" lon="2.79993">
        <ele>545</ele>
        <time>2015-10-17T23:49:25Z</time>
      </trkpt>
      <trkpt lat="45.90126" lon="2.79991">
        <ele>541</ele>
        <time>2015-10-17T23:51:25Z</time>
      </trkpt>
      <trkpt lat="45.90147" lon="2.79989">
        <ele>538</ele>
        <time>2015-10-17T23:53:25Z</time>
      </trkpt>
      <trkpt lat="45.90174" lon="2.80001">
        <ele>536</ele>
        <time>2015-10-17T23:55:25Z</time>
      </trkpt>
      <trkpt lat="45.90188" lon="2.80023">
        <ele>540</ele>
        <time>2015-10-17T23:57:25Z</time>
      </trkpt>
      <trkpt lat="45.90204" lon="2.80046">
        <ele>544</ele>
        <time>2015-10-17T23:59:25Z</time>
      </trkpt>
      <trkpt lat="45.90222" lon="2.80062">
        <ele>547</ele>
        <time>2015-10-18T00:01:25Z</time>
      </trkpt>
      <trkpt lat="45.90238" lon="2.8008">
        <ele>549</ele>
        <time>2015-10-18T00:03:25Z</time>
      </trkpt>
      <trkpt lat="45.90269" lon="2.80093">
        <ele>552</ele>
        <time>2015-10-18T00:05:25Z</time>
      </trkpt>
      <trkpt lat="45.90319" lon="2.80118">
        <ele>558</ele>
        <time>2015-10-18T00:07:25Z</time>
      </trkpt>
      <trkpt lat="45.90345" lon="2.80118">
        <ele>559</ele>
        <time>2015-10-18T00:09:25Z</time>
      </trkpt>
      <trkpt lat="45.90371" lon="2.80108">
        <ele>559</ele>
        <time>2015-10-18T00:11:25Z</time>
      </trkpt>
      <trkpt lat="45.90392" lon="2.80101">
        <ele>560</ele>
        <time>2015-10-18T00:13:25Z</time>
      </trkpt>
      <trkpt lat="45.90407" lon="2.80091">
        <ele>558</ele>
        <time>2015-10-18T00:15:25Z</time>
      </trkpt>
      <trkpt lat="45.90427" lon="2.80069">
        <ele>555</ele>
        <time>2015-10-18T00:17:25Z</time>
      </trkpt>
      <trkpt lat="45.90447" lon="2.80043">
        <ele>554</ele>
        <time>2015-10-18T00:19:25Z</time>
      </trkpt>
      <trkpt lat="45.90465" lon="2.8002">
        <ele>552</ele>
        <time>2015-10-18T00:21:25Z</time>
      </trkpt>
      <trkpt lat="45.90494" lon="2.79988">
        <ele>550</ele>
        <time>2015-10-18T00:23:25Z</time>
      </trkpt>
      <trkpt lat="45.90501" lon="2.79966">
        <ele>546</ele>
        <time>2015-10-18T00:25:25Z</time>
      </trkpt>
      <trkpt lat="45.9051" lon="2.79937">
        <ele>540</ele>
        <time>2015-10-18T00:27:25Z</time>
      </trkpt>
      <trkpt lat="45.90526" lon="2.79917">
        <ele>537</ele>
        <time>2015-10-18T00:29:25Z</time>
      </trkpt>
      <trkpt lat="45.90549" lon="2.79905">
        <ele>539</ele>
        <time>2015-10-18T00:31:25Z</time>
      </trkpt>
      <trkpt lat="45.90571" lon="2.79899">
        <ele>541</ele>
        <time>2015-10-18T00:33:25Z</time>
      </trkpt>
      <trkpt lat="45.90592" lon="2.79893">
        <ele>540</ele>
        <time>2015-10-18T00:35:25Z</time>
      </trkpt>
      <trkpt lat="45.90615" lon="2.79902">
        <ele>540</ele>
        <time>2015-10-18T00:37:25Z</time>
      </trkpt>
      <trkpt lat="45.90632" lon="2.79909">
        <ele>539</ele>
        <time>2015-10-18T00:39:25Z</time>
      </trkpt>
      <trkpt lat="45.90648" lon="2.79927">
        <ele>540</ele>
        <time>2015-10-18T00:41:25Z</time>
      </trkpt>
      <trkpt lat="45.90659" lon="2.79943">
        <ele>542</ele>
        <time>2015-10-18T00:43:25Z</time>
      </trkpt>
      <trkpt lat="45.90671" lon="2.79963">
        <ele>545</ele>
        <time>2015-10-18T00:45:25Z</time>
      </trkpt>
      <trkpt lat="45.90688" lon="2.79983">
        <ele>547</ele>
        <time>2015-10-18T00:47:25Z</time>
      </trkpt>
      <trkpt lat="45.90702" lon="2.79997">
        <ele>548</ele>
        <time>2015-10-18T00:49:25Z</time>
      </trkpt>
      <trkpt lat="45.90719" lon="2.80013">
        <ele>548</ele>
        <time>2015-10-18T00:51:25Z</time>
      </trkpt>
      <trkpt lat="45.90727" lon="2.80032">
        <ele>549</ele>
        <time>2015-10-18T00:53:25Z</time>
      </trkpt>
      <trkpt lat="45.90745" lon="2.80064">
        <ele>549</ele>
        <time>2015-10-18T00:55:25Z</time>
      </trkpt>
      <trkpt lat="45.90754" lon="2.80078">
        <ele>548</ele>
        <time>2015-10-18T00:57:25Z</time>
      </trkpt>
      <trkpt lat="45.90765" lon="2.80109">
        <ele>544</ele>
        <time>2015-10-18T00:59:25Z</time>
      </trkpt>
      <trkpt lat="45.90772" lon="2.80134">
        <ele>541</ele>
        <time>2015-10-18T01:01:25Z</time>
      </trkpt>
      <trkpt lat="45.90786" lon="2.80143">
        <ele>537</ele>
        <time>2015-10-18T01:03:25Z</time>
      </trkpt>
      <trkpt lat="45.908" lon="2.80157">
        <ele>534</ele>
        <time>2015-10-18T01:05:25Z</time>
      </trkpt>
      <trkpt lat="45.90809" lon="2.80168">
        <ele>532</ele>
        <time>2015-10-18T01:07:25Z</time>
      </trkpt>
      <trkpt lat="45.90824" lon="2.8018">
        <ele>529</ele>
        <time>2015-10-18T01:09:25Z</time>
      </trkpt>
      <trkpt lat="45.90836" lon="2.80181">
        <ele>527</ele>
        <time>2015-10-18T01:11:25Z</time>
      </trkpt>
      <trkpt lat="45.90846" lon="2.80165">
        <ele>527</ele>
        <time>2015-10-18T01:13:25Z</time>
      </trkpt>
      <trkpt lat="45.90853" lon="2.80148">
        <ele>527</ele>
        <time>2015-10-18T01:15:25Z</time>
      </trkpt>
      <trkpt lat="45.9087" lon="2.80141">
        <ele>526</ele>
        <time>2015-10-18T01:17:25Z</time>
      </trkpt>
      <trkpt lat="45.90888" lon="2.80146">
        <ele>526</ele>
        <time>2015-10-18T01:19:25Z</time>
      </trkpt>
      <trkpt lat="45.90905" lon="2.80158">
        <ele>526</ele>
        <time>2015-10-18T01:21:25Z</time>
      </trkpt>
      <trkpt lat="45.90927" lon="2.8017">
        <ele>526</ele>
        <time>2015-10-18T01:23:25Z</time>
      </trkpt>
      <trkpt lat="45.90943" lon="2.80175">
        <ele>527</ele>
        <time>2015-10-18T01:25:25Z</time>
      </trkpt>
      <trkpt lat="45.90955" lon="2.8017">
        <ele>527</ele>
        <time>2015-10-18T01:27:25Z</time>
      </trkpt>
      <trkpt lat="45.90971" lon="2.80162">
        <ele>527</ele>
        <time>2015-10-18T01:29:25Z</time>
      </trkpt>
      <trkpt lat="45.90999" lon="2.8015">
        <ele>527</ele>
        <time>2015-10-18T01:31:25Z</time>
      </trkpt>
      <trkpt lat="45.91014" lon="2.80137">
        <ele>532</ele>
        <time>2015-10-18T01:33:25Z</time>
      </trkpt>
      <trkpt lat="45.91019" lon="2.80108">
        <ele>532</ele>
        <time>2015-10-18T01:35:25Z</time>
      </trkpt>
      <trkpt lat="45.91028" lon="2.80076">
        <ele>533</ele>
        <time>2015-10-18T01:37:25Z</time>
      </trkpt>
      <trkpt lat="45.91037" lon="2.8005">
        <ele>536</ele>
        <time>2015-10-18T01:39:25Z</time>
      </trkpt>
      <trkpt lat="45.91041" lon="2.8002">
        <ele>536</ele>
        <time>2015-10-18T01:41:25Z</time>
      </trkpt>
      <trkpt lat="45.91043" lon="2.79997">
        <ele>536</ele>
        <time>2015-10-18T01:43:25Z</time>
      </trkpt>
      <trkpt lat="45.91046" lon="2.79971">
        <ele>536</ele>
        <time>2015-10-18T01:45:25Z</time>
      </trkpt>
      <trkpt lat="45.91048" lon="2.79952">
        <ele>536</ele>
        <time>2015-10-18T01:47:25Z</time>
      </trkpt>
      <trkpt lat="45.91046" lon="2.79918">
        <ele>535</ele>
        <time>2015-10-18T01:49:25Z</time>
      </trkpt>
      <trkpt lat="45.91044" lon="2.79852">
        <ele>534</ele>
        <time>2015-10-18T01:51:25Z</time>
      </trkpt>
      <trkpt lat="45.91043" lon="2.79807">
        <ele>531</ele>
        <time>2015-10-18T01:53:25Z</time>
      </trkpt>
      <trkpt lat="45.9104" lon="2.79775">
        <ele>529</ele>
        <time>2015-10-18T01:55:25Z</time>
      </trkpt>
      <trkpt lat="45.9104" lon="2.79737">
        <ele>528</ele>
        <time>2015-10-18T01:57:25Z</time>
      </trkpt>
      <trkpt lat="45.91042" lon="2.79677">
        <ele>528</ele>
        <time>2015-10-18T01:59:25Z</time>
      </trkpt>
      <trkpt lat="45.91055" lon="2.79648">
        <ele>528</ele>
        <time>2015-10-18T02:01:25Z</time>
      </trkpt>
      <trkpt lat="45.91067" lon="2.79632">
        <ele>526</ele>
        <time>2015-10-18T02:03:25Z</time>
      </trkpt>
      <trkpt lat="45.9108" lon="2.79624">
        <ele>524</ele>
        <time>2015-10-18T02:05:25Z</time>
      </trkpt>
      <trkpt lat="45.9109" lon="2.7962">
        <ele>524</ele>
        <time>2015-10-18T02:07:25Z</time>
      </trkpt>
      <trkpt lat="45.91105" lon="2.79633">
        <ele>525</ele>
        <time>2015-10-18T02:09:25Z</time>
      </trkpt>
      <trkpt lat="45.91108" lon="2.79657">
        <ele>524</ele>
        <time>2015-10-18T02:11:25Z</time>
      </trkpt>
      <trkpt lat="45.91116" lon="2.79681">
        <ele>524</ele>
        <time>2015-10-18T02:13:25Z</time>
      </trkpt>
      <trkpt lat="45.91123" lon="2.79704">
        <ele>524</ele>
        <time>2015-10-18T02:15:25Z</time>
      </trkpt>
      <trkpt lat="45.9114" lon="2.79735">
        <ele>524</ele>
        <time>2015-10-18T02:17:25Z</time>
      </trkpt>
      <trkpt lat="45.91154" lon="2.7976">
        <ele>525</ele>
        <time>2015-10-18T02:19:25Z</time>
      </trkpt>
      <trkpt lat="45.91164" lon="2.79784">
        <ele>530</ele>
        <time>2015-10-18T02:21:25Z</time>
      </trkpt>
      <trkpt lat="45.91177" lon="2.7981">
        <ele>535</ele>
        <time>2015-10-18T02:23:25Z</time>
      </trkpt>
      <trkpt lat="45.91194" lon="2.79838">
        <ele>535</ele>
        <time>2015-10-18T02:25:25Z</time>
      </trkpt>
      <trkpt lat="45.91207" lon="2.79874">
        <ele>538</ele>
        <time>2015-10-18T02:27:25Z</time>
      </trkpt>
      <trkpt lat="45.91224" lon="2.79901">
        <ele>536</ele>
        <time>2015-10-18T02:29:25Z</time>
      </trkpt>
      <trkpt lat="45.91237" lon="2.79922">
        <ele>535</ele>
        <time>2015-10-18T02:31:25Z</time>
      </trkpt>
      <trkpt lat="45.91255" lon="2.79935">
        <ele>536</ele>
        <time>2015-10-18T02:33:25Z</time>
      </trkpt>
      <trkpt lat="45.91273" lon="2.79955">
        <ele>543</ele>
        <time>2015-10-18T02:35:25Z</time>
      </trkpt>
      <trkpt lat="45.91301" lon="2.79966">
        <ele>540</ele>
        <time>2015-10-18T02:37:25Z</time>
      </trkpt>
      <trkpt lat="45.91323" lon="2.79964">
        <ele>534</ele>
        <time>2015-10-18T02:39:25Z</time>
      </trkpt>
      <trkpt lat="45.91361" lon="2.79956">
        <ele>533</ele>
        <time>2015-10-18T02:41:25Z</time>
      </trkpt>
      <trkpt lat="45.91383" lon="2.79945">
        <ele>533</ele>
        <time>2015-10-18T02:43:25Z</time>
      </trkpt>
      <trkpt lat="45.91405" lon="2.79926">
        <ele>528</ele>
        <time>2015-10-18T02:45:25Z</time>
      </trkpt>
      <trkpt lat="45.91426" lon="2.79904">
        <ele>529</ele>
        <time>2015-10-18T02:47:25Z</time>
      </trkpt>
      <trkpt lat="45.91446" lon="2.79875">
        <ele>533</ele>
        <time>2015-10-18T02:49:25Z</time>
      </trkpt>
      <trkpt lat="45.91455" lon="2.79853">
        <ele>532</ele>
        <time>2015-10-18T02:51:25Z</time>
      </trkpt>
      <trkpt lat="45.91463" lon="2.79829">
        <ele>531</ele>
        <time>2015-10-18T02:53:25Z</time>
      </trkpt>
      <trkpt lat="45.91469" lon="2.79794">
        <ele>533</ele>
        <time>2015-10-18T02:55:25Z</time>
      </trkpt>
      <trkpt lat="45.91473" lon="2.79763">
        <ele>534</ele>
        <time>2015-10-18T02:57:25Z</time>
      </trkpt>
      <trkpt lat="45.91472" lon="2.7971">
        <ele>534</ele>
        <time>2015-10-18T02:59:25Z</time>
      </trkpt>
      <trkpt lat="45.91464" lon="2.79682">
        <ele>533</ele>
        <time>2015-10-18T03:01:25Z</time>
      </trkpt>
      <trkpt lat="45.91454" lon="2.79657">
        <ele>530</ele>
        <time>2015-10-18T03:03:25Z</time>
      </trkpt>
      <trkpt lat="45.91444" lon="2.79633">
        <ele>528</ele>
        <time>2015-10-18T03:05:25Z</time>
      </trkpt>
      <trkpt lat="45.91435" lon="2.79613">
        <ele>525</ele>
        <time>2015-10-18T03:07:25Z</time>
      </trkpt>
      <trkpt lat="45.91421" lon="2.79593">
        <ele>520</ele>
        <time>2015-10-18T03:09:25Z</time>
      </trkpt>
      <trkpt lat="45.91405" lon="2.79576">
        <ele>519</ele>
        <time>2015-10-18T03:11:25Z</time>
      </trkpt>
      <trkpt lat="45.91392" lon="2.79563">
        <ele>519</ele>
        <time>2015-10-18T03:13:25Z</time>
      </trkpt>
      <trkpt lat="45.91369" lon="2.7956">
        <ele>519</ele>
        <time>2015-10-18T03:15:25Z</time>
      </trkpt>
      <trkpt lat="45.9135" lon="2.79549">
        <ele>518</ele>
        <time>2015-10-18T03:17:25Z</time>
      </trkpt>
      <trkpt lat="45.9134" lon="2.79527">
        <ele>517</ele>
        <time>2015-10-18T03:19:25Z</time>
      </trkpt>
      <trkpt lat="45.91332" lon="2.795">
        <ele>516</ele>
        <time>2015-10-18T03:21:25Z</time>
      </trkpt>
      <trkpt lat="45.9132" lon="2.79466">
        <ele>519</ele>
        <time>2015-10-18T03:23:25Z</time>
      </trkpt>
      <trkpt lat="45.91314" lon="2.79445">
        <ele>520</ele>
        <time>2015-10-18T03:25:25Z</time>
      </trkpt>
      <trkpt lat="45.91314" lon="2.79427">
        <ele>520</ele>
        <time>2015-10-18T03:27:25Z</time>
      </trkpt>
      <trkpt lat="45.91329" lon="2.79418">
        <ele>518</ele>
        <time>2015-10-18T03:29:25Z</time>
      </trkpt>
      <trkpt lat="45.91338" lon="2.79414">
        <ele>517</ele>
        <time>2015-10-18T03:31:25Z</time>
      </trkpt>
      <trkpt lat="45.91364" lon="2.79411">
        <ele>518</ele>
        <time>2015-10-18T03:33:25Z</time>
      </trkpt>
      <trkpt lat="45.91385" lon="2.7943">
        <ele>519</ele>
        <time>2015-10-18T03:35:25Z</time>
      </trkpt>
      <trkpt lat="45.91403" lon="2.79452">
        <ele>522</ele>
        <time>2015-10-18T03:37:25Z</time>
      </trkpt>
      <trkpt lat="45.91423" lon="2.79464">
        <ele>525</ele>
        <time>2015-10-18T03:39:25Z</time>
      </trkpt>
      <trkpt lat="45.91455" lon="2.79481">
        <ele>530</ele>
        <time>2015-10-18T03:41:25Z</time>
      </trkpt>
      <trkpt lat="45.91479" lon="2.79488">
        <ele>534</ele>
        <time>2015-10-18T03:43:25Z</time>
      </trkpt>
      <trkpt lat="45.91513" lon="2.79498">
        <ele>538</ele>
        <time>2015-10-18T03:45:25Z</time>
      </trkpt>
      <trkpt lat="45.91535" lon="2.79506">
        <ele>538</ele>
        <time>2015-10-18T03:47:25Z</time>
      </trkpt>
      <trkpt lat="45.91567" lon="2.7952">
        <ele>542</ele>
        <time>2015-10-18T03:49:25Z</time>
      </trkpt>
      <trkpt lat="45.91587" lon="2.79533">
        <ele>548</ele>
        <time>2015-10-18T03:51:25Z</time>
      </trkpt>
      <trkpt lat="45.91613" lon="2.79539">
        <ele>549</ele>
        <time>2015-10-18T03:53:25Z</time>
      </trkpt>
      <trkpt lat="45.91639" lon="2.79548">
        <ele>551</ele>
        <time>2015-10-18T03:55:25Z</time>
      </trkpt>
      <trkpt lat="45.91667" lon="2.79559">
        <ele>553</ele>
        <time>2015-10-18T03:57:25Z</time>
      </trkpt>
      <trkpt lat="45.91689" lon="2.79581">
        <ele>558</ele>
        <time>2015-10-18T03:59:25Z</time>
      </trkpt>
      <trkpt lat="45.917" lon="2.79615">
        <ele>567</ele>
        <time>2015-10-18T04:01:25Z</time>
      </trkpt>
      <trkpt lat="45.91715" lon="2.79649">
        <ele>573</ele>
        <time>2015-10-18T04:03:25Z</time>
      </trkpt>
      <trkpt lat="45.91728" lon="2.79687">
        <ele>579</ele>
        <time>2015-10-18T04:05:25Z</time>
      </trkpt>
      <trkpt lat="45.9174" lon="2.79733">
        <ele>586</ele>
        <time>2015-10-18T04:07:25Z</time>
      </trkpt>
      <trkpt lat="45.91761" lon="2.79776">
        <ele>593</ele>
        <time>2015-10-18T04:09:25Z</time>
      </trkpt>
      <trkpt lat="45.91787" lon="2.79827">
        <ele>605</ele>
        <time>2015-10-18T04:11:25Z</time>
      </trkpt>
      <trkpt lat="45.918" lon="2.79846">
        <ele>608</ele>
        <time>2015-10-18T04:13:25Z</time>
      </trkpt>
      <trkpt lat="45.91817" lon="2.79866">
        <ele>612</ele>
        <time>2015-10-18T04:15:25Z</time>
      </trkpt>
      <trkpt lat="45.91835" lon="2.79884">
        <ele>616</ele>
        <time>2015-10-18T04:17:25Z</time>
      </trkpt>
      <trkpt lat="45.91853" lon="2.79895">
        <ele>619</ele>
        <time>2015-10-18T04:19:25Z</time>
      </trkpt>
      <trkpt lat="45.91874" lon="2.79898">
        <ele>620</ele>
        <time>2015-10-18T04:21:25Z</time>
      </trkpt>
      <trkpt lat="45.919" lon="2.79897">
        <ele>618</ele>
        <time>2015-10-18T04:23:25Z</time>
      </trkpt>
      <trkpt lat="45.91907" lon="2.79911">
        <ele>624</ele>
        <time>2015-10-18T04:25:25Z</time>
      </trkpt>
      <trkpt lat="45.91894" lon="2.79917">
        <ele>627</ele>
        <time>2015-10-18T04:27:25Z</time>
      </trkpt>
      <trkpt lat="45.91879" lon="2.7993">
        <ele>632</ele>
        <time>2015-10-18T04:29:25Z</time>
      </trkpt>
      <trkpt lat="45.91859" lon="2.79935">
        <ele>635</ele>
        <time>2015-10-18T04:31:25Z</time>
      </trkpt>
      <trkpt lat="45.91831" lon="2.79939">
        <ele>637</ele>
        <time>2015-10-18T04:33:25Z</time>
      </trkpt>
      <trkpt lat="45.91816" lon="2.79935">
        <ele>638</ele>
        <time>2015-10-18T04:35:25Z</time>
      </trkpt>
      <trkpt lat="45.91797" lon="2.79924">
        <ele>637</ele>
        <time>2015-10-18T04:37:25Z</time>
      </trkpt>
      <trkpt lat="45.91787" lon="2.79915">
        <ele>636</ele>
        <time>2015-10-18T04:39:25Z</time>
      </trkpt>
      <trkpt lat="45.9176" lon="2.79905">
        <ele>637</ele>
        <time>2015-10-18T04:41:25Z</time>
      </trkpt>
      <trkpt lat="45.91726" lon="2.7989">
        <ele>637</ele>
        <time>2015-10-18T04:43:25Z</time>
      </trkpt>
      <trkpt lat="45.9171" lon="2.79875">
        <ele>635</ele>
        <time>2015-10-18T04:45:25Z</time>
      </trkpt>
      <trkpt lat="45.91681" lon="2.79845">
        <ele>633</ele>
        <time>2015-10-18T04:47:25Z</time>
      </trkpt>
      <trkpt lat="45.9167" lon="2.79832">
        <ele>632</ele>
        <time>2015-10-18T04:49:25Z</time>
      </trkpt>
      <trkpt lat="45.91655" lon="2.79827">
        <ele>627</ele>
        <time>2015-10-18T04:51:25Z</time>
      </trkpt>
      <trkpt lat="45.9165" lon="2.79842">
        <ele>628</ele>
        <time>2015-10-18T04:53:25Z</time>
      </trkpt>
      <trkpt lat="45.91656" lon="2.79857">
        <ele>633</ele>
        <time>2015-10-18T04:55:25Z</time>
      </trkpt>
      <trkpt lat="45.91664" lon="2.79875">
        <ele>640</ele>
        <time>2015-10-18T04:57:25Z</time>
      </trkpt>
      <trkpt lat="45.9168" lon="2.79919">
        <ele>648</ele>
        <time>2015-10-18T04:59:25Z</time>
      </trkpt>
      <trkpt lat="45.917" lon="2.79934">
        <ele>650</ele>
        <time>2015-10-18T05:01:25Z</time>
      </trkpt>
      <trkpt lat="45.91723" lon="2.79951">
        <ele>652</ele>
        <time>2015-10-18T05:03:25Z</time>
      </trkpt>
      <trkpt lat="45.91747" lon="2.79962">
        <ele>654</ele>
        <time>2015-10-18T05:05:25Z</time>
      </trkpt>
      <trkpt lat="45.91762" lon="2.79969">
        <ele>655</ele>
        <time>2015-10-18T05:07:25Z</time>
      </trkpt>
      <trkpt lat="45.91795" lon="2.79987">
        <ele>657</ele>
        <time>2015-10-18T05:09:25Z</time>
      </trkpt>
      <trkpt lat="45.91822" lon="2.80005">
        <ele>660</ele>
        <time>2015-10-18T05:11:25Z</time>
      </trkpt>
      <trkpt lat="45.91865" lon="2.80016">
        <ele>660</ele>
        <time>2015-10-18T05:13:25Z</time>
      </trkpt>
      <trkpt lat="45.91889" lon="2.80016">
        <ele>659</ele>
        <time>2015-10-18T05:15:25Z</time>
      </trkpt>
      <trkpt lat="45.91912" lon="2.80015">
        <ele>659</ele>
        <time>2015-10-18T05:17:25Z</time>
      </trkpt>
      <trkpt lat="45.91946" lon="2.80001">
        <ele>659</ele>
        <time>2015-10-18T05:19:25Z</time>
      </trkpt>
      <trkpt lat="45.91972" lon="2.79978">
        <ele>654</ele>
        <time>2015-10-18T05:21:25Z</time>
      </trkpt>
      <trkpt lat="45.91997" lon="2.79978">
        <ele>657</ele>
        <time>2015-10-18T05:23:25Z</time>
      </trkpt>
      <trkpt lat="45.92013" lon="2.79989">
        <ele>660</ele>
        <time>2015-10-18T05:25:25Z</time>
      </trkpt>
      <trkpt lat="45.92037" lon="2.8">
        <ele>662</ele>
        <time>2015-10-18T05:27:25Z</time>
      </trkpt>
      <trkpt lat="45.92065" lon="2.80018">
        <ele>663</ele>
        <time>2015-10-18T05:29:25Z</time>
      </trkpt>
      <trkpt lat="45.92081" lon="2.80029">
        <ele>664</ele>
        <time>2015-10-18T05:31:25Z</time>
      </trkpt>
      <trkpt lat="45.92102" lon="2.80042">
        <ele>663</ele>
        <time>2015-10-18T05:33:25Z</time>
      </trkpt>
      <trkpt lat="45.92121" lon="2.80069">
        <ele>665</ele>
        <time>2015-10-18T05:35:25Z</time>
      </trkpt>
      <trkpt lat="45.92132" lon="2.80093">
        <ele>667</ele>
        <time>2015-10-18T05:37:25Z</time>
      </trkpt>
      <trkpt lat="45.92143" lon="2.80122">
        <ele>668</ele>
        <time>2015-10-18T05:39:25Z</time>
      </trkpt>
      <trkpt lat="45.92155" lon="2.80139">
        <ele>669</ele>
        <time>2015-10-18T05:41:25Z</time>
      </trkpt>
      <trkpt lat="45.92187" lon="2.80172">
        <ele>669</ele>
        <time>2015-10-18T05:43:25Z</time>
      </trkpt>
      <trkpt lat="45.92194" lon="2.80207">
        <ele>671</ele>
        <time>2015-10-18T05:45:25Z</time>
      </trkpt>
      <trkpt lat="45.92197" lon="2.80253">
        <ele>675</ele>
        <time>2015-10-18T05:47:25Z</time>
      </trkpt>
      <trkpt lat="45.922" lon="2.80302">
        <ele>677</ele>
        <time>2015-10-18T05:49:25Z</time>
      </trkpt>
      <trkpt lat="45.92205" lon="2.8034">
        <ele>679</ele>
        <time>2015-10-18T05:51:25Z</time>
      </trkpt>
      <trkpt lat="45.92211" lon="2.80391">
        <ele>680</ele>
        <time>2015-10-18T05:53:25Z</time>
      </trkpt>
      <trkpt lat="45.92214" lon="2.80433">
        <ele>682</ele>
        <time>2015-10-18T05:55:25Z</time>
      </trkpt>
      <trkpt lat="45.92217" lon="2.80496">
        <ele>685</ele>
        <time>2015-10-18T05:57:25Z</time>
      </trkpt>
      <trkpt lat="45.92218" lon="2.80521">
        <ele>686</ele>
        <time>2015-10-18T05:59:25Z</time>
      </trkpt>
      <trkpt lat="45.92231" lon="2.80563">
        <ele>686</ele>
        <time>2015-10-18T06:01:25Z</time>
      </trkpt>
      <trkpt lat="45.92245" lon="2.80601">
        <ele>686</ele>
        <time>2015-10-18T06:03:25Z</time>
      </trkpt>
      <trkpt lat="45.92253" lon="2.8064">
        <ele>686</ele>
        <time>2015-10-18T06:05:25Z</time>
      </trkpt>
      <trkpt lat="45.92252" lon="2.80658">
        <ele>686</ele>
        <time>2015-10-18T06:07:25Z</time>
      </trkpt>
      <trkpt lat="45.92249" lon="2.80678">
        <ele>686</ele>
        <time>2015-10-18T06:09:25Z</time>
      </trkpt>
      <trkpt lat="45.92242" lon="2.80699">
        <ele>687</ele>
        <time>2015-10-18T06:11:25Z</time>
      </trkpt>
      <trkpt lat="45.92238" lon="2.80719">
        <ele>687</ele>
        <time>2015-10-18T06:13:25Z</time>
      </trkpt>
      <trkpt lat="45.92224" lon="2.80723">
        <ele>688</ele>
        <time>2015-10-18T06:15:25Z</time>
      </trkpt>
      <trkpt lat="45.92212" lon="2.80721">
        <ele>688</ele>
        <time>2015-10-18T06:17:25Z</time>
      </trkpt>
      <trkpt lat="45.92197" lon="2.80717">
        <ele>688</ele>
        <time>2015-10-18T06:19:25Z</time>
      </trkpt>
      <trkpt lat="45.92165" lon="2.80714">
        <ele>689</ele>
        <time>2015-10-18T06:21:25Z</time>
      </trkpt>
      <trkpt lat="45.92153" lon="2.80719">
        <ele>689</ele>
        <time>2015-10-18T06:23:25Z</time>
      </trkpt>
      <trkpt lat="45.92124" lon="2.80741">
        <ele>690</ele>
        <time>2015-10-18T06:25:25Z</time>
      </trkpt>
      <trkpt lat="45.92103" lon="2.80781">
        <ele>692</ele>
        <time>2015-10-18T06:27:25Z</time>
      </trkpt>
      <trkpt lat="45.92099" lon="2.80796">
        <ele>692</ele>
        <time>2015-10-18T06:29:25Z</time>
      </trkpt>
      <trkpt lat="45.92079" lon="2.80842">
        <ele>693</ele>
        <time>2015-10-18T06:31:25Z</time>
      </trkpt>
      <trkpt lat="45.92072" lon="2.80866">
        <ele>694</ele>
        <time>2015-10-18T06:33:25Z</time>
      </trkpt>
      <trkpt lat="45.92094" lon="2.8089">
        <ele>694</ele>
        <time>2015-10-18T06:35:25Z</time>
      </trkpt>
      <trkpt lat="45.92137" lon="2.8094">
        <ele>696</ele>
        <time>2015-10-18T06:37:25Z</time>
      </trkpt>
      <trkpt lat="45.92158" lon="2.80977">
        <ele>697</ele>
        <time>2015-10-18T06:39:25Z</time>
      </trkpt>
      <trkpt lat="45.92175" lon="2.80998">
        <ele>698</ele>
        <time>2015-10-18T06:41:25Z</time>
      </trkpt>
      <trkpt lat="45.92174" lon="2.81016">
        <ele>698</ele>
        <time>2015-10-18T06:43:25Z</time>
      </trkpt>
      <trkpt lat="45.92138" lon="2.81032">
        <ele>697</ele>
        <time>2015-10-18T06:45:25Z</time>
      </trkpt>
      <trkpt lat="45.92114" lon="2.81044">
        <ele>696</ele>
        <time>2015-10-18T06:47:25Z</time>
      </trkpt>
      <trkpt lat="45.92095" lon="2.81053">
        <ele>695</ele>
        <time>2015-10-18T06:49:25Z</time>
      </trkpt>
      <trkpt lat="45.92078" lon="2.81074">
        <ele>694</ele>
        <time>2015-10-18T06:51:25Z</time>
      </trkpt>
      <trkpt lat="45.92049" lon="2.81109">
        <ele>692</ele>
        <time>2015-10-18T06:53:25Z</time>
      </trkpt>
      <trkpt lat="45.92021" lon="2.81116">
        <ele>690</ele>
        <time>2015-10-18T06:55:25Z</time>
      </trkpt>
      <trkpt lat="45.92" lon="2.81127">
        <ele>688</ele>
        <time>2015-10-18T06:57:25Z</time>
      </trkpt>
      <trkpt lat="45.91963" lon="2.81147">
        <ele>684</ele>
        <time>2015-10-18T06:59:25Z</time>
      </trkpt>
      <trkpt lat="45.91936" lon="2.81156">
        <ele>680</ele>
        <time>2015-10-18T07:01:25Z</time>
      </trkpt>
      <trkpt lat="45.91911" lon="2.81178">
        <ele>676</ele>
        <time>2015-10-18T07:03:25Z</time>
      </trkpt>
      <trkpt lat="45.919" lon="2.81206">
        <ele>675</ele>
        <time>2015-10-18T07:05:25Z</time>
      </trkpt>
      <trkpt lat="45.91901" lon="2.81256">
        <ele>677</ele>
        <time>2015-10-18T07:07:25Z</time>
      </trkpt>
      <trkpt lat="45.91909" lon="2.81274">
        <ele>678</ele>
        <time>2015-10-18T07:09:25Z</time>
      </trkpt>
      <trkpt lat="45.91914" lon="2.813">
        <ele>678</ele>
        <time>2015-10-18T07:11:25Z</time>
      </trkpt>
      <trkpt lat="45.9192" lon="2.81317">
        <ele>678</ele>
        <time>2015-10-18T07:13:25Z</time>
      </trkpt>
      <trkpt lat="45.91933" lon="2.8134">
        <ele>679</ele>
        <time>2015-10-18T07:15:25Z</time>
      </trkpt>
      <trkpt lat="45.91944" lon="2.81347">
        <ele>680</ele>
        <time>2015-10-18T07:17:25Z</time>
      </trkpt>
      <trkpt lat="45.91965" lon="2.81377">
        <ele>683</ele>
        <time>2015-10-18T07:19:25Z</time>
      </trkpt>
      <trkpt lat="45.91977" lon="2.81392">
        <ele>684</ele>
        <time>2015-10-18T07:21:25Z</time>
      </trkpt>
      <trkpt lat="45.91997" lon="2.81404">
        <ele>688</ele>
        <time>2015-10-18T07:23:25Z</time>
      </trkpt>
      <trkpt lat="45.9202" lon="2.81418">
        <ele>689</ele>
        <time>2015-10-18T07:25:25Z</time>
      </trkpt>
      <trkpt lat="45.92029" lon="2.81418">
        <ele>689</ele>
        <time>2015-10-18T07:27:25Z</time>
      </trkpt>
      <trkpt lat="45.92048" lon="2.81427">
        <ele>689</ele>
        <time>2015-10-18T07:29:25Z</time>
      </trkpt>
      <trkpt lat="45.92082" lon="2.81441">
        <ele>691</ele>
        <time>2015-10-18T07:31:25Z</time>
      </trkpt>
      <trkpt lat="45.92094" lon="2.81447">
        <ele>692</ele>
        <time>2015-10-18T07:33:25Z</time>
      </trkpt>
      <trkpt lat="45.92122" lon="2.81463">
        <ele>693</ele>
        <time>2015-10-18T07:35:25Z</time>
      </trkpt>
      <trkpt lat="45.92141" lon="2.81473">
        <ele>695</ele>
        <time>2015-10-18T07:37:25Z</time>
      </trkpt>
      <trkpt lat="45.92158" lon="2.81477">
        <ele>696</ele>
        <time>2015-10-18T07:39:25Z</time>
      </trkpt>
      <trkpt lat="45.92167" lon="2.81484">
        <ele>696</ele>
        <time>2015-10-18T07:41:25Z</time>
      </trkpt>
      <trkpt lat="45.92178" lon="2.81485">
        <ele>697</ele>
        <time>2015-10-18T07:43:25Z</time>
      </trkpt>
      <trkpt lat="45.92166" lon="2.81501">
        <ele>696</ele>
        <time>2015-10-18T07:45:25Z</time>
      </trkpt>
      <trkpt lat="45.92137" lon="2.81502">
        <ele>694</ele>
        <time>2015-10-18T07:47:25Z</time>
      </trkpt>
      <trkpt lat="45.92125" lon="2.81507">
        <ele>693</ele>
        <time>2015-10-18T07:49:25Z</time>
      </trkpt>
      <trkpt lat="45.92116" lon="2.81516">
        <ele>692</ele>
        <time>2015-10-18T07:51:25Z</time>
      </trkpt>
      <trkpt lat="45.9211" lon="2.81535">
        <ele>692</ele>
        <time>2015-10-18T07:53:25Z</time>
      </trkpt>
      <trkpt lat="45.92101" lon="2.81551">
        <ele>691</ele>
        <time>2015-10-18T07:55:25Z</time>
      </trkpt>
      <trkpt lat="45.92091" lon="2.81589">
        <ele>690</ele>
        <time>2015-10-18T07:57:25Z</time>
      </trkpt>
      <trkpt lat="45.92091" lon="2.81647">
        <ele>688</ele>
        <time>2015-10-18T07:59:25Z</time>
      </trkpt>
      <trkpt lat="45.92093" lon="2.81688">
        <ele>687</ele>
        <time>2015-10-18T08:01:25Z</time>
      </trkpt>
      <trkpt lat="45.9209" lon="2.81706">
        <ele>687</ele>
        <time>2015-10-18T08:03:25Z</time>
      </trkpt>
      <trkpt lat="45.92085" lon="2.81723">
        <ele>686</ele>
        <time>2015-10-18T08:05:25Z</time>
      </trkpt>
      <trkpt lat="45.9207" lon="2.81737">
        <ele>686</ele>
        <time>2015-10-18T08:07:25Z</time>
      </trkpt>
      <trkpt lat="45.92044" lon="2.81731">
        <ele>686</ele>
        <time>2015-10-18T08:09:25Z</time>
      </trkpt>
      <trkpt lat="45.9203" lon="2.81727">
        <ele>686</ele>
        <time>2015-10-18T08:11:25Z</time>
      </trkpt>
      <trkpt lat="45.92018" lon="2.81725">
        <ele>685</ele>
        <time>2015-10-18T08:13:25Z</time>
      </trkpt>
      <trkpt lat="45.92006" lon="2.81723">
        <ele>685</ele>
        <time>2015-10-18T08:15:25Z</time>
      </trkpt>
      <trkpt lat="45.91982" lon="2.81724">
        <ele>687</ele>
        <time>2015-10-18T08:17:25Z</time>
      </trkpt>
      <trkpt lat="45.91963" lon="2.81727">
        <ele>689</ele>
        <time>2015-10-18T08:19:25Z</time>
      </trkpt>
      <trkpt lat="45.91945" lon="2.81734">
        <ele>690</ele>
        <time>2015-10-18T08:21:25Z</time>
      </trkpt>
      <trkpt lat="45.91915" lon="2.81749">
        <ele>693</ele>
        <time>2015-10-18T08:23:25Z</time>
      </trkpt>
      <trkpt lat="45.91901" lon="2.81756">
        <ele>694</ele>
        <time>2015-10-18T08:25:25Z</time>
      </trkpt>
      <trkpt lat="45.91859" lon="2.81764">
        <ele>696</ele>
        <time>2015-10-18T08:27:25Z</time>
      </trkpt>
      <trkpt lat="45.91843" lon="2.81767">
        <ele>697</ele>
        <time>2015-10-18T08:29:25Z</time>
      </trkpt>
      <trkpt lat="45.91828" lon="2.81769">
        <ele>698</ele>
        <time>2015-10-18T08:31:25Z</time>
      </trkpt>
      <trkpt lat="45.91809" lon="2.8177">
        <ele>699</ele>
        <time>2015-10-18T08:33:25Z</time>
      </trkpt>
      <trkpt lat="45.9179" lon="2.81757">
        <ele>700</ele>
        <time>2015-10-18T08:35:25Z</time>
      </trkpt>
      <trkpt lat="45.91774" lon="2.81737">
        <ele>701</ele>
        <time>2015-10-18T08:37:25Z</time>
      </trkpt>
      <trkpt lat="45.91761" lon="2.81707">
        <ele>702</ele>
        <time>2015-10-18T08:39:25Z</time>
      </trkpt>
      <trkpt lat="45.91742" lon="2.81674">
        <ele>703</ele>
        <time>2015-10-18T08:41:25Z</time>
      </trkpt>
      <trkpt lat="45.91691" lon="2.81601">
        <ele>701</ele>
        <time>2015-10-18T08:43:25Z</time>
      </trkpt>
      <trkpt lat="45.91676" lon="2.81587">
        <ele>701</ele>
        <time>2015-10-18T08:45:25Z</time>
      </trkpt>
      <trkpt lat="45.91655" lon="2.81589">
        <ele>701</ele>
        <time>2015-10-18T08:47:25Z</time>
      </trkpt>
      <trkpt lat="45.91637" lon="2.81585">
        <ele>702</ele>
        <time>2015-10-18T08:49:25Z</time>
      </trkpt>
      <trkpt lat="45.91611" lon="2.81573">
        <ele>702</ele>
        <time>2015-10-18T08:51:25Z</time>
      </trkpt>
      <trkpt lat="45.91584" lon="2.81559">
        <ele>701</ele>
        <time>2015-10-18T08:53:25Z</time>
      </trkpt>
      <trkpt lat="45.91568" lon="2.81548">
        <ele>701</ele>
        <time>2015-10-18T08:55:25Z</time>
      </trkpt>
      <trkpt lat="45.91536" lon="2.81539">
        <ele>701</ele>
        <time>2015-10-18T08:57:25Z</time>
      </trkpt>
      <trkpt lat="45.91523" lon="2.81519">
        <ele>701</ele>
        <time>2015-10-18T08:59:25Z</time>
      </trkpt>
      <trkpt lat="45.91501" lon="2.81488">
        <ele>700</ele>
        <time>2015-10-18T09:01:25Z</time>
      </trkpt>
      <trkpt lat="45.91474" lon="2.81469">
        <ele>699</ele>
        <time>2015-10-18T09:03:25Z</time>
      </trkpt>
      <trkpt lat="45.91423" lon="2.81415">
        <ele>699</ele>
        <time>2015-10-18T09:05:25Z</time>
      </trkpt>
      <trkpt lat="45.91382" lon="2.81369">
        <ele>698</ele>
        <time>2015-10-18T09:07:25Z</time>
      </trkpt>
      <trkpt lat="45.91346" lon="2.81325">
        <ele>698</ele>
        <time>2015-10-18T09:09:25Z</time>
      </trkpt>
      <trkpt lat="45.91328" lon="2.81295">
        <ele>697</ele>
        <time>2015-10-18T09:11:25Z</time>
      </trkpt>
      <trkpt lat="45.91316" lon="2.81268">
        <ele>697</ele>
        <time>2015-10-18T09:13:25Z</time>
      </trkpt>
      <trkpt lat="45.91308" lon="2.81254">
        <ele>696</ele>
        <time>2015-10-18T09:15:25Z</time>
      </trkpt>
      <trkpt lat="45.91299" lon="2.81224">
        <ele>695</ele>
        <time>2015-10-18T09:17:25Z</time>
      </trkpt>
      <trkpt lat="45.9129" lon="2.81182">
        <ele>695</ele>
        <time>2015-10-18T09:19:25Z</time>
      </trkpt>
      <trkpt lat="45.91278" lon="2.81151">
        <ele>693</ele>
        <time>2015-10-18T09:21:25Z</time>
      </trkpt>
      <trkpt lat="45.91265" lon="2.8112">
        <ele>691</ele>
        <time>2015-10-18T09:23:25Z</time>
      </trkpt>
      <trkpt lat="45.91233" lon="2.81094">
        <ele>688</ele>
        <time>2015-10-18T09:25:25Z</time>
      </trkpt>
      <trkpt lat="45.91198" lon="2.81108">
        <ele>683</ele>
        <time>2015-10-18T09:27:25Z</time>
      </trkpt>
      <trkpt lat="45.91181" lon="2.81125">
        <ele>680</ele>
        <time>2015-10-18T09:29:25Z</time>
      </trkpt>
      <trkpt lat="45.91173" lon="2.81139">
        <ele>679</ele>
        <time>2015-10-18T09:31:25Z</time>
      </trkpt>
      <trkpt lat="45.91152" lon="2.81177">
        <ele>672</ele>
        <time>2015-10-18T09:33:25Z</time>
      </trkpt>
      <trkpt lat="45.91152" lon="2.81254">
        <ele>669</ele>
        <time>2015-10-18T09:35:25Z</time>
      </trkpt>
      <trkpt lat="45.9115" lon="2.81298">
        <ele>669</ele>
        <time>2015-10-18T09:37:25Z</time>
      </trkpt>
      <trkpt lat="45.91149" lon="2.81326">
        <ele>670</ele>
        <time>2015-10-18T09:39:25Z</time>
      </trkpt>
      <trkpt lat="45.91141" lon="2.8142">
        <ele>670</ele>
        <time>2015-10-18T09:41:25Z</time>
      </trkpt>
      <trkpt lat="45.91143" lon="2.81458">
        <ele>669</ele>
        <time>2015-10-18T09:43:25Z</time>
      </trkpt>
      <trkpt lat="45.91159" lon="2.81508">
        <ele>668</ele>
        <time>2015-10-18T09:45:25Z</time>
      </trkpt>
      <trkpt lat="45.91165" lon="2.81526">
        <ele>668</ele>
        <time>2015-10-18T09:47:25Z</time>
      </trkpt>
      <trkpt lat="45.91159" lon="2.81542">
        <ele>667</ele>
        <time>2015-10-18T09:49:25Z</time>
      </trkpt>
      <trkpt lat="45.91152" lon="2.81559">
        <ele>666</ele>
        <time>2015-10-18T09:51:25Z</time>
      </trkpt>
      <trkpt lat="45.91146" lon="2.81572">
        <ele>665</ele>
        <time>2015-10-18T09:53:25Z</time>
      </trkpt>
      <trkpt lat="45.91141" lon="2.81587">
        <ele>665</ele>
        <time>2015-10-18T09:55:25Z</time>
      </trkpt>
      <trkpt lat="45.91133" lon="2.81587">
        <ele>665</ele>
        <time>2015-10-18T09:57:25Z</time>
      </trkpt>
      <trkpt lat="45.91124" lon="2.81565">
        <ele>664</ele>
        <time>2015-10-18T09:59:25Z</time>
      </trkpt>
      <trkpt lat="45.91114" lon="2.81558">
        <ele>664</ele>
        <time>2015-10-18T10:01:25Z</time>
      </trkpt>
      <trkpt lat="45.91102" lon="2.81547">
        <ele>662</ele>
        <time>2015-10-18T10:03:25Z</time>
      </trkpt>
      <trkpt lat="45.91091" lon="2.81537">
        <ele>661</ele>
        <time>2015-10-18T10:05:25Z</time>
      </trkpt>
      <trkpt lat="45.91077" lon="2.81528">
        <ele>660</ele>
        <time>2015-10-18T10:07:25Z</time>
      </trkpt>
      <trkpt lat="45.91066" lon="2.81522">
        <ele>662</ele>
        <time>2015-10-18T10:09:25Z</time>
      </trkpt>
      <trkpt lat="45.91054" lon="2.81517">
        <ele>663</ele>
        <time>2015-10-18T10:11:25Z</time>
      </trkpt>
      <trkpt lat="45.91046" lon="2.81513">
        <ele>664</ele>
        <time>2015-10-18T10:13:25Z</time>
      </trkpt>
      <trkpt lat="45.91036" lon="2.81504">
        <ele>665</ele>
        <time>2015-10-18T10:15:25Z</time>
      </trkpt>
      <trkpt lat="45.91034" lon="2.81487">
        <ele>665</ele>
        <time>2015-10-18T10:17:25Z</time>
      </trkpt>
      <trkpt lat="45.91031" lon="2.81432">
        <ele>663</ele>
        <time>2015-10-18T10:19:25Z</time>
      </trkpt>
      <trkpt lat="45.91025" lon="2.81375">
        <ele>661</ele>
        <time>2015-10-18T10:21:25Z</time>
      </trkpt>
      <trkpt lat="45.91024" lon="2.81348">
        <ele>659</ele>
        <time>2015-10-18T10:23:25Z</time>
      </trkpt>
      <trkpt lat="45.91025" lon="2.81304">
        <ele>655</ele>
        <time>2015-10-18T10:25:25Z</time>
      </trkpt>
      <trkpt lat="45.9102" lon="2.81289">
        <ele>654</ele>
        <time>2015-10-18T10:27:25Z</time>
      </trkpt>
      <trkpt lat="45.91011" lon="2.81271">
        <ele>652</ele>
        <time>2015-10-18T10:29:25Z</time>
      </trkpt>
      <trkpt lat="45.91006" lon="2.81224">
        <ele>648</ele>
        <time>2015-10-18T10:31:25Z</time>
      </trkpt>
      <trkpt lat="45.91001" lon="2.81213">
        <ele>646</ele>
        <time>2015-10-18T10:33:25Z</time>
      </trkpt>
      <trkpt lat="45.90995" lon="2.81194">
        <ele>646</ele>
        <time>2015-10-18T10:35:25Z</time>
      </trkpt>
      <trkpt lat="45.90988" lon="2.8119">
        <ele>648</ele>
        <time>2015-10-18T10:37:25Z</time>
      </trkpt>
      <trkpt lat="45.90974" lon="2.81189">
        <ele>651</ele>
        <time>2015-10-18T10:39:25Z</time>
      </trkpt>
      <trkpt lat="45.90961" lon="2.81189">
        <ele>655</ele>
        <time>2015-10-18T10:41:25Z</time>
      </trkpt>
      <trkpt lat="45.90943" lon="2.81177">
        <ele>660</ele>
        <time>2015-10-18T10:43:25Z</time>
      </trkpt>
      <trkpt lat="45.90946" lon="2.81152">
        <ele>659</ele>
        <time>2015-10-18T10:45:25Z</time>
      </trkpt>
      <trkpt lat="45.90951" lon="2.81127">
        <ele>659</ele>
        <time>2015-10-18T10:47:25Z</time>
      </trkpt>
      <trkpt lat="45.90952" lon="2.81118">
        <ele>658</ele>
        <time>2015-10-18T10:49:25Z</time>
      </trkpt>
      <trkpt lat="45.90955" lon="2.81104">
        <ele>658</ele>
        <time>2015-10-18T10:51:25Z</time>
      </trkpt>
      <trkpt lat="45.90957" lon="2.81083">
        <ele>658</ele>
        <time>2015-10-18T10:53:25Z</time>
      </trkpt>
      <trkpt lat="45.90958" lon="2.81062">
        <ele>658</ele>
        <time>2015-10-18T10:55:25Z</time>
      </trkpt>
      <trkpt lat="45.90957" lon="2.81047">
        <ele>658</ele>
        <time>2015-10-18T10:57:25Z</time>
      </trkpt>
      <trkpt lat="45.90954" lon="2.8102">
        <ele>660</ele>
        <time>2015-10-18T10:59:25Z</time>
      </trkpt>
      <trkpt lat="45.90945" lon="2.81004">
        <ele>663</ele>
        <time>2015-10-18T11:01:25Z</time>
      </trkpt>
      <trkpt lat="45.90936" lon="2.8098">
        <ele>663</ele>
        <time>2015-10-18T11:03:25Z</time>
      </trkpt>
      <trkpt lat="45.9091" lon="2.80965">
        <ele>669</ele>
        <time>2015-10-18T11:05:25Z</time>
      </trkpt>
      <trkpt lat="45.90898" lon="2.80961">
        <ele>671</ele>
        <time>2015-10-18T11:07:25Z</time>
      </trkpt>
      <trkpt lat="45.90877" lon="2.80941">
        <ele>672</ele>
        <time>2015-10-18T11:09:25Z</time>
      </trkpt>
      <trkpt lat="45.90866" lon="2.80925">
        <ele>672</ele>
        <time>2015-10-18T11:11:25Z</time>
      </trkpt>
      <trkpt lat="45.90854" lon="2.8092">
        <ele>674</ele>
        <time>2015-10-18T11:13:25Z</time>
      </trkpt>
      <trkpt lat="45.90825" lon="2.80925">
        <ele>675</ele>
        <time>2015-10-18T11:15:25Z</time>
      </trkpt>
      <trkpt lat="45.90806" lon="2.80957">
        <ele>673</ele>
        <time>2015-10-18T11:17:25Z</time>
      </trkpt>
      <trkpt lat="45.90802" lon="2.80974">
        <ele>673</ele>
        <time>2015-10-18T11:19:25Z</time>
      </trkpt>
      <trkpt lat="45.90804" lon="2.8099">
        <ele>674</ele>
        <time>2015-10-18T11:21:25Z</time>
      </trkpt>
      <trkpt lat="45.90819" lon="2.81011">
        <ele>678</ele>
        <time>2015-10-18T11:23:25Z</time>
      </trkpt>
      <trkpt lat="45.9084" lon="2.81009">
        <ele>679</ele>
        <time>2015-10-18T11:25:25Z</time>
      </trkpt>
    </trkseg>
  </trk>
  <trk>
    <name><![CDATA[--Charbonnières-les-Vieilles-- OR-5377407:ser-jb06-b]]></name>
    <trkseg>
      <trkpt lat="45.99634" lon="2.99659">
        <ele>617</ele>
        <time>2015-10-18T19:26:12Z</time>
      </trkpt>
      <trkpt lat="45.99646" lon="2.9967">
        <ele>617</ele>
        <time>2015-10-18T19:28:12Z</time>
      </trkpt>
      <trkpt lat="45.99658" lon="2.99649">
        <ele>618</ele>
        <time>2015-10-18T19:30:12Z</time>
      </trkpt>
      <trkpt lat="45.99664" lon="2.99631">
        <ele>618</ele>
        <time>2015-10-18T19:32:12Z</time>
      </trkpt>
      <trkpt lat="45.99669" lon="2.99597">
        <ele>619</ele>
        <time>2015-10-18T19:34:12Z</time>
      </trkpt>
      <trkpt lat="45.99671" lon="2.99568">
        <ele>620</ele>
        <time>2015-10-18T19:36:12Z</time>
      </trkpt>
      <trkpt lat="45.99674" lon="2.99533">
        <ele>619</ele>
        <time>2015-10-18T19:38:12Z</time>
      </trkpt>
      <trkpt lat="45.99675" lon="2.99508">
        <ele>618</ele>
        <time>2015-10-18T19:40:12Z</time>
      </trkpt>
      <trkpt lat="45.99689" lon="2.99445">
        <ele>618</ele>
        <time>2015-10-18T19:42:12Z</time>
      </trkpt>
      <trkpt lat="45.997" lon="2.99407">
        <ele>618</ele>
        <time>2015-10-18T19:44:12Z</time>
      </trkpt>
      <trkpt lat="45.99721" lon="2.99309">
        <ele>618</ele>
        <time>2015-10-18T19:46:12Z</time>
      </trkpt>
      <trkpt lat="45.99762" lon="2.9917">
        <ele>618</ele>
        <time>2015-10-18T19:48:12Z</time>
      </trkpt>
      <trkpt lat="45.99776" lon="2.99103">
        <ele>618</ele>
        <time>2015-10-18T19:50:12Z</time>
      </trkpt>
      <trkpt lat="45.99767" lon="2.99052">
        <ele>615</ele>
        <time>2015-10-18T19:52:12Z</time>
      </trkpt>
      <trkpt lat="45.99758" lon="2.99016">
        <ele>611</ele>
        <time>2015-10-18T19:54:12Z</time>
      </trkpt>
      <trkpt lat="45.99753" lon="2.98993">
        <ele>610</ele>
        <time>2015-10-18T19:56:12Z</time>
      </trkpt>
      <trkpt lat="45.99752" lon="2.98951">
        <ele>607</ele>
        <time>2015-10-18T19:58:12Z</time>
      </trkpt>
      <trkpt lat="45.99757" lon="2.98937">
        <ele>606</ele>
        <time>2015-10-18T20:00:12Z</time>
      </trkpt>
      <trkpt lat="45.99772" lon="2.98903">
        <ele>602</ele>
        <time>2015-10-18T20:02:12Z</time>
      </trkpt>
      <trkpt lat="45.99785" lon="2.98879">
        <ele>599</ele>
        <time>2015-10-18T20:04:12Z</time>
      </trkpt>
      <trkpt lat="45.99799" lon="2.98857">
        <ele>597</ele>
        <time>2015-10-18T20:06:12Z</time>
      </trkpt>
      <trkpt lat="45.99808" lon="2.98844">
        <ele>595</ele>
        <time>2015-10-18T20:08:12Z</time>
      </trkpt>
      <trkpt lat="45.99807" lon="2.98805">
        <ele>590</ele>
        <time>2015-10-18T20:10:12Z</time>
      </trkpt>
      <trkpt lat="45.99811" lon="2.9879">
        <ele>589</ele>
        <time>2015-10-18T20:12:12Z</time>
      </trkpt>
      <trkpt lat="45.99847" lon="2.98767">
        <ele>586</ele>
        <time>2015-10-18T20:14:12Z</time>
      </trkpt>
      <trkpt lat="45.99888" lon="2.98728">
        <ele>578</ele>
        <time>2015-10-18T20:16:12Z</time>
      </trkpt>
      <trkpt lat="45.99904" lon="2.98697">
        <ele>572</ele>
        <time>2015-10-18T20:18:12Z</time>
      </trkpt>
      <trkpt lat="45.99952" lon="2.98666">
        <ele>565</ele>
        <time>2015-10-18T20:20:12Z</time>
      </trkpt>
      <trkpt lat="45.99987" lon="2.98633">
        <ele>560</ele>
        <time>2015-10-18T20:22:12Z</time>
      </trkpt>
      <trkpt lat="46.00013" lon="2.98609">
        <ele>554</ele>
        <time>2015-10-18T20:24:12Z</time>
      </trkpt>
      <trkpt lat="46.00054" lon="2.98561">
        <ele>540</ele>
        <time>2015-10-18T20:26:12Z</time>
      </trkpt>
      <trkpt lat="46.00009" lon="2.98461">
        <ele>531</ele>
        <time>2015-10-18T20:28:12Z</time>
      </trkpt>
      <trkpt lat="45.99969" lon="2.98402">
        <ele>524</ele>
        <time>2015-10-18T20:30:12Z</time>
      </trkpt>
      <trkpt lat="45.9998" lon="2.98394">
        <ele>522</ele>
        <time>2015-10-18T20:32:12Z</time>
      </trkpt>
      <trkpt lat="46.00013" lon="2.98397">
        <ele>520</ele>
        <time>2015-10-18T20:34:12Z</time>
      </trkpt>
      <trkpt lat="46.00048" lon="2.98399">
        <ele>517</ele>
        <time>2015-10-18T20:36:12Z</time>
      </trkpt>
      <trkpt lat="46.00076" lon="2.98397">
        <ele>514</ele>
        <time>2015-10-18T20:38:12Z</time>
      </trkpt>
      <trkpt lat="46.00098" lon="2.98397">
        <ele>512</ele>
        <time>2015-10-18T20:40:12Z</time>
      </trkpt>
      <trkpt lat="46.00168" lon="2.98379">
        <ele>506</ele>
        <time>2015-10-18T20:42:12Z</time>
      </trkpt>
      <trkpt lat="46.00192" lon="2.98382">
        <ele>509</ele>
        <time>2015-10-18T20:44:12Z</time>
      </trkpt>
      <trkpt lat="46.00202" lon="2.98385">
        <ele>510</ele>
        <time>2015-10-18T20:46:12Z</time>
      </trkpt>
      <trkpt lat="46.00221" lon="2.98369">
        <ele>514</ele>
        <time>2015-10-18T20:48:12Z</time>
      </trkpt>
      <trkpt lat="46.00236" lon="2.98384">
        <ele>513</ele>
        <time>2015-10-18T20:50:12Z</time>
      </trkpt>
      <trkpt lat="46.00247" lon="2.98401">
        <ele>512</ele>
        <time>2015-10-18T20:52:12Z</time>
      </trkpt>
      <trkpt lat="46.00256" lon="2.98428">
        <ele>510</ele>
        <time>2015-10-18T20:54:12Z</time>
      </trkpt>
      <trkpt lat="46.00267" lon="2.98444">
        <ele>511</ele>
        <time>2015-10-18T20:56:12Z</time>
      </trkpt>
      <trkpt lat="46.00335" lon="2.98494">
        <ele>512</ele>
        <time>2015-10-18T20:58:12Z</time>
      </trkpt>
      <trkpt lat="46.00364" lon="2.985">
        <ele>517</ele>
        <time>2015-10-18T21:00:12Z</time>
      </trkpt>
      <trkpt lat="46.00386" lon="2.98529">
        <ele>517</ele>
        <time>2015-10-18T21:02:12Z</time>
      </trkpt>
      <trkpt lat="46.00397" lon="2.98537">
        <ele>518</ele>
        <time>2015-10-18T21:04:12Z</time>
      </trkpt>
      <trkpt lat="46.004" lon="2.98565">
        <ele>514</ele>
        <time>2015-10-18T21:06:12Z</time>
      </trkpt>
      <trkpt lat="46.00431" lon="2.98597">
        <ele>514</ele>
        <time>2015-10-18T21:08:12Z</time>
      </trkpt>
      <trkpt lat="46.00456" lon="2.98619">
        <ele>514</ele>
        <time>2015-10-18T21:10:12Z</time>
      </trkpt>
      <trkpt lat="46.00472" lon="2.98632">
        <ele>514</ele>
        <time>2015-10-18T21:12:12Z</time>
      </trkpt>
      <trkpt lat="46.00505" lon="2.98652">
        <ele>512</ele>
        <time>2015-10-18T21:14:12Z</time>
      </trkpt>
      <trkpt lat="46.00516" lon="2.98651">
        <ele>513</ele>
        <time>2015-10-18T21:16:12Z</time>
      </trkpt>
      <trkpt lat="46.00526" lon="2.98647">
        <ele>515</ele>
        <time>2015-10-18T21:18:12Z</time>
      </trkpt>
      <trkpt lat="46.00535" lon="2.98647">
        <ele>516</ele>
        <time>2015-10-18T21:20:12Z</time>
      </trkpt>
      <trkpt lat="46.00548" lon="2.98655">
        <ele>515</ele>
        <time>2015-10-18T21:22:12Z</time>
      </trkpt>
      <trkpt lat="46.00564" lon="2.98659">
        <ele>516</ele>
        <time>2015-10-18T21:24:12Z</time>
      </trkpt>
      <trkpt lat="46.00576" lon="2.98664">
        <ele>517</ele>
        <time>2015-10-18T21:26:12Z</time>
      </trkpt>
      <trkpt lat="46.006" lon="2.98689">
        <ele>518</ele>
        <time>2015-10-18T21:28:12Z</time>
      </trkpt>
      <trkpt lat="46.0063" lon="2.98726">
        <ele>518</ele>
        <time>2015-10-18T21:30:12Z</time>
      </trkpt>
      <trkpt lat="46.00642" lon="2.98741">
        <ele>516</ele>
        <time>2015-10-18T21:32:12Z</time>
      </trkpt>
      <trkpt lat="46.0066" lon="2.98774">
        <ele>517</ele>
        <time>2015-10-18T21:34:12Z</time>
      </trkpt>
      <trkpt lat="46.0068" lon="2.9881">
        <ele>517</ele>
        <time>2015-10-18T21:36:12Z</time>
      </trkpt>
      <trkpt lat="46.00701" lon="2.9882">
        <ele>515</ele>
        <time>2015-10-18T21:38:12Z</time>
      </trkpt>
      <trkpt lat="46.00717" lon="2.98829">
        <ele>513</ele>
        <time>2015-10-18T21:40:12Z</time>
      </trkpt>
      <trkpt lat="46.00751" lon="2.98821">
        <ele>512</ele>
        <time>2015-10-18T21:42:12Z</time>
      </trkpt>
      <trkpt lat="46.00766" lon="2.9883">
        <ele>510</ele>
        <time>2015-10-18T21:44:12Z</time>
      </trkpt>
      <trkpt lat="46.00783" lon="2.98839">
        <ele>510</ele>
        <time>2015-10-18T21:46:12Z</time>
      </trkpt>
      <trkpt lat="46.00804" lon="2.98832">
        <ele>509</ele>
        <time>2015-10-18T21:48:12Z</time>
      </trkpt>
      <trkpt lat="46.00818" lon="2.98826">
        <ele>510</ele>
        <time>2015-10-18T21:50:12Z</time>
      </trkpt>
      <trkpt lat="46.00838" lon="2.98815">
        <ele>513</ele>
        <time>2015-10-18T21:52:12Z</time>
      </trkpt>
      <trkpt lat="46.0085" lon="2.98803">
        <ele>516</ele>
        <time>2015-10-18T21:54:12Z</time>
      </trkpt>
      <trkpt lat="46.0087" lon="2.98787">
        <ele>521</ele>
        <time>2015-10-18T21:56:12Z</time>
      </trkpt>
      <trkpt lat="46.00886" lon="2.98783">
        <ele>522</ele>
        <time>2015-10-18T21:58:12Z</time>
      </trkpt>
      <trkpt lat="46.0094" lon="2.988">
        <ele>521</ele>
        <time>2015-10-18T22:00:12Z</time>
      </trkpt>
      <trkpt lat="46.00961" lon="2.98808">
        <ele>521</ele>
        <time>2015-10-18T22:02:12Z</time>
      </trkpt>
      <trkpt lat="46.00991" lon="2.98833">
        <ele>517</ele>
        <time>2015-10-18T22:04:12Z</time>
      </trkpt>
      <trkpt lat="46.01022" lon="2.98857">
        <ele>517</ele>
        <time>2015-10-18T22:06:12Z</time>
      </trkpt>
      <trkpt lat="46.01043" lon="2.98864">
        <ele>518</ele>
        <time>2015-10-18T22:08:12Z</time>
      </trkpt>
      <trkpt lat="46.01068" lon="2.98864">
        <ele>519</ele>
        <time>2015-10-18T22:10:12Z</time>
      </trkpt>
      <trkpt lat="46.01087" lon="2.98869">
        <ele>520</ele>
        <time>2015-10-18T22:12:12Z</time>
      </trkpt>
      <trkpt lat="46.01128" lon="2.98898">
        <ele>525</ele>
        <time>2015-10-18T22:14:12Z</time>
      </trkpt>
      <trkpt lat="46.01152" lon="2.98915">
        <ele>528</ele>
        <time>2015-10-18T22:16:12Z</time>
      </trkpt>
      <trkpt lat="46.01174" lon="2.98935">
        <ele>528</ele>
        <time>2015-10-18T22:18:12Z</time>
      </trkpt>
      <trkpt lat="46.01186" lon="2.98964">
        <ele>525</ele>
        <time>2015-10-18T22:20:12Z</time>
      </trkpt>
      <trkpt lat="46.01203" lon="2.99032">
        <ele>519</ele>
        <time>2015-10-18T22:22:12Z</time>
      </trkpt>
      <trkpt lat="46.0122" lon="2.99049">
        <ele>522</ele>
        <time>2015-10-18T22:24:12Z</time>
      </trkpt>
      <trkpt lat="46.01215" lon="2.99067">
        <ele>520</ele>
        <time>2015-10-18T22:26:12Z</time>
      </trkpt>
      <trkpt lat="46.0119" lon="2.99093">
        <ele>512</ele>
        <time>2015-10-18T22:28:12Z</time>
      </trkpt>
      <trkpt lat="46.01179" lon="2.99121">
        <ele>509</ele>
        <time>2015-10-18T22:30:12Z</time>
      </trkpt>
      <trkpt lat="46.01183" lon="2.99154">
        <ele>510</ele>
        <time>2015-10-18T22:32:12Z</time>
      </trkpt>
      <trkpt lat="46.01186" lon="2.9917">
        <ele>510</ele>
        <time>2015-10-18T22:34:12Z</time>
      </trkpt>
      <trkpt lat="46.01193" lon="2.99199">
        <ele>509</ele>
        <time>2015-10-18T22:36:12Z</time>
      </trkpt>
      <trkpt lat="46.01211" lon="2.99236">
        <ele>509</ele>
        <time>2015-10-18T22:38:12Z</time>
      </trkpt>
      <trkpt lat="46.0123" lon="2.99276">
        <ele>509</ele>
        <time>2015-10-18T22:40:12Z</time>
      </trkpt>
      <trkpt lat="46.01267" lon="2.99346">
        <ele>508</ele>
        <time>2015-10-18T22:42:12Z</time>
      </trkpt>
      <trkpt lat="46.01267" lon="2.99405">
        <ele>506</ele>
        <time>2015-10-18T22:44:12Z</time>
      </trkpt>
      <trkpt lat="46.01259" lon="2.99457">
        <ele>502</ele>
        <time>2015-10-18T22:46:12Z</time>
      </trkpt>
      <trkpt lat="46.01251" lon="2.99482">
        <ele>499</ele>
        <time>2015-10-18T22:48:12Z</time>
      </trkpt>
      <trkpt lat="46.01274" lon="2.99535">
        <ele>505</ele>
        <time>2015-10-18T22:50:12Z</time>
      </trkpt>
      <trkpt lat="46.01289" lon="2.99597">
        <ele>504</ele>
        <time>2015-10-18T22:52:12Z</time>
      </trkpt>
      <trkpt lat="46.01297" lon="2.99643">
        <ele>500</ele>
        <time>2015-10-18T22:54:12Z</time>
      </trkpt>
      <trkpt lat="46.01317" lon="2.99685">
        <ele>498</ele>
        <time>2015-10-18T22:56:12Z</time>
      </trkpt>
      <trkpt lat="46.01341" lon="2.99732">
        <ele>496</ele>
        <time>2015-10-18T22:58:12Z</time>
      </trkpt>
      <trkpt lat="46.01329" lon="2.99769">
        <ele>490</ele>
        <time>2015-10-18T23:00:12Z</time>
      </trkpt>
      <trkpt lat="46.01321" lon="2.99804">
        <ele>489</ele>
        <time>2015-10-18T23:02:12Z</time>
      </trkpt>
      <trkpt lat="46.01326" lon="2.9983">
        <ele>488</ele>
        <time>2015-10-18T23:04:12Z</time>
      </trkpt>
      <trkpt lat="46.01343" lon="2.99855">
        <ele>489</ele>
        <time>2015-10-18T23:06:12Z</time>
      </trkpt>
      <trkpt lat="46.01341" lon="2.99886">
        <ele>488</ele>
        <time>2015-10-18T23:08:12Z</time>
      </trkpt>
      <trkpt lat="46.01321" lon="2.99905">
        <ele>487</ele>
        <time>2015-10-18T23:10:12Z</time>
      </trkpt>
      <trkpt lat="46.01301" lon="2.99915">
        <ele>489</ele>
        <time>2015-10-18T23:12:12Z</time>
      </trkpt>
      <trkpt lat="46.01275" lon="2.99917">
        <ele>491</ele>
        <time>2015-10-18T23:14:12Z</time>
      </trkpt>
      <trkpt lat="46.01259" lon="2.99902">
        <ele>492</ele>
        <time>2015-10-18T23:16:12Z</time>
      </trkpt>
      <trkpt lat="46.01242" lon="2.99888">
        <ele>495</ele>
        <time>2015-10-18T23:18:12Z</time>
      </trkpt>
      <trkpt lat="46.01229" lon="2.99877">
        <ele>499</ele>
        <time>2015-10-18T23:20:12Z</time>
      </trkpt>
      <trkpt lat="46.01209" lon="2.99881">
        <ele>506</ele>
        <time>2015-10-18T23:22:12Z</time>
      </trkpt>
      <trkpt lat="46.01192" lon="2.99894">
        <ele>511</ele>
        <time>2015-10-18T23:24:12Z</time>
      </trkpt>
      <trkpt lat="46.0118" lon="2.99916">
        <ele>515</ele>
        <time>2015-10-18T23:26:12Z</time>
      </trkpt>
      <trkpt lat="46.01183" lon="2.99943">
        <ele>514</ele>
        <time>2015-10-18T23:28:12Z</time>
      </trkpt>
      <trkpt lat="46.01186" lon="2.99983">
        <ele>512</ele>
        <time>2015-10-18T23:30:12Z</time>
      </trkpt>
      <trkpt lat="46.01188" lon="2.99998">
        <ele>512</ele>
        <time>2015-10-18T23:32:12Z</time>
      </trkpt>
      <trkpt lat="46.01172" lon="3.00021">
        <ele>514</ele>
        <time>2015-10-18T23:34:12Z</time>
      </trkpt>
      <trkpt lat="46.01146" lon="3.00027">
        <ele>517</ele>
        <time>2015-10-18T23:36:12Z</time>
      </trkpt>
      <trkpt lat="46.01136" lon="2.99996">
        <ele>519</ele>
        <time>2015-10-18T23:38:12Z</time>
      </trkpt>
      <trkpt lat="46.01134" lon="2.9996">
        <ele>522</ele>
        <time>2015-10-18T23:40:12Z</time>
      </trkpt>
      <trkpt lat="46.01127" lon="2.99923">
        <ele>525</ele>
        <time>2015-10-18T23:42:12Z</time>
      </trkpt>
      <trkpt lat="46.01117" lon="2.99889">
        <ele>528</ele>
        <time>2015-10-18T23:44:12Z</time>
      </trkpt>
      <trkpt lat="46.01108" lon="2.99855">
        <ele>533</ele>
        <time>2015-10-18T23:46:12Z</time>
      </trkpt>
      <trkpt lat="46.01096" lon="2.99827">
        <ele>537</ele>
        <time>2015-10-18T23:48:12Z</time>
      </trkpt>
      <trkpt lat="46.01085" lon="2.99806">
        <ele>541</ele>
        <time>2015-10-18T23:50:12Z</time>
      </trkpt>
      <trkpt lat="46.01061" lon="2.99785">
        <ele>542</ele>
        <time>2015-10-18T23:52:12Z</time>
      </trkpt>
      <trkpt lat="46.0104" lon="2.9977">
        <ele>544</ele>
        <time>2015-10-18T23:54:12Z</time>
      </trkpt>
      <trkpt lat="46.01019" lon="2.99754">
        <ele>546</ele>
        <time>2015-10-18T23:56:12Z</time>
      </trkpt>
      <trkpt lat="46.00993" lon="2.99714">
        <ele>551</ele>
        <time>2015-10-18T23:58:12Z</time>
      </trkpt>
      <trkpt lat="46.0096" lon="2.99675">
        <ele>557</ele>
        <time>2015-10-19T00:00:12Z</time>
      </trkpt>
      <trkpt lat="46.00942" lon="2.99647">
        <ele>562</ele>
        <time>2015-10-19T00:02:12Z</time>
      </trkpt>
      <trkpt lat="46.00927" lon="2.99613">
        <ele>568</ele>
        <time>2015-10-19T00:04:12Z</time>
      </trkpt>
      <trkpt lat="46.00905" lon="2.99601">
        <ele>571</ele>
        <time>2015-10-19T00:06:12Z</time>
      </trkpt>
      <trkpt lat="46.00863" lon="2.99601">
        <ele>574</ele>
        <time>2015-10-19T00:08:12Z</time>
      </trkpt>
      <trkpt lat="46.00846" lon="2.99613">
        <ele>573</ele>
        <time>2015-10-19T00:10:12Z</time>
      </trkpt>
      <trkpt lat="46.00824" lon="2.99623">
        <ele>571</ele>
        <time>2015-10-19T00:12:12Z</time>
      </trkpt>
      <trkpt lat="46.008" lon="2.99614">
        <ele>570</ele>
        <time>2015-10-19T00:14:12Z</time>
      </trkpt>
      <trkpt lat="46.00734" lon="2.9955">
        <ele>575</ele>
        <time>2015-10-19T00:16:12Z</time>
      </trkpt>
      <trkpt lat="46.00715" lon="2.9953">
        <ele>578</ele>
        <time>2015-10-19T00:18:12Z</time>
      </trkpt>
      <trkpt lat="46.00696" lon="2.99518">
        <ele>579</ele>
        <time>2015-10-19T00:20:12Z</time>
      </trkpt>
      <trkpt lat="46.00657" lon="2.9952">
        <ele>579</ele>
        <time>2015-10-19T00:22:12Z</time>
      </trkpt>
      <trkpt lat="46.00622" lon="2.99521">
        <ele>581</ele>
        <time>2015-10-19T00:24:12Z</time>
      </trkpt>
      <trkpt lat="46.00612" lon="2.99516">
        <ele>582</ele>
        <time>2015-10-19T00:26:12Z</time>
      </trkpt>
      <trkpt lat="46.00584" lon="2.99513">
        <ele>584</ele>
        <time>2015-10-19T00:28:12Z</time>
      </trkpt>
      <trkpt lat="46.00559" lon="2.99521">
        <ele>584</ele>
        <time>2015-10-19T00:30:12Z</time>
      </trkpt>
      <trkpt lat="46.00534" lon="2.99541">
        <ele>584</ele>
        <time>2015-10-19T00:32:12Z</time>
      </trkpt>
      <trkpt lat="46.00481" lon="2.9958">
        <ele>583</ele>
        <time>2015-10-19T00:34:12Z</time>
      </trkpt>
      <trkpt lat="46.00458" lon="2.99593">
        <ele>582</ele>
        <time>2015-10-19T00:36:12Z</time>
      </trkpt>
      <trkpt lat="46.00435" lon="2.99584">
        <ele>583</ele>
        <time>2015-10-19T00:38:12Z</time>
      </trkpt>
      <trkpt lat="46.00412" lon="2.99585">
        <ele>583</ele>
        <time>2015-10-19T00:40:12Z</time>
      </trkpt>
      <trkpt lat="46.00391" lon="2.99589">
        <ele>583</ele>
        <time>2015-10-19T00:42:12Z</time>
      </trkpt>
      <trkpt lat="46.00361" lon="2.99566">
        <ele>586</ele>
        <time>2015-10-19T00:44:12Z</time>
      </trkpt>
      <trkpt lat="46.00344" lon="2.99555">
        <ele>588</ele>
        <time>2015-10-19T00:46:12Z</time>
      </trkpt>
      <trkpt lat="46.00331" lon="2.99569">
        <ele>587</ele>
        <time>2015-10-19T00:48:12Z</time>
      </trkpt>
      <trkpt lat="46.00314" lon="2.99582">
        <ele>586</ele>
        <time>2015-10-19T00:50:12Z</time>
      </trkpt>
      <trkpt lat="46.0029" lon="2.99605">
        <ele>585</ele>
        <time>2015-10-19T00:52:12Z</time>
      </trkpt>
      <trkpt lat="46.00291" lon="2.99633">
        <ele>585</ele>
        <time>2015-10-19T00:54:12Z</time>
      </trkpt>
      <trkpt lat="46.00301" lon="2.9966">
        <ele>583</ele>
        <time>2015-10-19T00:56:12Z</time>
      </trkpt>
      <trkpt lat="46.00312" lon="2.99701">
        <ele>585</ele>
        <time>2015-10-19T00:58:12Z</time>
      </trkpt>
      <trkpt lat="46.00315" lon="2.99733">
        <ele>587</ele>
        <time>2015-10-19T01:00:12Z</time>
      </trkpt>
      <trkpt lat="46.003" lon="2.99802">
        <ele>593</ele>
        <time>2015-10-19T01:02:12Z</time>
      </trkpt>
      <trkpt lat="46.00306" lon="2.99829">
        <ele>594</ele>
        <time>2015-10-19T01:04:12Z</time>
      </trkpt>
      <trkpt lat="46.00312" lon="2.99859">
        <ele>594</ele>
        <time>2015-10-19T01:06:12Z</time>
      </trkpt>
      <trkpt lat="46.00315" lon="2.99917">
        <ele>595</ele>
        <time>2015-10-19T01:08:12Z</time>
      </trkpt>
      <trkpt lat="46.00318" lon="2.99949">
        <ele>596</ele>
        <time>2015-10-19T01:10:12Z</time>
      </trkpt>
      <trkpt lat="46.00284" lon="2.99946">
        <ele>599</ele>
        <time>2015-10-19T01:12:12Z</time>
      </trkpt>
      <trkpt lat="46.00256" lon="2.99951">
        <ele>602</ele>
        <time>2015-10-19T01:14:12Z</time>
      </trkpt>
      <trkpt lat="46.00211" lon="2.99937">
        <ele>604</ele>
        <time>2015-10-19T01:16:12Z</time>
      </trkpt>
      <trkpt lat="46.00163" lon="2.9992">
        <ele>605</ele>
        <time>2015-10-19T01:18:12Z</time>
      </trkpt>
      <trkpt lat="46.00157" lon="2.9995">
        <ele>606</ele>
        <time>2015-10-19T01:20:12Z</time>
      </trkpt>
      <trkpt lat="46.00159" lon="2.99973">
        <ele>608</ele>
        <time>2015-10-19T01:22:12Z</time>
      </trkpt>
      <trkpt lat="46.00173" lon="3.00009">
        <ele>609</ele>
        <time>2015-10-19T01:24:12Z</time>
      </trkpt>
      <trkpt lat="46.00189" lon="3.00033">
        <ele>609</ele>
        <time>2015-10-19T01:26:12Z</time>
      </trkpt>
      <trkpt lat="46.00214" lon="3.00079">
        <ele>609</ele>
        <time>2015-10-19T01:28:12Z</time>
      </trkpt>
      <trkpt lat="46.00218" lon="3.00113">
        <ele>611</ele>
        <time>2015-10-19T01:30:12Z</time>
      </trkpt>
      <trkpt lat="46.00224" lon="3.00151">
        <ele>612</ele>
        <time>2015-10-19T01:32:12Z</time>
      </trkpt>
      <trkpt lat="46.00239" lon="3.00216">
        <ele>616</ele>
        <time>2015-10-19T01:34:12Z</time>
      </trkpt>
      <trkpt lat="46.00246" lon="3.00241">
        <ele>618</ele>
        <time>2015-10-19T01:36:12Z</time>
      </trkpt>
      <trkpt lat="46.0025" lon="3.00268">
        <ele>620</ele>
        <time>2015-10-19T01:38:12Z</time>
      </trkpt>
      <trkpt lat="46.00244" lon="3.00296">
        <ele>621</ele>
        <time>2015-10-19T01:40:12Z</time>
      </trkpt>
      <trkpt lat="46.00228" lon="3.00357">
        <ele>624</ele>
        <time>2015-10-19T01:42:12Z</time>
      </trkpt>
      <trkpt lat="46.00225" lon="3.00401">
        <ele>626</ele>
        <time>2015-10-19T01:44:12Z</time>
      </trkpt>
      <trkpt lat="46.0023" lon="3.00451">
        <ele>626</ele>
        <time>2015-10-19T01:46:12Z</time>
      </trkpt>
      <trkpt lat="46.00239" lon="3.00491">
        <ele>627</ele>
        <time>2015-10-19T01:48:12Z</time>
      </trkpt>
      <trkpt lat="46.00245" lon="3.0051">
        <ele>627</ele>
        <time>2015-10-19T01:50:12Z</time>
      </trkpt>
      <trkpt lat="46.00243" lon="3.00541">
        <ele>627</ele>
        <time>2015-10-19T01:52:12Z</time>
      </trkpt>
      <trkpt lat="46.00245" lon="3.0063">
        <ele>628</ele>
        <time>2015-10-19T01:54:12Z</time>
      </trkpt>
      <trkpt lat="46.00248" lon="3.00681">
        <ele>628</ele>
        <time>2015-10-19T01:56:12Z</time>
      </trkpt>
      <trkpt lat="46.00253" lon="3.00743">
        <ele>626</ele>
        <time>2015-10-19T01:58:12Z</time>
      </trkpt>
      <trkpt lat="46.00252" lon="3.00806">
        <ele>627</ele>
        <time>2015-10-19T02:00:12Z</time>
      </trkpt>
      <trkpt lat="46.0025" lon="3.00849">
        <ele>627</ele>
        <time>2015-10-19T02:02:12Z</time>
      </trkpt>
      <trkpt lat="46.0023" lon="3.00866">
        <ele>627</ele>
        <time>2015-10-19T02:04:12Z</time>
      </trkpt>
      <trkpt lat="46.00207" lon="3.00882">
        <ele>628</ele>
        <time>2015-10-19T02:06:12Z</time>
      </trkpt>
      <trkpt lat="46.00164" lon="3.00931">
        <ele>628</ele>
        <time>2015-10-19T02:08:12Z</time>
      </trkpt>
      <trkpt lat="46.00145" lon="3.00954">
        <ele>628</ele>
        <time>2015-10-19T02:10:12Z</time>
      </trkpt>
      <trkpt lat="46.00134" lon="3.00981">
        <ele>628</ele>
        <time>2015-10-19T02:12:12Z</time>
      </trkpt>
      <trkpt lat="46.00133" lon="3.01017">
        <ele>628</ele>
        <time>2015-10-19T02:14:12Z</time>
      </trkpt>
      <trkpt lat="46.00136" lon="3.01048">
        <ele>629</ele>
        <time>2015-10-19T02:16:12Z</time>
      </trkpt>
      <trkpt lat="46.00139" lon="3.01073">
        <ele>630</ele>
        <time>2015-10-19T02:18:12Z</time>
      </trkpt>
      <trkpt lat="46.00133" lon="3.01107">
        <ele>630</ele>
        <time>2015-10-19T02:20:12Z</time>
      </trkpt>
      <trkpt lat="46.00126" lon="3.01147">
        <ele>629</ele>
        <time>2015-10-19T02:22:12Z</time>
      </trkpt>
      <trkpt lat="46.00115" lon="3.01214">
        <ele>628</ele>
        <time>2015-10-19T02:24:12Z</time>
      </trkpt>
      <trkpt lat="46.00071" lon="3.0125">
        <ele>629</ele>
        <time>2015-10-19T02:26:12Z</time>
      </trkpt>
      <trkpt lat="46.00043" lon="3.01281">
        <ele>629</ele>
        <time>2015-10-19T02:28:12Z</time>
      </trkpt>
      <trkpt lat="46.0001" lon="3.01305">
        <ele>630</ele>
        <time>2015-10-19T02:30:12Z</time>
      </trkpt>
      <trkpt lat="45.99996" lon="3.01338">
        <ele>630</ele>
        <time>2015-10-19T02:32:12Z</time>
      </trkpt>
      <trkpt lat="45.99992" lon="3.01353">
        <ele>629</ele>
        <time>2015-10-19T02:34:12Z</time>
      </trkpt>
      <trkpt lat="45.99969" lon="3.01332">
        <ele>630</ele>
        <time>2015-10-19T02:36:12Z</time>
      </trkpt>
      <trkpt lat="45.99972" lon="3.01375">
        <ele>629</ele>
        <time>2015-10-19T02:38:12Z</time>
      </trkpt>
      <trkpt lat="45.99946" lon="3.01386">
        <ele>629</ele>
        <time>2015-10-19T02:40:12Z</time>
      </trkpt>
      <trkpt lat="45.99851" lon="3.01409">
        <ele>630</ele>
        <time>2015-10-19T02:42:12Z</time>
      </trkpt>
      <trkpt lat="45.99814" lon="3.01419">
        <ele>631</ele>
        <time>2015-10-19T02:44:12Z</time>
      </trkpt>
      <trkpt lat="45.99773" lon="3.01429">
        <ele>632</ele>
        <time>2015-10-19T02:46:12Z</time>
      </trkpt>
      <trkpt lat="45.99725" lon="3.01435">
        <ele>632</ele>
        <time>2015-10-19T02:48:12Z</time>
      </trkpt>
      <trkpt lat="45.99698" lon="3.01455">
        <ele>633</ele>
        <time>2015-10-19T02:50:12Z</time>
      </trkpt>
      <trkpt lat="45.99641" lon="3.01475">
        <ele>633</ele>
        <time>2015-10-19T02:52:12Z</time>
      </trkpt>
      <trkpt lat="45.99593" lon="3.01476">
        <ele>633</ele>
        <time>2015-10-19T02:54:12Z</time>
      </trkpt>
      <trkpt lat="45.99543" lon="3.0145">
        <ele>634</ele>
        <time>2015-10-19T02:56:12Z</time>
      </trkpt>
      <trkpt lat="45.99502" lon="3.01437">
        <ele>634</ele>
        <time>2015-10-19T02:58:12Z</time>
      </trkpt>
      <trkpt lat="45.99466" lon="3.01436">
        <ele>630</ele>
        <time>2015-10-19T03:00:12Z</time>
      </trkpt>
      <trkpt lat="45.99438" lon="3.01433">
        <ele>628</ele>
        <time>2015-10-19T03:02:12Z</time>
      </trkpt>
      <trkpt lat="45.99391" lon="3.01403">
        <ele>624</ele>
        <time>2015-10-19T03:04:12Z</time>
      </trkpt>
      <trkpt lat="45.99358" lon="3.01366">
        <ele>623</ele>
        <time>2015-10-19T03:06:12Z</time>
      </trkpt>
      <trkpt lat="45.99302" lon="3.01314">
        <ele>622</ele>
        <time>2015-10-19T03:08:12Z</time>
      </trkpt>
      <trkpt lat="45.99275" lon="3.01278">
        <ele>621</ele>
        <time>2015-10-19T03:10:12Z</time>
      </trkpt>
      <trkpt lat="45.99251" lon="3.0125">
        <ele>621</ele>
        <time>2015-10-19T03:12:12Z</time>
      </trkpt>
      <trkpt lat="45.99206" lon="3.01223">
        <ele>624</ele>
        <time>2015-10-19T03:14:12Z</time>
      </trkpt>
      <trkpt lat="45.99164" lon="3.01212">
        <ele>626</ele>
        <time>2015-10-19T03:16:12Z</time>
      </trkpt>
      <trkpt lat="45.99101" lon="3.01203">
        <ele>628</ele>
        <time>2015-10-19T03:18:12Z</time>
      </trkpt>
      <trkpt lat="45.99074" lon="3.0119">
        <ele>630</ele>
        <time>2015-10-19T03:20:12Z</time>
      </trkpt>
      <trkpt lat="45.99" lon="3.01146">
        <ele>633</ele>
        <time>2015-10-19T03:22:12Z</time>
      </trkpt>
      <trkpt lat="45.98942" lon="3.01105">
        <ele>635</ele>
        <time>2015-10-19T03:24:12Z</time>
      </trkpt>
      <trkpt lat="45.9888" lon="3.01053">
        <ele>637</ele>
        <time>2015-10-19T03:26:12Z</time>
      </trkpt>
      <trkpt lat="45.98845" lon="3.01025">
        <ele>639</ele>
        <time>2015-10-19T03:28:12Z</time>
      </trkpt>
      <trkpt lat="45.98807" lon="3.00994">
        <ele>641</ele>
        <time>2015-10-19T03:30:12Z</time>
      </trkpt>
      <trkpt lat="45.98784" lon="3.00961">
        <ele>643</ele>
        <time>2015-10-19T03:32:12Z</time>
      </trkpt>
      <trkpt lat="45.98718" lon="3.00941">
        <ele>645</ele>
        <time>2015-10-19T03:34:12Z</time>
      </trkpt>
      <trkpt lat="45.98682" lon="3.00926">
        <ele>647</ele>
        <time>2015-10-19T03:36:12Z</time>
      </trkpt>
      <trkpt lat="45.98684" lon="3.00869">
        <ele>651</ele>
        <time>2015-10-19T03:38:12Z</time>
      </trkpt>
      <trkpt lat="45.98681" lon="3.00816">
        <ele>655</ele>
        <time>2015-10-19T03:40:12Z</time>
      </trkpt>
      <trkpt lat="45.98672" lon="3.0076">
        <ele>658</ele>
        <time>2015-10-19T03:42:12Z</time>
      </trkpt>
      <trkpt lat="45.98659" lon="3.00604">
        <ele>664</ele>
        <time>2015-10-19T03:44:12Z</time>
      </trkpt>
      <trkpt lat="45.98706" lon="3.00508">
        <ele>668</ele>
        <time>2015-10-19T03:46:12Z</time>
      </trkpt>
      <trkpt lat="45.98731" lon="3.00476">
        <ele>669</ele>
        <time>2015-10-19T03:48:12Z</time>
      </trkpt>
      <trkpt lat="45.98778" lon="3.00415">
        <ele>671</ele>
        <time>2015-10-19T03:50:12Z</time>
      </trkpt>
      <trkpt lat="45.98844" lon="3.00343">
        <ele>672</ele>
        <time>2015-10-19T03:52:12Z</time>
      </trkpt>
      <trkpt lat="45.98828" lon="3.00314">
        <ele>673</ele>
        <time>2015-10-19T03:54:12Z</time>
      </trkpt>
      <trkpt lat="45.98842" lon="3.00219">
        <ele>670</ele>
        <time>2015-10-19T03:56:12Z</time>
      </trkpt>
      <trkpt lat="45.98845" lon="3.00186">
        <ele>669</ele>
        <time>2015-10-19T03:58:12Z</time>
      </trkpt>
      <trkpt lat="45.98834" lon="3.0016">
        <ele>668</ele>
        <time>2015-10-19T04:00:12Z</time>
      </trkpt>
      <trkpt lat="45.98783" lon="3.00122">
        <ele>669</ele>
        <time>2015-10-19T04:02:12Z</time>
      </trkpt>
      <trkpt lat="45.98774" lon="3.00107">
        <ele>668</ele>
        <time>2015-10-19T04:04:12Z</time>
      </trkpt>
      <trkpt lat="45.98769" lon="3.00065">
        <ele>664</ele>
        <time>2015-10-19T04:06:12Z</time>
      </trkpt>
      <trkpt lat="45.98766" lon="3.00012">
        <ele>660</ele>
        <time>2015-10-19T04:08:12Z</time>
      </trkpt>
      <trkpt lat="45.98764" lon="2.99995">
        <ele>658</ele>
        <time>2015-10-19T04:10:12Z</time>
      </trkpt>
      <trkpt lat="45.98771" lon="2.99978">
        <ele>656</ele>
        <time>2015-10-19T04:12:12Z</time>
      </trkpt>
      <trkpt lat="45.98777" lon="2.99965">
        <ele>654</ele>
        <time>2015-10-19T04:14:12Z</time>
      </trkpt>
      <trkpt lat="45.98775" lon="2.9995">
        <ele>653</ele>
        <time>2015-10-19T04:16:12Z</time>
      </trkpt>
      <trkpt lat="45.98752" lon="2.99888">
        <ele>650</ele>
        <time>2015-10-19T04:18:12Z</time>
      </trkpt>
      <trkpt lat="45.98737" lon="2.99795">
        <ele>647</ele>
        <time>2015-10-19T04:20:12Z</time>
      </trkpt>
      <trkpt lat="45.98741" lon="2.99713">
        <ele>646</ele>
        <time>2015-10-19T04:22:12Z</time>
      </trkpt>
      <trkpt lat="45.98749" lon="2.99679">
        <ele>645</ele>
        <time>2015-10-19T04:24:12Z</time>
      </trkpt>
      <trkpt lat="45.98737" lon="2.99667">
        <ele>647</ele>
        <time>2015-10-19T04:26:12Z</time>
      </trkpt>
      <trkpt lat="45.98714" lon="2.99673">
        <ele>649</ele>
        <time>2015-10-19T04:28:12Z</time>
      </trkpt>
      <trkpt lat="45.98698" lon="2.99684">
        <ele>651</ele>
        <time>2015-10-19T04:30:12Z</time>
      </trkpt>
      <trkpt lat="45.98661" lon="2.99707">
        <ele>655</ele>
        <time>2015-10-19T04:32:12Z</time>
      </trkpt>
      <trkpt lat="45.9864" lon="2.99721">
        <ele>658</ele>
        <time>2015-10-19T04:34:12Z</time>
      </trkpt>
      <trkpt lat="45.98632" lon="2.99728">
        <ele>659</ele>
        <time>2015-10-19T04:36:12Z</time>
      </trkpt>
      <trkpt lat="45.98614" lon="2.99732">
        <ele>662</ele>
        <time>2015-10-19T04:38:12Z</time>
      </trkpt>
      <trkpt lat="45.98602" lon="2.99727">
        <ele>664</ele>
        <time>2015-10-19T04:40:12Z</time>
      </trkpt>
      <trkpt lat="45.98567" lon="2.99722">
        <ele>670</ele>
        <time>2015-10-19T04:42:12Z</time>
      </trkpt>
      <trkpt lat="45.98544" lon="2.9975">
        <ele>674</ele>
        <time>2015-10-19T04:44:12Z</time>
      </trkpt>
      <trkpt lat="45.98462" lon="2.99772">
        <ele>691</ele>
        <time>2015-10-19T04:46:12Z</time>
      </trkpt>
      <trkpt lat="45.98397" lon="2.99783">
        <ele>703</ele>
        <time>2015-10-19T04:48:12Z</time>
      </trkpt>
      <trkpt lat="45.9835" lon="2.99781">
        <ele>709</ele>
        <time>2015-10-19T04:50:12Z</time>
      </trkpt>
      <trkpt lat="45.98277" lon="2.99884">
        <ele>708</ele>
        <time>2015-10-19T04:52:12Z</time>
      </trkpt>
      <trkpt lat="45.98234" lon="2.99944">
        <ele>705</ele>
        <time>2015-10-19T04:54:12Z</time>
      </trkpt>
      <trkpt lat="45.9811" lon="2.99904">
        <ele>711</ele>
        <time>2015-10-19T04:56:12Z</time>
      </trkpt>
      <trkpt lat="45.98034" lon="2.99873">
        <ele>713</ele>
        <time>2015-10-19T04:58:12Z</time>
      </trkpt>
      <trkpt lat="45.97963" lon="2.99829">
        <ele>715</ele>
        <time>2015-10-19T05:00:12Z</time>
      </trkpt>
      <trkpt lat="45.97938" lon="2.9982">
        <ele>715</ele>
        <time>2015-10-19T05:02:12Z</time>
      </trkpt>
      <trkpt lat="45.97925" lon="2.99814">
        <ele>716</ele>
        <time>2015-10-19T05:04:12Z</time>
      </trkpt>
      <trkpt lat="45.97928" lon="2.99785">
        <ele>716</ele>
        <time>2015-10-19T05:06:12Z</time>
      </trkpt>
      <trkpt lat="45.97921" lon="2.99766">
        <ele>716</ele>
        <time>2015-10-19T05:08:12Z</time>
      </trkpt>
      <trkpt lat="45.97902" lon="2.99751">
        <ele>719</ele>
        <time>2015-10-19T05:10:12Z</time>
      </trkpt>
      <trkpt lat="45.97889" lon="2.99726">
        <ele>718</ele>
        <time>2015-10-19T05:12:12Z</time>
      </trkpt>
      <trkpt lat="45.97849" lon="2.99663">
        <ele>716</ele>
        <time>2015-10-19T05:14:12Z</time>
      </trkpt>
      <trkpt lat="45.97836" lon="2.9965">
        <ele>715</ele>
        <time>2015-10-19T05:16:12Z</time>
      </trkpt>
      <trkpt lat="45.97808" lon="2.99628">
        <ele>713</ele>
        <time>2015-10-19T05:18:12Z</time>
      </trkpt>
      <trkpt lat="45.97751" lon="2.99564">
        <ele>711</ele>
        <time>2015-10-19T05:20:12Z</time>
      </trkpt>
      <trkpt lat="45.97714" lon="2.99506">
        <ele>705</ele>
        <time>2015-10-19T05:22:12Z</time>
      </trkpt>
      <trkpt lat="45.97705" lon="2.99476">
        <ele>702</ele>
        <time>2015-10-19T05:24:12Z</time>
      </trkpt>
      <trkpt lat="45.97692" lon="2.99438">
        <ele>700</ele>
        <time>2015-10-19T05:26:12Z</time>
      </trkpt>
      <trkpt lat="45.97678" lon="2.99417">
        <ele>701</ele>
        <time>2015-10-19T05:28:12Z</time>
      </trkpt>
      <trkpt lat="45.9764" lon="2.99373">
        <ele>699</ele>
        <time>2015-10-19T05:30:12Z</time>
      </trkpt>
      <trkpt lat="45.97609" lon="2.99343">
        <ele>697</ele>
        <time>2015-10-19T05:32:12Z</time>
      </trkpt>
      <trkpt lat="45.9757" lon="2.99283">
        <ele>695</ele>
        <time>2015-10-19T05:34:12Z</time>
      </trkpt>
      <trkpt lat="45.97509" lon="2.99226">
        <ele>693</ele>
        <time>2015-10-19T05:36:12Z</time>
      </trkpt>
      <trkpt lat="45.97488" lon="2.99208">
        <ele>693</ele>
        <time>2015-10-19T05:38:12Z</time>
      </trkpt>
      <trkpt lat="45.97467" lon="2.99178">
        <ele>694</ele>
        <time>2015-10-19T05:40:12Z</time>
      </trkpt>
      <trkpt lat="45.97439" lon="2.99127">
        <ele>694</ele>
        <time>2015-10-19T05:42:12Z</time>
      </trkpt>
      <trkpt lat="45.97407" lon="2.9907">
        <ele>694</ele>
        <time>2015-10-19T05:44:12Z</time>
      </trkpt>
      <trkpt lat="45.97352" lon="2.99003">
        <ele>696</ele>
        <time>2015-10-19T05:46:12Z</time>
      </trkpt>
      <trkpt lat="45.97321" lon="2.98959">
        <ele>696</ele>
        <time>2015-10-19T05:48:12Z</time>
      </trkpt>
      <trkpt lat="45.97372" lon="2.98927">
        <ele>689</ele>
        <time>2015-10-19T05:50:12Z</time>
      </trkpt>
      <trkpt lat="45.97392" lon="2.98918">
        <ele>686</ele>
        <time>2015-10-19T05:52:12Z</time>
      </trkpt>
      <trkpt lat="45.9748" lon="2.98923">
        <ele>680</ele>
        <time>2015-10-19T05:54:12Z</time>
      </trkpt>
      <trkpt lat="45.97558" lon="2.98941">
        <ele>674</ele>
        <time>2015-10-19T05:56:12Z</time>
      </trkpt>
      <trkpt lat="45.97586" lon="2.98944">
        <ele>671</ele>
        <time>2015-10-19T05:58:12Z</time>
      </trkpt>
      <trkpt lat="45.97619" lon="2.98948">
        <ele>668</ele>
        <time>2015-10-19T06:00:12Z</time>
      </trkpt>
      <trkpt lat="45.97644" lon="2.98945">
        <ele>666</ele>
        <time>2015-10-19T06:02:12Z</time>
      </trkpt>
      <trkpt lat="45.97664" lon="2.98957">
        <ele>665</ele>
        <time>2015-10-19T06:04:12Z</time>
      </trkpt>
      <trkpt lat="45.97677" lon="2.98976">
        <ele>664</ele>
        <time>2015-10-19T06:06:12Z</time>
      </trkpt>
      <trkpt lat="45.97694" lon="2.98994">
        <ele>662</ele>
        <time>2015-10-19T06:08:12Z</time>
      </trkpt>
      <trkpt lat="45.97706" lon="2.99005">
        <ele>660</ele>
        <time>2015-10-19T06:10:12Z</time>
      </trkpt>
      <trkpt lat="45.97713" lon="2.98997">
        <ele>658</ele>
        <time>2015-10-19T06:12:12Z</time>
      </trkpt>
      <trkpt lat="45.97717" lon="2.98986">
        <ele>657</ele>
        <time>2015-10-19T06:14:12Z</time>
      </trkpt>
      <trkpt lat="45.97714" lon="2.98949">
        <ele>655</ele>
        <time>2015-10-19T06:16:12Z</time>
      </trkpt>
      <trkpt lat="45.97717" lon="2.98937">
        <ele>654</ele>
        <time>2015-10-19T06:18:12Z</time>
      </trkpt>
      <trkpt lat="45.97725" lon="2.98934">
        <ele>653</ele>
        <time>2015-10-19T06:20:12Z</time>
      </trkpt>
      <trkpt lat="45.97761" lon="2.98942">
        <ele>647</ele>
        <time>2015-10-19T06:22:12Z</time>
      </trkpt>
      <trkpt lat="45.97771" lon="2.98944">
        <ele>645</ele>
        <time>2015-10-19T06:24:12Z</time>
      </trkpt>
      <trkpt lat="45.9779" lon="2.98916">
        <ele>641</ele>
        <time>2015-10-19T06:26:12Z</time>
      </trkpt>
      <trkpt lat="45.97799" lon="2.98905">
        <ele>641</ele>
        <time>2015-10-19T06:28:12Z</time>
      </trkpt>
      <trkpt lat="45.978" lon="2.98865">
        <ele>645</ele>
        <time>2015-10-19T06:30:12Z</time>
      </trkpt>
      <trkpt lat="45.97835" lon="2.98827">
        <ele>645</ele>
        <time>2015-10-19T06:32:12Z</time>
      </trkpt>
      <trkpt lat="45.97846" lon="2.98811">
        <ele>646</ele>
        <time>2015-10-19T06:34:12Z</time>
      </trkpt>
      <trkpt lat="45.97854" lon="2.98791">
        <ele>647</ele>
        <time>2015-10-19T06:36:12Z</time>
      </trkpt>
      <trkpt lat="45.9787" lon="2.98767">
        <ele>649</ele>
        <time>2015-10-19T06:38:12Z</time>
      </trkpt>
      <trkpt lat="45.97906" lon="2.98731">
        <ele>649</ele>
        <time>2015-10-19T06:40:12Z</time>
      </trkpt>
      <trkpt lat="45.97951" lon="2.987">
        <ele>646</ele>
        <time>2015-10-19T06:42:12Z</time>
      </trkpt>
      <trkpt lat="45.97975" lon="2.98693">
        <ele>643</ele>
        <time>2015-10-19T06:44:12Z</time>
      </trkpt>
      <trkpt lat="45.9801" lon="2.98664">
        <ele>643</ele>
        <time>2015-10-19T06:46:12Z</time>
      </trkpt>
      <trkpt lat="45.98044" lon="2.98661">
        <ele>639</ele>
        <time>2015-10-19T06:48:12Z</time>
      </trkpt>
      <trkpt lat="45.98072" lon="2.98665">
        <ele>636</ele>
        <time>2015-10-19T06:50:12Z</time>
      </trkpt>
      <trkpt lat="45.98114" lon="2.98679">
        <ele>634</ele>
        <time>2015-10-19T06:52:12Z</time>
      </trkpt>
      <trkpt lat="45.98134" lon="2.98679">
        <ele>633</ele>
        <time>2015-10-19T06:54:12Z</time>
      </trkpt>
      <trkpt lat="45.98187" lon="2.98667">
        <ele>634</ele>
        <time>2015-10-19T06:56:12Z</time>
      </trkpt>
      <trkpt lat="45.98219" lon="2.98663">
        <ele>636</ele>
        <time>2015-10-19T06:58:12Z</time>
      </trkpt>
      <trkpt lat="45.98227" lon="2.98605">
        <ele>636</ele>
        <time>2015-10-19T07:00:12Z</time>
      </trkpt>
      <trkpt lat="45.98249" lon="2.98604">
        <ele>637</ele>
        <time>2015-10-19T07:02:12Z</time>
      </trkpt>
      <trkpt lat="45.98273" lon="2.98613">
        <ele>638</ele>
        <time>2015-10-19T07:04:12Z</time>
      </trkpt>
      <trkpt lat="45.98289" lon="2.98623">
        <ele>639</ele>
        <time>2015-10-19T07:06:12Z</time>
      </trkpt>
      <trkpt lat="45.98347" lon="2.98431">
        <ele>638</ele>
        <time>2015-10-19T07:08:12Z</time>
      </trkpt>
      <trkpt lat="45.98378" lon="2.983">
        <ele>636</ele>
        <time>2015-10-19T07:10:12Z</time>
      </trkpt>
      <trkpt lat="45.98423" lon="2.98303">
        <ele>638</ele>
        <time>2015-10-19T07:12:12Z</time>
      </trkpt>
      <trkpt lat="45.98473" lon="2.9831">
        <ele>640</ele>
        <time>2015-10-19T07:14:12Z</time>
      </trkpt>
      <trkpt lat="45.98502" lon="2.98321">
        <ele>641</ele>
        <time>2015-10-19T07:16:12Z</time>
      </trkpt>
      <trkpt lat="45.98547" lon="2.9831">
        <ele>642</ele>
        <time>2015-10-19T07:18:12Z</time>
      </trkpt>
      <trkpt lat="45.98581" lon="2.98337">
        <ele>644</ele>
        <time>2015-10-19T07:20:12Z</time>
      </trkpt>
      <trkpt lat="45.98628" lon="2.98368">
        <ele>644</ele>
        <time>2015-10-19T07:22:12Z</time>
      </trkpt>
      <trkpt lat="45.98658" lon="2.98394">
        <ele>644</ele>
        <time>2015-10-19T07:24:12Z</time>
      </trkpt>
      <trkpt lat="45.98697" lon="2.98367">
        <ele>644</ele>
        <time>2015-10-19T07:26:12Z</time>
      </trkpt>
      <trkpt lat="45.98739" lon="2.98428">
        <ele>644</ele>
        <time>2015-10-19T07:28:12Z</time>
      </trkpt>
      <trkpt lat="45.98778" lon="2.98461">
        <ele>644</ele>
        <time>2015-10-19T07:30:12Z</time>
      </trkpt>
      <trkpt lat="45.988" lon="2.98493">
        <ele>643</ele>
        <time>2015-10-19T07:32:12Z</time>
      </trkpt>
      <trkpt lat="45.98825" lon="2.98535">
        <ele>642</ele>
        <time>2015-10-19T07:34:12Z</time>
      </trkpt>
      <trkpt lat="45.98849" lon="2.9857">
        <ele>640</ele>
        <time>2015-10-19T07:36:12Z</time>
      </trkpt>
      <trkpt lat="45.98875" lon="2.98604">
        <ele>640</ele>
        <time>2015-10-19T07:38:12Z</time>
      </trkpt>
      <trkpt lat="45.98914" lon="2.9864">
        <ele>639</ele>
        <time>2015-10-19T07:40:12Z</time>
      </trkpt>
      <trkpt lat="45.98937" lon="2.98669">
        <ele>638</ele>
        <time>2015-10-19T07:42:12Z</time>
      </trkpt>
      <trkpt lat="45.9898" lon="2.98739">
        <ele>634</ele>
        <time>2015-10-19T07:44:12Z</time>
      </trkpt>
      <trkpt lat="45.99012" lon="2.98783">
        <ele>633</ele>
        <time>2015-10-19T07:46:12Z</time>
      </trkpt>
      <trkpt lat="45.99056" lon="2.98846">
        <ele>629</ele>
        <time>2015-10-19T07:48:12Z</time>
      </trkpt>
      <trkpt lat="45.99069" lon="2.98886">
        <ele>626</ele>
        <time>2015-10-19T07:50:12Z</time>
      </trkpt>
      <trkpt lat="45.99081" lon="2.98924">
        <ele>623</ele>
        <time>2015-10-19T07:52:12Z</time>
      </trkpt>
      <trkpt lat="45.99102" lon="2.99003">
        <ele>615</ele>
        <time>2015-10-19T07:54:12Z</time>
      </trkpt>
      <trkpt lat="45.99103" lon="2.99051">
        <ele>612</ele>
        <time>2015-10-19T07:56:12Z</time>
      </trkpt>
      <trkpt lat="45.99103" lon="2.991">
        <ele>610</ele>
        <time>2015-10-19T07:58:12Z</time>
      </trkpt>
      <trkpt lat="45.99096" lon="2.99195">
        <ele>608</ele>
        <time>2015-10-19T08:00:12Z</time>
      </trkpt>
      <trkpt lat="45.991" lon="2.99224">
        <ele>607</ele>
        <time>2015-10-19T08:02:12Z</time>
      </trkpt>
      <trkpt lat="45.99112" lon="2.99248">
        <ele>606</ele>
        <time>2015-10-19T08:04:12Z</time>
      </trkpt>
      <trkpt lat="45.99126" lon="2.99267">
        <ele>604</ele>
        <time>2015-10-19T08:06:12Z</time>
      </trkpt>
      <trkpt lat="45.99145" lon="2.99284">
        <ele>603</ele>
        <time>2015-10-19T08:08:12Z</time>
      </trkpt>
      <trkpt lat="45.99161" lon="2.99292">
        <ele>601</ele>
        <time>2015-10-19T08:10:12Z</time>
      </trkpt>
      <trkpt lat="45.9918" lon="2.99299">
        <ele>600</ele>
        <time>2015-10-19T08:12:12Z</time>
      </trkpt>
      <trkpt lat="45.99204" lon="2.99302">
        <ele>599</ele>
        <time>2015-10-19T08:14:12Z</time>
      </trkpt>
      <trkpt lat="45.99233" lon="2.9931">
        <ele>597</ele>
        <time>2015-10-19T08:16:12Z</time>
      </trkpt>
      <trkpt lat="45.99274" lon="2.99393">
        <ele>598</ele>
        <time>2015-10-19T08:18:12Z</time>
      </trkpt>
      <trkpt lat="45.99293" lon="2.99438">
        <ele>599</ele>
        <time>2015-10-19T08:20:12Z</time>
      </trkpt>
      <trkpt lat="45.99316" lon="2.99479">
        <ele>600</ele>
        <time>2015-10-19T08:22:12Z</time>
      </trkpt>
      <trkpt lat="45.99351" lon="2.99537">
        <ele>602</ele>
        <time>2015-10-19T08:24:12Z</time>
      </trkpt>
      <trkpt lat="45.99371" lon="2.99578">
        <ele>604</ele>
        <time>2015-10-19T08:26:12Z</time>
      </trkpt>
      <trkpt lat="45.99385" lon="2.99612">
        <ele>606</ele>
        <time>2015-10-19T08:28:12Z</time>
      </trkpt>
      <trkpt lat="45.99393" lon="2.99644">
        <ele>608</ele>
        <time>2015-10-19T08:30:12Z</time>
      </trkpt>
      <trkpt lat="45.99405" lon="2.99652">
        <ele>609</ele>
        <time>2015-10-19T08:32:12Z</time>
      </trkpt>
      <trkpt lat="45.99428" lon="2.99659">
        <ele>610</ele>
        <time>2015-10-19T08:34:12Z</time>
      </trkpt>
      <trkpt lat="45.99453" lon="2.99673">
        <ele>612</ele>
        <time>2015-10-19T08:36:12Z</time>
      </trkpt>
      <trkpt lat="45.99474" lon="2.99674">
        <ele>613</ele>
        <time>2015-10-19T08:38:12Z</time>
      </trkpt>
      <trkpt lat="45.99488" lon="2.99662">
        <ele>613</ele>
        <time>2015-10-19T08:40:12Z</time>
      </trkpt>
      <trkpt lat="45.99502" lon="2.99655">
        <ele>613</ele>
        <time>2015-10-19T08:42:12Z</time>
      </trkpt>
      <trkpt lat="45.99531" lon="2.99667">
        <ele>615</ele>
        <time>2015-10-19T08:44:12Z</time>
      </trkpt>
      <trkpt lat="45.99545" lon="2.99664">
        <ele>616</ele>
        <time>2015-10-19T08:46:12Z</time>
      </trkpt>
      <trkpt lat="45.99571" lon="2.99647">
        <ele>616</ele>
        <time>2015-10-19T08:48:12Z</time>
      </trkpt>
      <trkpt lat="45.99595" lon="2.99626">
        <ele>617</ele>
        <time>2015-10-19T08:50:12Z</time>
      </trkpt>
      <trkpt lat="45.99622" lon="2.99603">
        <ele>618</ele>
        <time>2015-10-19T08:52:12Z</time>
      </trkpt>
      <trkpt lat="45.99651" lon="2.99593">
        <ele>619</ele>
        <time>2015-10-19T08:54:12Z</time>
      </trkpt>
      <trkpt lat="45.99668" lon="2.99609">
        <ele>619</ele>
        <time>2015-10-19T08:56:12Z</time>
      </trkpt>
      <trkpt lat="45.99652" lon="2.99662">
        <ele>617</ele>
        <time>2015-10-19T08:58:12Z</time>
      </trkpt>
      <trkpt lat="45.99643" lon="2.99658">
        <ele>617</ele>
        <time>2015-10-19T09:00:12Z</time>
      </trkpt>
    </trkseg>
  </trk>
  <trk>
    <name><![CDATA[--Charbonnières-les-Vieilles-- OR-5377410:ser-jb06-l]]></name>
    <trkseg>
      <trkpt lat="45.99643" lon="2.99675">
        <ele>617</ele>
        <time>2015-10-18T19:27:14Z</time>
      </trkpt>
      <trkpt lat="45.99656" lon="2.9965">
        <ele>618</ele>
        <time>2015-10-18T19:29:14Z</time>
      </trkpt>
      <trkpt lat="45.99665" lon="2.9963">
        <ele>618</ele>
        <time>2015-10-18T19:31:14Z</time>
      </trkpt>
      <trkpt lat="45.99668" lon="2.99593">
        <ele>620</ele>
        <time>2015-10-18T19:33:14Z</time>
      </trkpt>
      <trkpt lat="45.99645" lon="2.99591">
        <ele>619</ele>
        <time>2015-10-18T19:35:14Z</time>
      </trkpt>
      <trkpt lat="45.99622" lon="2.99599">
        <ele>618</ele>
        <time>2015-10-18T19:37:14Z</time>
      </trkpt>
      <trkpt lat="45.99578" lon="2.99644">
        <ele>617</ele>
        <time>2015-10-18T19:39:14Z</time>
      </trkpt>
      <trkpt lat="45.99557" lon="2.99657">
        <ele>616</ele>
        <time>2015-10-18T19:41:14Z</time>
      </trkpt>
      <trkpt lat="45.99534" lon="2.9967">
        <ele>615</ele>
        <time>2015-10-18T19:43:14Z</time>
      </trkpt>
      <trkpt lat="45.99503" lon="2.99654">
        <ele>613</ele>
        <time>2015-10-18T19:45:14Z</time>
      </trkpt>
      <trkpt lat="45.99499" lon="2.9963">
        <ele>611</ele>
        <time>2015-10-18T19:47:14Z</time>
      </trkpt>
      <trkpt lat="45.99503" lon="2.99533">
        <ele>607</ele>
        <time>2015-10-18T19:49:14Z</time>
      </trkpt>
      <trkpt lat="45.99496" lon="2.99493">
        <ele>606</ele>
        <time>2015-10-18T19:51:14Z</time>
      </trkpt>
      <trkpt lat="45.99465" lon="2.99462">
        <ele>602</ele>
        <time>2015-10-18T19:53:14Z</time>
      </trkpt>
      <trkpt lat="45.99443" lon="2.99444">
        <ele>599</ele>
        <time>2015-10-18T19:55:14Z</time>
      </trkpt>
      <trkpt lat="45.99425" lon="2.99416">
        <ele>597</ele>
        <time>2015-10-18T19:57:14Z</time>
      </trkpt>
      <trkpt lat="45.99404" lon="2.99375">
        <ele>594</ele>
        <time>2015-10-18T19:59:14Z</time>
      </trkpt>
      <trkpt lat="45.99388" lon="2.99339">
        <ele>591</ele>
        <time>2015-10-18T20:01:14Z</time>
      </trkpt>
      <trkpt lat="45.99381" lon="2.99314">
        <ele>590</ele>
        <time>2015-10-18T20:03:14Z</time>
      </trkpt>
      <trkpt lat="45.99378" lon="2.99276">
        <ele>589</ele>
        <time>2015-10-18T20:05:14Z</time>
      </trkpt>
      <trkpt lat="45.99377" lon="2.99215">
        <ele>587</ele>
        <time>2015-10-18T20:07:14Z</time>
      </trkpt>
      <trkpt lat="45.99378" lon="2.99167">
        <ele>587</ele>
        <time>2015-10-18T20:09:14Z</time>
      </trkpt>
      <trkpt lat="45.99384" lon="2.99127">
        <ele>588</ele>
        <time>2015-10-18T20:11:14Z</time>
      </trkpt>
      <trkpt lat="45.99408" lon="2.99099">
        <ele>586</ele>
        <time>2015-10-18T20:13:14Z</time>
      </trkpt>
      <trkpt lat="45.99408" lon="2.99071">
        <ele>586</ele>
        <time>2015-10-18T20:15:14Z</time>
      </trkpt>
      <trkpt lat="45.99417" lon="2.99033">
        <ele>586</ele>
        <time>2015-10-18T20:17:14Z</time>
      </trkpt>
      <trkpt lat="45.99424" lon="2.99004">
        <ele>588</ele>
        <time>2015-10-18T20:19:14Z</time>
      </trkpt>
      <trkpt lat="45.99428" lon="2.98977">
        <ele>588</ele>
        <time>2015-10-18T20:21:14Z</time>
      </trkpt>
      <trkpt lat="45.99431" lon="2.9892">
        <ele>589</ele>
        <time>2015-10-18T20:23:14Z</time>
      </trkpt>
      <trkpt lat="45.99433" lon="2.98857">
        <ele>588</ele>
        <time>2015-10-18T20:25:14Z</time>
      </trkpt>
      <trkpt lat="45.99434" lon="2.98812">
        <ele>585</ele>
        <time>2015-10-18T20:27:14Z</time>
      </trkpt>
      <trkpt lat="45.99449" lon="2.98801">
        <ele>582</ele>
        <time>2015-10-18T20:29:14Z</time>
      </trkpt>
      <trkpt lat="45.99454" lon="2.98787">
        <ele>580</ele>
        <time>2015-10-18T20:31:14Z</time>
      </trkpt>
      <trkpt lat="45.99443" lon="2.98772">
        <ele>581</ele>
        <time>2015-10-18T20:33:14Z</time>
      </trkpt>
      <trkpt lat="45.99431" lon="2.98757">
        <ele>581</ele>
        <time>2015-10-18T20:35:14Z</time>
      </trkpt>
      <trkpt lat="45.99402" lon="2.98705">
        <ele>582</ele>
        <time>2015-10-18T20:37:14Z</time>
      </trkpt>
      <trkpt lat="45.99381" lon="2.98669">
        <ele>582</ele>
        <time>2015-10-18T20:39:14Z</time>
      </trkpt>
      <trkpt lat="45.99347" lon="2.98646">
        <ele>586</ele>
        <time>2015-10-18T20:41:14Z</time>
      </trkpt>
      <trkpt lat="45.9933" lon="2.98619">
        <ele>588</ele>
        <time>2015-10-18T20:43:14Z</time>
      </trkpt>
      <trkpt lat="45.99311" lon="2.98585">
        <ele>590</ele>
        <time>2015-10-18T20:45:14Z</time>
      </trkpt>
      <trkpt lat="45.99301" lon="2.98565">
        <ele>592</ele>
        <time>2015-10-18T20:47:14Z</time>
      </trkpt>
      <trkpt lat="45.99314" lon="2.98549">
        <ele>593</ele>
        <time>2015-10-18T20:49:14Z</time>
      </trkpt>
      <trkpt lat="45.99334" lon="2.98567">
        <ele>590</ele>
        <time>2015-10-18T20:51:14Z</time>
      </trkpt>
      <trkpt lat="45.99343" lon="2.98567">
        <ele>589</ele>
        <time>2015-10-18T20:53:14Z</time>
      </trkpt>
      <trkpt lat="45.99348" lon="2.98551">
        <ele>591</ele>
        <time>2015-10-18T20:55:14Z</time>
      </trkpt>
      <trkpt lat="45.99341" lon="2.9852">
        <ele>595</ele>
        <time>2015-10-18T20:57:14Z</time>
      </trkpt>
      <trkpt lat="45.99341" lon="2.98432">
        <ele>601</ele>
        <time>2015-10-18T20:59:14Z</time>
      </trkpt>
      <trkpt lat="45.99282" lon="2.98419">
        <ele>605</ele>
        <time>2015-10-18T21:01:14Z</time>
      </trkpt>
      <trkpt lat="45.99278" lon="2.98392">
        <ele>607</ele>
        <time>2015-10-18T21:03:14Z</time>
      </trkpt>
      <trkpt lat="45.9929" lon="2.98303">
        <ele>610</ele>
        <time>2015-10-18T21:05:14Z</time>
      </trkpt>
      <trkpt lat="45.99288" lon="2.98266">
        <ele>610</ele>
        <time>2015-10-18T21:07:14Z</time>
      </trkpt>
      <trkpt lat="45.9927" lon="2.98157">
        <ele>607</ele>
        <time>2015-10-18T21:09:14Z</time>
      </trkpt>
      <trkpt lat="45.99251" lon="2.98109">
        <ele>606</ele>
        <time>2015-10-18T21:11:14Z</time>
      </trkpt>
      <trkpt lat="45.99235" lon="2.98061">
        <ele>604</ele>
        <time>2015-10-18T21:13:14Z</time>
      </trkpt>
      <trkpt lat="45.99225" lon="2.98007">
        <ele>602</ele>
        <time>2015-10-18T21:15:14Z</time>
      </trkpt>
      <trkpt lat="45.99225" lon="2.97887">
        <ele>591</ele>
        <time>2015-10-18T21:17:14Z</time>
      </trkpt>
      <trkpt lat="45.99252" lon="2.9773">
        <ele>581</ele>
        <time>2015-10-18T21:19:14Z</time>
      </trkpt>
      <trkpt lat="45.99267" lon="2.97646">
        <ele>575</ele>
        <time>2015-10-18T21:21:14Z</time>
      </trkpt>
      <trkpt lat="45.99279" lon="2.97561">
        <ele>568</ele>
        <time>2015-10-18T21:23:14Z</time>
      </trkpt>
      <trkpt lat="45.9927" lon="2.97517">
        <ele>565</ele>
        <time>2015-10-18T21:25:14Z</time>
      </trkpt>
      <trkpt lat="45.99261" lon="2.97456">
        <ele>561</ele>
        <time>2015-10-18T21:27:14Z</time>
      </trkpt>
      <trkpt lat="45.99266" lon="2.97411">
        <ele>558</ele>
        <time>2015-10-18T21:29:14Z</time>
      </trkpt>
      <trkpt lat="45.99273" lon="2.97391">
        <ele>556</ele>
        <time>2015-10-18T21:31:14Z</time>
      </trkpt>
      <trkpt lat="45.99285" lon="2.97377">
        <ele>554</ele>
        <time>2015-10-18T21:33:14Z</time>
      </trkpt>
      <trkpt lat="45.99283" lon="2.97357">
        <ele>552</ele>
        <time>2015-10-18T21:35:14Z</time>
      </trkpt>
      <trkpt lat="45.99273" lon="2.97339">
        <ele>552</ele>
        <time>2015-10-18T21:37:14Z</time>
      </trkpt>
      <trkpt lat="45.99276" lon="2.97318">
        <ele>548</ele>
        <time>2015-10-18T21:39:14Z</time>
      </trkpt>
      <trkpt lat="45.9929" lon="2.97324">
        <ele>548</ele>
        <time>2015-10-18T21:41:14Z</time>
      </trkpt>
      <trkpt lat="45.99302" lon="2.9733">
        <ele>548</ele>
        <time>2015-10-18T21:43:14Z</time>
      </trkpt>
      <trkpt lat="45.99306" lon="2.97317">
        <ele>545</ele>
        <time>2015-10-18T21:45:14Z</time>
      </trkpt>
      <trkpt lat="45.99298" lon="2.97273">
        <ele>538</ele>
        <time>2015-10-18T21:47:14Z</time>
      </trkpt>
      <trkpt lat="45.99288" lon="2.97253">
        <ele>535</ele>
        <time>2015-10-18T21:49:14Z</time>
      </trkpt>
      <trkpt lat="45.99274" lon="2.97243">
        <ele>533</ele>
        <time>2015-10-18T21:51:14Z</time>
      </trkpt>
      <trkpt lat="45.99259" lon="2.97233">
        <ele>532</ele>
        <time>2015-10-18T21:53:14Z</time>
      </trkpt>
      <trkpt lat="45.99261" lon="2.97215">
        <ele>529</ele>
        <time>2015-10-18T21:55:14Z</time>
      </trkpt>
      <trkpt lat="45.99294" lon="2.97168">
        <ele>522</ele>
        <time>2015-10-18T21:57:14Z</time>
      </trkpt>
      <trkpt lat="45.99299" lon="2.97138">
        <ele>521</ele>
        <time>2015-10-18T21:59:14Z</time>
      </trkpt>
      <trkpt lat="45.99301" lon="2.97109">
        <ele>520</ele>
        <time>2015-10-18T22:01:14Z</time>
      </trkpt>
      <trkpt lat="45.9932" lon="2.97081">
        <ele>519</ele>
        <time>2015-10-18T22:03:14Z</time>
      </trkpt>
      <trkpt lat="45.99347" lon="2.97064">
        <ele>519</ele>
        <time>2015-10-18T22:05:14Z</time>
      </trkpt>
      <trkpt lat="45.99394" lon="2.97048">
        <ele>519</ele>
        <time>2015-10-18T22:07:14Z</time>
      </trkpt>
      <trkpt lat="45.99455" lon="2.97073">
        <ele>519</ele>
        <time>2015-10-18T22:09:14Z</time>
      </trkpt>
      <trkpt lat="45.99514" lon="2.97111">
        <ele>521</ele>
        <time>2015-10-18T22:11:14Z</time>
      </trkpt>
      <trkpt lat="45.99539" lon="2.97167">
        <ele>519</ele>
        <time>2015-10-18T22:13:14Z</time>
      </trkpt>
      <trkpt lat="45.99576" lon="2.97226">
        <ele>517</ele>
        <time>2015-10-18T22:15:14Z</time>
      </trkpt>
      <trkpt lat="45.99604" lon="2.97258">
        <ele>518</ele>
        <time>2015-10-18T22:17:14Z</time>
      </trkpt>
      <trkpt lat="45.99624" lon="2.97272">
        <ele>520</ele>
        <time>2015-10-18T22:19:14Z</time>
      </trkpt>
      <trkpt lat="45.99646" lon="2.97281">
        <ele>522</ele>
        <time>2015-10-18T22:21:14Z</time>
      </trkpt>
      <trkpt lat="45.99659" lon="2.97301">
        <ele>523</ele>
        <time>2015-10-18T22:23:14Z</time>
      </trkpt>
      <trkpt lat="45.99672" lon="2.97322">
        <ele>524</ele>
        <time>2015-10-18T22:25:14Z</time>
      </trkpt>
      <trkpt lat="45.99665" lon="2.97284">
        <ele>524</ele>
        <time>2015-10-18T22:27:14Z</time>
      </trkpt>
      <trkpt lat="45.99673" lon="2.97245">
        <ele>527</ele>
        <time>2015-10-18T22:29:14Z</time>
      </trkpt>
      <trkpt lat="45.99686" lon="2.97224">
        <ele>530</ele>
        <time>2015-10-18T22:31:14Z</time>
      </trkpt>
      <trkpt lat="45.99714" lon="2.97206">
        <ele>535</ele>
        <time>2015-10-18T22:33:14Z</time>
      </trkpt>
      <trkpt lat="45.99736" lon="2.9718">
        <ele>539</ele>
        <time>2015-10-18T22:35:14Z</time>
      </trkpt>
      <trkpt lat="45.99736" lon="2.97152">
        <ele>538</ele>
        <time>2015-10-18T22:37:14Z</time>
      </trkpt>
      <trkpt lat="45.99728" lon="2.97119">
        <ele>537</ele>
        <time>2015-10-18T22:39:14Z</time>
      </trkpt>
      <trkpt lat="45.99735" lon="2.97069">
        <ele>538</ele>
        <time>2015-10-18T22:41:14Z</time>
      </trkpt>
      <trkpt lat="45.99762" lon="2.97032">
        <ele>542</ele>
        <time>2015-10-18T22:43:14Z</time>
      </trkpt>
      <trkpt lat="45.99779" lon="2.97012">
        <ele>546</ele>
        <time>2015-10-18T22:45:14Z</time>
      </trkpt>
      <trkpt lat="45.99787" lon="2.9696">
        <ele>548</ele>
        <time>2015-10-18T22:47:14Z</time>
      </trkpt>
      <trkpt lat="45.99799" lon="2.96881">
        <ele>550</ele>
        <time>2015-10-18T22:49:14Z</time>
      </trkpt>
      <trkpt lat="45.99816" lon="2.96817">
        <ele>552</ele>
        <time>2015-10-18T22:51:14Z</time>
      </trkpt>
      <trkpt lat="45.99814" lon="2.96845">
        <ele>553</ele>
        <time>2015-10-18T22:53:14Z</time>
      </trkpt>
      <trkpt lat="45.99811" lon="2.96901">
        <ele>554</ele>
        <time>2015-10-18T22:55:14Z</time>
      </trkpt>
      <trkpt lat="45.99817" lon="2.96939">
        <ele>556</ele>
        <time>2015-10-18T22:57:14Z</time>
      </trkpt>
      <trkpt lat="45.99822" lon="2.96958">
        <ele>557</ele>
        <time>2015-10-18T22:59:14Z</time>
      </trkpt>
      <trkpt lat="45.99816" lon="2.9702">
        <ele>557</ele>
        <time>2015-10-18T23:01:14Z</time>
      </trkpt>
      <trkpt lat="45.99811" lon="2.97057">
        <ele>556</ele>
        <time>2015-10-18T23:03:14Z</time>
      </trkpt>
      <trkpt lat="45.9982" lon="2.97084">
        <ele>559</ele>
        <time>2015-10-18T23:05:14Z</time>
      </trkpt>
      <trkpt lat="45.99836" lon="2.97116">
        <ele>562</ele>
        <time>2015-10-18T23:07:14Z</time>
      </trkpt>
      <trkpt lat="45.9985" lon="2.97119">
        <ele>563</ele>
        <time>2015-10-18T23:09:14Z</time>
      </trkpt>
      <trkpt lat="45.99905" lon="2.97076">
        <ele>570</ele>
        <time>2015-10-18T23:11:14Z</time>
      </trkpt>
      <trkpt lat="45.99941" lon="2.97053">
        <ele>574</ele>
        <time>2015-10-18T23:13:14Z</time>
      </trkpt>
      <trkpt lat="45.99979" lon="2.97027">
        <ele>578</ele>
        <time>2015-10-18T23:15:14Z</time>
      </trkpt>
      <trkpt lat="46.00008" lon="2.96995">
        <ele>582</ele>
        <time>2015-10-18T23:17:14Z</time>
      </trkpt>
      <trkpt lat="46.00039" lon="2.96961">
        <ele>584</ele>
        <time>2015-10-18T23:19:14Z</time>
      </trkpt>
      <trkpt lat="46.0006" lon="2.96926">
        <ele>586</ele>
        <time>2015-10-18T23:21:14Z</time>
      </trkpt>
      <trkpt lat="46.00078" lon="2.96909">
        <ele>587</ele>
        <time>2015-10-18T23:23:14Z</time>
      </trkpt>
      <trkpt lat="46.00101" lon="2.96905">
        <ele>587</ele>
        <time>2015-10-18T23:25:14Z</time>
      </trkpt>
      <trkpt lat="46.00122" lon="2.96911">
        <ele>588</ele>
        <time>2015-10-18T23:27:14Z</time>
      </trkpt>
      <trkpt lat="46.00142" lon="2.96887">
        <ele>589</ele>
        <time>2015-10-18T23:29:14Z</time>
      </trkpt>
      <trkpt lat="46.00154" lon="2.96873">
        <ele>589</ele>
        <time>2015-10-18T23:31:14Z</time>
      </trkpt>
      <trkpt lat="46.00174" lon="2.96878">
        <ele>590</ele>
        <time>2015-10-18T23:33:14Z</time>
      </trkpt>
      <trkpt lat="46.00207" lon="2.96921">
        <ele>592</ele>
        <time>2015-10-18T23:35:14Z</time>
      </trkpt>
      <trkpt lat="46.00261" lon="2.9694">
        <ele>593</ele>
        <time>2015-10-18T23:37:14Z</time>
      </trkpt>
      <trkpt lat="46.00279" lon="2.96921">
        <ele>595</ele>
        <time>2015-10-18T23:39:14Z</time>
      </trkpt>
      <trkpt lat="46.00297" lon="2.96919">
        <ele>596</ele>
        <time>2015-10-18T23:41:14Z</time>
      </trkpt>
      <trkpt lat="46.00329" lon="2.96922">
        <ele>598</ele>
        <time>2015-10-18T23:43:14Z</time>
      </trkpt>
      <trkpt lat="46.00353" lon="2.96934">
        <ele>600</ele>
        <time>2015-10-18T23:45:14Z</time>
      </trkpt>
      <trkpt lat="46.00367" lon="2.96934">
        <ele>601</ele>
        <time>2015-10-18T23:47:14Z</time>
      </trkpt>
      <trkpt lat="46.00376" lon="2.9692">
        <ele>603</ele>
        <time>2015-10-18T23:49:14Z</time>
      </trkpt>
      <trkpt lat="46.00405" lon="2.96939">
        <ele>605</ele>
        <time>2015-10-18T23:51:14Z</time>
      </trkpt>
      <trkpt lat="46.00438" lon="2.96955">
        <ele>607</ele>
        <time>2015-10-18T23:53:14Z</time>
      </trkpt>
      <trkpt lat="46.00508" lon="2.96986">
        <ele>611</ele>
        <time>2015-10-18T23:55:14Z</time>
      </trkpt>
      <trkpt lat="46.00548" lon="2.96988">
        <ele>612</ele>
        <time>2015-10-18T23:57:14Z</time>
      </trkpt>
      <trkpt lat="46.00604" lon="2.97003">
        <ele>617</ele>
        <time>2015-10-18T23:59:14Z</time>
      </trkpt>
      <trkpt lat="46.00649" lon="2.9702">
        <ele>622</ele>
        <time>2015-10-19T00:01:14Z</time>
      </trkpt>
      <trkpt lat="46.0068" lon="2.97024">
        <ele>625</ele>
        <time>2015-10-19T00:03:14Z</time>
      </trkpt>
      <trkpt lat="46.00727" lon="2.97034">
        <ele>629</ele>
        <time>2015-10-19T00:05:14Z</time>
      </trkpt>
      <trkpt lat="46.00786" lon="2.97043">
        <ele>636</ele>
        <time>2015-10-19T00:07:14Z</time>
      </trkpt>
      <trkpt lat="46.00809" lon="2.97057">
        <ele>640</ele>
        <time>2015-10-19T00:09:14Z</time>
      </trkpt>
      <trkpt lat="46.00832" lon="2.97084">
        <ele>644</ele>
        <time>2015-10-19T00:11:14Z</time>
      </trkpt>
      <trkpt lat="46.00841" lon="2.97097">
        <ele>644</ele>
        <time>2015-10-19T00:13:14Z</time>
      </trkpt>
      <trkpt lat="46.00864" lon="2.97092">
        <ele>644</ele>
        <time>2015-10-19T00:15:14Z</time>
      </trkpt>
      <trkpt lat="46.00923" lon="2.97091">
        <ele>645</ele>
        <time>2015-10-19T00:17:14Z</time>
      </trkpt>
      <trkpt lat="46.00992" lon="2.97119">
        <ele>646</ele>
        <time>2015-10-19T00:19:14Z</time>
      </trkpt>
      <trkpt lat="46.01028" lon="2.97137">
        <ele>647</ele>
        <time>2015-10-19T00:21:14Z</time>
      </trkpt>
      <trkpt lat="46.01071" lon="2.97146">
        <ele>648</ele>
        <time>2015-10-19T00:23:14Z</time>
      </trkpt>
      <trkpt lat="46.01084" lon="2.97115">
        <ele>648</ele>
        <time>2015-10-19T00:25:14Z</time>
      </trkpt>
      <trkpt lat="46.01159" lon="2.97128">
        <ele>649</ele>
        <time>2015-10-19T00:27:14Z</time>
      </trkpt>
      <trkpt lat="46.01251" lon="2.97149">
        <ele>653</ele>
        <time>2015-10-19T00:29:14Z</time>
      </trkpt>
      <trkpt lat="46.01274" lon="2.97163">
        <ele>653</ele>
        <time>2015-10-19T00:31:14Z</time>
      </trkpt>
      <trkpt lat="46.0131" lon="2.97231">
        <ele>654</ele>
        <time>2015-10-19T00:33:14Z</time>
      </trkpt>
      <trkpt lat="46.01368" lon="2.97185">
        <ele>657</ele>
        <time>2015-10-19T00:35:14Z</time>
      </trkpt>
      <trkpt lat="46.014" lon="2.97131">
        <ele>659</ele>
        <time>2015-10-19T00:37:14Z</time>
      </trkpt>
      <trkpt lat="46.01434" lon="2.97064">
        <ele>662</ele>
        <time>2015-10-19T00:39:14Z</time>
      </trkpt>
      <trkpt lat="46.01443" lon="2.97019">
        <ele>666</ele>
        <time>2015-10-19T00:41:14Z</time>
      </trkpt>
      <trkpt lat="46.01449" lon="2.96965">
        <ele>669</ele>
        <time>2015-10-19T00:43:14Z</time>
      </trkpt>
      <trkpt lat="46.01461" lon="2.96946">
        <ele>670</ele>
        <time>2015-10-19T00:45:14Z</time>
      </trkpt>
      <trkpt lat="46.01499" lon="2.96893">
        <ele>674</ele>
        <time>2015-10-19T00:47:14Z</time>
      </trkpt>
      <trkpt lat="46.01563" lon="2.96798">
        <ele>672</ele>
        <time>2015-10-19T00:49:14Z</time>
      </trkpt>
      <trkpt lat="46.01592" lon="2.96775">
        <ele>671</ele>
        <time>2015-10-19T00:51:14Z</time>
      </trkpt>
      <trkpt lat="46.01639" lon="2.96752">
        <ele>671</ele>
        <time>2015-10-19T00:53:14Z</time>
      </trkpt>
      <trkpt lat="46.01714" lon="2.9673">
        <ele>671</ele>
        <time>2015-10-19T00:55:14Z</time>
      </trkpt>
      <trkpt lat="46.01744" lon="2.96721">
        <ele>671</ele>
        <time>2015-10-19T00:57:14Z</time>
      </trkpt>
      <trkpt lat="46.01788" lon="2.967">
        <ele>671</ele>
        <time>2015-10-19T00:59:14Z</time>
      </trkpt>
      <trkpt lat="46.01826" lon="2.96683">
        <ele>672</ele>
        <time>2015-10-19T01:01:14Z</time>
      </trkpt>
      <trkpt lat="46.01846" lon="2.96672">
        <ele>673</ele>
        <time>2015-10-19T01:03:14Z</time>
      </trkpt>
      <trkpt lat="46.01891" lon="2.96622">
        <ele>673</ele>
        <time>2015-10-19T01:05:14Z</time>
      </trkpt>
      <trkpt lat="46.01945" lon="2.96536">
        <ele>676</ele>
        <time>2015-10-19T01:07:14Z</time>
      </trkpt>
      <trkpt lat="46.01978" lon="2.96508">
        <ele>679</ele>
        <time>2015-10-19T01:09:14Z</time>
      </trkpt>
      <trkpt lat="46.02033" lon="2.96458">
        <ele>684</ele>
        <time>2015-10-19T01:11:14Z</time>
      </trkpt>
      <trkpt lat="46.02045" lon="2.96441">
        <ele>684</ele>
        <time>2015-10-19T01:13:14Z</time>
      </trkpt>
      <trkpt lat="46.02077" lon="2.96412">
        <ele>685</ele>
        <time>2015-10-19T01:15:14Z</time>
      </trkpt>
      <trkpt lat="46.02118" lon="2.96386">
        <ele>684</ele>
        <time>2015-10-19T01:17:14Z</time>
      </trkpt>
      <trkpt lat="46.02171" lon="2.96359">
        <ele>682</ele>
        <time>2015-10-19T01:19:14Z</time>
      </trkpt>
      <trkpt lat="46.02206" lon="2.96331">
        <ele>680</ele>
        <time>2015-10-19T01:21:14Z</time>
      </trkpt>
      <trkpt lat="46.02249" lon="2.96302">
        <ele>678</ele>
        <time>2015-10-19T01:23:14Z</time>
      </trkpt>
      <trkpt lat="46.02277" lon="2.96273">
        <ele>676</ele>
        <time>2015-10-19T01:25:14Z</time>
      </trkpt>
      <trkpt lat="46.02293" lon="2.96241">
        <ele>674</ele>
        <time>2015-10-19T01:27:14Z</time>
      </trkpt>
      <trkpt lat="46.02301" lon="2.96194">
        <ele>671</ele>
        <time>2015-10-19T01:29:14Z</time>
      </trkpt>
      <trkpt lat="46.02309" lon="2.96145">
        <ele>669</ele>
        <time>2015-10-19T01:31:14Z</time>
      </trkpt>
      <trkpt lat="46.02315" lon="2.96083">
        <ele>668</ele>
        <time>2015-10-19T01:33:14Z</time>
      </trkpt>
      <trkpt lat="46.02314" lon="2.9599">
        <ele>669</ele>
        <time>2015-10-19T01:35:14Z</time>
      </trkpt>
      <trkpt lat="46.02314" lon="2.9594">
        <ele>670</ele>
        <time>2015-10-19T01:37:14Z</time>
      </trkpt>
      <trkpt lat="46.02326" lon="2.95842">
        <ele>669</ele>
        <time>2015-10-19T01:39:14Z</time>
      </trkpt>
      <trkpt lat="46.0234" lon="2.95789">
        <ele>668</ele>
        <time>2015-10-19T01:41:14Z</time>
      </trkpt>
      <trkpt lat="46.02349" lon="2.95759">
        <ele>668</ele>
        <time>2015-10-19T01:43:14Z</time>
      </trkpt>
      <trkpt lat="46.02368" lon="2.95673">
        <ele>667</ele>
        <time>2015-10-19T01:45:14Z</time>
      </trkpt>
      <trkpt lat="46.02381" lon="2.95612">
        <ele>668</ele>
        <time>2015-10-19T01:47:14Z</time>
      </trkpt>
      <trkpt lat="46.02399" lon="2.95577">
        <ele>669</ele>
        <time>2015-10-19T01:49:14Z</time>
      </trkpt>
      <trkpt lat="46.02417" lon="2.9554">
        <ele>670</ele>
        <time>2015-10-19T01:51:14Z</time>
      </trkpt>
      <trkpt lat="46.02419" lon="2.9552">
        <ele>670</ele>
        <time>2015-10-19T01:53:14Z</time>
      </trkpt>
      <trkpt lat="46.02426" lon="2.95473">
        <ele>670</ele>
        <time>2015-10-19T01:55:14Z</time>
      </trkpt>
      <trkpt lat="46.02431" lon="2.95373">
        <ele>670</ele>
        <time>2015-10-19T01:57:14Z</time>
      </trkpt>
      <trkpt lat="46.02433" lon="2.95357">
        <ele>670</ele>
        <time>2015-10-19T01:59:14Z</time>
      </trkpt>
      <trkpt lat="46.0242" lon="2.95308">
        <ele>671</ele>
        <time>2015-10-19T02:01:14Z</time>
      </trkpt>
      <trkpt lat="46.02411" lon="2.95244">
        <ele>672</ele>
        <time>2015-10-19T02:03:14Z</time>
      </trkpt>
      <trkpt lat="46.02419" lon="2.95214">
        <ele>673</ele>
        <time>2015-10-19T02:05:14Z</time>
      </trkpt>
      <trkpt lat="46.02431" lon="2.95182">
        <ele>673</ele>
        <time>2015-10-19T02:07:14Z</time>
      </trkpt>
      <trkpt lat="46.02431" lon="2.95143">
        <ele>674</ele>
        <time>2015-10-19T02:09:14Z</time>
      </trkpt>
      <trkpt lat="46.02423" lon="2.95104">
        <ele>677</ele>
        <time>2015-10-19T02:11:14Z</time>
      </trkpt>
      <trkpt lat="46.02413" lon="2.95059">
        <ele>680</ele>
        <time>2015-10-19T02:13:14Z</time>
      </trkpt>
      <trkpt lat="46.02423" lon="2.9501">
        <ele>681</ele>
        <time>2015-10-19T02:15:14Z</time>
      </trkpt>
      <trkpt lat="46.02446" lon="2.94959">
        <ele>684</ele>
        <time>2015-10-19T02:17:14Z</time>
      </trkpt>
      <trkpt lat="46.02465" lon="2.94826">
        <ele>692</ele>
        <time>2015-10-19T02:19:14Z</time>
      </trkpt>
      <trkpt lat="46.02476" lon="2.94732">
        <ele>697</ele>
        <time>2015-10-19T02:21:14Z</time>
      </trkpt>
      <trkpt lat="46.02488" lon="2.94685">
        <ele>699</ele>
        <time>2015-10-19T02:23:14Z</time>
      </trkpt>
      <trkpt lat="46.0251" lon="2.94643">
        <ele>698</ele>
        <time>2015-10-19T02:25:14Z</time>
      </trkpt>
      <trkpt lat="46.02523" lon="2.94623">
        <ele>696</ele>
        <time>2015-10-19T02:27:14Z</time>
      </trkpt>
      <trkpt lat="46.02538" lon="2.94575">
        <ele>694</ele>
        <time>2015-10-19T02:29:14Z</time>
      </trkpt>
      <trkpt lat="46.02548" lon="2.9454">
        <ele>690</ele>
        <time>2015-10-19T02:31:14Z</time>
      </trkpt>
      <trkpt lat="46.02658" lon="2.94461">
        <ele>681</ele>
        <time>2015-10-19T02:33:14Z</time>
      </trkpt>
      <trkpt lat="46.0267" lon="2.94442">
        <ele>681</ele>
        <time>2015-10-19T02:35:14Z</time>
      </trkpt>
      <trkpt lat="46.02682" lon="2.94404">
        <ele>681</ele>
        <time>2015-10-19T02:37:14Z</time>
      </trkpt>
      <trkpt lat="46.02694" lon="2.94352">
        <ele>680</ele>
        <time>2015-10-19T02:39:14Z</time>
      </trkpt>
      <trkpt lat="46.02701" lon="2.94306">
        <ele>677</ele>
        <time>2015-10-19T02:41:14Z</time>
      </trkpt>
      <trkpt lat="46.02687" lon="2.94278">
        <ele>676</ele>
        <time>2015-10-19T02:43:14Z</time>
      </trkpt>
      <trkpt lat="46.02662" lon="2.94252">
        <ele>676</ele>
        <time>2015-10-19T02:45:14Z</time>
      </trkpt>
      <trkpt lat="46.02641" lon="2.94243">
        <ele>678</ele>
        <time>2015-10-19T02:47:14Z</time>
      </trkpt>
      <trkpt lat="46.02635" lon="2.94201">
        <ele>677</ele>
        <time>2015-10-19T02:49:14Z</time>
      </trkpt>
      <trkpt lat="46.02639" lon="2.94139">
        <ele>678</ele>
        <time>2015-10-19T02:51:14Z</time>
      </trkpt>
      <trkpt lat="46.02662" lon="2.94127">
        <ele>677</ele>
        <time>2015-10-19T02:53:14Z</time>
      </trkpt>
      <trkpt lat="46.02684" lon="2.941">
        <ele>677</ele>
        <time>2015-10-19T02:55:14Z</time>
      </trkpt>
      <trkpt lat="46.02698" lon="2.94083">
        <ele>676</ele>
        <time>2015-10-19T02:57:14Z</time>
      </trkpt>
      <trkpt lat="46.02723" lon="2.94021">
        <ele>677</ele>
        <time>2015-10-19T02:59:14Z</time>
      </trkpt>
      <trkpt lat="46.0273" lon="2.93977">
        <ele>678</ele>
        <time>2015-10-19T03:01:14Z</time>
      </trkpt>
      <trkpt lat="46.02748" lon="2.93898">
        <ele>676</ele>
        <time>2015-10-19T03:03:14Z</time>
      </trkpt>
      <trkpt lat="46.02657" lon="2.93872">
        <ele>690</ele>
        <time>2015-10-19T03:05:14Z</time>
      </trkpt>
      <trkpt lat="46.02589" lon="2.93848">
        <ele>692</ele>
        <time>2015-10-19T03:07:14Z</time>
      </trkpt>
      <trkpt lat="46.02492" lon="2.93837">
        <ele>698</ele>
        <time>2015-10-19T03:09:14Z</time>
      </trkpt>
      <trkpt lat="46.02425" lon="2.93836">
        <ele>705</ele>
        <time>2015-10-19T03:11:14Z</time>
      </trkpt>
      <trkpt lat="46.02363" lon="2.93826">
        <ele>709</ele>
        <time>2015-10-19T03:13:14Z</time>
      </trkpt>
      <trkpt lat="46.02285" lon="2.93818">
        <ele>711</ele>
        <time>2015-10-19T03:15:14Z</time>
      </trkpt>
      <trkpt lat="46.02265" lon="2.93824">
        <ele>713</ele>
        <time>2015-10-19T03:17:14Z</time>
      </trkpt>
      <trkpt lat="46.02209" lon="2.93722">
        <ele>709</ele>
        <time>2015-10-19T03:19:14Z</time>
      </trkpt>
      <trkpt lat="46.02151" lon="2.93624">
        <ele>706</ele>
        <time>2015-10-19T03:21:14Z</time>
      </trkpt>
      <trkpt lat="46.02098" lon="2.93574">
        <ele>703</ele>
        <time>2015-10-19T03:23:14Z</time>
      </trkpt>
      <trkpt lat="46.0206" lon="2.93531">
        <ele>699</ele>
        <time>2015-10-19T03:25:14Z</time>
      </trkpt>
      <trkpt lat="46.02031" lon="2.93534">
        <ele>700</ele>
        <time>2015-10-19T03:27:14Z</time>
      </trkpt>
      <trkpt lat="46.01958" lon="2.93546">
        <ele>703</ele>
        <time>2015-10-19T03:29:14Z</time>
      </trkpt>
      <trkpt lat="46.01917" lon="2.9354">
        <ele>702</ele>
        <time>2015-10-19T03:31:14Z</time>
      </trkpt>
      <trkpt lat="46.01904" lon="2.93511">
        <ele>698</ele>
        <time>2015-10-19T03:33:14Z</time>
      </trkpt>
      <trkpt lat="46.01865" lon="2.935">
        <ele>697</ele>
        <time>2015-10-19T03:35:14Z</time>
      </trkpt>
      <trkpt lat="46.01847" lon="2.93367">
        <ele>687</ele>
        <time>2015-10-19T03:37:14Z</time>
      </trkpt>
      <trkpt lat="46.01733" lon="2.93299">
        <ele>675</ele>
        <time>2015-10-19T03:39:14Z</time>
      </trkpt>
      <trkpt lat="46.01545" lon="2.93259">
        <ele>659</ele>
        <time>2015-10-19T03:41:14Z</time>
      </trkpt>
      <trkpt lat="46.01538" lon="2.93238">
        <ele>657</ele>
        <time>2015-10-19T03:43:14Z</time>
      </trkpt>
      <trkpt lat="46.01538" lon="2.9321">
        <ele>654</ele>
        <time>2015-10-19T03:45:14Z</time>
      </trkpt>
      <trkpt lat="46.01556" lon="2.93186">
        <ele>651</ele>
        <time>2015-10-19T03:47:14Z</time>
      </trkpt>
      <trkpt lat="46.01598" lon="2.93124">
        <ele>644</ele>
        <time>2015-10-19T03:49:14Z</time>
      </trkpt>
      <trkpt lat="46.01566" lon="2.93046">
        <ele>637</ele>
        <time>2015-10-19T03:51:14Z</time>
      </trkpt>
      <trkpt lat="46.01554" lon="2.93012">
        <ele>634</ele>
        <time>2015-10-19T03:53:14Z</time>
      </trkpt>
      <trkpt lat="46.01548" lon="2.92991">
        <ele>632</ele>
        <time>2015-10-19T03:55:14Z</time>
      </trkpt>
      <trkpt lat="46.01555" lon="2.92959">
        <ele>629</ele>
        <time>2015-10-19T03:57:14Z</time>
      </trkpt>
      <trkpt lat="46.01568" lon="2.92944">
        <ele>628</ele>
        <time>2015-10-19T03:59:14Z</time>
      </trkpt>
      <trkpt lat="46.01577" lon="2.92937">
        <ele>627</ele>
        <time>2015-10-19T04:01:14Z</time>
      </trkpt>
      <trkpt lat="46.01588" lon="2.92908">
        <ele>626</ele>
        <time>2015-10-19T04:03:14Z</time>
      </trkpt>
      <trkpt lat="46.01589" lon="2.92883">
        <ele>625</ele>
        <time>2015-10-19T04:05:14Z</time>
      </trkpt>
      <trkpt lat="46.01586" lon="2.92857">
        <ele>624</ele>
        <time>2015-10-19T04:07:14Z</time>
      </trkpt>
      <trkpt lat="46.01576" lon="2.92833">
        <ele>621</ele>
        <time>2015-10-19T04:09:14Z</time>
      </trkpt>
      <trkpt lat="46.01585" lon="2.928">
        <ele>622</ele>
        <time>2015-10-19T04:11:14Z</time>
      </trkpt>
      <trkpt lat="46.01601" lon="2.92755">
        <ele>625</ele>
        <time>2015-10-19T04:13:14Z</time>
      </trkpt>
      <trkpt lat="46.01612" lon="2.92725">
        <ele>627</ele>
        <time>2015-10-19T04:15:14Z</time>
      </trkpt>
      <trkpt lat="46.01616" lon="2.92699">
        <ele>627</ele>
        <time>2015-10-19T04:17:14Z</time>
      </trkpt>
      <trkpt lat="46.01615" lon="2.92623">
        <ele>625</ele>
        <time>2015-10-19T04:19:14Z</time>
      </trkpt>
      <trkpt lat="46.01636" lon="2.9252">
        <ele>623</ele>
        <time>2015-10-19T04:21:14Z</time>
      </trkpt>
      <trkpt lat="46.01655" lon="2.92465">
        <ele>622</ele>
        <time>2015-10-19T04:23:14Z</time>
      </trkpt>
      <trkpt lat="46.01711" lon="2.92418">
        <ele>625</ele>
        <time>2015-10-19T04:25:14Z</time>
      </trkpt>
      <trkpt lat="46.01761" lon="2.92362">
        <ele>621</ele>
        <time>2015-10-19T04:27:14Z</time>
      </trkpt>
      <trkpt lat="46.01799" lon="2.92335">
        <ele>618</ele>
        <time>2015-10-19T04:29:14Z</time>
      </trkpt>
      <trkpt lat="46.01888" lon="2.923">
        <ele>617</ele>
        <time>2015-10-19T04:31:14Z</time>
      </trkpt>
      <trkpt lat="46.0194" lon="2.92256">
        <ele>614</ele>
        <time>2015-10-19T04:33:14Z</time>
      </trkpt>
      <trkpt lat="46.01969" lon="2.92225">
        <ele>614</ele>
        <time>2015-10-19T04:35:14Z</time>
      </trkpt>
      <trkpt lat="46.01996" lon="2.92224">
        <ele>618</ele>
        <time>2015-10-19T04:37:14Z</time>
      </trkpt>
      <trkpt lat="46.02027" lon="2.92205">
        <ele>619</ele>
        <time>2015-10-19T04:39:14Z</time>
      </trkpt>
      <trkpt lat="46.02055" lon="2.9217">
        <ele>620</ele>
        <time>2015-10-19T04:41:14Z</time>
      </trkpt>
      <trkpt lat="46.02059" lon="2.9215">
        <ele>621</ele>
        <time>2015-10-19T04:43:14Z</time>
      </trkpt>
      <trkpt lat="46.02136" lon="2.92088">
        <ele>623</ele>
        <time>2015-10-19T04:45:14Z</time>
      </trkpt>
      <trkpt lat="46.02161" lon="2.9206">
        <ele>621</ele>
        <time>2015-10-19T04:47:14Z</time>
      </trkpt>
      <trkpt lat="46.02174" lon="2.92035">
        <ele>619</ele>
        <time>2015-10-19T04:49:14Z</time>
      </trkpt>
      <trkpt lat="46.02176" lon="2.92002">
        <ele>617</ele>
        <time>2015-10-19T04:51:14Z</time>
      </trkpt>
      <trkpt lat="46.02174" lon="2.91979">
        <ele>617</ele>
        <time>2015-10-19T04:53:14Z</time>
      </trkpt>
      <trkpt lat="46.02168" lon="2.91944">
        <ele>616</ele>
        <time>2015-10-19T04:55:14Z</time>
      </trkpt>
      <trkpt lat="46.0216" lon="2.91887">
        <ele>615</ele>
        <time>2015-10-19T04:57:14Z</time>
      </trkpt>
      <trkpt lat="46.02183" lon="2.9176">
        <ele>605</ele>
        <time>2015-10-19T04:59:14Z</time>
      </trkpt>
      <trkpt lat="46.02203" lon="2.91713">
        <ele>599</ele>
        <time>2015-10-19T05:01:14Z</time>
      </trkpt>
      <trkpt lat="46.02219" lon="2.91667">
        <ele>594</ele>
        <time>2015-10-19T05:03:14Z</time>
      </trkpt>
      <trkpt lat="46.02232" lon="2.91603">
        <ele>585</ele>
        <time>2015-10-19T05:05:14Z</time>
      </trkpt>
      <trkpt lat="46.02238" lon="2.91567">
        <ele>579</ele>
        <time>2015-10-19T05:07:14Z</time>
      </trkpt>
      <trkpt lat="46.02246" lon="2.91509">
        <ele>569</ele>
        <time>2015-10-19T05:09:14Z</time>
      </trkpt>
      <trkpt lat="46.02258" lon="2.91509">
        <ele>567</ele>
        <time>2015-10-19T05:11:14Z</time>
      </trkpt>
      <trkpt lat="46.02279" lon="2.91538">
        <ele>568</ele>
        <time>2015-10-19T05:13:14Z</time>
      </trkpt>
      <trkpt lat="46.02308" lon="2.91584">
        <ele>569</ele>
        <time>2015-10-19T05:15:14Z</time>
      </trkpt>
      <trkpt lat="46.02321" lon="2.91618">
        <ele>569</ele>
        <time>2015-10-19T05:17:14Z</time>
      </trkpt>
      <trkpt lat="46.02329" lon="2.91657">
        <ele>569</ele>
        <time>2015-10-19T05:19:14Z</time>
      </trkpt>
      <trkpt lat="46.02326" lon="2.91701">
        <ele>571</ele>
        <time>2015-10-19T05:21:14Z</time>
      </trkpt>
      <trkpt lat="46.02322" lon="2.91724">
        <ele>572</ele>
        <time>2015-10-19T05:23:14Z</time>
      </trkpt>
      <trkpt lat="46.02304" lon="2.91743">
        <ele>577</ele>
        <time>2015-10-19T05:25:14Z</time>
      </trkpt>
      <trkpt lat="46.023" lon="2.91762">
        <ele>579</ele>
        <time>2015-10-19T05:27:14Z</time>
      </trkpt>
      <trkpt lat="46.02316" lon="2.91797">
        <ele>576</ele>
        <time>2015-10-19T05:29:14Z</time>
      </trkpt>
      <trkpt lat="46.02377" lon="2.91916">
        <ele>569</ele>
        <time>2015-10-19T05:31:14Z</time>
      </trkpt>
      <trkpt lat="46.02381" lon="2.91966">
        <ele>568</ele>
        <time>2015-10-19T05:33:14Z</time>
      </trkpt>
      <trkpt lat="46.02383" lon="2.92034">
        <ele>566</ele>
        <time>2015-10-19T05:35:14Z</time>
      </trkpt>
      <trkpt lat="46.02386" lon="2.92108">
        <ele>563</ele>
        <time>2015-10-19T05:37:14Z</time>
      </trkpt>
      <trkpt lat="46.02386" lon="2.92175">
        <ele>562</ele>
        <time>2015-10-19T05:39:14Z</time>
      </trkpt>
      <trkpt lat="46.02382" lon="2.92268">
        <ele>563</ele>
        <time>2015-10-19T05:41:14Z</time>
      </trkpt>
      <trkpt lat="46.02402" lon="2.92302">
        <ele>559</ele>
        <time>2015-10-19T05:43:14Z</time>
      </trkpt>
      <trkpt lat="46.02413" lon="2.92317">
        <ele>556</ele>
        <time>2015-10-19T05:45:14Z</time>
      </trkpt>
      <trkpt lat="46.02425" lon="2.92323">
        <ele>556</ele>
        <time>2015-10-19T05:47:14Z</time>
      </trkpt>
      <trkpt lat="46.02422" lon="2.92268">
        <ele>555</ele>
        <time>2015-10-19T05:49:14Z</time>
      </trkpt>
      <trkpt lat="46.02425" lon="2.92203">
        <ele>555</ele>
        <time>2015-10-19T05:51:14Z</time>
      </trkpt>
      <trkpt lat="46.0243" lon="2.92151">
        <ele>554</ele>
        <time>2015-10-19T05:53:14Z</time>
      </trkpt>
      <trkpt lat="46.02434" lon="2.92102">
        <ele>552</ele>
        <time>2015-10-19T05:55:14Z</time>
      </trkpt>
      <trkpt lat="46.02437" lon="2.92071">
        <ele>551</ele>
        <time>2015-10-19T05:57:14Z</time>
      </trkpt>
      <trkpt lat="46.02448" lon="2.92033">
        <ele>551</ele>
        <time>2015-10-19T05:59:14Z</time>
      </trkpt>
      <trkpt lat="46.02462" lon="2.92004">
        <ele>548</ele>
        <time>2015-10-19T06:01:14Z</time>
      </trkpt>
      <trkpt lat="46.02475" lon="2.91996">
        <ele>546</ele>
        <time>2015-10-19T06:03:14Z</time>
      </trkpt>
      <trkpt lat="46.0249" lon="2.9196">
        <ele>540</ele>
        <time>2015-10-19T06:05:14Z</time>
      </trkpt>
      <trkpt lat="46.02504" lon="2.9192">
        <ele>533</ele>
        <time>2015-10-19T06:07:14Z</time>
      </trkpt>
      <trkpt lat="46.02519" lon="2.91882">
        <ele>532</ele>
        <time>2015-10-19T06:09:14Z</time>
      </trkpt>
      <trkpt lat="46.02535" lon="2.91852">
        <ele>530</ele>
        <time>2015-10-19T06:11:14Z</time>
      </trkpt>
      <trkpt lat="46.02541" lon="2.91809">
        <ele>524</ele>
        <time>2015-10-19T06:13:14Z</time>
      </trkpt>
      <trkpt lat="46.02547" lon="2.91781">
        <ele>520</ele>
        <time>2015-10-19T06:15:14Z</time>
      </trkpt>
      <trkpt lat="46.02557" lon="2.91734">
        <ele>513</ele>
        <time>2015-10-19T06:17:14Z</time>
      </trkpt>
      <trkpt lat="46.02558" lon="2.91694">
        <ele>509</ele>
        <time>2015-10-19T06:19:14Z</time>
      </trkpt>
      <trkpt lat="46.02552" lon="2.91645">
        <ele>503</ele>
        <time>2015-10-19T06:21:14Z</time>
      </trkpt>
      <trkpt lat="46.02547" lon="2.91595">
        <ele>499</ele>
        <time>2015-10-19T06:23:14Z</time>
      </trkpt>
      <trkpt lat="46.02543" lon="2.91549">
        <ele>495</ele>
        <time>2015-10-19T06:25:14Z</time>
      </trkpt>
      <trkpt lat="46.02545" lon="2.91497">
        <ele>491</ele>
        <time>2015-10-19T06:27:14Z</time>
      </trkpt>
      <trkpt lat="46.02547" lon="2.91465">
        <ele>489</ele>
        <time>2015-10-19T06:29:14Z</time>
      </trkpt>
      <trkpt lat="46.02548" lon="2.9143">
        <ele>488</ele>
        <time>2015-10-19T06:31:14Z</time>
      </trkpt>
      <trkpt lat="46.02537" lon="2.91451">
        <ele>487</ele>
        <time>2015-10-19T06:33:14Z</time>
      </trkpt>
      <trkpt lat="46.02527" lon="2.91429">
        <ele>484</ele>
        <time>2015-10-19T06:35:14Z</time>
      </trkpt>
      <trkpt lat="46.02514" lon="2.91342">
        <ele>471</ele>
        <time>2015-10-19T06:37:14Z</time>
      </trkpt>
      <trkpt lat="46.02507" lon="2.91297">
        <ele>463</ele>
        <time>2015-10-19T06:39:14Z</time>
      </trkpt>
      <trkpt lat="46.02506" lon="2.91254">
        <ele>457</ele>
        <time>2015-10-19T06:41:14Z</time>
      </trkpt>
      <trkpt lat="46.02515" lon="2.91178">
        <ele>445</ele>
        <time>2015-10-19T06:43:14Z</time>
      </trkpt>
      <trkpt lat="46.02519" lon="2.91141">
        <ele>437</ele>
        <time>2015-10-19T06:45:14Z</time>
      </trkpt>
      <trkpt lat="46.02501" lon="2.91149">
        <ele>435</ele>
        <time>2015-10-19T06:47:14Z</time>
      </trkpt>
      <trkpt lat="46.02495" lon="2.91122">
        <ele>431</ele>
        <time>2015-10-19T06:49:14Z</time>
      </trkpt>
      <trkpt lat="46.02501" lon="2.91092">
        <ele>423</ele>
        <time>2015-10-19T06:51:14Z</time>
      </trkpt>
      <trkpt lat="46.02508" lon="2.9104">
        <ele>409</ele>
        <time>2015-10-19T06:53:14Z</time>
      </trkpt>
      <trkpt lat="46.02522" lon="2.91031">
        <ele>406</ele>
        <time>2015-10-19T06:55:14Z</time>
      </trkpt>
      <trkpt lat="46.02551" lon="2.91025">
        <ele>404</ele>
        <time>2015-10-19T06:57:14Z</time>
      </trkpt>
      <trkpt lat="46.02564" lon="2.91023">
        <ele>403</ele>
        <time>2015-10-19T06:59:14Z</time>
      </trkpt>
      <trkpt lat="46.02615" lon="2.91037">
        <ele>405</ele>
        <time>2015-10-19T07:01:14Z</time>
      </trkpt>
      <trkpt lat="46.02639" lon="2.91048">
        <ele>408</ele>
        <time>2015-10-19T07:03:14Z</time>
      </trkpt>
      <trkpt lat="46.02684" lon="2.91049">
        <ele>409</ele>
        <time>2015-10-19T07:05:14Z</time>
      </trkpt>
      <trkpt lat="46.02723" lon="2.91028">
        <ele>408</ele>
        <time>2015-10-19T07:07:14Z</time>
      </trkpt>
      <trkpt lat="46.02751" lon="2.91002">
        <ele>403</ele>
        <time>2015-10-19T07:09:14Z</time>
      </trkpt>
      <trkpt lat="46.02797" lon="2.90948">
        <ele>403</ele>
        <time>2015-10-19T07:11:14Z</time>
      </trkpt>
      <trkpt lat="46.02834" lon="2.90893">
        <ele>394</ele>
        <time>2015-10-19T07:13:14Z</time>
      </trkpt>
      <trkpt lat="46.0287" lon="2.9084">
        <ele>394</ele>
        <time>2015-10-19T07:15:14Z</time>
      </trkpt>
      <trkpt lat="46.02898" lon="2.90824">
        <ele>396</ele>
        <time>2015-10-19T07:17:14Z</time>
      </trkpt>
      <trkpt lat="46.02946" lon="2.90808">
        <ele>399</ele>
        <time>2015-10-19T07:19:14Z</time>
      </trkpt>
      <trkpt lat="46.02986" lon="2.90794">
        <ele>400</ele>
        <time>2015-10-19T07:21:14Z</time>
      </trkpt>
      <trkpt lat="46.02992" lon="2.90785">
        <ele>398</ele>
        <time>2015-10-19T07:23:14Z</time>
      </trkpt>
      <trkpt lat="46.02961" lon="2.90778">
        <ele>394</ele>
        <time>2015-10-19T07:25:14Z</time>
      </trkpt>
      <trkpt lat="46.02951" lon="2.9076">
        <ele>389</ele>
        <time>2015-10-19T07:27:14Z</time>
      </trkpt>
      <trkpt lat="46.02914" lon="2.90754">
        <ele>387</ele>
        <time>2015-10-19T07:29:14Z</time>
      </trkpt>
      <trkpt lat="46.02869" lon="2.9075">
        <ele>389</ele>
        <time>2015-10-19T07:31:14Z</time>
      </trkpt>
      <trkpt lat="46.02917" lon="2.90678">
        <ele>388</ele>
        <time>2015-10-19T07:33:14Z</time>
      </trkpt>
      <trkpt lat="46.02923" lon="2.90672">
        <ele>388</ele>
        <time>2015-10-19T07:35:14Z</time>
      </trkpt>
      <trkpt lat="46.02912" lon="2.90666">
        <ele>389</ele>
        <time>2015-10-19T07:37:14Z</time>
      </trkpt>
      <trkpt lat="46.02905" lon="2.90646">
        <ele>390</ele>
        <time>2015-10-19T07:39:14Z</time>
      </trkpt>
      <trkpt lat="46.02901" lon="2.90618">
        <ele>390</ele>
        <time>2015-10-19T07:41:14Z</time>
      </trkpt>
      <trkpt lat="46.02922" lon="2.90603">
        <ele>387</ele>
        <time>2015-10-19T07:43:14Z</time>
      </trkpt>
      <trkpt lat="46.02951" lon="2.90585">
        <ele>388</ele>
        <time>2015-10-19T07:45:14Z</time>
      </trkpt>
      <trkpt lat="46.03009" lon="2.90549">
        <ele>392</ele>
        <time>2015-10-19T07:47:14Z</time>
      </trkpt>
      <trkpt lat="46.03025" lon="2.9055">
        <ele>393</ele>
        <time>2015-10-19T07:49:14Z</time>
      </trkpt>
      <trkpt lat="46.03092" lon="2.9057">
        <ele>393</ele>
        <time>2015-10-19T07:51:14Z</time>
      </trkpt>
      <trkpt lat="46.03111" lon="2.90582">
        <ele>391</ele>
        <time>2015-10-19T07:53:14Z</time>
      </trkpt>
      <trkpt lat="46.03117" lon="2.90589">
        <ele>391</ele>
        <time>2015-10-19T07:55:14Z</time>
      </trkpt>
      <trkpt lat="46.03155" lon="2.90595">
        <ele>395</ele>
        <time>2015-10-19T07:57:14Z</time>
      </trkpt>
    </trkseg>
  </trk>
  <trk>
    <name><![CDATA[--Châtelguyon-- OR-5373983:ser-jb04-b]]></name>
    <trkseg>
      <trkpt lat="45.92549" lon="3.06323">
        <ele>455</ele>
        <time>2015-10-17T14:23:34Z</time>
      </trkpt>
      <trkpt lat="45.92526" lon="3.06317">
        <ele>454</ele>
        <time>2015-10-17T14:25:34Z</time>
      </trkpt>
      <trkpt lat="45.92515" lon="3.06293">
        <ele>455</ele>
        <time>2015-10-17T14:27:34Z</time>
      </trkpt>
      <trkpt lat="45.92506" lon="3.06256">
        <ele>457</ele>
        <time>2015-10-17T14:29:34Z</time>
      </trkpt>
      <trkpt lat="45.92507" lon="3.06194">
        <ele>461</ele>
        <time>2015-10-17T14:31:34Z</time>
      </trkpt>
      <trkpt lat="45.92508" lon="3.06159">
        <ele>463</ele>
        <time>2015-10-17T14:33:34Z</time>
      </trkpt>
      <trkpt lat="45.92508" lon="3.06132">
        <ele>464</ele>
        <time>2015-10-17T14:35:34Z</time>
      </trkpt>
      <trkpt lat="45.92527" lon="3.06123">
        <ele>466</ele>
        <time>2015-10-17T14:37:34Z</time>
      </trkpt>
      <trkpt lat="45.9255" lon="3.06055">
        <ele>473</ele>
        <time>2015-10-17T14:39:34Z</time>
      </trkpt>
      <trkpt lat="45.92574" lon="3.06004">
        <ele>481</ele>
        <time>2015-10-17T14:41:34Z</time>
      </trkpt>
      <trkpt lat="45.9258" lon="3.05954">
        <ele>486</ele>
        <time>2015-10-17T14:43:34Z</time>
      </trkpt>
      <trkpt lat="45.92592" lon="3.05888">
        <ele>495</ele>
        <time>2015-10-17T14:45:34Z</time>
      </trkpt>
      <trkpt lat="45.92619" lon="3.05888">
        <ele>498</ele>
        <time>2015-10-17T14:47:34Z</time>
      </trkpt>
      <trkpt lat="45.92653" lon="3.05913">
        <ele>497</ele>
        <time>2015-10-17T14:49:34Z</time>
      </trkpt>
      <trkpt lat="45.9267" lon="3.05929">
        <ele>497</ele>
        <time>2015-10-17T14:51:34Z</time>
      </trkpt>
      <trkpt lat="45.92684" lon="3.05954">
        <ele>496</ele>
        <time>2015-10-17T14:53:34Z</time>
      </trkpt>
      <trkpt lat="45.92697" lon="3.0597">
        <ele>496</ele>
        <time>2015-10-17T14:55:34Z</time>
      </trkpt>
      <trkpt lat="45.92724" lon="3.05977">
        <ele>498</ele>
        <time>2015-10-17T14:57:34Z</time>
      </trkpt>
      <trkpt lat="45.92745" lon="3.05983">
        <ele>499</ele>
        <time>2015-10-17T14:59:34Z</time>
      </trkpt>
      <trkpt lat="45.92763" lon="3.0599">
        <ele>501</ele>
        <time>2015-10-17T15:01:34Z</time>
      </trkpt>
      <trkpt lat="45.92793" lon="3.06015">
        <ele>502</ele>
        <time>2015-10-17T15:03:34Z</time>
      </trkpt>
      <trkpt lat="45.92827" lon="3.06048">
        <ele>501</ele>
        <time>2015-10-17T15:05:34Z</time>
      </trkpt>
      <trkpt lat="45.92877" lon="3.06091">
        <ele>498</ele>
        <time>2015-10-17T15:07:34Z</time>
      </trkpt>
      <trkpt lat="45.92898" lon="3.06111">
        <ele>497</ele>
        <time>2015-10-17T15:09:34Z</time>
      </trkpt>
      <trkpt lat="45.92928" lon="3.06144">
        <ele>492</ele>
        <time>2015-10-17T15:11:34Z</time>
      </trkpt>
      <trkpt lat="45.92955" lon="3.06165">
        <ele>485</ele>
        <time>2015-10-17T15:13:34Z</time>
      </trkpt>
      <trkpt lat="45.92959" lon="3.06184">
        <ele>483</ele>
        <time>2015-10-17T15:15:34Z</time>
      </trkpt>
      <trkpt lat="45.92954" lon="3.06211">
        <ele>482</ele>
        <time>2015-10-17T15:17:34Z</time>
      </trkpt>
      <trkpt lat="45.92965" lon="3.06207">
        <ele>481</ele>
        <time>2015-10-17T15:19:34Z</time>
      </trkpt>
      <trkpt lat="45.92972" lon="3.06187">
        <ele>481</ele>
        <time>2015-10-17T15:21:34Z</time>
      </trkpt>
      <trkpt lat="45.92976" lon="3.0616">
        <ele>481</ele>
        <time>2015-10-17T15:23:34Z</time>
      </trkpt>
      <trkpt lat="45.92979" lon="3.06122">
        <ele>482</ele>
        <time>2015-10-17T15:25:34Z</time>
      </trkpt>
      <trkpt lat="45.92985" lon="3.06028">
        <ele>483</ele>
        <time>2015-10-17T15:27:34Z</time>
      </trkpt>
      <trkpt lat="45.93001" lon="3.05935">
        <ele>484</ele>
        <time>2015-10-17T15:29:34Z</time>
      </trkpt>
      <trkpt lat="45.9303" lon="3.05864">
        <ele>482</ele>
        <time>2015-10-17T15:31:34Z</time>
      </trkpt>
      <trkpt lat="45.93047" lon="3.05834">
        <ele>478</ele>
        <time>2015-10-17T15:33:34Z</time>
      </trkpt>
      <trkpt lat="45.9308" lon="3.05775">
        <ele>469</ele>
        <time>2015-10-17T15:35:34Z</time>
      </trkpt>
      <trkpt lat="45.93106" lon="3.05728">
        <ele>470</ele>
        <time>2015-10-17T15:37:34Z</time>
      </trkpt>
      <trkpt lat="45.93121" lon="3.05702">
        <ele>468</ele>
        <time>2015-10-17T15:39:34Z</time>
      </trkpt>
      <trkpt lat="45.93126" lon="3.05724">
        <ele>466</ele>
        <time>2015-10-17T15:41:34Z</time>
      </trkpt>
      <trkpt lat="45.93118" lon="3.05747">
        <ele>467</ele>
        <time>2015-10-17T15:43:34Z</time>
      </trkpt>
      <trkpt lat="45.93103" lon="3.05775">
        <ele>466</ele>
        <time>2015-10-17T15:45:34Z</time>
      </trkpt>
      <trkpt lat="45.9308" lon="3.05833">
        <ele>462</ele>
        <time>2015-10-17T15:47:34Z</time>
      </trkpt>
      <trkpt lat="45.93063" lon="3.05876">
        <ele>465</ele>
        <time>2015-10-17T15:49:34Z</time>
      </trkpt>
      <trkpt lat="45.93046" lon="3.05916">
        <ele>467</ele>
        <time>2015-10-17T15:51:34Z</time>
      </trkpt>
      <trkpt lat="45.93029" lon="3.05972">
        <ele>470</ele>
        <time>2015-10-17T15:53:34Z</time>
      </trkpt>
      <trkpt lat="45.93026" lon="3.06061">
        <ele>469</ele>
        <time>2015-10-17T15:55:34Z</time>
      </trkpt>
      <trkpt lat="45.93027" lon="3.0611">
        <ele>468</ele>
        <time>2015-10-17T15:57:34Z</time>
      </trkpt>
      <trkpt lat="45.93033" lon="3.06181">
        <ele>465</ele>
        <time>2015-10-17T15:59:34Z</time>
      </trkpt>
      <trkpt lat="45.93044" lon="3.06225">
        <ele>460</ele>
        <time>2015-10-17T16:01:34Z</time>
      </trkpt>
      <trkpt lat="45.93053" lon="3.06281">
        <ele>454</ele>
        <time>2015-10-17T16:03:34Z</time>
      </trkpt>
      <trkpt lat="45.93076" lon="3.06267">
        <ele>446</ele>
        <time>2015-10-17T16:05:34Z</time>
      </trkpt>
      <trkpt lat="45.93108" lon="3.06203">
        <ele>451</ele>
        <time>2015-10-17T16:07:34Z</time>
      </trkpt>
      <trkpt lat="45.93094" lon="3.06057">
        <ele>454</ele>
        <time>2015-10-17T16:09:34Z</time>
      </trkpt>
      <trkpt lat="45.93096" lon="3.0604">
        <ele>455</ele>
        <time>2015-10-17T16:11:34Z</time>
      </trkpt>
      <trkpt lat="45.93103" lon="3.06068">
        <ele>457</ele>
        <time>2015-10-17T16:13:34Z</time>
      </trkpt>
      <trkpt lat="45.93108" lon="3.06105">
        <ele>458</ele>
        <time>2015-10-17T16:15:34Z</time>
      </trkpt>
      <trkpt lat="45.93112" lon="3.06149">
        <ele>456</ele>
        <time>2015-10-17T16:17:34Z</time>
      </trkpt>
      <trkpt lat="45.9312" lon="3.06179">
        <ele>457</ele>
        <time>2015-10-17T16:19:34Z</time>
      </trkpt>
      <trkpt lat="45.93131" lon="3.06196">
        <ele>458</ele>
        <time>2015-10-17T16:21:34Z</time>
      </trkpt>
      <trkpt lat="45.93154" lon="3.06232">
        <ele>459</ele>
        <time>2015-10-17T16:23:34Z</time>
      </trkpt>
      <trkpt lat="45.93167" lon="3.06258">
        <ele>458</ele>
        <time>2015-10-17T16:25:34Z</time>
      </trkpt>
      <trkpt lat="45.93197" lon="3.06348">
        <ele>458</ele>
        <time>2015-10-17T16:27:34Z</time>
      </trkpt>
      <trkpt lat="45.93211" lon="3.06373">
        <ele>459</ele>
        <time>2015-10-17T16:29:34Z</time>
      </trkpt>
      <trkpt lat="45.93238" lon="3.06408">
        <ele>461</ele>
        <time>2015-10-17T16:31:34Z</time>
      </trkpt>
      <trkpt lat="45.93256" lon="3.06412">
        <ele>464</ele>
        <time>2015-10-17T16:33:34Z</time>
      </trkpt>
      <trkpt lat="45.93277" lon="3.0642">
        <ele>465</ele>
        <time>2015-10-17T16:35:34Z</time>
      </trkpt>
      <trkpt lat="45.93296" lon="3.06425">
        <ele>467</ele>
        <time>2015-10-17T16:37:34Z</time>
      </trkpt>
      <trkpt lat="45.93314" lon="3.06429">
        <ele>469</ele>
        <time>2015-10-17T16:39:34Z</time>
      </trkpt>
      <trkpt lat="45.93338" lon="3.06442">
        <ele>470</ele>
        <time>2015-10-17T16:41:34Z</time>
      </trkpt>
      <trkpt lat="45.93361" lon="3.06453">
        <ele>472</ele>
        <time>2015-10-17T16:43:34Z</time>
      </trkpt>
      <trkpt lat="45.93381" lon="3.06475">
        <ele>470</ele>
        <time>2015-10-17T16:45:34Z</time>
      </trkpt>
      <trkpt lat="45.93397" lon="3.06492">
        <ele>468</ele>
        <time>2015-10-17T16:47:34Z</time>
      </trkpt>
      <trkpt lat="45.93428" lon="3.06513">
        <ele>468</ele>
        <time>2015-10-17T16:49:34Z</time>
      </trkpt>
      <trkpt lat="45.93447" lon="3.06524">
        <ele>468</ele>
        <time>2015-10-17T16:51:34Z</time>
      </trkpt>
      <trkpt lat="45.93459" lon="3.06527">
        <ele>469</ele>
        <time>2015-10-17T16:53:34Z</time>
      </trkpt>
      <trkpt lat="45.9347" lon="3.0652">
        <ele>471</ele>
        <time>2015-10-17T16:55:34Z</time>
      </trkpt>
      <trkpt lat="45.93473" lon="3.06504">
        <ele>473</ele>
        <time>2015-10-17T16:57:34Z</time>
      </trkpt>
      <trkpt lat="45.93476" lon="3.06476">
        <ele>478</ele>
        <time>2015-10-17T16:59:34Z</time>
      </trkpt>
      <trkpt lat="45.93482" lon="3.0646">
        <ele>481</ele>
        <time>2015-10-17T17:01:34Z</time>
      </trkpt>
      <trkpt lat="45.93488" lon="3.06437">
        <ele>486</ele>
        <time>2015-10-17T17:03:34Z</time>
      </trkpt>
      <trkpt lat="45.93482" lon="3.06407">
        <ele>492</ele>
        <time>2015-10-17T17:05:34Z</time>
      </trkpt>
      <trkpt lat="45.93479" lon="3.06384">
        <ele>496</ele>
        <time>2015-10-17T17:07:34Z</time>
      </trkpt>
      <trkpt lat="45.93477" lon="3.06353">
        <ele>502</ele>
        <time>2015-10-17T17:09:34Z</time>
      </trkpt>
      <trkpt lat="45.93481" lon="3.06328">
        <ele>506</ele>
        <time>2015-10-17T17:11:34Z</time>
      </trkpt>
      <trkpt lat="45.93474" lon="3.06278">
        <ele>516</ele>
        <time>2015-10-17T17:13:34Z</time>
      </trkpt>
      <trkpt lat="45.93467" lon="3.06262">
        <ele>520</ele>
        <time>2015-10-17T17:15:34Z</time>
      </trkpt>
      <trkpt lat="45.93459" lon="3.06239">
        <ele>525</ele>
        <time>2015-10-17T17:17:34Z</time>
      </trkpt>
      <trkpt lat="45.9345" lon="3.06221">
        <ele>529</ele>
        <time>2015-10-17T17:19:34Z</time>
      </trkpt>
      <trkpt lat="45.93439" lon="3.06203">
        <ele>533</ele>
        <time>2015-10-17T17:21:34Z</time>
      </trkpt>
      <trkpt lat="45.93415" lon="3.06205">
        <ele>533</ele>
        <time>2015-10-17T17:23:34Z</time>
      </trkpt>
      <trkpt lat="45.93395" lon="3.06202">
        <ele>533</ele>
        <time>2015-10-17T17:25:34Z</time>
      </trkpt>
      <trkpt lat="45.93367" lon="3.06204">
        <ele>531</ele>
        <time>2015-10-17T17:27:34Z</time>
      </trkpt>
      <trkpt lat="45.93334" lon="3.06195">
        <ele>531</ele>
        <time>2015-10-17T17:29:34Z</time>
      </trkpt>
      <trkpt lat="45.93311" lon="3.06187">
        <ele>526</ele>
        <time>2015-10-17T17:31:34Z</time>
      </trkpt>
      <trkpt lat="45.93297" lon="3.06176">
        <ele>524</ele>
        <time>2015-10-17T17:33:34Z</time>
      </trkpt>
      <trkpt lat="45.93288" lon="3.06134">
        <ele>529</ele>
        <time>2015-10-17T17:35:34Z</time>
      </trkpt>
      <trkpt lat="45.93267" lon="3.06072">
        <ele>532</ele>
        <time>2015-10-17T17:37:34Z</time>
      </trkpt>
      <trkpt lat="45.93257" lon="3.06032">
        <ele>534</ele>
        <time>2015-10-17T17:39:34Z</time>
      </trkpt>
      <trkpt lat="45.9325" lon="3.0601">
        <ele>534</ele>
        <time>2015-10-17T17:41:34Z</time>
      </trkpt>
      <trkpt lat="45.93253" lon="3.05988">
        <ele>535</ele>
        <time>2015-10-17T17:43:34Z</time>
      </trkpt>
      <trkpt lat="45.93262" lon="3.05965">
        <ele>535</ele>
        <time>2015-10-17T17:45:34Z</time>
      </trkpt>
      <trkpt lat="45.93278" lon="3.05915">
        <ele>538</ele>
        <time>2015-10-17T17:47:34Z</time>
      </trkpt>
      <trkpt lat="45.93286" lon="3.05883">
        <ele>535</ele>
        <time>2015-10-17T17:49:34Z</time>
      </trkpt>
      <trkpt lat="45.93297" lon="3.05861">
        <ele>535</ele>
        <time>2015-10-17T17:51:34Z</time>
      </trkpt>
      <trkpt lat="45.93314" lon="3.05842">
        <ele>540</ele>
        <time>2015-10-17T17:53:34Z</time>
      </trkpt>
      <trkpt lat="45.93329" lon="3.05797">
        <ele>540</ele>
        <time>2015-10-17T17:55:34Z</time>
      </trkpt>
      <trkpt lat="45.9333" lon="3.05764">
        <ele>536</ele>
        <time>2015-10-17T17:57:34Z</time>
      </trkpt>
      <trkpt lat="45.93326" lon="3.05724">
        <ele>530</ele>
        <time>2015-10-17T17:59:34Z</time>
      </trkpt>
      <trkpt lat="45.9332" lon="3.05692">
        <ele>524</ele>
        <time>2015-10-17T18:01:34Z</time>
      </trkpt>
      <trkpt lat="45.93339" lon="3.05653">
        <ele>527</ele>
        <time>2015-10-17T18:03:34Z</time>
      </trkpt>
      <trkpt lat="45.93351" lon="3.0564">
        <ele>530</ele>
        <time>2015-10-17T18:05:34Z</time>
      </trkpt>
      <trkpt lat="45.93369" lon="3.05612">
        <ele>532</ele>
        <time>2015-10-17T18:07:34Z</time>
      </trkpt>
      <trkpt lat="45.93381" lon="3.05593">
        <ele>533</ele>
        <time>2015-10-17T18:09:34Z</time>
      </trkpt>
      <trkpt lat="45.93405" lon="3.05573">
        <ele>539</ele>
        <time>2015-10-17T18:11:34Z</time>
      </trkpt>
      <trkpt lat="45.93419" lon="3.05559">
        <ele>542</ele>
        <time>2015-10-17T18:13:34Z</time>
      </trkpt>
      <trkpt lat="45.93432" lon="3.05521">
        <ele>537</ele>
        <time>2015-10-17T18:15:34Z</time>
      </trkpt>
      <trkpt lat="45.93452" lon="3.05487">
        <ele>536</ele>
        <time>2015-10-17T18:17:34Z</time>
      </trkpt>
      <trkpt lat="45.93494" lon="3.05464">
        <ele>545</ele>
        <time>2015-10-17T18:19:34Z</time>
      </trkpt>
      <trkpt lat="45.93517" lon="3.05479">
        <ele>555</ele>
        <time>2015-10-17T18:21:34Z</time>
      </trkpt>
      <trkpt lat="45.93552" lon="3.05511">
        <ele>566</ele>
        <time>2015-10-17T18:23:34Z</time>
      </trkpt>
      <trkpt lat="45.93583" lon="3.05526">
        <ele>572</ele>
        <time>2015-10-17T18:25:34Z</time>
      </trkpt>
      <trkpt lat="45.93594" lon="3.05525">
        <ele>575</ele>
        <time>2015-10-17T18:27:34Z</time>
      </trkpt>
      <trkpt lat="45.93595" lon="3.05504">
        <ele>572</ele>
        <time>2015-10-17T18:29:34Z</time>
      </trkpt>
      <trkpt lat="45.9359" lon="3.05486">
        <ele>568</ele>
        <time>2015-10-17T18:31:34Z</time>
      </trkpt>
      <trkpt lat="45.93588" lon="3.05467">
        <ele>565</ele>
        <time>2015-10-17T18:33:34Z</time>
      </trkpt>
      <trkpt lat="45.93594" lon="3.0542">
        <ele>561</ele>
        <time>2015-10-17T18:35:34Z</time>
      </trkpt>
      <trkpt lat="45.93612" lon="3.05368">
        <ele>561</ele>
        <time>2015-10-17T18:37:34Z</time>
      </trkpt>
      <trkpt lat="45.93637" lon="3.05335">
        <ele>566</ele>
        <time>2015-10-17T18:39:34Z</time>
      </trkpt>
      <trkpt lat="45.93655" lon="3.05288">
        <ele>571</ele>
        <time>2015-10-17T18:41:34Z</time>
      </trkpt>
      <trkpt lat="45.93664" lon="3.05265">
        <ele>573</ele>
        <time>2015-10-17T18:43:34Z</time>
      </trkpt>
      <trkpt lat="45.93676" lon="3.05248">
        <ele>576</ele>
        <time>2015-10-17T18:45:34Z</time>
      </trkpt>
      <trkpt lat="45.93672" lon="3.05228">
        <ele>578</ele>
        <time>2015-10-17T18:47:34Z</time>
      </trkpt>
      <trkpt lat="45.93657" lon="3.05221">
        <ele>575</ele>
        <time>2015-10-17T18:49:34Z</time>
      </trkpt>
      <trkpt lat="45.93602" lon="3.05218">
        <ele>563</ele>
        <time>2015-10-17T18:51:34Z</time>
      </trkpt>
      <trkpt lat="45.93588" lon="3.05204">
        <ele>562</ele>
        <time>2015-10-17T18:53:34Z</time>
      </trkpt>
      <trkpt lat="45.93594" lon="3.05187">
        <ele>566</ele>
        <time>2015-10-17T18:55:34Z</time>
      </trkpt>
      <trkpt lat="45.93614" lon="3.05156">
        <ele>573</ele>
        <time>2015-10-17T18:57:34Z</time>
      </trkpt>
      <trkpt lat="45.93626" lon="3.05132">
        <ele>575</ele>
        <time>2015-10-17T18:59:34Z</time>
      </trkpt>
      <trkpt lat="45.93661" lon="3.05134">
        <ele>585</ele>
        <time>2015-10-17T19:01:34Z</time>
      </trkpt>
      <trkpt lat="45.93679" lon="3.05139">
        <ele>589</ele>
        <time>2015-10-17T19:03:34Z</time>
      </trkpt>
      <trkpt lat="45.93708" lon="3.0515">
        <ele>595</ele>
        <time>2015-10-17T19:05:34Z</time>
      </trkpt>
      <trkpt lat="45.93718" lon="3.05132">
        <ele>598</ele>
        <time>2015-10-17T19:07:34Z</time>
      </trkpt>
      <trkpt lat="45.93747" lon="3.05154">
        <ele>604</ele>
        <time>2015-10-17T19:09:34Z</time>
      </trkpt>
      <trkpt lat="45.93763" lon="3.05155">
        <ele>607</ele>
        <time>2015-10-17T19:11:34Z</time>
      </trkpt>
      <trkpt lat="45.93785" lon="3.05148">
        <ele>612</ele>
        <time>2015-10-17T19:13:34Z</time>
      </trkpt>
      <trkpt lat="45.938" lon="3.05138">
        <ele>615</ele>
        <time>2015-10-17T19:15:34Z</time>
      </trkpt>
      <trkpt lat="45.93823" lon="3.05125">
        <ele>622</ele>
        <time>2015-10-17T19:17:34Z</time>
      </trkpt>
      <trkpt lat="45.9384" lon="3.05117">
        <ele>626</ele>
        <time>2015-10-17T19:19:34Z</time>
      </trkpt>
      <trkpt lat="45.93864" lon="3.05128">
        <ele>628</ele>
        <time>2015-10-17T19:21:34Z</time>
      </trkpt>
      <trkpt lat="45.93876" lon="3.05143">
        <ele>628</ele>
        <time>2015-10-17T19:23:34Z</time>
      </trkpt>
      <trkpt lat="45.93899" lon="3.05151">
        <ele>630</ele>
        <time>2015-10-17T19:25:34Z</time>
      </trkpt>
      <trkpt lat="45.9391" lon="3.05171">
        <ele>630</ele>
        <time>2015-10-17T19:27:34Z</time>
      </trkpt>
      <trkpt lat="45.93918" lon="3.05199">
        <ele>629</ele>
        <time>2015-10-17T19:29:34Z</time>
      </trkpt>
      <trkpt lat="45.93922" lon="3.05212">
        <ele>628</ele>
        <time>2015-10-17T19:31:34Z</time>
      </trkpt>
      <trkpt lat="45.93926" lon="3.05248">
        <ele>624</ele>
        <time>2015-10-17T19:33:34Z</time>
      </trkpt>
      <trkpt lat="45.93932" lon="3.05293">
        <ele>623</ele>
        <time>2015-10-17T19:35:34Z</time>
      </trkpt>
      <trkpt lat="45.93938" lon="3.05318">
        <ele>621</ele>
        <time>2015-10-17T19:37:34Z</time>
      </trkpt>
      <trkpt lat="45.93942" lon="3.05357">
        <ele>621</ele>
        <time>2015-10-17T19:39:34Z</time>
      </trkpt>
      <trkpt lat="45.93949" lon="3.05395">
        <ele>622</ele>
        <time>2015-10-17T19:41:34Z</time>
      </trkpt>
      <trkpt lat="45.93959" lon="3.05421">
        <ele>621</ele>
        <time>2015-10-17T19:43:34Z</time>
      </trkpt>
      <trkpt lat="45.93977" lon="3.0547">
        <ele>621</ele>
        <time>2015-10-17T19:45:34Z</time>
      </trkpt>
      <trkpt lat="45.93991" lon="3.05523">
        <ele>622</ele>
        <time>2015-10-17T19:47:34Z</time>
      </trkpt>
      <trkpt lat="45.94002" lon="3.05554">
        <ele>622</ele>
        <time>2015-10-17T19:49:34Z</time>
      </trkpt>
      <trkpt lat="45.94006" lon="3.05587">
        <ele>623</ele>
        <time>2015-10-17T19:51:34Z</time>
      </trkpt>
      <trkpt lat="45.94035" lon="3.05689">
        <ele>621</ele>
        <time>2015-10-17T19:53:34Z</time>
      </trkpt>
      <trkpt lat="45.9405" lon="3.05746">
        <ele>618</ele>
        <time>2015-10-17T19:55:34Z</time>
      </trkpt>
      <trkpt lat="45.94064" lon="3.05788">
        <ele>615</ele>
        <time>2015-10-17T19:57:34Z</time>
      </trkpt>
      <trkpt lat="45.94076" lon="3.05835">
        <ele>613</ele>
        <time>2015-10-17T19:59:34Z</time>
      </trkpt>
      <trkpt lat="45.94087" lon="3.05861">
        <ele>611</ele>
        <time>2015-10-17T20:01:34Z</time>
      </trkpt>
      <trkpt lat="45.94095" lon="3.05911">
        <ele>607</ele>
        <time>2015-10-17T20:03:34Z</time>
      </trkpt>
      <trkpt lat="45.94149" lon="3.05912">
        <ele>607</ele>
        <time>2015-10-17T20:05:34Z</time>
      </trkpt>
      <trkpt lat="45.94172" lon="3.05914">
        <ele>607</ele>
        <time>2015-10-17T20:07:34Z</time>
      </trkpt>
      <trkpt lat="45.94207" lon="3.05909">
        <ele>604</ele>
        <time>2015-10-17T20:09:34Z</time>
      </trkpt>
      <trkpt lat="45.94264" lon="3.05896">
        <ele>599</ele>
        <time>2015-10-17T20:11:34Z</time>
      </trkpt>
      <trkpt lat="45.94305" lon="3.0589">
        <ele>593</ele>
        <time>2015-10-17T20:13:34Z</time>
      </trkpt>
      <trkpt lat="45.9431" lon="3.05927">
        <ele>593</ele>
        <time>2015-10-17T20:15:34Z</time>
      </trkpt>
      <trkpt lat="45.94309" lon="3.05952">
        <ele>592</ele>
        <time>2015-10-17T20:17:34Z</time>
      </trkpt>
      <trkpt lat="45.94301" lon="3.05994">
        <ele>593</ele>
        <time>2015-10-17T20:19:34Z</time>
      </trkpt>
      <trkpt lat="45.9432" lon="3.06056">
        <ele>588</ele>
        <time>2015-10-17T20:21:34Z</time>
      </trkpt>
      <trkpt lat="45.94367" lon="3.0604">
        <ele>580</ele>
        <time>2015-10-17T20:23:34Z</time>
      </trkpt>
      <trkpt lat="45.94408" lon="3.06041">
        <ele>571</ele>
        <time>2015-10-17T20:25:34Z</time>
      </trkpt>
      <trkpt lat="45.94437" lon="3.06057">
        <ele>564</ele>
        <time>2015-10-17T20:27:34Z</time>
      </trkpt>
      <trkpt lat="45.94488" lon="3.06061">
        <ele>552</ele>
        <time>2015-10-17T20:29:34Z</time>
      </trkpt>
      <trkpt lat="45.94525" lon="3.06064">
        <ele>544</ele>
        <time>2015-10-17T20:31:34Z</time>
      </trkpt>
      <trkpt lat="45.94543" lon="3.06096">
        <ele>539</ele>
        <time>2015-10-17T20:33:34Z</time>
      </trkpt>
      <trkpt lat="45.9456" lon="3.06115">
        <ele>538</ele>
        <time>2015-10-17T20:35:34Z</time>
      </trkpt>
      <trkpt lat="45.94584" lon="3.06124">
        <ele>534</ele>
        <time>2015-10-17T20:37:34Z</time>
      </trkpt>
      <trkpt lat="45.94611" lon="3.06126">
        <ele>529</ele>
        <time>2015-10-17T20:39:34Z</time>
      </trkpt>
      <trkpt lat="45.94634" lon="3.06135">
        <ele>525</ele>
        <time>2015-10-17T20:41:34Z</time>
      </trkpt>
      <trkpt lat="45.94659" lon="3.06146">
        <ele>521</ele>
        <time>2015-10-17T20:43:34Z</time>
      </trkpt>
      <trkpt lat="45.94675" lon="3.06162">
        <ele>519</ele>
        <time>2015-10-17T20:45:34Z</time>
      </trkpt>
      <trkpt lat="45.94717" lon="3.06177">
        <ele>514</ele>
        <time>2015-10-17T20:47:34Z</time>
      </trkpt>
      <trkpt lat="45.94748" lon="3.06185">
        <ele>511</ele>
        <time>2015-10-17T20:49:34Z</time>
      </trkpt>
      <trkpt lat="45.94766" lon="3.06193">
        <ele>507</ele>
        <time>2015-10-17T20:51:34Z</time>
      </trkpt>
      <trkpt lat="45.94781" lon="3.06204">
        <ele>504</ele>
        <time>2015-10-17T20:53:34Z</time>
      </trkpt>
      <trkpt lat="45.94795" lon="3.06236">
        <ele>503</ele>
        <time>2015-10-17T20:55:34Z</time>
      </trkpt>
      <trkpt lat="45.94809" lon="3.06269">
        <ele>502</ele>
        <time>2015-10-17T20:57:34Z</time>
      </trkpt>
      <trkpt lat="45.94822" lon="3.06305">
        <ele>501</ele>
        <time>2015-10-17T20:59:34Z</time>
      </trkpt>
      <trkpt lat="45.94813" lon="3.06248">
        <ele>499</ele>
        <time>2015-10-17T21:01:34Z</time>
      </trkpt>
      <trkpt lat="45.94808" lon="3.06209">
        <ele>497</ele>
        <time>2015-10-17T21:03:34Z</time>
      </trkpt>
      <trkpt lat="45.94804" lon="3.06178">
        <ele>494</ele>
        <time>2015-10-17T21:05:34Z</time>
      </trkpt>
      <trkpt lat="45.9479" lon="3.06162">
        <ele>497</ele>
        <time>2015-10-17T21:07:34Z</time>
      </trkpt>
      <trkpt lat="45.94776" lon="3.06152">
        <ele>500</ele>
        <time>2015-10-17T21:09:34Z</time>
      </trkpt>
      <trkpt lat="45.9476" lon="3.06147">
        <ele>505</ele>
        <time>2015-10-17T21:11:34Z</time>
      </trkpt>
      <trkpt lat="45.94772" lon="3.06134">
        <ele>501</ele>
        <time>2015-10-17T21:13:34Z</time>
      </trkpt>
      <trkpt lat="45.94796" lon="3.0614">
        <ele>494</ele>
        <time>2015-10-17T21:15:34Z</time>
      </trkpt>
      <trkpt lat="45.94809" lon="3.06145">
        <ele>490</ele>
        <time>2015-10-17T21:17:34Z</time>
      </trkpt>
      <trkpt lat="45.94816" lon="3.06165">
        <ele>490</ele>
        <time>2015-10-17T21:19:34Z</time>
      </trkpt>
      <trkpt lat="45.94817" lon="3.06189">
        <ele>492</ele>
        <time>2015-10-17T21:21:34Z</time>
      </trkpt>
      <trkpt lat="45.94836" lon="3.0622">
        <ele>489</ele>
        <time>2015-10-17T21:23:34Z</time>
      </trkpt>
      <trkpt lat="45.94855" lon="3.06263">
        <ele>486</ele>
        <time>2015-10-17T21:25:34Z</time>
      </trkpt>
      <trkpt lat="45.94887" lon="3.06337">
        <ele>478</ele>
        <time>2015-10-17T21:27:34Z</time>
      </trkpt>
      <trkpt lat="45.94909" lon="3.06383">
        <ele>476</ele>
        <time>2015-10-17T21:29:34Z</time>
      </trkpt>
      <trkpt lat="45.94939" lon="3.06372">
        <ele>469</ele>
        <time>2015-10-17T21:31:34Z</time>
      </trkpt>
      <trkpt lat="45.94958" lon="3.06396">
        <ele>466</ele>
        <time>2015-10-17T21:33:34Z</time>
      </trkpt>
      <trkpt lat="45.94973" lon="3.06421">
        <ele>462</ele>
        <time>2015-10-17T21:35:34Z</time>
      </trkpt>
      <trkpt lat="45.94991" lon="3.06445">
        <ele>457</ele>
        <time>2015-10-17T21:37:34Z</time>
      </trkpt>
      <trkpt lat="45.94998" lon="3.06472">
        <ele>455</ele>
        <time>2015-10-17T21:39:34Z</time>
      </trkpt>
      <trkpt lat="45.95001" lon="3.06511">
        <ele>455</ele>
        <time>2015-10-17T21:41:34Z</time>
      </trkpt>
      <trkpt lat="45.95012" lon="3.06547">
        <ele>457</ele>
        <time>2015-10-17T21:43:34Z</time>
      </trkpt>
      <trkpt lat="45.9502" lon="3.06614">
        <ele>457</ele>
        <time>2015-10-17T21:45:34Z</time>
      </trkpt>
      <trkpt lat="45.95022" lon="3.06671">
        <ele>458</ele>
        <time>2015-10-17T21:47:34Z</time>
      </trkpt>
      <trkpt lat="45.95033" lon="3.06714">
        <ele>458</ele>
        <time>2015-10-17T21:49:34Z</time>
      </trkpt>
      <trkpt lat="45.95035" lon="3.0675">
        <ele>458</ele>
        <time>2015-10-17T21:51:34Z</time>
      </trkpt>
      <trkpt lat="45.95039" lon="3.06809">
        <ele>454</ele>
        <time>2015-10-17T21:53:34Z</time>
      </trkpt>
      <trkpt lat="45.95042" lon="3.06879">
        <ele>447</ele>
        <time>2015-10-17T21:55:34Z</time>
      </trkpt>
      <trkpt lat="45.95043" lon="3.06927">
        <ele>441</ele>
        <time>2015-10-17T21:57:34Z</time>
      </trkpt>
      <trkpt lat="45.95045" lon="3.06955">
        <ele>438</ele>
        <time>2015-10-17T21:59:34Z</time>
      </trkpt>
      <trkpt lat="45.95042" lon="3.0702">
        <ele>433</ele>
        <time>2015-10-17T22:01:34Z</time>
      </trkpt>
      <trkpt lat="45.95054" lon="3.07016">
        <ele>432</ele>
        <time>2015-10-17T22:03:34Z</time>
      </trkpt>
      <trkpt lat="45.95073" lon="3.06996">
        <ele>431</ele>
        <time>2015-10-17T22:05:34Z</time>
      </trkpt>
      <trkpt lat="45.95091" lon="3.06974">
        <ele>434</ele>
        <time>2015-10-17T22:07:34Z</time>
      </trkpt>
      <trkpt lat="45.95109" lon="3.06969">
        <ele>437</ele>
        <time>2015-10-17T22:09:34Z</time>
      </trkpt>
      <trkpt lat="45.95126" lon="3.06989">
        <ele>436</ele>
        <time>2015-10-17T22:11:34Z</time>
      </trkpt>
      <trkpt lat="45.95139" lon="3.07006">
        <ele>435</ele>
        <time>2015-10-17T22:13:34Z</time>
      </trkpt>
      <trkpt lat="45.95157" lon="3.07012">
        <ele>437</ele>
        <time>2015-10-17T22:15:34Z</time>
      </trkpt>
      <trkpt lat="45.95174" lon="3.07009">
        <ele>439</ele>
        <time>2015-10-17T22:17:34Z</time>
      </trkpt>
      <trkpt lat="45.95192" lon="3.07022">
        <ele>440</ele>
        <time>2015-10-17T22:19:34Z</time>
      </trkpt>
      <trkpt lat="45.95201" lon="3.07053">
        <ele>439</ele>
        <time>2015-10-17T22:21:34Z</time>
      </trkpt>
      <trkpt lat="45.95209" lon="3.07071">
        <ele>439</ele>
        <time>2015-10-17T22:23:34Z</time>
      </trkpt>
      <trkpt lat="45.95225" lon="3.07075">
        <ele>441</ele>
        <time>2015-10-17T22:25:34Z</time>
      </trkpt>
      <trkpt lat="45.95283" lon="3.07055">
        <ele>452</ele>
        <time>2015-10-17T22:27:34Z</time>
      </trkpt>
      <trkpt lat="45.95309" lon="3.07057">
        <ele>456</ele>
        <time>2015-10-17T22:29:34Z</time>
      </trkpt>
      <trkpt lat="45.95321" lon="3.07057">
        <ele>458</ele>
        <time>2015-10-17T22:31:34Z</time>
      </trkpt>
      <trkpt lat="45.95336" lon="3.07037">
        <ele>460</ele>
        <time>2015-10-17T22:33:34Z</time>
      </trkpt>
      <trkpt lat="45.95367" lon="3.07031">
        <ele>464</ele>
        <time>2015-10-17T22:35:34Z</time>
      </trkpt>
      <trkpt lat="45.95377" lon="3.07055">
        <ele>464</ele>
        <time>2015-10-17T22:37:34Z</time>
      </trkpt>
      <trkpt lat="45.95389" lon="3.07078">
        <ele>464</ele>
        <time>2015-10-17T22:39:34Z</time>
      </trkpt>
      <trkpt lat="45.95402" lon="3.07092">
        <ele>464</ele>
        <time>2015-10-17T22:41:34Z</time>
      </trkpt>
      <trkpt lat="45.9542" lon="3.07103">
        <ele>466</ele>
        <time>2015-10-17T22:43:34Z</time>
      </trkpt>
      <trkpt lat="45.95446" lon="3.07107">
        <ele>469</ele>
        <time>2015-10-17T22:45:34Z</time>
      </trkpt>
      <trkpt lat="45.95468" lon="3.07125">
        <ele>470</ele>
        <time>2015-10-17T22:47:34Z</time>
      </trkpt>
      <trkpt lat="45.9549" lon="3.07138">
        <ele>472</ele>
        <time>2015-10-17T22:49:34Z</time>
      </trkpt>
      <trkpt lat="45.95504" lon="3.07134">
        <ele>474</ele>
        <time>2015-10-17T22:51:34Z</time>
      </trkpt>
      <trkpt lat="45.95537" lon="3.07085">
        <ele>480</ele>
        <time>2015-10-17T22:53:34Z</time>
      </trkpt>
      <trkpt lat="45.95547" lon="3.07068">
        <ele>483</ele>
        <time>2015-10-17T22:55:34Z</time>
      </trkpt>
      <trkpt lat="45.95549" lon="3.07053">
        <ele>484</ele>
        <time>2015-10-17T22:57:34Z</time>
      </trkpt>
      <trkpt lat="45.95556" lon="3.07005">
        <ele>489</ele>
        <time>2015-10-17T22:59:34Z</time>
      </trkpt>
      <trkpt lat="45.95547" lon="3.06979">
        <ele>490</ele>
        <time>2015-10-17T23:01:34Z</time>
      </trkpt>
      <trkpt lat="45.95543" lon="3.06953">
        <ele>493</ele>
        <time>2015-10-17T23:03:34Z</time>
      </trkpt>
      <trkpt lat="45.95529" lon="3.06929">
        <ele>493</ele>
        <time>2015-10-17T23:05:34Z</time>
      </trkpt>
      <trkpt lat="45.95528" lon="3.06888">
        <ele>497</ele>
        <time>2015-10-17T23:07:34Z</time>
      </trkpt>
      <trkpt lat="45.95532" lon="3.06868">
        <ele>499</ele>
        <time>2015-10-17T23:09:34Z</time>
      </trkpt>
      <trkpt lat="45.95538" lon="3.06839">
        <ele>502</ele>
        <time>2015-10-17T23:11:34Z</time>
      </trkpt>
      <trkpt lat="45.95539" lon="3.06805">
        <ele>505</ele>
        <time>2015-10-17T23:13:34Z</time>
      </trkpt>
      <trkpt lat="45.95533" lon="3.06768">
        <ele>506</ele>
        <time>2015-10-17T23:15:34Z</time>
      </trkpt>
      <trkpt lat="45.95524" lon="3.06736">
        <ele>508</ele>
        <time>2015-10-17T23:17:34Z</time>
      </trkpt>
      <trkpt lat="45.95515" lon="3.06728">
        <ele>508</ele>
        <time>2015-10-17T23:19:34Z</time>
      </trkpt>
      <trkpt lat="45.95491" lon="3.06706">
        <ele>509</ele>
        <time>2015-10-17T23:21:34Z</time>
      </trkpt>
      <trkpt lat="45.95477" lon="3.06694">
        <ele>510</ele>
        <time>2015-10-17T23:23:34Z</time>
      </trkpt>
      <trkpt lat="45.95471" lon="3.06671">
        <ele>514</ele>
        <time>2015-10-17T23:25:34Z</time>
      </trkpt>
      <trkpt lat="45.95468" lon="3.06649">
        <ele>517</ele>
        <time>2015-10-17T23:27:34Z</time>
      </trkpt>
      <trkpt lat="45.95463" lon="3.06622">
        <ele>522</ele>
        <time>2015-10-17T23:29:34Z</time>
      </trkpt>
      <trkpt lat="45.95453" lon="3.06603">
        <ele>524</ele>
        <time>2015-10-17T23:31:34Z</time>
      </trkpt>
      <trkpt lat="45.95451" lon="3.06584">
        <ele>528</ele>
        <time>2015-10-17T23:33:34Z</time>
      </trkpt>
      <trkpt lat="45.95462" lon="3.06564">
        <ele>530</ele>
        <time>2015-10-17T23:35:34Z</time>
      </trkpt>
      <trkpt lat="45.95474" lon="3.06551">
        <ele>532</ele>
        <time>2015-10-17T23:37:34Z</time>
      </trkpt>
      <trkpt lat="45.95491" lon="3.06528">
        <ele>535</ele>
        <time>2015-10-17T23:39:34Z</time>
      </trkpt>
      <trkpt lat="45.95495" lon="3.06515">
        <ele>536</ele>
        <time>2015-10-17T23:41:34Z</time>
      </trkpt>
      <trkpt lat="45.95472" lon="3.06529">
        <ele>535</ele>
        <time>2015-10-17T23:43:34Z</time>
      </trkpt>
      <trkpt lat="45.95471" lon="3.0651">
        <ele>537</ele>
        <time>2015-10-17T23:45:34Z</time>
      </trkpt>
      <trkpt lat="45.95473" lon="3.0649">
        <ele>538</ele>
        <time>2015-10-17T23:47:34Z</time>
      </trkpt>
      <trkpt lat="45.95476" lon="3.06473">
        <ele>540</ele>
        <time>2015-10-17T23:49:34Z</time>
      </trkpt>
      <trkpt lat="45.95477" lon="3.06439">
        <ele>543</ele>
        <time>2015-10-17T23:51:34Z</time>
      </trkpt>
      <trkpt lat="45.95484" lon="3.06323">
        <ele>545</ele>
        <time>2015-10-17T23:53:34Z</time>
      </trkpt>
      <trkpt lat="45.9548" lon="3.06251">
        <ele>547</ele>
        <time>2015-10-17T23:55:34Z</time>
      </trkpt>
      <trkpt lat="45.95478" lon="3.06151">
        <ele>551</ele>
        <time>2015-10-17T23:57:34Z</time>
      </trkpt>
      <trkpt lat="45.95479" lon="3.0597">
        <ele>562</ele>
        <time>2015-10-17T23:59:34Z</time>
      </trkpt>
      <trkpt lat="45.95428" lon="3.05918">
        <ele>565</ele>
        <time>2015-10-18T00:01:34Z</time>
      </trkpt>
      <trkpt lat="45.95411" lon="3.05884">
        <ele>567</ele>
        <time>2015-10-18T00:03:34Z</time>
      </trkpt>
      <trkpt lat="45.95404" lon="3.05866">
        <ele>569</ele>
        <time>2015-10-18T00:05:34Z</time>
      </trkpt>
      <trkpt lat="45.95374" lon="3.05833">
        <ele>573</ele>
        <time>2015-10-18T00:07:34Z</time>
      </trkpt>
      <trkpt lat="45.95353" lon="3.0582">
        <ele>575</ele>
        <time>2015-10-18T00:09:34Z</time>
      </trkpt>
      <trkpt lat="45.95331" lon="3.05813">
        <ele>577</ele>
        <time>2015-10-18T00:11:34Z</time>
      </trkpt>
      <trkpt lat="45.95312" lon="3.05802">
        <ele>579</ele>
        <time>2015-10-18T00:13:34Z</time>
      </trkpt>
      <trkpt lat="45.95294" lon="3.05784">
        <ele>581</ele>
        <time>2015-10-18T00:15:34Z</time>
      </trkpt>
      <trkpt lat="45.95278" lon="3.05745">
        <ele>586</ele>
        <time>2015-10-18T00:17:34Z</time>
      </trkpt>
      <trkpt lat="45.95262" lon="3.05713">
        <ele>590</ele>
        <time>2015-10-18T00:19:34Z</time>
      </trkpt>
      <trkpt lat="45.95252" lon="3.05691">
        <ele>593</ele>
        <time>2015-10-18T00:21:34Z</time>
      </trkpt>
      <trkpt lat="45.95242" lon="3.05662">
        <ele>595</ele>
        <time>2015-10-18T00:23:34Z</time>
      </trkpt>
      <trkpt lat="45.95234" lon="3.0561">
        <ele>595</ele>
        <time>2015-10-18T00:25:34Z</time>
      </trkpt>
      <trkpt lat="45.95224" lon="3.05561">
        <ele>593</ele>
        <time>2015-10-18T00:27:34Z</time>
      </trkpt>
      <trkpt lat="45.9522" lon="3.05529">
        <ele>590</ele>
        <time>2015-10-18T00:29:34Z</time>
      </trkpt>
      <trkpt lat="45.9522" lon="3.05488">
        <ele>588</ele>
        <time>2015-10-18T00:31:34Z</time>
      </trkpt>
      <trkpt lat="45.95222" lon="3.05443">
        <ele>586</ele>
        <time>2015-10-18T00:33:34Z</time>
      </trkpt>
      <trkpt lat="45.95232" lon="3.05419">
        <ele>588</ele>
        <time>2015-10-18T00:35:34Z</time>
      </trkpt>
      <trkpt lat="45.95242" lon="3.0536">
        <ele>588</ele>
        <time>2015-10-18T00:37:34Z</time>
      </trkpt>
      <trkpt lat="45.95242" lon="3.05315">
        <ele>587</ele>
        <time>2015-10-18T00:39:34Z</time>
      </trkpt>
      <trkpt lat="45.95242" lon="3.05242">
        <ele>588</ele>
        <time>2015-10-18T00:41:34Z</time>
      </trkpt>
      <trkpt lat="45.95241" lon="3.05212">
        <ele>590</ele>
        <time>2015-10-18T00:43:34Z</time>
      </trkpt>
      <trkpt lat="45.95223" lon="3.05202">
        <ele>588</ele>
        <time>2015-10-18T00:45:34Z</time>
      </trkpt>
      <trkpt lat="45.95199" lon="3.05221">
        <ele>583</ele>
        <time>2015-10-18T00:47:34Z</time>
      </trkpt>
      <trkpt lat="45.95183" lon="3.05228">
        <ele>580</ele>
        <time>2015-10-18T00:49:34Z</time>
      </trkpt>
      <trkpt lat="45.95176" lon="3.05224">
        <ele>579</ele>
        <time>2015-10-18T00:51:34Z</time>
      </trkpt>
      <trkpt lat="45.95168" lon="3.0521">
        <ele>580</ele>
        <time>2015-10-18T00:53:34Z</time>
      </trkpt>
      <trkpt lat="45.95163" lon="3.05194">
        <ele>581</ele>
        <time>2015-10-18T00:55:34Z</time>
      </trkpt>
      <trkpt lat="45.95151" lon="3.05165">
        <ele>583</ele>
        <time>2015-10-18T00:57:34Z</time>
      </trkpt>
      <trkpt lat="45.95137" lon="3.0513">
        <ele>585</ele>
        <time>2015-10-18T00:59:34Z</time>
      </trkpt>
      <trkpt lat="45.95113" lon="3.05096">
        <ele>585</ele>
        <time>2015-10-18T01:01:34Z</time>
      </trkpt>
      <trkpt lat="45.95097" lon="3.05074">
        <ele>584</ele>
        <time>2015-10-18T01:03:34Z</time>
      </trkpt>
      <trkpt lat="45.95076" lon="3.05044">
        <ele>584</ele>
        <time>2015-10-18T01:05:34Z</time>
      </trkpt>
      <trkpt lat="45.95074" lon="3.05034">
        <ele>584</ele>
        <time>2015-10-18T01:07:34Z</time>
      </trkpt>
      <trkpt lat="45.95079" lon="3.05019">
        <ele>586</ele>
        <time>2015-10-18T01:09:34Z</time>
      </trkpt>
      <trkpt lat="45.95095" lon="3.04997">
        <ele>589</ele>
        <time>2015-10-18T01:11:34Z</time>
      </trkpt>
      <trkpt lat="45.95078" lon="3.0497">
        <ele>589</ele>
        <time>2015-10-18T01:13:34Z</time>
      </trkpt>
      <trkpt lat="45.9506" lon="3.04951">
        <ele>589</ele>
        <time>2015-10-18T01:15:34Z</time>
      </trkpt>
      <trkpt lat="45.95046" lon="3.04926">
        <ele>589</ele>
        <time>2015-10-18T01:17:34Z</time>
      </trkpt>
      <trkpt lat="45.95018" lon="3.04877">
        <ele>586</ele>
        <time>2015-10-18T01:19:34Z</time>
      </trkpt>
      <trkpt lat="45.94985" lon="3.0481">
        <ele>584</ele>
        <time>2015-10-18T01:21:34Z</time>
      </trkpt>
      <trkpt lat="45.94969" lon="3.04766">
        <ele>583</ele>
        <time>2015-10-18T01:23:34Z</time>
      </trkpt>
      <trkpt lat="45.94955" lon="3.04722">
        <ele>583</ele>
        <time>2015-10-18T01:25:34Z</time>
      </trkpt>
      <trkpt lat="45.94938" lon="3.04682">
        <ele>582</ele>
        <time>2015-10-18T01:27:34Z</time>
      </trkpt>
      <trkpt lat="45.94923" lon="3.04652">
        <ele>582</ele>
        <time>2015-10-18T01:29:34Z</time>
      </trkpt>
      <trkpt lat="45.94899" lon="3.046">
        <ele>584</ele>
        <time>2015-10-18T01:31:34Z</time>
      </trkpt>
      <trkpt lat="45.94881" lon="3.04565">
        <ele>585</ele>
        <time>2015-10-18T01:33:34Z</time>
      </trkpt>
      <trkpt lat="45.94862" lon="3.04514">
        <ele>586</ele>
        <time>2015-10-18T01:35:34Z</time>
      </trkpt>
      <trkpt lat="45.94851" lon="3.04433">
        <ele>591</ele>
        <time>2015-10-18T01:37:34Z</time>
      </trkpt>
      <trkpt lat="45.94851" lon="3.04377">
        <ele>593</ele>
        <time>2015-10-18T01:39:34Z</time>
      </trkpt>
      <trkpt lat="45.94842" lon="3.04314">
        <ele>592</ele>
        <time>2015-10-18T01:41:34Z</time>
      </trkpt>
      <trkpt lat="45.94839" lon="3.04259">
        <ele>588</ele>
        <time>2015-10-18T01:43:34Z</time>
      </trkpt>
      <trkpt lat="45.94832" lon="3.04218">
        <ele>585</ele>
        <time>2015-10-18T01:45:34Z</time>
      </trkpt>
      <trkpt lat="45.9483" lon="3.04186">
        <ele>582</ele>
        <time>2015-10-18T01:47:34Z</time>
      </trkpt>
      <trkpt lat="45.94832" lon="3.0415">
        <ele>581</ele>
        <time>2015-10-18T01:49:34Z</time>
      </trkpt>
      <trkpt lat="45.94827" lon="3.04111">
        <ele>581</ele>
        <time>2015-10-18T01:51:34Z</time>
      </trkpt>
      <trkpt lat="45.94818" lon="3.04081">
        <ele>582</ele>
        <time>2015-10-18T01:53:34Z</time>
      </trkpt>
      <trkpt lat="45.94804" lon="3.04085">
        <ele>584</ele>
        <time>2015-10-18T01:55:34Z</time>
      </trkpt>
      <trkpt lat="45.94781" lon="3.04103">
        <ele>586</ele>
        <time>2015-10-18T01:57:34Z</time>
      </trkpt>
      <trkpt lat="45.94767" lon="3.04116">
        <ele>585</ele>
        <time>2015-10-18T01:59:34Z</time>
      </trkpt>
      <trkpt lat="45.94744" lon="3.04126">
        <ele>585</ele>
        <time>2015-10-18T02:01:34Z</time>
      </trkpt>
      <trkpt lat="45.94724" lon="3.04127">
        <ele>587</ele>
        <time>2015-10-18T02:03:34Z</time>
      </trkpt>
      <trkpt lat="45.94699" lon="3.04127">
        <ele>590</ele>
        <time>2015-10-18T02:05:34Z</time>
      </trkpt>
      <trkpt lat="45.94672" lon="3.04133">
        <ele>592</ele>
        <time>2015-10-18T02:07:34Z</time>
      </trkpt>
      <trkpt lat="45.94668" lon="3.04114">
        <ele>594</ele>
        <time>2015-10-18T02:09:34Z</time>
      </trkpt>
      <trkpt lat="45.94672" lon="3.04087">
        <ele>597</ele>
        <time>2015-10-18T02:11:34Z</time>
      </trkpt>
      <trkpt lat="45.94678" lon="3.0405">
        <ele>600</ele>
        <time>2015-10-18T02:13:34Z</time>
      </trkpt>
      <trkpt lat="45.94678" lon="3.04007">
        <ele>605</ele>
        <time>2015-10-18T02:15:34Z</time>
      </trkpt>
      <trkpt lat="45.9464" lon="3.03921">
        <ele>612</ele>
        <time>2015-10-18T02:17:34Z</time>
      </trkpt>
      <trkpt lat="45.94617" lon="3.03876">
        <ele>615</ele>
        <time>2015-10-18T02:19:34Z</time>
      </trkpt>
      <trkpt lat="45.94593" lon="3.03832">
        <ele>617</ele>
        <time>2015-10-18T02:21:34Z</time>
      </trkpt>
      <trkpt lat="45.9456" lon="3.03742">
        <ele>617</ele>
        <time>2015-10-18T02:23:34Z</time>
      </trkpt>
      <trkpt lat="45.94547" lon="3.03736">
        <ele>615</ele>
        <time>2015-10-18T02:25:34Z</time>
      </trkpt>
      <trkpt lat="45.94533" lon="3.03715">
        <ele>613</ele>
        <time>2015-10-18T02:27:34Z</time>
      </trkpt>
      <trkpt lat="45.94528" lon="3.03682">
        <ele>613</ele>
        <time>2015-10-18T02:29:34Z</time>
      </trkpt>
      <trkpt lat="45.94524" lon="3.03644">
        <ele>614</ele>
        <time>2015-10-18T02:31:34Z</time>
      </trkpt>
      <trkpt lat="45.94517" lon="3.03616">
        <ele>613</ele>
        <time>2015-10-18T02:33:34Z</time>
      </trkpt>
      <trkpt lat="45.94512" lon="3.03574">
        <ele>614</ele>
        <time>2015-10-18T02:35:34Z</time>
      </trkpt>
      <trkpt lat="45.94497" lon="3.03536">
        <ele>615</ele>
        <time>2015-10-18T02:37:34Z</time>
      </trkpt>
      <trkpt lat="45.9448" lon="3.03529">
        <ele>617</ele>
        <time>2015-10-18T02:39:34Z</time>
      </trkpt>
      <trkpt lat="45.94463" lon="3.03531">
        <ele>619</ele>
        <time>2015-10-18T02:41:34Z</time>
      </trkpt>
      <trkpt lat="45.94453" lon="3.0355">
        <ele>619</ele>
        <time>2015-10-18T02:43:34Z</time>
      </trkpt>
      <trkpt lat="45.94442" lon="3.03578">
        <ele>617</ele>
        <time>2015-10-18T02:45:34Z</time>
      </trkpt>
      <trkpt lat="45.94432" lon="3.0361">
        <ele>616</ele>
        <time>2015-10-18T02:47:34Z</time>
      </trkpt>
      <trkpt lat="45.94432" lon="3.03647">
        <ele>615</ele>
        <time>2015-10-18T02:49:34Z</time>
      </trkpt>
      <trkpt lat="45.94435" lon="3.03668">
        <ele>614</ele>
        <time>2015-10-18T02:51:34Z</time>
      </trkpt>
      <trkpt lat="45.94427" lon="3.03679">
        <ele>614</ele>
        <time>2015-10-18T02:53:34Z</time>
      </trkpt>
      <trkpt lat="45.94413" lon="3.03681">
        <ele>614</ele>
        <time>2015-10-18T02:55:34Z</time>
      </trkpt>
      <trkpt lat="45.94379" lon="3.03676">
        <ele>615</ele>
        <time>2015-10-18T02:57:34Z</time>
      </trkpt>
      <trkpt lat="45.94338" lon="3.03672">
        <ele>617</ele>
        <time>2015-10-18T02:59:34Z</time>
      </trkpt>
      <trkpt lat="45.94321" lon="3.03677">
        <ele>617</ele>
        <time>2015-10-18T03:01:34Z</time>
      </trkpt>
      <trkpt lat="45.94302" lon="3.03684">
        <ele>618</ele>
        <time>2015-10-18T03:03:34Z</time>
      </trkpt>
      <trkpt lat="45.94271" lon="3.03658">
        <ele>620</ele>
        <time>2015-10-18T03:05:34Z</time>
      </trkpt>
      <trkpt lat="45.94261" lon="3.03647">
        <ele>621</ele>
        <time>2015-10-18T03:07:34Z</time>
      </trkpt>
      <trkpt lat="45.9425" lon="3.03671">
        <ele>621</ele>
        <time>2015-10-18T03:09:34Z</time>
      </trkpt>
      <trkpt lat="45.94256" lon="3.03697">
        <ele>621</ele>
        <time>2015-10-18T03:11:34Z</time>
      </trkpt>
      <trkpt lat="45.94252" lon="3.03725">
        <ele>621</ele>
        <time>2015-10-18T03:13:34Z</time>
      </trkpt>
      <trkpt lat="45.9424" lon="3.03762">
        <ele>622</ele>
        <time>2015-10-18T03:15:34Z</time>
      </trkpt>
      <trkpt lat="45.94227" lon="3.03793">
        <ele>623</ele>
        <time>2015-10-18T03:17:34Z</time>
      </trkpt>
      <trkpt lat="45.94213" lon="3.0381">
        <ele>624</ele>
        <time>2015-10-18T03:19:34Z</time>
      </trkpt>
      <trkpt lat="45.94202" lon="3.03828">
        <ele>625</ele>
        <time>2015-10-18T03:21:34Z</time>
      </trkpt>
      <trkpt lat="45.94187" lon="3.03845">
        <ele>626</ele>
        <time>2015-10-18T03:23:34Z</time>
      </trkpt>
      <trkpt lat="45.94173" lon="3.03865">
        <ele>627</ele>
        <time>2015-10-18T03:25:34Z</time>
      </trkpt>
      <trkpt lat="45.94157" lon="3.03891">
        <ele>627</ele>
        <time>2015-10-18T03:27:34Z</time>
      </trkpt>
      <trkpt lat="45.94138" lon="3.03931">
        <ele>627</ele>
        <time>2015-10-18T03:29:34Z</time>
      </trkpt>
      <trkpt lat="45.94122" lon="3.03961">
        <ele>627</ele>
        <time>2015-10-18T03:31:34Z</time>
      </trkpt>
      <trkpt lat="45.94099" lon="3.0397">
        <ele>628</ele>
        <time>2015-10-18T03:33:34Z</time>
      </trkpt>
      <trkpt lat="45.94079" lon="3.03997">
        <ele>629</ele>
        <time>2015-10-18T03:35:34Z</time>
      </trkpt>
      <trkpt lat="45.94064" lon="3.0404">
        <ele>629</ele>
        <time>2015-10-18T03:37:34Z</time>
      </trkpt>
      <trkpt lat="45.94049" lon="3.04083">
        <ele>629</ele>
        <time>2015-10-18T03:39:34Z</time>
      </trkpt>
      <trkpt lat="45.94032" lon="3.0412">
        <ele>628</ele>
        <time>2015-10-18T03:41:34Z</time>
      </trkpt>
      <trkpt lat="45.94008" lon="3.04142">
        <ele>630</ele>
        <time>2015-10-18T03:43:34Z</time>
      </trkpt>
      <trkpt lat="45.93987" lon="3.04172">
        <ele>632</ele>
        <time>2015-10-18T03:45:34Z</time>
      </trkpt>
      <trkpt lat="45.93988" lon="3.04203">
        <ele>633</ele>
        <time>2015-10-18T03:47:34Z</time>
      </trkpt>
      <trkpt lat="45.93993" lon="3.04246">
        <ele>634</ele>
        <time>2015-10-18T03:49:34Z</time>
      </trkpt>
      <trkpt lat="45.93993" lon="3.0429">
        <ele>637</ele>
        <time>2015-10-18T03:51:34Z</time>
      </trkpt>
      <trkpt lat="45.94002" lon="3.04312">
        <ele>638</ele>
        <time>2015-10-18T03:53:34Z</time>
      </trkpt>
      <trkpt lat="45.93995" lon="3.04352">
        <ele>640</ele>
        <time>2015-10-18T03:55:34Z</time>
      </trkpt>
      <trkpt lat="45.93991" lon="3.04395">
        <ele>640</ele>
        <time>2015-10-18T03:57:34Z</time>
      </trkpt>
      <trkpt lat="45.93977" lon="3.04427">
        <ele>640</ele>
        <time>2015-10-18T03:59:34Z</time>
      </trkpt>
      <trkpt lat="45.93949" lon="3.04451">
        <ele>641</ele>
        <time>2015-10-18T04:01:34Z</time>
      </trkpt>
      <trkpt lat="45.93938" lon="3.04469">
        <ele>641</ele>
        <time>2015-10-18T04:03:34Z</time>
      </trkpt>
      <trkpt lat="45.9389" lon="3.04542">
        <ele>637</ele>
        <time>2015-10-18T04:05:34Z</time>
      </trkpt>
      <trkpt lat="45.93869" lon="3.0457">
        <ele>636</ele>
        <time>2015-10-18T04:07:34Z</time>
      </trkpt>
      <trkpt lat="45.93851" lon="3.04599">
        <ele>636</ele>
        <time>2015-10-18T04:09:34Z</time>
      </trkpt>
      <trkpt lat="45.93847" lon="3.04638">
        <ele>636</ele>
        <time>2015-10-18T04:11:34Z</time>
      </trkpt>
      <trkpt lat="45.93846" lon="3.04702">
        <ele>637</ele>
        <time>2015-10-18T04:13:34Z</time>
      </trkpt>
      <trkpt lat="45.93843" lon="3.04749">
        <ele>638</ele>
        <time>2015-10-18T04:15:34Z</time>
      </trkpt>
      <trkpt lat="45.93849" lon="3.04775">
        <ele>639</ele>
        <time>2015-10-18T04:17:34Z</time>
      </trkpt>
      <trkpt lat="45.93851" lon="3.04824">
        <ele>640</ele>
        <time>2015-10-18T04:19:34Z</time>
      </trkpt>
      <trkpt lat="45.93853" lon="3.04869">
        <ele>640</ele>
        <time>2015-10-18T04:21:34Z</time>
      </trkpt>
      <trkpt lat="45.93855" lon="3.04925">
        <ele>640</ele>
        <time>2015-10-18T04:23:34Z</time>
      </trkpt>
      <trkpt lat="45.93854" lon="3.04964">
        <ele>638</ele>
        <time>2015-10-18T04:25:34Z</time>
      </trkpt>
      <trkpt lat="45.93859" lon="3.05003">
        <ele>637</ele>
        <time>2015-10-18T04:27:34Z</time>
      </trkpt>
      <trkpt lat="45.93878" lon="3.05043">
        <ele>637</ele>
        <time>2015-10-18T04:29:34Z</time>
      </trkpt>
      <trkpt lat="45.93892" lon="3.0507">
        <ele>638</ele>
        <time>2015-10-18T04:31:34Z</time>
      </trkpt>
      <trkpt lat="45.93905" lon="3.05099">
        <ele>637</ele>
        <time>2015-10-18T04:33:34Z</time>
      </trkpt>
      <trkpt lat="45.93908" lon="3.05128">
        <ele>634</ele>
        <time>2015-10-18T04:35:34Z</time>
      </trkpt>
      <trkpt lat="45.93906" lon="3.05153">
        <ele>631</ele>
        <time>2015-10-18T04:37:34Z</time>
      </trkpt>
      <trkpt lat="45.93891" lon="3.05147">
        <ele>629</ele>
        <time>2015-10-18T04:39:34Z</time>
      </trkpt>
      <trkpt lat="45.93855" lon="3.05121">
        <ele>628</ele>
        <time>2015-10-18T04:41:34Z</time>
      </trkpt>
      <trkpt lat="45.93829" lon="3.05121">
        <ele>624</ele>
        <time>2015-10-18T04:43:34Z</time>
      </trkpt>
      <trkpt lat="45.93809" lon="3.05133">
        <ele>618</ele>
        <time>2015-10-18T04:45:34Z</time>
      </trkpt>
      <trkpt lat="45.93792" lon="3.05146">
        <ele>613</ele>
        <time>2015-10-18T04:47:34Z</time>
      </trkpt>
      <trkpt lat="45.93772" lon="3.05154">
        <ele>609</ele>
        <time>2015-10-18T04:49:34Z</time>
      </trkpt>
      <trkpt lat="45.93733" lon="3.05146">
        <ele>601</ele>
        <time>2015-10-18T04:51:34Z</time>
      </trkpt>
      <trkpt lat="45.93718" lon="3.05118">
        <ele>599</ele>
        <time>2015-10-18T04:53:34Z</time>
      </trkpt>
      <trkpt lat="45.93714" lon="3.05082">
        <ele>599</ele>
        <time>2015-10-18T04:55:34Z</time>
      </trkpt>
      <trkpt lat="45.93704" lon="3.05063">
        <ele>596</ele>
        <time>2015-10-18T04:57:34Z</time>
      </trkpt>
      <trkpt lat="45.93682" lon="3.0505">
        <ele>590</ele>
        <time>2015-10-18T04:59:34Z</time>
      </trkpt>
      <trkpt lat="45.93651" lon="3.05046">
        <ele>581</ele>
        <time>2015-10-18T05:01:34Z</time>
      </trkpt>
      <trkpt lat="45.93625" lon="3.05053">
        <ele>573</ele>
        <time>2015-10-18T05:03:34Z</time>
      </trkpt>
      <trkpt lat="45.93598" lon="3.05059">
        <ele>564</ele>
        <time>2015-10-18T05:05:34Z</time>
      </trkpt>
      <trkpt lat="45.93583" lon="3.05085">
        <ele>561</ele>
        <time>2015-10-18T05:07:34Z</time>
      </trkpt>
      <trkpt lat="45.93569" lon="3.05123">
        <ele>558</ele>
        <time>2015-10-18T05:09:34Z</time>
      </trkpt>
      <trkpt lat="45.93565" lon="3.05151">
        <ele>558</ele>
        <time>2015-10-18T05:11:34Z</time>
      </trkpt>
      <trkpt lat="45.93576" lon="3.05195">
        <ele>559</ele>
        <time>2015-10-18T05:13:34Z</time>
      </trkpt>
      <trkpt lat="45.93616" lon="3.0522">
        <ele>566</ele>
        <time>2015-10-18T05:15:34Z</time>
      </trkpt>
      <trkpt lat="45.93636" lon="3.05219">
        <ele>571</ele>
        <time>2015-10-18T05:17:34Z</time>
      </trkpt>
      <trkpt lat="45.93682" lon="3.05236">
        <ele>579</ele>
        <time>2015-10-18T05:19:34Z</time>
      </trkpt>
      <trkpt lat="45.93671" lon="3.0526">
        <ele>575</ele>
        <time>2015-10-18T05:21:34Z</time>
      </trkpt>
      <trkpt lat="45.9366" lon="3.05278">
        <ele>572</ele>
        <time>2015-10-18T05:23:34Z</time>
      </trkpt>
      <trkpt lat="45.9365" lon="3.0531">
        <ele>570</ele>
        <time>2015-10-18T05:25:34Z</time>
      </trkpt>
      <trkpt lat="45.93629" lon="3.05349">
        <ele>565</ele>
        <time>2015-10-18T05:27:34Z</time>
      </trkpt>
      <trkpt lat="45.93603" lon="3.05391">
        <ele>560</ele>
        <time>2015-10-18T05:29:34Z</time>
      </trkpt>
      <trkpt lat="45.93591" lon="3.05435">
        <ele>562</ele>
        <time>2015-10-18T05:31:34Z</time>
      </trkpt>
      <trkpt lat="45.93588" lon="3.05479">
        <ele>567</ele>
        <time>2015-10-18T05:33:34Z</time>
      </trkpt>
      <trkpt lat="45.93597" lon="3.05516">
        <ele>575</ele>
        <time>2015-10-18T05:35:34Z</time>
      </trkpt>
      <trkpt lat="45.93571" lon="3.05523">
        <ele>571</ele>
        <time>2015-10-18T05:37:34Z</time>
      </trkpt>
      <trkpt lat="45.9354" lon="3.05503">
        <ele>563</ele>
        <time>2015-10-18T05:39:34Z</time>
      </trkpt>
      <trkpt lat="45.93527" lon="3.05491">
        <ele>559</ele>
        <time>2015-10-18T05:41:34Z</time>
      </trkpt>
      <trkpt lat="45.93506" lon="3.05469">
        <ele>550</ele>
        <time>2015-10-18T05:43:34Z</time>
      </trkpt>
      <trkpt lat="45.93482" lon="3.05464">
        <ele>541</ele>
        <time>2015-10-18T05:45:34Z</time>
      </trkpt>
      <trkpt lat="45.93467" lon="3.05468">
        <ele>537</ele>
        <time>2015-10-18T05:47:34Z</time>
      </trkpt>
      <trkpt lat="45.93423" lon="3.05541">
        <ele>539</ele>
        <time>2015-10-18T05:49:34Z</time>
      </trkpt>
      <trkpt lat="45.93412" lon="3.05567">
        <ele>541</ele>
        <time>2015-10-18T05:51:34Z</time>
      </trkpt>
      <trkpt lat="45.93393" lon="3.05585">
        <ele>537</ele>
        <time>2015-10-18T05:53:34Z</time>
      </trkpt>
      <trkpt lat="45.9336" lon="3.05625">
        <ele>531</ele>
        <time>2015-10-18T05:55:34Z</time>
      </trkpt>
      <trkpt lat="45.93329" lon="3.05672">
        <ele>526</ele>
        <time>2015-10-18T05:57:34Z</time>
      </trkpt>
      <trkpt lat="45.93313" lon="3.05714">
        <ele>522</ele>
        <time>2015-10-18T05:59:34Z</time>
      </trkpt>
      <trkpt lat="45.93312" lon="3.05748">
        <ele>525</ele>
        <time>2015-10-18T06:01:34Z</time>
      </trkpt>
      <trkpt lat="45.93309" lon="3.05792">
        <ele>530</ele>
        <time>2015-10-18T06:03:34Z</time>
      </trkpt>
      <trkpt lat="45.93296" lon="3.05813">
        <ele>527</ele>
        <time>2015-10-18T06:05:34Z</time>
      </trkpt>
      <trkpt lat="45.93273" lon="3.05828">
        <ele>518</ele>
        <time>2015-10-18T06:07:34Z</time>
      </trkpt>
      <trkpt lat="45.93253" lon="3.05848">
        <ele>513</ele>
        <time>2015-10-18T06:09:34Z</time>
      </trkpt>
      <trkpt lat="45.93242" lon="3.05871">
        <ele>512</ele>
        <time>2015-10-18T06:11:34Z</time>
      </trkpt>
      <trkpt lat="45.93225" lon="3.05901">
        <ele>509</ele>
        <time>2015-10-18T06:13:34Z</time>
      </trkpt>
      <trkpt lat="45.93208" lon="3.05928">
        <ele>504</ele>
        <time>2015-10-18T06:15:34Z</time>
      </trkpt>
      <trkpt lat="45.93196" lon="3.05951">
        <ele>499</ele>
        <time>2015-10-18T06:17:34Z</time>
      </trkpt>
      <trkpt lat="45.93183" lon="3.06012">
        <ele>497</ele>
        <time>2015-10-18T06:19:34Z</time>
      </trkpt>
      <trkpt lat="45.93181" lon="3.06054">
        <ele>494</ele>
        <time>2015-10-18T06:21:34Z</time>
      </trkpt>
      <trkpt lat="45.93185" lon="3.06096">
        <ele>492</ele>
        <time>2015-10-18T06:23:34Z</time>
      </trkpt>
      <trkpt lat="45.93195" lon="3.06148">
        <ele>489</ele>
        <time>2015-10-18T06:25:34Z</time>
      </trkpt>
      <trkpt lat="45.93199" lon="3.06201">
        <ele>483</ele>
        <time>2015-10-18T06:27:34Z</time>
      </trkpt>
      <trkpt lat="45.93206" lon="3.06234">
        <ele>481</ele>
        <time>2015-10-18T06:29:34Z</time>
      </trkpt>
      <trkpt lat="45.93212" lon="3.06272">
        <ele>477</ele>
        <time>2015-10-18T06:31:34Z</time>
      </trkpt>
      <trkpt lat="45.93224" lon="3.06358">
        <ele>467</ele>
        <time>2015-10-18T06:33:34Z</time>
      </trkpt>
      <trkpt lat="45.93239" lon="3.06387">
        <ele>466</ele>
        <time>2015-10-18T06:35:34Z</time>
      </trkpt>
      <trkpt lat="45.93246" lon="3.0641">
        <ele>463</ele>
        <time>2015-10-18T06:37:34Z</time>
      </trkpt>
      <trkpt lat="45.93218" lon="3.0639">
        <ele>458</ele>
        <time>2015-10-18T06:39:34Z</time>
      </trkpt>
      <trkpt lat="45.93184" lon="3.06306">
        <ele>459</ele>
        <time>2015-10-18T06:41:34Z</time>
      </trkpt>
      <trkpt lat="45.93162" lon="3.06247">
        <ele>459</ele>
        <time>2015-10-18T06:43:34Z</time>
      </trkpt>
      <trkpt lat="45.93138" lon="3.0621">
        <ele>458</ele>
        <time>2015-10-18T06:45:34Z</time>
      </trkpt>
      <trkpt lat="45.93112" lon="3.06135">
        <ele>457</ele>
        <time>2015-10-18T06:47:34Z</time>
      </trkpt>
      <trkpt lat="45.93107" lon="3.06081">
        <ele>459</ele>
        <time>2015-10-18T06:49:34Z</time>
      </trkpt>
      <trkpt lat="45.93101" lon="3.0605">
        <ele>457</ele>
        <time>2015-10-18T06:51:34Z</time>
      </trkpt>
      <trkpt lat="45.931" lon="3.06114">
        <ele>454</ele>
        <time>2015-10-18T06:53:34Z</time>
      </trkpt>
      <trkpt lat="45.93107" lon="3.06188">
        <ele>452</ele>
        <time>2015-10-18T06:55:34Z</time>
      </trkpt>
      <trkpt lat="45.93083" lon="3.06252">
        <ele>443</ele>
        <time>2015-10-18T06:57:34Z</time>
      </trkpt>
      <trkpt lat="45.93063" lon="3.06274">
        <ele>451</ele>
        <time>2015-10-18T06:59:34Z</time>
      </trkpt>
      <trkpt lat="45.93055" lon="3.06294">
        <ele>453</ele>
        <time>2015-10-18T07:01:34Z</time>
      </trkpt>
      <trkpt lat="45.9306" lon="3.0632">
        <ele>450</ele>
        <time>2015-10-18T07:03:34Z</time>
      </trkpt>
      <trkpt lat="45.93062" lon="3.06365">
        <ele>448</ele>
        <time>2015-10-18T07:05:34Z</time>
      </trkpt>
      <trkpt lat="45.93059" lon="3.06399">
        <ele>447</ele>
        <time>2015-10-18T07:07:34Z</time>
      </trkpt>
      <trkpt lat="45.93051" lon="3.06429">
        <ele>446</ele>
        <time>2015-10-18T07:09:34Z</time>
      </trkpt>
      <trkpt lat="45.93039" lon="3.06448">
        <ele>446</ele>
        <time>2015-10-18T07:11:34Z</time>
      </trkpt>
      <trkpt lat="45.93029" lon="3.06414">
        <ele>451</ele>
        <time>2015-10-18T07:13:34Z</time>
      </trkpt>
      <trkpt lat="45.93012" lon="3.06397">
        <ele>456</ele>
        <time>2015-10-18T07:15:34Z</time>
      </trkpt>
      <trkpt lat="45.92969" lon="3.06399">
        <ele>459</ele>
        <time>2015-10-18T07:17:34Z</time>
      </trkpt>
      <trkpt lat="45.92872" lon="3.06394">
        <ele>459</ele>
        <time>2015-10-18T07:19:34Z</time>
      </trkpt>
      <trkpt lat="45.92797" lon="3.06394">
        <ele>456</ele>
        <time>2015-10-18T07:21:34Z</time>
      </trkpt>
      <trkpt lat="45.92756" lon="3.06398">
        <ele>454</ele>
        <time>2015-10-18T07:23:34Z</time>
      </trkpt>
      <trkpt lat="45.92724" lon="3.06414">
        <ele>452</ele>
        <time>2015-10-18T07:25:34Z</time>
      </trkpt>
      <trkpt lat="45.92641" lon="3.06443">
        <ele>452</ele>
        <time>2015-10-18T07:27:34Z</time>
      </trkpt>
      <trkpt lat="45.92589" lon="3.06304">
        <ele>457</ele>
        <time>2015-10-18T07:29:34Z</time>
      </trkpt>
      <trkpt lat="45.9256" lon="3.06321">
        <ele>455</ele>
        <time>2015-10-18T07:31:34Z</time>
      </trkpt>
    </trkseg>
  </trk>
  <trk>
    <name><![CDATA[--Châtelguyon-- OR-5375598:ser-jb04-l]]></name>
    <trkseg>
      <trkpt lat="45.92536" lon="3.06321">
        <ele>454</ele>
        <time>2015-10-19T19:01:57Z</time>
      </trkpt>
      <trkpt lat="45.92523" lon="3.0632">
        <ele>453</ele>
        <time>2015-10-19T19:03:57Z</time>
      </trkpt>
      <trkpt lat="45.9251" lon="3.06289">
        <ele>455</ele>
        <time>2015-10-19T19:05:57Z</time>
      </trkpt>
      <trkpt lat="45.925" lon="3.0625">
        <ele>457</ele>
        <time>2015-10-19T19:07:57Z</time>
      </trkpt>
      <trkpt lat="45.92498" lon="3.06216">
        <ele>459</ele>
        <time>2015-10-19T19:09:57Z</time>
      </trkpt>
      <trkpt lat="45.92501" lon="3.06149">
        <ele>463</ele>
        <time>2015-10-19T19:11:57Z</time>
      </trkpt>
      <trkpt lat="45.925" lon="3.06133">
        <ele>463</ele>
        <time>2015-10-19T19:13:57Z</time>
      </trkpt>
      <trkpt lat="45.92516" lon="3.06129">
        <ele>465</ele>
        <time>2015-10-19T19:15:57Z</time>
      </trkpt>
      <trkpt lat="45.92532" lon="3.06106">
        <ele>467</ele>
        <time>2015-10-19T19:17:57Z</time>
      </trkpt>
      <trkpt lat="45.92548" lon="3.06062">
        <ele>473</ele>
        <time>2015-10-19T19:19:57Z</time>
      </trkpt>
      <trkpt lat="45.92564" lon="3.06021">
        <ele>478</ele>
        <time>2015-10-19T19:21:57Z</time>
      </trkpt>
      <trkpt lat="45.92576" lon="3.05993">
        <ele>482</ele>
        <time>2015-10-19T19:23:57Z</time>
      </trkpt>
      <trkpt lat="45.92582" lon="3.05955">
        <ele>486</ele>
        <time>2015-10-19T19:25:57Z</time>
      </trkpt>
      <trkpt lat="45.92591" lon="3.05871">
        <ele>498</ele>
        <time>2015-10-19T19:27:57Z</time>
      </trkpt>
      <trkpt lat="45.92572" lon="3.05859">
        <ele>498</ele>
        <time>2015-10-19T19:29:57Z</time>
      </trkpt>
      <trkpt lat="45.9255" lon="3.05841">
        <ele>500</ele>
        <time>2015-10-19T19:31:57Z</time>
      </trkpt>
      <trkpt lat="45.92528" lon="3.05826">
        <ele>501</ele>
        <time>2015-10-19T19:33:57Z</time>
      </trkpt>
      <trkpt lat="45.92512" lon="3.05812">
        <ele>503</ele>
        <time>2015-10-19T19:35:57Z</time>
      </trkpt>
      <trkpt lat="45.92494" lon="3.05803">
        <ele>503</ele>
        <time>2015-10-19T19:37:57Z</time>
      </trkpt>
      <trkpt lat="45.92478" lon="3.05796">
        <ele>501</ele>
        <time>2015-10-19T19:39:57Z</time>
      </trkpt>
      <trkpt lat="45.92456" lon="3.05784">
        <ele>499</ele>
        <time>2015-10-19T19:41:57Z</time>
      </trkpt>
      <trkpt lat="45.92435" lon="3.05763">
        <ele>500</ele>
        <time>2015-10-19T19:43:57Z</time>
      </trkpt>
      <trkpt lat="45.92415" lon="3.05744">
        <ele>500</ele>
        <time>2015-10-19T19:45:57Z</time>
      </trkpt>
      <trkpt lat="45.92392" lon="3.05717">
        <ele>502</ele>
        <time>2015-10-19T19:47:57Z</time>
      </trkpt>
      <trkpt lat="45.9235" lon="3.05653">
        <ele>508</ele>
        <time>2015-10-19T19:49:57Z</time>
      </trkpt>
      <trkpt lat="45.92332" lon="3.05634">
        <ele>508</ele>
        <time>2015-10-19T19:51:57Z</time>
      </trkpt>
      <trkpt lat="45.92307" lon="3.05613">
        <ele>508</ele>
        <time>2015-10-19T19:53:57Z</time>
      </trkpt>
      <trkpt lat="45.92262" lon="3.05587">
        <ele>504</ele>
        <time>2015-10-19T19:55:57Z</time>
      </trkpt>
      <trkpt lat="45.92239" lon="3.05565">
        <ele>504</ele>
        <time>2015-10-19T19:57:57Z</time>
      </trkpt>
      <trkpt lat="45.92217" lon="3.05542">
        <ele>503</ele>
        <time>2015-10-19T19:59:57Z</time>
      </trkpt>
      <trkpt lat="45.92207" lon="3.05525">
        <ele>504</ele>
        <time>2015-10-19T20:01:57Z</time>
      </trkpt>
      <trkpt lat="45.92189" lon="3.05503">
        <ele>502</ele>
        <time>2015-10-19T20:03:57Z</time>
      </trkpt>
      <trkpt lat="45.92188" lon="3.05475">
        <ele>508</ele>
        <time>2015-10-19T20:05:57Z</time>
      </trkpt>
      <trkpt lat="45.92181" lon="3.05439">
        <ele>513</ele>
        <time>2015-10-19T20:07:57Z</time>
      </trkpt>
      <trkpt lat="45.92173" lon="3.05413">
        <ele>515</ele>
        <time>2015-10-19T20:09:57Z</time>
      </trkpt>
      <trkpt lat="45.92174" lon="3.05396">
        <ele>519</ele>
        <time>2015-10-19T20:11:57Z</time>
      </trkpt>
      <trkpt lat="45.92176" lon="3.05384">
        <ele>521</ele>
        <time>2015-10-19T20:13:57Z</time>
      </trkpt>
      <trkpt lat="45.92167" lon="3.05353">
        <ele>525</ele>
        <time>2015-10-19T20:15:57Z</time>
      </trkpt>
      <trkpt lat="45.92162" lon="3.05327">
        <ele>528</ele>
        <time>2015-10-19T20:17:57Z</time>
      </trkpt>
      <trkpt lat="45.92151" lon="3.05322">
        <ele>528</ele>
        <time>2015-10-19T20:19:57Z</time>
      </trkpt>
      <trkpt lat="45.92133" lon="3.05324">
        <ele>527</ele>
        <time>2015-10-19T20:21:57Z</time>
      </trkpt>
      <trkpt lat="45.92147" lon="3.05306">
        <ele>530</ele>
        <time>2015-10-19T20:23:57Z</time>
      </trkpt>
      <trkpt lat="45.92154" lon="3.05285">
        <ele>533</ele>
        <time>2015-10-19T20:25:57Z</time>
      </trkpt>
      <trkpt lat="45.92162" lon="3.05263">
        <ele>535</ele>
        <time>2015-10-19T20:27:57Z</time>
      </trkpt>
      <trkpt lat="45.92167" lon="3.05245">
        <ele>538</ele>
        <time>2015-10-19T20:29:57Z</time>
      </trkpt>
      <trkpt lat="45.92179" lon="3.0523">
        <ele>542</ele>
        <time>2015-10-19T20:31:57Z</time>
      </trkpt>
      <trkpt lat="45.92195" lon="3.0522">
        <ele>546</ele>
        <time>2015-10-19T20:33:57Z</time>
      </trkpt>
      <trkpt lat="45.92213" lon="3.05219">
        <ele>550</ele>
        <time>2015-10-19T20:35:57Z</time>
      </trkpt>
      <trkpt lat="45.92229" lon="3.05257">
        <ele>550</ele>
        <time>2015-10-19T20:37:57Z</time>
      </trkpt>
      <trkpt lat="45.92253" lon="3.05318">
        <ele>548</ele>
        <time>2015-10-19T20:39:57Z</time>
      </trkpt>
      <trkpt lat="45.92269" lon="3.05348">
        <ele>548</ele>
        <time>2015-10-19T20:41:57Z</time>
      </trkpt>
      <trkpt lat="45.92321" lon="3.05386">
        <ele>555</ele>
        <time>2015-10-19T20:43:57Z</time>
      </trkpt>
      <trkpt lat="45.92349" lon="3.054">
        <ele>558</ele>
        <time>2015-10-19T20:45:57Z</time>
      </trkpt>
      <trkpt lat="45.92425" lon="3.0543">
        <ele>563</ele>
        <time>2015-10-19T20:47:57Z</time>
      </trkpt>
      <trkpt lat="45.92453" lon="3.05443">
        <ele>563</ele>
        <time>2015-10-19T20:49:57Z</time>
      </trkpt>
      <trkpt lat="45.92491" lon="3.05448">
        <ele>565</ele>
        <time>2015-10-19T20:51:57Z</time>
      </trkpt>
      <trkpt lat="45.92512" lon="3.05447">
        <ele>565</ele>
        <time>2015-10-19T20:53:57Z</time>
      </trkpt>
      <trkpt lat="45.92535" lon="3.05435">
        <ele>565</ele>
        <time>2015-10-19T20:55:57Z</time>
      </trkpt>
      <trkpt lat="45.92589" lon="3.05355">
        <ele>569</ele>
        <time>2015-10-19T20:57:57Z</time>
      </trkpt>
      <trkpt lat="45.92619" lon="3.05332">
        <ele>570</ele>
        <time>2015-10-19T20:59:57Z</time>
      </trkpt>
      <trkpt lat="45.9262" lon="3.05311">
        <ele>571</ele>
        <time>2015-10-19T21:01:57Z</time>
      </trkpt>
      <trkpt lat="45.92617" lon="3.05264">
        <ele>575</ele>
        <time>2015-10-19T21:03:57Z</time>
      </trkpt>
      <trkpt lat="45.9262" lon="3.05231">
        <ele>577</ele>
        <time>2015-10-19T21:05:57Z</time>
      </trkpt>
      <trkpt lat="45.92621" lon="3.05192">
        <ele>580</ele>
        <time>2015-10-19T21:07:57Z</time>
      </trkpt>
      <trkpt lat="45.92651" lon="3.05212">
        <ele>579</ele>
        <time>2015-10-19T21:09:57Z</time>
      </trkpt>
      <trkpt lat="45.92681" lon="3.05236">
        <ele>579</ele>
        <time>2015-10-19T21:11:57Z</time>
      </trkpt>
      <trkpt lat="45.927" lon="3.05248">
        <ele>580</ele>
        <time>2015-10-19T21:13:57Z</time>
      </trkpt>
      <trkpt lat="45.92722" lon="3.05242">
        <ele>583</ele>
        <time>2015-10-19T21:15:57Z</time>
      </trkpt>
      <trkpt lat="45.92742" lon="3.05236">
        <ele>585</ele>
        <time>2015-10-19T21:17:57Z</time>
      </trkpt>
      <trkpt lat="45.92776" lon="3.05183">
        <ele>587</ele>
        <time>2015-10-19T21:19:57Z</time>
      </trkpt>
      <trkpt lat="45.92774" lon="3.05147">
        <ele>586</ele>
        <time>2015-10-19T21:21:57Z</time>
      </trkpt>
      <trkpt lat="45.92778" lon="3.05121">
        <ele>584</ele>
        <time>2015-10-19T21:23:57Z</time>
      </trkpt>
      <trkpt lat="45.92793" lon="3.05102">
        <ele>581</ele>
        <time>2015-10-19T21:25:57Z</time>
      </trkpt>
      <trkpt lat="45.92826" lon="3.05071">
        <ele>572</ele>
        <time>2015-10-19T21:27:57Z</time>
      </trkpt>
      <trkpt lat="45.92829" lon="3.05051">
        <ele>567</ele>
        <time>2015-10-19T21:29:57Z</time>
      </trkpt>
      <trkpt lat="45.92847" lon="3.05022">
        <ele>556</ele>
        <time>2015-10-19T21:31:57Z</time>
      </trkpt>
      <trkpt lat="45.9287" lon="3.05002">
        <ele>545</ele>
        <time>2015-10-19T21:33:57Z</time>
      </trkpt>
      <trkpt lat="45.92865" lon="3.04976">
        <ele>542</ele>
        <time>2015-10-19T21:35:57Z</time>
      </trkpt>
      <trkpt lat="45.92847" lon="3.04955">
        <ele>544</ele>
        <time>2015-10-19T21:37:57Z</time>
      </trkpt>
      <trkpt lat="45.92823" lon="3.0493">
        <ele>545</ele>
        <time>2015-10-19T21:39:57Z</time>
      </trkpt>
      <trkpt lat="45.92806" lon="3.04914">
        <ele>546</ele>
        <time>2015-10-19T21:41:57Z</time>
      </trkpt>
      <trkpt lat="45.92776" lon="3.04906">
        <ele>552</ele>
        <time>2015-10-19T21:43:57Z</time>
      </trkpt>
      <trkpt lat="45.9275" lon="3.04901">
        <ele>558</ele>
        <time>2015-10-19T21:45:57Z</time>
      </trkpt>
      <trkpt lat="45.92765" lon="3.04881">
        <ele>555</ele>
        <time>2015-10-19T21:47:57Z</time>
      </trkpt>
      <trkpt lat="45.92749" lon="3.04874">
        <ele>559</ele>
        <time>2015-10-19T21:49:57Z</time>
      </trkpt>
      <trkpt lat="45.92756" lon="3.04852">
        <ele>558</ele>
        <time>2015-10-19T21:51:57Z</time>
      </trkpt>
      <trkpt lat="45.92767" lon="3.04825">
        <ele>557</ele>
        <time>2015-10-19T21:53:57Z</time>
      </trkpt>
      <trkpt lat="45.92773" lon="3.04774">
        <ele>563</ele>
        <time>2015-10-19T21:55:57Z</time>
      </trkpt>
      <trkpt lat="45.92771" lon="3.04684">
        <ele>573</ele>
        <time>2015-10-19T21:57:57Z</time>
      </trkpt>
      <trkpt lat="45.92754" lon="3.04613">
        <ele>580</ele>
        <time>2015-10-19T21:59:57Z</time>
      </trkpt>
      <trkpt lat="45.9274" lon="3.04543">
        <ele>587</ele>
        <time>2015-10-19T22:01:57Z</time>
      </trkpt>
      <trkpt lat="45.9273" lon="3.04493">
        <ele>593</ele>
        <time>2015-10-19T22:03:57Z</time>
      </trkpt>
      <trkpt lat="45.92726" lon="3.04542">
        <ele>592</ele>
        <time>2015-10-19T22:05:57Z</time>
      </trkpt>
      <trkpt lat="45.92725" lon="3.04603">
        <ele>590</ele>
        <time>2015-10-19T22:07:57Z</time>
      </trkpt>
      <trkpt lat="45.92734" lon="3.04635">
        <ele>585</ele>
        <time>2015-10-19T22:09:57Z</time>
      </trkpt>
      <trkpt lat="45.92732" lon="3.04672">
        <ele>583</ele>
        <time>2015-10-19T22:11:57Z</time>
      </trkpt>
      <trkpt lat="45.92726" lon="3.04728">
        <ele>578</ele>
        <time>2015-10-19T22:13:57Z</time>
      </trkpt>
      <trkpt lat="45.92715" lon="3.04745">
        <ele>578</ele>
        <time>2015-10-19T22:15:57Z</time>
      </trkpt>
      <trkpt lat="45.92698" lon="3.04741">
        <ele>581</ele>
        <time>2015-10-19T22:17:57Z</time>
      </trkpt>
      <trkpt lat="45.92685" lon="3.04735">
        <ele>584</ele>
        <time>2015-10-19T22:19:57Z</time>
      </trkpt>
      <trkpt lat="45.92664" lon="3.04739">
        <ele>587</ele>
        <time>2015-10-19T22:21:57Z</time>
      </trkpt>
      <trkpt lat="45.92645" lon="3.04745">
        <ele>585</ele>
        <time>2015-10-19T22:23:57Z</time>
      </trkpt>
      <trkpt lat="45.9263" lon="3.04759">
        <ele>582</ele>
        <time>2015-10-19T22:25:57Z</time>
      </trkpt>
      <trkpt lat="45.92614" lon="3.04792">
        <ele>576</ele>
        <time>2015-10-19T22:27:57Z</time>
      </trkpt>
      <trkpt lat="45.92603" lon="3.0479">
        <ele>577</ele>
        <time>2015-10-19T22:29:57Z</time>
      </trkpt>
      <trkpt lat="45.92583" lon="3.04766">
        <ele>581</ele>
        <time>2015-10-19T22:31:57Z</time>
      </trkpt>
      <trkpt lat="45.92556" lon="3.04752">
        <ele>582</ele>
        <time>2015-10-19T22:33:57Z</time>
      </trkpt>
      <trkpt lat="45.92524" lon="3.04737">
        <ele>583</ele>
        <time>2015-10-19T22:35:57Z</time>
      </trkpt>
      <trkpt lat="45.92493" lon="3.04736">
        <ele>581</ele>
        <time>2015-10-19T22:37:57Z</time>
      </trkpt>
      <trkpt lat="45.92469" lon="3.04727">
        <ele>580</ele>
        <time>2015-10-19T22:39:57Z</time>
      </trkpt>
      <trkpt lat="45.92435" lon="3.04694">
        <ele>581</ele>
        <time>2015-10-19T22:41:57Z</time>
      </trkpt>
      <trkpt lat="45.92413" lon="3.04673">
        <ele>582</ele>
        <time>2015-10-19T22:43:57Z</time>
      </trkpt>
      <trkpt lat="45.92408" lon="3.0464">
        <ele>587</ele>
        <time>2015-10-19T22:45:57Z</time>
      </trkpt>
      <trkpt lat="45.92409" lon="3.04613">
        <ele>591</ele>
        <time>2015-10-19T22:47:57Z</time>
      </trkpt>
      <trkpt lat="45.92412" lon="3.04598">
        <ele>594</ele>
        <time>2015-10-19T22:49:57Z</time>
      </trkpt>
      <trkpt lat="45.92412" lon="3.04574">
        <ele>597</ele>
        <time>2015-10-19T22:51:57Z</time>
      </trkpt>
      <trkpt lat="45.92419" lon="3.04544">
        <ele>600</ele>
        <time>2015-10-19T22:53:57Z</time>
      </trkpt>
      <trkpt lat="45.92423" lon="3.04497">
        <ele>605</ele>
        <time>2015-10-19T22:55:57Z</time>
      </trkpt>
      <trkpt lat="45.92412" lon="3.0448">
        <ele>608</ele>
        <time>2015-10-19T22:57:57Z</time>
      </trkpt>
      <trkpt lat="45.92396" lon="3.04481">
        <ele>609</ele>
        <time>2015-10-19T22:59:57Z</time>
      </trkpt>
      <trkpt lat="45.92377" lon="3.04493">
        <ele>609</ele>
        <time>2015-10-19T23:01:57Z</time>
      </trkpt>
      <trkpt lat="45.92358" lon="3.04508">
        <ele>609</ele>
        <time>2015-10-19T23:03:57Z</time>
      </trkpt>
      <trkpt lat="45.92342" lon="3.04521">
        <ele>608</ele>
        <time>2015-10-19T23:05:57Z</time>
      </trkpt>
      <trkpt lat="45.92325" lon="3.04526">
        <ele>608</ele>
        <time>2015-10-19T23:07:57Z</time>
      </trkpt>
      <trkpt lat="45.92306" lon="3.04518">
        <ele>609</ele>
        <time>2015-10-19T23:09:57Z</time>
      </trkpt>
      <trkpt lat="45.92292" lon="3.04498">
        <ele>612</ele>
        <time>2015-10-19T23:11:57Z</time>
      </trkpt>
      <trkpt lat="45.92278" lon="3.04488">
        <ele>613</ele>
        <time>2015-10-19T23:13:57Z</time>
      </trkpt>
      <trkpt lat="45.92262" lon="3.04473">
        <ele>614</ele>
        <time>2015-10-19T23:15:57Z</time>
      </trkpt>
      <trkpt lat="45.92247" lon="3.04439">
        <ele>618</ele>
        <time>2015-10-19T23:17:57Z</time>
      </trkpt>
      <trkpt lat="45.92241" lon="3.04413">
        <ele>619</ele>
        <time>2015-10-19T23:19:57Z</time>
      </trkpt>
      <trkpt lat="45.92253" lon="3.04384">
        <ele>622</ele>
        <time>2015-10-19T23:21:57Z</time>
      </trkpt>
      <trkpt lat="45.92267" lon="3.04344">
        <ele>624</ele>
        <time>2015-10-19T23:23:57Z</time>
      </trkpt>
      <trkpt lat="45.92267" lon="3.04303">
        <ele>625</ele>
        <time>2015-10-19T23:25:57Z</time>
      </trkpt>
      <trkpt lat="45.92268" lon="3.04235">
        <ele>627</ele>
        <time>2015-10-19T23:27:57Z</time>
      </trkpt>
      <trkpt lat="45.92265" lon="3.04177">
        <ele>630</ele>
        <time>2015-10-19T23:29:57Z</time>
      </trkpt>
      <trkpt lat="45.92252" lon="3.03782">
        <ele>671</ele>
        <time>2015-10-19T23:31:57Z</time>
      </trkpt>
      <trkpt lat="45.92249" lon="3.03703">
        <ele>676</ele>
        <time>2015-10-19T23:33:57Z</time>
      </trkpt>
      <trkpt lat="45.92277" lon="3.03697">
        <ele>675</ele>
        <time>2015-10-19T23:35:57Z</time>
      </trkpt>
      <trkpt lat="45.92294" lon="3.03698">
        <ele>674</ele>
        <time>2015-10-19T23:37:57Z</time>
      </trkpt>
      <trkpt lat="45.92306" lon="3.03677">
        <ele>673</ele>
        <time>2015-10-19T23:39:57Z</time>
      </trkpt>
      <trkpt lat="45.92328" lon="3.03648">
        <ele>672</ele>
        <time>2015-10-19T23:41:57Z</time>
      </trkpt>
      <trkpt lat="45.9234" lon="3.03624">
        <ele>671</ele>
        <time>2015-10-19T23:43:57Z</time>
      </trkpt>
      <trkpt lat="45.92364" lon="3.03561">
        <ele>669</ele>
        <time>2015-10-19T23:45:57Z</time>
      </trkpt>
      <trkpt lat="45.92372" lon="3.03516">
        <ele>668</ele>
        <time>2015-10-19T23:47:57Z</time>
      </trkpt>
      <trkpt lat="45.92371" lon="3.0348">
        <ele>667</ele>
        <time>2015-10-19T23:49:57Z</time>
      </trkpt>
      <trkpt lat="45.92362" lon="3.03461">
        <ele>667</ele>
        <time>2015-10-19T23:51:57Z</time>
      </trkpt>
      <trkpt lat="45.92351" lon="3.03428">
        <ele>665</ele>
        <time>2015-10-19T23:53:57Z</time>
      </trkpt>
      <trkpt lat="45.9235" lon="3.03404">
        <ele>664</ele>
        <time>2015-10-19T23:55:57Z</time>
      </trkpt>
      <trkpt lat="45.92356" lon="3.03345">
        <ele>661</ele>
        <time>2015-10-19T23:57:57Z</time>
      </trkpt>
      <trkpt lat="45.92371" lon="3.03317">
        <ele>660</ele>
        <time>2015-10-19T23:59:57Z</time>
      </trkpt>
      <trkpt lat="45.92386" lon="3.03307">
        <ele>660</ele>
        <time>2015-10-20T00:01:57Z</time>
      </trkpt>
      <trkpt lat="45.92397" lon="3.03298">
        <ele>660</ele>
        <time>2015-10-20T00:03:57Z</time>
      </trkpt>
      <trkpt lat="45.92411" lon="3.03285">
        <ele>660</ele>
        <time>2015-10-20T00:05:57Z</time>
      </trkpt>
      <trkpt lat="45.92424" lon="3.03254">
        <ele>660</ele>
        <time>2015-10-20T00:07:57Z</time>
      </trkpt>
      <trkpt lat="45.92445" lon="3.03223">
        <ele>660</ele>
        <time>2015-10-20T00:09:57Z</time>
      </trkpt>
      <trkpt lat="45.92461" lon="3.03193">
        <ele>661</ele>
        <time>2015-10-20T00:11:57Z</time>
      </trkpt>
      <trkpt lat="45.92471" lon="3.03185">
        <ele>662</ele>
        <time>2015-10-20T00:13:57Z</time>
      </trkpt>
      <trkpt lat="45.92484" lon="3.03152">
        <ele>663</ele>
        <time>2015-10-20T00:15:57Z</time>
      </trkpt>
      <trkpt lat="45.92505" lon="3.03116">
        <ele>664</ele>
        <time>2015-10-20T00:17:57Z</time>
      </trkpt>
      <trkpt lat="45.92517" lon="3.031">
        <ele>665</ele>
        <time>2015-10-20T00:19:57Z</time>
      </trkpt>
      <trkpt lat="45.92533" lon="3.03088">
        <ele>665</ele>
        <time>2015-10-20T00:21:57Z</time>
      </trkpt>
      <trkpt lat="45.92542" lon="3.02991">
        <ele>667</ele>
        <time>2015-10-20T00:23:57Z</time>
      </trkpt>
      <trkpt lat="45.92547" lon="3.02949">
        <ele>667</ele>
        <time>2015-10-20T00:25:57Z</time>
      </trkpt>
      <trkpt lat="45.92545" lon="3.02911">
        <ele>667</ele>
        <time>2015-10-20T00:27:57Z</time>
      </trkpt>
      <trkpt lat="45.9253" lon="3.02793">
        <ele>668</ele>
        <time>2015-10-20T00:29:57Z</time>
      </trkpt>
      <trkpt lat="45.92527" lon="3.02755">
        <ele>668</ele>
        <time>2015-10-20T00:31:57Z</time>
      </trkpt>
      <trkpt lat="45.92526" lon="3.02668">
        <ele>667</ele>
        <time>2015-10-20T00:33:57Z</time>
      </trkpt>
      <trkpt lat="45.92529" lon="3.02621">
        <ele>669</ele>
        <time>2015-10-20T00:35:57Z</time>
      </trkpt>
      <trkpt lat="45.92536" lon="3.02568">
        <ele>671</ele>
        <time>2015-10-20T00:37:57Z</time>
      </trkpt>
      <trkpt lat="45.92541" lon="3.02529">
        <ele>673</ele>
        <time>2015-10-20T00:39:57Z</time>
      </trkpt>
      <trkpt lat="45.92547" lon="3.02501">
        <ele>675</ele>
        <time>2015-10-20T00:41:57Z</time>
      </trkpt>
      <trkpt lat="45.92543" lon="3.0246">
        <ele>677</ele>
        <time>2015-10-20T00:43:57Z</time>
      </trkpt>
      <trkpt lat="45.92541" lon="3.02423">
        <ele>680</ele>
        <time>2015-10-20T00:45:57Z</time>
      </trkpt>
      <trkpt lat="45.92538" lon="3.02376">
        <ele>682</ele>
        <time>2015-10-20T00:47:57Z</time>
      </trkpt>
      <trkpt lat="45.92528" lon="3.02349">
        <ele>683</ele>
        <time>2015-10-20T00:49:57Z</time>
      </trkpt>
      <trkpt lat="45.92511" lon="3.02329">
        <ele>683</ele>
        <time>2015-10-20T00:51:57Z</time>
      </trkpt>
      <trkpt lat="45.92499" lon="3.02295">
        <ele>685</ele>
        <time>2015-10-20T00:53:57Z</time>
      </trkpt>
      <trkpt lat="45.92497" lon="3.02268">
        <ele>687</ele>
        <time>2015-10-20T00:55:57Z</time>
      </trkpt>
      <trkpt lat="45.92503" lon="3.02236">
        <ele>689</ele>
        <time>2015-10-20T00:57:57Z</time>
      </trkpt>
      <trkpt lat="45.92506" lon="3.0218">
        <ele>689</ele>
        <time>2015-10-20T00:59:57Z</time>
      </trkpt>
      <trkpt lat="45.92501" lon="3.02144">
        <ele>688</ele>
        <time>2015-10-20T01:01:57Z</time>
      </trkpt>
      <trkpt lat="45.92496" lon="3.02107">
        <ele>688</ele>
        <time>2015-10-20T01:03:57Z</time>
      </trkpt>
      <trkpt lat="45.92489" lon="3.02076">
        <ele>688</ele>
        <time>2015-10-20T01:05:57Z</time>
      </trkpt>
      <trkpt lat="45.92482" lon="3.02045">
        <ele>688</ele>
        <time>2015-10-20T01:07:57Z</time>
      </trkpt>
      <trkpt lat="45.92478" lon="3.02015">
        <ele>688</ele>
        <time>2015-10-20T01:09:57Z</time>
      </trkpt>
      <trkpt lat="45.9247" lon="3.02003">
        <ele>687</ele>
        <time>2015-10-20T01:11:57Z</time>
      </trkpt>
      <trkpt lat="45.92451" lon="3.01954">
        <ele>688</ele>
        <time>2015-10-20T01:13:57Z</time>
      </trkpt>
      <trkpt lat="45.92436" lon="3.01925">
        <ele>688</ele>
        <time>2015-10-20T01:15:57Z</time>
      </trkpt>
      <trkpt lat="45.92423" lon="3.01904">
        <ele>687</ele>
        <time>2015-10-20T01:17:57Z</time>
      </trkpt>
      <trkpt lat="45.92402" lon="3.0185">
        <ele>687</ele>
        <time>2015-10-20T01:19:57Z</time>
      </trkpt>
      <trkpt lat="45.92395" lon="3.01826">
        <ele>687</ele>
        <time>2015-10-20T01:21:57Z</time>
      </trkpt>
      <trkpt lat="45.92389" lon="3.01785">
        <ele>687</ele>
        <time>2015-10-20T01:23:57Z</time>
      </trkpt>
      <trkpt lat="45.92385" lon="3.01768">
        <ele>687</ele>
        <time>2015-10-20T01:25:57Z</time>
      </trkpt>
      <trkpt lat="45.92376" lon="3.01739">
        <ele>686</ele>
        <time>2015-10-20T01:27:57Z</time>
      </trkpt>
      <trkpt lat="45.9237" lon="3.01715">
        <ele>686</ele>
        <time>2015-10-20T01:29:57Z</time>
      </trkpt>
      <trkpt lat="45.92364" lon="3.01687">
        <ele>686</ele>
        <time>2015-10-20T01:31:57Z</time>
      </trkpt>
      <trkpt lat="45.92363" lon="3.01641">
        <ele>686</ele>
        <time>2015-10-20T01:33:57Z</time>
      </trkpt>
      <trkpt lat="45.9237" lon="3.01618">
        <ele>687</ele>
        <time>2015-10-20T01:35:57Z</time>
      </trkpt>
      <trkpt lat="45.9237" lon="3.01593">
        <ele>687</ele>
        <time>2015-10-20T01:37:57Z</time>
      </trkpt>
      <trkpt lat="45.92377" lon="3.01554">
        <ele>687</ele>
        <time>2015-10-20T01:39:57Z</time>
      </trkpt>
      <trkpt lat="45.92382" lon="3.01512">
        <ele>687</ele>
        <time>2015-10-20T01:41:57Z</time>
      </trkpt>
      <trkpt lat="45.92382" lon="3.01468">
        <ele>686</ele>
        <time>2015-10-20T01:43:57Z</time>
      </trkpt>
      <trkpt lat="45.92384" lon="3.01434">
        <ele>686</ele>
        <time>2015-10-20T01:45:57Z</time>
      </trkpt>
      <trkpt lat="45.92391" lon="3.01385">
        <ele>686</ele>
        <time>2015-10-20T01:47:57Z</time>
      </trkpt>
      <trkpt lat="45.92392" lon="3.01351">
        <ele>686</ele>
        <time>2015-10-20T01:49:57Z</time>
      </trkpt>
      <trkpt lat="45.92394" lon="3.0133">
        <ele>686</ele>
        <time>2015-10-20T01:51:57Z</time>
      </trkpt>
      <trkpt lat="45.92392" lon="3.01302">
        <ele>687</ele>
        <time>2015-10-20T01:53:57Z</time>
      </trkpt>
      <trkpt lat="45.92384" lon="3.01286">
        <ele>687</ele>
        <time>2015-10-20T01:55:57Z</time>
      </trkpt>
      <trkpt lat="45.92368" lon="3.01268">
        <ele>686</ele>
        <time>2015-10-20T01:57:57Z</time>
      </trkpt>
      <trkpt lat="45.92362" lon="3.01248">
        <ele>687</ele>
        <time>2015-10-20T01:59:57Z</time>
      </trkpt>
      <trkpt lat="45.92349" lon="3.01225">
        <ele>687</ele>
        <time>2015-10-20T02:01:57Z</time>
      </trkpt>
      <trkpt lat="45.92335" lon="3.01203">
        <ele>688</ele>
        <time>2015-10-20T02:03:57Z</time>
      </trkpt>
      <trkpt lat="45.92325" lon="3.01188">
        <ele>689</ele>
        <time>2015-10-20T02:05:57Z</time>
      </trkpt>
      <trkpt lat="45.92309" lon="3.01168">
        <ele>690</ele>
        <time>2015-10-20T02:07:57Z</time>
      </trkpt>
      <trkpt lat="45.923" lon="3.01156">
        <ele>690</ele>
        <time>2015-10-20T02:09:57Z</time>
      </trkpt>
      <trkpt lat="45.92292" lon="3.01136">
        <ele>691</ele>
        <time>2015-10-20T02:11:57Z</time>
      </trkpt>
      <trkpt lat="45.9229" lon="3.01117">
        <ele>691</ele>
        <time>2015-10-20T02:13:57Z</time>
      </trkpt>
      <trkpt lat="45.9231" lon="3.01119">
        <ele>692</ele>
        <time>2015-10-20T02:15:57Z</time>
      </trkpt>
      <trkpt lat="45.9233" lon="3.01117">
        <ele>692</ele>
        <time>2015-10-20T02:17:57Z</time>
      </trkpt>
      <trkpt lat="45.92357" lon="3.01108">
        <ele>693</ele>
        <time>2015-10-20T02:19:57Z</time>
      </trkpt>
      <trkpt lat="45.92373" lon="3.01101">
        <ele>694</ele>
        <time>2015-10-20T02:21:57Z</time>
      </trkpt>
      <trkpt lat="45.92418" lon="3.01083">
        <ele>696</ele>
        <time>2015-10-20T02:23:57Z</time>
      </trkpt>
      <trkpt lat="45.92443" lon="3.01064">
        <ele>697</ele>
        <time>2015-10-20T02:25:57Z</time>
      </trkpt>
      <trkpt lat="45.92452" lon="3.01051">
        <ele>697</ele>
        <time>2015-10-20T02:27:57Z</time>
      </trkpt>
      <trkpt lat="45.92459" lon="3.01035">
        <ele>697</ele>
        <time>2015-10-20T02:29:57Z</time>
      </trkpt>
      <trkpt lat="45.92461" lon="3.0101">
        <ele>697</ele>
        <time>2015-10-20T02:31:57Z</time>
      </trkpt>
      <trkpt lat="45.92457" lon="3.00996">
        <ele>697</ele>
        <time>2015-10-20T02:33:57Z</time>
      </trkpt>
      <trkpt lat="45.92449" lon="3.0098">
        <ele>697</ele>
        <time>2015-10-20T02:35:57Z</time>
      </trkpt>
      <trkpt lat="45.92438" lon="3.00956">
        <ele>697</ele>
        <time>2015-10-20T02:37:57Z</time>
      </trkpt>
      <trkpt lat="45.92442" lon="3.00933">
        <ele>697</ele>
        <time>2015-10-20T02:39:57Z</time>
      </trkpt>
      <trkpt lat="45.92456" lon="3.00901">
        <ele>697</ele>
        <time>2015-10-20T02:41:57Z</time>
      </trkpt>
      <trkpt lat="45.92477" lon="3.00846">
        <ele>698</ele>
        <time>2015-10-20T02:43:57Z</time>
      </trkpt>
      <trkpt lat="45.925" lon="3.00802">
        <ele>699</ele>
        <time>2015-10-20T02:45:57Z</time>
      </trkpt>
      <trkpt lat="45.92515" lon="3.00766">
        <ele>701</ele>
        <time>2015-10-20T02:47:57Z</time>
      </trkpt>
      <trkpt lat="45.92532" lon="3.00738">
        <ele>703</ele>
        <time>2015-10-20T02:49:57Z</time>
      </trkpt>
      <trkpt lat="45.92547" lon="3.00708">
        <ele>705</ele>
        <time>2015-10-20T02:51:57Z</time>
      </trkpt>
      <trkpt lat="45.92556" lon="3.00676">
        <ele>707</ele>
        <time>2015-10-20T02:53:57Z</time>
      </trkpt>
      <trkpt lat="45.92556" lon="3.00632">
        <ele>707</ele>
        <time>2015-10-20T02:55:57Z</time>
      </trkpt>
      <trkpt lat="45.92553" lon="3.00602">
        <ele>707</ele>
        <time>2015-10-20T02:57:57Z</time>
      </trkpt>
      <trkpt lat="45.92552" lon="3.00577">
        <ele>707</ele>
        <time>2015-10-20T02:59:57Z</time>
      </trkpt>
      <trkpt lat="45.92553" lon="3.00534">
        <ele>708</ele>
        <time>2015-10-20T03:01:57Z</time>
      </trkpt>
      <trkpt lat="45.92552" lon="3.00511">
        <ele>708</ele>
        <time>2015-10-20T03:03:57Z</time>
      </trkpt>
      <trkpt lat="45.92548" lon="3.00491">
        <ele>708</ele>
        <time>2015-10-20T03:05:57Z</time>
      </trkpt>
      <trkpt lat="45.92544" lon="3.00476">
        <ele>707</ele>
        <time>2015-10-20T03:07:57Z</time>
      </trkpt>
      <trkpt lat="45.92551" lon="3.0044">
        <ele>707</ele>
        <time>2015-10-20T03:09:57Z</time>
      </trkpt>
      <trkpt lat="45.92539" lon="3.00433">
        <ele>706</ele>
        <time>2015-10-20T03:11:57Z</time>
      </trkpt>
      <trkpt lat="45.9252" lon="3.0043">
        <ele>705</ele>
        <time>2015-10-20T03:13:57Z</time>
      </trkpt>
      <trkpt lat="45.92504" lon="3.00418">
        <ele>704</ele>
        <time>2015-10-20T03:15:57Z</time>
      </trkpt>
      <trkpt lat="45.92489" lon="3.00392">
        <ele>703</ele>
        <time>2015-10-20T03:17:57Z</time>
      </trkpt>
      <trkpt lat="45.92468" lon="3.00354">
        <ele>700</ele>
        <time>2015-10-20T03:19:57Z</time>
      </trkpt>
      <trkpt lat="45.92449" lon="3.0033">
        <ele>697</ele>
        <time>2015-10-20T03:21:57Z</time>
      </trkpt>
      <trkpt lat="45.92434" lon="3.00311">
        <ele>694</ele>
        <time>2015-10-20T03:23:57Z</time>
      </trkpt>
      <trkpt lat="45.92411" lon="3.00293">
        <ele>690</ele>
        <time>2015-10-20T03:25:57Z</time>
      </trkpt>
      <trkpt lat="45.92388" lon="3.00274">
        <ele>687</ele>
        <time>2015-10-20T03:27:57Z</time>
      </trkpt>
      <trkpt lat="45.92368" lon="3.00269">
        <ele>684</ele>
        <time>2015-10-20T03:29:57Z</time>
      </trkpt>
      <trkpt lat="45.92345" lon="3.00259">
        <ele>681</ele>
        <time>2015-10-20T03:31:57Z</time>
      </trkpt>
      <trkpt lat="45.92305" lon="3.00251">
        <ele>677</ele>
        <time>2015-10-20T03:33:57Z</time>
      </trkpt>
      <trkpt lat="45.92282" lon="3.00241">
        <ele>675</ele>
        <time>2015-10-20T03:35:57Z</time>
      </trkpt>
      <trkpt lat="45.92271" lon="3.00232">
        <ele>674</ele>
        <time>2015-10-20T03:37:57Z</time>
      </trkpt>
      <trkpt lat="45.92265" lon="3.00202">
        <ele>674</ele>
        <time>2015-10-20T03:39:57Z</time>
      </trkpt>
      <trkpt lat="45.92253" lon="3.00177">
        <ele>674</ele>
        <time>2015-10-20T03:41:57Z</time>
      </trkpt>
      <trkpt lat="45.92247" lon="3.0016">
        <ele>674</ele>
        <time>2015-10-20T03:43:57Z</time>
      </trkpt>
      <trkpt lat="45.9225" lon="3.00131">
        <ele>674</ele>
        <time>2015-10-20T03:45:57Z</time>
      </trkpt>
      <trkpt lat="45.92242" lon="3.00068">
        <ele>674</ele>
        <time>2015-10-20T03:47:57Z</time>
      </trkpt>
      <trkpt lat="45.92244" lon="2.99981">
        <ele>675</ele>
        <time>2015-10-20T03:49:57Z</time>
      </trkpt>
      <trkpt lat="45.92249" lon="2.99945">
        <ele>676</ele>
        <time>2015-10-20T03:51:57Z</time>
      </trkpt>
      <trkpt lat="45.92257" lon="2.99874">
        <ele>680</ele>
        <time>2015-10-20T03:53:57Z</time>
      </trkpt>
      <trkpt lat="45.92273" lon="2.9985">
        <ele>683</ele>
        <time>2015-10-20T03:55:57Z</time>
      </trkpt>
      <trkpt lat="45.92289" lon="2.99834">
        <ele>685</ele>
        <time>2015-10-20T03:57:57Z</time>
      </trkpt>
      <trkpt lat="45.92334" lon="2.99777">
        <ele>691</ele>
        <time>2015-10-20T03:59:57Z</time>
      </trkpt>
      <trkpt lat="45.92373" lon="2.99731">
        <ele>694</ele>
        <time>2015-10-20T04:01:57Z</time>
      </trkpt>
      <trkpt lat="45.92391" lon="2.99711">
        <ele>696</ele>
        <time>2015-10-20T04:03:57Z</time>
      </trkpt>
      <trkpt lat="45.92409" lon="2.9969">
        <ele>698</ele>
        <time>2015-10-20T04:05:57Z</time>
      </trkpt>
      <trkpt lat="45.92422" lon="2.99645">
        <ele>700</ele>
        <time>2015-10-20T04:07:57Z</time>
      </trkpt>
      <trkpt lat="45.92432" lon="2.99604">
        <ele>701</ele>
        <time>2015-10-20T04:09:57Z</time>
      </trkpt>
      <trkpt lat="45.92445" lon="2.99553">
        <ele>702</ele>
        <time>2015-10-20T04:11:57Z</time>
      </trkpt>
      <trkpt lat="45.92447" lon="2.99519">
        <ele>703</ele>
        <time>2015-10-20T04:13:57Z</time>
      </trkpt>
      <trkpt lat="45.92446" lon="2.99468">
        <ele>705</ele>
        <time>2015-10-20T04:15:57Z</time>
      </trkpt>
      <trkpt lat="45.92446" lon="2.99392">
        <ele>708</ele>
        <time>2015-10-20T04:17:57Z</time>
      </trkpt>
      <trkpt lat="45.92444" lon="2.99355">
        <ele>709</ele>
        <time>2015-10-20T04:19:57Z</time>
      </trkpt>
      <trkpt lat="45.92444" lon="2.99268">
        <ele>713</ele>
        <time>2015-10-20T04:21:57Z</time>
      </trkpt>
      <trkpt lat="45.9244" lon="2.99235">
        <ele>714</ele>
        <time>2015-10-20T04:23:57Z</time>
      </trkpt>
      <trkpt lat="45.9243" lon="2.99176">
        <ele>715</ele>
        <time>2015-10-20T04:25:57Z</time>
      </trkpt>
      <trkpt lat="45.92425" lon="2.99112">
        <ele>717</ele>
        <time>2015-10-20T04:27:57Z</time>
      </trkpt>
      <trkpt lat="45.92421" lon="2.99075">
        <ele>719</ele>
        <time>2015-10-20T04:29:57Z</time>
      </trkpt>
      <trkpt lat="45.92426" lon="2.99022">
        <ele>721</ele>
        <time>2015-10-20T04:31:57Z</time>
      </trkpt>
      <trkpt lat="45.92433" lon="2.98975">
        <ele>724</ele>
        <time>2015-10-20T04:33:57Z</time>
      </trkpt>
      <trkpt lat="45.9245" lon="2.98865">
        <ele>730</ele>
        <time>2015-10-20T04:35:57Z</time>
      </trkpt>
      <trkpt lat="45.92453" lon="2.98811">
        <ele>732</ele>
        <time>2015-10-20T04:37:57Z</time>
      </trkpt>
      <trkpt lat="45.9246" lon="2.98765">
        <ele>732</ele>
        <time>2015-10-20T04:39:57Z</time>
      </trkpt>
      <trkpt lat="45.92469" lon="2.98691">
        <ele>734</ele>
        <time>2015-10-20T04:41:57Z</time>
      </trkpt>
      <trkpt lat="45.92475" lon="2.98618">
        <ele>735</ele>
        <time>2015-10-20T04:43:57Z</time>
      </trkpt>
      <trkpt lat="45.9247" lon="2.98491">
        <ele>738</ele>
        <time>2015-10-20T04:45:57Z</time>
      </trkpt>
      <trkpt lat="45.92477" lon="2.98411">
        <ele>743</ele>
        <time>2015-10-20T04:47:57Z</time>
      </trkpt>
      <trkpt lat="45.92476" lon="2.98309">
        <ele>746</ele>
        <time>2015-10-20T04:49:57Z</time>
      </trkpt>
      <trkpt lat="45.92483" lon="2.98236">
        <ele>748</ele>
        <time>2015-10-20T04:51:57Z</time>
      </trkpt>
      <trkpt lat="45.92487" lon="2.98197">
        <ele>749</ele>
        <time>2015-10-20T04:53:57Z</time>
      </trkpt>
      <trkpt lat="45.92473" lon="2.98192">
        <ele>750</ele>
        <time>2015-10-20T04:55:57Z</time>
      </trkpt>
      <trkpt lat="45.9246" lon="2.98184">
        <ele>750</ele>
        <time>2015-10-20T04:57:57Z</time>
      </trkpt>
      <trkpt lat="45.92449" lon="2.98168">
        <ele>752</ele>
        <time>2015-10-20T04:59:57Z</time>
      </trkpt>
      <trkpt lat="45.9244" lon="2.98149">
        <ele>752</ele>
        <time>2015-10-20T05:01:57Z</time>
      </trkpt>
      <trkpt lat="45.9243" lon="2.98128">
        <ele>753</ele>
        <time>2015-10-20T05:03:57Z</time>
      </trkpt>
      <trkpt lat="45.92417" lon="2.98097">
        <ele>754</ele>
        <time>2015-10-20T05:05:57Z</time>
      </trkpt>
      <trkpt lat="45.92406" lon="2.98078">
        <ele>753</ele>
        <time>2015-10-20T05:07:57Z</time>
      </trkpt>
      <trkpt lat="45.92381" lon="2.98054">
        <ele>750</ele>
        <time>2015-10-20T05:09:57Z</time>
      </trkpt>
      <trkpt lat="45.92363" lon="2.98037">
        <ele>748</ele>
        <time>2015-10-20T05:11:57Z</time>
      </trkpt>
      <trkpt lat="45.92344" lon="2.9802">
        <ele>747</ele>
        <time>2015-10-20T05:13:57Z</time>
      </trkpt>
      <trkpt lat="45.92319" lon="2.97989">
        <ele>745</ele>
        <time>2015-10-20T05:15:57Z</time>
      </trkpt>
      <trkpt lat="45.92312" lon="2.97976">
        <ele>745</ele>
        <time>2015-10-20T05:17:57Z</time>
      </trkpt>
      <trkpt lat="45.92329" lon="2.97948">
        <ele>745</ele>
        <time>2015-10-20T05:19:57Z</time>
      </trkpt>
      <trkpt lat="45.92342" lon="2.97925">
        <ele>746</ele>
        <time>2015-10-20T05:21:57Z</time>
      </trkpt>
      <trkpt lat="45.92357" lon="2.979">
        <ele>746</ele>
        <time>2015-10-20T05:23:57Z</time>
      </trkpt>
      <trkpt lat="45.92364" lon="2.97884">
        <ele>747</ele>
        <time>2015-10-20T05:25:57Z</time>
      </trkpt>
      <trkpt lat="45.92373" lon="2.97829">
        <ele>749</ele>
        <time>2015-10-20T05:27:57Z</time>
      </trkpt>
      <trkpt lat="45.92376" lon="2.97791">
        <ele>750</ele>
        <time>2015-10-20T05:29:57Z</time>
      </trkpt>
      <trkpt lat="45.92378" lon="2.97759">
        <ele>751</ele>
        <time>2015-10-20T05:31:57Z</time>
      </trkpt>
      <trkpt lat="45.92386" lon="2.97716">
        <ele>753</ele>
        <time>2015-10-20T05:33:57Z</time>
      </trkpt>
      <trkpt lat="45.92395" lon="2.97656">
        <ele>756</ele>
        <time>2015-10-20T05:35:57Z</time>
      </trkpt>
      <trkpt lat="45.92408" lon="2.97595">
        <ele>760</ele>
        <time>2015-10-20T05:37:57Z</time>
      </trkpt>
      <trkpt lat="45.92415" lon="2.97563">
        <ele>761</ele>
        <time>2015-10-20T05:39:57Z</time>
      </trkpt>
      <trkpt lat="45.92421" lon="2.97505">
        <ele>762</ele>
        <time>2015-10-20T05:41:57Z</time>
      </trkpt>
      <trkpt lat="45.92437" lon="2.97441">
        <ele>762</ele>
        <time>2015-10-20T05:43:57Z</time>
      </trkpt>
      <trkpt lat="45.92446" lon="2.97415">
        <ele>761</ele>
        <time>2015-10-20T05:45:57Z</time>
      </trkpt>
      <trkpt lat="45.92461" lon="2.97404">
        <ele>762</ele>
        <time>2015-10-20T05:47:57Z</time>
      </trkpt>
      <trkpt lat="45.9248" lon="2.97406">
        <ele>762</ele>
        <time>2015-10-20T05:49:57Z</time>
      </trkpt>
      <trkpt lat="45.925" lon="2.97415">
        <ele>762</ele>
        <time>2015-10-20T05:51:57Z</time>
      </trkpt>
      <trkpt lat="45.92524" lon="2.97419">
        <ele>762</ele>
        <time>2015-10-20T05:53:57Z</time>
      </trkpt>
      <trkpt lat="45.92561" lon="2.97417">
        <ele>763</ele>
        <time>2015-10-20T05:55:57Z</time>
      </trkpt>
      <trkpt lat="45.92569" lon="2.97378">
        <ele>764</ele>
        <time>2015-10-20T05:57:57Z</time>
      </trkpt>
      <trkpt lat="45.92564" lon="2.97348">
        <ele>764</ele>
        <time>2015-10-20T05:59:57Z</time>
      </trkpt>
      <trkpt lat="45.92557" lon="2.97319">
        <ele>764</ele>
        <time>2015-10-20T06:01:57Z</time>
      </trkpt>
      <trkpt lat="45.92548" lon="2.97282">
        <ele>763</ele>
        <time>2015-10-20T06:03:57Z</time>
      </trkpt>
      <trkpt lat="45.92535" lon="2.97251">
        <ele>763</ele>
        <time>2015-10-20T06:05:57Z</time>
      </trkpt>
      <trkpt lat="45.92523" lon="2.9723">
        <ele>763</ele>
        <time>2015-10-20T06:07:57Z</time>
      </trkpt>
      <trkpt lat="45.92517" lon="2.97211">
        <ele>764</ele>
        <time>2015-10-20T06:09:57Z</time>
      </trkpt>
      <trkpt lat="45.92511" lon="2.9718">
        <ele>765</ele>
        <time>2015-10-20T06:11:57Z</time>
      </trkpt>
      <trkpt lat="45.92506" lon="2.97142">
        <ele>766</ele>
        <time>2015-10-20T06:13:57Z</time>
      </trkpt>
      <trkpt lat="45.92506" lon="2.97076">
        <ele>769</ele>
        <time>2015-10-20T06:15:57Z</time>
      </trkpt>
      <trkpt lat="45.925" lon="2.97001">
        <ele>772</ele>
        <time>2015-10-20T06:17:57Z</time>
      </trkpt>
      <trkpt lat="45.92503" lon="2.96958">
        <ele>776</ele>
        <time>2015-10-20T06:19:57Z</time>
      </trkpt>
      <trkpt lat="45.92512" lon="2.96914">
        <ele>781</ele>
        <time>2015-10-20T06:21:57Z</time>
      </trkpt>
      <trkpt lat="45.92525" lon="2.96875">
        <ele>786</ele>
        <time>2015-10-20T06:23:57Z</time>
      </trkpt>
      <trkpt lat="45.92551" lon="2.96777">
        <ele>798</ele>
        <time>2015-10-20T06:25:57Z</time>
      </trkpt>
      <trkpt lat="45.92569" lon="2.96755">
        <ele>802</ele>
        <time>2015-10-20T06:27:57Z</time>
      </trkpt>
      <trkpt lat="45.92583" lon="2.96749">
        <ele>805</ele>
        <time>2015-10-20T06:29:57Z</time>
      </trkpt>
      <trkpt lat="45.92594" lon="2.9675">
        <ele>807</ele>
        <time>2015-10-20T06:31:57Z</time>
      </trkpt>
      <trkpt lat="45.92601" lon="2.96741">
        <ele>809</ele>
        <time>2015-10-20T06:33:57Z</time>
      </trkpt>
      <trkpt lat="45.92615" lon="2.96707">
        <ele>814</ele>
        <time>2015-10-20T06:35:57Z</time>
      </trkpt>
      <trkpt lat="45.92632" lon="2.96684">
        <ele>819</ele>
        <time>2015-10-20T06:37:57Z</time>
      </trkpt>
      <trkpt lat="45.92645" lon="2.96666">
        <ele>822</ele>
        <time>2015-10-20T06:39:57Z</time>
      </trkpt>
      <trkpt lat="45.92655" lon="2.96635">
        <ele>825</ele>
        <time>2015-10-20T06:41:57Z</time>
      </trkpt>
      <trkpt lat="45.92665" lon="2.96605">
        <ele>828</ele>
        <time>2015-10-20T06:43:57Z</time>
      </trkpt>
      <trkpt lat="45.92675" lon="2.96557">
        <ele>833</ele>
        <time>2015-10-20T06:45:57Z</time>
      </trkpt>
      <trkpt lat="45.92691" lon="2.96524">
        <ele>839</ele>
        <time>2015-10-20T06:47:57Z</time>
      </trkpt>
      <trkpt lat="45.92715" lon="2.96462">
        <ele>846</ele>
        <time>2015-10-20T06:49:57Z</time>
      </trkpt>
      <trkpt lat="45.92725" lon="2.9644">
        <ele>848</ele>
        <time>2015-10-20T06:51:57Z</time>
      </trkpt>
      <trkpt lat="45.9273" lon="2.9646">
        <ele>847</ele>
        <time>2015-10-20T06:53:57Z</time>
      </trkpt>
      <trkpt lat="45.92738" lon="2.96495">
        <ele>847</ele>
        <time>2015-10-20T06:55:57Z</time>
      </trkpt>
      <trkpt lat="45.92742" lon="2.96518">
        <ele>847</ele>
        <time>2015-10-20T06:57:57Z</time>
      </trkpt>
      <trkpt lat="45.92741" lon="2.96558">
        <ele>845</ele>
        <time>2015-10-20T06:59:57Z</time>
      </trkpt>
      <trkpt lat="45.92752" lon="2.96595">
        <ele>845</ele>
        <time>2015-10-20T07:01:57Z</time>
      </trkpt>
      <trkpt lat="45.92769" lon="2.96626">
        <ele>845</ele>
        <time>2015-10-20T07:03:57Z</time>
      </trkpt>
      <trkpt lat="45.92789" lon="2.96653">
        <ele>844</ele>
        <time>2015-10-20T07:05:57Z</time>
      </trkpt>
      <trkpt lat="45.92809" lon="2.96677">
        <ele>843</ele>
        <time>2015-10-20T07:07:57Z</time>
      </trkpt>
      <trkpt lat="45.92848" lon="2.96719">
        <ele>840</ele>
        <time>2015-10-20T07:09:57Z</time>
      </trkpt>
      <trkpt lat="45.92871" lon="2.96742">
        <ele>837</ele>
        <time>2015-10-20T07:11:57Z</time>
      </trkpt>
      <trkpt lat="45.92892" lon="2.96768">
        <ele>835</ele>
        <time>2015-10-20T07:13:57Z</time>
      </trkpt>
      <trkpt lat="45.92919" lon="2.968">
        <ele>833</ele>
        <time>2015-10-20T07:15:57Z</time>
      </trkpt>
      <trkpt lat="45.92956" lon="2.96848">
        <ele>833</ele>
        <time>2015-10-20T07:17:57Z</time>
      </trkpt>
      <trkpt lat="45.92985" lon="2.96815">
        <ele>833</ele>
        <time>2015-10-20T07:19:57Z</time>
      </trkpt>
      <trkpt lat="45.92998" lon="2.96796">
        <ele>833</ele>
        <time>2015-10-20T07:21:57Z</time>
      </trkpt>
      <trkpt lat="45.93023" lon="2.96764">
        <ele>831</ele>
        <time>2015-10-20T07:23:57Z</time>
      </trkpt>
      <trkpt lat="45.93044" lon="2.96742">
        <ele>829</ele>
        <time>2015-10-20T07:25:57Z</time>
      </trkpt>
      <trkpt lat="45.93062" lon="2.96733">
        <ele>828</ele>
        <time>2015-10-20T07:27:57Z</time>
      </trkpt>
      <trkpt lat="45.93082" lon="2.96745">
        <ele>827</ele>
        <time>2015-10-20T07:29:57Z</time>
      </trkpt>
      <trkpt lat="45.93093" lon="2.9675">
        <ele>826</ele>
        <time>2015-10-20T07:31:57Z</time>
      </trkpt>
      <trkpt lat="45.93123" lon="2.96744">
        <ele>825</ele>
        <time>2015-10-20T07:33:57Z</time>
      </trkpt>
      <trkpt lat="45.93154" lon="2.96735">
        <ele>823</ele>
        <time>2015-10-20T07:35:57Z</time>
      </trkpt>
      <trkpt lat="45.9318" lon="2.9672">
        <ele>821</ele>
        <time>2015-10-20T07:37:57Z</time>
      </trkpt>
      <trkpt lat="45.93234" lon="2.96745">
        <ele>816</ele>
        <time>2015-10-20T07:39:57Z</time>
      </trkpt>
      <trkpt lat="45.93266" lon="2.96763">
        <ele>815</ele>
        <time>2015-10-20T07:41:57Z</time>
      </trkpt>
      <trkpt lat="45.93304" lon="2.96792">
        <ele>813</ele>
        <time>2015-10-20T07:43:57Z</time>
      </trkpt>
      <trkpt lat="45.93319" lon="2.96799">
        <ele>812</ele>
        <time>2015-10-20T07:45:57Z</time>
      </trkpt>
      <trkpt lat="45.93332" lon="2.96803">
        <ele>811</ele>
        <time>2015-10-20T07:47:57Z</time>
      </trkpt>
      <trkpt lat="45.93363" lon="2.96798">
        <ele>809</ele>
        <time>2015-10-20T07:49:57Z</time>
      </trkpt>
      <trkpt lat="45.934" lon="2.96793">
        <ele>807</ele>
        <time>2015-10-20T07:51:57Z</time>
      </trkpt>
      <trkpt lat="45.93409" lon="2.96796">
        <ele>806</ele>
        <time>2015-10-20T07:53:57Z</time>
      </trkpt>
      <trkpt lat="45.93487" lon="2.96888">
        <ele>802</ele>
        <time>2015-10-20T07:55:57Z</time>
      </trkpt>
      <trkpt lat="45.93514" lon="2.96918">
        <ele>801</ele>
        <time>2015-10-20T07:57:57Z</time>
      </trkpt>
      <trkpt lat="45.93535" lon="2.96943">
        <ele>801</ele>
        <time>2015-10-20T07:59:57Z</time>
      </trkpt>
      <trkpt lat="45.93553" lon="2.96972">
        <ele>801</ele>
        <time>2015-10-20T08:01:57Z</time>
      </trkpt>
      <trkpt lat="45.93573" lon="2.96991">
        <ele>800</ele>
        <time>2015-10-20T08:03:57Z</time>
      </trkpt>
      <trkpt lat="45.93616" lon="2.97069">
        <ele>800</ele>
        <time>2015-10-20T08:05:57Z</time>
      </trkpt>
      <trkpt lat="45.93633" lon="2.97119">
        <ele>800</ele>
        <time>2015-10-20T08:07:57Z</time>
      </trkpt>
      <trkpt lat="45.93644" lon="2.97143">
        <ele>799</ele>
        <time>2015-10-20T08:09:57Z</time>
      </trkpt>
      <trkpt lat="45.93652" lon="2.97185">
        <ele>799</ele>
        <time>2015-10-20T08:11:57Z</time>
      </trkpt>
      <trkpt lat="45.93653" lon="2.9721">
        <ele>799</ele>
        <time>2015-10-20T08:13:57Z</time>
      </trkpt>
      <trkpt lat="45.93669" lon="2.97201">
        <ele>797</ele>
        <time>2015-10-20T08:15:57Z</time>
      </trkpt>
      <trkpt lat="45.93689" lon="2.97192">
        <ele>796</ele>
        <time>2015-10-20T08:17:57Z</time>
      </trkpt>
      <trkpt lat="45.93737" lon="2.9719">
        <ele>793</ele>
        <time>2015-10-20T08:19:57Z</time>
      </trkpt>
      <trkpt lat="45.93764" lon="2.97199">
        <ele>791</ele>
        <time>2015-10-20T08:21:57Z</time>
      </trkpt>
      <trkpt lat="45.93771" lon="2.97224">
        <ele>791</ele>
        <time>2015-10-20T08:23:57Z</time>
      </trkpt>
      <trkpt lat="45.93791" lon="2.97236">
        <ele>791</ele>
        <time>2015-10-20T08:25:57Z</time>
      </trkpt>
      <trkpt lat="45.938" lon="2.97249">
        <ele>791</ele>
        <time>2015-10-20T08:27:57Z</time>
      </trkpt>
      <trkpt lat="45.93821" lon="2.97243">
        <ele>791</ele>
        <time>2015-10-20T08:29:57Z</time>
      </trkpt>
      <trkpt lat="45.93844" lon="2.97234">
        <ele>790</ele>
        <time>2015-10-20T08:31:57Z</time>
      </trkpt>
      <trkpt lat="45.93875" lon="2.9723">
        <ele>789</ele>
        <time>2015-10-20T08:33:57Z</time>
      </trkpt>
      <trkpt lat="45.939" lon="2.9723">
        <ele>788</ele>
        <time>2015-10-20T08:35:57Z</time>
      </trkpt>
      <trkpt lat="45.93928" lon="2.97231">
        <ele>787</ele>
        <time>2015-10-20T08:37:57Z</time>
      </trkpt>
      <trkpt lat="45.9395" lon="2.97233">
        <ele>786</ele>
        <time>2015-10-20T08:39:57Z</time>
      </trkpt>
      <trkpt lat="45.94002" lon="2.97231">
        <ele>784</ele>
        <time>2015-10-20T08:41:57Z</time>
      </trkpt>
      <trkpt lat="45.94035" lon="2.97223">
        <ele>782</ele>
        <time>2015-10-20T08:43:57Z</time>
      </trkpt>
      <trkpt lat="45.94058" lon="2.97219">
        <ele>780</ele>
        <time>2015-10-20T08:45:57Z</time>
      </trkpt>
      <trkpt lat="45.94099" lon="2.97202">
        <ele>776</ele>
        <time>2015-10-20T08:47:57Z</time>
      </trkpt>
      <trkpt lat="45.94132" lon="2.97193">
        <ele>773</ele>
        <time>2015-10-20T08:49:57Z</time>
      </trkpt>
      <trkpt lat="45.94161" lon="2.97189">
        <ele>771</ele>
        <time>2015-10-20T08:51:57Z</time>
      </trkpt>
      <trkpt lat="45.94214" lon="2.97208">
        <ele>770</ele>
        <time>2015-10-20T08:53:57Z</time>
      </trkpt>
      <trkpt lat="45.94232" lon="2.97226">
        <ele>770</ele>
        <time>2015-10-20T08:55:57Z</time>
      </trkpt>
      <trkpt lat="45.94257" lon="2.97253">
        <ele>770</ele>
        <time>2015-10-20T08:57:57Z</time>
      </trkpt>
      <trkpt lat="45.94307" lon="2.97295">
        <ele>769</ele>
        <time>2015-10-20T08:59:57Z</time>
      </trkpt>
      <trkpt lat="45.94338" lon="2.97327">
        <ele>771</ele>
        <time>2015-10-20T09:01:57Z</time>
      </trkpt>
      <trkpt lat="45.94371" lon="2.97331">
        <ele>773</ele>
        <time>2015-10-20T09:03:57Z</time>
      </trkpt>
      <trkpt lat="45.94392" lon="2.97319">
        <ele>773</ele>
        <time>2015-10-20T09:05:57Z</time>
      </trkpt>
      <trkpt lat="45.9441" lon="2.97304">
        <ele>772</ele>
        <time>2015-10-20T09:07:57Z</time>
      </trkpt>
      <trkpt lat="45.94444" lon="2.97275">
        <ele>767</ele>
        <time>2015-10-20T09:09:57Z</time>
      </trkpt>
      <trkpt lat="45.94494" lon="2.97235">
        <ele>760</ele>
        <time>2015-10-20T09:11:57Z</time>
      </trkpt>
      <trkpt lat="45.94563" lon="2.97183">
        <ele>753</ele>
        <time>2015-10-20T09:13:57Z</time>
      </trkpt>
      <trkpt lat="45.94592" lon="2.97169">
        <ele>752</ele>
        <time>2015-10-20T09:15:57Z</time>
      </trkpt>
      <trkpt lat="45.94619" lon="2.9715">
        <ele>752</ele>
        <time>2015-10-20T09:17:57Z</time>
      </trkpt>
      <trkpt lat="45.94643" lon="2.97136">
        <ele>752</ele>
        <time>2015-10-20T09:19:57Z</time>
      </trkpt>
      <trkpt lat="45.94696" lon="2.97111">
        <ele>752</ele>
        <time>2015-10-20T09:21:57Z</time>
      </trkpt>
      <trkpt lat="45.94713" lon="2.97104">
        <ele>752</ele>
        <time>2015-10-20T09:23:57Z</time>
      </trkpt>
      <trkpt lat="45.9473" lon="2.97136">
        <ele>756</ele>
        <time>2015-10-20T09:25:57Z</time>
      </trkpt>
      <trkpt lat="45.9476" lon="2.97184">
        <ele>761</ele>
        <time>2015-10-20T09:27:57Z</time>
      </trkpt>
      <trkpt lat="45.94776" lon="2.97205">
        <ele>763</ele>
        <time>2015-10-20T09:29:57Z</time>
      </trkpt>
      <trkpt lat="45.94749" lon="2.97358">
        <ele>771</ele>
        <time>2015-10-20T09:31:57Z</time>
      </trkpt>
      <trkpt lat="45.94743" lon="2.97394">
        <ele>773</ele>
        <time>2015-10-20T09:33:57Z</time>
      </trkpt>
      <trkpt lat="45.94799" lon="2.97404">
        <ele>774</ele>
        <time>2015-10-20T09:35:57Z</time>
      </trkpt>
      <trkpt lat="45.94862" lon="2.97423">
        <ele>776</ele>
        <time>2015-10-20T09:37:57Z</time>
      </trkpt>
      <trkpt lat="45.94905" lon="2.9744">
        <ele>777</ele>
        <time>2015-10-20T09:39:57Z</time>
      </trkpt>
      <trkpt lat="45.94955" lon="2.97463">
        <ele>776</ele>
        <time>2015-10-20T09:41:57Z</time>
      </trkpt>
      <trkpt lat="45.9498" lon="2.97444">
        <ele>774</ele>
        <time>2015-10-20T09:43:57Z</time>
      </trkpt>
      <trkpt lat="45.95017" lon="2.97419">
        <ele>772</ele>
        <time>2015-10-20T09:45:57Z</time>
      </trkpt>
      <trkpt lat="45.95059" lon="2.97388">
        <ele>770</ele>
        <time>2015-10-20T09:47:57Z</time>
      </trkpt>
      <trkpt lat="45.95084" lon="2.97386">
        <ele>770</ele>
        <time>2015-10-20T09:49:57Z</time>
      </trkpt>
      <trkpt lat="45.95104" lon="2.9739">
        <ele>771</ele>
        <time>2015-10-20T09:51:57Z</time>
      </trkpt>
      <trkpt lat="45.95138" lon="2.97414">
        <ele>773</ele>
        <time>2015-10-20T09:53:57Z</time>
      </trkpt>
      <trkpt lat="45.95152" lon="2.97427">
        <ele>773</ele>
        <time>2015-10-20T09:55:57Z</time>
      </trkpt>
      <trkpt lat="45.95184" lon="2.97457">
        <ele>773</ele>
        <time>2015-10-20T09:57:57Z</time>
      </trkpt>
      <trkpt lat="45.95196" lon="2.97455">
        <ele>773</ele>
        <time>2015-10-20T09:59:57Z</time>
      </trkpt>
      <trkpt lat="45.95208" lon="2.97435">
        <ele>774</ele>
        <time>2015-10-20T10:01:57Z</time>
      </trkpt>
      <trkpt lat="45.95215" lon="2.97401">
        <ele>774</ele>
        <time>2015-10-20T10:03:57Z</time>
      </trkpt>
      <trkpt lat="45.95222" lon="2.97363">
        <ele>774</ele>
        <time>2015-10-20T10:05:57Z</time>
      </trkpt>
      <trkpt lat="45.95227" lon="2.97328">
        <ele>773</ele>
        <time>2015-10-20T10:07:57Z</time>
      </trkpt>
      <trkpt lat="45.95231" lon="2.97296">
        <ele>773</ele>
        <time>2015-10-20T10:09:57Z</time>
      </trkpt>
      <trkpt lat="45.95235" lon="2.97253">
        <ele>773</ele>
        <time>2015-10-20T10:11:57Z</time>
      </trkpt>
      <trkpt lat="45.95257" lon="2.97166">
        <ele>772</ele>
        <time>2015-10-20T10:13:57Z</time>
      </trkpt>
      <trkpt lat="45.95283" lon="2.97087">
        <ele>771</ele>
        <time>2015-10-20T10:15:57Z</time>
      </trkpt>
      <trkpt lat="45.95309" lon="2.9701">
        <ele>768</ele>
        <time>2015-10-20T10:17:57Z</time>
      </trkpt>
      <trkpt lat="45.95325" lon="2.96963">
        <ele>767</ele>
        <time>2015-10-20T10:19:57Z</time>
      </trkpt>
      <trkpt lat="45.9535" lon="2.96875">
        <ele>765</ele>
        <time>2015-10-20T10:21:57Z</time>
      </trkpt>
      <trkpt lat="45.95366" lon="2.96821">
        <ele>763</ele>
        <time>2015-10-20T10:23:57Z</time>
      </trkpt>
      <trkpt lat="45.95372" lon="2.96777">
        <ele>761</ele>
        <time>2015-10-20T10:25:57Z</time>
      </trkpt>
      <trkpt lat="45.95378" lon="2.96747">
        <ele>759</ele>
        <time>2015-10-20T10:27:57Z</time>
      </trkpt>
      <trkpt lat="45.95382" lon="2.96722">
        <ele>758</ele>
        <time>2015-10-20T10:29:57Z</time>
      </trkpt>
      <trkpt lat="45.95411" lon="2.96674">
        <ele>758</ele>
        <time>2015-10-20T10:31:57Z</time>
      </trkpt>
      <trkpt lat="45.95436" lon="2.96639">
        <ele>757</ele>
        <time>2015-10-20T10:33:57Z</time>
      </trkpt>
      <trkpt lat="45.95454" lon="2.96603">
        <ele>756</ele>
        <time>2015-10-20T10:35:57Z</time>
      </trkpt>
      <trkpt lat="45.95482" lon="2.96604">
        <ele>756</ele>
        <time>2015-10-20T10:37:57Z</time>
      </trkpt>
      <trkpt lat="45.95504" lon="2.96608">
        <ele>757</ele>
        <time>2015-10-20T10:39:57Z</time>
      </trkpt>
      <trkpt lat="45.95524" lon="2.96608">
        <ele>757</ele>
        <time>2015-10-20T10:41:57Z</time>
      </trkpt>
      <trkpt lat="45.95571" lon="2.96624">
        <ele>759</ele>
        <time>2015-10-20T10:43:57Z</time>
      </trkpt>
      <trkpt lat="45.95626" lon="2.96631">
        <ele>761</ele>
        <time>2015-10-20T10:45:57Z</time>
      </trkpt>
      <trkpt lat="45.95694" lon="2.96623">
        <ele>761</ele>
        <time>2015-10-20T10:47:57Z</time>
      </trkpt>
      <trkpt lat="45.95725" lon="2.96617">
        <ele>760</ele>
        <time>2015-10-20T10:49:57Z</time>
      </trkpt>
      <trkpt lat="45.95774" lon="2.9661">
        <ele>757</ele>
        <time>2015-10-20T10:51:57Z</time>
      </trkpt>
      <trkpt lat="45.95823" lon="2.96631">
        <ele>758</ele>
        <time>2015-10-20T10:53:57Z</time>
      </trkpt>
      <trkpt lat="45.95844" lon="2.96653">
        <ele>760</ele>
        <time>2015-10-20T10:55:57Z</time>
      </trkpt>
      <trkpt lat="45.95867" lon="2.96678">
        <ele>761</ele>
        <time>2015-10-20T10:57:57Z</time>
      </trkpt>
      <trkpt lat="45.95903" lon="2.96726">
        <ele>761</ele>
        <time>2015-10-20T10:59:57Z</time>
      </trkpt>
      <trkpt lat="45.9593" lon="2.96772">
        <ele>763</ele>
        <time>2015-10-20T11:01:57Z</time>
      </trkpt>
      <trkpt lat="45.95958" lon="2.96833">
        <ele>765</ele>
        <time>2015-10-20T11:03:57Z</time>
      </trkpt>
      <trkpt lat="45.95974" lon="2.96891">
        <ele>764</ele>
        <time>2015-10-20T11:05:57Z</time>
      </trkpt>
      <trkpt lat="45.95991" lon="2.96904">
        <ele>761</ele>
        <time>2015-10-20T11:07:57Z</time>
      </trkpt>
      <trkpt lat="45.96011" lon="2.96916">
        <ele>759</ele>
        <time>2015-10-20T11:09:57Z</time>
      </trkpt>
      <trkpt lat="45.96033" lon="2.96928">
        <ele>759</ele>
        <time>2015-10-20T11:11:57Z</time>
      </trkpt>
      <trkpt lat="45.96049" lon="2.96939">
        <ele>759</ele>
        <time>2015-10-20T11:13:57Z</time>
      </trkpt>
      <trkpt lat="45.96065" lon="2.96947">
        <ele>759</ele>
        <time>2015-10-20T11:15:57Z</time>
      </trkpt>
      <trkpt lat="45.96094" lon="2.9696">
        <ele>758</ele>
        <time>2015-10-20T11:17:57Z</time>
      </trkpt>
      <trkpt lat="45.9612" lon="2.96958">
        <ele>754</ele>
        <time>2015-10-20T11:19:57Z</time>
      </trkpt>
      <trkpt lat="45.96152" lon="2.96969">
        <ele>750</ele>
        <time>2015-10-20T11:21:57Z</time>
      </trkpt>
      <trkpt lat="45.96176" lon="2.96986">
        <ele>745</ele>
        <time>2015-10-20T11:23:57Z</time>
      </trkpt>
      <trkpt lat="45.96194" lon="2.9701">
        <ele>740</ele>
        <time>2015-10-20T11:25:57Z</time>
      </trkpt>
      <trkpt lat="45.9621" lon="2.97025">
        <ele>736</ele>
        <time>2015-10-20T11:27:57Z</time>
      </trkpt>
      <trkpt lat="45.96242" lon="2.97065">
        <ele>727</ele>
        <time>2015-10-20T11:29:57Z</time>
      </trkpt>
      <trkpt lat="45.96257" lon="2.97084">
        <ele>723</ele>
        <time>2015-10-20T11:31:57Z</time>
      </trkpt>
      <trkpt lat="45.96271" lon="2.97102">
        <ele>719</ele>
        <time>2015-10-20T11:33:57Z</time>
      </trkpt>
      <trkpt lat="45.96291" lon="2.97119">
        <ele>713</ele>
        <time>2015-10-20T11:35:57Z</time>
      </trkpt>
      <trkpt lat="45.96322" lon="2.97118">
        <ele>704</ele>
        <time>2015-10-20T11:37:57Z</time>
      </trkpt>
      <trkpt lat="45.96348" lon="2.97122">
        <ele>699</ele>
        <time>2015-10-20T11:39:57Z</time>
      </trkpt>
      <trkpt lat="45.96368" lon="2.97131">
        <ele>698</ele>
        <time>2015-10-20T11:41:57Z</time>
      </trkpt>
      <trkpt lat="45.96385" lon="2.9712">
        <ele>697</ele>
        <time>2015-10-20T11:43:57Z</time>
      </trkpt>
      <trkpt lat="45.964" lon="2.97107">
        <ele>696</ele>
        <time>2015-10-20T11:45:57Z</time>
      </trkpt>
      <trkpt lat="45.96413" lon="2.97092">
        <ele>696</ele>
        <time>2015-10-20T11:47:57Z</time>
      </trkpt>
      <trkpt lat="45.96423" lon="2.97079">
        <ele>695</ele>
        <time>2015-10-20T11:49:57Z</time>
      </trkpt>
      <trkpt lat="45.96447" lon="2.97056">
        <ele>693</ele>
        <time>2015-10-20T11:51:57Z</time>
      </trkpt>
      <trkpt lat="45.96458" lon="2.97058">
        <ele>692</ele>
        <time>2015-10-20T11:53:57Z</time>
      </trkpt>
      <trkpt lat="45.96472" lon="2.97066">
        <ele>691</ele>
        <time>2015-10-20T11:55:57Z</time>
      </trkpt>
      <trkpt lat="45.965" lon="2.9708">
        <ele>690</ele>
        <time>2015-10-20T11:57:57Z</time>
      </trkpt>
      <trkpt lat="45.96513" lon="2.97093">
        <ele>690</ele>
        <time>2015-10-20T11:59:57Z</time>
      </trkpt>
      <trkpt lat="45.96525" lon="2.97079">
        <ele>689</ele>
        <time>2015-10-20T12:01:57Z</time>
      </trkpt>
      <trkpt lat="45.96539" lon="2.97061">
        <ele>689</ele>
        <time>2015-10-20T12:03:57Z</time>
      </trkpt>
      <trkpt lat="45.96547" lon="2.97039">
        <ele>689</ele>
        <time>2015-10-20T12:05:57Z</time>
      </trkpt>
      <trkpt lat="45.96564" lon="2.96979">
        <ele>689</ele>
        <time>2015-10-20T12:07:57Z</time>
      </trkpt>
      <trkpt lat="45.96582" lon="2.96918">
        <ele>688</ele>
        <time>2015-10-20T12:09:57Z</time>
      </trkpt>
      <trkpt lat="45.9659" lon="2.9688">
        <ele>686</ele>
        <time>2015-10-20T12:11:57Z</time>
      </trkpt>
      <trkpt lat="45.96615" lon="2.96806">
        <ele>683</ele>
        <time>2015-10-20T12:13:57Z</time>
      </trkpt>
      <trkpt lat="45.96623" lon="2.96788">
        <ele>682</ele>
        <time>2015-10-20T12:15:57Z</time>
      </trkpt>
      <trkpt lat="45.96638" lon="2.96804">
        <ele>683</ele>
        <time>2015-10-20T12:17:57Z</time>
      </trkpt>
      <trkpt lat="45.96659" lon="2.96798">
        <ele>682</ele>
        <time>2015-10-20T12:19:57Z</time>
      </trkpt>
      <trkpt lat="45.96674" lon="2.96794">
        <ele>682</ele>
        <time>2015-10-20T12:21:57Z</time>
      </trkpt>
      <trkpt lat="45.96691" lon="2.96796">
        <ele>681</ele>
        <time>2015-10-20T12:23:57Z</time>
      </trkpt>
      <trkpt lat="45.96706" lon="2.96789">
        <ele>681</ele>
        <time>2015-10-20T12:25:57Z</time>
      </trkpt>
      <trkpt lat="45.96718" lon="2.96796">
        <ele>681</ele>
        <time>2015-10-20T12:27:57Z</time>
      </trkpt>
      <trkpt lat="45.96743" lon="2.96797">
        <ele>680</ele>
        <time>2015-10-20T12:29:57Z</time>
      </trkpt>
      <trkpt lat="45.96759" lon="2.96802">
        <ele>680</ele>
        <time>2015-10-20T12:31:57Z</time>
      </trkpt>
      <trkpt lat="45.96788" lon="2.96808">
        <ele>678</ele>
        <time>2015-10-20T12:33:57Z</time>
      </trkpt>
      <trkpt lat="45.96794" lon="2.96839">
        <ele>678</ele>
        <time>2015-10-20T12:35:57Z</time>
      </trkpt>
      <trkpt lat="45.96806" lon="2.96885">
        <ele>678</ele>
        <time>2015-10-20T12:37:57Z</time>
      </trkpt>
      <trkpt lat="45.96825" lon="2.96849">
        <ele>676</ele>
        <time>2015-10-20T12:39:57Z</time>
      </trkpt>
      <trkpt lat="45.96847" lon="2.96806">
        <ele>673</ele>
        <time>2015-10-20T12:41:57Z</time>
      </trkpt>
      <trkpt lat="45.96863" lon="2.96789">
        <ele>671</ele>
        <time>2015-10-20T12:43:57Z</time>
      </trkpt>
      <trkpt lat="45.96895" lon="2.96745">
        <ele>666</ele>
        <time>2015-10-20T12:45:57Z</time>
      </trkpt>
      <trkpt lat="45.9692" lon="2.96703">
        <ele>661</ele>
        <time>2015-10-20T12:47:57Z</time>
      </trkpt>
      <trkpt lat="45.96935" lon="2.96678">
        <ele>659</ele>
        <time>2015-10-20T12:49:57Z</time>
      </trkpt>
      <trkpt lat="45.96952" lon="2.96639">
        <ele>657</ele>
        <time>2015-10-20T12:51:57Z</time>
      </trkpt>
      <trkpt lat="45.9698" lon="2.96577">
        <ele>658</ele>
        <time>2015-10-20T12:53:57Z</time>
      </trkpt>
      <trkpt lat="45.96993" lon="2.9656">
        <ele>659</ele>
        <time>2015-10-20T12:55:57Z</time>
      </trkpt>
      <trkpt lat="45.97011" lon="2.96556">
        <ele>660</ele>
        <time>2015-10-20T12:57:57Z</time>
      </trkpt>
      <trkpt lat="45.97035" lon="2.96557">
        <ele>659</ele>
        <time>2015-10-20T12:59:57Z</time>
      </trkpt>
      <trkpt lat="45.97073" lon="2.96566">
        <ele>658</ele>
        <time>2015-10-20T13:01:57Z</time>
      </trkpt>
      <trkpt lat="45.97113" lon="2.96563">
        <ele>655</ele>
        <time>2015-10-20T13:03:57Z</time>
      </trkpt>
      <trkpt lat="45.97143" lon="2.96586">
        <ele>649</ele>
        <time>2015-10-20T13:05:57Z</time>
      </trkpt>
      <trkpt lat="45.97169" lon="2.96606">
        <ele>646</ele>
        <time>2015-10-20T13:07:57Z</time>
      </trkpt>
      <trkpt lat="45.97193" lon="2.96625">
        <ele>644</ele>
        <time>2015-10-20T13:09:57Z</time>
      </trkpt>
      <trkpt lat="45.97215" lon="2.96638">
        <ele>643</ele>
        <time>2015-10-20T13:11:57Z</time>
      </trkpt>
      <trkpt lat="45.97238" lon="2.96661">
        <ele>641</ele>
        <time>2015-10-20T13:13:57Z</time>
      </trkpt>
      <trkpt lat="45.97254" lon="2.9667">
        <ele>640</ele>
        <time>2015-10-20T13:15:57Z</time>
      </trkpt>
      <trkpt lat="45.97283" lon="2.96684">
        <ele>638</ele>
        <time>2015-10-20T13:17:57Z</time>
      </trkpt>
      <trkpt lat="45.97302" lon="2.96703">
        <ele>636</ele>
        <time>2015-10-20T13:19:57Z</time>
      </trkpt>
      <trkpt lat="45.97323" lon="2.9671">
        <ele>634</ele>
        <time>2015-10-20T13:21:57Z</time>
      </trkpt>
      <trkpt lat="45.97332" lon="2.96712">
        <ele>633</ele>
        <time>2015-10-20T13:23:57Z</time>
      </trkpt>
      <trkpt lat="45.97367" lon="2.96723">
        <ele>629</ele>
        <time>2015-10-20T13:25:57Z</time>
      </trkpt>
      <trkpt lat="45.97385" lon="2.96729">
        <ele>627</ele>
        <time>2015-10-20T13:27:57Z</time>
      </trkpt>
      <trkpt lat="45.97398" lon="2.96766">
        <ele>623</ele>
        <time>2015-10-20T13:29:57Z</time>
      </trkpt>
      <trkpt lat="45.97395" lon="2.96808">
        <ele>621</ele>
        <time>2015-10-20T13:31:57Z</time>
      </trkpt>
      <trkpt lat="45.97388" lon="2.96836">
        <ele>620</ele>
        <time>2015-10-20T13:33:57Z</time>
      </trkpt>
      <trkpt lat="45.97376" lon="2.96889">
        <ele>621</ele>
        <time>2015-10-20T13:35:57Z</time>
      </trkpt>
      <trkpt lat="45.97374" lon="2.96918">
        <ele>621</ele>
        <time>2015-10-20T13:37:57Z</time>
      </trkpt>
      <trkpt lat="45.97375" lon="2.96937">
        <ele>621</ele>
        <time>2015-10-20T13:39:57Z</time>
      </trkpt>
      <trkpt lat="45.97381" lon="2.96962">
        <ele>621</ele>
        <time>2015-10-20T13:41:57Z</time>
      </trkpt>
      <trkpt lat="45.97392" lon="2.96988">
        <ele>621</ele>
        <time>2015-10-20T13:43:57Z</time>
      </trkpt>
      <trkpt lat="45.97401" lon="2.97018">
        <ele>622</ele>
        <time>2015-10-20T13:45:57Z</time>
      </trkpt>
      <trkpt lat="45.97404" lon="2.97038">
        <ele>623</ele>
        <time>2015-10-20T13:47:57Z</time>
      </trkpt>
      <trkpt lat="45.974" lon="2.97078">
        <ele>626</ele>
        <time>2015-10-20T13:49:57Z</time>
      </trkpt>
      <trkpt lat="45.97394" lon="2.97112">
        <ele>628</ele>
        <time>2015-10-20T13:51:57Z</time>
      </trkpt>
      <trkpt lat="45.97398" lon="2.9715">
        <ele>631</ele>
        <time>2015-10-20T13:53:57Z</time>
      </trkpt>
      <trkpt lat="45.97409" lon="2.97209">
        <ele>634</ele>
        <time>2015-10-20T13:55:57Z</time>
      </trkpt>
      <trkpt lat="45.97435" lon="2.97249">
        <ele>636</ele>
        <time>2015-10-20T13:57:57Z</time>
      </trkpt>
      <trkpt lat="45.97447" lon="2.97265">
        <ele>636</ele>
        <time>2015-10-20T13:59:57Z</time>
      </trkpt>
      <trkpt lat="45.9746" lon="2.97278">
        <ele>636</ele>
        <time>2015-10-20T14:01:57Z</time>
      </trkpt>
      <trkpt lat="45.97498" lon="2.97311">
        <ele>636</ele>
        <time>2015-10-20T14:03:57Z</time>
      </trkpt>
      <trkpt lat="45.97511" lon="2.97319">
        <ele>636</ele>
        <time>2015-10-20T14:05:57Z</time>
      </trkpt>
      <trkpt lat="45.97547" lon="2.97316">
        <ele>635</ele>
        <time>2015-10-20T14:07:57Z</time>
      </trkpt>
      <trkpt lat="45.97558" lon="2.97322">
        <ele>635</ele>
        <time>2015-10-20T14:09:57Z</time>
      </trkpt>
      <trkpt lat="45.97574" lon="2.97344">
        <ele>635</ele>
        <time>2015-10-20T14:11:57Z</time>
      </trkpt>
      <trkpt lat="45.97585" lon="2.97371">
        <ele>635</ele>
        <time>2015-10-20T14:13:57Z</time>
      </trkpt>
      <trkpt lat="45.97598" lon="2.97401">
        <ele>635</ele>
        <time>2015-10-20T14:15:57Z</time>
      </trkpt>
      <trkpt lat="45.97615" lon="2.97433">
        <ele>634</ele>
        <time>2015-10-20T14:17:57Z</time>
      </trkpt>
      <trkpt lat="45.97627" lon="2.97466">
        <ele>633</ele>
        <time>2015-10-20T14:19:57Z</time>
      </trkpt>
      <trkpt lat="45.97638" lon="2.975">
        <ele>630</ele>
        <time>2015-10-20T14:21:57Z</time>
      </trkpt>
      <trkpt lat="45.97645" lon="2.97519">
        <ele>629</ele>
        <time>2015-10-20T14:23:57Z</time>
      </trkpt>
      <trkpt lat="45.9765" lon="2.97544">
        <ele>628</ele>
        <time>2015-10-20T14:25:57Z</time>
      </trkpt>
      <trkpt lat="45.97662" lon="2.97588">
        <ele>627</ele>
        <time>2015-10-20T14:27:57Z</time>
      </trkpt>
      <trkpt lat="45.97674" lon="2.97591">
        <ele>626</ele>
        <time>2015-10-20T14:29:57Z</time>
      </trkpt>
      <trkpt lat="45.97685" lon="2.97584">
        <ele>625</ele>
        <time>2015-10-20T14:31:57Z</time>
      </trkpt>
      <trkpt lat="45.9772" lon="2.97572">
        <ele>623</ele>
        <time>2015-10-20T14:33:57Z</time>
      </trkpt>
      <trkpt lat="45.97738" lon="2.97565">
        <ele>622</ele>
        <time>2015-10-20T14:35:57Z</time>
      </trkpt>
      <trkpt lat="45.97768" lon="2.97557">
        <ele>621</ele>
        <time>2015-10-20T14:37:57Z</time>
      </trkpt>
      <trkpt lat="45.97787" lon="2.97557">
        <ele>620</ele>
        <time>2015-10-20T14:39:57Z</time>
      </trkpt>
      <trkpt lat="45.97796" lon="2.97555">
        <ele>619</ele>
        <time>2015-10-20T14:41:57Z</time>
      </trkpt>
      <trkpt lat="45.97809" lon="2.97554">
        <ele>619</ele>
        <time>2015-10-20T14:43:57Z</time>
      </trkpt>
      <trkpt lat="45.97823" lon="2.97563">
        <ele>618</ele>
        <time>2015-10-20T14:45:57Z</time>
      </trkpt>
      <trkpt lat="45.97838" lon="2.97573">
        <ele>617</ele>
        <time>2015-10-20T14:47:57Z</time>
      </trkpt>
      <trkpt lat="45.9785" lon="2.97585">
        <ele>616</ele>
        <time>2015-10-20T14:49:57Z</time>
      </trkpt>
      <trkpt lat="45.97861" lon="2.97636">
        <ele>617</ele>
        <time>2015-10-20T14:51:57Z</time>
      </trkpt>
      <trkpt lat="45.97868" lon="2.9766">
        <ele>617</ele>
        <time>2015-10-20T14:53:57Z</time>
      </trkpt>
      <trkpt lat="45.97866" lon="2.97692">
        <ele>618</ele>
        <time>2015-10-20T14:55:57Z</time>
      </trkpt>
      <trkpt lat="45.9787" lon="2.97743">
        <ele>620</ele>
        <time>2015-10-20T14:57:57Z</time>
      </trkpt>
      <trkpt lat="45.97878" lon="2.97789">
        <ele>619</ele>
        <time>2015-10-20T14:59:57Z</time>
      </trkpt>
      <trkpt lat="45.97885" lon="2.9785">
        <ele>620</ele>
        <time>2015-10-20T15:01:57Z</time>
      </trkpt>
      <trkpt lat="45.97923" lon="2.97833">
        <ele>617</ele>
        <time>2015-10-20T15:03:57Z</time>
      </trkpt>
      <trkpt lat="45.9794" lon="2.97828">
        <ele>615</ele>
        <time>2015-10-20T15:05:57Z</time>
      </trkpt>
      <trkpt lat="45.97979" lon="2.97855">
        <ele>616</ele>
        <time>2015-10-20T15:07:57Z</time>
      </trkpt>
      <trkpt lat="45.98014" lon="2.97902">
        <ele>621</ele>
        <time>2015-10-20T15:09:57Z</time>
      </trkpt>
      <trkpt lat="45.98043" lon="2.97934">
        <ele>621</ele>
        <time>2015-10-20T15:11:57Z</time>
      </trkpt>
      <trkpt lat="45.98068" lon="2.97942">
        <ele>618</ele>
        <time>2015-10-20T15:13:57Z</time>
      </trkpt>
      <trkpt lat="45.98084" lon="2.97934">
        <ele>615</ele>
        <time>2015-10-20T15:15:57Z</time>
      </trkpt>
      <trkpt lat="45.98104" lon="2.97922">
        <ele>614</ele>
        <time>2015-10-20T15:17:57Z</time>
      </trkpt>
      <trkpt lat="45.98117" lon="2.9798">
        <ele>617</ele>
        <time>2015-10-20T15:19:57Z</time>
      </trkpt>
      <trkpt lat="45.98148" lon="2.9802">
        <ele>618</ele>
        <time>2015-10-20T15:21:57Z</time>
      </trkpt>
      <trkpt lat="45.98178" lon="2.98063">
        <ele>620</ele>
        <time>2015-10-20T15:23:57Z</time>
      </trkpt>
      <trkpt lat="45.98189" lon="2.98084">
        <ele>622</ele>
        <time>2015-10-20T15:25:57Z</time>
      </trkpt>
      <trkpt lat="45.98204" lon="2.98114">
        <ele>624</ele>
        <time>2015-10-20T15:27:57Z</time>
      </trkpt>
      <trkpt lat="45.98226" lon="2.98184">
        <ele>628</ele>
        <time>2015-10-20T15:29:57Z</time>
      </trkpt>
      <trkpt lat="45.9824" lon="2.98194">
        <ele>628</ele>
        <time>2015-10-20T15:31:57Z</time>
      </trkpt>
      <trkpt lat="45.98257" lon="2.98206">
        <ele>629</ele>
        <time>2015-10-20T15:33:57Z</time>
      </trkpt>
      <trkpt lat="45.98267" lon="2.98222">
        <ele>630</ele>
        <time>2015-10-20T15:35:57Z</time>
      </trkpt>
      <trkpt lat="45.98301" lon="2.98256">
        <ele>633</ele>
        <time>2015-10-20T15:37:57Z</time>
      </trkpt>
      <trkpt lat="45.98351" lon="2.98284">
        <ele>635</ele>
        <time>2015-10-20T15:39:57Z</time>
      </trkpt>
      <trkpt lat="45.98377" lon="2.98316">
        <ele>637</ele>
        <time>2015-10-20T15:41:57Z</time>
      </trkpt>
      <trkpt lat="45.9837" lon="2.98355">
        <ele>638</ele>
        <time>2015-10-20T15:43:57Z</time>
      </trkpt>
      <trkpt lat="45.98348" lon="2.98431">
        <ele>638</ele>
        <time>2015-10-20T15:45:57Z</time>
      </trkpt>
      <trkpt lat="45.98332" lon="2.98494">
        <ele>638</ele>
        <time>2015-10-20T15:47:57Z</time>
      </trkpt>
      <trkpt lat="45.98316" lon="2.98543">
        <ele>638</ele>
        <time>2015-10-20T15:49:57Z</time>
      </trkpt>
      <trkpt lat="45.98303" lon="2.98574">
        <ele>638</ele>
        <time>2015-10-20T15:51:57Z</time>
      </trkpt>
      <trkpt lat="45.98288" lon="2.98621">
        <ele>639</ele>
        <time>2015-10-20T15:53:57Z</time>
      </trkpt>
      <trkpt lat="45.98265" lon="2.98609">
        <ele>638</ele>
        <time>2015-10-20T15:55:57Z</time>
      </trkpt>
      <trkpt lat="45.9824" lon="2.98606">
        <ele>637</ele>
        <time>2015-10-20T15:57:57Z</time>
      </trkpt>
      <trkpt lat="45.98224" lon="2.98608">
        <ele>636</ele>
        <time>2015-10-20T15:59:57Z</time>
      </trkpt>
      <trkpt lat="45.98218" lon="2.98665">
        <ele>636</ele>
        <time>2015-10-20T16:01:57Z</time>
      </trkpt>
      <trkpt lat="45.98232" lon="2.98667">
        <ele>637</ele>
        <time>2015-10-20T16:03:57Z</time>
      </trkpt>
      <trkpt lat="45.98246" lon="2.98671">
        <ele>639</ele>
        <time>2015-10-20T16:05:57Z</time>
      </trkpt>
      <trkpt lat="45.9826" lon="2.98673">
        <ele>639</ele>
        <time>2015-10-20T16:07:57Z</time>
      </trkpt>
      <trkpt lat="45.98289" lon="2.98695">
        <ele>641</ele>
        <time>2015-10-20T16:09:57Z</time>
      </trkpt>
      <trkpt lat="45.9832" lon="2.98725">
        <ele>643</ele>
        <time>2015-10-20T16:11:57Z</time>
      </trkpt>
      <trkpt lat="45.98333" lon="2.98742">
        <ele>645</ele>
        <time>2015-10-20T16:13:57Z</time>
      </trkpt>
      <trkpt lat="45.98358" lon="2.98768">
        <ele>647</ele>
        <time>2015-10-20T16:15:57Z</time>
      </trkpt>
      <trkpt lat="45.98388" lon="2.98804">
        <ele>651</ele>
        <time>2015-10-20T16:17:57Z</time>
      </trkpt>
      <trkpt lat="45.98418" lon="2.98831">
        <ele>656</ele>
        <time>2015-10-20T16:19:57Z</time>
      </trkpt>
      <trkpt lat="45.9844" lon="2.98864">
        <ele>657</ele>
        <time>2015-10-20T16:21:57Z</time>
      </trkpt>
      <trkpt lat="45.98451" lon="2.98941">
        <ele>660</ele>
        <time>2015-10-20T16:23:57Z</time>
      </trkpt>
      <trkpt lat="45.9845" lon="2.9897">
        <ele>661</ele>
        <time>2015-10-20T16:25:57Z</time>
      </trkpt>
      <trkpt lat="45.98437" lon="2.98993">
        <ele>660</ele>
        <time>2015-10-20T16:27:57Z</time>
      </trkpt>
      <trkpt lat="45.98428" lon="2.99001">
        <ele>659</ele>
        <time>2015-10-20T16:29:57Z</time>
      </trkpt>
      <trkpt lat="45.98413" lon="2.9903">
        <ele>658</ele>
        <time>2015-10-20T16:31:57Z</time>
      </trkpt>
      <trkpt lat="45.98404" lon="2.99064">
        <ele>658</ele>
        <time>2015-10-20T16:33:57Z</time>
      </trkpt>
      <trkpt lat="45.98403" lon="2.99086">
        <ele>659</ele>
        <time>2015-10-20T16:35:57Z</time>
      </trkpt>
      <trkpt lat="45.98394" lon="2.99122">
        <ele>659</ele>
        <time>2015-10-20T16:37:57Z</time>
      </trkpt>
      <trkpt lat="45.98388" lon="2.99138">
        <ele>659</ele>
        <time>2015-10-20T16:39:57Z</time>
      </trkpt>
      <trkpt lat="45.98366" lon="2.9917">
        <ele>653</ele>
        <time>2015-10-20T16:41:57Z</time>
      </trkpt>
      <trkpt lat="45.98365" lon="2.99196">
        <ele>654</ele>
        <time>2015-10-20T16:43:57Z</time>
      </trkpt>
      <trkpt lat="45.98351" lon="2.99214">
        <ele>649</ele>
        <time>2015-10-20T16:45:57Z</time>
      </trkpt>
      <trkpt lat="45.98341" lon="2.9923">
        <ele>646</ele>
        <time>2015-10-20T16:47:57Z</time>
      </trkpt>
      <trkpt lat="45.98326" lon="2.9925">
        <ele>643</ele>
        <time>2015-10-20T16:49:57Z</time>
      </trkpt>
      <trkpt lat="45.9833" lon="2.99268">
        <ele>645</ele>
        <time>2015-10-20T16:51:57Z</time>
      </trkpt>
      <trkpt lat="45.98321" lon="2.99276">
        <ele>645</ele>
        <time>2015-10-20T16:53:57Z</time>
      </trkpt>
      <trkpt lat="45.98307" lon="2.99304">
        <ele>645</ele>
        <time>2015-10-20T16:55:57Z</time>
      </trkpt>
      <trkpt lat="45.98297" lon="2.99313">
        <ele>643</ele>
        <time>2015-10-20T16:57:57Z</time>
      </trkpt>
      <trkpt lat="45.9829" lon="2.99344">
        <ele>644</ele>
        <time>2015-10-20T16:59:57Z</time>
      </trkpt>
      <trkpt lat="45.98274" lon="2.9937">
        <ele>643</ele>
        <time>2015-10-20T17:01:57Z</time>
      </trkpt>
      <trkpt lat="45.98263" lon="2.99391">
        <ele>642</ele>
        <time>2015-10-20T17:03:57Z</time>
      </trkpt>
      <trkpt lat="45.98245" lon="2.99416">
        <ele>640</ele>
        <time>2015-10-20T17:05:57Z</time>
      </trkpt>
      <trkpt lat="45.9823" lon="2.99432">
        <ele>643</ele>
        <time>2015-10-20T17:07:57Z</time>
      </trkpt>
      <trkpt lat="45.98218" lon="2.99444">
        <ele>644</ele>
        <time>2015-10-20T17:09:57Z</time>
      </trkpt>
      <trkpt lat="45.98188" lon="2.99459">
        <ele>645</ele>
        <time>2015-10-20T17:11:57Z</time>
      </trkpt>
      <trkpt lat="45.98173" lon="2.99466">
        <ele>645</ele>
        <time>2015-10-20T17:13:57Z</time>
      </trkpt>
      <trkpt lat="45.98143" lon="2.99478">
        <ele>646</ele>
        <time>2015-10-20T17:15:57Z</time>
      </trkpt>
      <trkpt lat="45.98128" lon="2.99491">
        <ele>647</ele>
        <time>2015-10-20T17:17:57Z</time>
      </trkpt>
      <trkpt lat="45.98116" lon="2.99502">
        <ele>648</ele>
        <time>2015-10-20T17:19:57Z</time>
      </trkpt>
      <trkpt lat="45.98087" lon="2.99522">
        <ele>650</ele>
        <time>2015-10-20T17:21:57Z</time>
      </trkpt>
      <trkpt lat="45.98056" lon="2.9953">
        <ele>651</ele>
        <time>2015-10-20T17:23:57Z</time>
      </trkpt>
      <trkpt lat="45.98034" lon="2.99525">
        <ele>649</ele>
        <time>2015-10-20T17:25:57Z</time>
      </trkpt>
      <trkpt lat="45.97993" lon="2.99522">
        <ele>648</ele>
        <time>2015-10-20T17:27:57Z</time>
      </trkpt>
      <trkpt lat="45.97958" lon="2.9952">
        <ele>652</ele>
        <time>2015-10-20T17:29:57Z</time>
      </trkpt>
      <trkpt lat="45.97931" lon="2.99494">
        <ele>648</ele>
        <time>2015-10-20T17:31:57Z</time>
      </trkpt>
      <trkpt lat="45.97895" lon="2.99478">
        <ele>652</ele>
        <time>2015-10-20T17:33:57Z</time>
      </trkpt>
      <trkpt lat="45.97865" lon="2.99458">
        <ele>654</ele>
        <time>2015-10-20T17:35:57Z</time>
      </trkpt>
      <trkpt lat="45.97853" lon="2.99444">
        <ele>654</ele>
        <time>2015-10-20T17:37:57Z</time>
      </trkpt>
      <trkpt lat="45.97842" lon="2.99418">
        <ele>650</ele>
        <time>2015-10-20T17:39:57Z</time>
      </trkpt>
      <trkpt lat="45.9783" lon="2.99399">
        <ele>649</ele>
        <time>2015-10-20T17:41:57Z</time>
      </trkpt>
      <trkpt lat="45.97814" lon="2.99379">
        <ele>652</ele>
        <time>2015-10-20T17:43:57Z</time>
      </trkpt>
      <trkpt lat="45.97788" lon="2.99346">
        <ele>657</ele>
        <time>2015-10-20T17:45:57Z</time>
      </trkpt>
      <trkpt lat="45.97769" lon="2.99338">
        <ele>664</ele>
        <time>2015-10-20T17:47:57Z</time>
      </trkpt>
      <trkpt lat="45.97767" lon="2.99346">
        <ele>666</ele>
        <time>2015-10-20T17:49:57Z</time>
      </trkpt>
      <trkpt lat="45.97759" lon="2.9934">
        <ele>669</ele>
        <time>2015-10-20T17:51:57Z</time>
      </trkpt>
      <trkpt lat="45.97738" lon="2.99324">
        <ele>674</ele>
        <time>2015-10-20T17:53:57Z</time>
      </trkpt>
      <trkpt lat="45.97736" lon="2.99294">
        <ele>670</ele>
        <time>2015-10-20T17:55:57Z</time>
      </trkpt>
      <trkpt lat="45.97718" lon="2.99262">
        <ele>671</ele>
        <time>2015-10-20T17:57:57Z</time>
      </trkpt>
      <trkpt lat="45.97717" lon="2.99223">
        <ele>668</ele>
        <time>2015-10-20T17:59:57Z</time>
      </trkpt>
      <trkpt lat="45.97722" lon="2.99174">
        <ele>664</ele>
        <time>2015-10-20T18:01:57Z</time>
      </trkpt>
      <trkpt lat="45.97723" lon="2.99124">
        <ele>662</ele>
        <time>2015-10-20T18:03:57Z</time>
      </trkpt>
      <trkpt lat="45.97727" lon="2.99081">
        <ele>660</ele>
        <time>2015-10-20T18:05:57Z</time>
      </trkpt>
      <trkpt lat="45.97735" lon="2.99066">
        <ele>658</ele>
        <time>2015-10-20T18:07:57Z</time>
      </trkpt>
      <trkpt lat="45.97742" lon="2.99051">
        <ele>655</ele>
        <time>2015-10-20T18:09:57Z</time>
      </trkpt>
      <trkpt lat="45.97748" lon="2.99038">
        <ele>653</ele>
        <time>2015-10-20T18:11:57Z</time>
      </trkpt>
      <trkpt lat="45.97764" lon="2.99006">
        <ele>648</ele>
        <time>2015-10-20T18:13:57Z</time>
      </trkpt>
      <trkpt lat="45.9777" lon="2.98998">
        <ele>647</ele>
        <time>2015-10-20T18:15:57Z</time>
      </trkpt>
      <trkpt lat="45.97773" lon="2.98987">
        <ele>646</ele>
        <time>2015-10-20T18:17:57Z</time>
      </trkpt>
      <trkpt lat="45.97769" lon="2.98958">
        <ele>646</ele>
        <time>2015-10-20T18:19:57Z</time>
      </trkpt>
      <trkpt lat="45.97773" lon="2.98941">
        <ele>644</ele>
        <time>2015-10-20T18:21:57Z</time>
      </trkpt>
      <trkpt lat="45.97777" lon="2.98932">
        <ele>644</ele>
        <time>2015-10-20T18:23:57Z</time>
      </trkpt>
      <trkpt lat="45.97793" lon="2.98913">
        <ele>641</ele>
        <time>2015-10-20T18:25:57Z</time>
      </trkpt>
      <trkpt lat="45.97798" lon="2.98907">
        <ele>640</ele>
        <time>2015-10-20T18:27:57Z</time>
      </trkpt>
      <trkpt lat="45.978" lon="2.98898">
        <ele>641</ele>
        <time>2015-10-20T18:29:57Z</time>
      </trkpt>
      <trkpt lat="45.97811" lon="2.98846">
        <ele>646</ele>
        <time>2015-10-20T18:31:57Z</time>
      </trkpt>
      <trkpt lat="45.9782" lon="2.98841">
        <ele>645</ele>
        <time>2015-10-20T18:33:57Z</time>
      </trkpt>
      <trkpt lat="45.9783" lon="2.9883">
        <ele>646</ele>
        <time>2015-10-20T18:35:57Z</time>
      </trkpt>
      <trkpt lat="45.97841" lon="2.9882">
        <ele>645</ele>
        <time>2015-10-20T18:37:57Z</time>
      </trkpt>
      <trkpt lat="45.97846" lon="2.98809">
        <ele>646</ele>
        <time>2015-10-20T18:39:57Z</time>
      </trkpt>
      <trkpt lat="45.97852" lon="2.98791">
        <ele>647</ele>
        <time>2015-10-20T18:41:57Z</time>
      </trkpt>
      <trkpt lat="45.97861" lon="2.98777">
        <ele>648</ele>
        <time>2015-10-20T18:43:57Z</time>
      </trkpt>
      <trkpt lat="45.97885" lon="2.9875">
        <ele>650</ele>
        <time>2015-10-20T18:45:57Z</time>
      </trkpt>
      <trkpt lat="45.97893" lon="2.98742">
        <ele>649</ele>
        <time>2015-10-20T18:47:57Z</time>
      </trkpt>
      <trkpt lat="45.97904" lon="2.98735">
        <ele>649</ele>
        <time>2015-10-20T18:49:57Z</time>
      </trkpt>
      <trkpt lat="45.97917" lon="2.98724">
        <ele>649</ele>
        <time>2015-10-20T18:51:57Z</time>
      </trkpt>
      <trkpt lat="45.97929" lon="2.98715">
        <ele>647</ele>
        <time>2015-10-20T18:53:57Z</time>
      </trkpt>
      <trkpt lat="45.97961" lon="2.98695">
        <ele>645</ele>
        <time>2015-10-20T18:55:57Z</time>
      </trkpt>
      <trkpt lat="45.97981" lon="2.98686">
        <ele>644</ele>
        <time>2015-10-20T18:57:57Z</time>
      </trkpt>
      <trkpt lat="45.97999" lon="2.98674">
        <ele>643</ele>
        <time>2015-10-20T18:59:57Z</time>
      </trkpt>
      <trkpt lat="45.98029" lon="2.98666">
        <ele>641</ele>
        <time>2015-10-20T19:01:57Z</time>
      </trkpt>
      <trkpt lat="45.98076" lon="2.98665">
        <ele>636</ele>
        <time>2015-10-20T19:03:57Z</time>
      </trkpt>
      <trkpt lat="45.98093" lon="2.98668">
        <ele>635</ele>
        <time>2015-10-20T19:05:57Z</time>
      </trkpt>
      <trkpt lat="45.98128" lon="2.98674">
        <ele>633</ele>
        <time>2015-10-20T19:07:57Z</time>
      </trkpt>
      <trkpt lat="45.98171" lon="2.98674">
        <ele>632</ele>
        <time>2015-10-20T19:09:57Z</time>
      </trkpt>
      <trkpt lat="45.98192" lon="2.98671">
        <ele>634</ele>
        <time>2015-10-20T19:11:57Z</time>
      </trkpt>
      <trkpt lat="45.98209" lon="2.98671">
        <ele>636</ele>
        <time>2015-10-20T19:13:57Z</time>
      </trkpt>
    </trkseg>
  </trk>
  <trk>
    <name><![CDATA[--Manzat-- OR-5377765:ser-jb07-vtt-l]]></name>
    <trkseg>
      <trkpt lat="45.96117" lon="2.9417">
        <ele>630</ele>
        <time>2015-10-18T23:11:26Z</time>
      </trkpt>
      <trkpt lat="45.96109" lon="2.94175">
        <ele>630</ele>
        <time>2015-10-18T23:13:26Z</time>
      </trkpt>
      <trkpt lat="45.96091" lon="2.94214">
        <ele>632</ele>
        <time>2015-10-18T23:15:26Z</time>
      </trkpt>
      <trkpt lat="45.9608" lon="2.94231">
        <ele>633</ele>
        <time>2015-10-18T23:17:26Z</time>
      </trkpt>
      <trkpt lat="45.96067" lon="2.94247">
        <ele>635</ele>
        <time>2015-10-18T23:19:26Z</time>
      </trkpt>
      <trkpt lat="45.96055" lon="2.9427">
        <ele>638</ele>
        <time>2015-10-18T23:21:26Z</time>
      </trkpt>
      <trkpt lat="45.96046" lon="2.94308">
        <ele>642</ele>
        <time>2015-10-18T23:23:26Z</time>
      </trkpt>
      <trkpt lat="45.9604" lon="2.94321">
        <ele>643</ele>
        <time>2015-10-18T23:25:26Z</time>
      </trkpt>
      <trkpt lat="45.96002" lon="2.94353">
        <ele>650</ele>
        <time>2015-10-18T23:27:26Z</time>
      </trkpt>
      <trkpt lat="45.95987" lon="2.94364">
        <ele>652</ele>
        <time>2015-10-18T23:29:26Z</time>
      </trkpt>
      <trkpt lat="45.95966" lon="2.94382">
        <ele>656</ele>
        <time>2015-10-18T23:31:26Z</time>
      </trkpt>
      <trkpt lat="45.95897" lon="2.94431">
        <ele>671</ele>
        <time>2015-10-18T23:33:26Z</time>
      </trkpt>
      <trkpt lat="45.95882" lon="2.9442">
        <ele>672</ele>
        <time>2015-10-18T23:35:26Z</time>
      </trkpt>
      <trkpt lat="45.95858" lon="2.9439">
        <ele>673</ele>
        <time>2015-10-18T23:37:26Z</time>
      </trkpt>
      <trkpt lat="45.95835" lon="2.94368">
        <ele>675</ele>
        <time>2015-10-18T23:39:26Z</time>
      </trkpt>
      <trkpt lat="45.95805" lon="2.94354">
        <ele>678</ele>
        <time>2015-10-18T23:41:26Z</time>
      </trkpt>
      <trkpt lat="45.9572" lon="2.94574">
        <ele>718</ele>
        <time>2015-10-18T23:43:26Z</time>
      </trkpt>
      <trkpt lat="45.95725" lon="2.94601">
        <ele>722</ele>
        <time>2015-10-18T23:45:26Z</time>
      </trkpt>
      <trkpt lat="45.95738" lon="2.94631">
        <ele>725</ele>
        <time>2015-10-18T23:47:26Z</time>
      </trkpt>
      <trkpt lat="45.95738" lon="2.94657">
        <ele>729</ele>
        <time>2015-10-18T23:49:26Z</time>
      </trkpt>
      <trkpt lat="45.95735" lon="2.94691">
        <ele>734</ele>
        <time>2015-10-18T23:51:26Z</time>
      </trkpt>
      <trkpt lat="45.95741" lon="2.94741">
        <ele>739</ele>
        <time>2015-10-18T23:53:26Z</time>
      </trkpt>
      <trkpt lat="45.95739" lon="2.94771">
        <ele>742</ele>
        <time>2015-10-18T23:55:26Z</time>
      </trkpt>
      <trkpt lat="45.95721" lon="2.94796">
        <ele>746</ele>
        <time>2015-10-18T23:57:26Z</time>
      </trkpt>
      <trkpt lat="45.95706" lon="2.94822">
        <ele>749</ele>
        <time>2015-10-18T23:59:26Z</time>
      </trkpt>
      <trkpt lat="45.9564" lon="2.94842">
        <ele>757</ele>
        <time>2015-10-19T00:01:26Z</time>
      </trkpt>
      <trkpt lat="45.95587" lon="2.94826">
        <ele>766</ele>
        <time>2015-10-19T00:03:26Z</time>
      </trkpt>
      <trkpt lat="45.95578" lon="2.94814">
        <ele>766</ele>
        <time>2015-10-19T00:05:26Z</time>
      </trkpt>
      <trkpt lat="45.95532" lon="2.94792">
        <ele>767</ele>
        <time>2015-10-19T00:07:26Z</time>
      </trkpt>
      <trkpt lat="45.95437" lon="2.94742">
        <ele>774</ele>
        <time>2015-10-19T00:09:26Z</time>
      </trkpt>
      <trkpt lat="45.95411" lon="2.94714">
        <ele>776</ele>
        <time>2015-10-19T00:11:26Z</time>
      </trkpt>
      <trkpt lat="45.95331" lon="2.94607">
        <ele>778</ele>
        <time>2015-10-19T00:13:26Z</time>
      </trkpt>
      <trkpt lat="45.95301" lon="2.94558">
        <ele>774</ele>
        <time>2015-10-19T00:15:26Z</time>
      </trkpt>
      <trkpt lat="45.9523" lon="2.94518">
        <ele>770</ele>
        <time>2015-10-19T00:17:26Z</time>
      </trkpt>
      <trkpt lat="45.95204" lon="2.94493">
        <ele>768</ele>
        <time>2015-10-19T00:19:26Z</time>
      </trkpt>
      <trkpt lat="45.95174" lon="2.94448">
        <ele>766</ele>
        <time>2015-10-19T00:21:26Z</time>
      </trkpt>
      <trkpt lat="45.95125" lon="2.94385">
        <ele>762</ele>
        <time>2015-10-19T00:23:26Z</time>
      </trkpt>
      <trkpt lat="45.95111" lon="2.9439">
        <ele>763</ele>
        <time>2015-10-19T00:25:26Z</time>
      </trkpt>
      <trkpt lat="45.951" lon="2.94424">
        <ele>767</ele>
        <time>2015-10-19T00:27:26Z</time>
      </trkpt>
      <trkpt lat="45.95077" lon="2.94413">
        <ele>767</ele>
        <time>2015-10-19T00:29:26Z</time>
      </trkpt>
      <trkpt lat="45.95041" lon="2.94389">
        <ele>764</ele>
        <time>2015-10-19T00:31:26Z</time>
      </trkpt>
      <trkpt lat="45.94991" lon="2.94361">
        <ele>761</ele>
        <time>2015-10-19T00:33:26Z</time>
      </trkpt>
      <trkpt lat="45.94963" lon="2.94346">
        <ele>761</ele>
        <time>2015-10-19T00:35:26Z</time>
      </trkpt>
      <trkpt lat="45.94957" lon="2.94402">
        <ele>770</ele>
        <time>2015-10-19T00:37:26Z</time>
      </trkpt>
      <trkpt lat="45.94863" lon="2.94346">
        <ele>771</ele>
        <time>2015-10-19T00:39:26Z</time>
      </trkpt>
      <trkpt lat="45.94768" lon="2.94286">
        <ele>770</ele>
        <time>2015-10-19T00:41:26Z</time>
      </trkpt>
      <trkpt lat="45.94716" lon="2.94238">
        <ele>766</ele>
        <time>2015-10-19T00:43:26Z</time>
      </trkpt>
      <trkpt lat="45.94667" lon="2.94194">
        <ele>760</ele>
        <time>2015-10-19T00:45:26Z</time>
      </trkpt>
      <trkpt lat="45.94642" lon="2.9418">
        <ele>757</ele>
        <time>2015-10-19T00:47:26Z</time>
      </trkpt>
      <trkpt lat="45.94617" lon="2.94165">
        <ele>754</ele>
        <time>2015-10-19T00:49:26Z</time>
      </trkpt>
      <trkpt lat="45.9458" lon="2.94129">
        <ele>748</ele>
        <time>2015-10-19T00:51:26Z</time>
      </trkpt>
      <trkpt lat="45.94562" lon="2.94129">
        <ele>747</ele>
        <time>2015-10-19T00:53:26Z</time>
      </trkpt>
      <trkpt lat="45.94541" lon="2.9414">
        <ele>748</ele>
        <time>2015-10-19T00:55:26Z</time>
      </trkpt>
      <trkpt lat="45.94512" lon="2.94164">
        <ele>748</ele>
        <time>2015-10-19T00:57:26Z</time>
      </trkpt>
      <trkpt lat="45.94487" lon="2.9419">
        <ele>754</ele>
        <time>2015-10-19T00:59:26Z</time>
      </trkpt>
      <trkpt lat="45.94461" lon="2.94213">
        <ele>760</ele>
        <time>2015-10-19T01:01:26Z</time>
      </trkpt>
      <trkpt lat="45.94451" lon="2.94214">
        <ele>761</ele>
        <time>2015-10-19T01:03:26Z</time>
      </trkpt>
      <trkpt lat="45.94439" lon="2.94203">
        <ele>760</ele>
        <time>2015-10-19T01:05:26Z</time>
      </trkpt>
      <trkpt lat="45.94431" lon="2.94174">
        <ele>759</ele>
        <time>2015-10-19T01:07:26Z</time>
      </trkpt>
      <trkpt lat="45.94431" lon="2.94151">
        <ele>759</ele>
        <time>2015-10-19T01:09:26Z</time>
      </trkpt>
      <trkpt lat="45.94443" lon="2.94118">
        <ele>756</ele>
        <time>2015-10-19T01:11:26Z</time>
      </trkpt>
      <trkpt lat="45.94453" lon="2.94099">
        <ele>753</ele>
        <time>2015-10-19T01:13:26Z</time>
      </trkpt>
      <trkpt lat="45.94469" lon="2.94068">
        <ele>748</ele>
        <time>2015-10-19T01:15:26Z</time>
      </trkpt>
      <trkpt lat="45.94466" lon="2.94041">
        <ele>746</ele>
        <time>2015-10-19T01:17:26Z</time>
      </trkpt>
      <trkpt lat="45.94455" lon="2.94025">
        <ele>747</ele>
        <time>2015-10-19T01:19:26Z</time>
      </trkpt>
      <trkpt lat="45.94437" lon="2.93995">
        <ele>747</ele>
        <time>2015-10-19T01:21:26Z</time>
      </trkpt>
      <trkpt lat="45.9442" lon="2.93968">
        <ele>745</ele>
        <time>2015-10-19T01:23:26Z</time>
      </trkpt>
      <trkpt lat="45.94401" lon="2.93952">
        <ele>744</ele>
        <time>2015-10-19T01:25:26Z</time>
      </trkpt>
      <trkpt lat="45.9439" lon="2.93956">
        <ele>746</ele>
        <time>2015-10-19T01:27:26Z</time>
      </trkpt>
      <trkpt lat="45.94374" lon="2.93958">
        <ele>748</ele>
        <time>2015-10-19T01:29:26Z</time>
      </trkpt>
      <trkpt lat="45.94361" lon="2.93965">
        <ele>750</ele>
        <time>2015-10-19T01:31:26Z</time>
      </trkpt>
      <trkpt lat="45.94346" lon="2.93976">
        <ele>752</ele>
        <time>2015-10-19T01:33:26Z</time>
      </trkpt>
      <trkpt lat="45.94316" lon="2.9402">
        <ele>759</ele>
        <time>2015-10-19T01:35:26Z</time>
      </trkpt>
      <trkpt lat="45.94278" lon="2.94066">
        <ele>763</ele>
        <time>2015-10-19T01:37:26Z</time>
      </trkpt>
      <trkpt lat="45.9424" lon="2.94105">
        <ele>767</ele>
        <time>2015-10-19T01:39:26Z</time>
      </trkpt>
      <trkpt lat="45.94205" lon="2.94132">
        <ele>770</ele>
        <time>2015-10-19T01:41:26Z</time>
      </trkpt>
      <trkpt lat="45.94185" lon="2.94146">
        <ele>772</ele>
        <time>2015-10-19T01:43:26Z</time>
      </trkpt>
      <trkpt lat="45.94128" lon="2.94166">
        <ele>776</ele>
        <time>2015-10-19T01:45:26Z</time>
      </trkpt>
      <trkpt lat="45.94075" lon="2.94171">
        <ele>780</ele>
        <time>2015-10-19T01:47:26Z</time>
      </trkpt>
      <trkpt lat="45.94049" lon="2.94178">
        <ele>784</ele>
        <time>2015-10-19T01:49:26Z</time>
      </trkpt>
      <trkpt lat="45.93979" lon="2.94193">
        <ele>792</ele>
        <time>2015-10-19T01:51:26Z</time>
      </trkpt>
      <trkpt lat="45.93955" lon="2.94183">
        <ele>793</ele>
        <time>2015-10-19T01:53:26Z</time>
      </trkpt>
      <trkpt lat="45.9393" lon="2.94187">
        <ele>796</ele>
        <time>2015-10-19T01:55:26Z</time>
      </trkpt>
      <trkpt lat="45.93909" lon="2.94192">
        <ele>798</ele>
        <time>2015-10-19T01:57:26Z</time>
      </trkpt>
      <trkpt lat="45.93891" lon="2.94203">
        <ele>801</ele>
        <time>2015-10-19T01:59:26Z</time>
      </trkpt>
      <trkpt lat="45.93858" lon="2.94228">
        <ele>804</ele>
        <time>2015-10-19T02:01:26Z</time>
      </trkpt>
      <trkpt lat="45.93845" lon="2.94242">
        <ele>805</ele>
        <time>2015-10-19T02:03:26Z</time>
      </trkpt>
      <trkpt lat="45.93823" lon="2.94252">
        <ele>807</ele>
        <time>2015-10-19T02:05:26Z</time>
      </trkpt>
      <trkpt lat="45.93789" lon="2.94268">
        <ele>812</ele>
        <time>2015-10-19T02:07:26Z</time>
      </trkpt>
      <trkpt lat="45.93738" lon="2.9429">
        <ele>818</ele>
        <time>2015-10-19T02:09:26Z</time>
      </trkpt>
      <trkpt lat="45.93688" lon="2.94298">
        <ele>822</ele>
        <time>2015-10-19T02:11:26Z</time>
      </trkpt>
      <trkpt lat="45.9367" lon="2.94304">
        <ele>823</ele>
        <time>2015-10-19T02:13:26Z</time>
      </trkpt>
      <trkpt lat="45.93626" lon="2.94285">
        <ele>827</ele>
        <time>2015-10-19T02:15:26Z</time>
      </trkpt>
      <trkpt lat="45.93585" lon="2.94276">
        <ele>831</ele>
        <time>2015-10-19T02:17:26Z</time>
      </trkpt>
      <trkpt lat="45.93521" lon="2.9427">
        <ele>832</ele>
        <time>2015-10-19T02:19:26Z</time>
      </trkpt>
      <trkpt lat="45.93499" lon="2.94229">
        <ele>833</ele>
        <time>2015-10-19T02:21:26Z</time>
      </trkpt>
      <trkpt lat="45.93473" lon="2.94171">
        <ele>836</ele>
        <time>2015-10-19T02:23:26Z</time>
      </trkpt>
      <trkpt lat="45.93447" lon="2.94139">
        <ele>834</ele>
        <time>2015-10-19T02:25:26Z</time>
      </trkpt>
      <trkpt lat="45.93433" lon="2.9411">
        <ele>832</ele>
        <time>2015-10-19T02:27:26Z</time>
      </trkpt>
      <trkpt lat="45.9343" lon="2.94051">
        <ele>829</ele>
        <time>2015-10-19T02:29:26Z</time>
      </trkpt>
      <trkpt lat="45.9344" lon="2.93981">
        <ele>827</ele>
        <time>2015-10-19T02:31:26Z</time>
      </trkpt>
      <trkpt lat="45.9345" lon="2.93943">
        <ele>826</ele>
        <time>2015-10-19T02:33:26Z</time>
      </trkpt>
      <trkpt lat="45.93469" lon="2.93879">
        <ele>825</ele>
        <time>2015-10-19T02:35:26Z</time>
      </trkpt>
      <trkpt lat="45.9347" lon="2.93849">
        <ele>824</ele>
        <time>2015-10-19T02:37:26Z</time>
      </trkpt>
      <trkpt lat="45.93476" lon="2.93785">
        <ele>820</ele>
        <time>2015-10-19T02:39:26Z</time>
      </trkpt>
      <trkpt lat="45.93484" lon="2.93734">
        <ele>817</ele>
        <time>2015-10-19T02:41:26Z</time>
      </trkpt>
      <trkpt lat="45.93485" lon="2.93673">
        <ele>813</ele>
        <time>2015-10-19T02:43:26Z</time>
      </trkpt>
      <trkpt lat="45.93476" lon="2.93616">
        <ele>814</ele>
        <time>2015-10-19T02:45:26Z</time>
      </trkpt>
      <trkpt lat="45.93461" lon="2.93573">
        <ele>812</ele>
        <time>2015-10-19T02:47:26Z</time>
      </trkpt>
      <trkpt lat="45.93429" lon="2.93482">
        <ele>809</ele>
        <time>2015-10-19T02:49:26Z</time>
      </trkpt>
      <trkpt lat="45.93422" lon="2.93415">
        <ele>810</ele>
        <time>2015-10-19T02:51:26Z</time>
      </trkpt>
      <trkpt lat="45.93412" lon="2.9338">
        <ele>810</ele>
        <time>2015-10-19T02:53:26Z</time>
      </trkpt>
      <trkpt lat="45.93395" lon="2.9333">
        <ele>810</ele>
        <time>2015-10-19T02:55:26Z</time>
      </trkpt>
      <trkpt lat="45.93376" lon="2.9328">
        <ele>810</ele>
        <time>2015-10-19T02:57:26Z</time>
      </trkpt>
      <trkpt lat="45.93364" lon="2.93247">
        <ele>809</ele>
        <time>2015-10-19T02:59:26Z</time>
      </trkpt>
      <trkpt lat="45.93353" lon="2.93186">
        <ele>809</ele>
        <time>2015-10-19T03:01:26Z</time>
      </trkpt>
      <trkpt lat="45.93351" lon="2.93148">
        <ele>808</ele>
        <time>2015-10-19T03:03:26Z</time>
      </trkpt>
      <trkpt lat="45.93363" lon="2.93105">
        <ele>808</ele>
        <time>2015-10-19T03:05:26Z</time>
      </trkpt>
      <trkpt lat="45.93379" lon="2.93071">
        <ele>809</ele>
        <time>2015-10-19T03:07:26Z</time>
      </trkpt>
      <trkpt lat="45.93405" lon="2.93043">
        <ele>811</ele>
        <time>2015-10-19T03:09:26Z</time>
      </trkpt>
      <trkpt lat="45.93421" lon="2.9302">
        <ele>812</ele>
        <time>2015-10-19T03:11:26Z</time>
      </trkpt>
      <trkpt lat="45.93383" lon="2.93009">
        <ele>806</ele>
        <time>2015-10-19T03:13:26Z</time>
      </trkpt>
      <trkpt lat="45.9335" lon="2.93004">
        <ele>801</ele>
        <time>2015-10-19T03:15:26Z</time>
      </trkpt>
      <trkpt lat="45.93336" lon="2.93004">
        <ele>799</ele>
        <time>2015-10-19T03:17:26Z</time>
      </trkpt>
      <trkpt lat="45.93311" lon="2.93026">
        <ele>796</ele>
        <time>2015-10-19T03:19:26Z</time>
      </trkpt>
      <trkpt lat="45.93294" lon="2.93041">
        <ele>794</ele>
        <time>2015-10-19T03:21:26Z</time>
      </trkpt>
      <trkpt lat="45.93277" lon="2.93072">
        <ele>792</ele>
        <time>2015-10-19T03:23:26Z</time>
      </trkpt>
      <trkpt lat="45.93262" lon="2.93095">
        <ele>790</ele>
        <time>2015-10-19T03:25:26Z</time>
      </trkpt>
      <trkpt lat="45.9325" lon="2.93105">
        <ele>789</ele>
        <time>2015-10-19T03:27:26Z</time>
      </trkpt>
      <trkpt lat="45.93229" lon="2.93119">
        <ele>792</ele>
        <time>2015-10-19T03:29:26Z</time>
      </trkpt>
      <trkpt lat="45.9321" lon="2.93121">
        <ele>794</ele>
        <time>2015-10-19T03:31:26Z</time>
      </trkpt>
      <trkpt lat="45.93187" lon="2.93095">
        <ele>796</ele>
        <time>2015-10-19T03:33:26Z</time>
      </trkpt>
      <trkpt lat="45.93156" lon="2.93073">
        <ele>797</ele>
        <time>2015-10-19T03:35:26Z</time>
      </trkpt>
      <trkpt lat="45.93125" lon="2.93057">
        <ele>799</ele>
        <time>2015-10-19T03:37:26Z</time>
      </trkpt>
      <trkpt lat="45.93106" lon="2.93049">
        <ele>800</ele>
        <time>2015-10-19T03:39:26Z</time>
      </trkpt>
      <trkpt lat="45.93079" lon="2.9305">
        <ele>801</ele>
        <time>2015-10-19T03:41:26Z</time>
      </trkpt>
      <trkpt lat="45.93053" lon="2.93057">
        <ele>804</ele>
        <time>2015-10-19T03:43:26Z</time>
      </trkpt>
      <trkpt lat="45.93016" lon="2.93122">
        <ele>811</ele>
        <time>2015-10-19T03:45:26Z</time>
      </trkpt>
      <trkpt lat="45.93012" lon="2.93157">
        <ele>813</ele>
        <time>2015-10-19T03:47:26Z</time>
      </trkpt>
      <trkpt lat="45.93" lon="2.93196">
        <ele>818</ele>
        <time>2015-10-19T03:49:26Z</time>
      </trkpt>
      <trkpt lat="45.92973" lon="2.93262">
        <ele>823</ele>
        <time>2015-10-19T03:51:26Z</time>
      </trkpt>
      <trkpt lat="45.92959" lon="2.93293">
        <ele>824</ele>
        <time>2015-10-19T03:53:26Z</time>
      </trkpt>
      <trkpt lat="45.9293" lon="2.93397">
        <ele>825</ele>
        <time>2015-10-19T03:55:26Z</time>
      </trkpt>
      <trkpt lat="45.92905" lon="2.93457">
        <ele>828</ele>
        <time>2015-10-19T03:57:26Z</time>
      </trkpt>
      <trkpt lat="45.92886" lon="2.93462">
        <ele>829</ele>
        <time>2015-10-19T03:59:26Z</time>
      </trkpt>
      <trkpt lat="45.92859" lon="2.9347">
        <ele>831</ele>
        <time>2015-10-19T04:01:26Z</time>
      </trkpt>
      <trkpt lat="45.92833" lon="2.93473">
        <ele>832</ele>
        <time>2015-10-19T04:03:26Z</time>
      </trkpt>
      <trkpt lat="45.92791" lon="2.93495">
        <ele>838</ele>
        <time>2015-10-19T04:05:26Z</time>
      </trkpt>
      <trkpt lat="45.92744" lon="2.93533">
        <ele>846</ele>
        <time>2015-10-19T04:07:26Z</time>
      </trkpt>
      <trkpt lat="45.92721" lon="2.93542">
        <ele>848</ele>
        <time>2015-10-19T04:09:26Z</time>
      </trkpt>
      <trkpt lat="45.9265" lon="2.9358">
        <ele>852</ele>
        <time>2015-10-19T04:11:26Z</time>
      </trkpt>
      <trkpt lat="45.92612" lon="2.9356">
        <ele>854</ele>
        <time>2015-10-19T04:13:26Z</time>
      </trkpt>
      <trkpt lat="45.92609" lon="2.93524">
        <ele>856</ele>
        <time>2015-10-19T04:15:26Z</time>
      </trkpt>
      <trkpt lat="45.92615" lon="2.93489">
        <ele>857</ele>
        <time>2015-10-19T04:17:26Z</time>
      </trkpt>
      <trkpt lat="45.92629" lon="2.93467">
        <ele>857</ele>
        <time>2015-10-19T04:19:26Z</time>
      </trkpt>
      <trkpt lat="45.92656" lon="2.93436">
        <ele>857</ele>
        <time>2015-10-19T04:21:26Z</time>
      </trkpt>
      <trkpt lat="45.92675" lon="2.93396">
        <ele>858</ele>
        <time>2015-10-19T04:23:26Z</time>
      </trkpt>
      <trkpt lat="45.92682" lon="2.93351">
        <ele>859</ele>
        <time>2015-10-19T04:25:26Z</time>
      </trkpt>
      <trkpt lat="45.92703" lon="2.93286">
        <ele>857</ele>
        <time>2015-10-19T04:27:26Z</time>
      </trkpt>
      <trkpt lat="45.92708" lon="2.93245">
        <ele>856</ele>
        <time>2015-10-19T04:29:26Z</time>
      </trkpt>
      <trkpt lat="45.92703" lon="2.93219">
        <ele>857</ele>
        <time>2015-10-19T04:31:26Z</time>
      </trkpt>
      <trkpt lat="45.92706" lon="2.93187">
        <ele>856</ele>
        <time>2015-10-19T04:33:26Z</time>
      </trkpt>
      <trkpt lat="45.92706" lon="2.93072">
        <ele>848</ele>
        <time>2015-10-19T04:35:26Z</time>
      </trkpt>
      <trkpt lat="45.92697" lon="2.93053">
        <ele>845</ele>
        <time>2015-10-19T04:37:26Z</time>
      </trkpt>
      <trkpt lat="45.92675" lon="2.93043">
        <ele>845</ele>
        <time>2015-10-19T04:39:26Z</time>
      </trkpt>
      <trkpt lat="45.92709" lon="2.92969">
        <ele>837</ele>
        <time>2015-10-19T04:41:26Z</time>
      </trkpt>
      <trkpt lat="45.92698" lon="2.92925">
        <ele>837</ele>
        <time>2015-10-19T04:43:26Z</time>
      </trkpt>
      <trkpt lat="45.92687" lon="2.92892">
        <ele>840</ele>
        <time>2015-10-19T04:45:26Z</time>
      </trkpt>
      <trkpt lat="45.92688" lon="2.92847">
        <ele>843</ele>
        <time>2015-10-19T04:47:26Z</time>
      </trkpt>
      <trkpt lat="45.92706" lon="2.92829">
        <ele>846</ele>
        <time>2015-10-19T04:49:26Z</time>
      </trkpt>
      <trkpt lat="45.92744" lon="2.92822">
        <ele>849</ele>
        <time>2015-10-19T04:51:26Z</time>
      </trkpt>
      <trkpt lat="45.92779" lon="2.92814">
        <ele>852</ele>
        <time>2015-10-19T04:53:26Z</time>
      </trkpt>
      <trkpt lat="45.92807" lon="2.92797">
        <ele>855</ele>
        <time>2015-10-19T04:55:26Z</time>
      </trkpt>
      <trkpt lat="45.92793" lon="2.9276">
        <ele>858</ele>
        <time>2015-10-19T04:57:26Z</time>
      </trkpt>
      <trkpt lat="45.9277" lon="2.92711">
        <ele>863</ele>
        <time>2015-10-19T04:59:26Z</time>
      </trkpt>
      <trkpt lat="45.92757" lon="2.92697">
        <ele>865</ele>
        <time>2015-10-19T05:01:26Z</time>
      </trkpt>
      <trkpt lat="45.9272" lon="2.92671">
        <ele>867</ele>
        <time>2015-10-19T05:03:26Z</time>
      </trkpt>
      <trkpt lat="45.92668" lon="2.92628">
        <ele>869</ele>
        <time>2015-10-19T05:05:26Z</time>
      </trkpt>
      <trkpt lat="45.9265" lon="2.9259">
        <ele>873</ele>
        <time>2015-10-19T05:07:26Z</time>
      </trkpt>
      <trkpt lat="45.92633" lon="2.92498">
        <ele>878</ele>
        <time>2015-10-19T05:09:26Z</time>
      </trkpt>
      <trkpt lat="45.92643" lon="2.92464">
        <ele>878</ele>
        <time>2015-10-19T05:11:26Z</time>
      </trkpt>
      <trkpt lat="45.92647" lon="2.92417">
        <ele>878</ele>
        <time>2015-10-19T05:13:26Z</time>
      </trkpt>
      <trkpt lat="45.92639" lon="2.92395">
        <ele>878</ele>
        <time>2015-10-19T05:15:26Z</time>
      </trkpt>
      <trkpt lat="45.92629" lon="2.92328">
        <ele>879</ele>
        <time>2015-10-19T05:17:26Z</time>
      </trkpt>
      <trkpt lat="45.92625" lon="2.92272">
        <ele>880</ele>
        <time>2015-10-19T05:19:26Z</time>
      </trkpt>
      <trkpt lat="45.92625" lon="2.92237">
        <ele>882</ele>
        <time>2015-10-19T05:21:26Z</time>
      </trkpt>
      <trkpt lat="45.92629" lon="2.92178">
        <ele>886</ele>
        <time>2015-10-19T05:23:26Z</time>
      </trkpt>
      <trkpt lat="45.92644" lon="2.92135">
        <ele>886</ele>
        <time>2015-10-19T05:25:26Z</time>
      </trkpt>
      <trkpt lat="45.92594" lon="2.92068">
        <ele>895</ele>
        <time>2015-10-19T05:27:26Z</time>
      </trkpt>
      <trkpt lat="45.92589" lon="2.92041">
        <ele>896</ele>
        <time>2015-10-19T05:29:26Z</time>
      </trkpt>
      <trkpt lat="45.92579" lon="2.92012">
        <ele>898</ele>
        <time>2015-10-19T05:31:26Z</time>
      </trkpt>
      <trkpt lat="45.92573" lon="2.91972">
        <ele>897</ele>
        <time>2015-10-19T05:33:26Z</time>
      </trkpt>
      <trkpt lat="45.92564" lon="2.91931">
        <ele>896</ele>
        <time>2015-10-19T05:35:26Z</time>
      </trkpt>
      <trkpt lat="45.92565" lon="2.91885">
        <ele>896</ele>
        <time>2015-10-19T05:37:26Z</time>
      </trkpt>
      <trkpt lat="45.92568" lon="2.91835">
        <ele>896</ele>
        <time>2015-10-19T05:39:26Z</time>
      </trkpt>
      <trkpt lat="45.92564" lon="2.91785">
        <ele>898</ele>
        <time>2015-10-19T05:41:26Z</time>
      </trkpt>
      <trkpt lat="45.92564" lon="2.91748">
        <ele>898</ele>
        <time>2015-10-19T05:43:26Z</time>
      </trkpt>
      <trkpt lat="45.92567" lon="2.91729">
        <ele>898</ele>
        <time>2015-10-19T05:45:26Z</time>
      </trkpt>
      <trkpt lat="45.92575" lon="2.91708">
        <ele>896</ele>
        <time>2015-10-19T05:47:26Z</time>
      </trkpt>
      <trkpt lat="45.92584" lon="2.91673">
        <ele>895</ele>
        <time>2015-10-19T05:49:26Z</time>
      </trkpt>
      <trkpt lat="45.92581" lon="2.91644">
        <ele>894</ele>
        <time>2015-10-19T05:51:26Z</time>
      </trkpt>
      <trkpt lat="45.92568" lon="2.91634">
        <ele>896</ele>
        <time>2015-10-19T05:53:26Z</time>
      </trkpt>
      <trkpt lat="45.92487" lon="2.91595">
        <ele>910</ele>
        <time>2015-10-19T05:55:26Z</time>
      </trkpt>
      <trkpt lat="45.92471" lon="2.916">
        <ele>912</ele>
        <time>2015-10-19T05:57:26Z</time>
      </trkpt>
      <trkpt lat="45.9245" lon="2.91597">
        <ele>914</ele>
        <time>2015-10-19T05:59:26Z</time>
      </trkpt>
      <trkpt lat="45.92425" lon="2.9157">
        <ele>913</ele>
        <time>2015-10-19T06:01:26Z</time>
      </trkpt>
      <trkpt lat="45.92407" lon="2.91451">
        <ele>908</ele>
        <time>2015-10-19T06:03:26Z</time>
      </trkpt>
      <trkpt lat="45.9239" lon="2.91341">
        <ele>907</ele>
        <time>2015-10-19T06:05:26Z</time>
      </trkpt>
      <trkpt lat="45.92372" lon="2.91252">
        <ele>907</ele>
        <time>2015-10-19T06:07:26Z</time>
      </trkpt>
      <trkpt lat="45.92337" lon="2.91224">
        <ele>909</ele>
        <time>2015-10-19T06:09:26Z</time>
      </trkpt>
      <trkpt lat="45.92323" lon="2.91205">
        <ele>909</ele>
        <time>2015-10-19T06:11:26Z</time>
      </trkpt>
      <trkpt lat="45.923" lon="2.91157">
        <ele>907</ele>
        <time>2015-10-19T06:13:26Z</time>
      </trkpt>
      <trkpt lat="45.92276" lon="2.91089">
        <ele>903</ele>
        <time>2015-10-19T06:15:26Z</time>
      </trkpt>
      <trkpt lat="45.92256" lon="2.91067">
        <ele>904</ele>
        <time>2015-10-19T06:17:26Z</time>
      </trkpt>
      <trkpt lat="45.9222" lon="2.91027">
        <ele>902</ele>
        <time>2015-10-19T06:19:26Z</time>
      </trkpt>
      <trkpt lat="45.92188" lon="2.91003">
        <ele>900</ele>
        <time>2015-10-19T06:21:26Z</time>
      </trkpt>
      <trkpt lat="45.92168" lon="2.90983">
        <ele>899</ele>
        <time>2015-10-19T06:23:26Z</time>
      </trkpt>
      <trkpt lat="45.92114" lon="2.90939">
        <ele>893</ele>
        <time>2015-10-19T06:25:26Z</time>
      </trkpt>
      <trkpt lat="45.92082" lon="2.90913">
        <ele>889</ele>
        <time>2015-10-19T06:27:26Z</time>
      </trkpt>
      <trkpt lat="45.92059" lon="2.90916">
        <ele>885</ele>
        <time>2015-10-19T06:29:26Z</time>
      </trkpt>
      <trkpt lat="45.92038" lon="2.90931">
        <ele>884</ele>
        <time>2015-10-19T06:31:26Z</time>
      </trkpt>
      <trkpt lat="45.92021" lon="2.90944">
        <ele>882</ele>
        <time>2015-10-19T06:33:26Z</time>
      </trkpt>
      <trkpt lat="45.92001" lon="2.90939">
        <ele>879</ele>
        <time>2015-10-19T06:35:26Z</time>
      </trkpt>
      <trkpt lat="45.91977" lon="2.90922">
        <ele>875</ele>
        <time>2015-10-19T06:37:26Z</time>
      </trkpt>
      <trkpt lat="45.9196" lon="2.90906">
        <ele>872</ele>
        <time>2015-10-19T06:39:26Z</time>
      </trkpt>
      <trkpt lat="45.91922" lon="2.90896">
        <ele>868</ele>
        <time>2015-10-19T06:41:26Z</time>
      </trkpt>
      <trkpt lat="45.91918" lon="2.90868">
        <ele>866</ele>
        <time>2015-10-19T06:43:26Z</time>
      </trkpt>
      <trkpt lat="45.91907" lon="2.90878">
        <ele>866</ele>
        <time>2015-10-19T06:45:26Z</time>
      </trkpt>
      <trkpt lat="45.91895" lon="2.90887">
        <ele>865</ele>
        <time>2015-10-19T06:47:26Z</time>
      </trkpt>
      <trkpt lat="45.91882" lon="2.90878">
        <ele>863</ele>
        <time>2015-10-19T06:49:26Z</time>
      </trkpt>
      <trkpt lat="45.9187" lon="2.90861">
        <ele>862</ele>
        <time>2015-10-19T06:51:26Z</time>
      </trkpt>
      <trkpt lat="45.91853" lon="2.90841">
        <ele>860</ele>
        <time>2015-10-19T06:53:26Z</time>
      </trkpt>
      <trkpt lat="45.91827" lon="2.90857">
        <ele>858</ele>
        <time>2015-10-19T06:55:26Z</time>
      </trkpt>
      <trkpt lat="45.91812" lon="2.90875">
        <ele>857</ele>
        <time>2015-10-19T06:57:26Z</time>
      </trkpt>
      <trkpt lat="45.91794" lon="2.90904">
        <ele>855</ele>
        <time>2015-10-19T06:59:26Z</time>
      </trkpt>
      <trkpt lat="45.91791" lon="2.90927">
        <ele>854</ele>
        <time>2015-10-19T07:01:26Z</time>
      </trkpt>
      <trkpt lat="45.91795" lon="2.90951">
        <ele>855</ele>
        <time>2015-10-19T07:03:26Z</time>
      </trkpt>
      <trkpt lat="45.91794" lon="2.90969">
        <ele>855</ele>
        <time>2015-10-19T07:05:26Z</time>
      </trkpt>
      <trkpt lat="45.91787" lon="2.90987">
        <ele>854</ele>
        <time>2015-10-19T07:07:26Z</time>
      </trkpt>
      <trkpt lat="45.91774" lon="2.91003">
        <ele>852</ele>
        <time>2015-10-19T07:09:26Z</time>
      </trkpt>
      <trkpt lat="45.91761" lon="2.91018">
        <ele>851</ele>
        <time>2015-10-19T07:11:26Z</time>
      </trkpt>
      <trkpt lat="45.9175" lon="2.91019">
        <ele>849</ele>
        <time>2015-10-19T07:13:26Z</time>
      </trkpt>
      <trkpt lat="45.91736" lon="2.91027">
        <ele>848</ele>
        <time>2015-10-19T07:15:26Z</time>
      </trkpt>
      <trkpt lat="45.91722" lon="2.91048">
        <ele>847</ele>
        <time>2015-10-19T07:17:26Z</time>
      </trkpt>
      <trkpt lat="45.91705" lon="2.91084">
        <ele>845</ele>
        <time>2015-10-19T07:19:26Z</time>
      </trkpt>
      <trkpt lat="45.9169" lon="2.91124">
        <ele>845</ele>
        <time>2015-10-19T07:21:26Z</time>
      </trkpt>
      <trkpt lat="45.91668" lon="2.91205">
        <ele>845</ele>
        <time>2015-10-19T07:23:26Z</time>
      </trkpt>
      <trkpt lat="45.91661" lon="2.91232">
        <ele>846</ele>
        <time>2015-10-19T07:25:26Z</time>
      </trkpt>
      <trkpt lat="45.91652" lon="2.91244">
        <ele>847</ele>
        <time>2015-10-19T07:27:26Z</time>
      </trkpt>
      <trkpt lat="45.91637" lon="2.91255">
        <ele>848</ele>
        <time>2015-10-19T07:29:26Z</time>
      </trkpt>
      <trkpt lat="45.91625" lon="2.91272">
        <ele>850</ele>
        <time>2015-10-19T07:31:26Z</time>
      </trkpt>
      <trkpt lat="45.91614" lon="2.9129">
        <ele>852</ele>
        <time>2015-10-19T07:33:26Z</time>
      </trkpt>
      <trkpt lat="45.91596" lon="2.91303">
        <ele>854</ele>
        <time>2015-10-19T07:35:26Z</time>
      </trkpt>
      <trkpt lat="45.91584" lon="2.9128">
        <ele>854</ele>
        <time>2015-10-19T07:37:26Z</time>
      </trkpt>
      <trkpt lat="45.91575" lon="2.91259">
        <ele>854</ele>
        <time>2015-10-19T07:39:26Z</time>
      </trkpt>
      <trkpt lat="45.91564" lon="2.91239">
        <ele>855</ele>
        <time>2015-10-19T07:41:26Z</time>
      </trkpt>
      <trkpt lat="45.91548" lon="2.91248">
        <ele>859</ele>
        <time>2015-10-19T07:43:26Z</time>
      </trkpt>
      <trkpt lat="45.91536" lon="2.91265">
        <ele>862</ele>
        <time>2015-10-19T07:45:26Z</time>
      </trkpt>
      <trkpt lat="45.91527" lon="2.91352">
        <ele>869</ele>
        <time>2015-10-19T07:47:26Z</time>
      </trkpt>
      <trkpt lat="45.91511" lon="2.91367">
        <ele>872</ele>
        <time>2015-10-19T07:49:26Z</time>
      </trkpt>
      <trkpt lat="45.91502" lon="2.91414">
        <ele>875</ele>
        <time>2015-10-19T07:51:26Z</time>
      </trkpt>
      <trkpt lat="45.91496" lon="2.91481">
        <ele>878</ele>
        <time>2015-10-19T07:53:26Z</time>
      </trkpt>
      <trkpt lat="45.91492" lon="2.91526">
        <ele>881</ele>
        <time>2015-10-19T07:55:26Z</time>
      </trkpt>
      <trkpt lat="45.91481" lon="2.91542">
        <ele>884</ele>
        <time>2015-10-19T07:57:26Z</time>
      </trkpt>
      <trkpt lat="45.91461" lon="2.91551">
        <ele>889</ele>
        <time>2015-10-19T07:59:26Z</time>
      </trkpt>
      <trkpt lat="45.91438" lon="2.91552">
        <ele>894</ele>
        <time>2015-10-19T08:01:26Z</time>
      </trkpt>
      <trkpt lat="45.91424" lon="2.91534">
        <ele>896</ele>
        <time>2015-10-19T08:03:26Z</time>
      </trkpt>
      <trkpt lat="45.91374" lon="2.91452">
        <ele>897</ele>
        <time>2015-10-19T08:05:26Z</time>
      </trkpt>
      <trkpt lat="45.91356" lon="2.91414">
        <ele>895</ele>
        <time>2015-10-19T08:07:26Z</time>
      </trkpt>
      <trkpt lat="45.91318" lon="2.91362">
        <ele>893</ele>
        <time>2015-10-19T08:09:26Z</time>
      </trkpt>
      <trkpt lat="45.913" lon="2.91333">
        <ele>889</ele>
        <time>2015-10-19T08:11:26Z</time>
      </trkpt>
      <trkpt lat="45.91226" lon="2.91332">
        <ele>882</ele>
        <time>2015-10-19T08:13:26Z</time>
      </trkpt>
      <trkpt lat="45.91175" lon="2.91336">
        <ele>875</ele>
        <time>2015-10-19T08:15:26Z</time>
      </trkpt>
      <trkpt lat="45.91146" lon="2.91331">
        <ele>871</ele>
        <time>2015-10-19T08:17:26Z</time>
      </trkpt>
      <trkpt lat="45.91113" lon="2.91336">
        <ele>867</ele>
        <time>2015-10-19T08:19:26Z</time>
      </trkpt>
      <trkpt lat="45.91097" lon="2.91356">
        <ele>867</ele>
        <time>2015-10-19T08:21:26Z</time>
      </trkpt>
      <trkpt lat="45.91075" lon="2.91376">
        <ele>866</ele>
        <time>2015-10-19T08:23:26Z</time>
      </trkpt>
      <trkpt lat="45.91031" lon="2.91363">
        <ele>859</ele>
        <time>2015-10-19T08:25:26Z</time>
      </trkpt>
      <trkpt lat="45.91008" lon="2.91376">
        <ele>858</ele>
        <time>2015-10-19T08:27:26Z</time>
      </trkpt>
      <trkpt lat="45.90993" lon="2.91383">
        <ele>858</ele>
        <time>2015-10-19T08:29:26Z</time>
      </trkpt>
      <trkpt lat="45.90976" lon="2.91371">
        <ele>854</ele>
        <time>2015-10-19T08:31:26Z</time>
      </trkpt>
      <trkpt lat="45.90964" lon="2.91351">
        <ele>851</ele>
        <time>2015-10-19T08:33:26Z</time>
      </trkpt>
      <trkpt lat="45.90949" lon="2.91341">
        <ele>849</ele>
        <time>2015-10-19T08:35:26Z</time>
      </trkpt>
      <trkpt lat="45.90931" lon="2.91308">
        <ele>845</ele>
        <time>2015-10-19T08:37:26Z</time>
      </trkpt>
      <trkpt lat="45.90915" lon="2.91312">
        <ele>844</ele>
        <time>2015-10-19T08:39:26Z</time>
      </trkpt>
      <trkpt lat="45.90905" lon="2.9135">
        <ele>846</ele>
        <time>2015-10-19T08:41:26Z</time>
      </trkpt>
      <trkpt lat="45.90896" lon="2.91369">
        <ele>845</ele>
        <time>2015-10-19T08:43:26Z</time>
      </trkpt>
      <trkpt lat="45.90876" lon="2.9136">
        <ele>844</ele>
        <time>2015-10-19T08:45:26Z</time>
      </trkpt>
      <trkpt lat="45.90856" lon="2.91358">
        <ele>842</ele>
        <time>2015-10-19T08:47:26Z</time>
      </trkpt>
      <trkpt lat="45.90834" lon="2.91366">
        <ele>841</ele>
        <time>2015-10-19T08:49:26Z</time>
      </trkpt>
      <trkpt lat="45.90816" lon="2.91384">
        <ele>840</ele>
        <time>2015-10-19T08:51:26Z</time>
      </trkpt>
      <trkpt lat="45.90793" lon="2.91436">
        <ele>838</ele>
        <time>2015-10-19T08:53:26Z</time>
      </trkpt>
      <trkpt lat="45.90789" lon="2.9148">
        <ele>836</ele>
        <time>2015-10-19T08:55:26Z</time>
      </trkpt>
      <trkpt lat="45.90788" lon="2.91512">
        <ele>836</ele>
        <time>2015-10-19T08:57:26Z</time>
      </trkpt>
      <trkpt lat="45.90769" lon="2.91517">
        <ele>835</ele>
        <time>2015-10-19T08:59:26Z</time>
      </trkpt>
      <trkpt lat="45.90734" lon="2.91518">
        <ele>833</ele>
        <time>2015-10-19T09:01:26Z</time>
      </trkpt>
      <trkpt lat="45.90707" lon="2.91522">
        <ele>833</ele>
        <time>2015-10-19T09:03:26Z</time>
      </trkpt>
      <trkpt lat="45.90695" lon="2.91534">
        <ele>834</ele>
        <time>2015-10-19T09:05:26Z</time>
      </trkpt>
      <trkpt lat="45.90678" lon="2.91569">
        <ele>834</ele>
        <time>2015-10-19T09:07:26Z</time>
      </trkpt>
      <trkpt lat="45.90662" lon="2.9159">
        <ele>834</ele>
        <time>2015-10-19T09:09:26Z</time>
      </trkpt>
      <trkpt lat="45.90633" lon="2.91615">
        <ele>836</ele>
        <time>2015-10-19T09:11:26Z</time>
      </trkpt>
      <trkpt lat="45.90589" lon="2.9165">
        <ele>839</ele>
        <time>2015-10-19T09:13:26Z</time>
      </trkpt>
      <trkpt lat="45.90569" lon="2.91655">
        <ele>839</ele>
        <time>2015-10-19T09:15:26Z</time>
      </trkpt>
      <trkpt lat="45.90535" lon="2.91656">
        <ele>841</ele>
        <time>2015-10-19T09:17:26Z</time>
      </trkpt>
      <trkpt lat="45.90497" lon="2.91666">
        <ele>842</ele>
        <time>2015-10-19T09:19:26Z</time>
      </trkpt>
      <trkpt lat="45.90469" lon="2.91685">
        <ele>842</ele>
        <time>2015-10-19T09:21:26Z</time>
      </trkpt>
      <trkpt lat="45.90429" lon="2.91716">
        <ele>844</ele>
        <time>2015-10-19T09:23:26Z</time>
      </trkpt>
      <trkpt lat="45.90407" lon="2.91739">
        <ele>844</ele>
        <time>2015-10-19T09:25:26Z</time>
      </trkpt>
      <trkpt lat="45.9036" lon="2.91759">
        <ele>845</ele>
        <time>2015-10-19T09:27:26Z</time>
      </trkpt>
      <trkpt lat="45.90344" lon="2.91744">
        <ele>846</ele>
        <time>2015-10-19T09:29:26Z</time>
      </trkpt>
      <trkpt lat="45.90324" lon="2.91726">
        <ele>847</ele>
        <time>2015-10-19T09:31:26Z</time>
      </trkpt>
      <trkpt lat="45.90304" lon="2.91693">
        <ele>849</ele>
        <time>2015-10-19T09:33:26Z</time>
      </trkpt>
      <trkpt lat="45.90288" lon="2.91659">
        <ele>850</ele>
        <time>2015-10-19T09:35:26Z</time>
      </trkpt>
      <trkpt lat="45.90265" lon="2.91639">
        <ele>851</ele>
        <time>2015-10-19T09:37:26Z</time>
      </trkpt>
      <trkpt lat="45.9023" lon="2.91606">
        <ele>852</ele>
        <time>2015-10-19T09:39:26Z</time>
      </trkpt>
      <trkpt lat="45.90221" lon="2.91583">
        <ele>852</ele>
        <time>2015-10-19T09:41:26Z</time>
      </trkpt>
      <trkpt lat="45.90208" lon="2.9157">
        <ele>852</ele>
        <time>2015-10-19T09:43:26Z</time>
      </trkpt>
      <trkpt lat="45.90209" lon="2.91537">
        <ele>852</ele>
        <time>2015-10-19T09:45:26Z</time>
      </trkpt>
      <trkpt lat="45.90209" lon="2.91514">
        <ele>852</ele>
        <time>2015-10-19T09:47:26Z</time>
      </trkpt>
      <trkpt lat="45.90111" lon="2.91436">
        <ele>853</ele>
        <time>2015-10-19T09:49:26Z</time>
      </trkpt>
      <trkpt lat="45.90024" lon="2.91387">
        <ele>855</ele>
        <time>2015-10-19T09:51:26Z</time>
      </trkpt>
      <trkpt lat="45.89975" lon="2.91362">
        <ele>855</ele>
        <time>2015-10-19T09:53:26Z</time>
      </trkpt>
      <trkpt lat="45.89897" lon="2.9134">
        <ele>855</ele>
        <time>2015-10-19T09:55:26Z</time>
      </trkpt>
      <trkpt lat="45.89838" lon="2.91325">
        <ele>854</ele>
        <time>2015-10-19T09:57:26Z</time>
      </trkpt>
      <trkpt lat="45.89778" lon="2.91304">
        <ele>853</ele>
        <time>2015-10-19T09:59:26Z</time>
      </trkpt>
      <trkpt lat="45.89706" lon="2.91302">
        <ele>852</ele>
        <time>2015-10-19T10:01:26Z</time>
      </trkpt>
      <trkpt lat="45.89595" lon="2.91311">
        <ele>853</ele>
        <time>2015-10-19T10:03:26Z</time>
      </trkpt>
      <trkpt lat="45.89529" lon="2.91312">
        <ele>848</ele>
        <time>2015-10-19T10:05:26Z</time>
      </trkpt>
      <trkpt lat="45.89474" lon="2.91292">
        <ele>844</ele>
        <time>2015-10-19T10:07:26Z</time>
      </trkpt>
      <trkpt lat="45.89409" lon="2.91288">
        <ele>842</ele>
        <time>2015-10-19T10:09:26Z</time>
      </trkpt>
      <trkpt lat="45.89331" lon="2.91304">
        <ele>844</ele>
        <time>2015-10-19T10:11:26Z</time>
      </trkpt>
      <trkpt lat="45.89302" lon="2.91355">
        <ele>845</ele>
        <time>2015-10-19T10:13:26Z</time>
      </trkpt>
      <trkpt lat="45.89277" lon="2.91408">
        <ele>846</ele>
        <time>2015-10-19T10:15:26Z</time>
      </trkpt>
      <trkpt lat="45.89219" lon="2.9136">
        <ele>845</ele>
        <time>2015-10-19T10:17:26Z</time>
      </trkpt>
      <trkpt lat="45.89173" lon="2.91322">
        <ele>846</ele>
        <time>2015-10-19T10:19:26Z</time>
      </trkpt>
      <trkpt lat="45.89138" lon="2.91287">
        <ele>847</ele>
        <time>2015-10-19T10:21:26Z</time>
      </trkpt>
      <trkpt lat="45.8911" lon="2.91265">
        <ele>847</ele>
        <time>2015-10-19T10:23:26Z</time>
      </trkpt>
      <trkpt lat="45.89084" lon="2.9128">
        <ele>848</ele>
        <time>2015-10-19T10:25:26Z</time>
      </trkpt>
      <trkpt lat="45.89059" lon="2.91294">
        <ele>848</ele>
        <time>2015-10-19T10:27:26Z</time>
      </trkpt>
      <trkpt lat="45.89036" lon="2.91316">
        <ele>848</ele>
        <time>2015-10-19T10:29:26Z</time>
      </trkpt>
      <trkpt lat="45.89047" lon="2.91337">
        <ele>848</ele>
        <time>2015-10-19T10:31:26Z</time>
      </trkpt>
      <trkpt lat="45.89048" lon="2.91377">
        <ele>847</ele>
        <time>2015-10-19T10:33:26Z</time>
      </trkpt>
      <trkpt lat="45.89045" lon="2.91407">
        <ele>846</ele>
        <time>2015-10-19T10:35:26Z</time>
      </trkpt>
      <trkpt lat="45.89005" lon="2.91461">
        <ele>847</ele>
        <time>2015-10-19T10:37:26Z</time>
      </trkpt>
      <trkpt lat="45.88984" lon="2.91483">
        <ele>847</ele>
        <time>2015-10-19T10:39:26Z</time>
      </trkpt>
      <trkpt lat="45.88965" lon="2.91503">
        <ele>848</ele>
        <time>2015-10-19T10:41:26Z</time>
      </trkpt>
      <trkpt lat="45.88945" lon="2.91513">
        <ele>849</ele>
        <time>2015-10-19T10:43:26Z</time>
      </trkpt>
      <trkpt lat="45.88952" lon="2.91528">
        <ele>848</ele>
        <time>2015-10-19T10:45:26Z</time>
      </trkpt>
      <trkpt lat="45.88987" lon="2.91529">
        <ele>846</ele>
        <time>2015-10-19T10:47:26Z</time>
      </trkpt>
      <trkpt lat="45.89018" lon="2.9154">
        <ele>845</ele>
        <time>2015-10-19T10:49:26Z</time>
      </trkpt>
      <trkpt lat="45.89031" lon="2.91559">
        <ele>844</ele>
        <time>2015-10-19T10:51:26Z</time>
      </trkpt>
      <trkpt lat="45.89028" lon="2.91582">
        <ele>844</ele>
        <time>2015-10-19T10:53:26Z</time>
      </trkpt>
      <trkpt lat="45.89024" lon="2.91597">
        <ele>845</ele>
        <time>2015-10-19T10:55:26Z</time>
      </trkpt>
      <trkpt lat="45.89015" lon="2.91592">
        <ele>845</ele>
        <time>2015-10-19T10:57:26Z</time>
      </trkpt>
      <trkpt lat="45.88994" lon="2.91634">
        <ele>846</ele>
        <time>2015-10-19T10:59:26Z</time>
      </trkpt>
      <trkpt lat="45.88988" lon="2.91648">
        <ele>846</ele>
        <time>2015-10-19T11:01:26Z</time>
      </trkpt>
      <trkpt lat="45.88965" lon="2.91659">
        <ele>848</ele>
        <time>2015-10-19T11:03:26Z</time>
      </trkpt>
      <trkpt lat="45.88999" lon="2.91759">
        <ele>848</ele>
        <time>2015-10-19T11:05:26Z</time>
      </trkpt>
      <trkpt lat="45.89032" lon="2.91867">
        <ele>848</ele>
        <time>2015-10-19T11:07:26Z</time>
      </trkpt>
      <trkpt lat="45.89052" lon="2.91929">
        <ele>849</ele>
        <time>2015-10-19T11:09:26Z</time>
      </trkpt>
      <trkpt lat="45.89086" lon="2.9203">
        <ele>848</ele>
        <time>2015-10-19T11:11:26Z</time>
      </trkpt>
      <trkpt lat="45.89112" lon="2.92074">
        <ele>847</ele>
        <time>2015-10-19T11:13:26Z</time>
      </trkpt>
      <trkpt lat="45.89139" lon="2.92164">
        <ele>850</ele>
        <time>2015-10-19T11:15:26Z</time>
      </trkpt>
      <trkpt lat="45.89089" lon="2.9218">
        <ele>852</ele>
        <time>2015-10-19T11:17:26Z</time>
      </trkpt>
      <trkpt lat="45.88966" lon="2.9221">
        <ele>861</ele>
        <time>2015-10-19T11:19:26Z</time>
      </trkpt>
      <trkpt lat="45.88893" lon="2.9221">
        <ele>865</ele>
        <time>2015-10-19T11:21:26Z</time>
      </trkpt>
      <trkpt lat="45.88833" lon="2.92223">
        <ele>869</ele>
        <time>2015-10-19T11:23:26Z</time>
      </trkpt>
      <trkpt lat="45.88786" lon="2.92243">
        <ele>871</ele>
        <time>2015-10-19T11:25:26Z</time>
      </trkpt>
      <trkpt lat="45.88735" lon="2.92265">
        <ele>871</ele>
        <time>2015-10-19T11:27:26Z</time>
      </trkpt>
      <trkpt lat="45.88691" lon="2.92275">
        <ele>871</ele>
        <time>2015-10-19T11:29:26Z</time>
      </trkpt>
      <trkpt lat="45.88615" lon="2.92282">
        <ele>869</ele>
        <time>2015-10-19T11:31:26Z</time>
      </trkpt>
      <trkpt lat="45.88582" lon="2.92283">
        <ele>868</ele>
        <time>2015-10-19T11:33:26Z</time>
      </trkpt>
      <trkpt lat="45.88554" lon="2.92283">
        <ele>869</ele>
        <time>2015-10-19T11:35:26Z</time>
      </trkpt>
      <trkpt lat="45.88525" lon="2.92291">
        <ele>869</ele>
        <time>2015-10-19T11:37:26Z</time>
      </trkpt>
      <trkpt lat="45.88482" lon="2.92313">
        <ele>870</ele>
        <time>2015-10-19T11:39:26Z</time>
      </trkpt>
      <trkpt lat="45.88493" lon="2.92341">
        <ele>870</ele>
        <time>2015-10-19T11:41:26Z</time>
      </trkpt>
      <trkpt lat="45.88542" lon="2.9243">
        <ele>869</ele>
        <time>2015-10-19T11:43:26Z</time>
      </trkpt>
      <trkpt lat="45.88564" lon="2.92499">
        <ele>866</ele>
        <time>2015-10-19T11:45:26Z</time>
      </trkpt>
      <trkpt lat="45.88556" lon="2.9252">
        <ele>867</ele>
        <time>2015-10-19T11:47:26Z</time>
      </trkpt>
      <trkpt lat="45.88542" lon="2.92533">
        <ele>868</ele>
        <time>2015-10-19T11:49:26Z</time>
      </trkpt>
      <trkpt lat="45.88508" lon="2.92568">
        <ele>871</ele>
        <time>2015-10-19T11:51:26Z</time>
      </trkpt>
      <trkpt lat="45.88484" lon="2.92601">
        <ele>875</ele>
        <time>2015-10-19T11:53:26Z</time>
      </trkpt>
      <trkpt lat="45.88473" lon="2.92644">
        <ele>875</ele>
        <time>2015-10-19T11:55:26Z</time>
      </trkpt>
      <trkpt lat="45.88473" lon="2.92672">
        <ele>873</ele>
        <time>2015-10-19T11:57:26Z</time>
      </trkpt>
      <trkpt lat="45.88474" lon="2.92724">
        <ele>873</ele>
        <time>2015-10-19T11:59:26Z</time>
      </trkpt>
      <trkpt lat="45.88481" lon="2.92852">
        <ele>871</ele>
        <time>2015-10-19T12:01:26Z</time>
      </trkpt>
      <trkpt lat="45.88476" lon="2.92911">
        <ele>874</ele>
        <time>2015-10-19T12:03:26Z</time>
      </trkpt>
      <trkpt lat="45.88479" lon="2.92954">
        <ele>876</ele>
        <time>2015-10-19T12:05:26Z</time>
      </trkpt>
      <trkpt lat="45.88501" lon="2.93024">
        <ele>879</ele>
        <time>2015-10-19T12:07:26Z</time>
      </trkpt>
      <trkpt lat="45.88517" lon="2.93063">
        <ele>879</ele>
        <time>2015-10-19T12:09:26Z</time>
      </trkpt>
      <trkpt lat="45.88529" lon="2.93105">
        <ele>878</ele>
        <time>2015-10-19T12:11:26Z</time>
      </trkpt>
      <trkpt lat="45.88547" lon="2.9319">
        <ele>877</ele>
        <time>2015-10-19T12:13:26Z</time>
      </trkpt>
      <trkpt lat="45.88558" lon="2.93208">
        <ele>877</ele>
        <time>2015-10-19T12:15:26Z</time>
      </trkpt>
      <trkpt lat="45.88553" lon="2.93229">
        <ele>879</ele>
        <time>2015-10-19T12:17:26Z</time>
      </trkpt>
      <trkpt lat="45.88536" lon="2.93245">
        <ele>881</ele>
        <time>2015-10-19T12:19:26Z</time>
      </trkpt>
      <trkpt lat="45.88514" lon="2.93234">
        <ele>883</ele>
        <time>2015-10-19T12:21:26Z</time>
      </trkpt>
      <trkpt lat="45.88424" lon="2.93107">
        <ele>890</ele>
        <time>2015-10-19T12:23:26Z</time>
      </trkpt>
      <trkpt lat="45.88365" lon="2.93054">
        <ele>893</ele>
        <time>2015-10-19T12:25:26Z</time>
      </trkpt>
      <trkpt lat="45.88333" lon="2.93031">
        <ele>894</ele>
        <time>2015-10-19T12:27:26Z</time>
      </trkpt>
      <trkpt lat="45.88269" lon="2.9302">
        <ele>893</ele>
        <time>2015-10-19T12:29:26Z</time>
      </trkpt>
      <trkpt lat="45.88237" lon="2.93019">
        <ele>893</ele>
        <time>2015-10-19T12:31:26Z</time>
      </trkpt>
      <trkpt lat="45.88137" lon="2.93043">
        <ele>891</ele>
        <time>2015-10-19T12:33:26Z</time>
      </trkpt>
      <trkpt lat="45.88063" lon="2.93065">
        <ele>889</ele>
        <time>2015-10-19T12:35:26Z</time>
      </trkpt>
      <trkpt lat="45.88024" lon="2.93086">
        <ele>889</ele>
        <time>2015-10-19T12:37:26Z</time>
      </trkpt>
      <trkpt lat="45.87995" lon="2.93107">
        <ele>889</ele>
        <time>2015-10-19T12:39:26Z</time>
      </trkpt>
      <trkpt lat="45.87963" lon="2.93123">
        <ele>890</ele>
        <time>2015-10-19T12:41:26Z</time>
      </trkpt>
      <trkpt lat="45.87949" lon="2.93123">
        <ele>890</ele>
        <time>2015-10-19T12:43:26Z</time>
      </trkpt>
      <trkpt lat="45.87945" lon="2.93118">
        <ele>889</ele>
        <time>2015-10-19T12:45:26Z</time>
      </trkpt>
      <trkpt lat="45.87923" lon="2.932">
        <ele>890</ele>
        <time>2015-10-19T12:47:26Z</time>
      </trkpt>
      <trkpt lat="45.87917" lon="2.93227">
        <ele>889</ele>
        <time>2015-10-19T12:49:26Z</time>
      </trkpt>
      <trkpt lat="45.87865" lon="2.9322">
        <ele>890</ele>
        <time>2015-10-19T12:51:26Z</time>
      </trkpt>
      <trkpt lat="45.87818" lon="2.93183">
        <ele>891</ele>
        <time>2015-10-19T12:53:26Z</time>
      </trkpt>
      <trkpt lat="45.87772" lon="2.93151">
        <ele>890</ele>
        <time>2015-10-19T12:55:26Z</time>
      </trkpt>
      <trkpt lat="45.87738" lon="2.93137">
        <ele>889</ele>
        <time>2015-10-19T12:57:26Z</time>
      </trkpt>
      <trkpt lat="45.877" lon="2.93129">
        <ele>887</ele>
        <time>2015-10-19T12:59:26Z</time>
      </trkpt>
      <trkpt lat="45.87676" lon="2.93112">
        <ele>886</ele>
        <time>2015-10-19T13:01:26Z</time>
      </trkpt>
      <trkpt lat="45.87617" lon="2.93038">
        <ele>884</ele>
        <time>2015-10-19T13:03:26Z</time>
      </trkpt>
      <trkpt lat="45.87588" lon="2.9304">
        <ele>882</ele>
        <time>2015-10-19T13:05:26Z</time>
      </trkpt>
      <trkpt lat="45.87559" lon="2.93036">
        <ele>880</ele>
        <time>2015-10-19T13:07:26Z</time>
      </trkpt>
      <trkpt lat="45.87549" lon="2.93023">
        <ele>879</ele>
        <time>2015-10-19T13:09:26Z</time>
      </trkpt>
      <trkpt lat="45.87545" lon="2.92994">
        <ele>879</ele>
        <time>2015-10-19T13:11:26Z</time>
      </trkpt>
      <trkpt lat="45.87539" lon="2.9293">
        <ele>880</ele>
        <time>2015-10-19T13:13:26Z</time>
      </trkpt>
      <trkpt lat="45.87514" lon="2.92916">
        <ele>878</ele>
        <time>2015-10-19T13:15:26Z</time>
      </trkpt>
      <trkpt lat="45.87487" lon="2.92909">
        <ele>876</ele>
        <time>2015-10-19T13:17:26Z</time>
      </trkpt>
      <trkpt lat="45.87473" lon="2.92883">
        <ele>873</ele>
        <time>2015-10-19T13:19:26Z</time>
      </trkpt>
      <trkpt lat="45.87446" lon="2.92835">
        <ele>871</ele>
        <time>2015-10-19T13:21:26Z</time>
      </trkpt>
      <trkpt lat="45.87408" lon="2.92782">
        <ele>869</ele>
        <time>2015-10-19T13:23:26Z</time>
      </trkpt>
      <trkpt lat="45.87382" lon="2.92739">
        <ele>869</ele>
        <time>2015-10-19T13:25:26Z</time>
      </trkpt>
      <trkpt lat="45.87372" lon="2.92712">
        <ele>870</ele>
        <time>2015-10-19T13:27:26Z</time>
      </trkpt>
      <trkpt lat="45.87339" lon="2.92605">
        <ele>875</ele>
        <time>2015-10-19T13:29:26Z</time>
      </trkpt>
      <trkpt lat="45.87325" lon="2.92562">
        <ele>876</ele>
        <time>2015-10-19T13:31:26Z</time>
      </trkpt>
      <trkpt lat="45.8731" lon="2.92525">
        <ele>877</ele>
        <time>2015-10-19T13:33:26Z</time>
      </trkpt>
      <trkpt lat="45.87275" lon="2.92445">
        <ele>880</ele>
        <time>2015-10-19T13:35:26Z</time>
      </trkpt>
      <trkpt lat="45.87274" lon="2.92399">
        <ele>881</ele>
        <time>2015-10-19T13:37:26Z</time>
      </trkpt>
      <trkpt lat="45.87284" lon="2.92337">
        <ele>880</ele>
        <time>2015-10-19T13:39:26Z</time>
      </trkpt>
      <trkpt lat="45.87299" lon="2.92263">
        <ele>878</ele>
        <time>2015-10-19T13:41:26Z</time>
      </trkpt>
      <trkpt lat="45.87076" lon="2.92233">
        <ele>876</ele>
        <time>2015-10-19T13:43:26Z</time>
      </trkpt>
      <trkpt lat="45.87041" lon="2.92279">
        <ele>877</ele>
        <time>2015-10-19T13:45:26Z</time>
      </trkpt>
      <trkpt lat="45.86979" lon="2.92357">
        <ele>877</ele>
        <time>2015-10-19T13:47:26Z</time>
      </trkpt>
      <trkpt lat="45.86948" lon="2.92385">
        <ele>877</ele>
        <time>2015-10-19T13:49:26Z</time>
      </trkpt>
      <trkpt lat="45.869" lon="2.92424">
        <ele>876</ele>
        <time>2015-10-19T13:51:26Z</time>
      </trkpt>
      <trkpt lat="45.86862" lon="2.92457">
        <ele>876</ele>
        <time>2015-10-19T13:53:26Z</time>
      </trkpt>
      <trkpt lat="45.86819" lon="2.92489">
        <ele>874</ele>
        <time>2015-10-19T13:55:26Z</time>
      </trkpt>
      <trkpt lat="45.86729" lon="2.92534">
        <ele>874</ele>
        <time>2015-10-19T13:57:26Z</time>
      </trkpt>
      <trkpt lat="45.86683" lon="2.92554">
        <ele>877</ele>
        <time>2015-10-19T13:59:26Z</time>
      </trkpt>
      <trkpt lat="45.86638" lon="2.92579">
        <ele>882</ele>
        <time>2015-10-19T14:01:26Z</time>
      </trkpt>
      <trkpt lat="45.86621" lon="2.92617">
        <ele>883</ele>
        <time>2015-10-19T14:03:26Z</time>
      </trkpt>
      <trkpt lat="45.8661" lon="2.92661">
        <ele>882</ele>
        <time>2015-10-19T14:05:26Z</time>
      </trkpt>
      <trkpt lat="45.86587" lon="2.92719">
        <ele>881</ele>
        <time>2015-10-19T14:07:26Z</time>
      </trkpt>
      <trkpt lat="45.86542" lon="2.92774">
        <ele>878</ele>
        <time>2015-10-19T14:09:26Z</time>
      </trkpt>
      <trkpt lat="45.86522" lon="2.92811">
        <ele>877</ele>
        <time>2015-10-19T14:11:26Z</time>
      </trkpt>
      <trkpt lat="45.86508" lon="2.9284">
        <ele>876</ele>
        <time>2015-10-19T14:13:26Z</time>
      </trkpt>
      <trkpt lat="45.86491" lon="2.92879">
        <ele>875</ele>
        <time>2015-10-19T14:15:26Z</time>
      </trkpt>
      <trkpt lat="45.86488" lon="2.92911">
        <ele>874</ele>
        <time>2015-10-19T14:17:26Z</time>
      </trkpt>
      <trkpt lat="45.8649" lon="2.92951">
        <ele>872</ele>
        <time>2015-10-19T14:19:26Z</time>
      </trkpt>
      <trkpt lat="45.86489" lon="2.92974">
        <ele>871</ele>
        <time>2015-10-19T14:21:26Z</time>
      </trkpt>
      <trkpt lat="45.8648" lon="2.93008">
        <ele>869</ele>
        <time>2015-10-19T14:23:26Z</time>
      </trkpt>
      <trkpt lat="45.86454" lon="2.93072">
        <ele>865</ele>
        <time>2015-10-19T14:25:26Z</time>
      </trkpt>
      <trkpt lat="45.86433" lon="2.93095">
        <ele>864</ele>
        <time>2015-10-19T14:27:26Z</time>
      </trkpt>
      <trkpt lat="45.86413" lon="2.93113">
        <ele>863</ele>
        <time>2015-10-19T14:29:26Z</time>
      </trkpt>
      <trkpt lat="45.86385" lon="2.93141">
        <ele>862</ele>
        <time>2015-10-19T14:31:26Z</time>
      </trkpt>
      <trkpt lat="45.8636" lon="2.93158">
        <ele>861</ele>
        <time>2015-10-19T14:33:26Z</time>
      </trkpt>
      <trkpt lat="45.86331" lon="2.93175">
        <ele>860</ele>
        <time>2015-10-19T14:35:26Z</time>
      </trkpt>
      <trkpt lat="45.86312" lon="2.93183">
        <ele>861</ele>
        <time>2015-10-19T14:37:26Z</time>
      </trkpt>
      <trkpt lat="45.86277" lon="2.93198">
        <ele>864</ele>
        <time>2015-10-19T14:39:26Z</time>
      </trkpt>
      <trkpt lat="45.86238" lon="2.93186">
        <ele>866</ele>
        <time>2015-10-19T14:41:26Z</time>
      </trkpt>
      <trkpt lat="45.86203" lon="2.93186">
        <ele>869</ele>
        <time>2015-10-19T14:43:26Z</time>
      </trkpt>
      <trkpt lat="45.86159" lon="2.93212">
        <ele>874</ele>
        <time>2015-10-19T14:45:26Z</time>
      </trkpt>
      <trkpt lat="45.86136" lon="2.93221">
        <ele>876</ele>
        <time>2015-10-19T14:47:26Z</time>
      </trkpt>
      <trkpt lat="45.86084" lon="2.93236">
        <ele>878</ele>
        <time>2015-10-19T14:49:26Z</time>
      </trkpt>
      <trkpt lat="45.86057" lon="2.93232">
        <ele>878</ele>
        <time>2015-10-19T14:51:26Z</time>
      </trkpt>
      <trkpt lat="45.86013" lon="2.93189">
        <ele>876</ele>
        <time>2015-10-19T14:53:26Z</time>
      </trkpt>
      <trkpt lat="45.85998" lon="2.93157">
        <ele>875</ele>
        <time>2015-10-19T14:55:26Z</time>
      </trkpt>
      <trkpt lat="45.86006" lon="2.93086">
        <ele>877</ele>
        <time>2015-10-19T14:57:26Z</time>
      </trkpt>
      <trkpt lat="45.86038" lon="2.92937">
        <ele>879</ele>
        <time>2015-10-19T14:59:26Z</time>
      </trkpt>
      <trkpt lat="45.86038" lon="2.92898">
        <ele>880</ele>
        <time>2015-10-19T15:01:26Z</time>
      </trkpt>
      <trkpt lat="45.86043" lon="2.92854">
        <ele>881</ele>
        <time>2015-10-19T15:03:26Z</time>
      </trkpt>
      <trkpt lat="45.86037" lon="2.92838">
        <ele>882</ele>
        <time>2015-10-19T15:05:26Z</time>
      </trkpt>
      <trkpt lat="45.86036" lon="2.92797">
        <ele>882</ele>
        <time>2015-10-19T15:07:26Z</time>
      </trkpt>
      <trkpt lat="45.86024" lon="2.92695">
        <ele>882</ele>
        <time>2015-10-19T15:09:26Z</time>
      </trkpt>
      <trkpt lat="45.86022" lon="2.92674">
        <ele>881</ele>
        <time>2015-10-19T15:11:26Z</time>
      </trkpt>
      <trkpt lat="45.86015" lon="2.92633">
        <ele>880</ele>
        <time>2015-10-19T15:13:26Z</time>
      </trkpt>
      <trkpt lat="45.86012" lon="2.92572">
        <ele>879</ele>
        <time>2015-10-19T15:15:26Z</time>
      </trkpt>
      <trkpt lat="45.86015" lon="2.92521">
        <ele>878</ele>
        <time>2015-10-19T15:17:26Z</time>
      </trkpt>
      <trkpt lat="45.86019" lon="2.92457">
        <ele>878</ele>
        <time>2015-10-19T15:19:26Z</time>
      </trkpt>
      <trkpt lat="45.8601" lon="2.92432">
        <ele>879</ele>
        <time>2015-10-19T15:21:26Z</time>
      </trkpt>
      <trkpt lat="45.86002" lon="2.9241">
        <ele>880</ele>
        <time>2015-10-19T15:23:26Z</time>
      </trkpt>
      <trkpt lat="45.85986" lon="2.9239">
        <ele>880</ele>
        <time>2015-10-19T15:25:26Z</time>
      </trkpt>
      <trkpt lat="45.85975" lon="2.92354">
        <ele>880</ele>
        <time>2015-10-19T15:27:26Z</time>
      </trkpt>
      <trkpt lat="45.85966" lon="2.92306">
        <ele>879</ele>
        <time>2015-10-19T15:29:26Z</time>
      </trkpt>
      <trkpt lat="45.85966" lon="2.92209">
        <ele>878</ele>
        <time>2015-10-19T15:31:26Z</time>
      </trkpt>
      <trkpt lat="45.85957" lon="2.92167">
        <ele>879</ele>
        <time>2015-10-19T15:33:26Z</time>
      </trkpt>
      <trkpt lat="45.8595" lon="2.92134">
        <ele>879</ele>
        <time>2015-10-19T15:35:26Z</time>
      </trkpt>
      <trkpt lat="45.85935" lon="2.92109">
        <ele>879</ele>
        <time>2015-10-19T15:37:26Z</time>
      </trkpt>
      <trkpt lat="45.85909" lon="2.92118">
        <ele>880</ele>
        <time>2015-10-19T15:39:26Z</time>
      </trkpt>
      <trkpt lat="45.85894" lon="2.92126">
        <ele>882</ele>
        <time>2015-10-19T15:41:26Z</time>
      </trkpt>
      <trkpt lat="45.85874" lon="2.92131">
        <ele>884</ele>
        <time>2015-10-19T15:43:26Z</time>
      </trkpt>
      <trkpt lat="45.85857" lon="2.92132">
        <ele>885</ele>
        <time>2015-10-19T15:45:26Z</time>
      </trkpt>
      <trkpt lat="45.85836" lon="2.9215">
        <ele>887</ele>
        <time>2015-10-19T15:47:26Z</time>
      </trkpt>
      <trkpt lat="45.85798" lon="2.92187">
        <ele>890</ele>
        <time>2015-10-19T15:49:26Z</time>
      </trkpt>
      <trkpt lat="45.85781" lon="2.922">
        <ele>891</ele>
        <time>2015-10-19T15:51:26Z</time>
      </trkpt>
      <trkpt lat="45.85767" lon="2.92211">
        <ele>891</ele>
        <time>2015-10-19T15:53:26Z</time>
      </trkpt>
      <trkpt lat="45.85739" lon="2.92225">
        <ele>892</ele>
        <time>2015-10-19T15:55:26Z</time>
      </trkpt>
      <trkpt lat="45.85718" lon="2.92236">
        <ele>892</ele>
        <time>2015-10-19T15:57:26Z</time>
      </trkpt>
      <trkpt lat="45.85682" lon="2.92248">
        <ele>893</ele>
        <time>2015-10-19T15:59:26Z</time>
      </trkpt>
      <trkpt lat="45.85653" lon="2.9219">
        <ele>894</ele>
        <time>2015-10-19T16:01:26Z</time>
      </trkpt>
      <trkpt lat="45.85626" lon="2.92132">
        <ele>895</ele>
        <time>2015-10-19T16:03:26Z</time>
      </trkpt>
      <trkpt lat="45.85602" lon="2.92093">
        <ele>895</ele>
        <time>2015-10-19T16:05:26Z</time>
      </trkpt>
      <trkpt lat="45.85588" lon="2.9207">
        <ele>894</ele>
        <time>2015-10-19T16:07:26Z</time>
      </trkpt>
      <trkpt lat="45.85576" lon="2.92055">
        <ele>894</ele>
        <time>2015-10-19T16:09:26Z</time>
      </trkpt>
      <trkpt lat="45.85548" lon="2.91996">
        <ele>893</ele>
        <time>2015-10-19T16:11:26Z</time>
      </trkpt>
      <trkpt lat="45.85531" lon="2.91975">
        <ele>892</ele>
        <time>2015-10-19T16:13:26Z</time>
      </trkpt>
      <trkpt lat="45.85487" lon="2.91913">
        <ele>891</ele>
        <time>2015-10-19T16:15:26Z</time>
      </trkpt>
      <trkpt lat="45.85428" lon="2.91799">
        <ele>891</ele>
        <time>2015-10-19T16:17:26Z</time>
      </trkpt>
      <trkpt lat="45.85401" lon="2.91752">
        <ele>891</ele>
        <time>2015-10-19T16:19:26Z</time>
      </trkpt>
      <trkpt lat="45.85396" lon="2.91709">
        <ele>889</ele>
        <time>2015-10-19T16:21:26Z</time>
      </trkpt>
      <trkpt lat="45.85388" lon="2.91666">
        <ele>887</ele>
        <time>2015-10-19T16:23:26Z</time>
      </trkpt>
      <trkpt lat="45.85384" lon="2.9163">
        <ele>886</ele>
        <time>2015-10-19T16:25:26Z</time>
      </trkpt>
      <trkpt lat="45.85379" lon="2.91591">
        <ele>886</ele>
        <time>2015-10-19T16:27:26Z</time>
      </trkpt>
      <trkpt lat="45.85359" lon="2.91578">
        <ele>886</ele>
        <time>2015-10-19T16:29:26Z</time>
      </trkpt>
      <trkpt lat="45.85339" lon="2.91551">
        <ele>886</ele>
        <time>2015-10-19T16:31:26Z</time>
      </trkpt>
      <trkpt lat="45.85328" lon="2.91527">
        <ele>886</ele>
        <time>2015-10-19T16:33:26Z</time>
      </trkpt>
      <trkpt lat="45.85301" lon="2.91473">
        <ele>885</ele>
        <time>2015-10-19T16:35:26Z</time>
      </trkpt>
      <trkpt lat="45.85283" lon="2.91452">
        <ele>884</ele>
        <time>2015-10-19T16:37:26Z</time>
      </trkpt>
      <trkpt lat="45.8527" lon="2.91421">
        <ele>884</ele>
        <time>2015-10-19T16:39:26Z</time>
      </trkpt>
      <trkpt lat="45.8526" lon="2.91398">
        <ele>883</ele>
        <time>2015-10-19T16:41:26Z</time>
      </trkpt>
      <trkpt lat="45.85248" lon="2.91351">
        <ele>881</ele>
        <time>2015-10-19T16:43:26Z</time>
      </trkpt>
      <trkpt lat="45.85242" lon="2.91322">
        <ele>880</ele>
        <time>2015-10-19T16:45:26Z</time>
      </trkpt>
      <trkpt lat="45.85204" lon="2.91353">
        <ele>880</ele>
        <time>2015-10-19T16:47:26Z</time>
      </trkpt>
      <trkpt lat="45.85166" lon="2.91401">
        <ele>881</ele>
        <time>2015-10-19T16:49:26Z</time>
      </trkpt>
      <trkpt lat="45.8513" lon="2.91441">
        <ele>881</ele>
        <time>2015-10-19T16:51:26Z</time>
      </trkpt>
      <trkpt lat="45.851" lon="2.9146">
        <ele>881</ele>
        <time>2015-10-19T16:53:26Z</time>
      </trkpt>
      <trkpt lat="45.8508" lon="2.91484">
        <ele>881</ele>
        <time>2015-10-19T16:55:26Z</time>
      </trkpt>
      <trkpt lat="45.85052" lon="2.91512">
        <ele>880</ele>
        <time>2015-10-19T16:57:26Z</time>
      </trkpt>
      <trkpt lat="45.85038" lon="2.91529">
        <ele>880</ele>
        <time>2015-10-19T16:59:26Z</time>
      </trkpt>
      <trkpt lat="45.85029" lon="2.91571">
        <ele>880</ele>
        <time>2015-10-19T17:01:26Z</time>
      </trkpt>
      <trkpt lat="45.85013" lon="2.9163">
        <ele>880</ele>
        <time>2015-10-19T17:03:26Z</time>
      </trkpt>
      <trkpt lat="45.84998" lon="2.91674">
        <ele>881</ele>
        <time>2015-10-19T17:05:26Z</time>
      </trkpt>
      <trkpt lat="45.84979" lon="2.91698">
        <ele>881</ele>
        <time>2015-10-19T17:07:26Z</time>
      </trkpt>
      <trkpt lat="45.84955" lon="2.91721">
        <ele>882</ele>
        <time>2015-10-19T17:09:26Z</time>
      </trkpt>
      <trkpt lat="45.84932" lon="2.9175">
        <ele>882</ele>
        <time>2015-10-19T17:11:26Z</time>
      </trkpt>
      <trkpt lat="45.84916" lon="2.91773">
        <ele>882</ele>
        <time>2015-10-19T17:13:26Z</time>
      </trkpt>
      <trkpt lat="45.84904" lon="2.9181">
        <ele>881</ele>
        <time>2015-10-19T17:15:26Z</time>
      </trkpt>
      <trkpt lat="45.8489" lon="2.91852">
        <ele>881</ele>
        <time>2015-10-19T17:17:26Z</time>
      </trkpt>
      <trkpt lat="45.84882" lon="2.91896">
        <ele>881</ele>
        <time>2015-10-19T17:19:26Z</time>
      </trkpt>
      <trkpt lat="45.84875" lon="2.91951">
        <ele>882</ele>
        <time>2015-10-19T17:21:26Z</time>
      </trkpt>
      <trkpt lat="45.84889" lon="2.91974">
        <ele>883</ele>
        <time>2015-10-19T17:23:26Z</time>
      </trkpt>
      <trkpt lat="45.8491" lon="2.9199">
        <ele>883</ele>
        <time>2015-10-19T17:25:26Z</time>
      </trkpt>
      <trkpt lat="45.84928" lon="2.92041">
        <ele>885</ele>
        <time>2015-10-19T17:27:26Z</time>
      </trkpt>
      <trkpt lat="45.8493" lon="2.92082">
        <ele>886</ele>
        <time>2015-10-19T17:29:26Z</time>
      </trkpt>
      <trkpt lat="45.84939" lon="2.92106">
        <ele>887</ele>
        <time>2015-10-19T17:31:26Z</time>
      </trkpt>
      <trkpt lat="45.84957" lon="2.92132">
        <ele>887</ele>
        <time>2015-10-19T17:33:26Z</time>
      </trkpt>
      <trkpt lat="45.84985" lon="2.92164">
        <ele>889</ele>
        <time>2015-10-19T17:35:26Z</time>
      </trkpt>
      <trkpt lat="45.85007" lon="2.92179">
        <ele>889</ele>
        <time>2015-10-19T17:37:26Z</time>
      </trkpt>
      <trkpt lat="45.85023" lon="2.92212">
        <ele>890</ele>
        <time>2015-10-19T17:39:26Z</time>
      </trkpt>
      <trkpt lat="45.85023" lon="2.92241">
        <ele>891</ele>
        <time>2015-10-19T17:41:26Z</time>
      </trkpt>
      <trkpt lat="45.85028" lon="2.92298">
        <ele>893</ele>
        <time>2015-10-19T17:43:26Z</time>
      </trkpt>
      <trkpt lat="45.85034" lon="2.92335">
        <ele>894</ele>
        <time>2015-10-19T17:45:26Z</time>
      </trkpt>
      <trkpt lat="45.85044" lon="2.92376">
        <ele>894</ele>
        <time>2015-10-19T17:47:26Z</time>
      </trkpt>
      <trkpt lat="45.85052" lon="2.92398">
        <ele>895</ele>
        <time>2015-10-19T17:49:26Z</time>
      </trkpt>
      <trkpt lat="45.85061" lon="2.92421">
        <ele>895</ele>
        <time>2015-10-19T17:51:26Z</time>
      </trkpt>
      <trkpt lat="45.8507" lon="2.92445">
        <ele>895</ele>
        <time>2015-10-19T17:53:26Z</time>
      </trkpt>
      <trkpt lat="45.8508" lon="2.92485">
        <ele>895</ele>
        <time>2015-10-19T17:55:26Z</time>
      </trkpt>
      <trkpt lat="45.85097" lon="2.92523">
        <ele>895</ele>
        <time>2015-10-19T17:57:26Z</time>
      </trkpt>
      <trkpt lat="45.85103" lon="2.9255">
        <ele>896</ele>
        <time>2015-10-19T17:59:26Z</time>
      </trkpt>
      <trkpt lat="45.85106" lon="2.92575">
        <ele>896</ele>
        <time>2015-10-19T18:01:26Z</time>
      </trkpt>
      <trkpt lat="45.85103" lon="2.92611">
        <ele>897</ele>
        <time>2015-10-19T18:03:26Z</time>
      </trkpt>
      <trkpt lat="45.85159" lon="2.92601">
        <ele>899</ele>
        <time>2015-10-19T18:05:26Z</time>
      </trkpt>
      <trkpt lat="45.85138" lon="2.92626">
        <ele>899</ele>
        <time>2015-10-19T18:07:26Z</time>
      </trkpt>
      <trkpt lat="45.85109" lon="2.92645">
        <ele>899</ele>
        <time>2015-10-19T18:09:26Z</time>
      </trkpt>
      <trkpt lat="45.85088" lon="2.92676">
        <ele>900</ele>
        <time>2015-10-19T18:11:26Z</time>
      </trkpt>
      <trkpt lat="45.85071" lon="2.92702">
        <ele>900</ele>
        <time>2015-10-19T18:13:26Z</time>
      </trkpt>
      <trkpt lat="45.85064" lon="2.92734">
        <ele>900</ele>
        <time>2015-10-19T18:15:26Z</time>
      </trkpt>
      <trkpt lat="45.85054" lon="2.92775">
        <ele>901</ele>
        <time>2015-10-19T18:17:26Z</time>
      </trkpt>
      <trkpt lat="45.8504" lon="2.92824">
        <ele>901</ele>
        <time>2015-10-19T18:19:26Z</time>
      </trkpt>
      <trkpt lat="45.85023" lon="2.92871">
        <ele>902</ele>
        <time>2015-10-19T18:21:26Z</time>
      </trkpt>
      <trkpt lat="45.85014" lon="2.92912">
        <ele>903</ele>
        <time>2015-10-19T18:23:26Z</time>
      </trkpt>
      <trkpt lat="45.85005" lon="2.9296">
        <ele>904</ele>
        <time>2015-10-19T18:25:26Z</time>
      </trkpt>
      <trkpt lat="45.84995" lon="2.93">
        <ele>905</ele>
        <time>2015-10-19T18:27:26Z</time>
      </trkpt>
      <trkpt lat="45.8497" lon="2.93047">
        <ele>908</ele>
        <time>2015-10-19T18:29:26Z</time>
      </trkpt>
      <trkpt lat="45.84952" lon="2.93099">
        <ele>911</ele>
        <time>2015-10-19T18:31:26Z</time>
      </trkpt>
      <trkpt lat="45.84908" lon="2.93217">
        <ele>915</ele>
        <time>2015-10-19T18:33:26Z</time>
      </trkpt>
      <trkpt lat="45.84877" lon="2.93303">
        <ele>917</ele>
        <time>2015-10-19T18:35:26Z</time>
      </trkpt>
      <trkpt lat="45.84868" lon="2.93341">
        <ele>919</ele>
        <time>2015-10-19T18:37:26Z</time>
      </trkpt>
      <trkpt lat="45.84863" lon="2.93392">
        <ele>921</ele>
        <time>2015-10-19T18:39:26Z</time>
      </trkpt>
      <trkpt lat="45.84849" lon="2.93432">
        <ele>924</ele>
        <time>2015-10-19T18:41:26Z</time>
      </trkpt>
      <trkpt lat="45.84828" lon="2.93486">
        <ele>928</ele>
        <time>2015-10-19T18:43:26Z</time>
      </trkpt>
      <trkpt lat="45.84809" lon="2.9352">
        <ele>931</ele>
        <time>2015-10-19T18:45:26Z</time>
      </trkpt>
      <trkpt lat="45.84792" lon="2.93563">
        <ele>933</ele>
        <time>2015-10-19T18:47:26Z</time>
      </trkpt>
      <trkpt lat="45.84776" lon="2.936">
        <ele>934</ele>
        <time>2015-10-19T18:49:26Z</time>
      </trkpt>
      <trkpt lat="45.84762" lon="2.93625">
        <ele>934</ele>
        <time>2015-10-19T18:51:26Z</time>
      </trkpt>
      <trkpt lat="45.84744" lon="2.93648">
        <ele>935</ele>
        <time>2015-10-19T18:53:26Z</time>
      </trkpt>
      <trkpt lat="45.84732" lon="2.93666">
        <ele>935</ele>
        <time>2015-10-19T18:55:26Z</time>
      </trkpt>
      <trkpt lat="45.84705" lon="2.93724">
        <ele>940</ele>
        <time>2015-10-19T18:57:26Z</time>
      </trkpt>
      <trkpt lat="45.84665" lon="2.93762">
        <ele>943</ele>
        <time>2015-10-19T18:59:26Z</time>
      </trkpt>
      <trkpt lat="45.84638" lon="2.93784">
        <ele>944</ele>
        <time>2015-10-19T19:01:26Z</time>
      </trkpt>
      <trkpt lat="45.84625" lon="2.93794">
        <ele>944</ele>
        <time>2015-10-19T19:03:26Z</time>
      </trkpt>
      <trkpt lat="45.84588" lon="2.93811">
        <ele>945</ele>
        <time>2015-10-19T19:05:26Z</time>
      </trkpt>
      <trkpt lat="45.84552" lon="2.9383">
        <ele>946</ele>
        <time>2015-10-19T19:07:26Z</time>
      </trkpt>
      <trkpt lat="45.84528" lon="2.93845">
        <ele>947</ele>
        <time>2015-10-19T19:09:26Z</time>
      </trkpt>
      <trkpt lat="45.845" lon="2.93863">
        <ele>947</ele>
        <time>2015-10-19T19:11:26Z</time>
      </trkpt>
      <trkpt lat="45.84442" lon="2.93899">
        <ele>947</ele>
        <time>2015-10-19T19:13:26Z</time>
      </trkpt>
      <trkpt lat="45.84411" lon="2.93917">
        <ele>947</ele>
        <time>2015-10-19T19:15:26Z</time>
      </trkpt>
      <trkpt lat="45.8438" lon="2.9393">
        <ele>947</ele>
        <time>2015-10-19T19:17:26Z</time>
      </trkpt>
      <trkpt lat="45.84355" lon="2.93956">
        <ele>947</ele>
        <time>2015-10-19T19:19:26Z</time>
      </trkpt>
      <trkpt lat="45.84326" lon="2.93975">
        <ele>946</ele>
        <time>2015-10-19T19:21:26Z</time>
      </trkpt>
      <trkpt lat="45.84292" lon="2.94004">
        <ele>946</ele>
        <time>2015-10-19T19:23:26Z</time>
      </trkpt>
      <trkpt lat="45.84271" lon="2.94019">
        <ele>946</ele>
        <time>2015-10-19T19:25:26Z</time>
      </trkpt>
      <trkpt lat="45.84278" lon="2.9411">
        <ele>946</ele>
        <time>2015-10-19T19:27:26Z</time>
      </trkpt>
      <trkpt lat="45.84282" lon="2.94197">
        <ele>946</ele>
        <time>2015-10-19T19:29:26Z</time>
      </trkpt>
      <trkpt lat="45.84287" lon="2.94287">
        <ele>947</ele>
        <time>2015-10-19T19:31:26Z</time>
      </trkpt>
      <trkpt lat="45.84292" lon="2.94377">
        <ele>950</ele>
        <time>2015-10-19T19:33:26Z</time>
      </trkpt>
      <trkpt lat="45.84296" lon="2.94476">
        <ele>953</ele>
        <time>2015-10-19T19:35:26Z</time>
      </trkpt>
      <trkpt lat="45.84299" lon="2.94549">
        <ele>954</ele>
        <time>2015-10-19T19:37:26Z</time>
      </trkpt>
      <trkpt lat="45.84297" lon="2.94638">
        <ele>957</ele>
        <time>2015-10-19T19:39:26Z</time>
      </trkpt>
      <trkpt lat="45.84296" lon="2.94761">
        <ele>960</ele>
        <time>2015-10-19T19:41:26Z</time>
      </trkpt>
      <trkpt lat="45.84282" lon="2.94851">
        <ele>965</ele>
        <time>2015-10-19T19:43:26Z</time>
      </trkpt>
      <trkpt lat="45.84269" lon="2.94944">
        <ele>973</ele>
        <time>2015-10-19T19:45:26Z</time>
      </trkpt>
      <trkpt lat="45.84277" lon="2.95014">
        <ele>979</ele>
        <time>2015-10-19T19:47:26Z</time>
      </trkpt>
      <trkpt lat="45.8428" lon="2.95067">
        <ele>983</ele>
        <time>2015-10-19T19:49:26Z</time>
      </trkpt>
      <trkpt lat="45.84277" lon="2.95106">
        <ele>986</ele>
        <time>2015-10-19T19:51:26Z</time>
      </trkpt>
      <trkpt lat="45.84272" lon="2.9514">
        <ele>988</ele>
        <time>2015-10-19T19:53:26Z</time>
      </trkpt>
      <trkpt lat="45.84274" lon="2.95202">
        <ele>992</ele>
        <time>2015-10-19T19:55:26Z</time>
      </trkpt>
      <trkpt lat="45.84278" lon="2.95246">
        <ele>994</ele>
        <time>2015-10-19T19:57:26Z</time>
      </trkpt>
      <trkpt lat="45.84269" lon="2.95301">
        <ele>995</ele>
        <time>2015-10-19T19:59:26Z</time>
      </trkpt>
      <trkpt lat="45.84255" lon="2.95352">
        <ele>996</ele>
        <time>2015-10-19T20:01:26Z</time>
      </trkpt>
      <trkpt lat="45.84235" lon="2.95403">
        <ele>997</ele>
        <time>2015-10-19T20:03:26Z</time>
      </trkpt>
      <trkpt lat="45.84218" lon="2.95439">
        <ele>997</ele>
        <time>2015-10-19T20:05:26Z</time>
      </trkpt>
      <trkpt lat="45.84199" lon="2.95469">
        <ele>997</ele>
        <time>2015-10-19T20:07:26Z</time>
      </trkpt>
      <trkpt lat="45.84168" lon="2.95518">
        <ele>997</ele>
        <time>2015-10-19T20:09:26Z</time>
      </trkpt>
      <trkpt lat="45.84153" lon="2.95544">
        <ele>997</ele>
        <time>2015-10-19T20:11:26Z</time>
      </trkpt>
      <trkpt lat="45.8411" lon="2.95591">
        <ele>998</ele>
        <time>2015-10-19T20:13:26Z</time>
      </trkpt>
      <trkpt lat="45.8408" lon="2.95632">
        <ele>999</ele>
        <time>2015-10-19T20:15:26Z</time>
      </trkpt>
      <trkpt lat="45.84056" lon="2.9565">
        <ele>999</ele>
        <time>2015-10-19T20:17:26Z</time>
      </trkpt>
      <trkpt lat="45.84029" lon="2.9568">
        <ele>1000</ele>
        <time>2015-10-19T20:19:26Z</time>
      </trkpt>
      <trkpt lat="45.8402" lon="2.95693">
        <ele>1001</ele>
        <time>2015-10-19T20:21:26Z</time>
      </trkpt>
      <trkpt lat="45.84002" lon="2.95721">
        <ele>1002</ele>
        <time>2015-10-19T20:23:26Z</time>
      </trkpt>
      <trkpt lat="45.83984" lon="2.95742">
        <ele>1004</ele>
        <time>2015-10-19T20:25:26Z</time>
      </trkpt>
      <trkpt lat="45.83952" lon="2.9578">
        <ele>1008</ele>
        <time>2015-10-19T20:27:26Z</time>
      </trkpt>
      <trkpt lat="45.83892" lon="2.95802">
        <ele>1010</ele>
        <time>2015-10-19T20:29:26Z</time>
      </trkpt>
      <trkpt lat="45.83854" lon="2.95828">
        <ele>1013</ele>
        <time>2015-10-19T20:31:26Z</time>
      </trkpt>
      <trkpt lat="45.83814" lon="2.95851">
        <ele>1017</ele>
        <time>2015-10-19T20:33:26Z</time>
      </trkpt>
      <trkpt lat="45.83749" lon="2.95884">
        <ele>1023</ele>
        <time>2015-10-19T20:35:26Z</time>
      </trkpt>
      <trkpt lat="45.83731" lon="2.95887">
        <ele>1024</ele>
        <time>2015-10-19T20:37:26Z</time>
      </trkpt>
      <trkpt lat="45.83702" lon="2.95902">
        <ele>1027</ele>
        <time>2015-10-19T20:39:26Z</time>
      </trkpt>
      <trkpt lat="45.83689" lon="2.9592">
        <ele>1028</ele>
        <time>2015-10-19T20:41:26Z</time>
      </trkpt>
      <trkpt lat="45.83671" lon="2.95933">
        <ele>1029</ele>
        <time>2015-10-19T20:43:26Z</time>
      </trkpt>
      <trkpt lat="45.83647" lon="2.9593">
        <ele>1030</ele>
        <time>2015-10-19T20:45:26Z</time>
      </trkpt>
      <trkpt lat="45.83668" lon="2.95894">
        <ele>1028</ele>
        <time>2015-10-19T20:47:26Z</time>
      </trkpt>
      <trkpt lat="45.83695" lon="2.95865">
        <ele>1025</ele>
        <time>2015-10-19T20:49:26Z</time>
      </trkpt>
      <trkpt lat="45.83724" lon="2.95844">
        <ele>1022</ele>
        <time>2015-10-19T20:51:26Z</time>
      </trkpt>
      <trkpt lat="45.83739" lon="2.9582">
        <ele>1020</ele>
        <time>2015-10-19T20:53:26Z</time>
      </trkpt>
      <trkpt lat="45.8377" lon="2.95774">
        <ele>1017</ele>
        <time>2015-10-19T20:55:26Z</time>
      </trkpt>
      <trkpt lat="45.83795" lon="2.95736">
        <ele>1014</ele>
        <time>2015-10-19T20:57:26Z</time>
      </trkpt>
      <trkpt lat="45.83818" lon="2.95703">
        <ele>1012</ele>
        <time>2015-10-19T20:59:26Z</time>
      </trkpt>
      <trkpt lat="45.83839" lon="2.95692">
        <ele>1009</ele>
        <time>2015-10-19T21:01:26Z</time>
      </trkpt>
      <trkpt lat="45.83855" lon="2.95671">
        <ele>1007</ele>
        <time>2015-10-19T21:03:26Z</time>
      </trkpt>
      <trkpt lat="45.83869" lon="2.95661">
        <ele>1005</ele>
        <time>2015-10-19T21:05:26Z</time>
      </trkpt>
      <trkpt lat="45.8388" lon="2.95658">
        <ele>1004</ele>
        <time>2015-10-19T21:07:26Z</time>
      </trkpt>
      <trkpt lat="45.83902" lon="2.95596">
        <ele>1001</ele>
        <time>2015-10-19T21:09:26Z</time>
      </trkpt>
      <trkpt lat="45.83911" lon="2.95545">
        <ele>998</ele>
        <time>2015-10-19T21:11:26Z</time>
      </trkpt>
      <trkpt lat="45.83914" lon="2.9548">
        <ele>994</ele>
        <time>2015-10-19T21:13:26Z</time>
      </trkpt>
      <trkpt lat="45.83912" lon="2.95441">
        <ele>992</ele>
        <time>2015-10-19T21:15:26Z</time>
      </trkpt>
      <trkpt lat="45.83892" lon="2.9539">
        <ele>992</ele>
        <time>2015-10-19T21:17:26Z</time>
      </trkpt>
      <trkpt lat="45.83881" lon="2.95362">
        <ele>991</ele>
        <time>2015-10-19T21:19:26Z</time>
      </trkpt>
      <trkpt lat="45.83871" lon="2.9534">
        <ele>990</ele>
        <time>2015-10-19T21:21:26Z</time>
      </trkpt>
      <trkpt lat="45.83851" lon="2.95305">
        <ele>988</ele>
        <time>2015-10-19T21:23:26Z</time>
      </trkpt>
      <trkpt lat="45.83831" lon="2.95276">
        <ele>986</ele>
        <time>2015-10-19T21:25:26Z</time>
      </trkpt>
      <trkpt lat="45.83825" lon="2.95261">
        <ele>985</ele>
        <time>2015-10-19T21:27:26Z</time>
      </trkpt>
      <trkpt lat="45.83825" lon="2.95204">
        <ele>983</ele>
        <time>2015-10-19T21:29:26Z</time>
      </trkpt>
      <trkpt lat="45.83819" lon="2.95124">
        <ele>979</ele>
        <time>2015-10-19T21:31:26Z</time>
      </trkpt>
      <trkpt lat="45.83801" lon="2.95084">
        <ele>977</ele>
        <time>2015-10-19T21:33:26Z</time>
      </trkpt>
      <trkpt lat="45.83769" lon="2.95037">
        <ele>974</ele>
        <time>2015-10-19T21:35:26Z</time>
      </trkpt>
      <trkpt lat="45.83746" lon="2.94979">
        <ele>969</ele>
        <time>2015-10-19T21:37:26Z</time>
      </trkpt>
      <trkpt lat="45.83747" lon="2.94908">
        <ele>968</ele>
        <time>2015-10-19T21:39:26Z</time>
      </trkpt>
      <trkpt lat="45.83751" lon="2.94834">
        <ele>967</ele>
        <time>2015-10-19T21:41:26Z</time>
      </trkpt>
      <trkpt lat="45.83748" lon="2.94776">
        <ele>965</ele>
        <time>2015-10-19T21:43:26Z</time>
      </trkpt>
      <trkpt lat="45.83749" lon="2.94718">
        <ele>963</ele>
        <time>2015-10-19T21:45:26Z</time>
      </trkpt>
      <trkpt lat="45.83742" lon="2.94675">
        <ele>961</ele>
        <time>2015-10-19T21:47:26Z</time>
      </trkpt>
      <trkpt lat="45.83733" lon="2.94639">
        <ele>959</ele>
        <time>2015-10-19T21:49:26Z</time>
      </trkpt>
      <trkpt lat="45.83713" lon="2.94589">
        <ele>956</ele>
        <time>2015-10-19T21:51:26Z</time>
      </trkpt>
      <trkpt lat="45.83686" lon="2.94516">
        <ele>958</ele>
        <time>2015-10-19T21:53:26Z</time>
      </trkpt>
      <trkpt lat="45.83635" lon="2.94544">
        <ele>957</ele>
        <time>2015-10-19T21:55:26Z</time>
      </trkpt>
      <trkpt lat="45.83584" lon="2.94565">
        <ele>957</ele>
        <time>2015-10-19T21:57:26Z</time>
      </trkpt>
      <trkpt lat="45.83536" lon="2.94579">
        <ele>957</ele>
        <time>2015-10-19T21:59:26Z</time>
      </trkpt>
      <trkpt lat="45.83509" lon="2.94583">
        <ele>957</ele>
        <time>2015-10-19T22:01:26Z</time>
      </trkpt>
      <trkpt lat="45.83482" lon="2.94519">
        <ele>955</ele>
        <time>2015-10-19T22:03:26Z</time>
      </trkpt>
      <trkpt lat="45.83446" lon="2.94482">
        <ele>954</ele>
        <time>2015-10-19T22:05:26Z</time>
      </trkpt>
      <trkpt lat="45.8341" lon="2.94429">
        <ele>953</ele>
        <time>2015-10-19T22:07:26Z</time>
      </trkpt>
      <trkpt lat="45.83388" lon="2.94396">
        <ele>952</ele>
        <time>2015-10-19T22:09:26Z</time>
      </trkpt>
      <trkpt lat="45.83363" lon="2.9436">
        <ele>952</ele>
        <time>2015-10-19T22:11:26Z</time>
      </trkpt>
      <trkpt lat="45.83346" lon="2.94332">
        <ele>951</ele>
        <time>2015-10-19T22:13:26Z</time>
      </trkpt>
      <trkpt lat="45.83321" lon="2.94278">
        <ele>951</ele>
        <time>2015-10-19T22:15:26Z</time>
      </trkpt>
      <trkpt lat="45.83294" lon="2.94197">
        <ele>950</ele>
        <time>2015-10-19T22:17:26Z</time>
      </trkpt>
      <trkpt lat="45.83249" lon="2.94051">
        <ele>950</ele>
        <time>2015-10-19T22:19:26Z</time>
      </trkpt>
      <trkpt lat="45.83239" lon="2.94019">
        <ele>951</ele>
        <time>2015-10-19T22:21:26Z</time>
      </trkpt>
      <trkpt lat="45.83342" lon="2.9392">
        <ele>946</ele>
        <time>2015-10-19T22:23:26Z</time>
      </trkpt>
      <trkpt lat="45.83369" lon="2.93915">
        <ele>944</ele>
        <time>2015-10-19T22:25:26Z</time>
      </trkpt>
      <trkpt lat="45.83388" lon="2.93924">
        <ele>943</ele>
        <time>2015-10-19T22:27:26Z</time>
      </trkpt>
      <trkpt lat="45.83428" lon="2.93912">
        <ele>940</ele>
        <time>2015-10-19T22:29:26Z</time>
      </trkpt>
      <trkpt lat="45.83467" lon="2.93867">
        <ele>937</ele>
        <time>2015-10-19T22:31:26Z</time>
      </trkpt>
      <trkpt lat="45.83494" lon="2.93803">
        <ele>935</ele>
        <time>2015-10-19T22:33:26Z</time>
      </trkpt>
      <trkpt lat="45.83527" lon="2.93732">
        <ele>934</ele>
        <time>2015-10-19T22:35:26Z</time>
      </trkpt>
      <trkpt lat="45.83553" lon="2.93676">
        <ele>932</ele>
        <time>2015-10-19T22:37:26Z</time>
      </trkpt>
      <trkpt lat="45.8357" lon="2.93618">
        <ele>930</ele>
        <time>2015-10-19T22:39:26Z</time>
      </trkpt>
      <trkpt lat="45.83586" lon="2.93575">
        <ele>929</ele>
        <time>2015-10-19T22:41:26Z</time>
      </trkpt>
      <trkpt lat="45.83615" lon="2.93504">
        <ele>925</ele>
        <time>2015-10-19T22:43:26Z</time>
      </trkpt>
      <trkpt lat="45.83637" lon="2.93478">
        <ele>924</ele>
        <time>2015-10-19T22:45:26Z</time>
      </trkpt>
      <trkpt lat="45.83659" lon="2.93452">
        <ele>923</ele>
        <time>2015-10-19T22:47:26Z</time>
      </trkpt>
      <trkpt lat="45.83678" lon="2.93436">
        <ele>921</ele>
        <time>2015-10-19T22:49:26Z</time>
      </trkpt>
      <trkpt lat="45.837" lon="2.93411">
        <ele>918</ele>
        <time>2015-10-19T22:51:26Z</time>
      </trkpt>
      <trkpt lat="45.83709" lon="2.93385">
        <ele>915</ele>
        <time>2015-10-19T22:53:26Z</time>
      </trkpt>
      <trkpt lat="45.83712" lon="2.93377">
        <ele>915</ele>
        <time>2015-10-19T22:55:26Z</time>
      </trkpt>
      <trkpt lat="45.83727" lon="2.93351">
        <ele>912</ele>
        <time>2015-10-19T22:57:26Z</time>
      </trkpt>
      <trkpt lat="45.83742" lon="2.93335">
        <ele>910</ele>
        <time>2015-10-19T22:59:26Z</time>
      </trkpt>
      <trkpt lat="45.83754" lon="2.9331">
        <ele>910</ele>
        <time>2015-10-19T23:01:26Z</time>
      </trkpt>
      <trkpt lat="45.8378" lon="2.93223">
        <ele>909</ele>
        <time>2015-10-19T23:03:26Z</time>
      </trkpt>
      <trkpt lat="45.83783" lon="2.93196">
        <ele>909</ele>
        <time>2015-10-19T23:05:26Z</time>
      </trkpt>
      <trkpt lat="45.83802" lon="2.93127">
        <ele>908</ele>
        <time>2015-10-19T23:07:26Z</time>
      </trkpt>
      <trkpt lat="45.83811" lon="2.93109">
        <ele>908</ele>
        <time>2015-10-19T23:09:26Z</time>
      </trkpt>
      <trkpt lat="45.83833" lon="2.93086">
        <ele>909</ele>
        <time>2015-10-19T23:11:26Z</time>
      </trkpt>
      <trkpt lat="45.8386" lon="2.93069">
        <ele>908</ele>
        <time>2015-10-19T23:13:26Z</time>
      </trkpt>
      <trkpt lat="45.83883" lon="2.93058">
        <ele>906</ele>
        <time>2015-10-19T23:15:26Z</time>
      </trkpt>
      <trkpt lat="45.83909" lon="2.93046">
        <ele>904</ele>
        <time>2015-10-19T23:17:26Z</time>
      </trkpt>
      <trkpt lat="45.83932" lon="2.93038">
        <ele>903</ele>
        <time>2015-10-19T23:19:26Z</time>
      </trkpt>
      <trkpt lat="45.83965" lon="2.93024">
        <ele>902</ele>
        <time>2015-10-19T23:21:26Z</time>
      </trkpt>
      <trkpt lat="45.84004" lon="2.93014">
        <ele>901</ele>
        <time>2015-10-19T23:23:26Z</time>
      </trkpt>
      <trkpt lat="45.84042" lon="2.93004">
        <ele>899</ele>
        <time>2015-10-19T23:25:26Z</time>
      </trkpt>
      <trkpt lat="45.84072" lon="2.92991">
        <ele>897</ele>
        <time>2015-10-19T23:27:26Z</time>
      </trkpt>
      <trkpt lat="45.84091" lon="2.92981">
        <ele>896</ele>
        <time>2015-10-19T23:29:26Z</time>
      </trkpt>
      <trkpt lat="45.84118" lon="2.92972">
        <ele>895</ele>
        <time>2015-10-19T23:31:26Z</time>
      </trkpt>
      <trkpt lat="45.84132" lon="2.92969">
        <ele>895</ele>
        <time>2015-10-19T23:33:26Z</time>
      </trkpt>
      <trkpt lat="45.84122" lon="2.92933">
        <ele>892</ele>
        <time>2015-10-19T23:35:26Z</time>
      </trkpt>
      <trkpt lat="45.84108" lon="2.9288">
        <ele>888</ele>
        <time>2015-10-19T23:37:26Z</time>
      </trkpt>
      <trkpt lat="45.84089" lon="2.9287">
        <ele>888</ele>
        <time>2015-10-19T23:39:26Z</time>
      </trkpt>
      <trkpt lat="45.84092" lon="2.92852">
        <ele>886</ele>
        <time>2015-10-19T23:41:26Z</time>
      </trkpt>
    </trkseg>
  </trk>
  <trk>
    <name><![CDATA[--Manzat-- OR-5378134:ser-jb07-vtt-b]]></name>
    <trkseg>
      <trkpt lat="45.96113" lon="2.94189">
        <ele>630</ele>
        <time>2015-10-18T23:11:52Z</time>
      </trkpt>
      <trkpt lat="45.96095" lon="2.94204">
        <ele>632</ele>
        <time>2015-10-18T23:13:52Z</time>
      </trkpt>
      <trkpt lat="45.96087" lon="2.9423">
        <ele>632</ele>
        <time>2015-10-18T23:15:52Z</time>
      </trkpt>
      <trkpt lat="45.96105" lon="2.94246">
        <ele>631</ele>
        <time>2015-10-18T23:17:52Z</time>
      </trkpt>
      <trkpt lat="45.96116" lon="2.94268">
        <ele>631</ele>
        <time>2015-10-18T23:19:52Z</time>
      </trkpt>
      <trkpt lat="45.96123" lon="2.9429">
        <ele>632</ele>
        <time>2015-10-18T23:21:52Z</time>
      </trkpt>
      <trkpt lat="45.96131" lon="2.9431">
        <ele>632</ele>
        <time>2015-10-18T23:23:52Z</time>
      </trkpt>
      <trkpt lat="45.96147" lon="2.94327">
        <ele>631</ele>
        <time>2015-10-18T23:25:52Z</time>
      </trkpt>
      <trkpt lat="45.96164" lon="2.94336">
        <ele>630</ele>
        <time>2015-10-18T23:27:52Z</time>
      </trkpt>
      <trkpt lat="45.96191" lon="2.94327">
        <ele>628</ele>
        <time>2015-10-18T23:29:52Z</time>
      </trkpt>
      <trkpt lat="45.96228" lon="2.94316">
        <ele>625</ele>
        <time>2015-10-18T23:31:52Z</time>
      </trkpt>
      <trkpt lat="45.96278" lon="2.94284">
        <ele>622</ele>
        <time>2015-10-18T23:33:52Z</time>
      </trkpt>
      <trkpt lat="45.96299" lon="2.94295">
        <ele>623</ele>
        <time>2015-10-18T23:35:52Z</time>
      </trkpt>
      <trkpt lat="45.96329" lon="2.94341">
        <ele>625</ele>
        <time>2015-10-18T23:37:52Z</time>
      </trkpt>
      <trkpt lat="45.9636" lon="2.94372">
        <ele>625</ele>
        <time>2015-10-18T23:39:52Z</time>
      </trkpt>
      <trkpt lat="45.96379" lon="2.944">
        <ele>626</ele>
        <time>2015-10-18T23:41:52Z</time>
      </trkpt>
      <trkpt lat="45.96392" lon="2.9442">
        <ele>627</ele>
        <time>2015-10-18T23:43:52Z</time>
      </trkpt>
      <trkpt lat="45.96413" lon="2.94518">
        <ele>629</ele>
        <time>2015-10-18T23:45:52Z</time>
      </trkpt>
      <trkpt lat="45.96422" lon="2.94558">
        <ele>629</ele>
        <time>2015-10-18T23:47:52Z</time>
      </trkpt>
      <trkpt lat="45.96454" lon="2.94665">
        <ele>629</ele>
        <time>2015-10-18T23:49:52Z</time>
      </trkpt>
      <trkpt lat="45.96466" lon="2.94708">
        <ele>629</ele>
        <time>2015-10-18T23:51:52Z</time>
      </trkpt>
      <trkpt lat="45.96482" lon="2.94756">
        <ele>627</ele>
        <time>2015-10-18T23:53:52Z</time>
      </trkpt>
      <trkpt lat="45.96497" lon="2.94794">
        <ele>628</ele>
        <time>2015-10-18T23:55:52Z</time>
      </trkpt>
      <trkpt lat="45.96512" lon="2.94823">
        <ele>629</ele>
        <time>2015-10-18T23:57:52Z</time>
      </trkpt>
      <trkpt lat="45.96534" lon="2.94835">
        <ele>629</ele>
        <time>2015-10-18T23:59:52Z</time>
      </trkpt>
      <trkpt lat="45.96574" lon="2.94839">
        <ele>629</ele>
        <time>2015-10-19T00:01:52Z</time>
      </trkpt>
      <trkpt lat="45.9661" lon="2.9483">
        <ele>631</ele>
        <time>2015-10-19T00:03:52Z</time>
      </trkpt>
      <trkpt lat="45.96606" lon="2.94855">
        <ele>632</ele>
        <time>2015-10-19T00:05:52Z</time>
      </trkpt>
      <trkpt lat="45.96588" lon="2.94881">
        <ele>632</ele>
        <time>2015-10-19T00:07:52Z</time>
      </trkpt>
      <trkpt lat="45.96571" lon="2.94891">
        <ele>632</ele>
        <time>2015-10-19T00:09:52Z</time>
      </trkpt>
      <trkpt lat="45.96545" lon="2.94911">
        <ele>632</ele>
        <time>2015-10-19T00:11:52Z</time>
      </trkpt>
      <trkpt lat="45.96526" lon="2.94927">
        <ele>633</ele>
        <time>2015-10-19T00:13:52Z</time>
      </trkpt>
      <trkpt lat="45.96508" lon="2.94942">
        <ele>633</ele>
        <time>2015-10-19T00:15:52Z</time>
      </trkpt>
      <trkpt lat="45.96496" lon="2.94961">
        <ele>634</ele>
        <time>2015-10-19T00:17:52Z</time>
      </trkpt>
      <trkpt lat="45.96483" lon="2.94984">
        <ele>636</ele>
        <time>2015-10-19T00:19:52Z</time>
      </trkpt>
      <trkpt lat="45.96467" lon="2.95003">
        <ele>637</ele>
        <time>2015-10-19T00:21:52Z</time>
      </trkpt>
      <trkpt lat="45.96447" lon="2.95025">
        <ele>638</ele>
        <time>2015-10-19T00:23:52Z</time>
      </trkpt>
      <trkpt lat="45.9643" lon="2.95042">
        <ele>639</ele>
        <time>2015-10-19T00:25:52Z</time>
      </trkpt>
      <trkpt lat="45.96412" lon="2.95061">
        <ele>641</ele>
        <time>2015-10-19T00:27:52Z</time>
      </trkpt>
      <trkpt lat="45.96389" lon="2.95087">
        <ele>643</ele>
        <time>2015-10-19T00:29:52Z</time>
      </trkpt>
      <trkpt lat="45.96363" lon="2.95118">
        <ele>646</ele>
        <time>2015-10-19T00:31:52Z</time>
      </trkpt>
      <trkpt lat="45.96347" lon="2.95153">
        <ele>650</ele>
        <time>2015-10-19T00:33:52Z</time>
      </trkpt>
      <trkpt lat="45.96329" lon="2.95182">
        <ele>652</ele>
        <time>2015-10-19T00:35:52Z</time>
      </trkpt>
      <trkpt lat="45.96308" lon="2.95212">
        <ele>652</ele>
        <time>2015-10-19T00:37:52Z</time>
      </trkpt>
      <trkpt lat="45.96322" lon="2.95258">
        <ele>655</ele>
        <time>2015-10-19T00:39:52Z</time>
      </trkpt>
      <trkpt lat="45.96333" lon="2.9529">
        <ele>657</ele>
        <time>2015-10-19T00:41:52Z</time>
      </trkpt>
      <trkpt lat="45.96337" lon="2.95326">
        <ele>658</ele>
        <time>2015-10-19T00:43:52Z</time>
      </trkpt>
      <trkpt lat="45.96339" lon="2.9536">
        <ele>658</ele>
        <time>2015-10-19T00:45:52Z</time>
      </trkpt>
      <trkpt lat="45.96324" lon="2.954">
        <ele>657</ele>
        <time>2015-10-19T00:47:52Z</time>
      </trkpt>
      <trkpt lat="45.96315" lon="2.95437">
        <ele>657</ele>
        <time>2015-10-19T00:49:52Z</time>
      </trkpt>
      <trkpt lat="45.96314" lon="2.9548">
        <ele>657</ele>
        <time>2015-10-19T00:51:52Z</time>
      </trkpt>
      <trkpt lat="45.96319" lon="2.95522">
        <ele>658</ele>
        <time>2015-10-19T00:53:52Z</time>
      </trkpt>
      <trkpt lat="45.96322" lon="2.95547">
        <ele>659</ele>
        <time>2015-10-19T00:55:52Z</time>
      </trkpt>
      <trkpt lat="45.96333" lon="2.95555">
        <ele>659</ele>
        <time>2015-10-19T00:57:52Z</time>
      </trkpt>
      <trkpt lat="45.96329" lon="2.95582">
        <ele>660</ele>
        <time>2015-10-19T00:59:52Z</time>
      </trkpt>
      <trkpt lat="45.96325" lon="2.95634">
        <ele>661</ele>
        <time>2015-10-19T01:01:52Z</time>
      </trkpt>
      <trkpt lat="45.96319" lon="2.95664">
        <ele>661</ele>
        <time>2015-10-19T01:03:52Z</time>
      </trkpt>
      <trkpt lat="45.96299" lon="2.95695">
        <ele>661</ele>
        <time>2015-10-19T01:05:52Z</time>
      </trkpt>
      <trkpt lat="45.96272" lon="2.95728">
        <ele>661</ele>
        <time>2015-10-19T01:07:52Z</time>
      </trkpt>
      <trkpt lat="45.96245" lon="2.95749">
        <ele>660</ele>
        <time>2015-10-19T01:09:52Z</time>
      </trkpt>
      <trkpt lat="45.96228" lon="2.95769">
        <ele>661</ele>
        <time>2015-10-19T01:11:52Z</time>
      </trkpt>
      <trkpt lat="45.96202" lon="2.958">
        <ele>662</ele>
        <time>2015-10-19T01:13:52Z</time>
      </trkpt>
      <trkpt lat="45.96163" lon="2.95842">
        <ele>664</ele>
        <time>2015-10-19T01:15:52Z</time>
      </trkpt>
      <trkpt lat="45.96144" lon="2.95872">
        <ele>666</ele>
        <time>2015-10-19T01:17:52Z</time>
      </trkpt>
      <trkpt lat="45.96135" lon="2.9592">
        <ele>668</ele>
        <time>2015-10-19T01:19:52Z</time>
      </trkpt>
      <trkpt lat="45.96126" lon="2.95964">
        <ele>672</ele>
        <time>2015-10-19T01:21:52Z</time>
      </trkpt>
      <trkpt lat="45.96118" lon="2.96013">
        <ele>676</ele>
        <time>2015-10-19T01:23:52Z</time>
      </trkpt>
      <trkpt lat="45.9611" lon="2.96064">
        <ele>682</ele>
        <time>2015-10-19T01:25:52Z</time>
      </trkpt>
      <trkpt lat="45.9608" lon="2.96078">
        <ele>687</ele>
        <time>2015-10-19T01:27:52Z</time>
      </trkpt>
      <trkpt lat="45.9605" lon="2.96089">
        <ele>691</ele>
        <time>2015-10-19T01:29:52Z</time>
      </trkpt>
      <trkpt lat="45.9602" lon="2.96076">
        <ele>693</ele>
        <time>2015-10-19T01:31:52Z</time>
      </trkpt>
      <trkpt lat="45.95997" lon="2.96053">
        <ele>695</ele>
        <time>2015-10-19T01:33:52Z</time>
      </trkpt>
      <trkpt lat="45.95967" lon="2.96033">
        <ele>697</ele>
        <time>2015-10-19T01:35:52Z</time>
      </trkpt>
      <trkpt lat="45.95937" lon="2.96027">
        <ele>701</ele>
        <time>2015-10-19T01:37:52Z</time>
      </trkpt>
      <trkpt lat="45.95917" lon="2.96011">
        <ele>703</ele>
        <time>2015-10-19T01:39:52Z</time>
      </trkpt>
      <trkpt lat="45.95902" lon="2.96026">
        <ele>706</ele>
        <time>2015-10-19T01:41:52Z</time>
      </trkpt>
      <trkpt lat="45.95885" lon="2.96052">
        <ele>710</ele>
        <time>2015-10-19T01:43:52Z</time>
      </trkpt>
      <trkpt lat="45.9585" lon="2.96106">
        <ele>717</ele>
        <time>2015-10-19T01:45:52Z</time>
      </trkpt>
      <trkpt lat="45.95813" lon="2.96076">
        <ele>722</ele>
        <time>2015-10-19T01:47:52Z</time>
      </trkpt>
      <trkpt lat="45.95766" lon="2.96029">
        <ele>726</ele>
        <time>2015-10-19T01:49:52Z</time>
      </trkpt>
      <trkpt lat="45.95734" lon="2.96">
        <ele>729</ele>
        <time>2015-10-19T01:51:52Z</time>
      </trkpt>
      <trkpt lat="45.95686" lon="2.95985">
        <ele>732</ele>
        <time>2015-10-19T01:53:52Z</time>
      </trkpt>
      <trkpt lat="45.95653" lon="2.95986">
        <ele>734</ele>
        <time>2015-10-19T01:55:52Z</time>
      </trkpt>
      <trkpt lat="45.95611" lon="2.95993">
        <ele>735</ele>
        <time>2015-10-19T01:57:52Z</time>
      </trkpt>
      <trkpt lat="45.95583" lon="2.96">
        <ele>736</ele>
        <time>2015-10-19T01:59:52Z</time>
      </trkpt>
      <trkpt lat="45.95542" lon="2.9602">
        <ele>737</ele>
        <time>2015-10-19T02:01:52Z</time>
      </trkpt>
      <trkpt lat="45.95521" lon="2.96027">
        <ele>737</ele>
        <time>2015-10-19T02:03:52Z</time>
      </trkpt>
      <trkpt lat="45.95494" lon="2.96057">
        <ele>738</ele>
        <time>2015-10-19T02:05:52Z</time>
      </trkpt>
      <trkpt lat="45.95482" lon="2.96089">
        <ele>738</ele>
        <time>2015-10-19T02:07:52Z</time>
      </trkpt>
      <trkpt lat="45.9547" lon="2.96114">
        <ele>737</ele>
        <time>2015-10-19T02:09:52Z</time>
      </trkpt>
      <trkpt lat="45.9545" lon="2.96135">
        <ele>735</ele>
        <time>2015-10-19T02:11:52Z</time>
      </trkpt>
      <trkpt lat="45.95388" lon="2.96192">
        <ele>728</ele>
        <time>2015-10-19T02:13:52Z</time>
      </trkpt>
      <trkpt lat="45.95374" lon="2.96199">
        <ele>727</ele>
        <time>2015-10-19T02:15:52Z</time>
      </trkpt>
      <trkpt lat="45.95318" lon="2.96171">
        <ele>720</ele>
        <time>2015-10-19T02:17:52Z</time>
      </trkpt>
      <trkpt lat="45.9528" lon="2.96087">
        <ele>714</ele>
        <time>2015-10-19T02:19:52Z</time>
      </trkpt>
      <trkpt lat="45.9525" lon="2.96078">
        <ele>710</ele>
        <time>2015-10-19T02:21:52Z</time>
      </trkpt>
      <trkpt lat="45.95221" lon="2.96071">
        <ele>705</ele>
        <time>2015-10-19T02:23:52Z</time>
      </trkpt>
      <trkpt lat="45.95203" lon="2.96054">
        <ele>702</ele>
        <time>2015-10-19T02:25:52Z</time>
      </trkpt>
      <trkpt lat="45.95168" lon="2.9597">
        <ele>696</ele>
        <time>2015-10-19T02:27:52Z</time>
      </trkpt>
      <trkpt lat="45.95151" lon="2.95934">
        <ele>695</ele>
        <time>2015-10-19T02:29:52Z</time>
      </trkpt>
      <trkpt lat="45.95124" lon="2.95896">
        <ele>698</ele>
        <time>2015-10-19T02:31:52Z</time>
      </trkpt>
      <trkpt lat="45.95101" lon="2.95891">
        <ele>700</ele>
        <time>2015-10-19T02:33:52Z</time>
      </trkpt>
      <trkpt lat="45.95078" lon="2.95912">
        <ele>699</ele>
        <time>2015-10-19T02:35:52Z</time>
      </trkpt>
      <trkpt lat="45.95063" lon="2.95974">
        <ele>700</ele>
        <time>2015-10-19T02:37:52Z</time>
      </trkpt>
      <trkpt lat="45.94974" lon="2.95924">
        <ele>709</ele>
        <time>2015-10-19T02:39:52Z</time>
      </trkpt>
      <trkpt lat="45.94906" lon="2.95899">
        <ele>719</ele>
        <time>2015-10-19T02:41:52Z</time>
      </trkpt>
      <trkpt lat="45.94823" lon="2.95867">
        <ele>728</ele>
        <time>2015-10-19T02:43:52Z</time>
      </trkpt>
      <trkpt lat="45.94722" lon="2.9582">
        <ele>731</ele>
        <time>2015-10-19T02:45:52Z</time>
      </trkpt>
      <trkpt lat="45.94679" lon="2.95799">
        <ele>734</ele>
        <time>2015-10-19T02:47:52Z</time>
      </trkpt>
      <trkpt lat="45.94657" lon="2.95798">
        <ele>736</ele>
        <time>2015-10-19T02:49:52Z</time>
      </trkpt>
      <trkpt lat="45.94635" lon="2.95809">
        <ele>738</ele>
        <time>2015-10-19T02:51:52Z</time>
      </trkpt>
      <trkpt lat="45.94502" lon="2.95781">
        <ele>746</ele>
        <time>2015-10-19T02:53:52Z</time>
      </trkpt>
      <trkpt lat="45.94481" lon="2.95771">
        <ele>748</ele>
        <time>2015-10-19T02:55:52Z</time>
      </trkpt>
      <trkpt lat="45.94413" lon="2.95711">
        <ele>753</ele>
        <time>2015-10-19T02:57:52Z</time>
      </trkpt>
      <trkpt lat="45.94362" lon="2.95665">
        <ele>755</ele>
        <time>2015-10-19T02:59:52Z</time>
      </trkpt>
      <trkpt lat="45.94254" lon="2.95542">
        <ele>761</ele>
        <time>2015-10-19T03:01:52Z</time>
      </trkpt>
      <trkpt lat="45.94204" lon="2.95511">
        <ele>765</ele>
        <time>2015-10-19T03:03:52Z</time>
      </trkpt>
      <trkpt lat="45.94122" lon="2.9546">
        <ele>777</ele>
        <time>2015-10-19T03:05:52Z</time>
      </trkpt>
      <trkpt lat="45.94101" lon="2.95471">
        <ele>780</ele>
        <time>2015-10-19T03:07:52Z</time>
      </trkpt>
      <trkpt lat="45.94071" lon="2.95473">
        <ele>785</ele>
        <time>2015-10-19T03:09:52Z</time>
      </trkpt>
      <trkpt lat="45.94043" lon="2.95479">
        <ele>790</ele>
        <time>2015-10-19T03:11:52Z</time>
      </trkpt>
      <trkpt lat="45.94013" lon="2.95489">
        <ele>794</ele>
        <time>2015-10-19T03:13:52Z</time>
      </trkpt>
      <trkpt lat="45.93959" lon="2.95468">
        <ele>802</ele>
        <time>2015-10-19T03:15:52Z</time>
      </trkpt>
      <trkpt lat="45.9391" lon="2.95441">
        <ele>808</ele>
        <time>2015-10-19T03:17:52Z</time>
      </trkpt>
      <trkpt lat="45.93873" lon="2.95416">
        <ele>811</ele>
        <time>2015-10-19T03:19:52Z</time>
      </trkpt>
      <trkpt lat="45.93826" lon="2.95369">
        <ele>816</ele>
        <time>2015-10-19T03:21:52Z</time>
      </trkpt>
      <trkpt lat="45.93771" lon="2.95312">
        <ele>819</ele>
        <time>2015-10-19T03:23:52Z</time>
      </trkpt>
      <trkpt lat="45.9372" lon="2.95252">
        <ele>823</ele>
        <time>2015-10-19T03:25:52Z</time>
      </trkpt>
      <trkpt lat="45.93705" lon="2.95238">
        <ele>824</ele>
        <time>2015-10-19T03:27:52Z</time>
      </trkpt>
      <trkpt lat="45.93668" lon="2.95231">
        <ele>825</ele>
        <time>2015-10-19T03:29:52Z</time>
      </trkpt>
      <trkpt lat="45.93626" lon="2.95227">
        <ele>827</ele>
        <time>2015-10-19T03:31:52Z</time>
      </trkpt>
      <trkpt lat="45.93608" lon="2.95227">
        <ele>828</ele>
        <time>2015-10-19T03:33:52Z</time>
      </trkpt>
      <trkpt lat="45.93589" lon="2.95199">
        <ele>828</ele>
        <time>2015-10-19T03:35:52Z</time>
      </trkpt>
      <trkpt lat="45.93568" lon="2.95162">
        <ele>829</ele>
        <time>2015-10-19T03:37:52Z</time>
      </trkpt>
      <trkpt lat="45.93553" lon="2.95038">
        <ele>832</ele>
        <time>2015-10-19T03:39:52Z</time>
      </trkpt>
      <trkpt lat="45.93532" lon="2.94882">
        <ele>831</ele>
        <time>2015-10-19T03:41:52Z</time>
      </trkpt>
      <trkpt lat="45.93514" lon="2.94889">
        <ele>832</ele>
        <time>2015-10-19T03:43:52Z</time>
      </trkpt>
      <trkpt lat="45.93441" lon="2.94841">
        <ele>832</ele>
        <time>2015-10-19T03:45:52Z</time>
      </trkpt>
      <trkpt lat="45.93391" lon="2.94813">
        <ele>831</ele>
        <time>2015-10-19T03:47:52Z</time>
      </trkpt>
      <trkpt lat="45.93346" lon="2.94783">
        <ele>829</ele>
        <time>2015-10-19T03:49:52Z</time>
      </trkpt>
      <trkpt lat="45.9327" lon="2.94705">
        <ele>824</ele>
        <time>2015-10-19T03:51:52Z</time>
      </trkpt>
      <trkpt lat="45.93226" lon="2.94654">
        <ele>821</ele>
        <time>2015-10-19T03:53:52Z</time>
      </trkpt>
      <trkpt lat="45.93211" lon="2.94623">
        <ele>820</ele>
        <time>2015-10-19T03:55:52Z</time>
      </trkpt>
      <trkpt lat="45.93181" lon="2.94569">
        <ele>821</ele>
        <time>2015-10-19T03:57:52Z</time>
      </trkpt>
      <trkpt lat="45.93143" lon="2.94523">
        <ele>824</ele>
        <time>2015-10-19T03:59:52Z</time>
      </trkpt>
      <trkpt lat="45.93082" lon="2.94428">
        <ele>830</ele>
        <time>2015-10-19T04:01:52Z</time>
      </trkpt>
      <trkpt lat="45.9306" lon="2.94402">
        <ele>832</ele>
        <time>2015-10-19T04:03:52Z</time>
      </trkpt>
      <trkpt lat="45.93011" lon="2.94372">
        <ele>837</ele>
        <time>2015-10-19T04:05:52Z</time>
      </trkpt>
      <trkpt lat="45.92994" lon="2.94382">
        <ele>838</ele>
        <time>2015-10-19T04:07:52Z</time>
      </trkpt>
      <trkpt lat="45.92969" lon="2.94389">
        <ele>839</ele>
        <time>2015-10-19T04:09:52Z</time>
      </trkpt>
      <trkpt lat="45.92892" lon="2.94374">
        <ele>843</ele>
        <time>2015-10-19T04:11:52Z</time>
      </trkpt>
      <trkpt lat="45.92819" lon="2.94325">
        <ele>851</ele>
        <time>2015-10-19T04:13:52Z</time>
      </trkpt>
      <trkpt lat="45.92713" lon="2.94257">
        <ele>858</ele>
        <time>2015-10-19T04:15:52Z</time>
      </trkpt>
      <trkpt lat="45.92657" lon="2.94228">
        <ele>862</ele>
        <time>2015-10-19T04:17:52Z</time>
      </trkpt>
      <trkpt lat="45.92621" lon="2.94202">
        <ele>865</ele>
        <time>2015-10-19T04:19:52Z</time>
      </trkpt>
      <trkpt lat="45.92594" lon="2.94172">
        <ele>866</ele>
        <time>2015-10-19T04:21:52Z</time>
      </trkpt>
      <trkpt lat="45.92585" lon="2.94146">
        <ele>866</ele>
        <time>2015-10-19T04:23:52Z</time>
      </trkpt>
      <trkpt lat="45.92582" lon="2.94169">
        <ele>866</ele>
        <time>2015-10-19T04:25:52Z</time>
      </trkpt>
      <trkpt lat="45.92581" lon="2.94218">
        <ele>867</ele>
        <time>2015-10-19T04:27:52Z</time>
      </trkpt>
      <trkpt lat="45.92579" lon="2.94276">
        <ele>867</ele>
        <time>2015-10-19T04:29:52Z</time>
      </trkpt>
      <trkpt lat="45.92576" lon="2.94313">
        <ele>867</ele>
        <time>2015-10-19T04:31:52Z</time>
      </trkpt>
      <trkpt lat="45.92561" lon="2.94356">
        <ele>867</ele>
        <time>2015-10-19T04:33:52Z</time>
      </trkpt>
      <trkpt lat="45.92542" lon="2.94396">
        <ele>866</ele>
        <time>2015-10-19T04:35:52Z</time>
      </trkpt>
      <trkpt lat="45.92517" lon="2.94434">
        <ele>867</ele>
        <time>2015-10-19T04:37:52Z</time>
      </trkpt>
      <trkpt lat="45.92489" lon="2.94467">
        <ele>866</ele>
        <time>2015-10-19T04:39:52Z</time>
      </trkpt>
      <trkpt lat="45.92453" lon="2.945">
        <ele>866</ele>
        <time>2015-10-19T04:41:52Z</time>
      </trkpt>
      <trkpt lat="45.92423" lon="2.94533">
        <ele>864</ele>
        <time>2015-10-19T04:43:52Z</time>
      </trkpt>
      <trkpt lat="45.92408" lon="2.9455">
        <ele>863</ele>
        <time>2015-10-19T04:45:52Z</time>
      </trkpt>
      <trkpt lat="45.92359" lon="2.9459">
        <ele>863</ele>
        <time>2015-10-19T04:47:52Z</time>
      </trkpt>
      <trkpt lat="45.9232" lon="2.94623">
        <ele>862</ele>
        <time>2015-10-19T04:49:52Z</time>
      </trkpt>
      <trkpt lat="45.92267" lon="2.94677">
        <ele>858</ele>
        <time>2015-10-19T04:51:52Z</time>
      </trkpt>
      <trkpt lat="45.92207" lon="2.94732">
        <ele>854</ele>
        <time>2015-10-19T04:53:52Z</time>
      </trkpt>
      <trkpt lat="45.92157" lon="2.94773">
        <ele>851</ele>
        <time>2015-10-19T04:55:52Z</time>
      </trkpt>
      <trkpt lat="45.9214" lon="2.94793">
        <ele>850</ele>
        <time>2015-10-19T04:57:52Z</time>
      </trkpt>
      <trkpt lat="45.92119" lon="2.94822">
        <ele>848</ele>
        <time>2015-10-19T04:59:52Z</time>
      </trkpt>
      <trkpt lat="45.92093" lon="2.94841">
        <ele>848</ele>
        <time>2015-10-19T05:01:52Z</time>
      </trkpt>
      <trkpt lat="45.92066" lon="2.94868">
        <ele>846</ele>
        <time>2015-10-19T05:03:52Z</time>
      </trkpt>
      <trkpt lat="45.92043" lon="2.94904">
        <ele>845</ele>
        <time>2015-10-19T05:05:52Z</time>
      </trkpt>
      <trkpt lat="45.92026" lon="2.94946">
        <ele>844</ele>
        <time>2015-10-19T05:07:52Z</time>
      </trkpt>
      <trkpt lat="45.92012" lon="2.94984">
        <ele>843</ele>
        <time>2015-10-19T05:09:52Z</time>
      </trkpt>
      <trkpt lat="45.92002" lon="2.95037">
        <ele>843</ele>
        <time>2015-10-19T05:11:52Z</time>
      </trkpt>
      <trkpt lat="45.91988" lon="2.95095">
        <ele>843</ele>
        <time>2015-10-19T05:13:52Z</time>
      </trkpt>
      <trkpt lat="45.91977" lon="2.95146">
        <ele>845</ele>
        <time>2015-10-19T05:15:52Z</time>
      </trkpt>
      <trkpt lat="45.91964" lon="2.95199">
        <ele>846</ele>
        <time>2015-10-19T05:17:52Z</time>
      </trkpt>
      <trkpt lat="45.91953" lon="2.95255">
        <ele>847</ele>
        <time>2015-10-19T05:19:52Z</time>
      </trkpt>
      <trkpt lat="45.91943" lon="2.95309">
        <ele>848</ele>
        <time>2015-10-19T05:21:52Z</time>
      </trkpt>
      <trkpt lat="45.91931" lon="2.95344">
        <ele>849</ele>
        <time>2015-10-19T05:23:52Z</time>
      </trkpt>
      <trkpt lat="45.91917" lon="2.9539">
        <ele>850</ele>
        <time>2015-10-19T05:25:52Z</time>
      </trkpt>
      <trkpt lat="45.91904" lon="2.95432">
        <ele>850</ele>
        <time>2015-10-19T05:27:52Z</time>
      </trkpt>
      <trkpt lat="45.91894" lon="2.95471">
        <ele>850</ele>
        <time>2015-10-19T05:29:52Z</time>
      </trkpt>
      <trkpt lat="45.91882" lon="2.95507">
        <ele>850</ele>
        <time>2015-10-19T05:31:52Z</time>
      </trkpt>
      <trkpt lat="45.91865" lon="2.95538">
        <ele>849</ele>
        <time>2015-10-19T05:33:52Z</time>
      </trkpt>
      <trkpt lat="45.91841" lon="2.95574">
        <ele>847</ele>
        <time>2015-10-19T05:35:52Z</time>
      </trkpt>
      <trkpt lat="45.9182" lon="2.95593">
        <ele>846</ele>
        <time>2015-10-19T05:37:52Z</time>
      </trkpt>
      <trkpt lat="45.91798" lon="2.9562">
        <ele>845</ele>
        <time>2015-10-19T05:39:52Z</time>
      </trkpt>
      <trkpt lat="45.91774" lon="2.9566">
        <ele>843</ele>
        <time>2015-10-19T05:41:52Z</time>
      </trkpt>
      <trkpt lat="45.91748" lon="2.95688">
        <ele>841</ele>
        <time>2015-10-19T05:43:52Z</time>
      </trkpt>
      <trkpt lat="45.91727" lon="2.95714">
        <ele>839</ele>
        <time>2015-10-19T05:45:52Z</time>
      </trkpt>
      <trkpt lat="45.91708" lon="2.95732">
        <ele>838</ele>
        <time>2015-10-19T05:47:52Z</time>
      </trkpt>
      <trkpt lat="45.9169" lon="2.9575">
        <ele>837</ele>
        <time>2015-10-19T05:49:52Z</time>
      </trkpt>
      <trkpt lat="45.91658" lon="2.95758">
        <ele>836</ele>
        <time>2015-10-19T05:51:52Z</time>
      </trkpt>
      <trkpt lat="45.91626" lon="2.95774">
        <ele>835</ele>
        <time>2015-10-19T05:53:52Z</time>
      </trkpt>
      <trkpt lat="45.91614" lon="2.95811">
        <ele>836</ele>
        <time>2015-10-19T05:55:52Z</time>
      </trkpt>
      <trkpt lat="45.91599" lon="2.95861">
        <ele>837</ele>
        <time>2015-10-19T05:57:52Z</time>
      </trkpt>
      <trkpt lat="45.91589" lon="2.95911">
        <ele>838</ele>
        <time>2015-10-19T05:59:52Z</time>
      </trkpt>
      <trkpt lat="45.9158" lon="2.9597">
        <ele>839</ele>
        <time>2015-10-19T06:01:52Z</time>
      </trkpt>
      <trkpt lat="45.9157" lon="2.96038">
        <ele>839</ele>
        <time>2015-10-19T06:03:52Z</time>
      </trkpt>
      <trkpt lat="45.91561" lon="2.96078">
        <ele>839</ele>
        <time>2015-10-19T06:05:52Z</time>
      </trkpt>
      <trkpt lat="45.91556" lon="2.9611">
        <ele>837</ele>
        <time>2015-10-19T06:07:52Z</time>
      </trkpt>
      <trkpt lat="45.91554" lon="2.96151">
        <ele>834</ele>
        <time>2015-10-19T06:09:52Z</time>
      </trkpt>
      <trkpt lat="45.91549" lon="2.96193">
        <ele>829</ele>
        <time>2015-10-19T06:11:52Z</time>
      </trkpt>
      <trkpt lat="45.91526" lon="2.96211">
        <ele>826</ele>
        <time>2015-10-19T06:13:52Z</time>
      </trkpt>
      <trkpt lat="45.91499" lon="2.96241">
        <ele>821</ele>
        <time>2015-10-19T06:15:52Z</time>
      </trkpt>
      <trkpt lat="45.91464" lon="2.96287">
        <ele>818</ele>
        <time>2015-10-19T06:17:52Z</time>
      </trkpt>
      <trkpt lat="45.91436" lon="2.96322">
        <ele>816</ele>
        <time>2015-10-19T06:19:52Z</time>
      </trkpt>
      <trkpt lat="45.91443" lon="2.9635">
        <ele>815</ele>
        <time>2015-10-19T06:21:52Z</time>
      </trkpt>
      <trkpt lat="45.91473" lon="2.96331">
        <ele>816</ele>
        <time>2015-10-19T06:23:52Z</time>
      </trkpt>
      <trkpt lat="45.91538" lon="2.96317">
        <ele>818</ele>
        <time>2015-10-19T06:25:52Z</time>
      </trkpt>
      <trkpt lat="45.91567" lon="2.96319">
        <ele>819</ele>
        <time>2015-10-19T06:27:52Z</time>
      </trkpt>
      <trkpt lat="45.91651" lon="2.96308">
        <ele>825</ele>
        <time>2015-10-19T06:29:52Z</time>
      </trkpt>
      <trkpt lat="45.91656" lon="2.96312">
        <ele>825</ele>
        <time>2015-10-19T06:31:52Z</time>
      </trkpt>
      <trkpt lat="45.91662" lon="2.96335">
        <ele>823</ele>
        <time>2015-10-19T06:33:52Z</time>
      </trkpt>
      <trkpt lat="45.91672" lon="2.96351">
        <ele>821</ele>
        <time>2015-10-19T06:35:52Z</time>
      </trkpt>
      <trkpt lat="45.91684" lon="2.96367">
        <ele>821</ele>
        <time>2015-10-19T06:37:52Z</time>
      </trkpt>
      <trkpt lat="45.91703" lon="2.9639">
        <ele>820</ele>
        <time>2015-10-19T06:39:52Z</time>
      </trkpt>
      <trkpt lat="45.91728" lon="2.96412">
        <ele>819</ele>
        <time>2015-10-19T06:41:52Z</time>
      </trkpt>
      <trkpt lat="45.91754" lon="2.96444">
        <ele>818</ele>
        <time>2015-10-19T06:43:52Z</time>
      </trkpt>
      <trkpt lat="45.91776" lon="2.9647">
        <ele>817</ele>
        <time>2015-10-19T06:45:52Z</time>
      </trkpt>
      <trkpt lat="45.91819" lon="2.9651">
        <ele>817</ele>
        <time>2015-10-19T06:47:52Z</time>
      </trkpt>
      <trkpt lat="45.91856" lon="2.96537">
        <ele>815</ele>
        <time>2015-10-19T06:49:52Z</time>
      </trkpt>
      <trkpt lat="45.91871" lon="2.96549">
        <ele>814</ele>
        <time>2015-10-19T06:51:52Z</time>
      </trkpt>
      <trkpt lat="45.91917" lon="2.96527">
        <ele>816</ele>
        <time>2015-10-19T06:53:52Z</time>
      </trkpt>
      <trkpt lat="45.91954" lon="2.96474">
        <ele>818</ele>
        <time>2015-10-19T06:55:52Z</time>
      </trkpt>
      <trkpt lat="45.91971" lon="2.96464">
        <ele>819</ele>
        <time>2015-10-19T06:57:52Z</time>
      </trkpt>
      <trkpt lat="45.92" lon="2.96449">
        <ele>820</ele>
        <time>2015-10-19T06:59:52Z</time>
      </trkpt>
      <trkpt lat="45.92037" lon="2.96426">
        <ele>820</ele>
        <time>2015-10-19T07:01:52Z</time>
      </trkpt>
      <trkpt lat="45.92064" lon="2.96431">
        <ele>818</ele>
        <time>2015-10-19T07:03:52Z</time>
      </trkpt>
      <trkpt lat="45.92076" lon="2.96424">
        <ele>818</ele>
        <time>2015-10-19T07:05:52Z</time>
      </trkpt>
      <trkpt lat="45.9212" lon="2.96425">
        <ele>816</ele>
        <time>2015-10-19T07:07:52Z</time>
      </trkpt>
      <trkpt lat="45.92139" lon="2.96434">
        <ele>814</ele>
        <time>2015-10-19T07:09:52Z</time>
      </trkpt>
      <trkpt lat="45.92167" lon="2.96457">
        <ele>810</ele>
        <time>2015-10-19T07:11:52Z</time>
      </trkpt>
      <trkpt lat="45.92176" lon="2.96475">
        <ele>809</ele>
        <time>2015-10-19T07:13:52Z</time>
      </trkpt>
      <trkpt lat="45.92185" lon="2.96508">
        <ele>805</ele>
        <time>2015-10-19T07:15:52Z</time>
      </trkpt>
      <trkpt lat="45.92192" lon="2.96545">
        <ele>799</ele>
        <time>2015-10-19T07:17:52Z</time>
      </trkpt>
      <trkpt lat="45.92219" lon="2.96601">
        <ele>791</ele>
        <time>2015-10-19T07:19:52Z</time>
      </trkpt>
      <trkpt lat="45.92235" lon="2.96632">
        <ele>786</ele>
        <time>2015-10-19T07:21:52Z</time>
      </trkpt>
      <trkpt lat="45.92247" lon="2.96663">
        <ele>780</ele>
        <time>2015-10-19T07:23:52Z</time>
      </trkpt>
      <trkpt lat="45.92285" lon="2.96698">
        <ele>777</ele>
        <time>2015-10-19T07:25:52Z</time>
      </trkpt>
      <trkpt lat="45.92326" lon="2.96735">
        <ele>775</ele>
        <time>2015-10-19T07:27:52Z</time>
      </trkpt>
      <trkpt lat="45.92343" lon="2.96722">
        <ele>779</ele>
        <time>2015-10-19T07:29:52Z</time>
      </trkpt>
      <trkpt lat="45.92366" lon="2.96714">
        <ele>783</ele>
        <time>2015-10-19T07:31:52Z</time>
      </trkpt>
      <trkpt lat="45.92387" lon="2.96725">
        <ele>784</ele>
        <time>2015-10-19T07:33:52Z</time>
      </trkpt>
      <trkpt lat="45.92412" lon="2.9673">
        <ele>786</ele>
        <time>2015-10-19T07:35:52Z</time>
      </trkpt>
      <trkpt lat="45.92447" lon="2.96726">
        <ele>790</ele>
        <time>2015-10-19T07:37:52Z</time>
      </trkpt>
      <trkpt lat="45.92492" lon="2.96728">
        <ele>794</ele>
        <time>2015-10-19T07:39:52Z</time>
      </trkpt>
      <trkpt lat="45.92516" lon="2.96742">
        <ele>795</ele>
        <time>2015-10-19T07:41:52Z</time>
      </trkpt>
      <trkpt lat="45.92525" lon="2.96765">
        <ele>794</ele>
        <time>2015-10-19T07:43:52Z</time>
      </trkpt>
      <trkpt lat="45.92542" lon="2.96819">
        <ele>793</ele>
        <time>2015-10-19T07:45:52Z</time>
      </trkpt>
      <trkpt lat="45.92543" lon="2.96798">
        <ele>795</ele>
        <time>2015-10-19T07:47:52Z</time>
      </trkpt>
      <trkpt lat="45.92554" lon="2.96772">
        <ele>798</ele>
        <time>2015-10-19T07:49:52Z</time>
      </trkpt>
      <trkpt lat="45.92564" lon="2.96762">
        <ele>801</ele>
        <time>2015-10-19T07:51:52Z</time>
      </trkpt>
      <trkpt lat="45.92594" lon="2.96753">
        <ele>807</ele>
        <time>2015-10-19T07:53:52Z</time>
      </trkpt>
      <trkpt lat="45.92609" lon="2.96731">
        <ele>811</ele>
        <time>2015-10-19T07:55:52Z</time>
      </trkpt>
      <trkpt lat="45.92637" lon="2.96687">
        <ele>819</ele>
        <time>2015-10-19T07:57:52Z</time>
      </trkpt>
      <trkpt lat="45.92652" lon="2.9666">
        <ele>823</ele>
        <time>2015-10-19T07:59:52Z</time>
      </trkpt>
      <trkpt lat="45.92659" lon="2.9663">
        <ele>826</ele>
        <time>2015-10-19T08:01:52Z</time>
      </trkpt>
      <trkpt lat="45.92673" lon="2.9656">
        <ele>832</ele>
        <time>2015-10-19T08:03:52Z</time>
      </trkpt>
      <trkpt lat="45.92687" lon="2.96531">
        <ele>837</ele>
        <time>2015-10-19T08:05:52Z</time>
      </trkpt>
      <trkpt lat="45.92708" lon="2.96485">
        <ele>844</ele>
        <time>2015-10-19T08:07:52Z</time>
      </trkpt>
      <trkpt lat="45.92728" lon="2.96434">
        <ele>848</ele>
        <time>2015-10-19T08:09:52Z</time>
      </trkpt>
      <trkpt lat="45.92731" lon="2.9646">
        <ele>848</ele>
        <time>2015-10-19T08:11:52Z</time>
      </trkpt>
      <trkpt lat="45.92738" lon="2.9649">
        <ele>848</ele>
        <time>2015-10-19T08:13:52Z</time>
      </trkpt>
      <trkpt lat="45.92741" lon="2.96517">
        <ele>847</ele>
        <time>2015-10-19T08:15:52Z</time>
      </trkpt>
      <trkpt lat="45.92741" lon="2.96542">
        <ele>846</ele>
        <time>2015-10-19T08:17:52Z</time>
      </trkpt>
      <trkpt lat="45.92747" lon="2.96574">
        <ele>846</ele>
        <time>2015-10-19T08:19:52Z</time>
      </trkpt>
      <trkpt lat="45.92762" lon="2.96616">
        <ele>845</ele>
        <time>2015-10-19T08:21:52Z</time>
      </trkpt>
      <trkpt lat="45.92792" lon="2.96657">
        <ele>844</ele>
        <time>2015-10-19T08:23:52Z</time>
      </trkpt>
      <trkpt lat="45.92814" lon="2.96685">
        <ele>842</ele>
        <time>2015-10-19T08:25:52Z</time>
      </trkpt>
      <trkpt lat="45.92878" lon="2.96748">
        <ele>837</ele>
        <time>2015-10-19T08:27:52Z</time>
      </trkpt>
      <trkpt lat="45.92937" lon="2.96823">
        <ele>833</ele>
        <time>2015-10-19T08:29:52Z</time>
      </trkpt>
      <trkpt lat="45.92952" lon="2.96848">
        <ele>833</ele>
        <time>2015-10-19T08:31:52Z</time>
      </trkpt>
      <trkpt lat="45.92985" lon="2.96815">
        <ele>833</ele>
        <time>2015-10-19T08:33:52Z</time>
      </trkpt>
      <trkpt lat="45.93035" lon="2.9675">
        <ele>830</ele>
        <time>2015-10-19T08:35:52Z</time>
      </trkpt>
      <trkpt lat="45.93056" lon="2.96727">
        <ele>829</ele>
        <time>2015-10-19T08:37:52Z</time>
      </trkpt>
      <trkpt lat="45.93069" lon="2.96728">
        <ele>828</ele>
        <time>2015-10-19T08:39:52Z</time>
      </trkpt>
      <trkpt lat="45.9308" lon="2.96744">
        <ele>827</ele>
        <time>2015-10-19T08:41:52Z</time>
      </trkpt>
      <trkpt lat="45.93093" lon="2.96749">
        <ele>826</ele>
        <time>2015-10-19T08:43:52Z</time>
      </trkpt>
      <trkpt lat="45.93173" lon="2.96722">
        <ele>822</ele>
        <time>2015-10-19T08:45:52Z</time>
      </trkpt>
      <trkpt lat="45.93197" lon="2.96725">
        <ele>820</ele>
        <time>2015-10-19T08:47:52Z</time>
      </trkpt>
      <trkpt lat="45.93229" lon="2.96748">
        <ele>817</ele>
        <time>2015-10-19T08:49:52Z</time>
      </trkpt>
      <trkpt lat="45.93277" lon="2.9677">
        <ele>814</ele>
        <time>2015-10-19T08:51:52Z</time>
      </trkpt>
      <trkpt lat="45.93317" lon="2.96799">
        <ele>812</ele>
        <time>2015-10-19T08:53:52Z</time>
      </trkpt>
      <trkpt lat="45.9335" lon="2.96801">
        <ele>810</ele>
        <time>2015-10-19T08:55:52Z</time>
      </trkpt>
      <trkpt lat="45.93376" lon="2.96799">
        <ele>808</ele>
        <time>2015-10-19T08:57:52Z</time>
      </trkpt>
      <trkpt lat="45.93406" lon="2.96794">
        <ele>807</ele>
        <time>2015-10-19T08:59:52Z</time>
      </trkpt>
      <trkpt lat="45.93453" lon="2.96849">
        <ele>804</ele>
        <time>2015-10-19T09:01:52Z</time>
      </trkpt>
      <trkpt lat="45.93501" lon="2.96906">
        <ele>802</ele>
        <time>2015-10-19T09:03:52Z</time>
      </trkpt>
      <trkpt lat="45.93528" lon="2.96935">
        <ele>801</ele>
        <time>2015-10-19T09:05:52Z</time>
      </trkpt>
      <trkpt lat="45.93553" lon="2.96974">
        <ele>801</ele>
        <time>2015-10-19T09:07:52Z</time>
      </trkpt>
      <trkpt lat="45.93575" lon="2.96991">
        <ele>800</ele>
        <time>2015-10-19T09:09:52Z</time>
      </trkpt>
      <trkpt lat="45.93605" lon="2.97045">
        <ele>800</ele>
        <time>2015-10-19T09:11:52Z</time>
      </trkpt>
      <trkpt lat="45.93632" lon="2.97116">
        <ele>800</ele>
        <time>2015-10-19T09:13:52Z</time>
      </trkpt>
      <trkpt lat="45.93645" lon="2.97157">
        <ele>799</ele>
        <time>2015-10-19T09:15:52Z</time>
      </trkpt>
      <trkpt lat="45.93651" lon="2.97212">
        <ele>799</ele>
        <time>2015-10-19T09:17:52Z</time>
      </trkpt>
      <trkpt lat="45.93676" lon="2.97198">
        <ele>796</ele>
        <time>2015-10-19T09:19:52Z</time>
      </trkpt>
      <trkpt lat="45.93692" lon="2.97192">
        <ele>795</ele>
        <time>2015-10-19T09:21:52Z</time>
      </trkpt>
      <trkpt lat="45.93746" lon="2.97193">
        <ele>792</ele>
        <time>2015-10-19T09:23:52Z</time>
      </trkpt>
      <trkpt lat="45.93765" lon="2.97199">
        <ele>791</ele>
        <time>2015-10-19T09:25:52Z</time>
      </trkpt>
      <trkpt lat="45.93771" lon="2.97223">
        <ele>791</ele>
        <time>2015-10-19T09:27:52Z</time>
      </trkpt>
      <trkpt lat="45.93804" lon="2.97256">
        <ele>791</ele>
        <time>2015-10-19T09:29:52Z</time>
      </trkpt>
      <trkpt lat="45.93863" lon="2.97307">
        <ele>790</ele>
        <time>2015-10-19T09:31:52Z</time>
      </trkpt>
      <trkpt lat="45.93894" lon="2.97342">
        <ele>790</ele>
        <time>2015-10-19T09:33:52Z</time>
      </trkpt>
      <trkpt lat="45.93941" lon="2.97383">
        <ele>790</ele>
        <time>2015-10-19T09:35:52Z</time>
      </trkpt>
      <trkpt lat="45.93973" lon="2.97443">
        <ele>789</ele>
        <time>2015-10-19T09:37:52Z</time>
      </trkpt>
      <trkpt lat="45.9401" lon="2.9749">
        <ele>787</ele>
        <time>2015-10-19T09:39:52Z</time>
      </trkpt>
      <trkpt lat="45.94039" lon="2.97517">
        <ele>785</ele>
        <time>2015-10-19T09:41:52Z</time>
      </trkpt>
      <trkpt lat="45.94064" lon="2.9754">
        <ele>784</ele>
        <time>2015-10-19T09:43:52Z</time>
      </trkpt>
      <trkpt lat="45.941" lon="2.97568">
        <ele>783</ele>
        <time>2015-10-19T09:45:52Z</time>
      </trkpt>
      <trkpt lat="45.94153" lon="2.97618">
        <ele>780</ele>
        <time>2015-10-19T09:47:52Z</time>
      </trkpt>
      <trkpt lat="45.94176" lon="2.97646">
        <ele>778</ele>
        <time>2015-10-19T09:49:52Z</time>
      </trkpt>
      <trkpt lat="45.94249" lon="2.97676">
        <ele>774</ele>
        <time>2015-10-19T09:51:52Z</time>
      </trkpt>
      <trkpt lat="45.94295" lon="2.97698">
        <ele>771</ele>
        <time>2015-10-19T09:53:52Z</time>
      </trkpt>
      <trkpt lat="45.94334" lon="2.97713">
        <ele>770</ele>
        <time>2015-10-19T09:55:52Z</time>
      </trkpt>
      <trkpt lat="45.94379" lon="2.97726">
        <ele>772</ele>
        <time>2015-10-19T09:57:52Z</time>
      </trkpt>
      <trkpt lat="45.94404" lon="2.97749">
        <ele>772</ele>
        <time>2015-10-19T09:59:52Z</time>
      </trkpt>
      <trkpt lat="45.94428" lon="2.97778">
        <ele>769</ele>
        <time>2015-10-19T10:01:52Z</time>
      </trkpt>
      <trkpt lat="45.94469" lon="2.97813">
        <ele>766</ele>
        <time>2015-10-19T10:03:52Z</time>
      </trkpt>
      <trkpt lat="45.94489" lon="2.97838">
        <ele>764</ele>
        <time>2015-10-19T10:05:52Z</time>
      </trkpt>
      <trkpt lat="45.9451" lon="2.97857">
        <ele>764</ele>
        <time>2015-10-19T10:07:52Z</time>
      </trkpt>
      <trkpt lat="45.94524" lon="2.9792">
        <ele>761</ele>
        <time>2015-10-19T10:09:52Z</time>
      </trkpt>
      <trkpt lat="45.94529" lon="2.97979">
        <ele>757</ele>
        <time>2015-10-19T10:11:52Z</time>
      </trkpt>
      <trkpt lat="45.94538" lon="2.98028">
        <ele>755</ele>
        <time>2015-10-19T10:13:52Z</time>
      </trkpt>
      <trkpt lat="45.94551" lon="2.98067">
        <ele>753</ele>
        <time>2015-10-19T10:15:52Z</time>
      </trkpt>
      <trkpt lat="45.9456" lon="2.98119">
        <ele>752</ele>
        <time>2015-10-19T10:17:52Z</time>
      </trkpt>
      <trkpt lat="45.94565" lon="2.98179">
        <ele>751</ele>
        <time>2015-10-19T10:19:52Z</time>
      </trkpt>
      <trkpt lat="45.94566" lon="2.98223">
        <ele>750</ele>
        <time>2015-10-19T10:21:52Z</time>
      </trkpt>
      <trkpt lat="45.9456" lon="2.98288">
        <ele>748</ele>
        <time>2015-10-19T10:23:52Z</time>
      </trkpt>
      <trkpt lat="45.94559" lon="2.98344">
        <ele>747</ele>
        <time>2015-10-19T10:25:52Z</time>
      </trkpt>
      <trkpt lat="45.94566" lon="2.98377">
        <ele>747</ele>
        <time>2015-10-19T10:27:52Z</time>
      </trkpt>
      <trkpt lat="45.94509" lon="2.98511">
        <ele>743</ele>
        <time>2015-10-19T10:29:52Z</time>
      </trkpt>
      <trkpt lat="45.94541" lon="2.98527">
        <ele>743</ele>
        <time>2015-10-19T10:31:52Z</time>
      </trkpt>
      <trkpt lat="45.94558" lon="2.98536">
        <ele>744</ele>
        <time>2015-10-19T10:33:52Z</time>
      </trkpt>
      <trkpt lat="45.94566" lon="2.98553">
        <ele>743</ele>
        <time>2015-10-19T10:35:52Z</time>
      </trkpt>
      <trkpt lat="45.9457" lon="2.98579">
        <ele>743</ele>
        <time>2015-10-19T10:37:52Z</time>
      </trkpt>
      <trkpt lat="45.94584" lon="2.98606">
        <ele>743</ele>
        <time>2015-10-19T10:39:52Z</time>
      </trkpt>
      <trkpt lat="45.94613" lon="2.98638">
        <ele>740</ele>
        <time>2015-10-19T10:41:52Z</time>
      </trkpt>
      <trkpt lat="45.9467" lon="2.98707">
        <ele>736</ele>
        <time>2015-10-19T10:43:52Z</time>
      </trkpt>
      <trkpt lat="45.94701" lon="2.98757">
        <ele>735</ele>
        <time>2015-10-19T10:45:52Z</time>
      </trkpt>
      <trkpt lat="45.94743" lon="2.98816">
        <ele>730</ele>
        <time>2015-10-19T10:47:52Z</time>
      </trkpt>
      <trkpt lat="45.94765" lon="2.98834">
        <ele>728</ele>
        <time>2015-10-19T10:49:52Z</time>
      </trkpt>
      <trkpt lat="45.94807" lon="2.9885">
        <ele>727</ele>
        <time>2015-10-19T10:51:52Z</time>
      </trkpt>
      <trkpt lat="45.94823" lon="2.98867">
        <ele>726</ele>
        <time>2015-10-19T10:53:52Z</time>
      </trkpt>
      <trkpt lat="45.94839" lon="2.98908">
        <ele>725</ele>
        <time>2015-10-19T10:55:52Z</time>
      </trkpt>
      <trkpt lat="45.94851" lon="2.98956">
        <ele>723</ele>
        <time>2015-10-19T10:57:52Z</time>
      </trkpt>
      <trkpt lat="45.94894" lon="2.98985">
        <ele>717</ele>
        <time>2015-10-19T10:59:52Z</time>
      </trkpt>
      <trkpt lat="45.94904" lon="2.98964">
        <ele>716</ele>
        <time>2015-10-19T11:01:52Z</time>
      </trkpt>
      <trkpt lat="45.94917" lon="2.98967">
        <ele>715</ele>
        <time>2015-10-19T11:03:52Z</time>
      </trkpt>
      <trkpt lat="45.94931" lon="2.98975">
        <ele>714</ele>
        <time>2015-10-19T11:05:52Z</time>
      </trkpt>
      <trkpt lat="45.94946" lon="2.98993">
        <ele>713</ele>
        <time>2015-10-19T11:07:52Z</time>
      </trkpt>
      <trkpt lat="45.94954" lon="2.9901">
        <ele>712</ele>
        <time>2015-10-19T11:09:52Z</time>
      </trkpt>
      <trkpt lat="45.94976" lon="2.99015">
        <ele>711</ele>
        <time>2015-10-19T11:11:52Z</time>
      </trkpt>
      <trkpt lat="45.94993" lon="2.99035">
        <ele>710</ele>
        <time>2015-10-19T11:13:52Z</time>
      </trkpt>
      <trkpt lat="45.95001" lon="2.99065">
        <ele>708</ele>
        <time>2015-10-19T11:15:52Z</time>
      </trkpt>
      <trkpt lat="45.95033" lon="2.9907">
        <ele>710</ele>
        <time>2015-10-19T11:17:52Z</time>
      </trkpt>
      <trkpt lat="45.9506" lon="2.99081">
        <ele>711</ele>
        <time>2015-10-19T11:19:52Z</time>
      </trkpt>
      <trkpt lat="45.95082" lon="2.99097">
        <ele>711</ele>
        <time>2015-10-19T11:21:52Z</time>
      </trkpt>
      <trkpt lat="45.95112" lon="2.99115">
        <ele>712</ele>
        <time>2015-10-19T11:23:52Z</time>
      </trkpt>
      <trkpt lat="45.95127" lon="2.99151">
        <ele>712</ele>
        <time>2015-10-19T11:25:52Z</time>
      </trkpt>
      <trkpt lat="45.95139" lon="2.99182">
        <ele>711</ele>
        <time>2015-10-19T11:27:52Z</time>
      </trkpt>
      <trkpt lat="45.9515" lon="2.99224">
        <ele>711</ele>
        <time>2015-10-19T11:29:52Z</time>
      </trkpt>
      <trkpt lat="45.95152" lon="2.99273">
        <ele>711</ele>
        <time>2015-10-19T11:31:52Z</time>
      </trkpt>
      <trkpt lat="45.95154" lon="2.99324">
        <ele>710</ele>
        <time>2015-10-19T11:33:52Z</time>
      </trkpt>
      <trkpt lat="45.95166" lon="2.99377">
        <ele>710</ele>
        <time>2015-10-19T11:35:52Z</time>
      </trkpt>
      <trkpt lat="45.95179" lon="2.99432">
        <ele>710</ele>
        <time>2015-10-19T11:37:52Z</time>
      </trkpt>
      <trkpt lat="45.95194" lon="2.99485">
        <ele>708</ele>
        <time>2015-10-19T11:39:52Z</time>
      </trkpt>
      <trkpt lat="45.95198" lon="2.99544">
        <ele>706</ele>
        <time>2015-10-19T11:41:52Z</time>
      </trkpt>
      <trkpt lat="45.95197" lon="2.99635">
        <ele>701</ele>
        <time>2015-10-19T11:43:52Z</time>
      </trkpt>
      <trkpt lat="45.95204" lon="2.99708">
        <ele>699</ele>
        <time>2015-10-19T11:45:52Z</time>
      </trkpt>
      <trkpt lat="45.95212" lon="2.99761">
        <ele>698</ele>
        <time>2015-10-19T11:47:52Z</time>
      </trkpt>
      <trkpt lat="45.95219" lon="2.99817">
        <ele>697</ele>
        <time>2015-10-19T11:49:52Z</time>
      </trkpt>
      <trkpt lat="45.95238" lon="2.99857">
        <ele>697</ele>
        <time>2015-10-19T11:51:52Z</time>
      </trkpt>
      <trkpt lat="45.9525" lon="2.99887">
        <ele>695</ele>
        <time>2015-10-19T11:53:52Z</time>
      </trkpt>
      <trkpt lat="45.95268" lon="2.99923">
        <ele>694</ele>
        <time>2015-10-19T11:55:52Z</time>
      </trkpt>
      <trkpt lat="45.95283" lon="2.99972">
        <ele>694</ele>
        <time>2015-10-19T11:57:52Z</time>
      </trkpt>
      <trkpt lat="45.95292" lon="3.00002">
        <ele>694</ele>
        <time>2015-10-19T11:59:52Z</time>
      </trkpt>
      <trkpt lat="45.95296" lon="3.00047">
        <ele>694</ele>
        <time>2015-10-19T12:01:52Z</time>
      </trkpt>
      <trkpt lat="45.95305" lon="3.00084">
        <ele>695</ele>
        <time>2015-10-19T12:03:52Z</time>
      </trkpt>
      <trkpt lat="45.95306" lon="3.00124">
        <ele>696</ele>
        <time>2015-10-19T12:05:52Z</time>
      </trkpt>
      <trkpt lat="45.95298" lon="3.00152">
        <ele>697</ele>
        <time>2015-10-19T12:07:52Z</time>
      </trkpt>
      <trkpt lat="45.95283" lon="3.00174">
        <ele>698</ele>
        <time>2015-10-19T12:09:52Z</time>
      </trkpt>
      <trkpt lat="45.95259" lon="3.00211">
        <ele>700</ele>
        <time>2015-10-19T12:11:52Z</time>
      </trkpt>
      <trkpt lat="45.95257" lon="3.00247">
        <ele>702</ele>
        <time>2015-10-19T12:13:52Z</time>
      </trkpt>
      <trkpt lat="45.95254" lon="3.00302">
        <ele>704</ele>
        <time>2015-10-19T12:15:52Z</time>
      </trkpt>
      <trkpt lat="45.95258" lon="3.00346">
        <ele>706</ele>
        <time>2015-10-19T12:17:52Z</time>
      </trkpt>
      <trkpt lat="45.95269" lon="3.00379">
        <ele>706</ele>
        <time>2015-10-19T12:19:52Z</time>
      </trkpt>
      <trkpt lat="45.95277" lon="3.00404">
        <ele>706</ele>
        <time>2015-10-19T12:21:52Z</time>
      </trkpt>
      <trkpt lat="45.95297" lon="3.0043">
        <ele>706</ele>
        <time>2015-10-19T12:23:52Z</time>
      </trkpt>
      <trkpt lat="45.95311" lon="3.00452">
        <ele>707</ele>
        <time>2015-10-19T12:25:52Z</time>
      </trkpt>
      <trkpt lat="45.95333" lon="3.00543">
        <ele>710</ele>
        <time>2015-10-19T12:27:52Z</time>
      </trkpt>
      <trkpt lat="45.95353" lon="3.00639">
        <ele>711</ele>
        <time>2015-10-19T12:29:52Z</time>
      </trkpt>
      <trkpt lat="45.95406" lon="3.00629">
        <ele>711</ele>
        <time>2015-10-19T12:31:52Z</time>
      </trkpt>
      <trkpt lat="45.95435" lon="3.00611">
        <ele>711</ele>
        <time>2015-10-19T12:33:52Z</time>
      </trkpt>
      <trkpt lat="45.95475" lon="3.00596">
        <ele>711</ele>
        <time>2015-10-19T12:35:52Z</time>
      </trkpt>
      <trkpt lat="45.95527" lon="3.00575">
        <ele>711</ele>
        <time>2015-10-19T12:37:52Z</time>
      </trkpt>
      <trkpt lat="45.95553" lon="3.00568">
        <ele>710</ele>
        <time>2015-10-19T12:39:52Z</time>
      </trkpt>
      <trkpt lat="45.95593" lon="3.00557">
        <ele>710</ele>
        <time>2015-10-19T12:41:52Z</time>
      </trkpt>
      <trkpt lat="45.95626" lon="3.00564">
        <ele>711</ele>
        <time>2015-10-19T12:43:52Z</time>
      </trkpt>
      <trkpt lat="45.95653" lon="3.00572">
        <ele>712</ele>
        <time>2015-10-19T12:45:52Z</time>
      </trkpt>
      <trkpt lat="45.95673" lon="3.00577">
        <ele>712</ele>
        <time>2015-10-19T12:47:52Z</time>
      </trkpt>
      <trkpt lat="45.95706" lon="3.0055">
        <ele>712</ele>
        <time>2015-10-19T12:49:52Z</time>
      </trkpt>
      <trkpt lat="45.95731" lon="3.00527">
        <ele>713</ele>
        <time>2015-10-19T12:51:52Z</time>
      </trkpt>
      <trkpt lat="45.95769" lon="3.00521">
        <ele>714</ele>
        <time>2015-10-19T12:53:52Z</time>
      </trkpt>
      <trkpt lat="45.95804" lon="3.00511">
        <ele>713</ele>
        <time>2015-10-19T12:55:52Z</time>
      </trkpt>
      <trkpt lat="45.95841" lon="3.00493">
        <ele>713</ele>
        <time>2015-10-19T12:57:52Z</time>
      </trkpt>
      <trkpt lat="45.95881" lon="3.00473">
        <ele>714</ele>
        <time>2015-10-19T12:59:52Z</time>
      </trkpt>
      <trkpt lat="45.95874" lon="3.00417">
        <ele>716</ele>
        <time>2015-10-19T13:01:52Z</time>
      </trkpt>
      <trkpt lat="45.95871" lon="3.00247">
        <ele>721</ele>
        <time>2015-10-19T13:03:52Z</time>
      </trkpt>
      <trkpt lat="45.95864" lon="3.00091">
        <ele>724</ele>
        <time>2015-10-19T13:05:52Z</time>
      </trkpt>
      <trkpt lat="45.95857" lon="2.99988">
        <ele>721</ele>
        <time>2015-10-19T13:07:52Z</time>
      </trkpt>
      <trkpt lat="45.95918" lon="2.99973">
        <ele>725</ele>
        <time>2015-10-19T13:09:52Z</time>
      </trkpt>
      <trkpt lat="45.95928" lon="2.99965">
        <ele>725</ele>
        <time>2015-10-19T13:11:52Z</time>
      </trkpt>
      <trkpt lat="45.95922" lon="2.99761">
        <ele>721</ele>
        <time>2015-10-19T13:13:52Z</time>
      </trkpt>
      <trkpt lat="45.9592" lon="2.99712">
        <ele>721</ele>
        <time>2015-10-19T13:15:52Z</time>
      </trkpt>
      <trkpt lat="45.95924" lon="2.99662">
        <ele>721</ele>
        <time>2015-10-19T13:17:52Z</time>
      </trkpt>
      <trkpt lat="45.95933" lon="2.99625">
        <ele>724</ele>
        <time>2015-10-19T13:19:52Z</time>
      </trkpt>
      <trkpt lat="45.95929" lon="2.99599">
        <ele>726</ele>
        <time>2015-10-19T13:21:52Z</time>
      </trkpt>
      <trkpt lat="45.95909" lon="2.99556">
        <ele>729</ele>
        <time>2015-10-19T13:23:52Z</time>
      </trkpt>
      <trkpt lat="45.959" lon="2.99531">
        <ele>731</ele>
        <time>2015-10-19T13:25:52Z</time>
      </trkpt>
      <trkpt lat="45.95876" lon="2.99465">
        <ele>734</ele>
        <time>2015-10-19T13:27:52Z</time>
      </trkpt>
      <trkpt lat="45.95841" lon="2.99385">
        <ele>737</ele>
        <time>2015-10-19T13:29:52Z</time>
      </trkpt>
      <trkpt lat="45.95819" lon="2.99305">
        <ele>740</ele>
        <time>2015-10-19T13:31:52Z</time>
      </trkpt>
      <trkpt lat="45.95817" lon="2.99242">
        <ele>741</ele>
        <time>2015-10-19T13:33:52Z</time>
      </trkpt>
      <trkpt lat="45.95825" lon="2.99196">
        <ele>743</ele>
        <time>2015-10-19T13:35:52Z</time>
      </trkpt>
      <trkpt lat="45.95833" lon="2.99173">
        <ele>744</ele>
        <time>2015-10-19T13:37:52Z</time>
      </trkpt>
      <trkpt lat="45.95832" lon="2.99115">
        <ele>745</ele>
        <time>2015-10-19T13:39:52Z</time>
      </trkpt>
      <trkpt lat="45.95843" lon="2.99104">
        <ele>746</ele>
        <time>2015-10-19T13:41:52Z</time>
      </trkpt>
      <trkpt lat="45.95885" lon="2.99123">
        <ele>745</ele>
        <time>2015-10-19T13:43:52Z</time>
      </trkpt>
      <trkpt lat="45.95918" lon="2.99142">
        <ele>745</ele>
        <time>2015-10-19T13:45:52Z</time>
      </trkpt>
      <trkpt lat="45.95974" lon="2.9917">
        <ele>744</ele>
        <time>2015-10-19T13:47:52Z</time>
      </trkpt>
      <trkpt lat="45.96031" lon="2.99179">
        <ele>742</ele>
        <time>2015-10-19T13:49:52Z</time>
      </trkpt>
      <trkpt lat="45.96076" lon="2.99193">
        <ele>741</ele>
        <time>2015-10-19T13:51:52Z</time>
      </trkpt>
      <trkpt lat="45.96111" lon="2.99201">
        <ele>741</ele>
        <time>2015-10-19T13:53:52Z</time>
      </trkpt>
      <trkpt lat="45.96151" lon="2.99227">
        <ele>739</ele>
        <time>2015-10-19T13:55:52Z</time>
      </trkpt>
      <trkpt lat="45.96256" lon="2.99282">
        <ele>737</ele>
        <time>2015-10-19T13:57:52Z</time>
      </trkpt>
      <trkpt lat="45.96367" lon="2.99336">
        <ele>735</ele>
        <time>2015-10-19T13:59:52Z</time>
      </trkpt>
      <trkpt lat="45.96415" lon="2.9935">
        <ele>735</ele>
        <time>2015-10-19T14:01:52Z</time>
      </trkpt>
      <trkpt lat="45.96463" lon="2.99303">
        <ele>732</ele>
        <time>2015-10-19T14:03:52Z</time>
      </trkpt>
      <trkpt lat="45.96478" lon="2.99279">
        <ele>730</ele>
        <time>2015-10-19T14:05:52Z</time>
      </trkpt>
      <trkpt lat="45.96489" lon="2.99246">
        <ele>727</ele>
        <time>2015-10-19T14:07:52Z</time>
      </trkpt>
      <trkpt lat="45.96509" lon="2.99181">
        <ele>722</ele>
        <time>2015-10-19T14:09:52Z</time>
      </trkpt>
      <trkpt lat="45.96521" lon="2.99105">
        <ele>714</ele>
        <time>2015-10-19T14:11:52Z</time>
      </trkpt>
      <trkpt lat="45.96535" lon="2.99029">
        <ele>707</ele>
        <time>2015-10-19T14:13:52Z</time>
      </trkpt>
      <trkpt lat="45.96544" lon="2.98952">
        <ele>701</ele>
        <time>2015-10-19T14:15:52Z</time>
      </trkpt>
      <trkpt lat="45.96542" lon="2.98907">
        <ele>699</ele>
        <time>2015-10-19T14:17:52Z</time>
      </trkpt>
      <trkpt lat="45.9653" lon="2.98873">
        <ele>698</ele>
        <time>2015-10-19T14:19:52Z</time>
      </trkpt>
      <trkpt lat="45.96517" lon="2.98844">
        <ele>697</ele>
        <time>2015-10-19T14:21:52Z</time>
      </trkpt>
      <trkpt lat="45.96511" lon="2.98829">
        <ele>697</ele>
        <time>2015-10-19T14:23:52Z</time>
      </trkpt>
      <trkpt lat="45.96517" lon="2.98795">
        <ele>695</ele>
        <time>2015-10-19T14:25:52Z</time>
      </trkpt>
      <trkpt lat="45.96537" lon="2.98783">
        <ele>695</ele>
        <time>2015-10-19T14:27:52Z</time>
      </trkpt>
      <trkpt lat="45.96586" lon="2.98751">
        <ele>693</ele>
        <time>2015-10-19T14:29:52Z</time>
      </trkpt>
      <trkpt lat="45.96629" lon="2.98717">
        <ele>691</ele>
        <time>2015-10-19T14:31:52Z</time>
      </trkpt>
      <trkpt lat="45.96674" lon="2.98694">
        <ele>689</ele>
        <time>2015-10-19T14:33:52Z</time>
      </trkpt>
      <trkpt lat="45.96709" lon="2.98615">
        <ele>686</ele>
        <time>2015-10-19T14:35:52Z</time>
      </trkpt>
      <trkpt lat="45.96766" lon="2.98487">
        <ele>685</ele>
        <time>2015-10-19T14:37:52Z</time>
      </trkpt>
      <trkpt lat="45.96815" lon="2.98378">
        <ele>685</ele>
        <time>2015-10-19T14:39:52Z</time>
      </trkpt>
      <trkpt lat="45.96843" lon="2.98352">
        <ele>685</ele>
        <time>2015-10-19T14:41:52Z</time>
      </trkpt>
      <trkpt lat="45.96863" lon="2.98343">
        <ele>684</ele>
        <time>2015-10-19T14:43:52Z</time>
      </trkpt>
      <trkpt lat="45.96894" lon="2.9833">
        <ele>682</ele>
        <time>2015-10-19T14:45:52Z</time>
      </trkpt>
      <trkpt lat="45.96926" lon="2.98328">
        <ele>681</ele>
        <time>2015-10-19T14:47:52Z</time>
      </trkpt>
      <trkpt lat="45.96929" lon="2.9831">
        <ele>681</ele>
        <time>2015-10-19T14:49:52Z</time>
      </trkpt>
      <trkpt lat="45.9691" lon="2.98256">
        <ele>683</ele>
        <time>2015-10-19T14:51:52Z</time>
      </trkpt>
      <trkpt lat="45.96891" lon="2.98201">
        <ele>681</ele>
        <time>2015-10-19T14:53:52Z</time>
      </trkpt>
      <trkpt lat="45.96856" lon="2.98182">
        <ele>681</ele>
        <time>2015-10-19T14:55:52Z</time>
      </trkpt>
      <trkpt lat="45.96829" lon="2.98168">
        <ele>681</ele>
        <time>2015-10-19T14:57:52Z</time>
      </trkpt>
      <trkpt lat="45.96771" lon="2.98157">
        <ele>683</ele>
        <time>2015-10-19T14:59:52Z</time>
      </trkpt>
      <trkpt lat="45.96725" lon="2.98116">
        <ele>683</ele>
        <time>2015-10-19T15:01:52Z</time>
      </trkpt>
      <trkpt lat="45.96741" lon="2.98109">
        <ele>682</ele>
        <time>2015-10-19T15:03:52Z</time>
      </trkpt>
      <trkpt lat="45.96752" lon="2.98098">
        <ele>681</ele>
        <time>2015-10-19T15:05:52Z</time>
      </trkpt>
      <trkpt lat="45.96781" lon="2.98049">
        <ele>679</ele>
        <time>2015-10-19T15:07:52Z</time>
      </trkpt>
      <trkpt lat="45.96904" lon="2.97916">
        <ele>680</ele>
        <time>2015-10-19T15:09:52Z</time>
      </trkpt>
      <trkpt lat="45.96946" lon="2.97896">
        <ele>680</ele>
        <time>2015-10-19T15:11:52Z</time>
      </trkpt>
      <trkpt lat="45.96945" lon="2.97866">
        <ele>679</ele>
        <time>2015-10-19T15:13:52Z</time>
      </trkpt>
      <trkpt lat="45.9696" lon="2.97853">
        <ele>679</ele>
        <time>2015-10-19T15:15:52Z</time>
      </trkpt>
      <trkpt lat="45.96988" lon="2.97867">
        <ele>680</ele>
        <time>2015-10-19T15:17:52Z</time>
      </trkpt>
      <trkpt lat="45.97036" lon="2.97823">
        <ele>679</ele>
        <time>2015-10-19T15:19:52Z</time>
      </trkpt>
      <trkpt lat="45.97064" lon="2.97794">
        <ele>678</ele>
        <time>2015-10-19T15:21:52Z</time>
      </trkpt>
      <trkpt lat="45.97104" lon="2.97772">
        <ele>676</ele>
        <time>2015-10-19T15:23:52Z</time>
      </trkpt>
      <trkpt lat="45.97127" lon="2.97746">
        <ele>674</ele>
        <time>2015-10-19T15:25:52Z</time>
      </trkpt>
      <trkpt lat="45.97153" lon="2.97715">
        <ele>673</ele>
        <time>2015-10-19T15:27:52Z</time>
      </trkpt>
      <trkpt lat="45.9718" lon="2.97712">
        <ele>671</ele>
        <time>2015-10-19T15:29:52Z</time>
      </trkpt>
      <trkpt lat="45.97226" lon="2.97677">
        <ele>668</ele>
        <time>2015-10-19T15:31:52Z</time>
      </trkpt>
      <trkpt lat="45.97254" lon="2.97653">
        <ele>667</ele>
        <time>2015-10-19T15:33:52Z</time>
      </trkpt>
      <trkpt lat="45.97301" lon="2.97614">
        <ele>664</ele>
        <time>2015-10-19T15:35:52Z</time>
      </trkpt>
      <trkpt lat="45.97373" lon="2.97502">
        <ele>654</ele>
        <time>2015-10-19T15:37:52Z</time>
      </trkpt>
      <trkpt lat="45.97413" lon="2.97432">
        <ele>646</ele>
        <time>2015-10-19T15:39:52Z</time>
      </trkpt>
      <trkpt lat="45.97416" lon="2.97404">
        <ele>644</ele>
        <time>2015-10-19T15:41:52Z</time>
      </trkpt>
      <trkpt lat="45.97445" lon="2.97267">
        <ele>636</ele>
        <time>2015-10-19T15:43:52Z</time>
      </trkpt>
      <trkpt lat="45.9741" lon="2.9722">
        <ele>635</ele>
        <time>2015-10-19T15:45:52Z</time>
      </trkpt>
      <trkpt lat="45.97398" lon="2.97157">
        <ele>631</ele>
        <time>2015-10-19T15:47:52Z</time>
      </trkpt>
      <trkpt lat="45.97384" lon="2.97138">
        <ele>630</ele>
        <time>2015-10-19T15:49:52Z</time>
      </trkpt>
      <trkpt lat="45.97398" lon="2.9708">
        <ele>626</ele>
        <time>2015-10-19T15:51:52Z</time>
      </trkpt>
      <trkpt lat="45.97401" lon="2.97045">
        <ele>623</ele>
        <time>2015-10-19T15:53:52Z</time>
      </trkpt>
      <trkpt lat="45.97403" lon="2.9702">
        <ele>622</ele>
        <time>2015-10-19T15:55:52Z</time>
      </trkpt>
      <trkpt lat="45.97384" lon="2.96969">
        <ele>621</ele>
        <time>2015-10-19T15:57:52Z</time>
      </trkpt>
      <trkpt lat="45.9737" lon="2.96942">
        <ele>622</ele>
        <time>2015-10-19T15:59:52Z</time>
      </trkpt>
      <trkpt lat="45.97386" lon="2.96834">
        <ele>620</ele>
        <time>2015-10-19T16:01:52Z</time>
      </trkpt>
      <trkpt lat="45.97396" lon="2.96784">
        <ele>622</ele>
        <time>2015-10-19T16:03:52Z</time>
      </trkpt>
      <trkpt lat="45.97392" lon="2.96726">
        <ele>626</ele>
        <time>2015-10-19T16:05:52Z</time>
      </trkpt>
      <trkpt lat="45.9732" lon="2.96709">
        <ele>634</ele>
        <time>2015-10-19T16:07:52Z</time>
      </trkpt>
      <trkpt lat="45.97253" lon="2.96666">
        <ele>640</ele>
        <time>2015-10-19T16:09:52Z</time>
      </trkpt>
      <trkpt lat="45.97156" lon="2.96595">
        <ele>647</ele>
        <time>2015-10-19T16:11:52Z</time>
      </trkpt>
      <trkpt lat="45.97115" lon="2.96562">
        <ele>655</ele>
        <time>2015-10-19T16:13:52Z</time>
      </trkpt>
      <trkpt lat="45.97076" lon="2.96562">
        <ele>658</ele>
        <time>2015-10-19T16:15:52Z</time>
      </trkpt>
      <trkpt lat="45.97035" lon="2.96557">
        <ele>659</ele>
        <time>2015-10-19T16:17:52Z</time>
      </trkpt>
      <trkpt lat="45.96993" lon="2.96554">
        <ele>660</ele>
        <time>2015-10-19T16:19:52Z</time>
      </trkpt>
      <trkpt lat="45.97" lon="2.96536">
        <ele>662</ele>
        <time>2015-10-19T16:21:52Z</time>
      </trkpt>
      <trkpt lat="45.9703" lon="2.9652">
        <ele>663</ele>
        <time>2015-10-19T16:23:52Z</time>
      </trkpt>
      <trkpt lat="45.97052" lon="2.96494">
        <ele>666</ele>
        <time>2015-10-19T16:25:52Z</time>
      </trkpt>
      <trkpt lat="45.97061" lon="2.96464">
        <ele>667</ele>
        <time>2015-10-19T16:27:52Z</time>
      </trkpt>
      <trkpt lat="45.97114" lon="2.96388">
        <ele>663</ele>
        <time>2015-10-19T16:29:52Z</time>
      </trkpt>
      <trkpt lat="45.97144" lon="2.96374">
        <ele>659</ele>
        <time>2015-10-19T16:31:52Z</time>
      </trkpt>
      <trkpt lat="45.97214" lon="2.96301">
        <ele>656</ele>
        <time>2015-10-19T16:33:52Z</time>
      </trkpt>
      <trkpt lat="45.97218" lon="2.9627">
        <ele>656</ele>
        <time>2015-10-19T16:35:52Z</time>
      </trkpt>
      <trkpt lat="45.97231" lon="2.96205">
        <ele>658</ele>
        <time>2015-10-19T16:37:52Z</time>
      </trkpt>
      <trkpt lat="45.97229" lon="2.96159">
        <ele>659</ele>
        <time>2015-10-19T16:39:52Z</time>
      </trkpt>
      <trkpt lat="45.97223" lon="2.96117">
        <ele>659</ele>
        <time>2015-10-19T16:41:52Z</time>
      </trkpt>
      <trkpt lat="45.9721" lon="2.96089">
        <ele>660</ele>
        <time>2015-10-19T16:43:52Z</time>
      </trkpt>
      <trkpt lat="45.97198" lon="2.9605">
        <ele>660</ele>
        <time>2015-10-19T16:45:52Z</time>
      </trkpt>
      <trkpt lat="45.97183" lon="2.96002">
        <ele>661</ele>
        <time>2015-10-19T16:47:52Z</time>
      </trkpt>
      <trkpt lat="45.97184" lon="2.95985">
        <ele>661</ele>
        <time>2015-10-19T16:49:52Z</time>
      </trkpt>
      <trkpt lat="45.97139" lon="2.96016">
        <ele>663</ele>
        <time>2015-10-19T16:51:52Z</time>
      </trkpt>
      <trkpt lat="45.97122" lon="2.95989">
        <ele>663</ele>
        <time>2015-10-19T16:53:52Z</time>
      </trkpt>
      <trkpt lat="45.97102" lon="2.9595">
        <ele>663</ele>
        <time>2015-10-19T16:55:52Z</time>
      </trkpt>
      <trkpt lat="45.9707" lon="2.95885">
        <ele>664</ele>
        <time>2015-10-19T16:57:52Z</time>
      </trkpt>
      <trkpt lat="45.97047" lon="2.95895">
        <ele>664</ele>
        <time>2015-10-19T16:59:52Z</time>
      </trkpt>
      <trkpt lat="45.9701" lon="2.95897">
        <ele>664</ele>
        <time>2015-10-19T17:01:52Z</time>
      </trkpt>
      <trkpt lat="45.9699" lon="2.95896">
        <ele>665</ele>
        <time>2015-10-19T17:03:52Z</time>
      </trkpt>
      <trkpt lat="45.96983" lon="2.95853">
        <ele>664</ele>
        <time>2015-10-19T17:05:52Z</time>
      </trkpt>
      <trkpt lat="45.96975" lon="2.95808">
        <ele>662</ele>
        <time>2015-10-19T17:07:52Z</time>
      </trkpt>
      <trkpt lat="45.96968" lon="2.95785">
        <ele>661</ele>
        <time>2015-10-19T17:09:52Z</time>
      </trkpt>
      <trkpt lat="45.96955" lon="2.95768">
        <ele>660</ele>
        <time>2015-10-19T17:11:52Z</time>
      </trkpt>
      <trkpt lat="45.96911" lon="2.95757">
        <ele>659</ele>
        <time>2015-10-19T17:13:52Z</time>
      </trkpt>
      <trkpt lat="45.96886" lon="2.95743">
        <ele>659</ele>
        <time>2015-10-19T17:15:52Z</time>
      </trkpt>
      <trkpt lat="45.96869" lon="2.95725">
        <ele>658</ele>
        <time>2015-10-19T17:17:52Z</time>
      </trkpt>
      <trkpt lat="45.96854" lon="2.95706">
        <ele>657</ele>
        <time>2015-10-19T17:19:52Z</time>
      </trkpt>
      <trkpt lat="45.96844" lon="2.95663">
        <ele>653</ele>
        <time>2015-10-19T17:21:52Z</time>
      </trkpt>
      <trkpt lat="45.96841" lon="2.95621">
        <ele>651</ele>
        <time>2015-10-19T17:23:52Z</time>
      </trkpt>
      <trkpt lat="45.96869" lon="2.95586">
        <ele>651</ele>
        <time>2015-10-19T17:25:52Z</time>
      </trkpt>
      <trkpt lat="45.96897" lon="2.9555">
        <ele>650</ele>
        <time>2015-10-19T17:27:52Z</time>
      </trkpt>
      <trkpt lat="45.96923" lon="2.95527">
        <ele>650</ele>
        <time>2015-10-19T17:29:52Z</time>
      </trkpt>
      <trkpt lat="45.96955" lon="2.95493">
        <ele>648</ele>
        <time>2015-10-19T17:31:52Z</time>
      </trkpt>
      <trkpt lat="45.96977" lon="2.95453">
        <ele>647</ele>
        <time>2015-10-19T17:33:52Z</time>
      </trkpt>
      <trkpt lat="45.96988" lon="2.95428">
        <ele>647</ele>
        <time>2015-10-19T17:35:52Z</time>
      </trkpt>
      <trkpt lat="45.96985" lon="2.95396">
        <ele>647</ele>
        <time>2015-10-19T17:37:52Z</time>
      </trkpt>
      <trkpt lat="45.96978" lon="2.95373">
        <ele>646</ele>
        <time>2015-10-19T17:39:52Z</time>
      </trkpt>
      <trkpt lat="45.96963" lon="2.95356">
        <ele>646</ele>
        <time>2015-10-19T17:41:52Z</time>
      </trkpt>
      <trkpt lat="45.96946" lon="2.95343">
        <ele>646</ele>
        <time>2015-10-19T17:43:52Z</time>
      </trkpt>
      <trkpt lat="45.96903" lon="2.95321">
        <ele>647</ele>
        <time>2015-10-19T17:45:52Z</time>
      </trkpt>
      <trkpt lat="45.96891" lon="2.95307">
        <ele>646</ele>
        <time>2015-10-19T17:47:52Z</time>
      </trkpt>
      <trkpt lat="45.96878" lon="2.95285">
        <ele>646</ele>
        <time>2015-10-19T17:49:52Z</time>
      </trkpt>
      <trkpt lat="45.96867" lon="2.95256">
        <ele>645</ele>
        <time>2015-10-19T17:51:52Z</time>
      </trkpt>
      <trkpt lat="45.96861" lon="2.95215">
        <ele>644</ele>
        <time>2015-10-19T17:53:52Z</time>
      </trkpt>
      <trkpt lat="45.96856" lon="2.95189">
        <ele>644</ele>
        <time>2015-10-19T17:55:52Z</time>
      </trkpt>
      <trkpt lat="45.96854" lon="2.95172">
        <ele>643</ele>
        <time>2015-10-19T17:57:52Z</time>
      </trkpt>
      <trkpt lat="45.96915" lon="2.95099">
        <ele>638</ele>
        <time>2015-10-19T17:59:52Z</time>
      </trkpt>
      <trkpt lat="45.96938" lon="2.95056">
        <ele>637</ele>
        <time>2015-10-19T18:01:52Z</time>
      </trkpt>
      <trkpt lat="45.96957" lon="2.95032">
        <ele>637</ele>
        <time>2015-10-19T18:03:52Z</time>
      </trkpt>
      <trkpt lat="45.96973" lon="2.95017">
        <ele>637</ele>
        <time>2015-10-19T18:05:52Z</time>
      </trkpt>
      <trkpt lat="45.96998" lon="2.94986">
        <ele>636</ele>
        <time>2015-10-19T18:07:52Z</time>
      </trkpt>
      <trkpt lat="45.97008" lon="2.94967">
        <ele>635</ele>
        <time>2015-10-19T18:09:52Z</time>
      </trkpt>
      <trkpt lat="45.97023" lon="2.94909">
        <ele>633</ele>
        <time>2015-10-19T18:11:52Z</time>
      </trkpt>
      <trkpt lat="45.97029" lon="2.94876">
        <ele>631</ele>
        <time>2015-10-19T18:13:52Z</time>
      </trkpt>
      <trkpt lat="45.97041" lon="2.94857">
        <ele>630</ele>
        <time>2015-10-19T18:15:52Z</time>
      </trkpt>
      <trkpt lat="45.97058" lon="2.94837">
        <ele>628</ele>
        <time>2015-10-19T18:17:52Z</time>
      </trkpt>
      <trkpt lat="45.97072" lon="2.94809">
        <ele>625</ele>
        <time>2015-10-19T18:19:52Z</time>
      </trkpt>
      <trkpt lat="45.97084" lon="2.94785">
        <ele>623</ele>
        <time>2015-10-19T18:21:52Z</time>
      </trkpt>
      <trkpt lat="45.97092" lon="2.94773">
        <ele>621</ele>
        <time>2015-10-19T18:23:52Z</time>
      </trkpt>
      <trkpt lat="45.97105" lon="2.94758">
        <ele>620</ele>
        <time>2015-10-19T18:25:52Z</time>
      </trkpt>
      <trkpt lat="45.9712" lon="2.94738">
        <ele>618</ele>
        <time>2015-10-19T18:27:52Z</time>
      </trkpt>
      <trkpt lat="45.97135" lon="2.94695">
        <ele>616</ele>
        <time>2015-10-19T18:29:52Z</time>
      </trkpt>
      <trkpt lat="45.97146" lon="2.94669">
        <ele>615</ele>
        <time>2015-10-19T18:31:52Z</time>
      </trkpt>
      <trkpt lat="45.97163" lon="2.94621">
        <ele>611</ele>
        <time>2015-10-19T18:33:52Z</time>
      </trkpt>
      <trkpt lat="45.97172" lon="2.94605">
        <ele>610</ele>
        <time>2015-10-19T18:35:52Z</time>
      </trkpt>
      <trkpt lat="45.97152" lon="2.94607">
        <ele>610</ele>
        <time>2015-10-19T18:37:52Z</time>
      </trkpt>
      <trkpt lat="45.97125" lon="2.94617">
        <ele>610</ele>
        <time>2015-10-19T18:39:52Z</time>
      </trkpt>
      <trkpt lat="45.97105" lon="2.94626">
        <ele>610</ele>
        <time>2015-10-19T18:41:52Z</time>
      </trkpt>
      <trkpt lat="45.97097" lon="2.94614">
        <ele>609</ele>
        <time>2015-10-19T18:43:52Z</time>
      </trkpt>
      <trkpt lat="45.9709" lon="2.94587">
        <ele>607</ele>
        <time>2015-10-19T18:45:52Z</time>
      </trkpt>
      <trkpt lat="45.97084" lon="2.94565">
        <ele>606</ele>
        <time>2015-10-19T18:47:52Z</time>
      </trkpt>
      <trkpt lat="45.97071" lon="2.94545">
        <ele>606</ele>
        <time>2015-10-19T18:49:52Z</time>
      </trkpt>
      <trkpt lat="45.9706" lon="2.94525">
        <ele>605</ele>
        <time>2015-10-19T18:51:52Z</time>
      </trkpt>
      <trkpt lat="45.97054" lon="2.94473">
        <ele>603</ele>
        <time>2015-10-19T18:53:52Z</time>
      </trkpt>
      <trkpt lat="45.97053" lon="2.94444">
        <ele>603</ele>
        <time>2015-10-19T18:55:52Z</time>
      </trkpt>
      <trkpt lat="45.97052" lon="2.94426">
        <ele>602</ele>
        <time>2015-10-19T18:57:52Z</time>
      </trkpt>
      <trkpt lat="45.97043" lon="2.94372">
        <ele>601</ele>
        <time>2015-10-19T18:59:52Z</time>
      </trkpt>
      <trkpt lat="45.97038" lon="2.94353">
        <ele>600</ele>
        <time>2015-10-19T19:01:52Z</time>
      </trkpt>
      <trkpt lat="45.9704" lon="2.94287">
        <ele>597</ele>
        <time>2015-10-19T19:03:52Z</time>
      </trkpt>
      <trkpt lat="45.97029" lon="2.94263">
        <ele>596</ele>
        <time>2015-10-19T19:05:52Z</time>
      </trkpt>
      <trkpt lat="45.97027" lon="2.9423">
        <ele>594</ele>
        <time>2015-10-19T19:07:52Z</time>
      </trkpt>
      <trkpt lat="45.97014" lon="2.94216">
        <ele>594</ele>
        <time>2015-10-19T19:09:52Z</time>
      </trkpt>
      <trkpt lat="45.97002" lon="2.94198">
        <ele>593</ele>
        <time>2015-10-19T19:11:52Z</time>
      </trkpt>
      <trkpt lat="45.96991" lon="2.94187">
        <ele>594</ele>
        <time>2015-10-19T19:13:52Z</time>
      </trkpt>
      <trkpt lat="45.96978" lon="2.94219">
        <ele>596</ele>
        <time>2015-10-19T19:15:52Z</time>
      </trkpt>
      <trkpt lat="45.96964" lon="2.94232">
        <ele>598</ele>
        <time>2015-10-19T19:17:52Z</time>
      </trkpt>
      <trkpt lat="45.96946" lon="2.94206">
        <ele>598</ele>
        <time>2015-10-19T19:19:52Z</time>
      </trkpt>
      <trkpt lat="45.96928" lon="2.94174">
        <ele>598</ele>
        <time>2015-10-19T19:21:52Z</time>
      </trkpt>
      <trkpt lat="45.96905" lon="2.94153">
        <ele>598</ele>
        <time>2015-10-19T19:23:52Z</time>
      </trkpt>
      <trkpt lat="45.96835" lon="2.94122">
        <ele>599</ele>
        <time>2015-10-19T19:25:52Z</time>
      </trkpt>
      <trkpt lat="45.96791" lon="2.94104">
        <ele>599</ele>
        <time>2015-10-19T19:27:52Z</time>
      </trkpt>
      <trkpt lat="45.96739" lon="2.9407">
        <ele>598</ele>
        <time>2015-10-19T19:29:52Z</time>
      </trkpt>
      <trkpt lat="45.967" lon="2.94063">
        <ele>598</ele>
        <time>2015-10-19T19:31:52Z</time>
      </trkpt>
      <trkpt lat="45.96664" lon="2.94047">
        <ele>598</ele>
        <time>2015-10-19T19:33:52Z</time>
      </trkpt>
      <trkpt lat="45.96641" lon="2.94031">
        <ele>599</ele>
        <time>2015-10-19T19:35:52Z</time>
      </trkpt>
      <trkpt lat="45.9663" lon="2.9402">
        <ele>599</ele>
        <time>2015-10-19T19:37:52Z</time>
      </trkpt>
      <trkpt lat="45.96616" lon="2.9401">
        <ele>600</ele>
        <time>2015-10-19T19:39:52Z</time>
      </trkpt>
      <trkpt lat="45.96581" lon="2.93981">
        <ele>601</ele>
        <time>2015-10-19T19:41:52Z</time>
      </trkpt>
      <trkpt lat="45.9654" lon="2.93996">
        <ele>602</ele>
        <time>2015-10-19T19:43:52Z</time>
      </trkpt>
      <trkpt lat="45.96481" lon="2.94018">
        <ele>604</ele>
        <time>2015-10-19T19:45:52Z</time>
      </trkpt>
      <trkpt lat="45.96429" lon="2.94041">
        <ele>606</ele>
        <time>2015-10-19T19:47:52Z</time>
      </trkpt>
      <trkpt lat="45.96379" lon="2.94062">
        <ele>608</ele>
        <time>2015-10-19T19:49:52Z</time>
      </trkpt>
      <trkpt lat="45.96313" lon="2.94068">
        <ele>613</ele>
        <time>2015-10-19T19:51:52Z</time>
      </trkpt>
      <trkpt lat="45.96288" lon="2.94074">
        <ele>614</ele>
        <time>2015-10-19T19:53:52Z</time>
      </trkpt>
      <trkpt lat="45.96244" lon="2.94107">
        <ele>618</ele>
        <time>2015-10-19T19:55:52Z</time>
      </trkpt>
      <trkpt lat="45.96216" lon="2.94124">
        <ele>621</ele>
        <time>2015-10-19T19:57:52Z</time>
      </trkpt>
      <trkpt lat="45.96208" lon="2.94116">
        <ele>621</ele>
        <time>2015-10-19T19:59:52Z</time>
      </trkpt>
      <trkpt lat="45.9619" lon="2.94123">
        <ele>623</ele>
        <time>2015-10-19T20:01:52Z</time>
      </trkpt>
      <trkpt lat="45.96164" lon="2.94149">
        <ele>626</ele>
        <time>2015-10-19T20:03:52Z</time>
      </trkpt>
      <trkpt lat="45.9614" lon="2.94175">
        <ele>628</ele>
        <time>2015-10-19T20:05:52Z</time>
      </trkpt>
      <trkpt lat="45.9613" lon="2.94183">
        <ele>629</ele>
        <time>2015-10-19T20:07:52Z</time>
      </trkpt>
      <trkpt lat="45.96123" lon="2.94153">
        <ele>629</ele>
        <time>2015-10-19T20:09:52Z</time>
      </trkpt>
    </trkseg>
  </trk>
  <trk>
    <name><![CDATA[--Pulvérières-- OR-5380681:ser-jb08-vtt-b]]></name>
    <trkseg>
      <trkpt lat="45.8866" lon="2.91381">
        <ele>859</ele>
        <time>2015-10-20T12:48:49Z</time>
      </trkpt>
      <trkpt lat="45.88653" lon="2.91358">
        <ele>859</ele>
        <time>2015-10-20T12:50:49Z</time>
      </trkpt>
      <trkpt lat="45.88665" lon="2.91255">
        <ele>859</ele>
        <time>2015-10-20T12:52:49Z</time>
      </trkpt>
      <trkpt lat="45.88682" lon="2.91249">
        <ele>859</ele>
        <time>2015-10-20T12:54:49Z</time>
      </trkpt>
      <trkpt lat="45.88698" lon="2.91255">
        <ele>858</ele>
        <time>2015-10-20T12:56:49Z</time>
      </trkpt>
      <trkpt lat="45.88706" lon="2.91228">
        <ele>858</ele>
        <time>2015-10-20T12:58:49Z</time>
      </trkpt>
      <trkpt lat="45.88753" lon="2.91192">
        <ele>857</ele>
        <time>2015-10-20T13:00:49Z</time>
      </trkpt>
      <trkpt lat="45.88791" lon="2.91173">
        <ele>856</ele>
        <time>2015-10-20T13:02:49Z</time>
      </trkpt>
      <trkpt lat="45.888" lon="2.91188">
        <ele>855</ele>
        <time>2015-10-20T13:04:49Z</time>
      </trkpt>
      <trkpt lat="45.88826" lon="2.91271">
        <ele>855</ele>
        <time>2015-10-20T13:06:49Z</time>
      </trkpt>
      <trkpt lat="45.8884" lon="2.91288">
        <ele>854</ele>
        <time>2015-10-20T13:08:49Z</time>
      </trkpt>
      <trkpt lat="45.88895" lon="2.91278">
        <ele>854</ele>
        <time>2015-10-20T13:10:49Z</time>
      </trkpt>
      <trkpt lat="45.88933" lon="2.91269">
        <ele>852</ele>
        <time>2015-10-20T13:12:49Z</time>
      </trkpt>
      <trkpt lat="45.88936" lon="2.91251">
        <ele>851</ele>
        <time>2015-10-20T13:14:49Z</time>
      </trkpt>
      <trkpt lat="45.88915" lon="2.91135">
        <ele>849</ele>
        <time>2015-10-20T13:16:49Z</time>
      </trkpt>
      <trkpt lat="45.88924" lon="2.91027">
        <ele>844</ele>
        <time>2015-10-20T13:18:49Z</time>
      </trkpt>
      <trkpt lat="45.88948" lon="2.91063">
        <ele>844</ele>
        <time>2015-10-20T13:20:49Z</time>
      </trkpt>
      <trkpt lat="45.88965" lon="2.91076">
        <ele>844</ele>
        <time>2015-10-20T13:22:49Z</time>
      </trkpt>
      <trkpt lat="45.89003" lon="2.91073">
        <ele>841</ele>
        <time>2015-10-20T13:24:49Z</time>
      </trkpt>
      <trkpt lat="45.89021" lon="2.91098">
        <ele>842</ele>
        <time>2015-10-20T13:26:49Z</time>
      </trkpt>
      <trkpt lat="45.89039" lon="2.91107">
        <ele>843</ele>
        <time>2015-10-20T13:28:49Z</time>
      </trkpt>
      <trkpt lat="45.89057" lon="2.91113">
        <ele>844</ele>
        <time>2015-10-20T13:30:49Z</time>
      </trkpt>
      <trkpt lat="45.89075" lon="2.91112">
        <ele>845</ele>
        <time>2015-10-20T13:32:49Z</time>
      </trkpt>
      <trkpt lat="45.89095" lon="2.91103">
        <ele>846</ele>
        <time>2015-10-20T13:34:49Z</time>
      </trkpt>
      <trkpt lat="45.89108" lon="2.9109">
        <ele>846</ele>
        <time>2015-10-20T13:36:49Z</time>
      </trkpt>
      <trkpt lat="45.89125" lon="2.91082">
        <ele>846</ele>
        <time>2015-10-20T13:38:49Z</time>
      </trkpt>
      <trkpt lat="45.89155" lon="2.91076">
        <ele>847</ele>
        <time>2015-10-20T13:40:49Z</time>
      </trkpt>
      <trkpt lat="45.8917" lon="2.91076">
        <ele>847</ele>
        <time>2015-10-20T13:42:49Z</time>
      </trkpt>
      <trkpt lat="45.89202" lon="2.91102">
        <ele>846</ele>
        <time>2015-10-20T13:44:49Z</time>
      </trkpt>
      <trkpt lat="45.89233" lon="2.91126">
        <ele>845</ele>
        <time>2015-10-20T13:46:49Z</time>
      </trkpt>
      <trkpt lat="45.8927" lon="2.91158">
        <ele>845</ele>
        <time>2015-10-20T13:48:49Z</time>
      </trkpt>
      <trkpt lat="45.89289" lon="2.9118">
        <ele>844</ele>
        <time>2015-10-20T13:50:49Z</time>
      </trkpt>
      <trkpt lat="45.89331" lon="2.91164">
        <ele>843</ele>
        <time>2015-10-20T13:52:49Z</time>
      </trkpt>
      <trkpt lat="45.89324" lon="2.91125">
        <ele>843</ele>
        <time>2015-10-20T13:54:49Z</time>
      </trkpt>
      <trkpt lat="45.893" lon="2.91041">
        <ele>844</ele>
        <time>2015-10-20T13:56:49Z</time>
      </trkpt>
      <trkpt lat="45.89292" lon="2.91021">
        <ele>844</ele>
        <time>2015-10-20T13:58:49Z</time>
      </trkpt>
      <trkpt lat="45.89312" lon="2.91007">
        <ele>843</ele>
        <time>2015-10-20T14:00:49Z</time>
      </trkpt>
      <trkpt lat="45.8933" lon="2.90988">
        <ele>844</ele>
        <time>2015-10-20T14:02:49Z</time>
      </trkpt>
      <trkpt lat="45.89338" lon="2.90974">
        <ele>845</ele>
        <time>2015-10-20T14:04:49Z</time>
      </trkpt>
      <trkpt lat="45.89364" lon="2.90987">
        <ele>845</ele>
        <time>2015-10-20T14:06:49Z</time>
      </trkpt>
      <trkpt lat="45.89387" lon="2.91006">
        <ele>846</ele>
        <time>2015-10-20T14:08:49Z</time>
      </trkpt>
      <trkpt lat="45.89408" lon="2.91006">
        <ele>847</ele>
        <time>2015-10-20T14:10:49Z</time>
      </trkpt>
      <trkpt lat="45.89429" lon="2.90997">
        <ele>848</ele>
        <time>2015-10-20T14:12:49Z</time>
      </trkpt>
      <trkpt lat="45.89449" lon="2.90976">
        <ele>850</ele>
        <time>2015-10-20T14:14:49Z</time>
      </trkpt>
      <trkpt lat="45.89467" lon="2.90963">
        <ele>850</ele>
        <time>2015-10-20T14:16:49Z</time>
      </trkpt>
      <trkpt lat="45.89483" lon="2.90937">
        <ele>851</ele>
        <time>2015-10-20T14:18:49Z</time>
      </trkpt>
      <trkpt lat="45.89498" lon="2.90849">
        <ele>857</ele>
        <time>2015-10-20T14:20:49Z</time>
      </trkpt>
      <trkpt lat="45.89526" lon="2.90742">
        <ele>853</ele>
        <time>2015-10-20T14:22:49Z</time>
      </trkpt>
      <trkpt lat="45.8955" lon="2.90633">
        <ele>848</ele>
        <time>2015-10-20T14:24:49Z</time>
      </trkpt>
      <trkpt lat="45.89556" lon="2.90601">
        <ele>848</ele>
        <time>2015-10-20T14:26:49Z</time>
      </trkpt>
      <trkpt lat="45.89558" lon="2.90522">
        <ele>845</ele>
        <time>2015-10-20T14:28:49Z</time>
      </trkpt>
      <trkpt lat="45.89561" lon="2.90486">
        <ele>844</ele>
        <time>2015-10-20T14:30:49Z</time>
      </trkpt>
      <trkpt lat="45.89564" lon="2.90429">
        <ele>843</ele>
        <time>2015-10-20T14:32:49Z</time>
      </trkpt>
      <trkpt lat="45.89569" lon="2.90404">
        <ele>843</ele>
        <time>2015-10-20T14:34:49Z</time>
      </trkpt>
      <trkpt lat="45.89613" lon="2.90345">
        <ele>838</ele>
        <time>2015-10-20T14:36:49Z</time>
      </trkpt>
      <trkpt lat="45.89637" lon="2.90319">
        <ele>835</ele>
        <time>2015-10-20T14:38:49Z</time>
      </trkpt>
      <trkpt lat="45.89667" lon="2.90259">
        <ele>831</ele>
        <time>2015-10-20T14:40:49Z</time>
      </trkpt>
      <trkpt lat="45.89667" lon="2.9023">
        <ele>830</ele>
        <time>2015-10-20T14:42:49Z</time>
      </trkpt>
      <trkpt lat="45.89669" lon="2.9019">
        <ele>829</ele>
        <time>2015-10-20T14:44:49Z</time>
      </trkpt>
      <trkpt lat="45.89662" lon="2.90157">
        <ele>829</ele>
        <time>2015-10-20T14:46:49Z</time>
      </trkpt>
      <trkpt lat="45.8964" lon="2.9013">
        <ele>830</ele>
        <time>2015-10-20T14:48:49Z</time>
      </trkpt>
      <trkpt lat="45.89615" lon="2.90119">
        <ele>831</ele>
        <time>2015-10-20T14:50:49Z</time>
      </trkpt>
      <trkpt lat="45.89589" lon="2.90112">
        <ele>831</ele>
        <time>2015-10-20T14:52:49Z</time>
      </trkpt>
      <trkpt lat="45.89557" lon="2.90103">
        <ele>833</ele>
        <time>2015-10-20T14:54:49Z</time>
      </trkpt>
      <trkpt lat="45.89529" lon="2.90094">
        <ele>833</ele>
        <time>2015-10-20T14:56:49Z</time>
      </trkpt>
      <trkpt lat="45.8952" lon="2.90062">
        <ele>832</ele>
        <time>2015-10-20T14:58:49Z</time>
      </trkpt>
      <trkpt lat="45.89504" lon="2.90006">
        <ele>829</ele>
        <time>2015-10-20T15:00:49Z</time>
      </trkpt>
      <trkpt lat="45.89487" lon="2.89972">
        <ele>827</ele>
        <time>2015-10-20T15:02:49Z</time>
      </trkpt>
      <trkpt lat="45.89458" lon="2.89926">
        <ele>824</ele>
        <time>2015-10-20T15:04:49Z</time>
      </trkpt>
      <trkpt lat="45.8942" lon="2.89886">
        <ele>821</ele>
        <time>2015-10-20T15:06:49Z</time>
      </trkpt>
      <trkpt lat="45.89393" lon="2.8985">
        <ele>818</ele>
        <time>2015-10-20T15:08:49Z</time>
      </trkpt>
      <trkpt lat="45.89368" lon="2.89808">
        <ele>814</ele>
        <time>2015-10-20T15:10:49Z</time>
      </trkpt>
      <trkpt lat="45.89329" lon="2.8977">
        <ele>812</ele>
        <time>2015-10-20T15:12:49Z</time>
      </trkpt>
      <trkpt lat="45.893" lon="2.89743">
        <ele>811</ele>
        <time>2015-10-20T15:14:49Z</time>
      </trkpt>
      <trkpt lat="45.89295" lon="2.89708">
        <ele>811</ele>
        <time>2015-10-20T15:16:49Z</time>
      </trkpt>
      <trkpt lat="45.89295" lon="2.89667">
        <ele>811</ele>
        <time>2015-10-20T15:18:49Z</time>
      </trkpt>
      <trkpt lat="45.8929" lon="2.89601">
        <ele>812</ele>
        <time>2015-10-20T15:20:49Z</time>
      </trkpt>
      <trkpt lat="45.89266" lon="2.89619">
        <ele>813</ele>
        <time>2015-10-20T15:22:49Z</time>
      </trkpt>
      <trkpt lat="45.89242" lon="2.89648">
        <ele>814</ele>
        <time>2015-10-20T15:24:49Z</time>
      </trkpt>
      <trkpt lat="45.8922" lon="2.89673">
        <ele>815</ele>
        <time>2015-10-20T15:26:49Z</time>
      </trkpt>
      <trkpt lat="45.89193" lon="2.89688">
        <ele>817</ele>
        <time>2015-10-20T15:28:49Z</time>
      </trkpt>
      <trkpt lat="45.89161" lon="2.89707">
        <ele>819</ele>
        <time>2015-10-20T15:30:49Z</time>
      </trkpt>
      <trkpt lat="45.89131" lon="2.89694">
        <ele>821</ele>
        <time>2015-10-20T15:32:49Z</time>
      </trkpt>
      <trkpt lat="45.89051" lon="2.89669">
        <ele>828</ele>
        <time>2015-10-20T15:34:49Z</time>
      </trkpt>
      <trkpt lat="45.88984" lon="2.89641">
        <ele>835</ele>
        <time>2015-10-20T15:36:49Z</time>
      </trkpt>
      <trkpt lat="45.88963" lon="2.8963">
        <ele>837</ele>
        <time>2015-10-20T15:38:49Z</time>
      </trkpt>
      <trkpt lat="45.88936" lon="2.8964">
        <ele>839</ele>
        <time>2015-10-20T15:40:49Z</time>
      </trkpt>
      <trkpt lat="45.88855" lon="2.89601">
        <ele>843</ele>
        <time>2015-10-20T15:42:49Z</time>
      </trkpt>
      <trkpt lat="45.88739" lon="2.89545">
        <ele>848</ele>
        <time>2015-10-20T15:44:49Z</time>
      </trkpt>
      <trkpt lat="45.88693" lon="2.89561">
        <ele>846</ele>
        <time>2015-10-20T15:46:49Z</time>
      </trkpt>
      <trkpt lat="45.88662" lon="2.89579">
        <ele>845</ele>
        <time>2015-10-20T15:48:49Z</time>
      </trkpt>
      <trkpt lat="45.8863" lon="2.89581">
        <ele>842</ele>
        <time>2015-10-20T15:50:49Z</time>
      </trkpt>
      <trkpt lat="45.886" lon="2.89576">
        <ele>840</ele>
        <time>2015-10-20T15:52:49Z</time>
      </trkpt>
      <trkpt lat="45.88545" lon="2.89559">
        <ele>837</ele>
        <time>2015-10-20T15:54:49Z</time>
      </trkpt>
      <trkpt lat="45.8853" lon="2.896">
        <ele>835</ele>
        <time>2015-10-20T15:56:49Z</time>
      </trkpt>
      <trkpt lat="45.88521" lon="2.89623">
        <ele>833</ele>
        <time>2015-10-20T15:58:49Z</time>
      </trkpt>
      <trkpt lat="45.88498" lon="2.89647">
        <ele>831</ele>
        <time>2015-10-20T16:00:49Z</time>
      </trkpt>
      <trkpt lat="45.88459" lon="2.89675">
        <ele>828</ele>
        <time>2015-10-20T16:02:49Z</time>
      </trkpt>
      <trkpt lat="45.88424" lon="2.89704">
        <ele>827</ele>
        <time>2015-10-20T16:04:49Z</time>
      </trkpt>
      <trkpt lat="45.88384" lon="2.89703">
        <ele>825</ele>
        <time>2015-10-20T16:06:49Z</time>
      </trkpt>
      <trkpt lat="45.88342" lon="2.89698">
        <ele>822</ele>
        <time>2015-10-20T16:08:49Z</time>
      </trkpt>
      <trkpt lat="45.88292" lon="2.89689">
        <ele>819</ele>
        <time>2015-10-20T16:10:49Z</time>
      </trkpt>
      <trkpt lat="45.88258" lon="2.89687">
        <ele>817</ele>
        <time>2015-10-20T16:12:49Z</time>
      </trkpt>
      <trkpt lat="45.88231" lon="2.89701">
        <ele>815</ele>
        <time>2015-10-20T16:14:49Z</time>
      </trkpt>
      <trkpt lat="45.88204" lon="2.89703">
        <ele>814</ele>
        <time>2015-10-20T16:16:49Z</time>
      </trkpt>
      <trkpt lat="45.88175" lon="2.89701">
        <ele>812</ele>
        <time>2015-10-20T16:18:49Z</time>
      </trkpt>
      <trkpt lat="45.88145" lon="2.89713">
        <ele>811</ele>
        <time>2015-10-20T16:20:49Z</time>
      </trkpt>
      <trkpt lat="45.88099" lon="2.89735">
        <ele>811</ele>
        <time>2015-10-20T16:22:49Z</time>
      </trkpt>
      <trkpt lat="45.88035" lon="2.89765">
        <ele>808</ele>
        <time>2015-10-20T16:24:49Z</time>
      </trkpt>
      <trkpt lat="45.87995" lon="2.89791">
        <ele>807</ele>
        <time>2015-10-20T16:26:49Z</time>
      </trkpt>
      <trkpt lat="45.87965" lon="2.89811">
        <ele>805</ele>
        <time>2015-10-20T16:28:49Z</time>
      </trkpt>
      <trkpt lat="45.8793" lon="2.89837">
        <ele>803</ele>
        <time>2015-10-20T16:30:49Z</time>
      </trkpt>
      <trkpt lat="45.87908" lon="2.89888">
        <ele>803</ele>
        <time>2015-10-20T16:32:49Z</time>
      </trkpt>
      <trkpt lat="45.87893" lon="2.89926">
        <ele>802</ele>
        <time>2015-10-20T16:34:49Z</time>
      </trkpt>
      <trkpt lat="45.87889" lon="2.89966">
        <ele>800</ele>
        <time>2015-10-20T16:36:49Z</time>
      </trkpt>
      <trkpt lat="45.8789" lon="2.90007">
        <ele>800</ele>
        <time>2015-10-20T16:38:49Z</time>
      </trkpt>
      <trkpt lat="45.87889" lon="2.90046">
        <ele>799</ele>
        <time>2015-10-20T16:40:49Z</time>
      </trkpt>
      <trkpt lat="45.87879" lon="2.90074">
        <ele>798</ele>
        <time>2015-10-20T16:42:49Z</time>
      </trkpt>
      <trkpt lat="45.87864" lon="2.901">
        <ele>799</ele>
        <time>2015-10-20T16:44:49Z</time>
      </trkpt>
      <trkpt lat="45.87831" lon="2.901">
        <ele>798</ele>
        <time>2015-10-20T16:46:49Z</time>
      </trkpt>
      <trkpt lat="45.878" lon="2.90072">
        <ele>798</ele>
        <time>2015-10-20T16:48:49Z</time>
      </trkpt>
      <trkpt lat="45.87774" lon="2.90055">
        <ele>799</ele>
        <time>2015-10-20T16:50:49Z</time>
      </trkpt>
      <trkpt lat="45.87747" lon="2.90026">
        <ele>801</ele>
        <time>2015-10-20T16:52:49Z</time>
      </trkpt>
      <trkpt lat="45.87724" lon="2.90007">
        <ele>807</ele>
        <time>2015-10-20T16:54:49Z</time>
      </trkpt>
      <trkpt lat="45.87701" lon="2.90017">
        <ele>813</ele>
        <time>2015-10-20T16:56:49Z</time>
      </trkpt>
      <trkpt lat="45.87674" lon="2.9004">
        <ele>818</ele>
        <time>2015-10-20T16:58:49Z</time>
      </trkpt>
      <trkpt lat="45.87646" lon="2.90046">
        <ele>821</ele>
        <time>2015-10-20T17:00:49Z</time>
      </trkpt>
      <trkpt lat="45.87611" lon="2.90045">
        <ele>825</ele>
        <time>2015-10-20T17:02:49Z</time>
      </trkpt>
      <trkpt lat="45.87582" lon="2.90044">
        <ele>829</ele>
        <time>2015-10-20T17:04:49Z</time>
      </trkpt>
      <trkpt lat="45.87555" lon="2.90061">
        <ele>831</ele>
        <time>2015-10-20T17:06:49Z</time>
      </trkpt>
      <trkpt lat="45.87525" lon="2.90101">
        <ele>832</ele>
        <time>2015-10-20T17:08:49Z</time>
      </trkpt>
      <trkpt lat="45.87493" lon="2.90127">
        <ele>834</ele>
        <time>2015-10-20T17:10:49Z</time>
      </trkpt>
      <trkpt lat="45.87456" lon="2.90153">
        <ele>836</ele>
        <time>2015-10-20T17:12:49Z</time>
      </trkpt>
      <trkpt lat="45.87422" lon="2.90167">
        <ele>838</ele>
        <time>2015-10-20T17:14:49Z</time>
      </trkpt>
      <trkpt lat="45.87393" lon="2.90175">
        <ele>839</ele>
        <time>2015-10-20T17:16:49Z</time>
      </trkpt>
      <trkpt lat="45.87372" lon="2.90173">
        <ele>840</ele>
        <time>2015-10-20T17:18:49Z</time>
      </trkpt>
      <trkpt lat="45.87351" lon="2.90187">
        <ele>841</ele>
        <time>2015-10-20T17:20:49Z</time>
      </trkpt>
      <trkpt lat="45.87334" lon="2.90208">
        <ele>841</ele>
        <time>2015-10-20T17:22:49Z</time>
      </trkpt>
      <trkpt lat="45.87335" lon="2.90226">
        <ele>840</ele>
        <time>2015-10-20T17:24:49Z</time>
      </trkpt>
      <trkpt lat="45.87295" lon="2.90282">
        <ele>841</ele>
        <time>2015-10-20T17:26:49Z</time>
      </trkpt>
      <trkpt lat="45.87251" lon="2.90345">
        <ele>842</ele>
        <time>2015-10-20T17:28:49Z</time>
      </trkpt>
      <trkpt lat="45.87233" lon="2.90345">
        <ele>842</ele>
        <time>2015-10-20T17:30:49Z</time>
      </trkpt>
      <trkpt lat="45.87212" lon="2.90334">
        <ele>842</ele>
        <time>2015-10-20T17:32:49Z</time>
      </trkpt>
      <trkpt lat="45.87189" lon="2.90342">
        <ele>841</ele>
        <time>2015-10-20T17:34:49Z</time>
      </trkpt>
      <trkpt lat="45.8716" lon="2.90356">
        <ele>841</ele>
        <time>2015-10-20T17:36:49Z</time>
      </trkpt>
      <trkpt lat="45.87147" lon="2.90368">
        <ele>840</ele>
        <time>2015-10-20T17:38:49Z</time>
      </trkpt>
      <trkpt lat="45.87121" lon="2.90332">
        <ele>839</ele>
        <time>2015-10-20T17:40:49Z</time>
      </trkpt>
      <trkpt lat="45.87071" lon="2.90336">
        <ele>837</ele>
        <time>2015-10-20T17:42:49Z</time>
      </trkpt>
      <trkpt lat="45.87039" lon="2.9034">
        <ele>835</ele>
        <time>2015-10-20T17:44:49Z</time>
      </trkpt>
      <trkpt lat="45.86997" lon="2.9034">
        <ele>834</ele>
        <time>2015-10-20T17:46:49Z</time>
      </trkpt>
      <trkpt lat="45.86955" lon="2.90335">
        <ele>832</ele>
        <time>2015-10-20T17:48:49Z</time>
      </trkpt>
      <trkpt lat="45.86917" lon="2.90327">
        <ele>831</ele>
        <time>2015-10-20T17:50:49Z</time>
      </trkpt>
      <trkpt lat="45.86902" lon="2.90334">
        <ele>830</ele>
        <time>2015-10-20T17:52:49Z</time>
      </trkpt>
      <trkpt lat="45.86895" lon="2.90308">
        <ele>831</ele>
        <time>2015-10-20T17:54:49Z</time>
      </trkpt>
      <trkpt lat="45.86799" lon="2.90217">
        <ele>826</ele>
        <time>2015-10-20T17:56:49Z</time>
      </trkpt>
      <trkpt lat="45.86759" lon="2.90164">
        <ele>823</ele>
        <time>2015-10-20T17:58:49Z</time>
      </trkpt>
      <trkpt lat="45.86688" lon="2.90082">
        <ele>813</ele>
        <time>2015-10-20T18:00:49Z</time>
      </trkpt>
      <trkpt lat="45.86646" lon="2.90038">
        <ele>809</ele>
        <time>2015-10-20T18:02:49Z</time>
      </trkpt>
      <trkpt lat="45.86616" lon="2.89986">
        <ele>808</ele>
        <time>2015-10-20T18:04:49Z</time>
      </trkpt>
      <trkpt lat="45.86552" lon="2.8995">
        <ele>804</ele>
        <time>2015-10-20T18:06:49Z</time>
      </trkpt>
      <trkpt lat="45.86552" lon="2.89974">
        <ele>804</ele>
        <time>2015-10-20T18:08:49Z</time>
      </trkpt>
      <trkpt lat="45.86553" lon="2.89993">
        <ele>804</ele>
        <time>2015-10-20T18:10:49Z</time>
      </trkpt>
      <trkpt lat="45.86562" lon="2.90008">
        <ele>804</ele>
        <time>2015-10-20T18:12:49Z</time>
      </trkpt>
      <trkpt lat="45.86557" lon="2.9003">
        <ele>804</ele>
        <time>2015-10-20T18:14:49Z</time>
      </trkpt>
      <trkpt lat="45.86552" lon="2.90057">
        <ele>803</ele>
        <time>2015-10-20T18:16:49Z</time>
      </trkpt>
      <trkpt lat="45.86563" lon="2.90091">
        <ele>804</ele>
        <time>2015-10-20T18:18:49Z</time>
      </trkpt>
      <trkpt lat="45.86578" lon="2.90105">
        <ele>805</ele>
        <time>2015-10-20T18:20:49Z</time>
      </trkpt>
      <trkpt lat="45.86587" lon="2.90135">
        <ele>807</ele>
        <time>2015-10-20T18:22:49Z</time>
      </trkpt>
      <trkpt lat="45.86596" lon="2.90172">
        <ele>809</ele>
        <time>2015-10-20T18:24:49Z</time>
      </trkpt>
      <trkpt lat="45.86605" lon="2.90193">
        <ele>811</ele>
        <time>2015-10-20T18:26:49Z</time>
      </trkpt>
      <trkpt lat="45.8661" lon="2.90235">
        <ele>813</ele>
        <time>2015-10-20T18:28:49Z</time>
      </trkpt>
      <trkpt lat="45.86611" lon="2.90267">
        <ele>815</ele>
        <time>2015-10-20T18:30:49Z</time>
      </trkpt>
      <trkpt lat="45.86613" lon="2.90319">
        <ele>816</ele>
        <time>2015-10-20T18:32:49Z</time>
      </trkpt>
      <trkpt lat="45.86616" lon="2.90344">
        <ele>817</ele>
        <time>2015-10-20T18:34:49Z</time>
      </trkpt>
      <trkpt lat="45.86594" lon="2.90426">
        <ele>819</ele>
        <time>2015-10-20T18:36:49Z</time>
      </trkpt>
      <trkpt lat="45.86632" lon="2.90493">
        <ele>821</ele>
        <time>2015-10-20T18:38:49Z</time>
      </trkpt>
      <trkpt lat="45.86662" lon="2.90546">
        <ele>825</ele>
        <time>2015-10-20T18:40:49Z</time>
      </trkpt>
      <trkpt lat="45.86667" lon="2.90585">
        <ele>829</ele>
        <time>2015-10-20T18:42:49Z</time>
      </trkpt>
      <trkpt lat="45.86664" lon="2.90624">
        <ele>831</ele>
        <time>2015-10-20T18:44:49Z</time>
      </trkpt>
      <trkpt lat="45.86659" lon="2.90656">
        <ele>833</ele>
        <time>2015-10-20T18:46:49Z</time>
      </trkpt>
      <trkpt lat="45.86651" lon="2.90685">
        <ele>835</ele>
        <time>2015-10-20T18:48:49Z</time>
      </trkpt>
      <trkpt lat="45.86642" lon="2.90717">
        <ele>838</ele>
        <time>2015-10-20T18:50:49Z</time>
      </trkpt>
      <trkpt lat="45.86646" lon="2.90756">
        <ele>839</ele>
        <time>2015-10-20T18:52:49Z</time>
      </trkpt>
      <trkpt lat="45.86657" lon="2.90783">
        <ele>840</ele>
        <time>2015-10-20T18:54:49Z</time>
      </trkpt>
      <trkpt lat="45.86671" lon="2.90796">
        <ele>840</ele>
        <time>2015-10-20T18:56:49Z</time>
      </trkpt>
      <trkpt lat="45.86696" lon="2.90826">
        <ele>843</ele>
        <time>2015-10-20T18:58:49Z</time>
      </trkpt>
      <trkpt lat="45.86716" lon="2.90871">
        <ele>847</ele>
        <time>2015-10-20T19:00:49Z</time>
      </trkpt>
      <trkpt lat="45.86737" lon="2.90911">
        <ele>850</ele>
        <time>2015-10-20T19:02:49Z</time>
      </trkpt>
      <trkpt lat="45.86757" lon="2.90975">
        <ele>853</ele>
        <time>2015-10-20T19:04:49Z</time>
      </trkpt>
      <trkpt lat="45.86741" lon="2.91015">
        <ele>855</ele>
        <time>2015-10-20T19:06:49Z</time>
      </trkpt>
      <trkpt lat="45.86738" lon="2.91049">
        <ele>857</ele>
        <time>2015-10-20T19:08:49Z</time>
      </trkpt>
      <trkpt lat="45.86734" lon="2.91082">
        <ele>858</ele>
        <time>2015-10-20T19:10:49Z</time>
      </trkpt>
      <trkpt lat="45.86722" lon="2.91116">
        <ele>861</ele>
        <time>2015-10-20T19:12:49Z</time>
      </trkpt>
      <trkpt lat="45.86699" lon="2.91178">
        <ele>865</ele>
        <time>2015-10-20T19:14:49Z</time>
      </trkpt>
      <trkpt lat="45.86685" lon="2.91219">
        <ele>868</ele>
        <time>2015-10-20T19:16:49Z</time>
      </trkpt>
      <trkpt lat="45.86662" lon="2.91259">
        <ele>870</ele>
        <time>2015-10-20T19:18:49Z</time>
      </trkpt>
      <trkpt lat="45.86643" lon="2.91289">
        <ele>871</ele>
        <time>2015-10-20T19:20:49Z</time>
      </trkpt>
      <trkpt lat="45.8661" lon="2.91319">
        <ele>871</ele>
        <time>2015-10-20T19:22:49Z</time>
      </trkpt>
      <trkpt lat="45.86565" lon="2.91337">
        <ele>867</ele>
        <time>2015-10-20T19:24:49Z</time>
      </trkpt>
      <trkpt lat="45.8652" lon="2.91351">
        <ele>861</ele>
        <time>2015-10-20T19:26:49Z</time>
      </trkpt>
      <trkpt lat="45.86483" lon="2.91353">
        <ele>859</ele>
        <time>2015-10-20T19:28:49Z</time>
      </trkpt>
      <trkpt lat="45.86457" lon="2.91384">
        <ele>858</ele>
        <time>2015-10-20T19:30:49Z</time>
      </trkpt>
      <trkpt lat="45.86432" lon="2.91389">
        <ele>857</ele>
        <time>2015-10-20T19:32:49Z</time>
      </trkpt>
      <trkpt lat="45.86383" lon="2.91385">
        <ele>858</ele>
        <time>2015-10-20T19:34:49Z</time>
      </trkpt>
      <trkpt lat="45.86354" lon="2.91393">
        <ele>859</ele>
        <time>2015-10-20T19:36:49Z</time>
      </trkpt>
      <trkpt lat="45.86318" lon="2.91463">
        <ele>863</ele>
        <time>2015-10-20T19:38:49Z</time>
      </trkpt>
      <trkpt lat="45.86288" lon="2.91533">
        <ele>867</ele>
        <time>2015-10-20T19:40:49Z</time>
      </trkpt>
      <trkpt lat="45.86268" lon="2.91579">
        <ele>870</ele>
        <time>2015-10-20T19:42:49Z</time>
      </trkpt>
      <trkpt lat="45.86307" lon="2.91622">
        <ele>872</ele>
        <time>2015-10-20T19:44:49Z</time>
      </trkpt>
      <trkpt lat="45.86319" lon="2.9165">
        <ele>874</ele>
        <time>2015-10-20T19:46:49Z</time>
      </trkpt>
      <trkpt lat="45.86359" lon="2.91702">
        <ele>876</ele>
        <time>2015-10-20T19:48:49Z</time>
      </trkpt>
      <trkpt lat="45.86299" lon="2.92034">
        <ele>878</ele>
        <time>2015-10-20T19:50:49Z</time>
      </trkpt>
      <trkpt lat="45.86297" lon="2.92053">
        <ele>878</ele>
        <time>2015-10-20T19:52:49Z</time>
      </trkpt>
      <trkpt lat="45.86152" lon="2.92025">
        <ele>875</ele>
        <time>2015-10-20T19:54:49Z</time>
      </trkpt>
      <trkpt lat="45.8615" lon="2.92049">
        <ele>877</ele>
        <time>2015-10-20T19:56:49Z</time>
      </trkpt>
      <trkpt lat="45.86137" lon="2.92112">
        <ele>879</ele>
        <time>2015-10-20T19:58:49Z</time>
      </trkpt>
      <trkpt lat="45.8614" lon="2.92188">
        <ele>880</ele>
        <time>2015-10-20T20:00:49Z</time>
      </trkpt>
      <trkpt lat="45.86146" lon="2.92249">
        <ele>880</ele>
        <time>2015-10-20T20:02:49Z</time>
      </trkpt>
      <trkpt lat="45.86154" lon="2.92302">
        <ele>879</ele>
        <time>2015-10-20T20:04:49Z</time>
      </trkpt>
      <trkpt lat="45.86163" lon="2.92396">
        <ele>880</ele>
        <time>2015-10-20T20:06:49Z</time>
      </trkpt>
      <trkpt lat="45.8618" lon="2.92479">
        <ele>881</ele>
        <time>2015-10-20T20:08:49Z</time>
      </trkpt>
      <trkpt lat="45.86203" lon="2.92583">
        <ele>878</ele>
        <time>2015-10-20T20:10:49Z</time>
      </trkpt>
      <trkpt lat="45.86225" lon="2.92659">
        <ele>879</ele>
        <time>2015-10-20T20:12:49Z</time>
      </trkpt>
      <trkpt lat="45.86259" lon="2.92779">
        <ele>875</ele>
        <time>2015-10-20T20:14:49Z</time>
      </trkpt>
      <trkpt lat="45.86288" lon="2.9284">
        <ele>873</ele>
        <time>2015-10-20T20:16:49Z</time>
      </trkpt>
      <trkpt lat="45.8635" lon="2.92953">
        <ele>871</ele>
        <time>2015-10-20T20:18:49Z</time>
      </trkpt>
      <trkpt lat="45.86406" lon="2.9304">
        <ele>868</ele>
        <time>2015-10-20T20:20:49Z</time>
      </trkpt>
      <trkpt lat="45.86423" lon="2.93098">
        <ele>864</ele>
        <time>2015-10-20T20:22:49Z</time>
      </trkpt>
      <trkpt lat="45.8642" lon="2.93113">
        <ele>863</ele>
        <time>2015-10-20T20:24:49Z</time>
      </trkpt>
      <trkpt lat="45.8643" lon="2.93172">
        <ele>859</ele>
        <time>2015-10-20T20:26:49Z</time>
      </trkpt>
      <trkpt lat="45.86448" lon="2.93262">
        <ele>857</ele>
        <time>2015-10-20T20:28:49Z</time>
      </trkpt>
      <trkpt lat="45.86483" lon="2.9324">
        <ele>856</ele>
        <time>2015-10-20T20:30:49Z</time>
      </trkpt>
      <trkpt lat="45.86554" lon="2.93261">
        <ele>854</ele>
        <time>2015-10-20T20:32:49Z</time>
      </trkpt>
      <trkpt lat="45.86656" lon="2.93341">
        <ele>853</ele>
        <time>2015-10-20T20:34:49Z</time>
      </trkpt>
      <trkpt lat="45.86751" lon="2.93417">
        <ele>853</ele>
        <time>2015-10-20T20:36:49Z</time>
      </trkpt>
      <trkpt lat="45.86798" lon="2.93474">
        <ele>853</ele>
        <time>2015-10-20T20:38:49Z</time>
      </trkpt>
      <trkpt lat="45.86814" lon="2.93525">
        <ele>853</ele>
        <time>2015-10-20T20:40:49Z</time>
      </trkpt>
      <trkpt lat="45.86822" lon="2.93599">
        <ele>853</ele>
        <time>2015-10-20T20:42:49Z</time>
      </trkpt>
      <trkpt lat="45.86826" lon="2.93644">
        <ele>854</ele>
        <time>2015-10-20T20:44:49Z</time>
      </trkpt>
      <trkpt lat="45.8685" lon="2.93683">
        <ele>854</ele>
        <time>2015-10-20T20:46:49Z</time>
      </trkpt>
      <trkpt lat="45.86894" lon="2.93705">
        <ele>853</ele>
        <time>2015-10-20T20:48:49Z</time>
      </trkpt>
      <trkpt lat="45.86932" lon="2.93733">
        <ele>853</ele>
        <time>2015-10-20T20:50:49Z</time>
      </trkpt>
      <trkpt lat="45.86958" lon="2.93771">
        <ele>854</ele>
        <time>2015-10-20T20:52:49Z</time>
      </trkpt>
      <trkpt lat="45.86973" lon="2.93806">
        <ele>855</ele>
        <time>2015-10-20T20:54:49Z</time>
      </trkpt>
      <trkpt lat="45.87008" lon="2.93836">
        <ele>855</ele>
        <time>2015-10-20T20:56:49Z</time>
      </trkpt>
      <trkpt lat="45.87027" lon="2.93871">
        <ele>856</ele>
        <time>2015-10-20T20:58:49Z</time>
      </trkpt>
      <trkpt lat="45.87051" lon="2.93914">
        <ele>856</ele>
        <time>2015-10-20T21:00:49Z</time>
      </trkpt>
      <trkpt lat="45.8708" lon="2.9388">
        <ele>854</ele>
        <time>2015-10-20T21:02:49Z</time>
      </trkpt>
      <trkpt lat="45.87092" lon="2.93848">
        <ele>854</ele>
        <time>2015-10-20T21:04:49Z</time>
      </trkpt>
      <trkpt lat="45.87092" lon="2.93819">
        <ele>854</ele>
        <time>2015-10-20T21:06:49Z</time>
      </trkpt>
      <trkpt lat="45.87121" lon="2.93821">
        <ele>855</ele>
        <time>2015-10-20T21:08:49Z</time>
      </trkpt>
      <trkpt lat="45.87161" lon="2.93804">
        <ele>858</ele>
        <time>2015-10-20T21:10:49Z</time>
      </trkpt>
      <trkpt lat="45.87197" lon="2.93779">
        <ele>859</ele>
        <time>2015-10-20T21:12:49Z</time>
      </trkpt>
      <trkpt lat="45.87274" lon="2.9375">
        <ele>862</ele>
        <time>2015-10-20T21:14:49Z</time>
      </trkpt>
      <trkpt lat="45.87301" lon="2.93738">
        <ele>863</ele>
        <time>2015-10-20T21:16:49Z</time>
      </trkpt>
      <trkpt lat="45.87353" lon="2.93723">
        <ele>865</ele>
        <time>2015-10-20T21:18:49Z</time>
      </trkpt>
      <trkpt lat="45.87428" lon="2.9373">
        <ele>868</ele>
        <time>2015-10-20T21:20:49Z</time>
      </trkpt>
      <trkpt lat="45.8747" lon="2.93738">
        <ele>870</ele>
        <time>2015-10-20T21:22:49Z</time>
      </trkpt>
      <trkpt lat="45.87528" lon="2.93752">
        <ele>870</ele>
        <time>2015-10-20T21:24:49Z</time>
      </trkpt>
      <trkpt lat="45.87591" lon="2.93771">
        <ele>866</ele>
        <time>2015-10-20T21:26:49Z</time>
      </trkpt>
      <trkpt lat="45.87626" lon="2.93804">
        <ele>861</ele>
        <time>2015-10-20T21:28:49Z</time>
      </trkpt>
      <trkpt lat="45.87606" lon="2.93843">
        <ele>856</ele>
        <time>2015-10-20T21:30:49Z</time>
      </trkpt>
      <trkpt lat="45.87579" lon="2.93894">
        <ele>851</ele>
        <time>2015-10-20T21:32:49Z</time>
      </trkpt>
      <trkpt lat="45.87636" lon="2.93918">
        <ele>849</ele>
        <time>2015-10-20T21:34:49Z</time>
      </trkpt>
      <trkpt lat="45.87709" lon="2.93932">
        <ele>847</ele>
        <time>2015-10-20T21:36:49Z</time>
      </trkpt>
      <trkpt lat="45.87742" lon="2.93954">
        <ele>844</ele>
        <time>2015-10-20T21:38:49Z</time>
      </trkpt>
      <trkpt lat="45.87789" lon="2.93985">
        <ele>840</ele>
        <time>2015-10-20T21:40:49Z</time>
      </trkpt>
      <trkpt lat="45.87825" lon="2.94">
        <ele>838</ele>
        <time>2015-10-20T21:42:49Z</time>
      </trkpt>
      <trkpt lat="45.87844" lon="2.93986">
        <ele>841</ele>
        <time>2015-10-20T21:44:49Z</time>
      </trkpt>
      <trkpt lat="45.8787" lon="2.93968">
        <ele>844</ele>
        <time>2015-10-20T21:46:49Z</time>
      </trkpt>
      <trkpt lat="45.8788" lon="2.93941">
        <ele>848</ele>
        <time>2015-10-20T21:48:49Z</time>
      </trkpt>
      <trkpt lat="45.87892" lon="2.93917">
        <ele>852</ele>
        <time>2015-10-20T21:50:49Z</time>
      </trkpt>
      <trkpt lat="45.8792" lon="2.93911">
        <ele>855</ele>
        <time>2015-10-20T21:52:49Z</time>
      </trkpt>
      <trkpt lat="45.87964" lon="2.93919">
        <ele>857</ele>
        <time>2015-10-20T21:54:49Z</time>
      </trkpt>
      <trkpt lat="45.87995" lon="2.9394">
        <ele>857</ele>
        <time>2015-10-20T21:56:49Z</time>
      </trkpt>
      <trkpt lat="45.8803" lon="2.93981">
        <ele>854</ele>
        <time>2015-10-20T21:58:49Z</time>
      </trkpt>
      <trkpt lat="45.88116" lon="2.94004">
        <ele>860</ele>
        <time>2015-10-20T22:00:49Z</time>
      </trkpt>
      <trkpt lat="45.88173" lon="2.94027">
        <ele>862</ele>
        <time>2015-10-20T22:02:49Z</time>
      </trkpt>
      <trkpt lat="45.88239" lon="2.94068">
        <ele>862</ele>
        <time>2015-10-20T22:04:49Z</time>
      </trkpt>
      <trkpt lat="45.88266" lon="2.94171">
        <ele>854</ele>
        <time>2015-10-20T22:06:49Z</time>
      </trkpt>
      <trkpt lat="45.88293" lon="2.94231">
        <ele>848</ele>
        <time>2015-10-20T22:08:49Z</time>
      </trkpt>
      <trkpt lat="45.88322" lon="2.94277">
        <ele>843</ele>
        <time>2015-10-20T22:10:49Z</time>
      </trkpt>
      <trkpt lat="45.88355" lon="2.94338">
        <ele>835</ele>
        <time>2015-10-20T22:12:49Z</time>
      </trkpt>
      <trkpt lat="45.88381" lon="2.94411">
        <ele>829</ele>
        <time>2015-10-20T22:14:49Z</time>
      </trkpt>
      <trkpt lat="45.88393" lon="2.94422">
        <ele>828</ele>
        <time>2015-10-20T22:16:49Z</time>
      </trkpt>
      <trkpt lat="45.88408" lon="2.94414">
        <ele>828</ele>
        <time>2015-10-20T22:18:49Z</time>
      </trkpt>
      <trkpt lat="45.88435" lon="2.94372">
        <ele>828</ele>
        <time>2015-10-20T22:20:49Z</time>
      </trkpt>
      <trkpt lat="45.88452" lon="2.94348">
        <ele>828</ele>
        <time>2015-10-20T22:22:49Z</time>
      </trkpt>
      <trkpt lat="45.88488" lon="2.94314">
        <ele>829</ele>
        <time>2015-10-20T22:24:49Z</time>
      </trkpt>
      <trkpt lat="45.88515" lon="2.94293">
        <ele>830</ele>
        <time>2015-10-20T22:26:49Z</time>
      </trkpt>
      <trkpt lat="45.88537" lon="2.94257">
        <ele>831</ele>
        <time>2015-10-20T22:28:49Z</time>
      </trkpt>
      <trkpt lat="45.88544" lon="2.94238">
        <ele>832</ele>
        <time>2015-10-20T22:30:49Z</time>
      </trkpt>
      <trkpt lat="45.88541" lon="2.94206">
        <ele>836</ele>
        <time>2015-10-20T22:32:49Z</time>
      </trkpt>
      <trkpt lat="45.88535" lon="2.94165">
        <ele>840</ele>
        <time>2015-10-20T22:34:49Z</time>
      </trkpt>
      <trkpt lat="45.88525" lon="2.94129">
        <ele>841</ele>
        <time>2015-10-20T22:36:49Z</time>
      </trkpt>
      <trkpt lat="45.88515" lon="2.94079">
        <ele>842</ele>
        <time>2015-10-20T22:38:49Z</time>
      </trkpt>
      <trkpt lat="45.8851" lon="2.9403">
        <ele>844</ele>
        <time>2015-10-20T22:40:49Z</time>
      </trkpt>
      <trkpt lat="45.88508" lon="2.94011">
        <ele>844</ele>
        <time>2015-10-20T22:42:49Z</time>
      </trkpt>
      <trkpt lat="45.88516" lon="2.93998">
        <ele>844</ele>
        <time>2015-10-20T22:44:49Z</time>
      </trkpt>
      <trkpt lat="45.88539" lon="2.94">
        <ele>843</ele>
        <time>2015-10-20T22:46:49Z</time>
      </trkpt>
      <trkpt lat="45.88567" lon="2.94011">
        <ele>841</ele>
        <time>2015-10-20T22:48:49Z</time>
      </trkpt>
      <trkpt lat="45.88593" lon="2.94029">
        <ele>839</ele>
        <time>2015-10-20T22:50:49Z</time>
      </trkpt>
      <trkpt lat="45.88599" lon="2.94064">
        <ele>838</ele>
        <time>2015-10-20T22:52:49Z</time>
      </trkpt>
      <trkpt lat="45.8868" lon="2.94069">
        <ele>841</ele>
        <time>2015-10-20T22:54:49Z</time>
      </trkpt>
      <trkpt lat="45.88723" lon="2.94065">
        <ele>840</ele>
        <time>2015-10-20T22:56:49Z</time>
      </trkpt>
      <trkpt lat="45.88871" lon="2.94058">
        <ele>833</ele>
        <time>2015-10-20T22:58:49Z</time>
      </trkpt>
      <trkpt lat="45.88907" lon="2.94076">
        <ele>832</ele>
        <time>2015-10-20T23:00:49Z</time>
      </trkpt>
      <trkpt lat="45.88942" lon="2.94116">
        <ele>830</ele>
        <time>2015-10-20T23:02:49Z</time>
      </trkpt>
      <trkpt lat="45.88974" lon="2.94161">
        <ele>829</ele>
        <time>2015-10-20T23:04:49Z</time>
      </trkpt>
      <trkpt lat="45.88998" lon="2.94203">
        <ele>828</ele>
        <time>2015-10-20T23:06:49Z</time>
      </trkpt>
      <trkpt lat="45.89017" lon="2.94257">
        <ele>828</ele>
        <time>2015-10-20T23:08:49Z</time>
      </trkpt>
      <trkpt lat="45.89035" lon="2.94329">
        <ele>827</ele>
        <time>2015-10-20T23:10:49Z</time>
      </trkpt>
      <trkpt lat="45.89087" lon="2.94521">
        <ele>825</ele>
        <time>2015-10-20T23:12:49Z</time>
      </trkpt>
      <trkpt lat="45.89113" lon="2.94578">
        <ele>824</ele>
        <time>2015-10-20T23:14:49Z</time>
      </trkpt>
      <trkpt lat="45.89124" lon="2.94594">
        <ele>824</ele>
        <time>2015-10-20T23:16:49Z</time>
      </trkpt>
      <trkpt lat="45.89107" lon="2.94665">
        <ele>824</ele>
        <time>2015-10-20T23:18:49Z</time>
      </trkpt>
      <trkpt lat="45.89124" lon="2.94676">
        <ele>824</ele>
        <time>2015-10-20T23:20:49Z</time>
      </trkpt>
      <trkpt lat="45.89151" lon="2.9467">
        <ele>824</ele>
        <time>2015-10-20T23:22:49Z</time>
      </trkpt>
      <trkpt lat="45.89175" lon="2.94683">
        <ele>824</ele>
        <time>2015-10-20T23:24:49Z</time>
      </trkpt>
      <trkpt lat="45.89202" lon="2.94704">
        <ele>825</ele>
        <time>2015-10-20T23:26:49Z</time>
      </trkpt>
      <trkpt lat="45.89232" lon="2.9475">
        <ele>825</ele>
        <time>2015-10-20T23:28:49Z</time>
      </trkpt>
      <trkpt lat="45.89247" lon="2.94765">
        <ele>826</ele>
        <time>2015-10-20T23:30:49Z</time>
      </trkpt>
      <trkpt lat="45.8926" lon="2.94782">
        <ele>826</ele>
        <time>2015-10-20T23:32:49Z</time>
      </trkpt>
      <trkpt lat="45.89261" lon="2.94829">
        <ele>828</ele>
        <time>2015-10-20T23:34:49Z</time>
      </trkpt>
      <trkpt lat="45.89263" lon="2.94874">
        <ele>828</ele>
        <time>2015-10-20T23:36:49Z</time>
      </trkpt>
      <trkpt lat="45.89269" lon="2.94894">
        <ele>828</ele>
        <time>2015-10-20T23:38:49Z</time>
      </trkpt>
      <trkpt lat="45.89313" lon="2.94884">
        <ele>828</ele>
        <time>2015-10-20T23:40:49Z</time>
      </trkpt>
      <trkpt lat="45.89316" lon="2.94938">
        <ele>829</ele>
        <time>2015-10-20T23:42:49Z</time>
      </trkpt>
      <trkpt lat="45.89313" lon="2.95003">
        <ele>830</ele>
        <time>2015-10-20T23:44:49Z</time>
      </trkpt>
      <trkpt lat="45.89309" lon="2.95043">
        <ele>835</ele>
        <time>2015-10-20T23:46:49Z</time>
      </trkpt>
      <trkpt lat="45.89365" lon="2.95052">
        <ele>832</ele>
        <time>2015-10-20T23:48:49Z</time>
      </trkpt>
      <trkpt lat="45.89405" lon="2.95059">
        <ele>829</ele>
        <time>2015-10-20T23:50:49Z</time>
      </trkpt>
      <trkpt lat="45.89428" lon="2.95095">
        <ele>830</ele>
        <time>2015-10-20T23:52:49Z</time>
      </trkpt>
      <trkpt lat="45.89461" lon="2.95122">
        <ele>833</ele>
        <time>2015-10-20T23:54:49Z</time>
      </trkpt>
      <trkpt lat="45.895" lon="2.95155">
        <ele>833</ele>
        <time>2015-10-20T23:56:49Z</time>
      </trkpt>
      <trkpt lat="45.89539" lon="2.95187">
        <ele>838</ele>
        <time>2015-10-20T23:58:49Z</time>
      </trkpt>
      <trkpt lat="45.89554" lon="2.95224">
        <ele>843</ele>
        <time>2015-10-21T00:00:49Z</time>
      </trkpt>
      <trkpt lat="45.89574" lon="2.95231">
        <ele>842</ele>
        <time>2015-10-21T00:02:49Z</time>
      </trkpt>
      <trkpt lat="45.89594" lon="2.95273">
        <ele>843</ele>
        <time>2015-10-21T00:04:49Z</time>
      </trkpt>
      <trkpt lat="45.89599" lon="2.95316">
        <ele>844</ele>
        <time>2015-10-21T00:06:49Z</time>
      </trkpt>
      <trkpt lat="45.89588" lon="2.95364">
        <ele>844</ele>
        <time>2015-10-21T00:08:49Z</time>
      </trkpt>
      <trkpt lat="45.8957" lon="2.95429">
        <ele>842</ele>
        <time>2015-10-21T00:10:49Z</time>
      </trkpt>
      <trkpt lat="45.89564" lon="2.95458">
        <ele>840</ele>
        <time>2015-10-21T00:12:49Z</time>
      </trkpt>
      <trkpt lat="45.89577" lon="2.9546">
        <ele>836</ele>
        <time>2015-10-21T00:14:49Z</time>
      </trkpt>
      <trkpt lat="45.89598" lon="2.95453">
        <ele>832</ele>
        <time>2015-10-21T00:16:49Z</time>
      </trkpt>
      <trkpt lat="45.8962" lon="2.95468">
        <ele>827</ele>
        <time>2015-10-21T00:18:49Z</time>
      </trkpt>
      <trkpt lat="45.89643" lon="2.95505">
        <ele>822</ele>
        <time>2015-10-21T00:20:49Z</time>
      </trkpt>
      <trkpt lat="45.89654" lon="2.95527">
        <ele>821</ele>
        <time>2015-10-21T00:22:49Z</time>
      </trkpt>
      <trkpt lat="45.8969" lon="2.95555">
        <ele>818</ele>
        <time>2015-10-21T00:24:49Z</time>
      </trkpt>
      <trkpt lat="45.89756" lon="2.95509">
        <ele>812</ele>
        <time>2015-10-21T00:26:49Z</time>
      </trkpt>
      <trkpt lat="45.8979" lon="2.95482">
        <ele>811</ele>
        <time>2015-10-21T00:28:49Z</time>
      </trkpt>
      <trkpt lat="45.89842" lon="2.95391">
        <ele>811</ele>
        <time>2015-10-21T00:30:49Z</time>
      </trkpt>
      <trkpt lat="45.89867" lon="2.95354">
        <ele>810</ele>
        <time>2015-10-21T00:32:49Z</time>
      </trkpt>
      <trkpt lat="45.89898" lon="2.95313">
        <ele>809</ele>
        <time>2015-10-21T00:34:49Z</time>
      </trkpt>
      <trkpt lat="45.89953" lon="2.95283">
        <ele>808</ele>
        <time>2015-10-21T00:36:49Z</time>
      </trkpt>
      <trkpt lat="45.89988" lon="2.95365">
        <ele>806</ele>
        <time>2015-10-21T00:38:49Z</time>
      </trkpt>
      <trkpt lat="45.90023" lon="2.95414">
        <ele>805</ele>
        <time>2015-10-21T00:40:49Z</time>
      </trkpt>
      <trkpt lat="45.9005" lon="2.95443">
        <ele>804</ele>
        <time>2015-10-21T00:42:49Z</time>
      </trkpt>
      <trkpt lat="45.90092" lon="2.95494">
        <ele>802</ele>
        <time>2015-10-21T00:44:49Z</time>
      </trkpt>
      <trkpt lat="45.90163" lon="2.95605">
        <ele>803</ele>
        <time>2015-10-21T00:46:49Z</time>
      </trkpt>
      <trkpt lat="45.90227" lon="2.95691">
        <ele>801</ele>
        <time>2015-10-21T00:48:49Z</time>
      </trkpt>
      <trkpt lat="45.90248" lon="2.9572">
        <ele>801</ele>
        <time>2015-10-21T00:50:49Z</time>
      </trkpt>
      <trkpt lat="45.90297" lon="2.95478">
        <ele>810</ele>
        <time>2015-10-21T00:52:49Z</time>
      </trkpt>
      <trkpt lat="45.9031" lon="2.95425">
        <ele>813</ele>
        <time>2015-10-21T00:54:49Z</time>
      </trkpt>
      <trkpt lat="45.90327" lon="2.95382">
        <ele>816</ele>
        <time>2015-10-21T00:56:49Z</time>
      </trkpt>
      <trkpt lat="45.90342" lon="2.9534">
        <ele>818</ele>
        <time>2015-10-21T00:58:49Z</time>
      </trkpt>
      <trkpt lat="45.90356" lon="2.95283">
        <ele>821</ele>
        <time>2015-10-21T01:00:49Z</time>
      </trkpt>
      <trkpt lat="45.90358" lon="2.95265">
        <ele>823</ele>
        <time>2015-10-21T01:02:49Z</time>
      </trkpt>
      <trkpt lat="45.90353" lon="2.95196">
        <ele>825</ele>
        <time>2015-10-21T01:04:49Z</time>
      </trkpt>
      <trkpt lat="45.90357" lon="2.9515">
        <ele>826</ele>
        <time>2015-10-21T01:06:49Z</time>
      </trkpt>
      <trkpt lat="45.90361" lon="2.95119">
        <ele>825</ele>
        <time>2015-10-21T01:08:49Z</time>
      </trkpt>
      <trkpt lat="45.90367" lon="2.95048">
        <ele>827</ele>
        <time>2015-10-21T01:10:49Z</time>
      </trkpt>
      <trkpt lat="45.90366" lon="2.95006">
        <ele>830</ele>
        <time>2015-10-21T01:12:49Z</time>
      </trkpt>
      <trkpt lat="45.90347" lon="2.94966">
        <ele>833</ele>
        <time>2015-10-21T01:14:49Z</time>
      </trkpt>
      <trkpt lat="45.90317" lon="2.9494">
        <ele>835</ele>
        <time>2015-10-21T01:16:49Z</time>
      </trkpt>
      <trkpt lat="45.90298" lon="2.94916">
        <ele>837</ele>
        <time>2015-10-21T01:18:49Z</time>
      </trkpt>
      <trkpt lat="45.90268" lon="2.94858">
        <ele>840</ele>
        <time>2015-10-21T01:20:49Z</time>
      </trkpt>
      <trkpt lat="45.90253" lon="2.94811">
        <ele>843</ele>
        <time>2015-10-21T01:22:49Z</time>
      </trkpt>
      <trkpt lat="45.90241" lon="2.94761">
        <ele>846</ele>
        <time>2015-10-21T01:24:49Z</time>
      </trkpt>
      <trkpt lat="45.90241" lon="2.94727">
        <ele>848</ele>
        <time>2015-10-21T01:26:49Z</time>
      </trkpt>
      <trkpt lat="45.90249" lon="2.94675">
        <ele>851</ele>
        <time>2015-10-21T01:28:49Z</time>
      </trkpt>
      <trkpt lat="45.9026" lon="2.94615">
        <ele>853</ele>
        <time>2015-10-21T01:30:49Z</time>
      </trkpt>
      <trkpt lat="45.90286" lon="2.94557">
        <ele>855</ele>
        <time>2015-10-21T01:32:49Z</time>
      </trkpt>
      <trkpt lat="45.90312" lon="2.94516">
        <ele>857</ele>
        <time>2015-10-21T01:34:49Z</time>
      </trkpt>
      <trkpt lat="45.90327" lon="2.94504">
        <ele>859</ele>
        <time>2015-10-21T01:36:49Z</time>
      </trkpt>
      <trkpt lat="45.90354" lon="2.94472">
        <ele>860</ele>
        <time>2015-10-21T01:38:49Z</time>
      </trkpt>
      <trkpt lat="45.90366" lon="2.94454">
        <ele>861</ele>
        <time>2015-10-21T01:40:49Z</time>
      </trkpt>
      <trkpt lat="45.90376" lon="2.94425">
        <ele>861</ele>
        <time>2015-10-21T01:42:49Z</time>
      </trkpt>
      <trkpt lat="45.90367" lon="2.9438">
        <ele>862</ele>
        <time>2015-10-21T01:44:49Z</time>
      </trkpt>
      <trkpt lat="45.90373" lon="2.94357">
        <ele>862</ele>
        <time>2015-10-21T01:46:49Z</time>
      </trkpt>
      <trkpt lat="45.90383" lon="2.94339">
        <ele>861</ele>
        <time>2015-10-21T01:48:49Z</time>
      </trkpt>
      <trkpt lat="45.90381" lon="2.94317">
        <ele>861</ele>
        <time>2015-10-21T01:50:49Z</time>
      </trkpt>
      <trkpt lat="45.9037" lon="2.94286">
        <ele>861</ele>
        <time>2015-10-21T01:52:49Z</time>
      </trkpt>
      <trkpt lat="45.90344" lon="2.94234">
        <ele>861</ele>
        <time>2015-10-21T01:54:49Z</time>
      </trkpt>
      <trkpt lat="45.90328" lon="2.94206">
        <ele>860</ele>
        <time>2015-10-21T01:56:49Z</time>
      </trkpt>
      <trkpt lat="45.90308" lon="2.94187">
        <ele>860</ele>
        <time>2015-10-21T01:58:49Z</time>
      </trkpt>
      <trkpt lat="45.90336" lon="2.9418">
        <ele>858</ele>
        <time>2015-10-21T02:00:49Z</time>
      </trkpt>
      <trkpt lat="45.90367" lon="2.94181">
        <ele>854</ele>
        <time>2015-10-21T02:02:49Z</time>
      </trkpt>
      <trkpt lat="45.90395" lon="2.94184">
        <ele>851</ele>
        <time>2015-10-21T02:04:49Z</time>
      </trkpt>
      <trkpt lat="45.90414" lon="2.94191">
        <ele>850</ele>
        <time>2015-10-21T02:06:49Z</time>
      </trkpt>
      <trkpt lat="45.90456" lon="2.94228">
        <ele>846</ele>
        <time>2015-10-21T02:08:49Z</time>
      </trkpt>
      <trkpt lat="45.90486" lon="2.94263">
        <ele>842</ele>
        <time>2015-10-21T02:10:49Z</time>
      </trkpt>
      <trkpt lat="45.90522" lon="2.94299">
        <ele>838</ele>
        <time>2015-10-21T02:12:49Z</time>
      </trkpt>
      <trkpt lat="45.90552" lon="2.9434">
        <ele>834</ele>
        <time>2015-10-21T02:14:49Z</time>
      </trkpt>
      <trkpt lat="45.90598" lon="2.94368">
        <ele>828</ele>
        <time>2015-10-21T02:16:49Z</time>
      </trkpt>
      <trkpt lat="45.90626" lon="2.94394">
        <ele>825</ele>
        <time>2015-10-21T02:18:49Z</time>
      </trkpt>
      <trkpt lat="45.90657" lon="2.94408">
        <ele>822</ele>
        <time>2015-10-21T02:20:49Z</time>
      </trkpt>
      <trkpt lat="45.90698" lon="2.94416">
        <ele>819</ele>
        <time>2015-10-21T02:22:49Z</time>
      </trkpt>
      <trkpt lat="45.90716" lon="2.94375">
        <ele>819</ele>
        <time>2015-10-21T02:24:49Z</time>
      </trkpt>
      <trkpt lat="45.90729" lon="2.9435">
        <ele>818</ele>
        <time>2015-10-21T02:26:49Z</time>
      </trkpt>
      <trkpt lat="45.90734" lon="2.9432">
        <ele>819</ele>
        <time>2015-10-21T02:28:49Z</time>
      </trkpt>
      <trkpt lat="45.90734" lon="2.94277">
        <ele>821</ele>
        <time>2015-10-21T02:30:49Z</time>
      </trkpt>
      <trkpt lat="45.9074" lon="2.94226">
        <ele>823</ele>
        <time>2015-10-21T02:32:49Z</time>
      </trkpt>
      <trkpt lat="45.90743" lon="2.94194">
        <ele>824</ele>
        <time>2015-10-21T02:34:49Z</time>
      </trkpt>
      <trkpt lat="45.90748" lon="2.94173">
        <ele>824</ele>
        <time>2015-10-21T02:36:49Z</time>
      </trkpt>
      <trkpt lat="45.90754" lon="2.94151">
        <ele>825</ele>
        <time>2015-10-21T02:38:49Z</time>
      </trkpt>
      <trkpt lat="45.90753" lon="2.94132">
        <ele>826</ele>
        <time>2015-10-21T02:40:49Z</time>
      </trkpt>
      <trkpt lat="45.90749" lon="2.94111">
        <ele>827</ele>
        <time>2015-10-21T02:42:49Z</time>
      </trkpt>
      <trkpt lat="45.90725" lon="2.94116">
        <ele>830</ele>
        <time>2015-10-21T02:44:49Z</time>
      </trkpt>
      <trkpt lat="45.90717" lon="2.94099">
        <ele>832</ele>
        <time>2015-10-21T02:46:49Z</time>
      </trkpt>
      <trkpt lat="45.90704" lon="2.9406">
        <ele>836</ele>
        <time>2015-10-21T02:48:49Z</time>
      </trkpt>
      <trkpt lat="45.90698" lon="2.94031">
        <ele>838</ele>
        <time>2015-10-21T02:50:49Z</time>
      </trkpt>
      <trkpt lat="45.907" lon="2.93996">
        <ele>838</ele>
        <time>2015-10-21T02:52:49Z</time>
      </trkpt>
      <trkpt lat="45.90699" lon="2.9396">
        <ele>838</ele>
        <time>2015-10-21T02:54:49Z</time>
      </trkpt>
      <trkpt lat="45.9067" lon="2.93893">
        <ele>841</ele>
        <time>2015-10-21T02:56:49Z</time>
      </trkpt>
      <trkpt lat="45.9064" lon="2.93865">
        <ele>843</ele>
        <time>2015-10-21T02:58:49Z</time>
      </trkpt>
      <trkpt lat="45.90607" lon="2.93835">
        <ele>844</ele>
        <time>2015-10-21T03:00:49Z</time>
      </trkpt>
      <trkpt lat="45.90578" lon="2.93795">
        <ele>845</ele>
        <time>2015-10-21T03:02:49Z</time>
      </trkpt>
      <trkpt lat="45.90539" lon="2.93761">
        <ele>848</ele>
        <time>2015-10-21T03:04:49Z</time>
      </trkpt>
      <trkpt lat="45.90502" lon="2.93721">
        <ele>850</ele>
        <time>2015-10-21T03:06:49Z</time>
      </trkpt>
      <trkpt lat="45.90485" lon="2.93702">
        <ele>852</ele>
        <time>2015-10-21T03:08:49Z</time>
      </trkpt>
      <trkpt lat="45.90478" lon="2.93677">
        <ele>852</ele>
        <time>2015-10-21T03:10:49Z</time>
      </trkpt>
      <trkpt lat="45.90462" lon="2.93667">
        <ele>854</ele>
        <time>2015-10-21T03:12:49Z</time>
      </trkpt>
      <trkpt lat="45.90464" lon="2.93627">
        <ele>857</ele>
        <time>2015-10-21T03:14:49Z</time>
      </trkpt>
      <trkpt lat="45.90478" lon="2.93609">
        <ele>857</ele>
        <time>2015-10-21T03:16:49Z</time>
      </trkpt>
      <trkpt lat="45.90501" lon="2.93594">
        <ele>855</ele>
        <time>2015-10-21T03:18:49Z</time>
      </trkpt>
      <trkpt lat="45.90546" lon="2.93589">
        <ele>853</ele>
        <time>2015-10-21T03:20:49Z</time>
      </trkpt>
      <trkpt lat="45.90549" lon="2.93566">
        <ele>854</ele>
        <time>2015-10-21T03:22:49Z</time>
      </trkpt>
      <trkpt lat="45.90546" lon="2.93532">
        <ele>857</ele>
        <time>2015-10-21T03:24:49Z</time>
      </trkpt>
      <trkpt lat="45.90545" lon="2.93487">
        <ele>861</ele>
        <time>2015-10-21T03:26:49Z</time>
      </trkpt>
      <trkpt lat="45.90554" lon="2.93453">
        <ele>862</ele>
        <time>2015-10-21T03:28:49Z</time>
      </trkpt>
      <trkpt lat="45.9065" lon="2.93471">
        <ele>865</ele>
        <time>2015-10-21T03:30:49Z</time>
      </trkpt>
      <trkpt lat="45.907" lon="2.93477">
        <ele>868</ele>
        <time>2015-10-21T03:32:49Z</time>
      </trkpt>
      <trkpt lat="45.90756" lon="2.93492">
        <ele>872</ele>
        <time>2015-10-21T03:34:49Z</time>
      </trkpt>
      <trkpt lat="45.90801" lon="2.93507">
        <ele>872</ele>
        <time>2015-10-21T03:36:49Z</time>
      </trkpt>
      <trkpt lat="45.9084" lon="2.93513">
        <ele>873</ele>
        <time>2015-10-21T03:38:49Z</time>
      </trkpt>
      <trkpt lat="45.90877" lon="2.93499">
        <ele>875</ele>
        <time>2015-10-21T03:40:49Z</time>
      </trkpt>
      <trkpt lat="45.90924" lon="2.93468">
        <ele>879</ele>
        <time>2015-10-21T03:42:49Z</time>
      </trkpt>
      <trkpt lat="45.90952" lon="2.93459">
        <ele>880</ele>
        <time>2015-10-21T03:44:49Z</time>
      </trkpt>
      <trkpt lat="45.91006" lon="2.93439">
        <ele>882</ele>
        <time>2015-10-21T03:46:49Z</time>
      </trkpt>
      <trkpt lat="45.91053" lon="2.93406">
        <ele>886</ele>
        <time>2015-10-21T03:48:49Z</time>
      </trkpt>
      <trkpt lat="45.9101" lon="2.93357">
        <ele>887</ele>
        <time>2015-10-21T03:50:49Z</time>
      </trkpt>
      <trkpt lat="45.91038" lon="2.93321">
        <ele>890</ele>
        <time>2015-10-21T03:52:49Z</time>
      </trkpt>
      <trkpt lat="45.9109" lon="2.93256">
        <ele>895</ele>
        <time>2015-10-21T03:54:49Z</time>
      </trkpt>
      <trkpt lat="45.91102" lon="2.93181">
        <ele>900</ele>
        <time>2015-10-21T03:56:49Z</time>
      </trkpt>
      <trkpt lat="45.91114" lon="2.93026">
        <ele>907</ele>
        <time>2015-10-21T03:58:49Z</time>
      </trkpt>
      <trkpt lat="45.9112" lon="2.92958">
        <ele>908</ele>
        <time>2015-10-21T04:00:49Z</time>
      </trkpt>
      <trkpt lat="45.91129" lon="2.9287">
        <ele>913</ele>
        <time>2015-10-21T04:02:49Z</time>
      </trkpt>
      <trkpt lat="45.9114" lon="2.92835">
        <ele>917</ele>
        <time>2015-10-21T04:04:49Z</time>
      </trkpt>
      <trkpt lat="45.91161" lon="2.92791">
        <ele>921</ele>
        <time>2015-10-21T04:06:49Z</time>
      </trkpt>
      <trkpt lat="45.91184" lon="2.92746">
        <ele>923</ele>
        <time>2015-10-21T04:08:49Z</time>
      </trkpt>
      <trkpt lat="45.91216" lon="2.92714">
        <ele>926</ele>
        <time>2015-10-21T04:10:49Z</time>
      </trkpt>
      <trkpt lat="45.91231" lon="2.92691">
        <ele>927</ele>
        <time>2015-10-21T04:12:49Z</time>
      </trkpt>
      <trkpt lat="45.91269" lon="2.92681">
        <ele>932</ele>
        <time>2015-10-21T04:14:49Z</time>
      </trkpt>
      <trkpt lat="45.91305" lon="2.92673">
        <ele>936</ele>
        <time>2015-10-21T04:16:49Z</time>
      </trkpt>
      <trkpt lat="45.91317" lon="2.92689">
        <ele>938</ele>
        <time>2015-10-21T04:18:49Z</time>
      </trkpt>
      <trkpt lat="45.91346" lon="2.92753">
        <ele>948</ele>
        <time>2015-10-21T04:20:49Z</time>
      </trkpt>
      <trkpt lat="45.91325" lon="2.92676">
        <ele>939</ele>
        <time>2015-10-21T04:22:49Z</time>
      </trkpt>
      <trkpt lat="45.91353" lon="2.92628">
        <ele>943</ele>
        <time>2015-10-21T04:24:49Z</time>
      </trkpt>
      <trkpt lat="45.91383" lon="2.92602">
        <ele>949</ele>
        <time>2015-10-21T04:26:49Z</time>
      </trkpt>
      <trkpt lat="45.91432" lon="2.92579">
        <ele>956</ele>
        <time>2015-10-21T04:28:49Z</time>
      </trkpt>
      <trkpt lat="45.91461" lon="2.92556">
        <ele>958</ele>
        <time>2015-10-21T04:30:49Z</time>
      </trkpt>
      <trkpt lat="45.91458" lon="2.92612">
        <ele>963</ele>
        <time>2015-10-21T04:32:49Z</time>
      </trkpt>
      <trkpt lat="45.91446" lon="2.92651">
        <ele>965</ele>
        <time>2015-10-21T04:34:49Z</time>
      </trkpt>
      <trkpt lat="45.9142" lon="2.92697">
        <ele>966</ele>
        <time>2015-10-21T04:36:49Z</time>
      </trkpt>
      <trkpt lat="45.91399" lon="2.92724">
        <ele>963</ele>
        <time>2015-10-21T04:38:49Z</time>
      </trkpt>
      <trkpt lat="45.91436" lon="2.92711">
        <ele>969</ele>
        <time>2015-10-21T04:40:49Z</time>
      </trkpt>
      <trkpt lat="45.91475" lon="2.92697">
        <ele>971</ele>
        <time>2015-10-21T04:42:49Z</time>
      </trkpt>
      <trkpt lat="45.91497" lon="2.9269">
        <ele>973</ele>
        <time>2015-10-21T04:44:49Z</time>
      </trkpt>
      <trkpt lat="45.91517" lon="2.92704">
        <ele>973</ele>
        <time>2015-10-21T04:46:49Z</time>
      </trkpt>
      <trkpt lat="45.91549" lon="2.92712">
        <ele>972</ele>
        <time>2015-10-21T04:48:49Z</time>
      </trkpt>
      <trkpt lat="45.91559" lon="2.92819">
        <ele>970</ele>
        <time>2015-10-21T04:50:49Z</time>
      </trkpt>
      <trkpt lat="45.91572" lon="2.92992">
        <ele>961</ele>
        <time>2015-10-21T04:52:49Z</time>
      </trkpt>
      <trkpt lat="45.91584" lon="2.93021">
        <ele>958</ele>
        <time>2015-10-21T04:54:49Z</time>
      </trkpt>
      <trkpt lat="45.91617" lon="2.93004">
        <ele>959</ele>
        <time>2015-10-21T04:56:49Z</time>
      </trkpt>
      <trkpt lat="45.91639" lon="2.92967">
        <ele>962</ele>
        <time>2015-10-21T04:58:49Z</time>
      </trkpt>
      <trkpt lat="45.91667" lon="2.92925">
        <ele>966</ele>
        <time>2015-10-21T05:00:49Z</time>
      </trkpt>
      <trkpt lat="45.91688" lon="2.92867">
        <ele>968</ele>
        <time>2015-10-21T05:02:49Z</time>
      </trkpt>
      <trkpt lat="45.91732" lon="2.92722">
        <ele>962</ele>
        <time>2015-10-21T05:04:49Z</time>
      </trkpt>
      <trkpt lat="45.9174" lon="2.92693">
        <ele>960</ele>
        <time>2015-10-21T05:06:49Z</time>
      </trkpt>
      <trkpt lat="45.91794" lon="2.92619">
        <ele>953</ele>
        <time>2015-10-21T05:08:49Z</time>
      </trkpt>
      <trkpt lat="45.91821" lon="2.9258">
        <ele>950</ele>
        <time>2015-10-21T05:10:49Z</time>
      </trkpt>
      <trkpt lat="45.91879" lon="2.92525">
        <ele>949</ele>
        <time>2015-10-21T05:12:49Z</time>
      </trkpt>
      <trkpt lat="45.91906" lon="2.92453">
        <ele>948</ele>
        <time>2015-10-21T05:14:49Z</time>
      </trkpt>
      <trkpt lat="45.91926" lon="2.92382">
        <ele>946</ele>
        <time>2015-10-21T05:16:49Z</time>
      </trkpt>
      <trkpt lat="45.91935" lon="2.92343">
        <ele>944</ele>
        <time>2015-10-21T05:18:49Z</time>
      </trkpt>
      <trkpt lat="45.91887" lon="2.92272">
        <ele>940</ele>
        <time>2015-10-21T05:20:49Z</time>
      </trkpt>
      <trkpt lat="45.91862" lon="2.92246">
        <ele>938</ele>
        <time>2015-10-21T05:22:49Z</time>
      </trkpt>
      <trkpt lat="45.91839" lon="2.92189">
        <ele>934</ele>
        <time>2015-10-21T05:24:49Z</time>
      </trkpt>
      <trkpt lat="45.91827" lon="2.92144">
        <ele>929</ele>
        <time>2015-10-21T05:26:49Z</time>
      </trkpt>
      <trkpt lat="45.91838" lon="2.92107">
        <ele>926</ele>
        <time>2015-10-21T05:28:49Z</time>
      </trkpt>
      <trkpt lat="45.91843" lon="2.92071">
        <ele>923</ele>
        <time>2015-10-21T05:30:49Z</time>
      </trkpt>
      <trkpt lat="45.91839" lon="2.92027">
        <ele>919</ele>
        <time>2015-10-21T05:32:49Z</time>
      </trkpt>
      <trkpt lat="45.91835" lon="2.91981">
        <ele>914</ele>
        <time>2015-10-21T05:34:49Z</time>
      </trkpt>
      <trkpt lat="45.91836" lon="2.91942">
        <ele>910</ele>
        <time>2015-10-21T05:36:49Z</time>
      </trkpt>
      <trkpt lat="45.91816" lon="2.91873">
        <ele>902</ele>
        <time>2015-10-21T05:38:49Z</time>
      </trkpt>
      <trkpt lat="45.91822" lon="2.91829">
        <ele>900</ele>
        <time>2015-10-21T05:40:49Z</time>
      </trkpt>
      <trkpt lat="45.91836" lon="2.91778">
        <ele>897</ele>
        <time>2015-10-21T05:42:49Z</time>
      </trkpt>
      <trkpt lat="45.9185" lon="2.91736">
        <ele>895</ele>
        <time>2015-10-21T05:44:49Z</time>
      </trkpt>
      <trkpt lat="45.91871" lon="2.91689">
        <ele>894</ele>
        <time>2015-10-21T05:46:49Z</time>
      </trkpt>
      <trkpt lat="45.91887" lon="2.91639">
        <ele>893</ele>
        <time>2015-10-21T05:48:49Z</time>
      </trkpt>
      <trkpt lat="45.91892" lon="2.91622">
        <ele>893</ele>
        <time>2015-10-21T05:50:49Z</time>
      </trkpt>
      <trkpt lat="45.91894" lon="2.91585">
        <ele>891</ele>
        <time>2015-10-21T05:52:49Z</time>
      </trkpt>
      <trkpt lat="45.91904" lon="2.9153">
        <ele>889</ele>
        <time>2015-10-21T05:54:49Z</time>
      </trkpt>
      <trkpt lat="45.91913" lon="2.91454">
        <ele>888</ele>
        <time>2015-10-21T05:56:49Z</time>
      </trkpt>
      <trkpt lat="45.91904" lon="2.91386">
        <ele>887</ele>
        <time>2015-10-21T05:58:49Z</time>
      </trkpt>
      <trkpt lat="45.91893" lon="2.91345">
        <ele>885</ele>
        <time>2015-10-21T06:00:49Z</time>
      </trkpt>
      <trkpt lat="45.91884" lon="2.91297">
        <ele>882</ele>
        <time>2015-10-21T06:02:49Z</time>
      </trkpt>
      <trkpt lat="45.91876" lon="2.91264">
        <ele>880</ele>
        <time>2015-10-21T06:04:49Z</time>
      </trkpt>
      <trkpt lat="45.91885" lon="2.9123">
        <ele>880</ele>
        <time>2015-10-21T06:06:49Z</time>
      </trkpt>
      <trkpt lat="45.919" lon="2.91204">
        <ele>881</ele>
        <time>2015-10-21T06:08:49Z</time>
      </trkpt>
      <trkpt lat="45.91916" lon="2.91175">
        <ele>882</ele>
        <time>2015-10-21T06:10:49Z</time>
      </trkpt>
      <trkpt lat="45.91923" lon="2.9115">
        <ele>881</ele>
        <time>2015-10-21T06:12:49Z</time>
      </trkpt>
      <trkpt lat="45.91929" lon="2.9107">
        <ele>878</ele>
        <time>2015-10-21T06:14:49Z</time>
      </trkpt>
      <trkpt lat="45.91928" lon="2.90998">
        <ele>874</ele>
        <time>2015-10-21T06:16:49Z</time>
      </trkpt>
      <trkpt lat="45.91923" lon="2.90944">
        <ele>870</ele>
        <time>2015-10-21T06:18:49Z</time>
      </trkpt>
      <trkpt lat="45.91923" lon="2.90896">
        <ele>868</ele>
        <time>2015-10-21T06:20:49Z</time>
      </trkpt>
      <trkpt lat="45.91917" lon="2.90872">
        <ele>866</ele>
        <time>2015-10-21T06:22:49Z</time>
      </trkpt>
      <trkpt lat="45.919" lon="2.90885">
        <ele>865</ele>
        <time>2015-10-21T06:24:49Z</time>
      </trkpt>
      <trkpt lat="45.91885" lon="2.90886">
        <ele>864</ele>
        <time>2015-10-21T06:26:49Z</time>
      </trkpt>
      <trkpt lat="45.91875" lon="2.90874">
        <ele>863</ele>
        <time>2015-10-21T06:28:49Z</time>
      </trkpt>
      <trkpt lat="45.91853" lon="2.90849">
        <ele>861</ele>
        <time>2015-10-21T06:30:49Z</time>
      </trkpt>
      <trkpt lat="45.91838" lon="2.90851">
        <ele>859</ele>
        <time>2015-10-21T06:32:49Z</time>
      </trkpt>
      <trkpt lat="45.91814" lon="2.90867">
        <ele>857</ele>
        <time>2015-10-21T06:34:49Z</time>
      </trkpt>
      <trkpt lat="45.91793" lon="2.90906">
        <ele>855</ele>
        <time>2015-10-21T06:36:49Z</time>
      </trkpt>
      <trkpt lat="45.91798" lon="2.90953">
        <ele>855</ele>
        <time>2015-10-21T06:38:49Z</time>
      </trkpt>
      <trkpt lat="45.91788" lon="2.90985">
        <ele>854</ele>
        <time>2015-10-21T06:40:49Z</time>
      </trkpt>
      <trkpt lat="45.91771" lon="2.91009">
        <ele>852</ele>
        <time>2015-10-21T06:42:49Z</time>
      </trkpt>
      <trkpt lat="45.91753" lon="2.91019">
        <ele>850</ele>
        <time>2015-10-21T06:44:49Z</time>
      </trkpt>
      <trkpt lat="45.9173" lon="2.91031">
        <ele>847</ele>
        <time>2015-10-21T06:46:49Z</time>
      </trkpt>
      <trkpt lat="45.91716" lon="2.91066">
        <ele>846</ele>
        <time>2015-10-21T06:48:49Z</time>
      </trkpt>
      <trkpt lat="45.91702" lon="2.91091">
        <ele>845</ele>
        <time>2015-10-21T06:50:49Z</time>
      </trkpt>
      <trkpt lat="45.9169" lon="2.91128">
        <ele>845</ele>
        <time>2015-10-21T06:52:49Z</time>
      </trkpt>
      <trkpt lat="45.91679" lon="2.91162">
        <ele>845</ele>
        <time>2015-10-21T06:54:49Z</time>
      </trkpt>
      <trkpt lat="45.91669" lon="2.91201">
        <ele>845</ele>
        <time>2015-10-21T06:56:49Z</time>
      </trkpt>
      <trkpt lat="45.91659" lon="2.91238">
        <ele>846</ele>
        <time>2015-10-21T06:58:49Z</time>
      </trkpt>
      <trkpt lat="45.91638" lon="2.9126">
        <ele>849</ele>
        <time>2015-10-21T07:00:49Z</time>
      </trkpt>
      <trkpt lat="45.91646" lon="2.91305">
        <ele>851</ele>
        <time>2015-10-21T07:02:49Z</time>
      </trkpt>
      <trkpt lat="45.91625" lon="2.91302">
        <ele>852</ele>
        <time>2015-10-21T07:04:49Z</time>
      </trkpt>
      <trkpt lat="45.91609" lon="2.91294">
        <ele>853</ele>
        <time>2015-10-21T07:06:49Z</time>
      </trkpt>
      <trkpt lat="45.91591" lon="2.91296">
        <ele>854</ele>
        <time>2015-10-21T07:08:49Z</time>
      </trkpt>
      <trkpt lat="45.91568" lon="2.91244">
        <ele>854</ele>
        <time>2015-10-21T07:10:49Z</time>
      </trkpt>
      <trkpt lat="45.91538" lon="2.91258">
        <ele>861</ele>
        <time>2015-10-21T07:12:49Z</time>
      </trkpt>
      <trkpt lat="45.91527" lon="2.91351">
        <ele>869</ele>
        <time>2015-10-21T07:14:49Z</time>
      </trkpt>
      <trkpt lat="45.91514" lon="2.91365">
        <ele>872</ele>
        <time>2015-10-21T07:16:49Z</time>
      </trkpt>
      <trkpt lat="45.91491" lon="2.91534">
        <ele>882</ele>
        <time>2015-10-21T07:18:49Z</time>
      </trkpt>
      <trkpt lat="45.91441" lon="2.9156">
        <ele>893</ele>
        <time>2015-10-21T07:20:49Z</time>
      </trkpt>
      <trkpt lat="45.91409" lon="2.91521">
        <ele>897</ele>
        <time>2015-10-21T07:22:49Z</time>
      </trkpt>
      <trkpt lat="45.91374" lon="2.91443">
        <ele>896</ele>
        <time>2015-10-21T07:24:49Z</time>
      </trkpt>
      <trkpt lat="45.9134" lon="2.91401">
        <ele>896</ele>
        <time>2015-10-21T07:26:49Z</time>
      </trkpt>
      <trkpt lat="45.9132" lon="2.91367">
        <ele>893</ele>
        <time>2015-10-21T07:28:49Z</time>
      </trkpt>
      <trkpt lat="45.91302" lon="2.91332">
        <ele>889</ele>
        <time>2015-10-21T07:30:49Z</time>
      </trkpt>
      <trkpt lat="45.91223" lon="2.91332">
        <ele>881</ele>
        <time>2015-10-21T07:32:49Z</time>
      </trkpt>
      <trkpt lat="45.91165" lon="2.91334">
        <ele>874</ele>
        <time>2015-10-21T07:34:49Z</time>
      </trkpt>
      <trkpt lat="45.9113" lon="2.9133">
        <ele>869</ele>
        <time>2015-10-21T07:36:49Z</time>
      </trkpt>
      <trkpt lat="45.91111" lon="2.91334">
        <ele>867</ele>
        <time>2015-10-21T07:38:49Z</time>
      </trkpt>
      <trkpt lat="45.9108" lon="2.91377">
        <ele>866</ele>
        <time>2015-10-21T07:40:49Z</time>
      </trkpt>
      <trkpt lat="45.91034" lon="2.91364">
        <ele>860</ele>
        <time>2015-10-21T07:42:49Z</time>
      </trkpt>
      <trkpt lat="45.90992" lon="2.91378">
        <ele>857</ele>
        <time>2015-10-21T07:44:49Z</time>
      </trkpt>
      <trkpt lat="45.90964" lon="2.91358">
        <ele>852</ele>
        <time>2015-10-21T07:46:49Z</time>
      </trkpt>
      <trkpt lat="45.90937" lon="2.91314">
        <ele>846</ele>
        <time>2015-10-21T07:48:49Z</time>
      </trkpt>
      <trkpt lat="45.90922" lon="2.91308">
        <ele>844</ele>
        <time>2015-10-21T07:50:49Z</time>
      </trkpt>
      <trkpt lat="45.90899" lon="2.91368">
        <ele>846</ele>
        <time>2015-10-21T07:52:49Z</time>
      </trkpt>
      <trkpt lat="45.90863" lon="2.91355">
        <ele>843</ele>
        <time>2015-10-21T07:54:49Z</time>
      </trkpt>
      <trkpt lat="45.90819" lon="2.91381">
        <ele>840</ele>
        <time>2015-10-21T07:56:49Z</time>
      </trkpt>
      <trkpt lat="45.90793" lon="2.91424">
        <ele>838</ele>
        <time>2015-10-21T07:58:49Z</time>
      </trkpt>
      <trkpt lat="45.90787" lon="2.91497">
        <ele>836</ele>
        <time>2015-10-21T08:00:49Z</time>
      </trkpt>
      <trkpt lat="45.90772" lon="2.91514">
        <ele>835</ele>
        <time>2015-10-21T08:02:49Z</time>
      </trkpt>
      <trkpt lat="45.90726" lon="2.91515">
        <ele>833</ele>
        <time>2015-10-21T08:04:49Z</time>
      </trkpt>
      <trkpt lat="45.90702" lon="2.91525">
        <ele>833</ele>
        <time>2015-10-21T08:06:49Z</time>
      </trkpt>
      <trkpt lat="45.90678" lon="2.91562">
        <ele>834</ele>
        <time>2015-10-21T08:08:49Z</time>
      </trkpt>
      <trkpt lat="45.90657" lon="2.91591">
        <ele>835</ele>
        <time>2015-10-21T08:10:49Z</time>
      </trkpt>
      <trkpt lat="45.90606" lon="2.91641">
        <ele>838</ele>
        <time>2015-10-21T08:12:49Z</time>
      </trkpt>
      <trkpt lat="45.90584" lon="2.91657">
        <ele>839</ele>
        <time>2015-10-21T08:14:49Z</time>
      </trkpt>
      <trkpt lat="45.90507" lon="2.91661">
        <ele>842</ele>
        <time>2015-10-21T08:16:49Z</time>
      </trkpt>
      <trkpt lat="45.90446" lon="2.91706">
        <ele>843</ele>
        <time>2015-10-21T08:18:49Z</time>
      </trkpt>
      <trkpt lat="45.90394" lon="2.91745">
        <ele>845</ele>
        <time>2015-10-21T08:20:49Z</time>
      </trkpt>
      <trkpt lat="45.90367" lon="2.91757">
        <ele>845</ele>
        <time>2015-10-21T08:22:49Z</time>
      </trkpt>
      <trkpt lat="45.90339" lon="2.91744">
        <ele>846</ele>
        <time>2015-10-21T08:24:49Z</time>
      </trkpt>
      <trkpt lat="45.9028" lon="2.91655">
        <ele>850</ele>
        <time>2015-10-21T08:26:49Z</time>
      </trkpt>
      <trkpt lat="45.90215" lon="2.91593">
        <ele>852</ele>
        <time>2015-10-21T08:28:49Z</time>
      </trkpt>
      <trkpt lat="45.90209" lon="2.91571">
        <ele>852</ele>
        <time>2015-10-21T08:30:49Z</time>
      </trkpt>
      <trkpt lat="45.90207" lon="2.91514">
        <ele>852</ele>
        <time>2015-10-21T08:32:49Z</time>
      </trkpt>
      <trkpt lat="45.90139" lon="2.9146">
        <ele>852</ele>
        <time>2015-10-21T08:34:49Z</time>
      </trkpt>
      <trkpt lat="45.90047" lon="2.91399">
        <ele>854</ele>
        <time>2015-10-21T08:36:49Z</time>
      </trkpt>
      <trkpt lat="45.8998" lon="2.91365">
        <ele>855</ele>
        <time>2015-10-21T08:38:49Z</time>
      </trkpt>
      <trkpt lat="45.8983" lon="2.9132">
        <ele>854</ele>
        <time>2015-10-21T08:40:49Z</time>
      </trkpt>
      <trkpt lat="45.89756" lon="2.91302">
        <ele>852</ele>
        <time>2015-10-21T08:42:49Z</time>
      </trkpt>
      <trkpt lat="45.89644" lon="2.91305">
        <ele>852</ele>
        <time>2015-10-21T08:44:49Z</time>
      </trkpt>
      <trkpt lat="45.89597" lon="2.91308">
        <ele>853</ele>
        <time>2015-10-21T08:46:49Z</time>
      </trkpt>
      <trkpt lat="45.89528" lon="2.91309">
        <ele>848</ele>
        <time>2015-10-21T08:48:49Z</time>
      </trkpt>
      <trkpt lat="45.89489" lon="2.91293">
        <ele>845</ele>
        <time>2015-10-21T08:50:49Z</time>
      </trkpt>
      <trkpt lat="45.89448" lon="2.91293">
        <ele>843</ele>
        <time>2015-10-21T08:52:49Z</time>
      </trkpt>
      <trkpt lat="45.89391" lon="2.91294">
        <ele>843</ele>
        <time>2015-10-21T08:54:49Z</time>
      </trkpt>
      <trkpt lat="45.89336" lon="2.91302">
        <ele>844</ele>
        <time>2015-10-21T08:56:49Z</time>
      </trkpt>
      <trkpt lat="45.89283" lon="2.914">
        <ele>846</ele>
        <time>2015-10-21T08:58:49Z</time>
      </trkpt>
      <trkpt lat="45.89134" lon="2.91284">
        <ele>847</ele>
        <time>2015-10-21T09:00:49Z</time>
      </trkpt>
      <trkpt lat="45.89098" lon="2.91267">
        <ele>848</ele>
        <time>2015-10-21T09:02:49Z</time>
      </trkpt>
      <trkpt lat="45.89063" lon="2.91286">
        <ele>848</ele>
        <time>2015-10-21T09:04:49Z</time>
      </trkpt>
      <trkpt lat="45.89039" lon="2.91317">
        <ele>848</ele>
        <time>2015-10-21T09:06:49Z</time>
      </trkpt>
      <trkpt lat="45.89046" lon="2.9134">
        <ele>848</ele>
        <time>2015-10-21T09:08:49Z</time>
      </trkpt>
      <trkpt lat="45.89047" lon="2.91372">
        <ele>847</ele>
        <time>2015-10-21T09:10:49Z</time>
      </trkpt>
      <trkpt lat="45.89046" lon="2.91396">
        <ele>846</ele>
        <time>2015-10-21T09:12:49Z</time>
      </trkpt>
      <trkpt lat="45.89029" lon="2.91427">
        <ele>847</ele>
        <time>2015-10-21T09:14:49Z</time>
      </trkpt>
      <trkpt lat="45.8901" lon="2.91458">
        <ele>847</ele>
        <time>2015-10-21T09:16:49Z</time>
      </trkpt>
      <trkpt lat="45.88989" lon="2.91482">
        <ele>847</ele>
        <time>2015-10-21T09:18:49Z</time>
      </trkpt>
      <trkpt lat="45.88969" lon="2.91502">
        <ele>847</ele>
        <time>2015-10-21T09:20:49Z</time>
      </trkpt>
      <trkpt lat="45.88947" lon="2.91514">
        <ele>849</ele>
        <time>2015-10-21T09:22:49Z</time>
      </trkpt>
      <trkpt lat="45.88948" lon="2.91528">
        <ele>849</ele>
        <time>2015-10-21T09:24:49Z</time>
      </trkpt>
      <trkpt lat="45.8897" lon="2.91524">
        <ele>847</ele>
        <time>2015-10-21T09:26:49Z</time>
      </trkpt>
      <trkpt lat="45.88996" lon="2.91532">
        <ele>845</ele>
        <time>2015-10-21T09:28:49Z</time>
      </trkpt>
      <trkpt lat="45.89021" lon="2.91544">
        <ele>844</ele>
        <time>2015-10-21T09:30:49Z</time>
      </trkpt>
      <trkpt lat="45.8903" lon="2.91555">
        <ele>844</ele>
        <time>2015-10-21T09:32:49Z</time>
      </trkpt>
      <trkpt lat="45.89032" lon="2.91572">
        <ele>844</ele>
        <time>2015-10-21T09:34:49Z</time>
      </trkpt>
      <trkpt lat="45.89029" lon="2.91589">
        <ele>844</ele>
        <time>2015-10-21T09:36:49Z</time>
      </trkpt>
      <trkpt lat="45.89017" lon="2.91592">
        <ele>845</ele>
        <time>2015-10-21T09:38:49Z</time>
      </trkpt>
      <trkpt lat="45.89003" lon="2.91613">
        <ele>845</ele>
        <time>2015-10-21T09:40:49Z</time>
      </trkpt>
      <trkpt lat="45.88992" lon="2.91644">
        <ele>846</ele>
        <time>2015-10-21T09:42:49Z</time>
      </trkpt>
      <trkpt lat="45.88968" lon="2.91652">
        <ele>847</ele>
        <time>2015-10-21T09:44:49Z</time>
      </trkpt>
      <trkpt lat="45.88948" lon="2.91607">
        <ele>848</ele>
        <time>2015-10-21T09:46:49Z</time>
      </trkpt>
      <trkpt lat="45.88929" lon="2.91561">
        <ele>849</ele>
        <time>2015-10-21T09:48:49Z</time>
      </trkpt>
      <trkpt lat="45.88884" lon="2.91548">
        <ele>852</ele>
        <time>2015-10-21T09:50:49Z</time>
      </trkpt>
      <trkpt lat="45.8884" lon="2.91532">
        <ele>853</ele>
        <time>2015-10-21T09:52:49Z</time>
      </trkpt>
      <trkpt lat="45.88818" lon="2.91513">
        <ele>853</ele>
        <time>2015-10-21T09:54:49Z</time>
      </trkpt>
      <trkpt lat="45.88768" lon="2.91464">
        <ele>854</ele>
        <time>2015-10-21T09:56:49Z</time>
      </trkpt>
      <trkpt lat="45.88746" lon="2.91436">
        <ele>855</ele>
        <time>2015-10-21T09:58:49Z</time>
      </trkpt>
      <trkpt lat="45.88739" lon="2.91386">
        <ele>855</ele>
        <time>2015-10-21T10:00:49Z</time>
      </trkpt>
      <trkpt lat="45.88705" lon="2.91387">
        <ele>857</ele>
        <time>2015-10-21T10:02:49Z</time>
      </trkpt>
      <trkpt lat="45.88671" lon="2.91399">
        <ele>858</ele>
        <time>2015-10-21T10:04:49Z</time>
      </trkpt>
      <trkpt lat="45.88652" lon="2.9137">
        <ele>859</ele>
        <time>2015-10-21T10:06:49Z</time>
      </trkpt>
    </trkseg>
  </trk>
  <trk>
    <name><![CDATA[--Pulvérières-- OR-5380777:ser-jb08-l]]></name>
    <trkseg>
      <trkpt lat="45.88659" lon="2.91379">
        <ele>859</ele>
        <time>2015-10-20T08:25:02Z</time>
      </trkpt>
      <trkpt lat="45.88653" lon="2.91357">
        <ele>859</ele>
        <time>2015-10-20T08:27:02Z</time>
      </trkpt>
      <trkpt lat="45.88662" lon="2.91271">
        <ele>859</ele>
        <time>2015-10-20T08:29:02Z</time>
      </trkpt>
      <trkpt lat="45.88665" lon="2.91255">
        <ele>859</ele>
        <time>2015-10-20T08:31:02Z</time>
      </trkpt>
      <trkpt lat="45.88678" lon="2.91251">
        <ele>859</ele>
        <time>2015-10-20T08:33:02Z</time>
      </trkpt>
      <trkpt lat="45.88685" lon="2.91221">
        <ele>858</ele>
        <time>2015-10-20T08:35:02Z</time>
      </trkpt>
      <trkpt lat="45.88676" lon="2.91199">
        <ele>858</ele>
        <time>2015-10-20T08:37:02Z</time>
      </trkpt>
      <trkpt lat="45.88633" lon="2.91039">
        <ele>855</ele>
        <time>2015-10-20T08:39:02Z</time>
      </trkpt>
      <trkpt lat="45.88625" lon="2.90984">
        <ele>853</ele>
        <time>2015-10-20T08:41:02Z</time>
      </trkpt>
      <trkpt lat="45.88603" lon="2.90995">
        <ele>854</ele>
        <time>2015-10-20T08:43:02Z</time>
      </trkpt>
      <trkpt lat="45.88568" lon="2.91017">
        <ele>857</ele>
        <time>2015-10-20T08:45:02Z</time>
      </trkpt>
      <trkpt lat="45.8854" lon="2.91027">
        <ele>860</ele>
        <time>2015-10-20T08:47:02Z</time>
      </trkpt>
      <trkpt lat="45.88516" lon="2.91014">
        <ele>861</ele>
        <time>2015-10-20T08:49:02Z</time>
      </trkpt>
      <trkpt lat="45.88495" lon="2.90999">
        <ele>862</ele>
        <time>2015-10-20T08:51:02Z</time>
      </trkpt>
      <trkpt lat="45.8849" lon="2.90966">
        <ele>860</ele>
        <time>2015-10-20T08:53:02Z</time>
      </trkpt>
      <trkpt lat="45.88484" lon="2.90938">
        <ele>858</ele>
        <time>2015-10-20T08:55:02Z</time>
      </trkpt>
      <trkpt lat="45.88473" lon="2.9091">
        <ele>857</ele>
        <time>2015-10-20T08:57:02Z</time>
      </trkpt>
      <trkpt lat="45.88456" lon="2.9089">
        <ele>857</ele>
        <time>2015-10-20T08:59:02Z</time>
      </trkpt>
      <trkpt lat="45.88443" lon="2.90865">
        <ele>855</ele>
        <time>2015-10-20T09:01:02Z</time>
      </trkpt>
      <trkpt lat="45.88433" lon="2.90831">
        <ele>852</ele>
        <time>2015-10-20T09:03:02Z</time>
      </trkpt>
      <trkpt lat="45.88434" lon="2.90819">
        <ele>851</ele>
        <time>2015-10-20T09:05:02Z</time>
      </trkpt>
      <trkpt lat="45.88412" lon="2.90787">
        <ele>850</ele>
        <time>2015-10-20T09:07:02Z</time>
      </trkpt>
      <trkpt lat="45.88393" lon="2.90764">
        <ele>850</ele>
        <time>2015-10-20T09:09:02Z</time>
      </trkpt>
      <trkpt lat="45.88356" lon="2.90733">
        <ele>849</ele>
        <time>2015-10-20T09:11:02Z</time>
      </trkpt>
      <trkpt lat="45.88322" lon="2.90712">
        <ele>849</ele>
        <time>2015-10-20T09:13:02Z</time>
      </trkpt>
      <trkpt lat="45.88302" lon="2.90707">
        <ele>848</ele>
        <time>2015-10-20T09:15:02Z</time>
      </trkpt>
      <trkpt lat="45.88278" lon="2.90712">
        <ele>849</ele>
        <time>2015-10-20T09:17:02Z</time>
      </trkpt>
      <trkpt lat="45.88252" lon="2.90705">
        <ele>849</ele>
        <time>2015-10-20T09:19:02Z</time>
      </trkpt>
      <trkpt lat="45.88231" lon="2.9069">
        <ele>847</ele>
        <time>2015-10-20T09:21:02Z</time>
      </trkpt>
      <trkpt lat="45.88187" lon="2.90671">
        <ele>843</ele>
        <time>2015-10-20T09:23:02Z</time>
      </trkpt>
      <trkpt lat="45.88165" lon="2.90675">
        <ele>842</ele>
        <time>2015-10-20T09:25:02Z</time>
      </trkpt>
      <trkpt lat="45.88108" lon="2.90695">
        <ele>839</ele>
        <time>2015-10-20T09:27:02Z</time>
      </trkpt>
      <trkpt lat="45.8807" lon="2.90677">
        <ele>836</ele>
        <time>2015-10-20T09:29:02Z</time>
      </trkpt>
      <trkpt lat="45.88023" lon="2.90662">
        <ele>830</ele>
        <time>2015-10-20T09:31:02Z</time>
      </trkpt>
      <trkpt lat="45.88005" lon="2.90659">
        <ele>828</ele>
        <time>2015-10-20T09:33:02Z</time>
      </trkpt>
      <trkpt lat="45.87973" lon="2.90677">
        <ele>827</ele>
        <time>2015-10-20T09:35:02Z</time>
      </trkpt>
      <trkpt lat="45.87937" lon="2.90701">
        <ele>826</ele>
        <time>2015-10-20T09:37:02Z</time>
      </trkpt>
      <trkpt lat="45.87915" lon="2.90713">
        <ele>827</ele>
        <time>2015-10-20T09:39:02Z</time>
      </trkpt>
      <trkpt lat="45.87856" lon="2.9068">
        <ele>832</ele>
        <time>2015-10-20T09:41:02Z</time>
      </trkpt>
      <trkpt lat="45.87815" lon="2.9067">
        <ele>836</ele>
        <time>2015-10-20T09:43:02Z</time>
      </trkpt>
      <trkpt lat="45.87769" lon="2.90677">
        <ele>841</ele>
        <time>2015-10-20T09:45:02Z</time>
      </trkpt>
      <trkpt lat="45.87715" lon="2.9069">
        <ele>842</ele>
        <time>2015-10-20T09:47:02Z</time>
      </trkpt>
      <trkpt lat="45.8768" lon="2.90712">
        <ele>841</ele>
        <time>2015-10-20T09:49:02Z</time>
      </trkpt>
      <trkpt lat="45.87662" lon="2.90673">
        <ele>841</ele>
        <time>2015-10-20T09:51:02Z</time>
      </trkpt>
      <trkpt lat="45.87636" lon="2.90665">
        <ele>842</ele>
        <time>2015-10-20T09:53:02Z</time>
      </trkpt>
      <trkpt lat="45.87612" lon="2.9066">
        <ele>843</ele>
        <time>2015-10-20T09:55:02Z</time>
      </trkpt>
      <trkpt lat="45.87594" lon="2.90638">
        <ele>842</ele>
        <time>2015-10-20T09:57:02Z</time>
      </trkpt>
      <trkpt lat="45.87578" lon="2.90598">
        <ele>841</ele>
        <time>2015-10-20T09:59:02Z</time>
      </trkpt>
      <trkpt lat="45.87543" lon="2.90574">
        <ele>842</ele>
        <time>2015-10-20T10:01:02Z</time>
      </trkpt>
      <trkpt lat="45.87521" lon="2.90561">
        <ele>843</ele>
        <time>2015-10-20T10:03:02Z</time>
      </trkpt>
      <trkpt lat="45.87498" lon="2.90504">
        <ele>843</ele>
        <time>2015-10-20T10:05:02Z</time>
      </trkpt>
      <trkpt lat="45.87475" lon="2.9046">
        <ele>840</ele>
        <time>2015-10-20T10:07:02Z</time>
      </trkpt>
      <trkpt lat="45.87461" lon="2.90422">
        <ele>838</ele>
        <time>2015-10-20T10:09:02Z</time>
      </trkpt>
      <trkpt lat="45.87434" lon="2.90397">
        <ele>835</ele>
        <time>2015-10-20T10:11:02Z</time>
      </trkpt>
      <trkpt lat="45.87398" lon="2.90346">
        <ele>832</ele>
        <time>2015-10-20T10:13:02Z</time>
      </trkpt>
      <trkpt lat="45.87379" lon="2.9031">
        <ele>834</ele>
        <time>2015-10-20T10:15:02Z</time>
      </trkpt>
      <trkpt lat="45.87336" lon="2.90226">
        <ele>840</ele>
        <time>2015-10-20T10:17:02Z</time>
      </trkpt>
      <trkpt lat="45.87336" lon="2.902">
        <ele>841</ele>
        <time>2015-10-20T10:19:02Z</time>
      </trkpt>
      <trkpt lat="45.87362" lon="2.9018">
        <ele>840</ele>
        <time>2015-10-20T10:21:02Z</time>
      </trkpt>
      <trkpt lat="45.87384" lon="2.90173">
        <ele>840</ele>
        <time>2015-10-20T10:23:02Z</time>
      </trkpt>
      <trkpt lat="45.87416" lon="2.90169">
        <ele>839</ele>
        <time>2015-10-20T10:25:02Z</time>
      </trkpt>
      <trkpt lat="45.87475" lon="2.90142">
        <ele>835</ele>
        <time>2015-10-20T10:27:02Z</time>
      </trkpt>
      <trkpt lat="45.87502" lon="2.9012">
        <ele>834</ele>
        <time>2015-10-20T10:29:02Z</time>
      </trkpt>
      <trkpt lat="45.8752" lon="2.90103">
        <ele>832</ele>
        <time>2015-10-20T10:31:02Z</time>
      </trkpt>
      <trkpt lat="45.87547" lon="2.90071">
        <ele>831</ele>
        <time>2015-10-20T10:33:02Z</time>
      </trkpt>
      <trkpt lat="45.87563" lon="2.90056">
        <ele>830</ele>
        <time>2015-10-20T10:35:02Z</time>
      </trkpt>
      <trkpt lat="45.8759" lon="2.90045">
        <ele>828</ele>
        <time>2015-10-20T10:37:02Z</time>
      </trkpt>
      <trkpt lat="45.87619" lon="2.9005">
        <ele>824</ele>
        <time>2015-10-20T10:39:02Z</time>
      </trkpt>
      <trkpt lat="45.87644" lon="2.90052">
        <ele>821</ele>
        <time>2015-10-20T10:41:02Z</time>
      </trkpt>
      <trkpt lat="45.87667" lon="2.90043">
        <ele>819</ele>
        <time>2015-10-20T10:43:02Z</time>
      </trkpt>
      <trkpt lat="45.87679" lon="2.90038">
        <ele>817</ele>
        <time>2015-10-20T10:45:02Z</time>
      </trkpt>
      <trkpt lat="45.87705" lon="2.90018">
        <ele>812</ele>
        <time>2015-10-20T10:47:02Z</time>
      </trkpt>
      <trkpt lat="45.87718" lon="2.90006">
        <ele>809</ele>
        <time>2015-10-20T10:49:02Z</time>
      </trkpt>
      <trkpt lat="45.87731" lon="2.89959">
        <ele>809</ele>
        <time>2015-10-20T10:51:02Z</time>
      </trkpt>
      <trkpt lat="45.87744" lon="2.8992">
        <ele>809</ele>
        <time>2015-10-20T10:53:02Z</time>
      </trkpt>
      <trkpt lat="45.87763" lon="2.89896">
        <ele>807</ele>
        <time>2015-10-20T10:55:02Z</time>
      </trkpt>
      <trkpt lat="45.87774" lon="2.8987">
        <ele>807</ele>
        <time>2015-10-20T10:57:02Z</time>
      </trkpt>
      <trkpt lat="45.87786" lon="2.89826">
        <ele>807</ele>
        <time>2015-10-20T10:59:02Z</time>
      </trkpt>
      <trkpt lat="45.87801" lon="2.89776">
        <ele>803</ele>
        <time>2015-10-20T11:01:02Z</time>
      </trkpt>
      <trkpt lat="45.87809" lon="2.89738">
        <ele>800</ele>
        <time>2015-10-20T11:03:02Z</time>
      </trkpt>
      <trkpt lat="45.87821" lon="2.89694">
        <ele>795</ele>
        <time>2015-10-20T11:05:02Z</time>
      </trkpt>
      <trkpt lat="45.87791" lon="2.89662">
        <ele>797</ele>
        <time>2015-10-20T11:07:02Z</time>
      </trkpt>
      <trkpt lat="45.87777" lon="2.89631">
        <ele>796</ele>
        <time>2015-10-20T11:09:02Z</time>
      </trkpt>
      <trkpt lat="45.8775" lon="2.89584">
        <ele>793</ele>
        <time>2015-10-20T11:11:02Z</time>
      </trkpt>
      <trkpt lat="45.87718" lon="2.8956">
        <ele>794</ele>
        <time>2015-10-20T11:13:02Z</time>
      </trkpt>
      <trkpt lat="45.87675" lon="2.89546">
        <ele>796</ele>
        <time>2015-10-20T11:15:02Z</time>
      </trkpt>
      <trkpt lat="45.87625" lon="2.89503">
        <ele>793</ele>
        <time>2015-10-20T11:17:02Z</time>
      </trkpt>
      <trkpt lat="45.87608" lon="2.89541">
        <ele>801</ele>
        <time>2015-10-20T11:19:02Z</time>
      </trkpt>
      <trkpt lat="45.87599" lon="2.89587">
        <ele>810</ele>
        <time>2015-10-20T11:21:02Z</time>
      </trkpt>
      <trkpt lat="45.87579" lon="2.8959">
        <ele>813</ele>
        <time>2015-10-20T11:23:02Z</time>
      </trkpt>
      <trkpt lat="45.87541" lon="2.89591">
        <ele>815</ele>
        <time>2015-10-20T11:25:02Z</time>
      </trkpt>
      <trkpt lat="45.87499" lon="2.8961">
        <ele>821</ele>
        <time>2015-10-20T11:27:02Z</time>
      </trkpt>
      <trkpt lat="45.87461" lon="2.89646">
        <ele>826</ele>
        <time>2015-10-20T11:29:02Z</time>
      </trkpt>
      <trkpt lat="45.87439" lon="2.89667">
        <ele>828</ele>
        <time>2015-10-20T11:31:02Z</time>
      </trkpt>
      <trkpt lat="45.87428" lon="2.89692">
        <ele>831</ele>
        <time>2015-10-20T11:33:02Z</time>
      </trkpt>
      <trkpt lat="45.87391" lon="2.89677">
        <ele>829</ele>
        <time>2015-10-20T11:35:02Z</time>
      </trkpt>
      <trkpt lat="45.87331" lon="2.89667">
        <ele>828</ele>
        <time>2015-10-20T11:37:02Z</time>
      </trkpt>
      <trkpt lat="45.8729" lon="2.89677">
        <ele>833</ele>
        <time>2015-10-20T11:39:02Z</time>
      </trkpt>
      <trkpt lat="45.87255" lon="2.89696">
        <ele>838</ele>
        <time>2015-10-20T11:41:02Z</time>
      </trkpt>
      <trkpt lat="45.87232" lon="2.89671">
        <ele>836</ele>
        <time>2015-10-20T11:43:02Z</time>
      </trkpt>
      <trkpt lat="45.87201" lon="2.89647">
        <ele>833</ele>
        <time>2015-10-20T11:45:02Z</time>
      </trkpt>
      <trkpt lat="45.87178" lon="2.89626">
        <ele>831</ele>
        <time>2015-10-20T11:47:02Z</time>
      </trkpt>
      <trkpt lat="45.8716" lon="2.89593">
        <ele>826</ele>
        <time>2015-10-20T11:49:02Z</time>
      </trkpt>
      <trkpt lat="45.87137" lon="2.89582">
        <ele>824</ele>
        <time>2015-10-20T11:51:02Z</time>
      </trkpt>
      <trkpt lat="45.87127" lon="2.89567">
        <ele>822</ele>
        <time>2015-10-20T11:53:02Z</time>
      </trkpt>
      <trkpt lat="45.87118" lon="2.89534">
        <ele>818</ele>
        <time>2015-10-20T11:55:02Z</time>
      </trkpt>
      <trkpt lat="45.8711" lon="2.89522">
        <ele>817</ele>
        <time>2015-10-20T11:57:02Z</time>
      </trkpt>
      <trkpt lat="45.87154" lon="2.8948">
        <ele>809</ele>
        <time>2015-10-20T11:59:02Z</time>
      </trkpt>
      <trkpt lat="45.87202" lon="2.89454">
        <ele>803</ele>
        <time>2015-10-20T12:01:02Z</time>
      </trkpt>
      <trkpt lat="45.87246" lon="2.89436">
        <ele>799</ele>
        <time>2015-10-20T12:03:02Z</time>
      </trkpt>
      <trkpt lat="45.87292" lon="2.89425">
        <ele>795</ele>
        <time>2015-10-20T12:05:02Z</time>
      </trkpt>
      <trkpt lat="45.87323" lon="2.89407">
        <ele>791</ele>
        <time>2015-10-20T12:07:02Z</time>
      </trkpt>
      <trkpt lat="45.87349" lon="2.89395">
        <ele>788</ele>
        <time>2015-10-20T12:09:02Z</time>
      </trkpt>
      <trkpt lat="45.87373" lon="2.89365">
        <ele>784</ele>
        <time>2015-10-20T12:11:02Z</time>
      </trkpt>
      <trkpt lat="45.87411" lon="2.8936">
        <ele>783</ele>
        <time>2015-10-20T12:13:02Z</time>
      </trkpt>
      <trkpt lat="45.87436" lon="2.89354">
        <ele>781</ele>
        <time>2015-10-20T12:15:02Z</time>
      </trkpt>
      <trkpt lat="45.87461" lon="2.89343">
        <ele>780</ele>
        <time>2015-10-20T12:17:02Z</time>
      </trkpt>
      <trkpt lat="45.875" lon="2.89321">
        <ele>776</ele>
        <time>2015-10-20T12:19:02Z</time>
      </trkpt>
      <trkpt lat="45.87546" lon="2.89314">
        <ele>775</ele>
        <time>2015-10-20T12:21:02Z</time>
      </trkpt>
      <trkpt lat="45.8758" lon="2.89323">
        <ele>775</ele>
        <time>2015-10-20T12:23:02Z</time>
      </trkpt>
      <trkpt lat="45.87611" lon="2.89337">
        <ele>776</ele>
        <time>2015-10-20T12:25:02Z</time>
      </trkpt>
      <trkpt lat="45.87641" lon="2.89335">
        <ele>776</ele>
        <time>2015-10-20T12:27:02Z</time>
      </trkpt>
      <trkpt lat="45.87672" lon="2.8933">
        <ele>776</ele>
        <time>2015-10-20T12:29:02Z</time>
      </trkpt>
      <trkpt lat="45.87714" lon="2.89318">
        <ele>777</ele>
        <time>2015-10-20T12:31:02Z</time>
      </trkpt>
      <trkpt lat="45.87756" lon="2.89321">
        <ele>779</ele>
        <time>2015-10-20T12:33:02Z</time>
      </trkpt>
      <trkpt lat="45.87756" lon="2.89278">
        <ele>777</ele>
        <time>2015-10-20T12:35:02Z</time>
      </trkpt>
      <trkpt lat="45.87764" lon="2.892">
        <ele>775</ele>
        <time>2015-10-20T12:37:02Z</time>
      </trkpt>
      <trkpt lat="45.87746" lon="2.89168">
        <ele>773</ele>
        <time>2015-10-20T12:39:02Z</time>
      </trkpt>
      <trkpt lat="45.87736" lon="2.89153">
        <ele>772</ele>
        <time>2015-10-20T12:41:02Z</time>
      </trkpt>
      <trkpt lat="45.8773" lon="2.89113">
        <ele>772</ele>
        <time>2015-10-20T12:43:02Z</time>
      </trkpt>
      <trkpt lat="45.87711" lon="2.89102">
        <ele>771</ele>
        <time>2015-10-20T12:45:02Z</time>
      </trkpt>
      <trkpt lat="45.87694" lon="2.89065">
        <ele>770</ele>
        <time>2015-10-20T12:47:02Z</time>
      </trkpt>
      <trkpt lat="45.87667" lon="2.88987">
        <ele>767</ele>
        <time>2015-10-20T12:49:02Z</time>
      </trkpt>
      <trkpt lat="45.87653" lon="2.88929">
        <ele>765</ele>
        <time>2015-10-20T12:51:02Z</time>
      </trkpt>
      <trkpt lat="45.87662" lon="2.88896">
        <ele>765</ele>
        <time>2015-10-20T12:53:02Z</time>
      </trkpt>
      <trkpt lat="45.87674" lon="2.88876">
        <ele>765</ele>
        <time>2015-10-20T12:55:02Z</time>
      </trkpt>
      <trkpt lat="45.87679" lon="2.88838">
        <ele>765</ele>
        <time>2015-10-20T12:57:02Z</time>
      </trkpt>
      <trkpt lat="45.87686" lon="2.88799">
        <ele>765</ele>
        <time>2015-10-20T12:59:02Z</time>
      </trkpt>
      <trkpt lat="45.87685" lon="2.8875">
        <ele>765</ele>
        <time>2015-10-20T13:01:02Z</time>
      </trkpt>
      <trkpt lat="45.87697" lon="2.88705">
        <ele>764</ele>
        <time>2015-10-20T13:03:02Z</time>
      </trkpt>
      <trkpt lat="45.8774" lon="2.8863">
        <ele>765</ele>
        <time>2015-10-20T13:05:02Z</time>
      </trkpt>
      <trkpt lat="45.87759" lon="2.88569">
        <ele>767</ele>
        <time>2015-10-20T13:07:02Z</time>
      </trkpt>
      <trkpt lat="45.8778" lon="2.88511">
        <ele>770</ele>
        <time>2015-10-20T13:09:02Z</time>
      </trkpt>
      <trkpt lat="45.87786" lon="2.8848">
        <ele>771</ele>
        <time>2015-10-20T13:11:02Z</time>
      </trkpt>
      <trkpt lat="45.87782" lon="2.88355">
        <ele>772</ele>
        <time>2015-10-20T13:13:02Z</time>
      </trkpt>
      <trkpt lat="45.87782" lon="2.88304">
        <ele>772</ele>
        <time>2015-10-20T13:15:02Z</time>
      </trkpt>
      <trkpt lat="45.87828" lon="2.88323">
        <ele>776</ele>
        <time>2015-10-20T13:17:02Z</time>
      </trkpt>
      <trkpt lat="45.87864" lon="2.88345">
        <ele>781</ele>
        <time>2015-10-20T13:19:02Z</time>
      </trkpt>
      <trkpt lat="45.87925" lon="2.8837">
        <ele>790</ele>
        <time>2015-10-20T13:21:02Z</time>
      </trkpt>
      <trkpt lat="45.87948" lon="2.88376">
        <ele>792</ele>
        <time>2015-10-20T13:23:02Z</time>
      </trkpt>
      <trkpt lat="45.87998" lon="2.8842">
        <ele>801</ele>
        <time>2015-10-20T13:25:02Z</time>
      </trkpt>
      <trkpt lat="45.88051" lon="2.88432">
        <ele>805</ele>
        <time>2015-10-20T13:27:02Z</time>
      </trkpt>
      <trkpt lat="45.88093" lon="2.88441">
        <ele>809</ele>
        <time>2015-10-20T13:29:02Z</time>
      </trkpt>
      <trkpt lat="45.8815" lon="2.88438">
        <ele>815</ele>
        <time>2015-10-20T13:31:02Z</time>
      </trkpt>
      <trkpt lat="45.88169" lon="2.88441">
        <ele>817</ele>
        <time>2015-10-20T13:33:02Z</time>
      </trkpt>
      <trkpt lat="45.88191" lon="2.88468">
        <ele>821</ele>
        <time>2015-10-20T13:35:02Z</time>
      </trkpt>
      <trkpt lat="45.8821" lon="2.88489">
        <ele>826</ele>
        <time>2015-10-20T13:37:02Z</time>
      </trkpt>
      <trkpt lat="45.8824" lon="2.88334">
        <ele>816</ele>
        <time>2015-10-20T13:39:02Z</time>
      </trkpt>
      <trkpt lat="45.88258" lon="2.88256">
        <ele>813</ele>
        <time>2015-10-20T13:41:02Z</time>
      </trkpt>
      <trkpt lat="45.88287" lon="2.88243">
        <ele>816</ele>
        <time>2015-10-20T13:43:02Z</time>
      </trkpt>
      <trkpt lat="45.88305" lon="2.88233">
        <ele>818</ele>
        <time>2015-10-20T13:45:02Z</time>
      </trkpt>
      <trkpt lat="45.88315" lon="2.88222">
        <ele>819</ele>
        <time>2015-10-20T13:47:02Z</time>
      </trkpt>
      <trkpt lat="45.88333" lon="2.88218">
        <ele>822</ele>
        <time>2015-10-20T13:49:02Z</time>
      </trkpt>
      <trkpt lat="45.8835" lon="2.88166">
        <ele>825</ele>
        <time>2015-10-20T13:51:02Z</time>
      </trkpt>
      <trkpt lat="45.88359" lon="2.88085">
        <ele>830</ele>
        <time>2015-10-20T13:53:02Z</time>
      </trkpt>
      <trkpt lat="45.88358" lon="2.88056">
        <ele>831</ele>
        <time>2015-10-20T13:55:02Z</time>
      </trkpt>
      <trkpt lat="45.88345" lon="2.88019">
        <ele>828</ele>
        <time>2015-10-20T13:57:02Z</time>
      </trkpt>
      <trkpt lat="45.88326" lon="2.87949">
        <ele>824</ele>
        <time>2015-10-20T13:59:02Z</time>
      </trkpt>
      <trkpt lat="45.88314" lon="2.87886">
        <ele>819</ele>
        <time>2015-10-20T14:01:02Z</time>
      </trkpt>
      <trkpt lat="45.88305" lon="2.87834">
        <ele>813</ele>
        <time>2015-10-20T14:03:02Z</time>
      </trkpt>
      <trkpt lat="45.88328" lon="2.87715">
        <ele>812</ele>
        <time>2015-10-20T14:05:02Z</time>
      </trkpt>
      <trkpt lat="45.88338" lon="2.87674">
        <ele>813</ele>
        <time>2015-10-20T14:07:02Z</time>
      </trkpt>
      <trkpt lat="45.88355" lon="2.87669">
        <ele>814</ele>
        <time>2015-10-20T14:09:02Z</time>
      </trkpt>
      <trkpt lat="45.88376" lon="2.87654">
        <ele>815</ele>
        <time>2015-10-20T14:11:02Z</time>
      </trkpt>
      <trkpt lat="45.8839" lon="2.87643">
        <ele>816</ele>
        <time>2015-10-20T14:13:02Z</time>
      </trkpt>
      <trkpt lat="45.88403" lon="2.87628">
        <ele>816</ele>
        <time>2015-10-20T14:15:02Z</time>
      </trkpt>
      <trkpt lat="45.88423" lon="2.87609">
        <ele>815</ele>
        <time>2015-10-20T14:17:02Z</time>
      </trkpt>
      <trkpt lat="45.88443" lon="2.8761">
        <ele>815</ele>
        <time>2015-10-20T14:19:02Z</time>
      </trkpt>
      <trkpt lat="45.8847" lon="2.87616">
        <ele>815</ele>
        <time>2015-10-20T14:21:02Z</time>
      </trkpt>
      <trkpt lat="45.88491" lon="2.87629">
        <ele>817</ele>
        <time>2015-10-20T14:23:02Z</time>
      </trkpt>
      <trkpt lat="45.88559" lon="2.87632">
        <ele>816</ele>
        <time>2015-10-20T14:25:02Z</time>
      </trkpt>
      <trkpt lat="45.88561" lon="2.87581">
        <ele>808</ele>
        <time>2015-10-20T14:27:02Z</time>
      </trkpt>
      <trkpt lat="45.88573" lon="2.87549">
        <ele>804</ele>
        <time>2015-10-20T14:29:02Z</time>
      </trkpt>
      <trkpt lat="45.88581" lon="2.87526">
        <ele>802</ele>
        <time>2015-10-20T14:31:02Z</time>
      </trkpt>
      <trkpt lat="45.88585" lon="2.8751">
        <ele>800</ele>
        <time>2015-10-20T14:33:02Z</time>
      </trkpt>
      <trkpt lat="45.88588" lon="2.87472">
        <ele>797</ele>
        <time>2015-10-20T14:35:02Z</time>
      </trkpt>
      <trkpt lat="45.88588" lon="2.87447">
        <ele>795</ele>
        <time>2015-10-20T14:37:02Z</time>
      </trkpt>
      <trkpt lat="45.88579" lon="2.87436">
        <ele>794</ele>
        <time>2015-10-20T14:39:02Z</time>
      </trkpt>
      <trkpt lat="45.88558" lon="2.87422">
        <ele>794</ele>
        <time>2015-10-20T14:41:02Z</time>
      </trkpt>
      <trkpt lat="45.88534" lon="2.87412">
        <ele>795</ele>
        <time>2015-10-20T14:43:02Z</time>
      </trkpt>
      <trkpt lat="45.88516" lon="2.87403">
        <ele>795</ele>
        <time>2015-10-20T14:45:02Z</time>
      </trkpt>
      <trkpt lat="45.88494" lon="2.87378">
        <ele>793</ele>
        <time>2015-10-20T14:47:02Z</time>
      </trkpt>
      <trkpt lat="45.8847" lon="2.87348">
        <ele>791</ele>
        <time>2015-10-20T14:49:02Z</time>
      </trkpt>
      <trkpt lat="45.88442" lon="2.87324">
        <ele>789</ele>
        <time>2015-10-20T14:51:02Z</time>
      </trkpt>
      <trkpt lat="45.88417" lon="2.87302">
        <ele>788</ele>
        <time>2015-10-20T14:53:02Z</time>
      </trkpt>
      <trkpt lat="45.88402" lon="2.87282">
        <ele>786</ele>
        <time>2015-10-20T14:55:02Z</time>
      </trkpt>
      <trkpt lat="45.88373" lon="2.87227">
        <ele>782</ele>
        <time>2015-10-20T14:57:02Z</time>
      </trkpt>
      <trkpt lat="45.88345" lon="2.87177">
        <ele>781</ele>
        <time>2015-10-20T14:59:02Z</time>
      </trkpt>
      <trkpt lat="45.88335" lon="2.87141">
        <ele>779</ele>
        <time>2015-10-20T15:01:02Z</time>
      </trkpt>
      <trkpt lat="45.88296" lon="2.87091">
        <ele>775</ele>
        <time>2015-10-20T15:03:02Z</time>
      </trkpt>
      <trkpt lat="45.88278" lon="2.87064">
        <ele>773</ele>
        <time>2015-10-20T15:05:02Z</time>
      </trkpt>
      <trkpt lat="45.88252" lon="2.8701">
        <ele>769</ele>
        <time>2015-10-20T15:07:02Z</time>
      </trkpt>
      <trkpt lat="45.88219" lon="2.86937">
        <ele>763</ele>
        <time>2015-10-20T15:09:02Z</time>
      </trkpt>
      <trkpt lat="45.88203" lon="2.86907">
        <ele>760</ele>
        <time>2015-10-20T15:11:02Z</time>
      </trkpt>
      <trkpt lat="45.88156" lon="2.86817">
        <ele>750</ele>
        <time>2015-10-20T15:13:02Z</time>
      </trkpt>
      <trkpt lat="45.88149" lon="2.86788">
        <ele>747</ele>
        <time>2015-10-20T15:15:02Z</time>
      </trkpt>
      <trkpt lat="45.88152" lon="2.86727">
        <ele>744</ele>
        <time>2015-10-20T15:17:02Z</time>
      </trkpt>
      <trkpt lat="45.88128" lon="2.86712">
        <ele>745</ele>
        <time>2015-10-20T15:19:02Z</time>
      </trkpt>
      <trkpt lat="45.88103" lon="2.86714">
        <ele>746</ele>
        <time>2015-10-20T15:21:02Z</time>
      </trkpt>
      <trkpt lat="45.88066" lon="2.86713">
        <ele>749</ele>
        <time>2015-10-20T15:23:02Z</time>
      </trkpt>
      <trkpt lat="45.88051" lon="2.86724">
        <ele>750</ele>
        <time>2015-10-20T15:25:02Z</time>
      </trkpt>
      <trkpt lat="45.88039" lon="2.8676">
        <ele>750</ele>
        <time>2015-10-20T15:27:02Z</time>
      </trkpt>
      <trkpt lat="45.88013" lon="2.86769">
        <ele>754</ele>
        <time>2015-10-20T15:29:02Z</time>
      </trkpt>
      <trkpt lat="45.87975" lon="2.86749">
        <ele>758</ele>
        <time>2015-10-20T15:31:02Z</time>
      </trkpt>
      <trkpt lat="45.8792" lon="2.86716">
        <ele>765</ele>
        <time>2015-10-20T15:33:02Z</time>
      </trkpt>
      <trkpt lat="45.87821" lon="2.86668">
        <ele>776</ele>
        <time>2015-10-20T15:35:02Z</time>
      </trkpt>
      <trkpt lat="45.87792" lon="2.86647">
        <ele>780</ele>
        <time>2015-10-20T15:37:02Z</time>
      </trkpt>
      <trkpt lat="45.8775" lon="2.86586">
        <ele>788</ele>
        <time>2015-10-20T15:39:02Z</time>
      </trkpt>
      <trkpt lat="45.87649" lon="2.86479">
        <ele>802</ele>
        <time>2015-10-20T15:41:02Z</time>
      </trkpt>
      <trkpt lat="45.87608" lon="2.8644">
        <ele>807</ele>
        <time>2015-10-20T15:43:02Z</time>
      </trkpt>
      <trkpt lat="45.87585" lon="2.86429">
        <ele>809</ele>
        <time>2015-10-20T15:45:02Z</time>
      </trkpt>
      <trkpt lat="45.87558" lon="2.86405">
        <ele>811</ele>
        <time>2015-10-20T15:47:02Z</time>
      </trkpt>
      <trkpt lat="45.87511" lon="2.86364">
        <ele>813</ele>
        <time>2015-10-20T15:49:02Z</time>
      </trkpt>
      <trkpt lat="45.8748" lon="2.86338">
        <ele>815</ele>
        <time>2015-10-20T15:51:02Z</time>
      </trkpt>
      <trkpt lat="45.87452" lon="2.86298">
        <ele>816</ele>
        <time>2015-10-20T15:53:02Z</time>
      </trkpt>
      <trkpt lat="45.87425" lon="2.86281">
        <ele>819</ele>
        <time>2015-10-20T15:55:02Z</time>
      </trkpt>
      <trkpt lat="45.87406" lon="2.86281">
        <ele>820</ele>
        <time>2015-10-20T15:57:02Z</time>
      </trkpt>
      <trkpt lat="45.8733" lon="2.86297">
        <ele>823</ele>
        <time>2015-10-20T15:59:02Z</time>
      </trkpt>
      <trkpt lat="45.87259" lon="2.86307">
        <ele>824</ele>
        <time>2015-10-20T16:01:02Z</time>
      </trkpt>
      <trkpt lat="45.87235" lon="2.86298">
        <ele>823</ele>
        <time>2015-10-20T16:03:02Z</time>
      </trkpt>
      <trkpt lat="45.87207" lon="2.86227">
        <ele>820</ele>
        <time>2015-10-20T16:05:02Z</time>
      </trkpt>
      <trkpt lat="45.87216" lon="2.86204">
        <ele>820</ele>
        <time>2015-10-20T16:07:02Z</time>
      </trkpt>
      <trkpt lat="45.87222" lon="2.86144">
        <ele>818</ele>
        <time>2015-10-20T16:09:02Z</time>
      </trkpt>
      <trkpt lat="45.87216" lon="2.86069">
        <ele>815</ele>
        <time>2015-10-20T16:11:02Z</time>
      </trkpt>
      <trkpt lat="45.87213" lon="2.86028">
        <ele>812</ele>
        <time>2015-10-20T16:13:02Z</time>
      </trkpt>
      <trkpt lat="45.87236" lon="2.8594">
        <ele>810</ele>
        <time>2015-10-20T16:15:02Z</time>
      </trkpt>
      <trkpt lat="45.87243" lon="2.85909">
        <ele>809</ele>
        <time>2015-10-20T16:17:02Z</time>
      </trkpt>
      <trkpt lat="45.87204" lon="2.85874">
        <ele>806</ele>
        <time>2015-10-20T16:19:02Z</time>
      </trkpt>
      <trkpt lat="45.87192" lon="2.85854">
        <ele>804</ele>
        <time>2015-10-20T16:21:02Z</time>
      </trkpt>
      <trkpt lat="45.87182" lon="2.85806">
        <ele>802</ele>
        <time>2015-10-20T16:23:02Z</time>
      </trkpt>
      <trkpt lat="45.87179" lon="2.85783">
        <ele>801</ele>
        <time>2015-10-20T16:25:02Z</time>
      </trkpt>
      <trkpt lat="45.87173" lon="2.85755">
        <ele>799</ele>
        <time>2015-10-20T16:27:02Z</time>
      </trkpt>
      <trkpt lat="45.8717" lon="2.8574">
        <ele>798</ele>
        <time>2015-10-20T16:29:02Z</time>
      </trkpt>
      <trkpt lat="45.87177" lon="2.85702">
        <ele>797</ele>
        <time>2015-10-20T16:31:02Z</time>
      </trkpt>
      <trkpt lat="45.87187" lon="2.8566">
        <ele>796</ele>
        <time>2015-10-20T16:33:02Z</time>
      </trkpt>
      <trkpt lat="45.87183" lon="2.8564">
        <ele>794</ele>
        <time>2015-10-20T16:35:02Z</time>
      </trkpt>
      <trkpt lat="45.87167" lon="2.85615">
        <ele>792</ele>
        <time>2015-10-20T16:37:02Z</time>
      </trkpt>
      <trkpt lat="45.87156" lon="2.85592">
        <ele>788</ele>
        <time>2015-10-20T16:39:02Z</time>
      </trkpt>
      <trkpt lat="45.8717" lon="2.8555">
        <ele>786</ele>
        <time>2015-10-20T16:41:02Z</time>
      </trkpt>
      <trkpt lat="45.87144" lon="2.85533">
        <ele>779</ele>
        <time>2015-10-20T16:43:02Z</time>
      </trkpt>
      <trkpt lat="45.87124" lon="2.8553">
        <ele>775</ele>
        <time>2015-10-20T16:45:02Z</time>
      </trkpt>
      <trkpt lat="45.87102" lon="2.85539">
        <ele>772</ele>
        <time>2015-10-20T16:47:02Z</time>
      </trkpt>
      <trkpt lat="45.87068" lon="2.85565">
        <ele>766</ele>
        <time>2015-10-20T16:49:02Z</time>
      </trkpt>
      <trkpt lat="45.87062" lon="2.85614">
        <ele>767</ele>
        <time>2015-10-20T16:51:02Z</time>
      </trkpt>
      <trkpt lat="45.87029" lon="2.85688">
        <ele>767</ele>
        <time>2015-10-20T16:53:02Z</time>
      </trkpt>
      <trkpt lat="45.87012" lon="2.85727">
        <ele>767</ele>
        <time>2015-10-20T16:55:02Z</time>
      </trkpt>
      <trkpt lat="45.8699" lon="2.85764">
        <ele>768</ele>
        <time>2015-10-20T16:57:02Z</time>
      </trkpt>
      <trkpt lat="45.8695" lon="2.85788">
        <ele>765</ele>
        <time>2015-10-20T16:59:02Z</time>
      </trkpt>
      <trkpt lat="45.86916" lon="2.85785">
        <ele>760</ele>
        <time>2015-10-20T17:01:02Z</time>
      </trkpt>
      <trkpt lat="45.86893" lon="2.8577">
        <ele>761</ele>
        <time>2015-10-20T17:03:02Z</time>
      </trkpt>
      <trkpt lat="45.86871" lon="2.85762">
        <ele>762</ele>
        <time>2015-10-20T17:05:02Z</time>
      </trkpt>
      <trkpt lat="45.8683" lon="2.8576">
        <ele>766</ele>
        <time>2015-10-20T17:07:02Z</time>
      </trkpt>
      <trkpt lat="45.86808" lon="2.85751">
        <ele>767</ele>
        <time>2015-10-20T17:09:02Z</time>
      </trkpt>
      <trkpt lat="45.86809" lon="2.8572">
        <ele>764</ele>
        <time>2015-10-20T17:11:02Z</time>
      </trkpt>
      <trkpt lat="45.86839" lon="2.85714">
        <ele>761</ele>
        <time>2015-10-20T17:13:02Z</time>
      </trkpt>
      <trkpt lat="45.86888" lon="2.85683">
        <ele>751</ele>
        <time>2015-10-20T17:15:02Z</time>
      </trkpt>
      <trkpt lat="45.86915" lon="2.8569">
        <ele>748</ele>
        <time>2015-10-20T17:17:02Z</time>
      </trkpt>
      <trkpt lat="45.86927" lon="2.85673">
        <ele>747</ele>
        <time>2015-10-20T17:19:02Z</time>
      </trkpt>
      <trkpt lat="45.86947" lon="2.85601">
        <ele>741</ele>
        <time>2015-10-20T17:21:02Z</time>
      </trkpt>
      <trkpt lat="45.86951" lon="2.85576">
        <ele>738</ele>
        <time>2015-10-20T17:23:02Z</time>
      </trkpt>
      <trkpt lat="45.86937" lon="2.85508">
        <ele>730</ele>
        <time>2015-10-20T17:25:02Z</time>
      </trkpt>
      <trkpt lat="45.86933" lon="2.85481">
        <ele>726</ele>
        <time>2015-10-20T17:27:02Z</time>
      </trkpt>
      <trkpt lat="45.86941" lon="2.85452">
        <ele>725</ele>
        <time>2015-10-20T17:29:02Z</time>
      </trkpt>
      <trkpt lat="45.86941" lon="2.85429">
        <ele>723</ele>
        <time>2015-10-20T17:31:02Z</time>
      </trkpt>
      <trkpt lat="45.86942" lon="2.85398">
        <ele>721</ele>
        <time>2015-10-20T17:33:02Z</time>
      </trkpt>
      <trkpt lat="45.86938" lon="2.85381">
        <ele>720</ele>
        <time>2015-10-20T17:35:02Z</time>
      </trkpt>
      <trkpt lat="45.86932" lon="2.85363">
        <ele>717</ele>
        <time>2015-10-20T17:37:02Z</time>
      </trkpt>
      <trkpt lat="45.86936" lon="2.85325">
        <ele>717</ele>
        <time>2015-10-20T17:39:02Z</time>
      </trkpt>
      <trkpt lat="45.86927" lon="2.8526">
        <ele>713</ele>
        <time>2015-10-20T17:41:02Z</time>
      </trkpt>
      <trkpt lat="45.86917" lon="2.85228">
        <ele>709</ele>
        <time>2015-10-20T17:43:02Z</time>
      </trkpt>
      <trkpt lat="45.86906" lon="2.85187">
        <ele>704</ele>
        <time>2015-10-20T17:45:02Z</time>
      </trkpt>
      <trkpt lat="45.86891" lon="2.85154">
        <ele>698</ele>
        <time>2015-10-20T17:47:02Z</time>
      </trkpt>
      <trkpt lat="45.86882" lon="2.85133">
        <ele>694</ele>
        <time>2015-10-20T17:49:02Z</time>
      </trkpt>
      <trkpt lat="45.8687" lon="2.85108">
        <ele>690</ele>
        <time>2015-10-20T17:51:02Z</time>
      </trkpt>
      <trkpt lat="45.8685" lon="2.85021">
        <ele>681</ele>
        <time>2015-10-20T17:53:02Z</time>
      </trkpt>
      <trkpt lat="45.86844" lon="2.84981">
        <ele>679</ele>
        <time>2015-10-20T17:55:02Z</time>
      </trkpt>
      <trkpt lat="45.86842" lon="2.84962">
        <ele>678</ele>
        <time>2015-10-20T17:57:02Z</time>
      </trkpt>
      <trkpt lat="45.86854" lon="2.8495">
        <ele>678</ele>
        <time>2015-10-20T17:59:02Z</time>
      </trkpt>
      <trkpt lat="45.86872" lon="2.8496">
        <ele>681</ele>
        <time>2015-10-20T18:01:02Z</time>
      </trkpt>
      <trkpt lat="45.86893" lon="2.84986">
        <ele>686</ele>
        <time>2015-10-20T18:03:02Z</time>
      </trkpt>
      <trkpt lat="45.86909" lon="2.85005">
        <ele>691</ele>
        <time>2015-10-20T18:05:02Z</time>
      </trkpt>
      <trkpt lat="45.86922" lon="2.85018">
        <ele>695</ele>
        <time>2015-10-20T18:07:02Z</time>
      </trkpt>
      <trkpt lat="45.86933" lon="2.8502">
        <ele>697</ele>
        <time>2015-10-20T18:09:02Z</time>
      </trkpt>
      <trkpt lat="45.8694" lon="2.85005">
        <ele>696</ele>
        <time>2015-10-20T18:11:02Z</time>
      </trkpt>
      <trkpt lat="45.86939" lon="2.8499">
        <ele>693</ele>
        <time>2015-10-20T18:13:02Z</time>
      </trkpt>
      <trkpt lat="45.86935" lon="2.84963">
        <ele>689</ele>
        <time>2015-10-20T18:15:02Z</time>
      </trkpt>
      <trkpt lat="45.86942" lon="2.84923">
        <ele>684</ele>
        <time>2015-10-20T18:17:02Z</time>
      </trkpt>
      <trkpt lat="45.8695" lon="2.84884">
        <ele>680</ele>
        <time>2015-10-20T18:19:02Z</time>
      </trkpt>
      <trkpt lat="45.86957" lon="2.8484">
        <ele>675</ele>
        <time>2015-10-20T18:21:02Z</time>
      </trkpt>
      <trkpt lat="45.86958" lon="2.84812">
        <ele>670</ele>
        <time>2015-10-20T18:23:02Z</time>
      </trkpt>
      <trkpt lat="45.8695" lon="2.84775">
        <ele>663</ele>
        <time>2015-10-20T18:25:02Z</time>
      </trkpt>
      <trkpt lat="45.8694" lon="2.84741">
        <ele>656</ele>
        <time>2015-10-20T18:27:02Z</time>
      </trkpt>
      <trkpt lat="45.86935" lon="2.84668">
        <ele>644</ele>
        <time>2015-10-20T18:29:02Z</time>
      </trkpt>
      <trkpt lat="45.8692" lon="2.84644">
        <ele>639</ele>
        <time>2015-10-20T18:31:02Z</time>
      </trkpt>
      <trkpt lat="45.86895" lon="2.8462">
        <ele>632</ele>
        <time>2015-10-20T18:33:02Z</time>
      </trkpt>
      <trkpt lat="45.86883" lon="2.8461">
        <ele>629</ele>
        <time>2015-10-20T18:35:02Z</time>
      </trkpt>
      <trkpt lat="45.86882" lon="2.84588">
        <ele>624</ele>
        <time>2015-10-20T18:37:02Z</time>
      </trkpt>
      <trkpt lat="45.86872" lon="2.84578">
        <ele>622</ele>
        <time>2015-10-20T18:39:02Z</time>
      </trkpt>
      <trkpt lat="45.86853" lon="2.84565">
        <ele>618</ele>
        <time>2015-10-20T18:41:02Z</time>
      </trkpt>
      <trkpt lat="45.86852" lon="2.84551">
        <ele>616</ele>
        <time>2015-10-20T18:43:02Z</time>
      </trkpt>
      <trkpt lat="45.86861" lon="2.84539">
        <ele>616</ele>
        <time>2015-10-20T18:45:02Z</time>
      </trkpt>
      <trkpt lat="45.8688" lon="2.84545">
        <ele>619</ele>
        <time>2015-10-20T18:47:02Z</time>
      </trkpt>
      <trkpt lat="45.86896" lon="2.84559">
        <ele>623</ele>
        <time>2015-10-20T18:49:02Z</time>
      </trkpt>
      <trkpt lat="45.86907" lon="2.84563">
        <ele>624</ele>
        <time>2015-10-20T18:51:02Z</time>
      </trkpt>
      <trkpt lat="45.86919" lon="2.84555">
        <ele>625</ele>
        <time>2015-10-20T18:53:02Z</time>
      </trkpt>
      <trkpt lat="45.86926" lon="2.84536">
        <ele>626</ele>
        <time>2015-10-20T18:55:02Z</time>
      </trkpt>
      <trkpt lat="45.86917" lon="2.84516">
        <ele>622</ele>
        <time>2015-10-20T18:57:02Z</time>
      </trkpt>
      <trkpt lat="45.86888" lon="2.84473">
        <ele>617</ele>
        <time>2015-10-20T18:59:02Z</time>
      </trkpt>
      <trkpt lat="45.86863" lon="2.84431">
        <ele>612</ele>
        <time>2015-10-20T19:01:02Z</time>
      </trkpt>
      <trkpt lat="45.86858" lon="2.8439">
        <ele>611</ele>
        <time>2015-10-20T19:03:02Z</time>
      </trkpt>
      <trkpt lat="45.86863" lon="2.8433">
        <ele>611</ele>
        <time>2015-10-20T19:05:02Z</time>
      </trkpt>
      <trkpt lat="45.86866" lon="2.84298">
        <ele>610</ele>
        <time>2015-10-20T19:07:02Z</time>
      </trkpt>
      <trkpt lat="45.86842" lon="2.84295">
        <ele>604</ele>
        <time>2015-10-20T19:09:02Z</time>
      </trkpt>
      <trkpt lat="45.8681" lon="2.84283">
        <ele>598</ele>
        <time>2015-10-20T19:11:02Z</time>
      </trkpt>
      <trkpt lat="45.8679" lon="2.84276">
        <ele>594</ele>
        <time>2015-10-20T19:13:02Z</time>
      </trkpt>
      <trkpt lat="45.86769" lon="2.8425">
        <ele>589</ele>
        <time>2015-10-20T19:15:02Z</time>
      </trkpt>
      <trkpt lat="45.86746" lon="2.84246">
        <ele>586</ele>
        <time>2015-10-20T19:17:02Z</time>
      </trkpt>
      <trkpt lat="45.86728" lon="2.84246">
        <ele>588</ele>
        <time>2015-10-20T19:19:02Z</time>
      </trkpt>
      <trkpt lat="45.86722" lon="2.84221">
        <ele>589</ele>
        <time>2015-10-20T19:21:02Z</time>
      </trkpt>
      <trkpt lat="45.86724" lon="2.84169">
        <ele>590</ele>
        <time>2015-10-20T19:23:02Z</time>
      </trkpt>
      <trkpt lat="45.86729" lon="2.84139">
        <ele>589</ele>
        <time>2015-10-20T19:25:02Z</time>
      </trkpt>
      <trkpt lat="45.86739" lon="2.84124">
        <ele>588</ele>
        <time>2015-10-20T19:27:02Z</time>
      </trkpt>
      <trkpt lat="45.86748" lon="2.84104">
        <ele>586</ele>
        <time>2015-10-20T19:29:02Z</time>
      </trkpt>
      <trkpt lat="45.86735" lon="2.84098">
        <ele>588</ele>
        <time>2015-10-20T19:31:02Z</time>
      </trkpt>
      <trkpt lat="45.86711" lon="2.84094">
        <ele>592</ele>
        <time>2015-10-20T19:33:02Z</time>
      </trkpt>
      <trkpt lat="45.8669" lon="2.84085">
        <ele>595</ele>
        <time>2015-10-20T19:35:02Z</time>
      </trkpt>
      <trkpt lat="45.86675" lon="2.84037">
        <ele>595</ele>
        <time>2015-10-20T19:37:02Z</time>
      </trkpt>
      <trkpt lat="45.86663" lon="2.83997">
        <ele>594</ele>
        <time>2015-10-20T19:39:02Z</time>
      </trkpt>
      <trkpt lat="45.8666" lon="2.83952">
        <ele>592</ele>
        <time>2015-10-20T19:41:02Z</time>
      </trkpt>
      <trkpt lat="45.86656" lon="2.83921">
        <ele>590</ele>
        <time>2015-10-20T19:43:02Z</time>
      </trkpt>
      <trkpt lat="45.86596" lon="2.83896">
        <ele>594</ele>
        <time>2015-10-20T19:45:02Z</time>
      </trkpt>
      <trkpt lat="45.86567" lon="2.83907">
        <ele>596</ele>
        <time>2015-10-20T19:47:02Z</time>
      </trkpt>
      <trkpt lat="45.86523" lon="2.83926">
        <ele>599</ele>
        <time>2015-10-20T19:49:02Z</time>
      </trkpt>
      <trkpt lat="45.86448" lon="2.83952">
        <ele>607</ele>
        <time>2015-10-20T19:51:02Z</time>
      </trkpt>
      <trkpt lat="45.86414" lon="2.83959">
        <ele>609</ele>
        <time>2015-10-20T19:53:02Z</time>
      </trkpt>
      <trkpt lat="45.86391" lon="2.83972">
        <ele>614</ele>
        <time>2015-10-20T19:55:02Z</time>
      </trkpt>
      <trkpt lat="45.86356" lon="2.8397">
        <ele>615</ele>
        <time>2015-10-20T19:57:02Z</time>
      </trkpt>
      <trkpt lat="45.86312" lon="2.83961">
        <ele>619</ele>
        <time>2015-10-20T19:59:02Z</time>
      </trkpt>
      <trkpt lat="45.86297" lon="2.83946">
        <ele>619</ele>
        <time>2015-10-20T20:01:02Z</time>
      </trkpt>
      <trkpt lat="45.86287" lon="2.83919">
        <ele>615</ele>
        <time>2015-10-20T20:03:02Z</time>
      </trkpt>
      <trkpt lat="45.86263" lon="2.8387">
        <ele>612</ele>
        <time>2015-10-20T20:05:02Z</time>
      </trkpt>
      <trkpt lat="45.86244" lon="2.83839">
        <ele>611</ele>
        <time>2015-10-20T20:07:02Z</time>
      </trkpt>
      <trkpt lat="45.86229" lon="2.83799">
        <ele>612</ele>
        <time>2015-10-20T20:09:02Z</time>
      </trkpt>
      <trkpt lat="45.8622" lon="2.83753">
        <ele>611</ele>
        <time>2015-10-20T20:11:02Z</time>
      </trkpt>
      <trkpt lat="45.86197" lon="2.83739">
        <ele>617</ele>
        <time>2015-10-20T20:13:02Z</time>
      </trkpt>
      <trkpt lat="45.86205" lon="2.83718">
        <ele>615</ele>
        <time>2015-10-20T20:15:02Z</time>
      </trkpt>
      <trkpt lat="45.86209" lon="2.83696">
        <ele>615</ele>
        <time>2015-10-20T20:17:02Z</time>
      </trkpt>
      <trkpt lat="45.862" lon="2.83661">
        <ele>617</ele>
        <time>2015-10-20T20:19:02Z</time>
      </trkpt>
      <trkpt lat="45.86202" lon="2.83626">
        <ele>618</ele>
        <time>2015-10-20T20:21:02Z</time>
      </trkpt>
      <trkpt lat="45.86208" lon="2.83584">
        <ele>619</ele>
        <time>2015-10-20T20:23:02Z</time>
      </trkpt>
      <trkpt lat="45.862" lon="2.83528">
        <ele>626</ele>
        <time>2015-10-20T20:25:02Z</time>
      </trkpt>
      <trkpt lat="45.862" lon="2.83495">
        <ele>629</ele>
        <time>2015-10-20T20:27:02Z</time>
      </trkpt>
      <trkpt lat="45.86201" lon="2.83421">
        <ele>640</ele>
        <time>2015-10-20T20:29:02Z</time>
      </trkpt>
      <trkpt lat="45.86193" lon="2.83391">
        <ele>642</ele>
        <time>2015-10-20T20:31:02Z</time>
      </trkpt>
      <trkpt lat="45.86187" lon="2.83364">
        <ele>644</ele>
        <time>2015-10-20T20:33:02Z</time>
      </trkpt>
      <trkpt lat="45.86201" lon="2.83364">
        <ele>644</ele>
        <time>2015-10-20T20:35:02Z</time>
      </trkpt>
      <trkpt lat="45.86217" lon="2.83338">
        <ele>644</ele>
        <time>2015-10-20T20:37:02Z</time>
      </trkpt>
      <trkpt lat="45.8623" lon="2.83334">
        <ele>644</ele>
        <time>2015-10-20T20:39:02Z</time>
      </trkpt>
      <trkpt lat="45.86225" lon="2.83303">
        <ele>644</ele>
        <time>2015-10-20T20:41:02Z</time>
      </trkpt>
      <trkpt lat="45.86216" lon="2.83268">
        <ele>644</ele>
        <time>2015-10-20T20:43:02Z</time>
      </trkpt>
      <trkpt lat="45.86228" lon="2.83257">
        <ele>644</ele>
        <time>2015-10-20T20:45:02Z</time>
      </trkpt>
      <trkpt lat="45.86215" lon="2.83235">
        <ele>645</ele>
        <time>2015-10-20T20:47:02Z</time>
      </trkpt>
      <trkpt lat="45.86198" lon="2.83231">
        <ele>646</ele>
        <time>2015-10-20T20:49:02Z</time>
      </trkpt>
      <trkpt lat="45.86189" lon="2.83216">
        <ele>646</ele>
        <time>2015-10-20T20:51:02Z</time>
      </trkpt>
      <trkpt lat="45.86191" lon="2.83169">
        <ele>646</ele>
        <time>2015-10-20T20:53:02Z</time>
      </trkpt>
      <trkpt lat="45.86205" lon="2.83093">
        <ele>649</ele>
        <time>2015-10-20T20:55:02Z</time>
      </trkpt>
      <trkpt lat="45.86228" lon="2.83019">
        <ele>654</ele>
        <time>2015-10-20T20:57:02Z</time>
      </trkpt>
      <trkpt lat="45.86148" lon="2.82981">
        <ele>653</ele>
        <time>2015-10-20T20:59:02Z</time>
      </trkpt>
      <trkpt lat="45.86102" lon="2.82946">
        <ele>657</ele>
        <time>2015-10-20T21:01:02Z</time>
      </trkpt>
      <trkpt lat="45.8609" lon="2.82928">
        <ele>658</ele>
        <time>2015-10-20T21:03:02Z</time>
      </trkpt>
      <trkpt lat="45.86101" lon="2.82923">
        <ele>658</ele>
        <time>2015-10-20T21:05:02Z</time>
      </trkpt>
      <trkpt lat="45.86115" lon="2.82889">
        <ele>661</ele>
        <time>2015-10-20T21:07:02Z</time>
      </trkpt>
      <trkpt lat="45.86125" lon="2.82862">
        <ele>665</ele>
        <time>2015-10-20T21:09:02Z</time>
      </trkpt>
      <trkpt lat="45.86158" lon="2.8283">
        <ele>671</ele>
        <time>2015-10-20T21:11:02Z</time>
      </trkpt>
      <trkpt lat="45.86196" lon="2.82799">
        <ele>675</ele>
        <time>2015-10-20T21:13:02Z</time>
      </trkpt>
      <trkpt lat="45.86223" lon="2.82764">
        <ele>680</ele>
        <time>2015-10-20T21:15:02Z</time>
      </trkpt>
      <trkpt lat="45.86265" lon="2.82715">
        <ele>683</ele>
        <time>2015-10-20T21:17:02Z</time>
      </trkpt>
      <trkpt lat="45.8629" lon="2.82679">
        <ele>682</ele>
        <time>2015-10-20T21:19:02Z</time>
      </trkpt>
      <trkpt lat="45.86309" lon="2.82637">
        <ele>680</ele>
        <time>2015-10-20T21:21:02Z</time>
      </trkpt>
      <trkpt lat="45.86326" lon="2.82595">
        <ele>679</ele>
        <time>2015-10-20T21:23:02Z</time>
      </trkpt>
      <trkpt lat="45.86344" lon="2.82533">
        <ele>682</ele>
        <time>2015-10-20T21:25:02Z</time>
      </trkpt>
      <trkpt lat="45.86367" lon="2.82503">
        <ele>680</ele>
        <time>2015-10-20T21:27:02Z</time>
      </trkpt>
      <trkpt lat="45.86395" lon="2.82495">
        <ele>674</ele>
        <time>2015-10-20T21:29:02Z</time>
      </trkpt>
      <trkpt lat="45.86422" lon="2.82445">
        <ele>672</ele>
        <time>2015-10-20T21:31:02Z</time>
      </trkpt>
      <trkpt lat="45.8643" lon="2.82416">
        <ele>672</ele>
        <time>2015-10-20T21:33:02Z</time>
      </trkpt>
      <trkpt lat="45.86441" lon="2.82362">
        <ele>669</ele>
        <time>2015-10-20T21:35:02Z</time>
      </trkpt>
      <trkpt lat="45.86496" lon="2.824">
        <ele>658</ele>
        <time>2015-10-20T21:37:02Z</time>
      </trkpt>
      <trkpt lat="45.86556" lon="2.82452">
        <ele>652</ele>
        <time>2015-10-20T21:39:02Z</time>
      </trkpt>
      <trkpt lat="45.86593" lon="2.82499">
        <ele>648</ele>
        <time>2015-10-20T21:41:02Z</time>
      </trkpt>
      <trkpt lat="45.86631" lon="2.82481">
        <ele>646</ele>
        <time>2015-10-20T21:43:02Z</time>
      </trkpt>
      <trkpt lat="45.86684" lon="2.82507">
        <ele>643</ele>
        <time>2015-10-20T21:45:02Z</time>
      </trkpt>
      <trkpt lat="45.86708" lon="2.82517">
        <ele>642</ele>
        <time>2015-10-20T21:47:02Z</time>
      </trkpt>
      <trkpt lat="45.86753" lon="2.82498">
        <ele>637</ele>
        <time>2015-10-20T21:49:02Z</time>
      </trkpt>
      <trkpt lat="45.86805" lon="2.82489">
        <ele>632</ele>
        <time>2015-10-20T21:51:02Z</time>
      </trkpt>
      <trkpt lat="45.86856" lon="2.82479">
        <ele>627</ele>
        <time>2015-10-20T21:53:02Z</time>
      </trkpt>
      <trkpt lat="45.86863" lon="2.8246">
        <ele>625</ele>
        <time>2015-10-20T21:55:02Z</time>
      </trkpt>
      <trkpt lat="45.86863" lon="2.82432">
        <ele>622</ele>
        <time>2015-10-20T21:57:02Z</time>
      </trkpt>
      <trkpt lat="45.86852" lon="2.82333">
        <ele>620</ele>
        <time>2015-10-20T21:59:02Z</time>
      </trkpt>
      <trkpt lat="45.86827" lon="2.82292">
        <ele>621</ele>
        <time>2015-10-20T22:01:02Z</time>
      </trkpt>
      <trkpt lat="45.86796" lon="2.82251">
        <ele>620</ele>
        <time>2015-10-20T22:03:02Z</time>
      </trkpt>
      <trkpt lat="45.86778" lon="2.82212">
        <ele>618</ele>
        <time>2015-10-20T22:05:02Z</time>
      </trkpt>
      <trkpt lat="45.86771" lon="2.82145">
        <ele>614</ele>
        <time>2015-10-20T22:07:02Z</time>
      </trkpt>
      <trkpt lat="45.86778" lon="2.82118">
        <ele>613</ele>
        <time>2015-10-20T22:09:02Z</time>
      </trkpt>
      <trkpt lat="45.86797" lon="2.82103">
        <ele>611</ele>
        <time>2015-10-20T22:11:02Z</time>
      </trkpt>
      <trkpt lat="45.86848" lon="2.82104">
        <ele>610</ele>
        <time>2015-10-20T22:13:02Z</time>
      </trkpt>
      <trkpt lat="45.86883" lon="2.82107">
        <ele>611</ele>
        <time>2015-10-20T22:15:02Z</time>
      </trkpt>
      <trkpt lat="45.86906" lon="2.82095">
        <ele>612</ele>
        <time>2015-10-20T22:17:02Z</time>
      </trkpt>
      <trkpt lat="45.86924" lon="2.82065">
        <ele>613</ele>
        <time>2015-10-20T22:19:02Z</time>
      </trkpt>
      <trkpt lat="45.86926" lon="2.82042">
        <ele>614</ele>
        <time>2015-10-20T22:21:02Z</time>
      </trkpt>
      <trkpt lat="45.86911" lon="2.82051">
        <ele>616</ele>
        <time>2015-10-20T22:23:02Z</time>
      </trkpt>
      <trkpt lat="45.86886" lon="2.82059">
        <ele>614</ele>
        <time>2015-10-20T22:25:02Z</time>
      </trkpt>
      <trkpt lat="45.86867" lon="2.82045">
        <ele>614</ele>
        <time>2015-10-20T22:27:02Z</time>
      </trkpt>
      <trkpt lat="45.86844" lon="2.82014">
        <ele>616</ele>
        <time>2015-10-20T22:29:02Z</time>
      </trkpt>
      <trkpt lat="45.86855" lon="2.82009">
        <ele>617</ele>
        <time>2015-10-20T22:31:02Z</time>
      </trkpt>
      <trkpt lat="45.86876" lon="2.82032">
        <ele>616</ele>
        <time>2015-10-20T22:33:02Z</time>
      </trkpt>
      <trkpt lat="45.8689" lon="2.82045">
        <ele>615</ele>
        <time>2015-10-20T22:35:02Z</time>
      </trkpt>
      <trkpt lat="45.869" lon="2.82047">
        <ele>616</ele>
        <time>2015-10-20T22:37:02Z</time>
      </trkpt>
      <trkpt lat="45.86909" lon="2.82034">
        <ele>617</ele>
        <time>2015-10-20T22:39:02Z</time>
      </trkpt>
      <trkpt lat="45.86897" lon="2.82017">
        <ele>618</ele>
        <time>2015-10-20T22:41:02Z</time>
      </trkpt>
      <trkpt lat="45.86878" lon="2.81966">
        <ele>623</ele>
        <time>2015-10-20T22:43:02Z</time>
      </trkpt>
      <trkpt lat="45.86847" lon="2.81888">
        <ele>635</ele>
        <time>2015-10-20T22:45:02Z</time>
      </trkpt>
      <trkpt lat="45.86831" lon="2.81834">
        <ele>646</ele>
        <time>2015-10-20T22:47:02Z</time>
      </trkpt>
      <trkpt lat="45.86817" lon="2.81759">
        <ele>657</ele>
        <time>2015-10-20T22:49:02Z</time>
      </trkpt>
      <trkpt lat="45.86806" lon="2.81686">
        <ele>667</ele>
        <time>2015-10-20T22:51:02Z</time>
      </trkpt>
      <trkpt lat="45.86798" lon="2.81609">
        <ele>678</ele>
        <time>2015-10-20T22:53:02Z</time>
      </trkpt>
      <trkpt lat="45.86787" lon="2.81556">
        <ele>685</ele>
        <time>2015-10-20T22:55:02Z</time>
      </trkpt>
      <trkpt lat="45.86723" lon="2.81457">
        <ele>705</ele>
        <time>2015-10-20T22:57:02Z</time>
      </trkpt>
      <trkpt lat="45.86613" lon="2.8128">
        <ele>711</ele>
        <time>2015-10-20T22:59:02Z</time>
      </trkpt>
      <trkpt lat="45.86575" lon="2.812">
        <ele>711</ele>
        <time>2015-10-20T23:01:02Z</time>
      </trkpt>
      <trkpt lat="45.86559" lon="2.81146">
        <ele>712</ele>
        <time>2015-10-20T23:03:02Z</time>
      </trkpt>
      <trkpt lat="45.86556" lon="2.81085">
        <ele>716</ele>
        <time>2015-10-20T23:05:02Z</time>
      </trkpt>
      <trkpt lat="45.86545" lon="2.80987">
        <ele>721</ele>
        <time>2015-10-20T23:07:02Z</time>
      </trkpt>
      <trkpt lat="45.86569" lon="2.80814">
        <ele>729</ele>
        <time>2015-10-20T23:09:02Z</time>
      </trkpt>
      <trkpt lat="45.8659" lon="2.80722">
        <ele>730</ele>
        <time>2015-10-20T23:11:02Z</time>
      </trkpt>
      <trkpt lat="45.86628" lon="2.80514">
        <ele>733</ele>
        <time>2015-10-20T23:13:02Z</time>
      </trkpt>
      <trkpt lat="45.86648" lon="2.80395">
        <ele>734</ele>
        <time>2015-10-20T23:15:02Z</time>
      </trkpt>
      <trkpt lat="45.86669" lon="2.80298">
        <ele>734</ele>
        <time>2015-10-20T23:17:02Z</time>
      </trkpt>
      <trkpt lat="45.86694" lon="2.80256">
        <ele>733</ele>
        <time>2015-10-20T23:19:02Z</time>
      </trkpt>
      <trkpt lat="45.86708" lon="2.80244">
        <ele>733</ele>
        <time>2015-10-20T23:21:02Z</time>
      </trkpt>
      <trkpt lat="45.86751" lon="2.80287">
        <ele>731</ele>
        <time>2015-10-20T23:23:02Z</time>
      </trkpt>
      <trkpt lat="45.86793" lon="2.80315">
        <ele>728</ele>
        <time>2015-10-20T23:25:02Z</time>
      </trkpt>
      <trkpt lat="45.8682" lon="2.80326">
        <ele>727</ele>
        <time>2015-10-20T23:27:02Z</time>
      </trkpt>
      <trkpt lat="45.86863" lon="2.8031">
        <ele>726</ele>
        <time>2015-10-20T23:29:02Z</time>
      </trkpt>
      <trkpt lat="45.86905" lon="2.80303">
        <ele>724</ele>
        <time>2015-10-20T23:31:02Z</time>
      </trkpt>
      <trkpt lat="45.86931" lon="2.80296">
        <ele>723</ele>
        <time>2015-10-20T23:33:02Z</time>
      </trkpt>
      <trkpt lat="45.87006" lon="2.80267">
        <ele>720</ele>
        <time>2015-10-20T23:35:02Z</time>
      </trkpt>
      <trkpt lat="45.87004" lon="2.80209">
        <ele>719</ele>
        <time>2015-10-20T23:37:02Z</time>
      </trkpt>
      <trkpt lat="45.87007" lon="2.80146">
        <ele>721</ele>
        <time>2015-10-20T23:39:02Z</time>
      </trkpt>
      <trkpt lat="45.8702" lon="2.80128">
        <ele>722</ele>
        <time>2015-10-20T23:41:02Z</time>
      </trkpt>
      <trkpt lat="45.87041" lon="2.80119">
        <ele>722</ele>
        <time>2015-10-20T23:43:02Z</time>
      </trkpt>
      <trkpt lat="45.87065" lon="2.80109">
        <ele>722</ele>
        <time>2015-10-20T23:45:02Z</time>
      </trkpt>
      <trkpt lat="45.87077" lon="2.80051">
        <ele>726</ele>
        <time>2015-10-20T23:47:02Z</time>
      </trkpt>
      <trkpt lat="45.87071" lon="2.80012">
        <ele>729</ele>
        <time>2015-10-20T23:49:02Z</time>
      </trkpt>
      <trkpt lat="45.87062" lon="2.79981">
        <ele>730</ele>
        <time>2015-10-20T23:51:02Z</time>
      </trkpt>
      <trkpt lat="45.87086" lon="2.79959">
        <ele>729</ele>
        <time>2015-10-20T23:53:02Z</time>
      </trkpt>
      <trkpt lat="45.87103" lon="2.79922">
        <ele>729</ele>
        <time>2015-10-20T23:55:02Z</time>
      </trkpt>
      <trkpt lat="45.87125" lon="2.79886">
        <ele>728</ele>
        <time>2015-10-20T23:57:02Z</time>
      </trkpt>
      <trkpt lat="45.87161" lon="2.79838">
        <ele>728</ele>
        <time>2015-10-20T23:59:02Z</time>
      </trkpt>
      <trkpt lat="45.87231" lon="2.79811">
        <ele>729</ele>
        <time>2015-10-21T00:01:02Z</time>
      </trkpt>
      <trkpt lat="45.87289" lon="2.79784">
        <ele>723</ele>
        <time>2015-10-21T00:03:02Z</time>
      </trkpt>
      <trkpt lat="45.87316" lon="2.79757">
        <ele>718</ele>
        <time>2015-10-21T00:05:02Z</time>
      </trkpt>
      <trkpt lat="45.87337" lon="2.79748">
        <ele>715</ele>
        <time>2015-10-21T00:07:02Z</time>
      </trkpt>
      <trkpt lat="45.87381" lon="2.79795">
        <ele>714</ele>
        <time>2015-10-21T00:09:02Z</time>
      </trkpt>
      <trkpt lat="45.87404" lon="2.79808">
        <ele>711</ele>
        <time>2015-10-21T00:11:02Z</time>
      </trkpt>
      <trkpt lat="45.87431" lon="2.79826">
        <ele>710</ele>
        <time>2015-10-21T00:13:02Z</time>
      </trkpt>
      <trkpt lat="45.87446" lon="2.79875">
        <ele>708</ele>
        <time>2015-10-21T00:15:02Z</time>
      </trkpt>
      <trkpt lat="45.87471" lon="2.79953">
        <ele>705</ele>
        <time>2015-10-21T00:17:02Z</time>
      </trkpt>
      <trkpt lat="45.87485" lon="2.79989">
        <ele>703</ele>
        <time>2015-10-21T00:19:02Z</time>
      </trkpt>
      <trkpt lat="45.87473" lon="2.80055">
        <ele>703</ele>
        <time>2015-10-21T00:21:02Z</time>
      </trkpt>
      <trkpt lat="45.87467" lon="2.8011">
        <ele>703</ele>
        <time>2015-10-21T00:23:02Z</time>
      </trkpt>
      <trkpt lat="45.87461" lon="2.80182">
        <ele>701</ele>
        <time>2015-10-21T00:25:02Z</time>
      </trkpt>
      <trkpt lat="45.87463" lon="2.80256">
        <ele>697</ele>
        <time>2015-10-21T00:27:02Z</time>
      </trkpt>
      <trkpt lat="45.87465" lon="2.80296">
        <ele>696</ele>
        <time>2015-10-21T00:29:02Z</time>
      </trkpt>
      <trkpt lat="45.87455" lon="2.80344">
        <ele>691</ele>
        <time>2015-10-21T00:31:02Z</time>
      </trkpt>
      <trkpt lat="45.87474" lon="2.80405">
        <ele>690</ele>
        <time>2015-10-21T00:33:02Z</time>
      </trkpt>
      <trkpt lat="45.87528" lon="2.80504">
        <ele>687</ele>
        <time>2015-10-21T00:35:02Z</time>
      </trkpt>
      <trkpt lat="45.87555" lon="2.80548">
        <ele>685</ele>
        <time>2015-10-21T00:37:02Z</time>
      </trkpt>
      <trkpt lat="45.87597" lon="2.80663">
        <ele>671</ele>
        <time>2015-10-21T00:39:02Z</time>
      </trkpt>
      <trkpt lat="45.87614" lon="2.80737">
        <ele>660</ele>
        <time>2015-10-21T00:41:02Z</time>
      </trkpt>
      <trkpt lat="45.87649" lon="2.8084">
        <ele>646</ele>
        <time>2015-10-21T00:43:02Z</time>
      </trkpt>
      <trkpt lat="45.87673" lon="2.80867">
        <ele>642</ele>
        <time>2015-10-21T00:45:02Z</time>
      </trkpt>
      <trkpt lat="45.87724" lon="2.80889">
        <ele>634</ele>
        <time>2015-10-21T00:47:02Z</time>
      </trkpt>
      <trkpt lat="45.87766" lon="2.8088">
        <ele>630</ele>
        <time>2015-10-21T00:49:02Z</time>
      </trkpt>
      <trkpt lat="45.87779" lon="2.80869">
        <ele>628</ele>
        <time>2015-10-21T00:51:02Z</time>
      </trkpt>
      <trkpt lat="45.87812" lon="2.80839">
        <ele>624</ele>
        <time>2015-10-21T00:53:02Z</time>
      </trkpt>
      <trkpt lat="45.87825" lon="2.80826">
        <ele>622</ele>
        <time>2015-10-21T00:55:02Z</time>
      </trkpt>
      <trkpt lat="45.87868" lon="2.80824">
        <ele>608</ele>
        <time>2015-10-21T00:57:02Z</time>
      </trkpt>
      <trkpt lat="45.87893" lon="2.80823">
        <ele>599</ele>
        <time>2015-10-21T00:59:02Z</time>
      </trkpt>
      <trkpt lat="45.87911" lon="2.80796">
        <ele>596</ele>
        <time>2015-10-21T01:01:02Z</time>
      </trkpt>
      <trkpt lat="45.87928" lon="2.80802">
        <ele>590</ele>
        <time>2015-10-21T01:03:02Z</time>
      </trkpt>
      <trkpt lat="45.87952" lon="2.80821">
        <ele>581</ele>
        <time>2015-10-21T01:05:02Z</time>
      </trkpt>
      <trkpt lat="45.8797" lon="2.80832">
        <ele>575</ele>
        <time>2015-10-21T01:07:02Z</time>
      </trkpt>
      <trkpt lat="45.87995" lon="2.80827">
        <ele>569</ele>
        <time>2015-10-21T01:09:02Z</time>
      </trkpt>
      <trkpt lat="45.88021" lon="2.80801">
        <ele>568</ele>
        <time>2015-10-21T01:11:02Z</time>
      </trkpt>
      <trkpt lat="45.88036" lon="2.80795">
        <ele>566</ele>
        <time>2015-10-21T01:13:02Z</time>
      </trkpt>
      <trkpt lat="45.88022" lon="2.80826">
        <ele>566</ele>
        <time>2015-10-21T01:15:02Z</time>
      </trkpt>
      <trkpt lat="45.8801" lon="2.80842">
        <ele>565</ele>
        <time>2015-10-21T01:17:02Z</time>
      </trkpt>
      <trkpt lat="45.88026" lon="2.80889">
        <ele>563</ele>
        <time>2015-10-21T01:19:02Z</time>
      </trkpt>
      <trkpt lat="45.88027" lon="2.8092">
        <ele>563</ele>
        <time>2015-10-21T01:21:02Z</time>
      </trkpt>
      <trkpt lat="45.8801" lon="2.8096">
        <ele>564</ele>
        <time>2015-10-21T01:23:02Z</time>
      </trkpt>
      <trkpt lat="45.88029" lon="2.80959">
        <ele>567</ele>
        <time>2015-10-21T01:25:02Z</time>
      </trkpt>
      <trkpt lat="45.88063" lon="2.80957">
        <ele>571</ele>
        <time>2015-10-21T01:27:02Z</time>
      </trkpt>
      <trkpt lat="45.8807" lon="2.80948">
        <ele>571</ele>
        <time>2015-10-21T01:29:02Z</time>
      </trkpt>
      <trkpt lat="45.8809" lon="2.80976">
        <ele>574</ele>
        <time>2015-10-21T01:31:02Z</time>
      </trkpt>
      <trkpt lat="45.88105" lon="2.80972">
        <ele>571</ele>
        <time>2015-10-21T01:33:02Z</time>
      </trkpt>
    </trkseg>
  </trk>
  <trk>
    <name><![CDATA[--Saint-Georges-de-Mons-- OR-5365418:ser-jb05-l]]></name>
    <trkseg>
      <trkpt lat="45.9404" lon="2.8405">
        <ele>733</ele>
        <time>2015-10-18T15:14:06Z</time>
      </trkpt>
      <trkpt lat="45.94049" lon="2.83994">
        <ele>733</ele>
        <time>2015-10-18T15:16:06Z</time>
      </trkpt>
      <trkpt lat="45.94067" lon="2.83955">
        <ele>733</ele>
        <time>2015-10-18T15:18:06Z</time>
      </trkpt>
      <trkpt lat="45.94085" lon="2.83927">
        <ele>733</ele>
        <time>2015-10-18T15:20:06Z</time>
      </trkpt>
      <trkpt lat="45.94109" lon="2.83908">
        <ele>733</ele>
        <time>2015-10-18T15:22:06Z</time>
      </trkpt>
      <trkpt lat="45.94137" lon="2.83925">
        <ele>733</ele>
        <time>2015-10-18T15:24:06Z</time>
      </trkpt>
      <trkpt lat="45.94173" lon="2.83949">
        <ele>733</ele>
        <time>2015-10-18T15:26:06Z</time>
      </trkpt>
      <trkpt lat="45.94196" lon="2.83957">
        <ele>734</ele>
        <time>2015-10-18T15:28:06Z</time>
      </trkpt>
      <trkpt lat="45.94226" lon="2.83955">
        <ele>734</ele>
        <time>2015-10-18T15:30:06Z</time>
      </trkpt>
      <trkpt lat="45.94273" lon="2.83944">
        <ele>734</ele>
        <time>2015-10-18T15:32:06Z</time>
      </trkpt>
      <trkpt lat="45.94324" lon="2.83927">
        <ele>733</ele>
        <time>2015-10-18T15:34:06Z</time>
      </trkpt>
      <trkpt lat="45.94357" lon="2.83923">
        <ele>732</ele>
        <time>2015-10-18T15:36:06Z</time>
      </trkpt>
      <trkpt lat="45.94393" lon="2.83906">
        <ele>730</ele>
        <time>2015-10-18T15:38:06Z</time>
      </trkpt>
      <trkpt lat="45.94422" lon="2.83895">
        <ele>728</ele>
        <time>2015-10-18T15:40:06Z</time>
      </trkpt>
      <trkpt lat="45.94422" lon="2.83944">
        <ele>728</ele>
        <time>2015-10-18T15:42:06Z</time>
      </trkpt>
      <trkpt lat="45.94425" lon="2.83996">
        <ele>729</ele>
        <time>2015-10-18T15:44:06Z</time>
      </trkpt>
      <trkpt lat="45.94421" lon="2.84039">
        <ele>729</ele>
        <time>2015-10-18T15:46:06Z</time>
      </trkpt>
      <trkpt lat="45.94415" lon="2.84095">
        <ele>731</ele>
        <time>2015-10-18T15:48:06Z</time>
      </trkpt>
      <trkpt lat="45.94412" lon="2.8414">
        <ele>734</ele>
        <time>2015-10-18T15:50:06Z</time>
      </trkpt>
      <trkpt lat="45.94411" lon="2.8417">
        <ele>735</ele>
        <time>2015-10-18T15:52:06Z</time>
      </trkpt>
      <trkpt lat="45.94437" lon="2.84167">
        <ele>735</ele>
        <time>2015-10-18T15:54:06Z</time>
      </trkpt>
      <trkpt lat="45.94469" lon="2.84163">
        <ele>735</ele>
        <time>2015-10-18T15:56:06Z</time>
      </trkpt>
      <trkpt lat="45.94497" lon="2.84159">
        <ele>734</ele>
        <time>2015-10-18T15:58:06Z</time>
      </trkpt>
      <trkpt lat="45.94525" lon="2.84161">
        <ele>734</ele>
        <time>2015-10-18T16:00:06Z</time>
      </trkpt>
      <trkpt lat="45.9456" lon="2.84155">
        <ele>733</ele>
        <time>2015-10-18T16:02:06Z</time>
      </trkpt>
      <trkpt lat="45.9459" lon="2.84165">
        <ele>733</ele>
        <time>2015-10-18T16:04:06Z</time>
      </trkpt>
      <trkpt lat="45.94612" lon="2.84189">
        <ele>735</ele>
        <time>2015-10-18T16:06:06Z</time>
      </trkpt>
      <trkpt lat="45.94639" lon="2.84204">
        <ele>736</ele>
        <time>2015-10-18T16:08:06Z</time>
      </trkpt>
      <trkpt lat="45.94667" lon="2.842">
        <ele>736</ele>
        <time>2015-10-18T16:10:06Z</time>
      </trkpt>
      <trkpt lat="45.94693" lon="2.84206">
        <ele>735</ele>
        <time>2015-10-18T16:12:06Z</time>
      </trkpt>
      <trkpt lat="45.94718" lon="2.84223">
        <ele>735</ele>
        <time>2015-10-18T16:14:06Z</time>
      </trkpt>
      <trkpt lat="45.94755" lon="2.84236">
        <ele>734</ele>
        <time>2015-10-18T16:16:06Z</time>
      </trkpt>
      <trkpt lat="45.94781" lon="2.84249">
        <ele>732</ele>
        <time>2015-10-18T16:18:06Z</time>
      </trkpt>
      <trkpt lat="45.94809" lon="2.8426">
        <ele>730</ele>
        <time>2015-10-18T16:20:06Z</time>
      </trkpt>
      <trkpt lat="45.94833" lon="2.84268">
        <ele>729</ele>
        <time>2015-10-18T16:22:06Z</time>
      </trkpt>
      <trkpt lat="45.94857" lon="2.8427">
        <ele>729</ele>
        <time>2015-10-18T16:24:06Z</time>
      </trkpt>
      <trkpt lat="45.94882" lon="2.84258">
        <ele>729</ele>
        <time>2015-10-18T16:26:06Z</time>
      </trkpt>
      <trkpt lat="45.94906" lon="2.84245">
        <ele>730</ele>
        <time>2015-10-18T16:28:06Z</time>
      </trkpt>
      <trkpt lat="45.9494" lon="2.8423">
        <ele>730</ele>
        <time>2015-10-18T16:30:06Z</time>
      </trkpt>
      <trkpt lat="45.94967" lon="2.84288">
        <ele>732</ele>
        <time>2015-10-18T16:32:06Z</time>
      </trkpt>
      <trkpt lat="45.94995" lon="2.84352">
        <ele>736</ele>
        <time>2015-10-18T16:34:06Z</time>
      </trkpt>
      <trkpt lat="45.95018" lon="2.84419">
        <ele>738</ele>
        <time>2015-10-18T16:36:06Z</time>
      </trkpt>
      <trkpt lat="45.95048" lon="2.84491">
        <ele>741</ele>
        <time>2015-10-18T16:38:06Z</time>
      </trkpt>
      <trkpt lat="45.95057" lon="2.84543">
        <ele>742</ele>
        <time>2015-10-18T16:40:06Z</time>
      </trkpt>
      <trkpt lat="45.95021" lon="2.84571">
        <ele>742</ele>
        <time>2015-10-18T16:42:06Z</time>
      </trkpt>
      <trkpt lat="45.94977" lon="2.84592">
        <ele>741</ele>
        <time>2015-10-18T16:44:06Z</time>
      </trkpt>
      <trkpt lat="45.9496" lon="2.84618">
        <ele>742</ele>
        <time>2015-10-18T16:46:06Z</time>
      </trkpt>
      <trkpt lat="45.94966" lon="2.84676">
        <ele>744</ele>
        <time>2015-10-18T16:48:06Z</time>
      </trkpt>
      <trkpt lat="45.94982" lon="2.84781">
        <ele>749</ele>
        <time>2015-10-18T16:50:06Z</time>
      </trkpt>
      <trkpt lat="45.95001" lon="2.84876">
        <ele>752</ele>
        <time>2015-10-18T16:52:06Z</time>
      </trkpt>
      <trkpt lat="45.9501" lon="2.84951">
        <ele>754</ele>
        <time>2015-10-18T16:54:06Z</time>
      </trkpt>
      <trkpt lat="45.95024" lon="2.85082">
        <ele>755</ele>
        <time>2015-10-18T16:56:06Z</time>
      </trkpt>
      <trkpt lat="45.95149" lon="2.85189">
        <ele>753</ele>
        <time>2015-10-18T16:58:06Z</time>
      </trkpt>
      <trkpt lat="45.95294" lon="2.85315">
        <ele>743</ele>
        <time>2015-10-18T17:00:06Z</time>
      </trkpt>
      <trkpt lat="45.95362" lon="2.85373">
        <ele>737</ele>
        <time>2015-10-18T17:02:06Z</time>
      </trkpt>
      <trkpt lat="45.95459" lon="2.85431">
        <ele>729</ele>
        <time>2015-10-18T17:04:06Z</time>
      </trkpt>
      <trkpt lat="45.95506" lon="2.85451">
        <ele>727</ele>
        <time>2015-10-18T17:06:06Z</time>
      </trkpt>
      <trkpt lat="45.95537" lon="2.85479">
        <ele>726</ele>
        <time>2015-10-18T17:08:06Z</time>
      </trkpt>
      <trkpt lat="45.95555" lon="2.85539">
        <ele>726</ele>
        <time>2015-10-18T17:10:06Z</time>
      </trkpt>
      <trkpt lat="45.95541" lon="2.85601">
        <ele>729</ele>
        <time>2015-10-18T17:12:06Z</time>
      </trkpt>
      <trkpt lat="45.95446" lon="2.85938">
        <ele>742</ele>
        <time>2015-10-18T17:14:06Z</time>
      </trkpt>
      <trkpt lat="45.95521" lon="2.8597">
        <ele>742</ele>
        <time>2015-10-18T17:16:06Z</time>
      </trkpt>
      <trkpt lat="45.95583" lon="2.85983">
        <ele>742</ele>
        <time>2015-10-18T17:18:06Z</time>
      </trkpt>
      <trkpt lat="45.95619" lon="2.85961">
        <ele>741</ele>
        <time>2015-10-18T17:20:06Z</time>
      </trkpt>
      <trkpt lat="45.95625" lon="2.85852">
        <ele>740</ele>
        <time>2015-10-18T17:22:06Z</time>
      </trkpt>
      <trkpt lat="45.95638" lon="2.8576">
        <ele>738</ele>
        <time>2015-10-18T17:24:06Z</time>
      </trkpt>
      <trkpt lat="45.95668" lon="2.85687">
        <ele>738</ele>
        <time>2015-10-18T17:26:06Z</time>
      </trkpt>
      <trkpt lat="45.95695" lon="2.85633">
        <ele>736</ele>
        <time>2015-10-18T17:28:06Z</time>
      </trkpt>
      <trkpt lat="45.9574" lon="2.85549">
        <ele>732</ele>
        <time>2015-10-18T17:30:06Z</time>
      </trkpt>
      <trkpt lat="45.95777" lon="2.85504">
        <ele>728</ele>
        <time>2015-10-18T17:32:06Z</time>
      </trkpt>
      <trkpt lat="45.95797" lon="2.85442">
        <ele>723</ele>
        <time>2015-10-18T17:34:06Z</time>
      </trkpt>
      <trkpt lat="45.95822" lon="2.85391">
        <ele>720</ele>
        <time>2015-10-18T17:36:06Z</time>
      </trkpt>
      <trkpt lat="45.95871" lon="2.85326">
        <ele>717</ele>
        <time>2015-10-18T17:38:06Z</time>
      </trkpt>
      <trkpt lat="45.9592" lon="2.85292">
        <ele>717</ele>
        <time>2015-10-18T17:40:06Z</time>
      </trkpt>
      <trkpt lat="45.95941" lon="2.85285">
        <ele>715</ele>
        <time>2015-10-18T17:42:06Z</time>
      </trkpt>
      <trkpt lat="45.95962" lon="2.85236">
        <ele>713</ele>
        <time>2015-10-18T17:44:06Z</time>
      </trkpt>
      <trkpt lat="45.95958" lon="2.8515">
        <ele>715</ele>
        <time>2015-10-18T17:46:06Z</time>
      </trkpt>
      <trkpt lat="45.95959" lon="2.85097">
        <ele>717</ele>
        <time>2015-10-18T17:48:06Z</time>
      </trkpt>
      <trkpt lat="45.95984" lon="2.85006">
        <ele>724</ele>
        <time>2015-10-18T17:50:06Z</time>
      </trkpt>
      <trkpt lat="45.96001" lon="2.84944">
        <ele>727</ele>
        <time>2015-10-18T17:52:06Z</time>
      </trkpt>
      <trkpt lat="45.96022" lon="2.84869">
        <ele>729</ele>
        <time>2015-10-18T17:54:06Z</time>
      </trkpt>
      <trkpt lat="45.96083" lon="2.84734">
        <ele>724</ele>
        <time>2015-10-18T17:56:06Z</time>
      </trkpt>
      <trkpt lat="45.96147" lon="2.84605">
        <ele>721</ele>
        <time>2015-10-18T17:58:06Z</time>
      </trkpt>
      <trkpt lat="45.96225" lon="2.84513">
        <ele>718</ele>
        <time>2015-10-18T18:00:06Z</time>
      </trkpt>
      <trkpt lat="45.96307" lon="2.84393">
        <ele>722</ele>
        <time>2015-10-18T18:02:06Z</time>
      </trkpt>
      <trkpt lat="45.96354" lon="2.84305">
        <ele>723</ele>
        <time>2015-10-18T18:04:06Z</time>
      </trkpt>
      <trkpt lat="45.9642" lon="2.84236">
        <ele>716</ele>
        <time>2015-10-18T18:06:06Z</time>
      </trkpt>
      <trkpt lat="45.96436" lon="2.84189">
        <ele>709</ele>
        <time>2015-10-18T18:08:06Z</time>
      </trkpt>
      <trkpt lat="45.96509" lon="2.84163">
        <ele>700</ele>
        <time>2015-10-18T18:10:06Z</time>
      </trkpt>
      <trkpt lat="45.96575" lon="2.84129">
        <ele>698</ele>
        <time>2015-10-18T18:12:06Z</time>
      </trkpt>
      <trkpt lat="45.96618" lon="2.84118">
        <ele>698</ele>
        <time>2015-10-18T18:14:06Z</time>
      </trkpt>
      <trkpt lat="45.96685" lon="2.84105">
        <ele>700</ele>
        <time>2015-10-18T18:16:06Z</time>
      </trkpt>
      <trkpt lat="45.96738" lon="2.84135">
        <ele>703</ele>
        <time>2015-10-18T18:18:06Z</time>
      </trkpt>
      <trkpt lat="45.96768" lon="2.84176">
        <ele>704</ele>
        <time>2015-10-18T18:20:06Z</time>
      </trkpt>
      <trkpt lat="45.96806" lon="2.84202">
        <ele>705</ele>
        <time>2015-10-18T18:22:06Z</time>
      </trkpt>
      <trkpt lat="45.9686" lon="2.84223">
        <ele>707</ele>
        <time>2015-10-18T18:24:06Z</time>
      </trkpt>
      <trkpt lat="45.96902" lon="2.84249">
        <ele>705</ele>
        <time>2015-10-18T18:26:06Z</time>
      </trkpt>
      <trkpt lat="45.96952" lon="2.84309">
        <ele>701</ele>
        <time>2015-10-18T18:28:06Z</time>
      </trkpt>
      <trkpt lat="45.96987" lon="2.84365">
        <ele>699</ele>
        <time>2015-10-18T18:30:06Z</time>
      </trkpt>
      <trkpt lat="45.97027" lon="2.84423">
        <ele>695</ele>
        <time>2015-10-18T18:32:06Z</time>
      </trkpt>
      <trkpt lat="45.97067" lon="2.84479">
        <ele>690</ele>
        <time>2015-10-18T18:34:06Z</time>
      </trkpt>
      <trkpt lat="45.97099" lon="2.84534">
        <ele>685</ele>
        <time>2015-10-18T18:36:06Z</time>
      </trkpt>
      <trkpt lat="45.97136" lon="2.84592">
        <ele>681</ele>
        <time>2015-10-18T18:38:06Z</time>
      </trkpt>
      <trkpt lat="45.97164" lon="2.84657">
        <ele>676</ele>
        <time>2015-10-18T18:40:06Z</time>
      </trkpt>
      <trkpt lat="45.97188" lon="2.84725">
        <ele>669</ele>
        <time>2015-10-18T18:42:06Z</time>
      </trkpt>
      <trkpt lat="45.97206" lon="2.84805">
        <ele>667</ele>
        <time>2015-10-18T18:44:06Z</time>
      </trkpt>
      <trkpt lat="45.97212" lon="2.84873">
        <ele>668</ele>
        <time>2015-10-18T18:46:06Z</time>
      </trkpt>
      <trkpt lat="45.97225" lon="2.84918">
        <ele>671</ele>
        <time>2015-10-18T18:48:06Z</time>
      </trkpt>
      <trkpt lat="45.97255" lon="2.84964">
        <ele>675</ele>
        <time>2015-10-18T18:50:06Z</time>
      </trkpt>
      <trkpt lat="45.97216" lon="2.84897">
        <ele>669</ele>
        <time>2015-10-18T18:52:06Z</time>
      </trkpt>
      <trkpt lat="45.972" lon="2.85011">
        <ele>667</ele>
        <time>2015-10-18T18:54:06Z</time>
      </trkpt>
      <trkpt lat="45.97196" lon="2.85086">
        <ele>661</ele>
        <time>2015-10-18T18:56:06Z</time>
      </trkpt>
      <trkpt lat="45.97228" lon="2.8517">
        <ele>655</ele>
        <time>2015-10-18T18:58:06Z</time>
      </trkpt>
      <trkpt lat="45.97246" lon="2.85215">
        <ele>650</ele>
        <time>2015-10-18T19:00:06Z</time>
      </trkpt>
      <trkpt lat="45.97285" lon="2.85249">
        <ele>633</ele>
        <time>2015-10-18T19:02:06Z</time>
      </trkpt>
      <trkpt lat="45.97243" lon="2.85245">
        <ele>642</ele>
        <time>2015-10-18T19:04:06Z</time>
      </trkpt>
      <trkpt lat="45.97181" lon="2.85163">
        <ele>641</ele>
        <time>2015-10-18T19:06:06Z</time>
      </trkpt>
      <trkpt lat="45.97127" lon="2.85069">
        <ele>638</ele>
        <time>2015-10-18T19:08:06Z</time>
      </trkpt>
      <trkpt lat="45.97097" lon="2.85019">
        <ele>635</ele>
        <time>2015-10-18T19:10:06Z</time>
      </trkpt>
      <trkpt lat="45.97061" lon="2.84981">
        <ele>633</ele>
        <time>2015-10-18T19:12:06Z</time>
      </trkpt>
      <trkpt lat="45.97002" lon="2.84936">
        <ele>632</ele>
        <time>2015-10-18T19:14:06Z</time>
      </trkpt>
      <trkpt lat="45.96924" lon="2.84897">
        <ele>627</ele>
        <time>2015-10-18T19:16:06Z</time>
      </trkpt>
      <trkpt lat="45.96859" lon="2.84882">
        <ele>623</ele>
        <time>2015-10-18T19:18:06Z</time>
      </trkpt>
      <trkpt lat="45.96808" lon="2.84848">
        <ele>632</ele>
        <time>2015-10-18T19:20:06Z</time>
      </trkpt>
      <trkpt lat="45.96818" lon="2.84891">
        <ele>623</ele>
        <time>2015-10-18T19:22:06Z</time>
      </trkpt>
      <trkpt lat="45.9689" lon="2.84944">
        <ele>612</ele>
        <time>2015-10-18T19:24:06Z</time>
      </trkpt>
      <trkpt lat="45.96929" lon="2.84985">
        <ele>604</ele>
        <time>2015-10-18T19:26:06Z</time>
      </trkpt>
      <trkpt lat="45.96957" lon="2.85024">
        <ele>599</ele>
        <time>2015-10-18T19:28:06Z</time>
      </trkpt>
      <trkpt lat="45.97014" lon="2.85112">
        <ele>586</ele>
        <time>2015-10-18T19:30:06Z</time>
      </trkpt>
      <trkpt lat="45.97032" lon="2.85161">
        <ele>583</ele>
        <time>2015-10-18T19:32:06Z</time>
      </trkpt>
      <trkpt lat="45.97061" lon="2.85238">
        <ele>577</ele>
        <time>2015-10-18T19:34:06Z</time>
      </trkpt>
      <trkpt lat="45.97075" lon="2.85283">
        <ele>570</ele>
        <time>2015-10-18T19:36:06Z</time>
      </trkpt>
      <trkpt lat="45.97121" lon="2.85373">
        <ele>566</ele>
        <time>2015-10-18T19:38:06Z</time>
      </trkpt>
      <trkpt lat="45.97142" lon="2.85431">
        <ele>562</ele>
        <time>2015-10-18T19:40:06Z</time>
      </trkpt>
      <trkpt lat="45.9716" lon="2.85494">
        <ele>555</ele>
        <time>2015-10-18T19:42:06Z</time>
      </trkpt>
      <trkpt lat="45.97173" lon="2.85532">
        <ele>551</ele>
        <time>2015-10-18T19:44:06Z</time>
      </trkpt>
      <trkpt lat="45.972" lon="2.85588">
        <ele>545</ele>
        <time>2015-10-18T19:46:06Z</time>
      </trkpt>
      <trkpt lat="45.97228" lon="2.85616">
        <ele>544</ele>
        <time>2015-10-18T19:48:06Z</time>
      </trkpt>
      <trkpt lat="45.9726" lon="2.85642">
        <ele>541</ele>
        <time>2015-10-18T19:50:06Z</time>
      </trkpt>
      <trkpt lat="45.9729" lon="2.8567">
        <ele>534</ele>
        <time>2015-10-18T19:52:06Z</time>
      </trkpt>
      <trkpt lat="45.97322" lon="2.85685">
        <ele>531</ele>
        <time>2015-10-18T19:54:06Z</time>
      </trkpt>
      <trkpt lat="45.97357" lon="2.85674">
        <ele>537</ele>
        <time>2015-10-18T19:56:06Z</time>
      </trkpt>
      <trkpt lat="45.97389" lon="2.85676">
        <ele>537</ele>
        <time>2015-10-18T19:58:06Z</time>
      </trkpt>
      <trkpt lat="45.97427" lon="2.85706">
        <ele>526</ele>
        <time>2015-10-18T20:00:06Z</time>
      </trkpt>
      <trkpt lat="45.97467" lon="2.85723">
        <ele>520</ele>
        <time>2015-10-18T20:02:06Z</time>
      </trkpt>
      <trkpt lat="45.97553" lon="2.85725">
        <ele>519</ele>
        <time>2015-10-18T20:04:06Z</time>
      </trkpt>
      <trkpt lat="45.97613" lon="2.85727">
        <ele>511</ele>
        <time>2015-10-18T20:06:06Z</time>
      </trkpt>
      <trkpt lat="45.97613" lon="2.8576">
        <ele>502</ele>
        <time>2015-10-18T20:08:06Z</time>
      </trkpt>
      <trkpt lat="45.97549" lon="2.85788">
        <ele>494</ele>
        <time>2015-10-18T20:10:06Z</time>
      </trkpt>
      <trkpt lat="45.97477" lon="2.85803">
        <ele>488</ele>
        <time>2015-10-18T20:12:06Z</time>
      </trkpt>
      <trkpt lat="45.97355" lon="2.85809">
        <ele>485</ele>
        <time>2015-10-18T20:14:06Z</time>
      </trkpt>
      <trkpt lat="45.97297" lon="2.85805">
        <ele>486</ele>
        <time>2015-10-18T20:16:06Z</time>
      </trkpt>
      <trkpt lat="45.97255" lon="2.85818">
        <ele>480</ele>
        <time>2015-10-18T20:18:06Z</time>
      </trkpt>
      <trkpt lat="45.97242" lon="2.85839">
        <ele>476</ele>
        <time>2015-10-18T20:20:06Z</time>
      </trkpt>
      <trkpt lat="45.97254" lon="2.85893">
        <ele>481</ele>
        <time>2015-10-18T20:22:06Z</time>
      </trkpt>
      <trkpt lat="45.97279" lon="2.85895">
        <ele>480</ele>
        <time>2015-10-18T20:24:06Z</time>
      </trkpt>
      <trkpt lat="45.97306" lon="2.85897">
        <ele>480</ele>
        <time>2015-10-18T20:26:06Z</time>
      </trkpt>
      <trkpt lat="45.97352" lon="2.85923">
        <ele>481</ele>
        <time>2015-10-18T20:28:06Z</time>
      </trkpt>
      <trkpt lat="45.97409" lon="2.85923">
        <ele>476</ele>
        <time>2015-10-18T20:30:06Z</time>
      </trkpt>
      <trkpt lat="45.9751" lon="2.85921">
        <ele>470</ele>
        <time>2015-10-18T20:32:06Z</time>
      </trkpt>
      <trkpt lat="45.97549" lon="2.85923">
        <ele>467</ele>
        <time>2015-10-18T20:34:06Z</time>
      </trkpt>
      <trkpt lat="45.97589" lon="2.85923">
        <ele>463</ele>
        <time>2015-10-18T20:36:06Z</time>
      </trkpt>
      <trkpt lat="45.97627" lon="2.85931">
        <ele>463</ele>
        <time>2015-10-18T20:38:06Z</time>
      </trkpt>
      <trkpt lat="45.97667" lon="2.85929">
        <ele>459</ele>
        <time>2015-10-18T20:40:06Z</time>
      </trkpt>
      <trkpt lat="45.977" lon="2.85931">
        <ele>456</ele>
        <time>2015-10-18T20:42:06Z</time>
      </trkpt>
      <trkpt lat="45.9775" lon="2.85955">
        <ele>457</ele>
        <time>2015-10-18T20:44:06Z</time>
      </trkpt>
      <trkpt lat="45.9778" lon="2.85981">
        <ele>458</ele>
        <time>2015-10-18T20:46:06Z</time>
      </trkpt>
      <trkpt lat="45.97861" lon="2.86013">
        <ele>451</ele>
        <time>2015-10-18T20:48:06Z</time>
      </trkpt>
      <trkpt lat="45.9787" lon="2.86036">
        <ele>454</ele>
        <time>2015-10-18T20:50:06Z</time>
      </trkpt>
      <trkpt lat="45.97868" lon="2.86086">
        <ele>459</ele>
        <time>2015-10-18T20:52:06Z</time>
      </trkpt>
      <trkpt lat="45.97831" lon="2.86279">
        <ele>461</ele>
        <time>2015-10-18T20:54:06Z</time>
      </trkpt>
      <trkpt lat="45.97805" lon="2.86498">
        <ele>470</ele>
        <time>2015-10-18T20:56:06Z</time>
      </trkpt>
      <trkpt lat="45.97807" lon="2.86564">
        <ele>465</ele>
        <time>2015-10-18T20:58:06Z</time>
      </trkpt>
      <trkpt lat="45.97814" lon="2.86639">
        <ele>459</ele>
        <time>2015-10-18T21:00:06Z</time>
      </trkpt>
      <trkpt lat="45.97813" lon="2.86732">
        <ele>470</ele>
        <time>2015-10-18T21:02:06Z</time>
      </trkpt>
      <trkpt lat="45.97864" lon="2.86794">
        <ele>461</ele>
        <time>2015-10-18T21:04:06Z</time>
      </trkpt>
      <trkpt lat="45.97887" lon="2.86843">
        <ele>461</ele>
        <time>2015-10-18T21:06:06Z</time>
      </trkpt>
      <trkpt lat="45.97917" lon="2.86888">
        <ele>455</ele>
        <time>2015-10-18T21:08:06Z</time>
      </trkpt>
      <trkpt lat="45.97944" lon="2.86946">
        <ele>459</ele>
        <time>2015-10-18T21:10:06Z</time>
      </trkpt>
      <trkpt lat="45.9799" lon="2.87017">
        <ele>447</ele>
        <time>2015-10-18T21:12:06Z</time>
      </trkpt>
      <trkpt lat="45.9801" lon="2.87004">
        <ele>435</ele>
        <time>2015-10-18T21:14:06Z</time>
      </trkpt>
      <trkpt lat="45.9806" lon="2.86957">
        <ele>427</ele>
        <time>2015-10-18T21:16:06Z</time>
      </trkpt>
      <trkpt lat="45.98089" lon="2.86931">
        <ele>428</ele>
        <time>2015-10-18T21:18:06Z</time>
      </trkpt>
      <trkpt lat="45.98114" lon="2.86929">
        <ele>436</ele>
        <time>2015-10-18T21:20:06Z</time>
      </trkpt>
      <trkpt lat="45.98135" lon="2.86948">
        <ele>441</ele>
        <time>2015-10-18T21:22:06Z</time>
      </trkpt>
      <trkpt lat="45.9815" lon="2.86938">
        <ele>446</ele>
        <time>2015-10-18T21:24:06Z</time>
      </trkpt>
      <trkpt lat="45.98166" lon="2.86918">
        <ele>452</ele>
        <time>2015-10-18T21:26:06Z</time>
      </trkpt>
      <trkpt lat="45.98137" lon="2.86897">
        <ele>448</ele>
        <time>2015-10-18T21:28:06Z</time>
      </trkpt>
      <trkpt lat="45.98116" lon="2.86878">
        <ele>447</ele>
        <time>2015-10-18T21:30:06Z</time>
      </trkpt>
      <trkpt lat="45.98159" lon="2.86839">
        <ele>470</ele>
        <time>2015-10-18T21:32:06Z</time>
      </trkpt>
      <trkpt lat="45.98201" lon="2.86837">
        <ele>481</ele>
        <time>2015-10-18T21:34:06Z</time>
      </trkpt>
      <trkpt lat="45.98239" lon="2.86835">
        <ele>489</ele>
        <time>2015-10-18T21:36:06Z</time>
      </trkpt>
      <trkpt lat="45.98277" lon="2.86843">
        <ele>491</ele>
        <time>2015-10-18T21:38:06Z</time>
      </trkpt>
      <trkpt lat="45.98284" lon="2.86845">
        <ele>491</ele>
        <time>2015-10-18T21:40:06Z</time>
      </trkpt>
      <trkpt lat="45.9823" lon="2.8692">
        <ele>471</ele>
        <time>2015-10-18T21:42:06Z</time>
      </trkpt>
      <trkpt lat="45.98226" lon="2.86938">
        <ele>470</ele>
        <time>2015-10-18T21:44:06Z</time>
      </trkpt>
      <trkpt lat="45.98239" lon="2.8697">
        <ele>476</ele>
        <time>2015-10-18T21:46:06Z</time>
      </trkpt>
      <trkpt lat="45.98254" lon="2.86996">
        <ele>482</ele>
        <time>2015-10-18T21:48:06Z</time>
      </trkpt>
      <trkpt lat="45.98266" lon="2.87049">
        <ele>488</ele>
        <time>2015-10-18T21:50:06Z</time>
      </trkpt>
      <trkpt lat="45.98293" lon="2.87036">
        <ele>496</ele>
        <time>2015-10-18T21:52:06Z</time>
      </trkpt>
      <trkpt lat="45.98335" lon="2.86996">
        <ele>504</ele>
        <time>2015-10-18T21:54:06Z</time>
      </trkpt>
      <trkpt lat="45.98378" lon="2.86951">
        <ele>508</ele>
        <time>2015-10-18T21:56:06Z</time>
      </trkpt>
      <trkpt lat="45.98406" lon="2.86931">
        <ele>511</ele>
        <time>2015-10-18T21:58:06Z</time>
      </trkpt>
      <trkpt lat="45.98468" lon="2.86899">
        <ele>525</ele>
        <time>2015-10-18T22:00:06Z</time>
      </trkpt>
      <trkpt lat="45.98508" lon="2.86796">
        <ele>535</ele>
        <time>2015-10-18T22:02:06Z</time>
      </trkpt>
      <trkpt lat="45.98533" lon="2.86783">
        <ele>545</ele>
        <time>2015-10-18T22:04:06Z</time>
      </trkpt>
      <trkpt lat="45.98514" lon="2.86843">
        <ele>536</ele>
        <time>2015-10-18T22:06:06Z</time>
      </trkpt>
      <trkpt lat="45.98508" lon="2.86931">
        <ele>542</ele>
        <time>2015-10-18T22:08:06Z</time>
      </trkpt>
      <trkpt lat="45.98506" lon="2.87034">
        <ele>556</ele>
        <time>2015-10-18T22:10:06Z</time>
      </trkpt>
      <trkpt lat="45.98491" lon="2.87114">
        <ele>562</ele>
        <time>2015-10-18T22:12:06Z</time>
      </trkpt>
      <trkpt lat="45.98481" lon="2.87176">
        <ele>565</ele>
        <time>2015-10-18T22:14:06Z</time>
      </trkpt>
      <trkpt lat="45.98479" lon="2.87236">
        <ele>566</ele>
        <time>2015-10-18T22:16:06Z</time>
      </trkpt>
      <trkpt lat="45.98496" lon="2.8726">
        <ele>567</ele>
        <time>2015-10-18T22:18:06Z</time>
      </trkpt>
      <trkpt lat="45.98527" lon="2.87234">
        <ele>574</ele>
        <time>2015-10-18T22:20:06Z</time>
      </trkpt>
      <trkpt lat="45.98552" lon="2.87165">
        <ele>584</ele>
        <time>2015-10-18T22:22:06Z</time>
      </trkpt>
      <trkpt lat="45.98594" lon="2.87103">
        <ele>593</ele>
        <time>2015-10-18T22:24:06Z</time>
      </trkpt>
      <trkpt lat="45.9862" lon="2.87064">
        <ele>600</ele>
        <time>2015-10-18T22:26:06Z</time>
      </trkpt>
      <trkpt lat="45.98637" lon="2.87021">
        <ele>603</ele>
        <time>2015-10-18T22:28:06Z</time>
      </trkpt>
      <trkpt lat="45.98663" lon="2.86968">
        <ele>610</ele>
        <time>2015-10-18T22:30:06Z</time>
      </trkpt>
      <trkpt lat="45.98688" lon="2.86905">
        <ele>615</ele>
        <time>2015-10-18T22:32:06Z</time>
      </trkpt>
      <trkpt lat="45.98733" lon="2.86843">
        <ele>628</ele>
        <time>2015-10-18T22:34:06Z</time>
      </trkpt>
      <trkpt lat="45.98766" lon="2.86787">
        <ele>639</ele>
        <time>2015-10-18T22:36:06Z</time>
      </trkpt>
      <trkpt lat="45.98793" lon="2.86689">
        <ele>650</ele>
        <time>2015-10-18T22:38:06Z</time>
      </trkpt>
      <trkpt lat="45.98793" lon="2.86639">
        <ele>655</ele>
        <time>2015-10-18T22:40:06Z</time>
      </trkpt>
      <trkpt lat="45.98791" lon="2.86596">
        <ele>661</ele>
        <time>2015-10-18T22:42:06Z</time>
      </trkpt>
      <trkpt lat="45.9876" lon="2.86509">
        <ele>666</ele>
        <time>2015-10-18T22:44:06Z</time>
      </trkpt>
      <trkpt lat="45.98746" lon="2.86461">
        <ele>670</ele>
        <time>2015-10-18T22:46:06Z</time>
      </trkpt>
      <trkpt lat="45.98725" lon="2.86399">
        <ele>673</ele>
        <time>2015-10-18T22:48:06Z</time>
      </trkpt>
      <trkpt lat="45.98715" lon="2.86339">
        <ele>677</ele>
        <time>2015-10-18T22:50:06Z</time>
      </trkpt>
      <trkpt lat="45.98722" lon="2.863">
        <ele>681</ele>
        <time>2015-10-18T22:52:06Z</time>
      </trkpt>
      <trkpt lat="45.98763" lon="2.8629">
        <ele>687</ele>
        <time>2015-10-18T22:54:06Z</time>
      </trkpt>
      <trkpt lat="45.98796" lon="2.86315">
        <ele>689</ele>
        <time>2015-10-18T22:56:06Z</time>
      </trkpt>
      <trkpt lat="45.98846" lon="2.86339">
        <ele>693</ele>
        <time>2015-10-18T22:58:06Z</time>
      </trkpt>
      <trkpt lat="45.98892" lon="2.86363">
        <ele>696</ele>
        <time>2015-10-18T23:00:06Z</time>
      </trkpt>
      <trkpt lat="45.98933" lon="2.86397">
        <ele>701</ele>
        <time>2015-10-18T23:02:06Z</time>
      </trkpt>
      <trkpt lat="45.98965" lon="2.8644">
        <ele>703</ele>
        <time>2015-10-18T23:04:06Z</time>
      </trkpt>
      <trkpt lat="45.99001" lon="2.86474">
        <ele>704</ele>
        <time>2015-10-18T23:06:06Z</time>
      </trkpt>
      <trkpt lat="45.99039" lon="2.86478">
        <ele>705</ele>
        <time>2015-10-18T23:08:06Z</time>
      </trkpt>
      <trkpt lat="45.99064" lon="2.86466">
        <ele>706</ele>
        <time>2015-10-18T23:10:06Z</time>
      </trkpt>
      <trkpt lat="45.99103" lon="2.8644">
        <ele>707</ele>
        <time>2015-10-18T23:12:06Z</time>
      </trkpt>
      <trkpt lat="45.99149" lon="2.8641">
        <ele>711</ele>
        <time>2015-10-18T23:14:06Z</time>
      </trkpt>
      <trkpt lat="45.99158" lon="2.86382">
        <ele>711</ele>
        <time>2015-10-18T23:16:06Z</time>
      </trkpt>
      <trkpt lat="45.99171" lon="2.8633">
        <ele>712</ele>
        <time>2015-10-18T23:18:06Z</time>
      </trkpt>
      <trkpt lat="45.99216" lon="2.8629">
        <ele>713</ele>
        <time>2015-10-18T23:20:06Z</time>
      </trkpt>
      <trkpt lat="45.99264" lon="2.86266">
        <ele>713</ele>
        <time>2015-10-18T23:22:06Z</time>
      </trkpt>
      <trkpt lat="45.99344" lon="2.8624">
        <ele>712</ele>
        <time>2015-10-18T23:24:06Z</time>
      </trkpt>
      <trkpt lat="45.99387" lon="2.86247">
        <ele>713</ele>
        <time>2015-10-18T23:26:06Z</time>
      </trkpt>
      <trkpt lat="45.99444" lon="2.8629">
        <ele>713</ele>
        <time>2015-10-18T23:28:06Z</time>
      </trkpt>
      <trkpt lat="45.99501" lon="2.86397">
        <ele>711</ele>
        <time>2015-10-18T23:30:06Z</time>
      </trkpt>
      <trkpt lat="45.99535" lon="2.86446">
        <ele>710</ele>
        <time>2015-10-18T23:32:06Z</time>
      </trkpt>
      <trkpt lat="45.99601" lon="2.86528">
        <ele>707</ele>
        <time>2015-10-18T23:34:06Z</time>
      </trkpt>
      <trkpt lat="45.99636" lon="2.86504">
        <ele>707</ele>
        <time>2015-10-18T23:36:06Z</time>
      </trkpt>
      <trkpt lat="45.99729" lon="2.86493">
        <ele>705</ele>
        <time>2015-10-18T23:38:06Z</time>
      </trkpt>
      <trkpt lat="45.99838" lon="2.86526">
        <ele>703</ele>
        <time>2015-10-18T23:40:06Z</time>
      </trkpt>
      <trkpt lat="45.99879" lon="2.86539">
        <ele>703</ele>
        <time>2015-10-18T23:42:06Z</time>
      </trkpt>
      <trkpt lat="45.99921" lon="2.86564">
        <ele>702</ele>
        <time>2015-10-18T23:44:06Z</time>
      </trkpt>
      <trkpt lat="46.00007" lon="2.86627">
        <ele>702</ele>
        <time>2015-10-18T23:46:06Z</time>
      </trkpt>
      <trkpt lat="46.00095" lon="2.86678">
        <ele>698</ele>
        <time>2015-10-18T23:48:06Z</time>
      </trkpt>
      <trkpt lat="46.0014" lon="2.8671">
        <ele>697</ele>
        <time>2015-10-18T23:50:06Z</time>
      </trkpt>
      <trkpt lat="46.00221" lon="2.86818">
        <ele>688</ele>
        <time>2015-10-18T23:52:06Z</time>
      </trkpt>
      <trkpt lat="46.00253" lon="2.8685">
        <ele>686</ele>
        <time>2015-10-18T23:54:06Z</time>
      </trkpt>
      <trkpt lat="46.00304" lon="2.86886">
        <ele>681</ele>
        <time>2015-10-18T23:56:06Z</time>
      </trkpt>
      <trkpt lat="46.00318" lon="2.86951">
        <ele>678</ele>
        <time>2015-10-18T23:58:06Z</time>
      </trkpt>
      <trkpt lat="46.00344" lon="2.87051">
        <ele>670</ele>
        <time>2015-10-19T00:00:06Z</time>
      </trkpt>
      <trkpt lat="46.00289" lon="2.87133">
        <ele>660</ele>
        <time>2015-10-19T00:02:06Z</time>
      </trkpt>
      <trkpt lat="46.00242" lon="2.87187">
        <ele>651</ele>
        <time>2015-10-19T00:04:06Z</time>
      </trkpt>
      <trkpt lat="46.00236" lon="2.87294">
        <ele>638</ele>
        <time>2015-10-19T00:06:06Z</time>
      </trkpt>
      <trkpt lat="46.00243" lon="2.87343">
        <ele>630</ele>
        <time>2015-10-19T00:08:06Z</time>
      </trkpt>
      <trkpt lat="46.00218" lon="2.87378">
        <ele>628</ele>
        <time>2015-10-19T00:10:06Z</time>
      </trkpt>
      <trkpt lat="46.00191" lon="2.87425">
        <ele>621</ele>
        <time>2015-10-19T00:12:06Z</time>
      </trkpt>
      <trkpt lat="46.00171" lon="2.87481">
        <ele>609</ele>
        <time>2015-10-19T00:14:06Z</time>
      </trkpt>
      <trkpt lat="46.00145" lon="2.87523">
        <ele>598</ele>
        <time>2015-10-19T00:16:06Z</time>
      </trkpt>
      <trkpt lat="46.00118" lon="2.87506">
        <ele>598</ele>
        <time>2015-10-19T00:18:06Z</time>
      </trkpt>
      <trkpt lat="46.00127" lon="2.87607">
        <ele>578</ele>
        <time>2015-10-19T00:20:06Z</time>
      </trkpt>
      <trkpt lat="46.00143" lon="2.87646">
        <ele>571</ele>
        <time>2015-10-19T00:22:06Z</time>
      </trkpt>
      <trkpt lat="46.00149" lon="2.87674">
        <ele>566</ele>
        <time>2015-10-19T00:24:06Z</time>
      </trkpt>
      <trkpt lat="46.00124" lon="2.87669">
        <ele>563</ele>
        <time>2015-10-19T00:26:06Z</time>
      </trkpt>
      <trkpt lat="46.00052" lon="2.87607">
        <ele>558</ele>
        <time>2015-10-19T00:28:06Z</time>
      </trkpt>
      <trkpt lat="46.00028" lon="2.87579">
        <ele>556</ele>
        <time>2015-10-19T00:30:06Z</time>
      </trkpt>
      <trkpt lat="45.99978" lon="2.87551">
        <ele>550</ele>
        <time>2015-10-19T00:32:06Z</time>
      </trkpt>
      <trkpt lat="45.99948" lon="2.87577">
        <ele>537</ele>
        <time>2015-10-19T00:34:06Z</time>
      </trkpt>
      <trkpt lat="45.99927" lon="2.87566">
        <ele>537</ele>
        <time>2015-10-19T00:36:06Z</time>
      </trkpt>
      <trkpt lat="45.99897" lon="2.87571">
        <ele>541</ele>
        <time>2015-10-19T00:38:06Z</time>
      </trkpt>
      <trkpt lat="45.99903" lon="2.8765">
        <ele>529</ele>
        <time>2015-10-19T00:40:06Z</time>
      </trkpt>
      <trkpt lat="45.99909" lon="2.87676">
        <ele>523</ele>
        <time>2015-10-19T00:42:06Z</time>
      </trkpt>
      <trkpt lat="45.99931" lon="2.87751">
        <ele>509</ele>
        <time>2015-10-19T00:44:06Z</time>
      </trkpt>
      <trkpt lat="45.99942" lon="2.8779">
        <ele>501</ele>
        <time>2015-10-19T00:46:06Z</time>
      </trkpt>
      <trkpt lat="45.99949" lon="2.87832">
        <ele>492</ele>
        <time>2015-10-19T00:48:06Z</time>
      </trkpt>
      <trkpt lat="45.99924" lon="2.87912">
        <ele>480</ele>
        <time>2015-10-19T00:50:06Z</time>
      </trkpt>
      <trkpt lat="45.99861" lon="2.87948">
        <ele>471</ele>
        <time>2015-10-19T00:52:06Z</time>
      </trkpt>
      <trkpt lat="45.99802" lon="2.88028">
        <ele>455</ele>
        <time>2015-10-19T00:54:06Z</time>
      </trkpt>
      <trkpt lat="45.99729" lon="2.88064">
        <ele>446</ele>
        <time>2015-10-19T00:56:06Z</time>
      </trkpt>
      <trkpt lat="45.99657" lon="2.88064">
        <ele>446</ele>
        <time>2015-10-19T00:58:06Z</time>
      </trkpt>
      <trkpt lat="45.99596" lon="2.88075">
        <ele>440</ele>
        <time>2015-10-19T01:00:06Z</time>
      </trkpt>
      <trkpt lat="45.99562" lon="2.88075">
        <ele>436</ele>
        <time>2015-10-19T01:02:06Z</time>
      </trkpt>
      <trkpt lat="45.99463" lon="2.88075">
        <ele>420</ele>
        <time>2015-10-19T01:04:06Z</time>
      </trkpt>
      <trkpt lat="45.99399" lon="2.88062">
        <ele>413</ele>
        <time>2015-10-19T01:06:06Z</time>
      </trkpt>
      <trkpt lat="45.99402" lon="2.88101">
        <ele>408</ele>
        <time>2015-10-19T01:08:06Z</time>
      </trkpt>
      <trkpt lat="45.99416" lon="2.88141">
        <ele>405</ele>
        <time>2015-10-19T01:10:06Z</time>
      </trkpt>
      <trkpt lat="45.99429" lon="2.88178">
        <ele>404</ele>
        <time>2015-10-19T01:12:06Z</time>
      </trkpt>
      <trkpt lat="45.9945" lon="2.88236">
        <ele>411</ele>
        <time>2015-10-19T01:14:06Z</time>
      </trkpt>
      <trkpt lat="45.99434" lon="2.88239">
        <ele>413</ele>
        <time>2015-10-19T01:16:06Z</time>
      </trkpt>
      <trkpt lat="45.99424" lon="2.88234">
        <ele>413</ele>
        <time>2015-10-19T01:18:06Z</time>
      </trkpt>
      <trkpt lat="45.99412" lon="2.88246">
        <ele>417</ele>
        <time>2015-10-19T01:20:06Z</time>
      </trkpt>
      <trkpt lat="45.99413" lon="2.88261">
        <ele>422</ele>
        <time>2015-10-19T01:22:06Z</time>
      </trkpt>
      <trkpt lat="45.99428" lon="2.88276">
        <ele>425</ele>
        <time>2015-10-19T01:24:06Z</time>
      </trkpt>
      <trkpt lat="45.99441" lon="2.88284">
        <ele>427</ele>
        <time>2015-10-19T01:26:06Z</time>
      </trkpt>
      <trkpt lat="45.99449" lon="2.8829">
        <ele>428</ele>
        <time>2015-10-19T01:28:06Z</time>
      </trkpt>
      <trkpt lat="45.99459" lon="2.88294">
        <ele>429</ele>
        <time>2015-10-19T01:30:06Z</time>
      </trkpt>
      <trkpt lat="45.99468" lon="2.88294">
        <ele>427</ele>
        <time>2015-10-19T01:32:06Z</time>
      </trkpt>
      <trkpt lat="45.99476" lon="2.88296">
        <ele>427</ele>
        <time>2015-10-19T01:34:06Z</time>
      </trkpt>
      <trkpt lat="45.9948" lon="2.88302">
        <ele>429</ele>
        <time>2015-10-19T01:36:06Z</time>
      </trkpt>
      <trkpt lat="45.99475" lon="2.88306">
        <ele>431</ele>
        <time>2015-10-19T01:38:06Z</time>
      </trkpt>
      <trkpt lat="45.99452" lon="2.88306">
        <ele>434</ele>
        <time>2015-10-19T01:40:06Z</time>
      </trkpt>
      <trkpt lat="45.9944" lon="2.88305">
        <ele>436</ele>
        <time>2015-10-19T01:42:06Z</time>
      </trkpt>
      <trkpt lat="45.99427" lon="2.88306">
        <ele>438</ele>
        <time>2015-10-19T01:44:06Z</time>
      </trkpt>
      <trkpt lat="45.99417" lon="2.88303">
        <ele>438</ele>
        <time>2015-10-19T01:46:06Z</time>
      </trkpt>
      <trkpt lat="45.99408" lon="2.88301">
        <ele>439</ele>
        <time>2015-10-19T01:48:06Z</time>
      </trkpt>
      <trkpt lat="45.99387" lon="2.88312">
        <ele>445</ele>
        <time>2015-10-19T01:50:06Z</time>
      </trkpt>
      <trkpt lat="45.9938" lon="2.8832">
        <ele>448</ele>
        <time>2015-10-19T01:52:06Z</time>
      </trkpt>
      <trkpt lat="45.99368" lon="2.88335">
        <ele>453</ele>
        <time>2015-10-19T01:54:06Z</time>
      </trkpt>
      <trkpt lat="45.99356" lon="2.88353">
        <ele>458</ele>
        <time>2015-10-19T01:56:06Z</time>
      </trkpt>
      <trkpt lat="45.99349" lon="2.88362">
        <ele>460</ele>
        <time>2015-10-19T01:58:06Z</time>
      </trkpt>
      <trkpt lat="45.99329" lon="2.8838">
        <ele>464</ele>
        <time>2015-10-19T02:00:06Z</time>
      </trkpt>
      <trkpt lat="45.99316" lon="2.88404">
        <ele>474</ele>
        <time>2015-10-19T02:02:06Z</time>
      </trkpt>
      <trkpt lat="45.99301" lon="2.88412">
        <ele>480</ele>
        <time>2015-10-19T02:04:06Z</time>
      </trkpt>
      <trkpt lat="45.99295" lon="2.88394">
        <ele>479</ele>
        <time>2015-10-19T02:06:06Z</time>
      </trkpt>
      <trkpt lat="45.99296" lon="2.88346">
        <ele>469</ele>
        <time>2015-10-19T02:08:06Z</time>
      </trkpt>
      <trkpt lat="45.99293" lon="2.88296">
        <ele>460</ele>
        <time>2015-10-19T02:10:06Z</time>
      </trkpt>
      <trkpt lat="45.99286" lon="2.88307">
        <ele>465</ele>
        <time>2015-10-19T02:12:06Z</time>
      </trkpt>
      <trkpt lat="45.99281" lon="2.88327">
        <ele>470</ele>
        <time>2015-10-19T02:14:06Z</time>
      </trkpt>
      <trkpt lat="45.99273" lon="2.88348">
        <ele>477</ele>
        <time>2015-10-19T02:16:06Z</time>
      </trkpt>
      <trkpt lat="45.99262" lon="2.88342">
        <ele>479</ele>
        <time>2015-10-19T02:18:06Z</time>
      </trkpt>
      <trkpt lat="45.99256" lon="2.88322">
        <ele>477</ele>
        <time>2015-10-19T02:20:06Z</time>
      </trkpt>
      <trkpt lat="45.99249" lon="2.88307">
        <ele>476</ele>
        <time>2015-10-19T02:22:06Z</time>
      </trkpt>
      <trkpt lat="45.99232" lon="2.88292">
        <ele>476</ele>
        <time>2015-10-19T02:24:06Z</time>
      </trkpt>
      <trkpt lat="45.99218" lon="2.8829">
        <ele>478</ele>
        <time>2015-10-19T02:26:06Z</time>
      </trkpt>
      <trkpt lat="45.99201" lon="2.88291">
        <ele>481</ele>
        <time>2015-10-19T02:28:06Z</time>
      </trkpt>
      <trkpt lat="45.99184" lon="2.88294">
        <ele>485</ele>
        <time>2015-10-19T02:30:06Z</time>
      </trkpt>
      <trkpt lat="45.99163" lon="2.88298">
        <ele>491</ele>
        <time>2015-10-19T02:32:06Z</time>
      </trkpt>
      <trkpt lat="45.99121" lon="2.88299">
        <ele>497</ele>
        <time>2015-10-19T02:34:06Z</time>
      </trkpt>
      <trkpt lat="45.99104" lon="2.88298">
        <ele>498</ele>
        <time>2015-10-19T02:36:06Z</time>
      </trkpt>
      <trkpt lat="45.99091" lon="2.883">
        <ele>501</ele>
        <time>2015-10-19T02:38:06Z</time>
      </trkpt>
      <trkpt lat="45.99085" lon="2.88302">
        <ele>503</ele>
        <time>2015-10-19T02:40:06Z</time>
      </trkpt>
      <trkpt lat="45.99096" lon="2.8831">
        <ele>504</ele>
        <time>2015-10-19T02:42:06Z</time>
      </trkpt>
      <trkpt lat="45.99136" lon="2.8835">
        <ele>513</ele>
        <time>2015-10-19T02:44:06Z</time>
      </trkpt>
      <trkpt lat="45.99155" lon="2.88367">
        <ele>515</ele>
        <time>2015-10-19T02:46:06Z</time>
      </trkpt>
      <trkpt lat="45.99177" lon="2.88396">
        <ele>520</ele>
        <time>2015-10-19T02:48:06Z</time>
      </trkpt>
      <trkpt lat="45.9919" lon="2.88424">
        <ele>522</ele>
        <time>2015-10-19T02:50:06Z</time>
      </trkpt>
      <trkpt lat="45.99206" lon="2.88461">
        <ele>522</ele>
        <time>2015-10-19T02:52:06Z</time>
      </trkpt>
      <trkpt lat="45.99208" lon="2.8849">
        <ele>525</ele>
        <time>2015-10-19T02:54:06Z</time>
      </trkpt>
      <trkpt lat="45.99197" lon="2.88505">
        <ele>531</ele>
        <time>2015-10-19T02:56:06Z</time>
      </trkpt>
      <trkpt lat="45.99179" lon="2.88528">
        <ele>538</ele>
        <time>2015-10-19T02:58:06Z</time>
      </trkpt>
      <trkpt lat="45.99164" lon="2.88551">
        <ele>544</ele>
        <time>2015-10-19T03:00:06Z</time>
      </trkpt>
      <trkpt lat="45.9915" lon="2.88579">
        <ele>550</ele>
        <time>2015-10-19T03:02:06Z</time>
      </trkpt>
      <trkpt lat="45.99143" lon="2.88598">
        <ele>554</ele>
        <time>2015-10-19T03:04:06Z</time>
      </trkpt>
      <trkpt lat="45.99128" lon="2.8864">
        <ele>563</ele>
        <time>2015-10-19T03:06:06Z</time>
      </trkpt>
      <trkpt lat="45.99122" lon="2.88663">
        <ele>567</ele>
        <time>2015-10-19T03:08:06Z</time>
      </trkpt>
      <trkpt lat="45.99122" lon="2.88687">
        <ele>569</ele>
        <time>2015-10-19T03:10:06Z</time>
      </trkpt>
      <trkpt lat="45.9912" lon="2.88731">
        <ele>574</ele>
        <time>2015-10-19T03:12:06Z</time>
      </trkpt>
      <trkpt lat="45.99119" lon="2.88764">
        <ele>577</ele>
        <time>2015-10-19T03:14:06Z</time>
      </trkpt>
      <trkpt lat="45.99106" lon="2.8874">
        <ele>582</ele>
        <time>2015-10-19T03:16:06Z</time>
      </trkpt>
      <trkpt lat="45.9908" lon="2.8869">
        <ele>592</ele>
        <time>2015-10-19T03:18:06Z</time>
      </trkpt>
      <trkpt lat="45.99069" lon="2.88647">
        <ele>593</ele>
        <time>2015-10-19T03:20:06Z</time>
      </trkpt>
      <trkpt lat="45.99049" lon="2.88554">
        <ele>588</ele>
        <time>2015-10-19T03:22:06Z</time>
      </trkpt>
      <trkpt lat="45.99013" lon="2.8855">
        <ele>596</ele>
        <time>2015-10-19T03:24:06Z</time>
      </trkpt>
      <trkpt lat="45.98991" lon="2.88553">
        <ele>600</ele>
        <time>2015-10-19T03:26:06Z</time>
      </trkpt>
      <trkpt lat="45.98974" lon="2.8856">
        <ele>600</ele>
        <time>2015-10-19T03:28:06Z</time>
      </trkpt>
      <trkpt lat="45.9896" lon="2.88568">
        <ele>602</ele>
        <time>2015-10-19T03:30:06Z</time>
      </trkpt>
      <trkpt lat="45.9895" lon="2.88571">
        <ele>602</ele>
        <time>2015-10-19T03:32:06Z</time>
      </trkpt>
      <trkpt lat="45.98939" lon="2.8858">
        <ele>603</ele>
        <time>2015-10-19T03:34:06Z</time>
      </trkpt>
      <trkpt lat="45.98913" lon="2.88598">
        <ele>605</ele>
        <time>2015-10-19T03:36:06Z</time>
      </trkpt>
      <trkpt lat="45.98913" lon="2.88629">
        <ele>613</ele>
        <time>2015-10-19T03:38:06Z</time>
      </trkpt>
      <trkpt lat="45.9892" lon="2.88643">
        <ele>617</ele>
        <time>2015-10-19T03:40:06Z</time>
      </trkpt>
      <trkpt lat="45.98949" lon="2.88656">
        <ele>620</ele>
        <time>2015-10-19T03:42:06Z</time>
      </trkpt>
      <trkpt lat="45.98964" lon="2.88671">
        <ele>623</ele>
        <time>2015-10-19T03:44:06Z</time>
      </trkpt>
      <trkpt lat="45.98957" lon="2.88697">
        <ele>628</ele>
        <time>2015-10-19T03:46:06Z</time>
      </trkpt>
      <trkpt lat="45.98957" lon="2.88706">
        <ele>630</ele>
        <time>2015-10-19T03:48:06Z</time>
      </trkpt>
      <trkpt lat="45.98963" lon="2.88719">
        <ele>632</ele>
        <time>2015-10-19T03:50:06Z</time>
      </trkpt>
      <trkpt lat="45.98969" lon="2.88728">
        <ele>633</ele>
        <time>2015-10-19T03:52:06Z</time>
      </trkpt>
      <trkpt lat="45.98972" lon="2.88749">
        <ele>637</ele>
        <time>2015-10-19T03:54:06Z</time>
      </trkpt>
      <trkpt lat="45.98973" lon="2.88767">
        <ele>640</ele>
        <time>2015-10-19T03:56:06Z</time>
      </trkpt>
      <trkpt lat="45.98968" lon="2.88772">
        <ele>641</ele>
        <time>2015-10-19T03:58:06Z</time>
      </trkpt>
      <trkpt lat="45.98936" lon="2.88785">
        <ele>649</ele>
        <time>2015-10-19T04:00:06Z</time>
      </trkpt>
      <trkpt lat="45.98924" lon="2.88801">
        <ele>655</ele>
        <time>2015-10-19T04:02:06Z</time>
      </trkpt>
      <trkpt lat="45.98934" lon="2.88809">
        <ele>655</ele>
        <time>2015-10-19T04:04:06Z</time>
      </trkpt>
      <trkpt lat="45.98938" lon="2.88822">
        <ele>657</ele>
        <time>2015-10-19T04:06:06Z</time>
      </trkpt>
      <trkpt lat="45.98959" lon="2.88864">
        <ele>658</ele>
        <time>2015-10-19T04:08:06Z</time>
      </trkpt>
      <trkpt lat="45.98968" lon="2.88899">
        <ele>660</ele>
        <time>2015-10-19T04:10:06Z</time>
      </trkpt>
      <trkpt lat="45.98962" lon="2.8892">
        <ele>663</ele>
        <time>2015-10-19T04:12:06Z</time>
      </trkpt>
      <trkpt lat="45.98955" lon="2.88923">
        <ele>665</ele>
        <time>2015-10-19T04:14:06Z</time>
      </trkpt>
      <trkpt lat="45.98943" lon="2.88919">
        <ele>668</ele>
        <time>2015-10-19T04:16:06Z</time>
      </trkpt>
      <trkpt lat="45.98927" lon="2.88935">
        <ele>672</ele>
        <time>2015-10-19T04:18:06Z</time>
      </trkpt>
      <trkpt lat="45.98918" lon="2.88949">
        <ele>675</ele>
        <time>2015-10-19T04:20:06Z</time>
      </trkpt>
      <trkpt lat="45.98912" lon="2.88965">
        <ele>675</ele>
        <time>2015-10-19T04:22:06Z</time>
      </trkpt>
      <trkpt lat="45.98904" lon="2.88986">
        <ele>675</ele>
        <time>2015-10-19T04:24:06Z</time>
      </trkpt>
      <trkpt lat="45.98896" lon="2.89012">
        <ele>676</ele>
        <time>2015-10-19T04:26:06Z</time>
      </trkpt>
      <trkpt lat="45.98889" lon="2.89027">
        <ele>676</ele>
        <time>2015-10-19T04:28:06Z</time>
      </trkpt>
      <trkpt lat="45.98878" lon="2.89047">
        <ele>677</ele>
        <time>2015-10-19T04:30:06Z</time>
      </trkpt>
      <trkpt lat="45.98868" lon="2.89072">
        <ele>677</ele>
        <time>2015-10-19T04:32:06Z</time>
      </trkpt>
      <trkpt lat="45.98851" lon="2.89109">
        <ele>677</ele>
        <time>2015-10-19T04:34:06Z</time>
      </trkpt>
      <trkpt lat="45.98828" lon="2.8911">
        <ele>677</ele>
        <time>2015-10-19T04:36:06Z</time>
      </trkpt>
      <trkpt lat="45.988" lon="2.89109">
        <ele>678</ele>
        <time>2015-10-19T04:38:06Z</time>
      </trkpt>
      <trkpt lat="45.98769" lon="2.89105">
        <ele>678</ele>
        <time>2015-10-19T04:40:06Z</time>
      </trkpt>
      <trkpt lat="45.98728" lon="2.89128">
        <ele>679</ele>
        <time>2015-10-19T04:42:06Z</time>
      </trkpt>
      <trkpt lat="45.9868" lon="2.89172">
        <ele>678</ele>
        <time>2015-10-19T04:44:06Z</time>
      </trkpt>
      <trkpt lat="45.98656" lon="2.89188">
        <ele>678</ele>
        <time>2015-10-19T04:46:06Z</time>
      </trkpt>
      <trkpt lat="45.98618" lon="2.89209">
        <ele>678</ele>
        <time>2015-10-19T04:48:06Z</time>
      </trkpt>
      <trkpt lat="45.98596" lon="2.89228">
        <ele>678</ele>
        <time>2015-10-19T04:50:06Z</time>
      </trkpt>
      <trkpt lat="45.98576" lon="2.89252">
        <ele>677</ele>
        <time>2015-10-19T04:52:06Z</time>
      </trkpt>
      <trkpt lat="45.98545" lon="2.8934">
        <ele>683</ele>
        <time>2015-10-19T04:54:06Z</time>
      </trkpt>
      <trkpt lat="45.98526" lon="2.89397">
        <ele>689</ele>
        <time>2015-10-19T04:56:06Z</time>
      </trkpt>
      <trkpt lat="45.98511" lon="2.89441">
        <ele>693</ele>
        <time>2015-10-19T04:58:06Z</time>
      </trkpt>
      <trkpt lat="45.98498" lon="2.89476">
        <ele>696</ele>
        <time>2015-10-19T05:00:06Z</time>
      </trkpt>
      <trkpt lat="45.98497" lon="2.8952">
        <ele>699</ele>
        <time>2015-10-19T05:02:06Z</time>
      </trkpt>
      <trkpt lat="45.98498" lon="2.89567">
        <ele>702</ele>
        <time>2015-10-19T05:04:06Z</time>
      </trkpt>
    </trkseg>
  </trk>
  <trk>
    <name><![CDATA[--Saint-Georges-de-Mons-- OR-5366929:ser-jb02-l]]></name>
    <trkseg>
      <trkpt lat="45.9404" lon="2.8405">
        <ele>733</ele>
        <time>2015-10-17T12:38:55Z</time>
      </trkpt>
      <trkpt lat="45.94049" lon="2.83994">
        <ele>733</ele>
        <time>2015-10-17T12:40:55Z</time>
      </trkpt>
      <trkpt lat="45.94067" lon="2.83955">
        <ele>733</ele>
        <time>2015-10-17T12:42:55Z</time>
      </trkpt>
      <trkpt lat="45.94085" lon="2.83927">
        <ele>733</ele>
        <time>2015-10-17T12:44:55Z</time>
      </trkpt>
      <trkpt lat="45.94109" lon="2.83908">
        <ele>733</ele>
        <time>2015-10-17T12:46:55Z</time>
      </trkpt>
      <trkpt lat="45.94137" lon="2.83925">
        <ele>733</ele>
        <time>2015-10-17T12:48:55Z</time>
      </trkpt>
      <trkpt lat="45.94173" lon="2.83949">
        <ele>733</ele>
        <time>2015-10-17T12:50:55Z</time>
      </trkpt>
      <trkpt lat="45.94196" lon="2.83957">
        <ele>734</ele>
        <time>2015-10-17T12:52:55Z</time>
      </trkpt>
      <trkpt lat="45.94226" lon="2.83955">
        <ele>734</ele>
        <time>2015-10-17T12:54:55Z</time>
      </trkpt>
      <trkpt lat="45.94273" lon="2.83944">
        <ele>734</ele>
        <time>2015-10-17T12:56:55Z</time>
      </trkpt>
      <trkpt lat="45.94324" lon="2.83927">
        <ele>733</ele>
        <time>2015-10-17T12:58:55Z</time>
      </trkpt>
      <trkpt lat="45.94357" lon="2.83923">
        <ele>732</ele>
        <time>2015-10-17T13:00:55Z</time>
      </trkpt>
      <trkpt lat="45.94393" lon="2.83906">
        <ele>730</ele>
        <time>2015-10-17T13:02:55Z</time>
      </trkpt>
      <trkpt lat="45.94422" lon="2.83895">
        <ele>728</ele>
        <time>2015-10-17T13:04:55Z</time>
      </trkpt>
      <trkpt lat="45.94422" lon="2.83944">
        <ele>728</ele>
        <time>2015-10-17T13:06:55Z</time>
      </trkpt>
      <trkpt lat="45.94425" lon="2.83996">
        <ele>729</ele>
        <time>2015-10-17T13:08:55Z</time>
      </trkpt>
      <trkpt lat="45.94421" lon="2.84039">
        <ele>729</ele>
        <time>2015-10-17T13:10:55Z</time>
      </trkpt>
      <trkpt lat="45.94415" lon="2.84095">
        <ele>731</ele>
        <time>2015-10-17T13:12:55Z</time>
      </trkpt>
      <trkpt lat="45.94412" lon="2.8414">
        <ele>734</ele>
        <time>2015-10-17T13:14:55Z</time>
      </trkpt>
      <trkpt lat="45.94411" lon="2.8417">
        <ele>735</ele>
        <time>2015-10-17T13:16:55Z</time>
      </trkpt>
      <trkpt lat="45.94437" lon="2.84167">
        <ele>735</ele>
        <time>2015-10-17T13:18:55Z</time>
      </trkpt>
      <trkpt lat="45.94469" lon="2.84163">
        <ele>735</ele>
        <time>2015-10-17T13:20:55Z</time>
      </trkpt>
      <trkpt lat="45.94497" lon="2.84159">
        <ele>734</ele>
        <time>2015-10-17T13:22:55Z</time>
      </trkpt>
      <trkpt lat="45.94525" lon="2.84161">
        <ele>734</ele>
        <time>2015-10-17T13:24:55Z</time>
      </trkpt>
      <trkpt lat="45.9456" lon="2.84155">
        <ele>733</ele>
        <time>2015-10-17T13:26:55Z</time>
      </trkpt>
      <trkpt lat="45.9459" lon="2.84165">
        <ele>733</ele>
        <time>2015-10-17T13:28:55Z</time>
      </trkpt>
      <trkpt lat="45.94612" lon="2.84189">
        <ele>735</ele>
        <time>2015-10-17T13:30:55Z</time>
      </trkpt>
      <trkpt lat="45.94639" lon="2.84204">
        <ele>736</ele>
        <time>2015-10-17T13:32:55Z</time>
      </trkpt>
      <trkpt lat="45.94667" lon="2.842">
        <ele>736</ele>
        <time>2015-10-17T13:34:55Z</time>
      </trkpt>
      <trkpt lat="45.94693" lon="2.84206">
        <ele>735</ele>
        <time>2015-10-17T13:36:55Z</time>
      </trkpt>
      <trkpt lat="45.94718" lon="2.84223">
        <ele>735</ele>
        <time>2015-10-17T13:38:55Z</time>
      </trkpt>
      <trkpt lat="45.94755" lon="2.84236">
        <ele>734</ele>
        <time>2015-10-17T13:40:55Z</time>
      </trkpt>
      <trkpt lat="45.94781" lon="2.84249">
        <ele>732</ele>
        <time>2015-10-17T13:42:55Z</time>
      </trkpt>
      <trkpt lat="45.94809" lon="2.8426">
        <ele>730</ele>
        <time>2015-10-17T13:44:55Z</time>
      </trkpt>
      <trkpt lat="45.94833" lon="2.84268">
        <ele>729</ele>
        <time>2015-10-17T13:46:55Z</time>
      </trkpt>
      <trkpt lat="45.94857" lon="2.8427">
        <ele>729</ele>
        <time>2015-10-17T13:48:55Z</time>
      </trkpt>
      <trkpt lat="45.94882" lon="2.84258">
        <ele>729</ele>
        <time>2015-10-17T13:50:55Z</time>
      </trkpt>
      <trkpt lat="45.94906" lon="2.84245">
        <ele>730</ele>
        <time>2015-10-17T13:52:55Z</time>
      </trkpt>
      <trkpt lat="45.9494" lon="2.8423">
        <ele>730</ele>
        <time>2015-10-17T13:54:55Z</time>
      </trkpt>
      <trkpt lat="45.94967" lon="2.84288">
        <ele>732</ele>
        <time>2015-10-17T13:56:55Z</time>
      </trkpt>
      <trkpt lat="45.94995" lon="2.84352">
        <ele>736</ele>
        <time>2015-10-17T13:58:55Z</time>
      </trkpt>
      <trkpt lat="45.95018" lon="2.84419">
        <ele>738</ele>
        <time>2015-10-17T14:00:55Z</time>
      </trkpt>
      <trkpt lat="45.95048" lon="2.84491">
        <ele>741</ele>
        <time>2015-10-17T14:02:55Z</time>
      </trkpt>
      <trkpt lat="45.95057" lon="2.84543">
        <ele>742</ele>
        <time>2015-10-17T14:04:55Z</time>
      </trkpt>
      <trkpt lat="45.95021" lon="2.84571">
        <ele>742</ele>
        <time>2015-10-17T14:06:55Z</time>
      </trkpt>
      <trkpt lat="45.94977" lon="2.84592">
        <ele>741</ele>
        <time>2015-10-17T14:08:55Z</time>
      </trkpt>
      <trkpt lat="45.9496" lon="2.84618">
        <ele>742</ele>
        <time>2015-10-17T14:10:55Z</time>
      </trkpt>
      <trkpt lat="45.94966" lon="2.84676">
        <ele>744</ele>
        <time>2015-10-17T14:12:55Z</time>
      </trkpt>
      <trkpt lat="45.94982" lon="2.84781">
        <ele>749</ele>
        <time>2015-10-17T14:14:55Z</time>
      </trkpt>
      <trkpt lat="45.95001" lon="2.84876">
        <ele>752</ele>
        <time>2015-10-17T14:16:55Z</time>
      </trkpt>
      <trkpt lat="45.9501" lon="2.84951">
        <ele>754</ele>
        <time>2015-10-17T14:18:55Z</time>
      </trkpt>
      <trkpt lat="45.95024" lon="2.85082">
        <ele>755</ele>
        <time>2015-10-17T14:20:55Z</time>
      </trkpt>
      <trkpt lat="45.95149" lon="2.85189">
        <ele>753</ele>
        <time>2015-10-17T14:22:55Z</time>
      </trkpt>
      <trkpt lat="45.95294" lon="2.85315">
        <ele>743</ele>
        <time>2015-10-17T14:24:55Z</time>
      </trkpt>
      <trkpt lat="45.95362" lon="2.85373">
        <ele>737</ele>
        <time>2015-10-17T14:26:55Z</time>
      </trkpt>
      <trkpt lat="45.95459" lon="2.85431">
        <ele>729</ele>
        <time>2015-10-17T14:28:55Z</time>
      </trkpt>
      <trkpt lat="45.95506" lon="2.85451">
        <ele>727</ele>
        <time>2015-10-17T14:30:55Z</time>
      </trkpt>
      <trkpt lat="45.95537" lon="2.85479">
        <ele>726</ele>
        <time>2015-10-17T14:32:55Z</time>
      </trkpt>
      <trkpt lat="45.95555" lon="2.85539">
        <ele>726</ele>
        <time>2015-10-17T14:34:55Z</time>
      </trkpt>
      <trkpt lat="45.95541" lon="2.85601">
        <ele>729</ele>
        <time>2015-10-17T14:36:55Z</time>
      </trkpt>
      <trkpt lat="45.95446" lon="2.85938">
        <ele>742</ele>
        <time>2015-10-17T14:38:55Z</time>
      </trkpt>
      <trkpt lat="45.95521" lon="2.8597">
        <ele>742</ele>
        <time>2015-10-17T14:40:55Z</time>
      </trkpt>
      <trkpt lat="45.95583" lon="2.85983">
        <ele>742</ele>
        <time>2015-10-17T14:42:55Z</time>
      </trkpt>
      <trkpt lat="45.95619" lon="2.85961">
        <ele>741</ele>
        <time>2015-10-17T14:44:55Z</time>
      </trkpt>
      <trkpt lat="45.95625" lon="2.85852">
        <ele>740</ele>
        <time>2015-10-17T14:46:55Z</time>
      </trkpt>
      <trkpt lat="45.95638" lon="2.8576">
        <ele>738</ele>
        <time>2015-10-17T14:48:55Z</time>
      </trkpt>
      <trkpt lat="45.95668" lon="2.85687">
        <ele>738</ele>
        <time>2015-10-17T14:50:55Z</time>
      </trkpt>
      <trkpt lat="45.95695" lon="2.85633">
        <ele>736</ele>
        <time>2015-10-17T14:52:55Z</time>
      </trkpt>
      <trkpt lat="45.9574" lon="2.85549">
        <ele>732</ele>
        <time>2015-10-17T14:54:55Z</time>
      </trkpt>
      <trkpt lat="45.95777" lon="2.85504">
        <ele>728</ele>
        <time>2015-10-17T14:56:55Z</time>
      </trkpt>
      <trkpt lat="45.95797" lon="2.85442">
        <ele>723</ele>
        <time>2015-10-17T14:58:55Z</time>
      </trkpt>
      <trkpt lat="45.95822" lon="2.85391">
        <ele>720</ele>
        <time>2015-10-17T15:00:55Z</time>
      </trkpt>
      <trkpt lat="45.95871" lon="2.85326">
        <ele>717</ele>
        <time>2015-10-17T15:02:55Z</time>
      </trkpt>
      <trkpt lat="45.9592" lon="2.85292">
        <ele>717</ele>
        <time>2015-10-17T15:04:55Z</time>
      </trkpt>
      <trkpt lat="45.95941" lon="2.85285">
        <ele>715</ele>
        <time>2015-10-17T15:06:55Z</time>
      </trkpt>
      <trkpt lat="45.95962" lon="2.85236">
        <ele>713</ele>
        <time>2015-10-17T15:08:55Z</time>
      </trkpt>
      <trkpt lat="45.95958" lon="2.8515">
        <ele>715</ele>
        <time>2015-10-17T15:10:55Z</time>
      </trkpt>
      <trkpt lat="45.95959" lon="2.85097">
        <ele>717</ele>
        <time>2015-10-17T15:12:55Z</time>
      </trkpt>
      <trkpt lat="45.95984" lon="2.85006">
        <ele>724</ele>
        <time>2015-10-17T15:14:55Z</time>
      </trkpt>
      <trkpt lat="45.96001" lon="2.84944">
        <ele>727</ele>
        <time>2015-10-17T15:16:55Z</time>
      </trkpt>
      <trkpt lat="45.96022" lon="2.84869">
        <ele>729</ele>
        <time>2015-10-17T15:18:55Z</time>
      </trkpt>
      <trkpt lat="45.96083" lon="2.84734">
        <ele>724</ele>
        <time>2015-10-17T15:20:55Z</time>
      </trkpt>
      <trkpt lat="45.96147" lon="2.84605">
        <ele>721</ele>
        <time>2015-10-17T15:22:55Z</time>
      </trkpt>
      <trkpt lat="45.96225" lon="2.84513">
        <ele>718</ele>
        <time>2015-10-17T15:24:55Z</time>
      </trkpt>
      <trkpt lat="45.96307" lon="2.84393">
        <ele>722</ele>
        <time>2015-10-17T15:26:55Z</time>
      </trkpt>
      <trkpt lat="45.96354" lon="2.84305">
        <ele>723</ele>
        <time>2015-10-17T15:28:55Z</time>
      </trkpt>
      <trkpt lat="45.9642" lon="2.84236">
        <ele>716</ele>
        <time>2015-10-17T15:30:55Z</time>
      </trkpt>
      <trkpt lat="45.96436" lon="2.84189">
        <ele>709</ele>
        <time>2015-10-17T15:32:55Z</time>
      </trkpt>
      <trkpt lat="45.96509" lon="2.84163">
        <ele>700</ele>
        <time>2015-10-17T15:34:55Z</time>
      </trkpt>
      <trkpt lat="45.96575" lon="2.84129">
        <ele>698</ele>
        <time>2015-10-17T15:36:55Z</time>
      </trkpt>
      <trkpt lat="45.96618" lon="2.84118">
        <ele>698</ele>
        <time>2015-10-17T15:38:55Z</time>
      </trkpt>
      <trkpt lat="45.96685" lon="2.84105">
        <ele>700</ele>
        <time>2015-10-17T15:40:55Z</time>
      </trkpt>
      <trkpt lat="45.96738" lon="2.84135">
        <ele>703</ele>
        <time>2015-10-17T15:42:55Z</time>
      </trkpt>
      <trkpt lat="45.96768" lon="2.84176">
        <ele>704</ele>
        <time>2015-10-17T15:44:55Z</time>
      </trkpt>
      <trkpt lat="45.96806" lon="2.84202">
        <ele>705</ele>
        <time>2015-10-17T15:46:55Z</time>
      </trkpt>
      <trkpt lat="45.9686" lon="2.84223">
        <ele>707</ele>
        <time>2015-10-17T15:48:55Z</time>
      </trkpt>
      <trkpt lat="45.96902" lon="2.84249">
        <ele>705</ele>
        <time>2015-10-17T15:50:55Z</time>
      </trkpt>
      <trkpt lat="45.96952" lon="2.84309">
        <ele>701</ele>
        <time>2015-10-17T15:52:55Z</time>
      </trkpt>
      <trkpt lat="45.96987" lon="2.84365">
        <ele>699</ele>
        <time>2015-10-17T15:54:55Z</time>
      </trkpt>
      <trkpt lat="45.97027" lon="2.84423">
        <ele>695</ele>
        <time>2015-10-17T15:56:55Z</time>
      </trkpt>
      <trkpt lat="45.97067" lon="2.84479">
        <ele>690</ele>
        <time>2015-10-17T15:58:55Z</time>
      </trkpt>
      <trkpt lat="45.97099" lon="2.84534">
        <ele>685</ele>
        <time>2015-10-17T16:00:55Z</time>
      </trkpt>
      <trkpt lat="45.97136" lon="2.84592">
        <ele>681</ele>
        <time>2015-10-17T16:02:55Z</time>
      </trkpt>
      <trkpt lat="45.97164" lon="2.84657">
        <ele>676</ele>
        <time>2015-10-17T16:04:55Z</time>
      </trkpt>
      <trkpt lat="45.97188" lon="2.84725">
        <ele>669</ele>
        <time>2015-10-17T16:06:55Z</time>
      </trkpt>
      <trkpt lat="45.97206" lon="2.84805">
        <ele>667</ele>
        <time>2015-10-17T16:08:55Z</time>
      </trkpt>
      <trkpt lat="45.97212" lon="2.84873">
        <ele>668</ele>
        <time>2015-10-17T16:10:55Z</time>
      </trkpt>
      <trkpt lat="45.97225" lon="2.84918">
        <ele>671</ele>
        <time>2015-10-17T16:12:55Z</time>
      </trkpt>
      <trkpt lat="45.97255" lon="2.84964">
        <ele>675</ele>
        <time>2015-10-17T16:14:55Z</time>
      </trkpt>
      <trkpt lat="45.97216" lon="2.84897">
        <ele>669</ele>
        <time>2015-10-17T16:16:55Z</time>
      </trkpt>
      <trkpt lat="45.972" lon="2.85011">
        <ele>667</ele>
        <time>2015-10-17T16:18:55Z</time>
      </trkpt>
      <trkpt lat="45.97196" lon="2.85086">
        <ele>661</ele>
        <time>2015-10-17T16:20:55Z</time>
      </trkpt>
      <trkpt lat="45.97228" lon="2.8517">
        <ele>655</ele>
        <time>2015-10-17T16:22:55Z</time>
      </trkpt>
      <trkpt lat="45.97246" lon="2.85215">
        <ele>650</ele>
        <time>2015-10-17T16:24:55Z</time>
      </trkpt>
      <trkpt lat="45.97285" lon="2.85249">
        <ele>633</ele>
        <time>2015-10-17T16:26:55Z</time>
      </trkpt>
      <trkpt lat="45.97243" lon="2.85245">
        <ele>642</ele>
        <time>2015-10-17T16:28:55Z</time>
      </trkpt>
      <trkpt lat="45.97181" lon="2.85163">
        <ele>641</ele>
        <time>2015-10-17T16:30:55Z</time>
      </trkpt>
      <trkpt lat="45.97127" lon="2.85069">
        <ele>638</ele>
        <time>2015-10-17T16:32:55Z</time>
      </trkpt>
      <trkpt lat="45.97097" lon="2.85019">
        <ele>635</ele>
        <time>2015-10-17T16:34:55Z</time>
      </trkpt>
      <trkpt lat="45.97061" lon="2.84981">
        <ele>633</ele>
        <time>2015-10-17T16:36:55Z</time>
      </trkpt>
      <trkpt lat="45.97002" lon="2.84936">
        <ele>632</ele>
        <time>2015-10-17T16:38:55Z</time>
      </trkpt>
      <trkpt lat="45.96924" lon="2.84897">
        <ele>627</ele>
        <time>2015-10-17T16:40:55Z</time>
      </trkpt>
      <trkpt lat="45.96859" lon="2.84882">
        <ele>623</ele>
        <time>2015-10-17T16:42:55Z</time>
      </trkpt>
      <trkpt lat="45.96808" lon="2.84848">
        <ele>632</ele>
        <time>2015-10-17T16:44:55Z</time>
      </trkpt>
      <trkpt lat="45.96818" lon="2.84891">
        <ele>623</ele>
        <time>2015-10-17T16:46:55Z</time>
      </trkpt>
      <trkpt lat="45.9689" lon="2.84944">
        <ele>612</ele>
        <time>2015-10-17T16:48:55Z</time>
      </trkpt>
      <trkpt lat="45.96929" lon="2.84985">
        <ele>604</ele>
        <time>2015-10-17T16:50:55Z</time>
      </trkpt>
      <trkpt lat="45.96957" lon="2.85024">
        <ele>599</ele>
        <time>2015-10-17T16:52:55Z</time>
      </trkpt>
      <trkpt lat="45.97014" lon="2.85112">
        <ele>586</ele>
        <time>2015-10-17T16:54:55Z</time>
      </trkpt>
      <trkpt lat="45.97032" lon="2.85161">
        <ele>583</ele>
        <time>2015-10-17T16:56:55Z</time>
      </trkpt>
      <trkpt lat="45.97061" lon="2.85238">
        <ele>577</ele>
        <time>2015-10-17T16:58:55Z</time>
      </trkpt>
      <trkpt lat="45.97075" lon="2.85283">
        <ele>570</ele>
        <time>2015-10-17T17:00:55Z</time>
      </trkpt>
      <trkpt lat="45.97121" lon="2.85373">
        <ele>566</ele>
        <time>2015-10-17T17:02:55Z</time>
      </trkpt>
      <trkpt lat="45.97142" lon="2.85431">
        <ele>562</ele>
        <time>2015-10-17T17:04:55Z</time>
      </trkpt>
      <trkpt lat="45.9716" lon="2.85494">
        <ele>555</ele>
        <time>2015-10-17T17:06:55Z</time>
      </trkpt>
      <trkpt lat="45.97173" lon="2.85532">
        <ele>551</ele>
        <time>2015-10-17T17:08:55Z</time>
      </trkpt>
      <trkpt lat="45.972" lon="2.85588">
        <ele>545</ele>
        <time>2015-10-17T17:10:55Z</time>
      </trkpt>
      <trkpt lat="45.97228" lon="2.85616">
        <ele>544</ele>
        <time>2015-10-17T17:12:55Z</time>
      </trkpt>
      <trkpt lat="45.9726" lon="2.85642">
        <ele>541</ele>
        <time>2015-10-17T17:14:55Z</time>
      </trkpt>
      <trkpt lat="45.9729" lon="2.8567">
        <ele>534</ele>
        <time>2015-10-17T17:16:55Z</time>
      </trkpt>
      <trkpt lat="45.97322" lon="2.85685">
        <ele>531</ele>
        <time>2015-10-17T17:18:55Z</time>
      </trkpt>
      <trkpt lat="45.97357" lon="2.85674">
        <ele>537</ele>
        <time>2015-10-17T17:20:55Z</time>
      </trkpt>
      <trkpt lat="45.97389" lon="2.85676">
        <ele>537</ele>
        <time>2015-10-17T17:22:55Z</time>
      </trkpt>
      <trkpt lat="45.97427" lon="2.85706">
        <ele>526</ele>
        <time>2015-10-17T17:24:55Z</time>
      </trkpt>
      <trkpt lat="45.97467" lon="2.85723">
        <ele>520</ele>
        <time>2015-10-17T17:26:55Z</time>
      </trkpt>
      <trkpt lat="45.97553" lon="2.85725">
        <ele>519</ele>
        <time>2015-10-17T17:28:55Z</time>
      </trkpt>
      <trkpt lat="45.97613" lon="2.85727">
        <ele>511</ele>
        <time>2015-10-17T17:30:55Z</time>
      </trkpt>
      <trkpt lat="45.97613" lon="2.8576">
        <ele>502</ele>
        <time>2015-10-17T17:32:55Z</time>
      </trkpt>
      <trkpt lat="45.97549" lon="2.85788">
        <ele>494</ele>
        <time>2015-10-17T17:34:55Z</time>
      </trkpt>
      <trkpt lat="45.97477" lon="2.85803">
        <ele>488</ele>
        <time>2015-10-17T17:36:55Z</time>
      </trkpt>
      <trkpt lat="45.97355" lon="2.85809">
        <ele>485</ele>
        <time>2015-10-17T17:38:55Z</time>
      </trkpt>
      <trkpt lat="45.97297" lon="2.85805">
        <ele>486</ele>
        <time>2015-10-17T17:40:55Z</time>
      </trkpt>
      <trkpt lat="45.97255" lon="2.85818">
        <ele>480</ele>
        <time>2015-10-17T17:42:55Z</time>
      </trkpt>
      <trkpt lat="45.97242" lon="2.85839">
        <ele>476</ele>
        <time>2015-10-17T17:44:55Z</time>
      </trkpt>
      <trkpt lat="45.97254" lon="2.85893">
        <ele>481</ele>
        <time>2015-10-17T17:46:55Z</time>
      </trkpt>
      <trkpt lat="45.97279" lon="2.85895">
        <ele>480</ele>
        <time>2015-10-17T17:48:55Z</time>
      </trkpt>
      <trkpt lat="45.97306" lon="2.85897">
        <ele>480</ele>
        <time>2015-10-17T17:50:55Z</time>
      </trkpt>
      <trkpt lat="45.97352" lon="2.85923">
        <ele>481</ele>
        <time>2015-10-17T17:52:55Z</time>
      </trkpt>
      <trkpt lat="45.97409" lon="2.85923">
        <ele>476</ele>
        <time>2015-10-17T17:54:55Z</time>
      </trkpt>
      <trkpt lat="45.9751" lon="2.85921">
        <ele>470</ele>
        <time>2015-10-17T17:56:55Z</time>
      </trkpt>
      <trkpt lat="45.97549" lon="2.85923">
        <ele>467</ele>
        <time>2015-10-17T17:58:55Z</time>
      </trkpt>
      <trkpt lat="45.97589" lon="2.85923">
        <ele>463</ele>
        <time>2015-10-17T18:00:55Z</time>
      </trkpt>
      <trkpt lat="45.97627" lon="2.85931">
        <ele>463</ele>
        <time>2015-10-17T18:02:55Z</time>
      </trkpt>
      <trkpt lat="45.97667" lon="2.85929">
        <ele>459</ele>
        <time>2015-10-17T18:04:55Z</time>
      </trkpt>
      <trkpt lat="45.977" lon="2.85931">
        <ele>456</ele>
        <time>2015-10-17T18:06:55Z</time>
      </trkpt>
      <trkpt lat="45.9775" lon="2.85955">
        <ele>457</ele>
        <time>2015-10-17T18:08:55Z</time>
      </trkpt>
      <trkpt lat="45.9778" lon="2.85981">
        <ele>458</ele>
        <time>2015-10-17T18:10:55Z</time>
      </trkpt>
      <trkpt lat="45.97861" lon="2.86013">
        <ele>451</ele>
        <time>2015-10-17T18:12:55Z</time>
      </trkpt>
      <trkpt lat="45.9787" lon="2.86036">
        <ele>454</ele>
        <time>2015-10-17T18:14:55Z</time>
      </trkpt>
      <trkpt lat="45.97868" lon="2.86086">
        <ele>459</ele>
        <time>2015-10-17T18:16:55Z</time>
      </trkpt>
      <trkpt lat="45.97831" lon="2.86279">
        <ele>461</ele>
        <time>2015-10-17T18:18:55Z</time>
      </trkpt>
      <trkpt lat="45.97805" lon="2.86498">
        <ele>470</ele>
        <time>2015-10-17T18:20:55Z</time>
      </trkpt>
      <trkpt lat="45.97807" lon="2.86564">
        <ele>465</ele>
        <time>2015-10-17T18:22:55Z</time>
      </trkpt>
      <trkpt lat="45.97814" lon="2.86639">
        <ele>459</ele>
        <time>2015-10-17T18:24:55Z</time>
      </trkpt>
      <trkpt lat="45.97813" lon="2.86732">
        <ele>470</ele>
        <time>2015-10-17T18:26:55Z</time>
      </trkpt>
      <trkpt lat="45.97864" lon="2.86794">
        <ele>461</ele>
        <time>2015-10-17T18:28:55Z</time>
      </trkpt>
      <trkpt lat="45.97887" lon="2.86843">
        <ele>461</ele>
        <time>2015-10-17T18:30:55Z</time>
      </trkpt>
      <trkpt lat="45.97917" lon="2.86888">
        <ele>455</ele>
        <time>2015-10-17T18:32:55Z</time>
      </trkpt>
      <trkpt lat="45.97944" lon="2.86946">
        <ele>459</ele>
        <time>2015-10-17T18:34:55Z</time>
      </trkpt>
      <trkpt lat="45.9799" lon="2.87017">
        <ele>447</ele>
        <time>2015-10-17T18:36:55Z</time>
      </trkpt>
      <trkpt lat="45.9801" lon="2.87004">
        <ele>435</ele>
        <time>2015-10-17T18:38:55Z</time>
      </trkpt>
      <trkpt lat="45.9806" lon="2.86957">
        <ele>427</ele>
        <time>2015-10-17T18:40:55Z</time>
      </trkpt>
      <trkpt lat="45.98089" lon="2.86931">
        <ele>428</ele>
        <time>2015-10-17T18:42:55Z</time>
      </trkpt>
      <trkpt lat="45.98114" lon="2.86929">
        <ele>436</ele>
        <time>2015-10-17T18:44:55Z</time>
      </trkpt>
      <trkpt lat="45.98135" lon="2.86948">
        <ele>441</ele>
        <time>2015-10-17T18:46:55Z</time>
      </trkpt>
      <trkpt lat="45.9815" lon="2.86938">
        <ele>446</ele>
        <time>2015-10-17T18:48:55Z</time>
      </trkpt>
      <trkpt lat="45.98166" lon="2.86918">
        <ele>452</ele>
        <time>2015-10-17T18:50:55Z</time>
      </trkpt>
      <trkpt lat="45.98137" lon="2.86897">
        <ele>448</ele>
        <time>2015-10-17T18:52:55Z</time>
      </trkpt>
      <trkpt lat="45.98116" lon="2.86878">
        <ele>447</ele>
        <time>2015-10-17T18:54:55Z</time>
      </trkpt>
      <trkpt lat="45.98159" lon="2.86839">
        <ele>470</ele>
        <time>2015-10-17T18:56:55Z</time>
      </trkpt>
      <trkpt lat="45.98201" lon="2.86837">
        <ele>481</ele>
        <time>2015-10-17T18:58:55Z</time>
      </trkpt>
      <trkpt lat="45.98239" lon="2.86835">
        <ele>489</ele>
        <time>2015-10-17T19:00:55Z</time>
      </trkpt>
      <trkpt lat="45.98277" lon="2.86843">
        <ele>491</ele>
        <time>2015-10-17T19:02:55Z</time>
      </trkpt>
      <trkpt lat="45.98284" lon="2.86845">
        <ele>491</ele>
        <time>2015-10-17T19:04:55Z</time>
      </trkpt>
      <trkpt lat="45.9823" lon="2.8692">
        <ele>471</ele>
        <time>2015-10-17T19:06:55Z</time>
      </trkpt>
      <trkpt lat="45.98226" lon="2.86938">
        <ele>470</ele>
        <time>2015-10-17T19:08:55Z</time>
      </trkpt>
      <trkpt lat="45.98239" lon="2.8697">
        <ele>476</ele>
        <time>2015-10-17T19:10:55Z</time>
      </trkpt>
      <trkpt lat="45.98254" lon="2.86996">
        <ele>482</ele>
        <time>2015-10-17T19:12:55Z</time>
      </trkpt>
      <trkpt lat="45.98266" lon="2.87049">
        <ele>488</ele>
        <time>2015-10-17T19:14:55Z</time>
      </trkpt>
      <trkpt lat="45.98293" lon="2.87036">
        <ele>496</ele>
        <time>2015-10-17T19:16:55Z</time>
      </trkpt>
      <trkpt lat="45.98335" lon="2.86996">
        <ele>504</ele>
        <time>2015-10-17T19:18:55Z</time>
      </trkpt>
      <trkpt lat="45.98378" lon="2.86951">
        <ele>508</ele>
        <time>2015-10-17T19:20:55Z</time>
      </trkpt>
      <trkpt lat="45.98406" lon="2.86931">
        <ele>511</ele>
        <time>2015-10-17T19:22:55Z</time>
      </trkpt>
      <trkpt lat="45.98468" lon="2.86899">
        <ele>525</ele>
        <time>2015-10-17T19:24:55Z</time>
      </trkpt>
      <trkpt lat="45.98508" lon="2.86796">
        <ele>535</ele>
        <time>2015-10-17T19:26:55Z</time>
      </trkpt>
      <trkpt lat="45.98533" lon="2.86783">
        <ele>545</ele>
        <time>2015-10-17T19:28:55Z</time>
      </trkpt>
      <trkpt lat="45.98514" lon="2.86843">
        <ele>536</ele>
        <time>2015-10-17T19:30:55Z</time>
      </trkpt>
      <trkpt lat="45.98508" lon="2.86931">
        <ele>542</ele>
        <time>2015-10-17T19:32:55Z</time>
      </trkpt>
      <trkpt lat="45.98506" lon="2.87034">
        <ele>556</ele>
        <time>2015-10-17T19:34:55Z</time>
      </trkpt>
      <trkpt lat="45.98491" lon="2.87114">
        <ele>562</ele>
        <time>2015-10-17T19:36:55Z</time>
      </trkpt>
      <trkpt lat="45.98481" lon="2.87176">
        <ele>565</ele>
        <time>2015-10-17T19:38:55Z</time>
      </trkpt>
      <trkpt lat="45.98479" lon="2.87236">
        <ele>566</ele>
        <time>2015-10-17T19:40:55Z</time>
      </trkpt>
      <trkpt lat="45.98496" lon="2.8726">
        <ele>567</ele>
        <time>2015-10-17T19:42:55Z</time>
      </trkpt>
      <trkpt lat="45.98527" lon="2.87234">
        <ele>574</ele>
        <time>2015-10-17T19:44:55Z</time>
      </trkpt>
      <trkpt lat="45.98552" lon="2.87165">
        <ele>584</ele>
        <time>2015-10-17T19:46:55Z</time>
      </trkpt>
      <trkpt lat="45.98594" lon="2.87103">
        <ele>593</ele>
        <time>2015-10-17T19:48:55Z</time>
      </trkpt>
      <trkpt lat="45.9862" lon="2.87064">
        <ele>600</ele>
        <time>2015-10-17T19:50:55Z</time>
      </trkpt>
      <trkpt lat="45.98637" lon="2.87021">
        <ele>603</ele>
        <time>2015-10-17T19:52:55Z</time>
      </trkpt>
      <trkpt lat="45.98663" lon="2.86968">
        <ele>610</ele>
        <time>2015-10-17T19:54:55Z</time>
      </trkpt>
      <trkpt lat="45.98688" lon="2.86905">
        <ele>615</ele>
        <time>2015-10-17T19:56:55Z</time>
      </trkpt>
      <trkpt lat="45.98733" lon="2.86843">
        <ele>628</ele>
        <time>2015-10-17T19:58:55Z</time>
      </trkpt>
      <trkpt lat="45.98766" lon="2.86787">
        <ele>639</ele>
        <time>2015-10-17T20:00:55Z</time>
      </trkpt>
      <trkpt lat="45.98793" lon="2.86689">
        <ele>650</ele>
        <time>2015-10-17T20:02:55Z</time>
      </trkpt>
      <trkpt lat="45.98793" lon="2.86639">
        <ele>655</ele>
        <time>2015-10-17T20:04:55Z</time>
      </trkpt>
      <trkpt lat="45.98791" lon="2.86596">
        <ele>661</ele>
        <time>2015-10-17T20:06:55Z</time>
      </trkpt>
      <trkpt lat="45.9876" lon="2.86509">
        <ele>666</ele>
        <time>2015-10-17T20:08:55Z</time>
      </trkpt>
      <trkpt lat="45.98746" lon="2.86461">
        <ele>670</ele>
        <time>2015-10-17T20:10:55Z</time>
      </trkpt>
      <trkpt lat="45.98725" lon="2.86399">
        <ele>673</ele>
        <time>2015-10-17T20:12:55Z</time>
      </trkpt>
      <trkpt lat="45.98715" lon="2.86339">
        <ele>677</ele>
        <time>2015-10-17T20:14:55Z</time>
      </trkpt>
      <trkpt lat="45.98722" lon="2.863">
        <ele>681</ele>
        <time>2015-10-17T20:16:55Z</time>
      </trkpt>
      <trkpt lat="45.98763" lon="2.8629">
        <ele>687</ele>
        <time>2015-10-17T20:18:55Z</time>
      </trkpt>
      <trkpt lat="45.98796" lon="2.86315">
        <ele>689</ele>
        <time>2015-10-17T20:20:55Z</time>
      </trkpt>
      <trkpt lat="45.98846" lon="2.86339">
        <ele>693</ele>
        <time>2015-10-17T20:22:55Z</time>
      </trkpt>
      <trkpt lat="45.98892" lon="2.86363">
        <ele>696</ele>
        <time>2015-10-17T20:24:55Z</time>
      </trkpt>
      <trkpt lat="45.98933" lon="2.86397">
        <ele>701</ele>
        <time>2015-10-17T20:26:55Z</time>
      </trkpt>
      <trkpt lat="45.98965" lon="2.8644">
        <ele>703</ele>
        <time>2015-10-17T20:28:55Z</time>
      </trkpt>
      <trkpt lat="45.99001" lon="2.86474">
        <ele>704</ele>
        <time>2015-10-17T20:30:55Z</time>
      </trkpt>
      <trkpt lat="45.99039" lon="2.86478">
        <ele>705</ele>
        <time>2015-10-17T20:32:55Z</time>
      </trkpt>
      <trkpt lat="45.99064" lon="2.86466">
        <ele>706</ele>
        <time>2015-10-17T20:34:55Z</time>
      </trkpt>
      <trkpt lat="45.99103" lon="2.8644">
        <ele>707</ele>
        <time>2015-10-17T20:36:55Z</time>
      </trkpt>
      <trkpt lat="45.99149" lon="2.8641">
        <ele>711</ele>
        <time>2015-10-17T20:38:55Z</time>
      </trkpt>
      <trkpt lat="45.99158" lon="2.86382">
        <ele>711</ele>
        <time>2015-10-17T20:40:55Z</time>
      </trkpt>
      <trkpt lat="45.99171" lon="2.8633">
        <ele>712</ele>
        <time>2015-10-17T20:42:55Z</time>
      </trkpt>
      <trkpt lat="45.99216" lon="2.8629">
        <ele>713</ele>
        <time>2015-10-17T20:44:55Z</time>
      </trkpt>
      <trkpt lat="45.99264" lon="2.86266">
        <ele>713</ele>
        <time>2015-10-17T20:46:55Z</time>
      </trkpt>
      <trkpt lat="45.99344" lon="2.8624">
        <ele>712</ele>
        <time>2015-10-17T20:48:55Z</time>
      </trkpt>
      <trkpt lat="45.99387" lon="2.86247">
        <ele>713</ele>
        <time>2015-10-17T20:50:55Z</time>
      </trkpt>
      <trkpt lat="45.99444" lon="2.8629">
        <ele>713</ele>
        <time>2015-10-17T20:52:55Z</time>
      </trkpt>
      <trkpt lat="45.99501" lon="2.86397">
        <ele>711</ele>
        <time>2015-10-17T20:54:55Z</time>
      </trkpt>
      <trkpt lat="45.99535" lon="2.86446">
        <ele>710</ele>
        <time>2015-10-17T20:56:55Z</time>
      </trkpt>
      <trkpt lat="45.99601" lon="2.86528">
        <ele>707</ele>
        <time>2015-10-17T20:58:55Z</time>
      </trkpt>
      <trkpt lat="45.99636" lon="2.86504">
        <ele>707</ele>
        <time>2015-10-17T21:00:55Z</time>
      </trkpt>
      <trkpt lat="45.99729" lon="2.86493">
        <ele>705</ele>
        <time>2015-10-17T21:02:55Z</time>
      </trkpt>
      <trkpt lat="45.99838" lon="2.86526">
        <ele>703</ele>
        <time>2015-10-17T21:04:55Z</time>
      </trkpt>
      <trkpt lat="45.99879" lon="2.86539">
        <ele>703</ele>
        <time>2015-10-17T21:06:55Z</time>
      </trkpt>
      <trkpt lat="45.99921" lon="2.86564">
        <ele>702</ele>
        <time>2015-10-17T21:08:55Z</time>
      </trkpt>
      <trkpt lat="46.00007" lon="2.86627">
        <ele>702</ele>
        <time>2015-10-17T21:10:55Z</time>
      </trkpt>
      <trkpt lat="46.00095" lon="2.86678">
        <ele>698</ele>
        <time>2015-10-17T21:12:55Z</time>
      </trkpt>
      <trkpt lat="46.0014" lon="2.8671">
        <ele>697</ele>
        <time>2015-10-17T21:14:55Z</time>
      </trkpt>
      <trkpt lat="46.00221" lon="2.86818">
        <ele>688</ele>
        <time>2015-10-17T21:16:55Z</time>
      </trkpt>
      <trkpt lat="46.00253" lon="2.8685">
        <ele>686</ele>
        <time>2015-10-17T21:18:55Z</time>
      </trkpt>
      <trkpt lat="46.00304" lon="2.86886">
        <ele>681</ele>
        <time>2015-10-17T21:20:55Z</time>
      </trkpt>
      <trkpt lat="46.00318" lon="2.86951">
        <ele>678</ele>
        <time>2015-10-17T21:22:55Z</time>
      </trkpt>
      <trkpt lat="46.00344" lon="2.87051">
        <ele>670</ele>
        <time>2015-10-17T21:24:55Z</time>
      </trkpt>
      <trkpt lat="46.00289" lon="2.87133">
        <ele>660</ele>
        <time>2015-10-17T21:26:55Z</time>
      </trkpt>
      <trkpt lat="46.00242" lon="2.87187">
        <ele>651</ele>
        <time>2015-10-17T21:28:55Z</time>
      </trkpt>
      <trkpt lat="46.00236" lon="2.87294">
        <ele>638</ele>
        <time>2015-10-17T21:30:55Z</time>
      </trkpt>
      <trkpt lat="46.00243" lon="2.87343">
        <ele>630</ele>
        <time>2015-10-17T21:32:55Z</time>
      </trkpt>
      <trkpt lat="46.00218" lon="2.87378">
        <ele>628</ele>
        <time>2015-10-17T21:34:55Z</time>
      </trkpt>
      <trkpt lat="46.00191" lon="2.87425">
        <ele>621</ele>
        <time>2015-10-17T21:36:55Z</time>
      </trkpt>
      <trkpt lat="46.00171" lon="2.87481">
        <ele>609</ele>
        <time>2015-10-17T21:38:55Z</time>
      </trkpt>
      <trkpt lat="46.00145" lon="2.87523">
        <ele>598</ele>
        <time>2015-10-17T21:40:55Z</time>
      </trkpt>
      <trkpt lat="46.00118" lon="2.87506">
        <ele>598</ele>
        <time>2015-10-17T21:42:55Z</time>
      </trkpt>
      <trkpt lat="46.00127" lon="2.87607">
        <ele>578</ele>
        <time>2015-10-17T21:44:55Z</time>
      </trkpt>
      <trkpt lat="46.00143" lon="2.87646">
        <ele>571</ele>
        <time>2015-10-17T21:46:55Z</time>
      </trkpt>
      <trkpt lat="46.00149" lon="2.87674">
        <ele>566</ele>
        <time>2015-10-17T21:48:55Z</time>
      </trkpt>
      <trkpt lat="46.00124" lon="2.87669">
        <ele>563</ele>
        <time>2015-10-17T21:50:55Z</time>
      </trkpt>
      <trkpt lat="46.00052" lon="2.87607">
        <ele>558</ele>
        <time>2015-10-17T21:52:55Z</time>
      </trkpt>
      <trkpt lat="46.00028" lon="2.87579">
        <ele>556</ele>
        <time>2015-10-17T21:54:55Z</time>
      </trkpt>
      <trkpt lat="45.99978" lon="2.87551">
        <ele>550</ele>
        <time>2015-10-17T21:56:55Z</time>
      </trkpt>
      <trkpt lat="45.99948" lon="2.87577">
        <ele>537</ele>
        <time>2015-10-17T21:58:55Z</time>
      </trkpt>
      <trkpt lat="45.99927" lon="2.87566">
        <ele>537</ele>
        <time>2015-10-17T22:00:55Z</time>
      </trkpt>
      <trkpt lat="45.99897" lon="2.87571">
        <ele>541</ele>
        <time>2015-10-17T22:02:55Z</time>
      </trkpt>
      <trkpt lat="45.99903" lon="2.8765">
        <ele>529</ele>
        <time>2015-10-17T22:04:55Z</time>
      </trkpt>
      <trkpt lat="45.99909" lon="2.87676">
        <ele>523</ele>
        <time>2015-10-17T22:06:55Z</time>
      </trkpt>
      <trkpt lat="45.99931" lon="2.87751">
        <ele>509</ele>
        <time>2015-10-17T22:08:55Z</time>
      </trkpt>
      <trkpt lat="45.99942" lon="2.8779">
        <ele>501</ele>
        <time>2015-10-17T22:10:55Z</time>
      </trkpt>
      <trkpt lat="45.99949" lon="2.87832">
        <ele>492</ele>
        <time>2015-10-17T22:12:55Z</time>
      </trkpt>
      <trkpt lat="45.99924" lon="2.87912">
        <ele>480</ele>
        <time>2015-10-17T22:14:55Z</time>
      </trkpt>
      <trkpt lat="45.99861" lon="2.87948">
        <ele>471</ele>
        <time>2015-10-17T22:16:55Z</time>
      </trkpt>
      <trkpt lat="45.99802" lon="2.88028">
        <ele>455</ele>
        <time>2015-10-17T22:18:55Z</time>
      </trkpt>
      <trkpt lat="45.99729" lon="2.88064">
        <ele>446</ele>
        <time>2015-10-17T22:20:55Z</time>
      </trkpt>
      <trkpt lat="45.99657" lon="2.88064">
        <ele>446</ele>
        <time>2015-10-17T22:22:55Z</time>
      </trkpt>
      <trkpt lat="45.99596" lon="2.88075">
        <ele>440</ele>
        <time>2015-10-17T22:24:55Z</time>
      </trkpt>
      <trkpt lat="45.99562" lon="2.88075">
        <ele>436</ele>
        <time>2015-10-17T22:26:55Z</time>
      </trkpt>
      <trkpt lat="45.99463" lon="2.88075">
        <ele>420</ele>
        <time>2015-10-17T22:28:55Z</time>
      </trkpt>
      <trkpt lat="45.99399" lon="2.88062">
        <ele>413</ele>
        <time>2015-10-17T22:30:55Z</time>
      </trkpt>
      <trkpt lat="45.99402" lon="2.88101">
        <ele>408</ele>
        <time>2015-10-17T22:32:55Z</time>
      </trkpt>
      <trkpt lat="45.99416" lon="2.88141">
        <ele>405</ele>
        <time>2015-10-17T22:34:55Z</time>
      </trkpt>
      <trkpt lat="45.99429" lon="2.88178">
        <ele>404</ele>
        <time>2015-10-17T22:36:55Z</time>
      </trkpt>
      <trkpt lat="45.9945" lon="2.88236">
        <ele>411</ele>
        <time>2015-10-17T22:38:55Z</time>
      </trkpt>
      <trkpt lat="45.99434" lon="2.88239">
        <ele>413</ele>
        <time>2015-10-17T22:40:55Z</time>
      </trkpt>
      <trkpt lat="45.99424" lon="2.88234">
        <ele>413</ele>
        <time>2015-10-17T22:42:55Z</time>
      </trkpt>
      <trkpt lat="45.99412" lon="2.88246">
        <ele>417</ele>
        <time>2015-10-17T22:44:55Z</time>
      </trkpt>
      <trkpt lat="45.99413" lon="2.88261">
        <ele>422</ele>
        <time>2015-10-17T22:46:55Z</time>
      </trkpt>
      <trkpt lat="45.99428" lon="2.88276">
        <ele>425</ele>
        <time>2015-10-17T22:48:55Z</time>
      </trkpt>
      <trkpt lat="45.99441" lon="2.88284">
        <ele>427</ele>
        <time>2015-10-17T22:50:55Z</time>
      </trkpt>
      <trkpt lat="45.99449" lon="2.8829">
        <ele>428</ele>
        <time>2015-10-17T22:52:55Z</time>
      </trkpt>
      <trkpt lat="45.99459" lon="2.88294">
        <ele>429</ele>
        <time>2015-10-17T22:54:55Z</time>
      </trkpt>
      <trkpt lat="45.99468" lon="2.88294">
        <ele>427</ele>
        <time>2015-10-17T22:56:55Z</time>
      </trkpt>
      <trkpt lat="45.99476" lon="2.88296">
        <ele>427</ele>
        <time>2015-10-17T22:58:55Z</time>
      </trkpt>
      <trkpt lat="45.9948" lon="2.88302">
        <ele>429</ele>
        <time>2015-10-17T23:00:55Z</time>
      </trkpt>
      <trkpt lat="45.99475" lon="2.88306">
        <ele>431</ele>
        <time>2015-10-17T23:02:55Z</time>
      </trkpt>
      <trkpt lat="45.99452" lon="2.88306">
        <ele>434</ele>
        <time>2015-10-17T23:04:55Z</time>
      </trkpt>
      <trkpt lat="45.9944" lon="2.88305">
        <ele>436</ele>
        <time>2015-10-17T23:06:55Z</time>
      </trkpt>
      <trkpt lat="45.99427" lon="2.88306">
        <ele>438</ele>
        <time>2015-10-17T23:08:55Z</time>
      </trkpt>
      <trkpt lat="45.99417" lon="2.88303">
        <ele>438</ele>
        <time>2015-10-17T23:10:55Z</time>
      </trkpt>
      <trkpt lat="45.99408" lon="2.88301">
        <ele>439</ele>
        <time>2015-10-17T23:12:55Z</time>
      </trkpt>
      <trkpt lat="45.99387" lon="2.88312">
        <ele>445</ele>
        <time>2015-10-17T23:14:55Z</time>
      </trkpt>
      <trkpt lat="45.9938" lon="2.8832">
        <ele>448</ele>
        <time>2015-10-17T23:16:55Z</time>
      </trkpt>
      <trkpt lat="45.99368" lon="2.88335">
        <ele>453</ele>
        <time>2015-10-17T23:18:55Z</time>
      </trkpt>
      <trkpt lat="45.99356" lon="2.88353">
        <ele>458</ele>
        <time>2015-10-17T23:20:55Z</time>
      </trkpt>
      <trkpt lat="45.99349" lon="2.88362">
        <ele>460</ele>
        <time>2015-10-17T23:22:55Z</time>
      </trkpt>
      <trkpt lat="45.99329" lon="2.8838">
        <ele>464</ele>
        <time>2015-10-17T23:24:55Z</time>
      </trkpt>
      <trkpt lat="45.99316" lon="2.88404">
        <ele>474</ele>
        <time>2015-10-17T23:26:55Z</time>
      </trkpt>
      <trkpt lat="45.99301" lon="2.88412">
        <ele>480</ele>
        <time>2015-10-17T23:28:55Z</time>
      </trkpt>
      <trkpt lat="45.99295" lon="2.88394">
        <ele>479</ele>
        <time>2015-10-17T23:30:55Z</time>
      </trkpt>
      <trkpt lat="45.99296" lon="2.88346">
        <ele>469</ele>
        <time>2015-10-17T23:32:55Z</time>
      </trkpt>
      <trkpt lat="45.99293" lon="2.88296">
        <ele>460</ele>
        <time>2015-10-17T23:34:55Z</time>
      </trkpt>
      <trkpt lat="45.99286" lon="2.88307">
        <ele>465</ele>
        <time>2015-10-17T23:36:55Z</time>
      </trkpt>
      <trkpt lat="45.99281" lon="2.88327">
        <ele>470</ele>
        <time>2015-10-17T23:38:55Z</time>
      </trkpt>
      <trkpt lat="45.99273" lon="2.88348">
        <ele>477</ele>
        <time>2015-10-17T23:40:55Z</time>
      </trkpt>
      <trkpt lat="45.99262" lon="2.88342">
        <ele>479</ele>
        <time>2015-10-17T23:42:55Z</time>
      </trkpt>
      <trkpt lat="45.99256" lon="2.88322">
        <ele>477</ele>
        <time>2015-10-17T23:44:55Z</time>
      </trkpt>
      <trkpt lat="45.99249" lon="2.88307">
        <ele>476</ele>
        <time>2015-10-17T23:46:55Z</time>
      </trkpt>
      <trkpt lat="45.99232" lon="2.88292">
        <ele>476</ele>
        <time>2015-10-17T23:48:55Z</time>
      </trkpt>
      <trkpt lat="45.99218" lon="2.8829">
        <ele>478</ele>
        <time>2015-10-17T23:50:55Z</time>
      </trkpt>
      <trkpt lat="45.99201" lon="2.88291">
        <ele>481</ele>
        <time>2015-10-17T23:52:55Z</time>
      </trkpt>
      <trkpt lat="45.99184" lon="2.88294">
        <ele>485</ele>
        <time>2015-10-17T23:54:55Z</time>
      </trkpt>
      <trkpt lat="45.99163" lon="2.88298">
        <ele>491</ele>
        <time>2015-10-17T23:56:55Z</time>
      </trkpt>
      <trkpt lat="45.99121" lon="2.88299">
        <ele>497</ele>
        <time>2015-10-17T23:58:55Z</time>
      </trkpt>
      <trkpt lat="45.99104" lon="2.88298">
        <ele>498</ele>
        <time>2015-10-18T00:00:55Z</time>
      </trkpt>
      <trkpt lat="45.99091" lon="2.883">
        <ele>501</ele>
        <time>2015-10-18T00:02:55Z</time>
      </trkpt>
      <trkpt lat="45.99085" lon="2.88302">
        <ele>503</ele>
        <time>2015-10-18T00:04:55Z</time>
      </trkpt>
      <trkpt lat="45.99096" lon="2.8831">
        <ele>504</ele>
        <time>2015-10-18T00:06:55Z</time>
      </trkpt>
      <trkpt lat="45.99136" lon="2.8835">
        <ele>513</ele>
        <time>2015-10-18T00:08:55Z</time>
      </trkpt>
      <trkpt lat="45.99155" lon="2.88367">
        <ele>515</ele>
        <time>2015-10-18T00:10:55Z</time>
      </trkpt>
      <trkpt lat="45.99177" lon="2.88396">
        <ele>520</ele>
        <time>2015-10-18T00:12:55Z</time>
      </trkpt>
      <trkpt lat="45.9919" lon="2.88424">
        <ele>522</ele>
        <time>2015-10-18T00:14:55Z</time>
      </trkpt>
      <trkpt lat="45.99206" lon="2.88461">
        <ele>522</ele>
        <time>2015-10-18T00:16:55Z</time>
      </trkpt>
      <trkpt lat="45.99208" lon="2.8849">
        <ele>525</ele>
        <time>2015-10-18T00:18:55Z</time>
      </trkpt>
      <trkpt lat="45.99197" lon="2.88505">
        <ele>531</ele>
        <time>2015-10-18T00:20:55Z</time>
      </trkpt>
      <trkpt lat="45.99179" lon="2.88528">
        <ele>538</ele>
        <time>2015-10-18T00:22:55Z</time>
      </trkpt>
      <trkpt lat="45.99164" lon="2.88551">
        <ele>544</ele>
        <time>2015-10-18T00:24:55Z</time>
      </trkpt>
      <trkpt lat="45.9915" lon="2.88579">
        <ele>550</ele>
        <time>2015-10-18T00:26:55Z</time>
      </trkpt>
      <trkpt lat="45.99143" lon="2.88598">
        <ele>554</ele>
        <time>2015-10-18T00:28:55Z</time>
      </trkpt>
      <trkpt lat="45.99128" lon="2.8864">
        <ele>563</ele>
        <time>2015-10-18T00:30:55Z</time>
      </trkpt>
      <trkpt lat="45.99122" lon="2.88663">
        <ele>567</ele>
        <time>2015-10-18T00:32:55Z</time>
      </trkpt>
      <trkpt lat="45.99122" lon="2.88687">
        <ele>569</ele>
        <time>2015-10-18T00:34:55Z</time>
      </trkpt>
      <trkpt lat="45.9912" lon="2.88731">
        <ele>574</ele>
        <time>2015-10-18T00:36:55Z</time>
      </trkpt>
      <trkpt lat="45.99119" lon="2.88764">
        <ele>577</ele>
        <time>2015-10-18T00:38:55Z</time>
      </trkpt>
      <trkpt lat="45.99106" lon="2.8874">
        <ele>582</ele>
        <time>2015-10-18T00:40:55Z</time>
      </trkpt>
      <trkpt lat="45.9908" lon="2.8869">
        <ele>592</ele>
        <time>2015-10-18T00:42:55Z</time>
      </trkpt>
      <trkpt lat="45.99069" lon="2.88647">
        <ele>593</ele>
        <time>2015-10-18T00:44:55Z</time>
      </trkpt>
      <trkpt lat="45.99049" lon="2.88554">
        <ele>588</ele>
        <time>2015-10-18T00:46:55Z</time>
      </trkpt>
      <trkpt lat="45.99013" lon="2.8855">
        <ele>596</ele>
        <time>2015-10-18T00:48:55Z</time>
      </trkpt>
      <trkpt lat="45.98991" lon="2.88553">
        <ele>600</ele>
        <time>2015-10-18T00:50:55Z</time>
      </trkpt>
      <trkpt lat="45.98974" lon="2.8856">
        <ele>600</ele>
        <time>2015-10-18T00:52:55Z</time>
      </trkpt>
      <trkpt lat="45.9896" lon="2.88568">
        <ele>602</ele>
        <time>2015-10-18T00:54:55Z</time>
      </trkpt>
      <trkpt lat="45.9895" lon="2.88571">
        <ele>602</ele>
        <time>2015-10-18T00:56:55Z</time>
      </trkpt>
      <trkpt lat="45.98939" lon="2.8858">
        <ele>603</ele>
        <time>2015-10-18T00:58:55Z</time>
      </trkpt>
      <trkpt lat="45.98913" lon="2.88598">
        <ele>605</ele>
        <time>2015-10-18T01:00:55Z</time>
      </trkpt>
      <trkpt lat="45.98913" lon="2.88629">
        <ele>613</ele>
        <time>2015-10-18T01:02:55Z</time>
      </trkpt>
      <trkpt lat="45.9892" lon="2.88643">
        <ele>617</ele>
        <time>2015-10-18T01:04:55Z</time>
      </trkpt>
      <trkpt lat="45.98949" lon="2.88656">
        <ele>620</ele>
        <time>2015-10-18T01:06:55Z</time>
      </trkpt>
      <trkpt lat="45.98964" lon="2.88671">
        <ele>623</ele>
        <time>2015-10-18T01:08:55Z</time>
      </trkpt>
      <trkpt lat="45.98957" lon="2.88697">
        <ele>628</ele>
        <time>2015-10-18T01:10:55Z</time>
      </trkpt>
      <trkpt lat="45.98957" lon="2.88706">
        <ele>630</ele>
        <time>2015-10-18T01:12:55Z</time>
      </trkpt>
      <trkpt lat="45.98963" lon="2.88719">
        <ele>632</ele>
        <time>2015-10-18T01:14:55Z</time>
      </trkpt>
      <trkpt lat="45.98969" lon="2.88728">
        <ele>633</ele>
        <time>2015-10-18T01:16:55Z</time>
      </trkpt>
      <trkpt lat="45.98972" lon="2.88749">
        <ele>637</ele>
        <time>2015-10-18T01:18:55Z</time>
      </trkpt>
      <trkpt lat="45.98973" lon="2.88767">
        <ele>640</ele>
        <time>2015-10-18T01:20:55Z</time>
      </trkpt>
      <trkpt lat="45.98968" lon="2.88772">
        <ele>641</ele>
        <time>2015-10-18T01:22:55Z</time>
      </trkpt>
      <trkpt lat="45.98936" lon="2.88785">
        <ele>649</ele>
        <time>2015-10-18T01:24:55Z</time>
      </trkpt>
      <trkpt lat="45.98924" lon="2.88801">
        <ele>655</ele>
        <time>2015-10-18T01:26:55Z</time>
      </trkpt>
      <trkpt lat="45.98934" lon="2.88809">
        <ele>655</ele>
        <time>2015-10-18T01:28:55Z</time>
      </trkpt>
      <trkpt lat="45.98938" lon="2.88822">
        <ele>657</ele>
        <time>2015-10-18T01:30:55Z</time>
      </trkpt>
      <trkpt lat="45.98959" lon="2.88864">
        <ele>658</ele>
        <time>2015-10-18T01:32:55Z</time>
      </trkpt>
      <trkpt lat="45.98968" lon="2.88899">
        <ele>660</ele>
        <time>2015-10-18T01:34:55Z</time>
      </trkpt>
      <trkpt lat="45.98962" lon="2.8892">
        <ele>663</ele>
        <time>2015-10-18T01:36:55Z</time>
      </trkpt>
      <trkpt lat="45.98955" lon="2.88923">
        <ele>665</ele>
        <time>2015-10-18T01:38:55Z</time>
      </trkpt>
      <trkpt lat="45.98943" lon="2.88919">
        <ele>668</ele>
        <time>2015-10-18T01:40:55Z</time>
      </trkpt>
      <trkpt lat="45.98927" lon="2.88935">
        <ele>672</ele>
        <time>2015-10-18T01:42:55Z</time>
      </trkpt>
      <trkpt lat="45.98918" lon="2.88949">
        <ele>675</ele>
        <time>2015-10-18T01:44:55Z</time>
      </trkpt>
      <trkpt lat="45.98912" lon="2.88965">
        <ele>675</ele>
        <time>2015-10-18T01:46:55Z</time>
      </trkpt>
      <trkpt lat="45.98904" lon="2.88986">
        <ele>675</ele>
        <time>2015-10-18T01:48:55Z</time>
      </trkpt>
      <trkpt lat="45.98896" lon="2.89012">
        <ele>676</ele>
        <time>2015-10-18T01:50:55Z</time>
      </trkpt>
      <trkpt lat="45.98889" lon="2.89027">
        <ele>676</ele>
        <time>2015-10-18T01:52:55Z</time>
      </trkpt>
      <trkpt lat="45.98878" lon="2.89047">
        <ele>677</ele>
        <time>2015-10-18T01:54:55Z</time>
      </trkpt>
      <trkpt lat="45.98868" lon="2.89072">
        <ele>677</ele>
        <time>2015-10-18T01:56:55Z</time>
      </trkpt>
      <trkpt lat="45.98851" lon="2.89109">
        <ele>677</ele>
        <time>2015-10-18T01:58:55Z</time>
      </trkpt>
      <trkpt lat="45.98828" lon="2.8911">
        <ele>677</ele>
        <time>2015-10-18T02:00:55Z</time>
      </trkpt>
      <trkpt lat="45.988" lon="2.89109">
        <ele>678</ele>
        <time>2015-10-18T02:02:55Z</time>
      </trkpt>
      <trkpt lat="45.98769" lon="2.89105">
        <ele>678</ele>
        <time>2015-10-18T02:04:55Z</time>
      </trkpt>
      <trkpt lat="45.98728" lon="2.89128">
        <ele>679</ele>
        <time>2015-10-18T02:06:55Z</time>
      </trkpt>
      <trkpt lat="45.9868" lon="2.89172">
        <ele>678</ele>
        <time>2015-10-18T02:08:55Z</time>
      </trkpt>
      <trkpt lat="45.98656" lon="2.89188">
        <ele>678</ele>
        <time>2015-10-18T02:10:55Z</time>
      </trkpt>
      <trkpt lat="45.98618" lon="2.89209">
        <ele>678</ele>
        <time>2015-10-18T02:12:55Z</time>
      </trkpt>
      <trkpt lat="45.98596" lon="2.89228">
        <ele>678</ele>
        <time>2015-10-18T02:14:55Z</time>
      </trkpt>
      <trkpt lat="45.98576" lon="2.89252">
        <ele>677</ele>
        <time>2015-10-18T02:16:55Z</time>
      </trkpt>
      <trkpt lat="45.98545" lon="2.8934">
        <ele>683</ele>
        <time>2015-10-18T02:18:55Z</time>
      </trkpt>
      <trkpt lat="45.98526" lon="2.89397">
        <ele>689</ele>
        <time>2015-10-18T02:20:55Z</time>
      </trkpt>
      <trkpt lat="45.98511" lon="2.89441">
        <ele>693</ele>
        <time>2015-10-18T02:22:55Z</time>
      </trkpt>
      <trkpt lat="45.98498" lon="2.89476">
        <ele>696</ele>
        <time>2015-10-18T02:24:55Z</time>
      </trkpt>
      <trkpt lat="45.98497" lon="2.8952">
        <ele>699</ele>
        <time>2015-10-18T02:26:55Z</time>
      </trkpt>
      <trkpt lat="45.98498" lon="2.89567">
        <ele>702</ele>
        <time>2015-10-18T02:28:55Z</time>
      </trkpt>
    </trkseg>
  </trk>
  <trk>
    <name><![CDATA[--Saint-Georges-de-Mons-- OR-5377031:ser-jb05-vtt-b]]></name>
    <trkseg>
      <trkpt lat="45.94029" lon="2.8407">
        <ele>733</ele>
        <time>2015-10-18T19:27:47Z</time>
      </trkpt>
      <trkpt lat="45.94014" lon="2.84078">
        <ele>734</ele>
        <time>2015-10-18T19:29:47Z</time>
      </trkpt>
      <trkpt lat="45.94003" lon="2.84094">
        <ele>734</ele>
        <time>2015-10-18T19:31:47Z</time>
      </trkpt>
      <trkpt lat="45.93998" lon="2.84108">
        <ele>734</ele>
        <time>2015-10-18T19:33:47Z</time>
      </trkpt>
      <trkpt lat="45.93988" lon="2.84137">
        <ele>734</ele>
        <time>2015-10-18T19:35:47Z</time>
      </trkpt>
      <trkpt lat="45.93988" lon="2.84189">
        <ele>735</ele>
        <time>2015-10-18T19:37:47Z</time>
      </trkpt>
      <trkpt lat="45.93988" lon="2.84227">
        <ele>736</ele>
        <time>2015-10-18T19:39:47Z</time>
      </trkpt>
      <trkpt lat="45.93976" lon="2.84239">
        <ele>737</ele>
        <time>2015-10-18T19:41:47Z</time>
      </trkpt>
      <trkpt lat="45.93955" lon="2.84244">
        <ele>737</ele>
        <time>2015-10-18T19:43:47Z</time>
      </trkpt>
      <trkpt lat="45.93943" lon="2.84262">
        <ele>739</ele>
        <time>2015-10-18T19:45:47Z</time>
      </trkpt>
      <trkpt lat="45.93944" lon="2.84283">
        <ele>740</ele>
        <time>2015-10-18T19:47:47Z</time>
      </trkpt>
      <trkpt lat="45.93938" lon="2.84301">
        <ele>741</ele>
        <time>2015-10-18T19:49:47Z</time>
      </trkpt>
      <trkpt lat="45.93916" lon="2.84298">
        <ele>741</ele>
        <time>2015-10-18T19:51:47Z</time>
      </trkpt>
      <trkpt lat="45.93826" lon="2.84258">
        <ele>737</ele>
        <time>2015-10-18T19:53:47Z</time>
      </trkpt>
      <trkpt lat="45.93762" lon="2.84235">
        <ele>736</ele>
        <time>2015-10-18T19:55:47Z</time>
      </trkpt>
      <trkpt lat="45.93764" lon="2.84331">
        <ele>738</ele>
        <time>2015-10-18T19:57:47Z</time>
      </trkpt>
      <trkpt lat="45.93778" lon="2.84431">
        <ele>740</ele>
        <time>2015-10-18T19:59:47Z</time>
      </trkpt>
      <trkpt lat="45.93785" lon="2.8446">
        <ele>740</ele>
        <time>2015-10-18T20:01:47Z</time>
      </trkpt>
      <trkpt lat="45.93806" lon="2.84515">
        <ele>740</ele>
        <time>2015-10-18T20:03:47Z</time>
      </trkpt>
      <trkpt lat="45.93808" lon="2.84554">
        <ele>740</ele>
        <time>2015-10-18T20:05:47Z</time>
      </trkpt>
      <trkpt lat="45.93814" lon="2.84607">
        <ele>740</ele>
        <time>2015-10-18T20:07:47Z</time>
      </trkpt>
      <trkpt lat="45.93844" lon="2.84683">
        <ele>741</ele>
        <time>2015-10-18T20:09:47Z</time>
      </trkpt>
      <trkpt lat="45.9387" lon="2.84739">
        <ele>741</ele>
        <time>2015-10-18T20:11:47Z</time>
      </trkpt>
      <trkpt lat="45.93888" lon="2.84792">
        <ele>742</ele>
        <time>2015-10-18T20:13:47Z</time>
      </trkpt>
      <trkpt lat="45.93889" lon="2.8484">
        <ele>743</ele>
        <time>2015-10-18T20:15:47Z</time>
      </trkpt>
      <trkpt lat="45.93878" lon="2.84901">
        <ele>747</ele>
        <time>2015-10-18T20:17:47Z</time>
      </trkpt>
      <trkpt lat="45.93875" lon="2.84953">
        <ele>749</ele>
        <time>2015-10-18T20:19:47Z</time>
      </trkpt>
      <trkpt lat="45.93873" lon="2.85034">
        <ele>750</ele>
        <time>2015-10-18T20:21:47Z</time>
      </trkpt>
      <trkpt lat="45.93878" lon="2.85076">
        <ele>750</ele>
        <time>2015-10-18T20:23:47Z</time>
      </trkpt>
      <trkpt lat="45.93892" lon="2.85139">
        <ele>747</ele>
        <time>2015-10-18T20:25:47Z</time>
      </trkpt>
      <trkpt lat="45.93901" lon="2.85201">
        <ele>746</ele>
        <time>2015-10-18T20:27:47Z</time>
      </trkpt>
      <trkpt lat="45.93907" lon="2.8529">
        <ele>745</ele>
        <time>2015-10-18T20:29:47Z</time>
      </trkpt>
      <trkpt lat="45.93914" lon="2.85359">
        <ele>743</ele>
        <time>2015-10-18T20:31:47Z</time>
      </trkpt>
      <trkpt lat="45.9393" lon="2.85405">
        <ele>741</ele>
        <time>2015-10-18T20:33:47Z</time>
      </trkpt>
      <trkpt lat="45.93944" lon="2.85452">
        <ele>740</ele>
        <time>2015-10-18T20:35:47Z</time>
      </trkpt>
      <trkpt lat="45.93944" lon="2.85505">
        <ele>740</ele>
        <time>2015-10-18T20:37:47Z</time>
      </trkpt>
      <trkpt lat="45.93939" lon="2.85535">
        <ele>741</ele>
        <time>2015-10-18T20:39:47Z</time>
      </trkpt>
      <trkpt lat="45.93927" lon="2.85585">
        <ele>744</ele>
        <time>2015-10-18T20:41:47Z</time>
      </trkpt>
      <trkpt lat="45.93916" lon="2.85657">
        <ele>748</ele>
        <time>2015-10-18T20:43:47Z</time>
      </trkpt>
      <trkpt lat="45.93912" lon="2.85682">
        <ele>748</ele>
        <time>2015-10-18T20:45:47Z</time>
      </trkpt>
      <trkpt lat="45.93901" lon="2.85719">
        <ele>748</ele>
        <time>2015-10-18T20:47:47Z</time>
      </trkpt>
      <trkpt lat="45.93882" lon="2.85814">
        <ele>746</ele>
        <time>2015-10-18T20:49:47Z</time>
      </trkpt>
      <trkpt lat="45.93858" lon="2.8589">
        <ele>744</ele>
        <time>2015-10-18T20:51:47Z</time>
      </trkpt>
      <trkpt lat="45.9382" lon="2.85966">
        <ele>742</ele>
        <time>2015-10-18T20:53:47Z</time>
      </trkpt>
      <trkpt lat="45.93795" lon="2.86016">
        <ele>741</ele>
        <time>2015-10-18T20:55:47Z</time>
      </trkpt>
      <trkpt lat="45.93788" lon="2.86097">
        <ele>742</ele>
        <time>2015-10-18T20:57:47Z</time>
      </trkpt>
      <trkpt lat="45.93764" lon="2.8612">
        <ele>742</ele>
        <time>2015-10-18T20:59:47Z</time>
      </trkpt>
      <trkpt lat="45.93732" lon="2.86137">
        <ele>742</ele>
        <time>2015-10-18T21:01:47Z</time>
      </trkpt>
      <trkpt lat="45.93745" lon="2.86223">
        <ele>742</ele>
        <time>2015-10-18T21:03:47Z</time>
      </trkpt>
      <trkpt lat="45.93763" lon="2.86375">
        <ele>742</ele>
        <time>2015-10-18T21:05:47Z</time>
      </trkpt>
      <trkpt lat="45.9377" lon="2.86483">
        <ele>744</ele>
        <time>2015-10-18T21:07:47Z</time>
      </trkpt>
      <trkpt lat="45.93775" lon="2.86536">
        <ele>744</ele>
        <time>2015-10-18T21:09:47Z</time>
      </trkpt>
      <trkpt lat="45.9377" lon="2.86566">
        <ele>744</ele>
        <time>2015-10-18T21:11:47Z</time>
      </trkpt>
      <trkpt lat="45.93876" lon="2.86681">
        <ele>746</ele>
        <time>2015-10-18T21:13:47Z</time>
      </trkpt>
      <trkpt lat="45.93935" lon="2.86735">
        <ele>747</ele>
        <time>2015-10-18T21:15:47Z</time>
      </trkpt>
      <trkpt lat="45.93985" lon="2.8679">
        <ele>746</ele>
        <time>2015-10-18T21:17:47Z</time>
      </trkpt>
      <trkpt lat="45.94046" lon="2.86863">
        <ele>747</ele>
        <time>2015-10-18T21:19:47Z</time>
      </trkpt>
      <trkpt lat="45.94073" lon="2.86862">
        <ele>747</ele>
        <time>2015-10-18T21:21:47Z</time>
      </trkpt>
      <trkpt lat="45.94102" lon="2.86865">
        <ele>748</ele>
        <time>2015-10-18T21:23:47Z</time>
      </trkpt>
      <trkpt lat="45.94282" lon="2.86902">
        <ele>756</ele>
        <time>2015-10-18T21:25:47Z</time>
      </trkpt>
      <trkpt lat="45.94399" lon="2.86953">
        <ele>762</ele>
        <time>2015-10-18T21:27:47Z</time>
      </trkpt>
      <trkpt lat="45.9443" lon="2.86961">
        <ele>762</ele>
        <time>2015-10-18T21:29:47Z</time>
      </trkpt>
      <trkpt lat="45.94464" lon="2.86971">
        <ele>761</ele>
        <time>2015-10-18T21:31:47Z</time>
      </trkpt>
      <trkpt lat="45.94493" lon="2.86979">
        <ele>760</ele>
        <time>2015-10-18T21:33:47Z</time>
      </trkpt>
      <trkpt lat="45.94529" lon="2.86998">
        <ele>759</ele>
        <time>2015-10-18T21:35:47Z</time>
      </trkpt>
      <trkpt lat="45.94552" lon="2.87015">
        <ele>759</ele>
        <time>2015-10-18T21:37:47Z</time>
      </trkpt>
      <trkpt lat="45.94553" lon="2.87044">
        <ele>757</ele>
        <time>2015-10-18T21:39:47Z</time>
      </trkpt>
      <trkpt lat="45.94547" lon="2.87068">
        <ele>755</ele>
        <time>2015-10-18T21:41:47Z</time>
      </trkpt>
      <trkpt lat="45.94538" lon="2.8714">
        <ele>751</ele>
        <time>2015-10-18T21:43:47Z</time>
      </trkpt>
      <trkpt lat="45.94522" lon="2.87224">
        <ele>748</ele>
        <time>2015-10-18T21:45:47Z</time>
      </trkpt>
      <trkpt lat="45.94519" lon="2.87282">
        <ele>747</ele>
        <time>2015-10-18T21:47:47Z</time>
      </trkpt>
      <trkpt lat="45.94522" lon="2.87371">
        <ele>744</ele>
        <time>2015-10-18T21:49:47Z</time>
      </trkpt>
      <trkpt lat="45.94525" lon="2.87432">
        <ele>741</ele>
        <time>2015-10-18T21:51:47Z</time>
      </trkpt>
      <trkpt lat="45.94531" lon="2.87482">
        <ele>737</ele>
        <time>2015-10-18T21:53:47Z</time>
      </trkpt>
      <trkpt lat="45.94524" lon="2.87511">
        <ele>735</ele>
        <time>2015-10-18T21:55:47Z</time>
      </trkpt>
      <trkpt lat="45.94509" lon="2.87551">
        <ele>734</ele>
        <time>2015-10-18T21:57:47Z</time>
      </trkpt>
      <trkpt lat="45.94493" lon="2.87613">
        <ele>733</ele>
        <time>2015-10-18T21:59:47Z</time>
      </trkpt>
      <trkpt lat="45.94482" lon="2.87669">
        <ele>733</ele>
        <time>2015-10-18T22:01:47Z</time>
      </trkpt>
      <trkpt lat="45.94469" lon="2.87755">
        <ele>742</ele>
        <time>2015-10-18T22:03:47Z</time>
      </trkpt>
      <trkpt lat="45.94458" lon="2.87815">
        <ele>749</ele>
        <time>2015-10-18T22:05:47Z</time>
      </trkpt>
      <trkpt lat="45.94442" lon="2.87927">
        <ele>753</ele>
        <time>2015-10-18T22:07:47Z</time>
      </trkpt>
      <trkpt lat="45.944" lon="2.8792">
        <ele>752</ele>
        <time>2015-10-18T22:09:47Z</time>
      </trkpt>
      <trkpt lat="45.94314" lon="2.87886">
        <ele>749</ele>
        <time>2015-10-18T22:11:47Z</time>
      </trkpt>
      <trkpt lat="45.94245" lon="2.87869">
        <ele>747</ele>
        <time>2015-10-18T22:13:47Z</time>
      </trkpt>
      <trkpt lat="45.94177" lon="2.87868">
        <ele>742</ele>
        <time>2015-10-18T22:15:47Z</time>
      </trkpt>
      <trkpt lat="45.94073" lon="2.87881">
        <ele>733</ele>
        <time>2015-10-18T22:17:47Z</time>
      </trkpt>
      <trkpt lat="45.94028" lon="2.87889">
        <ele>727</ele>
        <time>2015-10-18T22:19:47Z</time>
      </trkpt>
      <trkpt lat="45.93954" lon="2.87945">
        <ele>716</ele>
        <time>2015-10-18T22:21:47Z</time>
      </trkpt>
      <trkpt lat="45.9392" lon="2.87968">
        <ele>709</ele>
        <time>2015-10-18T22:23:47Z</time>
      </trkpt>
      <trkpt lat="45.93908" lon="2.87993">
        <ele>708</ele>
        <time>2015-10-18T22:25:47Z</time>
      </trkpt>
      <trkpt lat="45.93917" lon="2.88024">
        <ele>708</ele>
        <time>2015-10-18T22:27:47Z</time>
      </trkpt>
      <trkpt lat="45.93923" lon="2.88041">
        <ele>709</ele>
        <time>2015-10-18T22:29:47Z</time>
      </trkpt>
      <trkpt lat="45.93923" lon="2.88062">
        <ele>708</ele>
        <time>2015-10-18T22:31:47Z</time>
      </trkpt>
      <trkpt lat="45.93913" lon="2.88102">
        <ele>707</ele>
        <time>2015-10-18T22:33:47Z</time>
      </trkpt>
      <trkpt lat="45.93899" lon="2.88168">
        <ele>706</ele>
        <time>2015-10-18T22:35:47Z</time>
      </trkpt>
      <trkpt lat="45.939" lon="2.88195">
        <ele>706</ele>
        <time>2015-10-18T22:37:47Z</time>
      </trkpt>
      <trkpt lat="45.93903" lon="2.88232">
        <ele>707</ele>
        <time>2015-10-18T22:39:47Z</time>
      </trkpt>
      <trkpt lat="45.93914" lon="2.88315">
        <ele>709</ele>
        <time>2015-10-18T22:41:47Z</time>
      </trkpt>
      <trkpt lat="45.93908" lon="2.88352">
        <ele>708</ele>
        <time>2015-10-18T22:43:47Z</time>
      </trkpt>
      <trkpt lat="45.939" lon="2.8839">
        <ele>708</ele>
        <time>2015-10-18T22:45:47Z</time>
      </trkpt>
      <trkpt lat="45.93888" lon="2.88473">
        <ele>708</ele>
        <time>2015-10-18T22:47:47Z</time>
      </trkpt>
      <trkpt lat="45.9396" lon="2.88473">
        <ele>715</ele>
        <time>2015-10-18T22:49:47Z</time>
      </trkpt>
      <trkpt lat="45.93998" lon="2.88483">
        <ele>719</ele>
        <time>2015-10-18T22:51:47Z</time>
      </trkpt>
      <trkpt lat="45.94048" lon="2.88519">
        <ele>722</ele>
        <time>2015-10-18T22:53:47Z</time>
      </trkpt>
      <trkpt lat="45.9409" lon="2.88542">
        <ele>724</ele>
        <time>2015-10-18T22:55:47Z</time>
      </trkpt>
      <trkpt lat="45.94189" lon="2.88554">
        <ele>726</ele>
        <time>2015-10-18T22:57:47Z</time>
      </trkpt>
      <trkpt lat="45.94231" lon="2.88557">
        <ele>726</ele>
        <time>2015-10-18T22:59:47Z</time>
      </trkpt>
      <trkpt lat="45.94268" lon="2.88557">
        <ele>725</ele>
        <time>2015-10-18T23:01:47Z</time>
      </trkpt>
      <trkpt lat="45.9432" lon="2.88551">
        <ele>723</ele>
        <time>2015-10-18T23:03:47Z</time>
      </trkpt>
      <trkpt lat="45.94352" lon="2.88545">
        <ele>723</ele>
        <time>2015-10-18T23:05:47Z</time>
      </trkpt>
      <trkpt lat="45.94372" lon="2.88563">
        <ele>722</ele>
        <time>2015-10-18T23:07:47Z</time>
      </trkpt>
      <trkpt lat="45.94358" lon="2.88601">
        <ele>720</ele>
        <time>2015-10-18T23:09:47Z</time>
      </trkpt>
      <trkpt lat="45.94352" lon="2.88664">
        <ele>716</ele>
        <time>2015-10-18T23:11:47Z</time>
      </trkpt>
      <trkpt lat="45.94329" lon="2.88757">
        <ele>708</ele>
        <time>2015-10-18T23:13:47Z</time>
      </trkpt>
      <trkpt lat="45.9431" lon="2.88779">
        <ele>708</ele>
        <time>2015-10-18T23:15:47Z</time>
      </trkpt>
      <trkpt lat="45.94281" lon="2.88808">
        <ele>707</ele>
        <time>2015-10-18T23:17:47Z</time>
      </trkpt>
      <trkpt lat="45.94269" lon="2.8884">
        <ele>704</ele>
        <time>2015-10-18T23:19:47Z</time>
      </trkpt>
      <trkpt lat="45.94251" lon="2.88895">
        <ele>699</ele>
        <time>2015-10-18T23:21:47Z</time>
      </trkpt>
      <trkpt lat="45.94233" lon="2.88923">
        <ele>696</ele>
        <time>2015-10-18T23:23:47Z</time>
      </trkpt>
      <trkpt lat="45.94205" lon="2.88941">
        <ele>694</ele>
        <time>2015-10-18T23:25:47Z</time>
      </trkpt>
      <trkpt lat="45.94179" lon="2.88948">
        <ele>693</ele>
        <time>2015-10-18T23:27:47Z</time>
      </trkpt>
      <trkpt lat="45.94155" lon="2.88955">
        <ele>692</ele>
        <time>2015-10-18T23:29:47Z</time>
      </trkpt>
      <trkpt lat="45.94115" lon="2.88988">
        <ele>690</ele>
        <time>2015-10-18T23:31:47Z</time>
      </trkpt>
      <trkpt lat="45.94093" lon="2.89014">
        <ele>688</ele>
        <time>2015-10-18T23:33:47Z</time>
      </trkpt>
      <trkpt lat="45.94062" lon="2.89059">
        <ele>685</ele>
        <time>2015-10-18T23:35:47Z</time>
      </trkpt>
      <trkpt lat="45.94039" lon="2.89103">
        <ele>684</ele>
        <time>2015-10-18T23:37:47Z</time>
      </trkpt>
      <trkpt lat="45.94016" lon="2.89156">
        <ele>685</ele>
        <time>2015-10-18T23:39:47Z</time>
      </trkpt>
      <trkpt lat="45.93995" lon="2.892">
        <ele>686</ele>
        <time>2015-10-18T23:41:47Z</time>
      </trkpt>
      <trkpt lat="45.93976" lon="2.89227">
        <ele>687</ele>
        <time>2015-10-18T23:43:47Z</time>
      </trkpt>
      <trkpt lat="45.93943" lon="2.89256">
        <ele>691</ele>
        <time>2015-10-18T23:45:47Z</time>
      </trkpt>
      <trkpt lat="45.93922" lon="2.89282">
        <ele>694</ele>
        <time>2015-10-18T23:47:47Z</time>
      </trkpt>
      <trkpt lat="45.93896" lon="2.89337">
        <ele>700</ele>
        <time>2015-10-18T23:49:47Z</time>
      </trkpt>
      <trkpt lat="45.93873" lon="2.89407">
        <ele>707</ele>
        <time>2015-10-18T23:51:47Z</time>
      </trkpt>
      <trkpt lat="45.93847" lon="2.89481">
        <ele>712</ele>
        <time>2015-10-18T23:53:47Z</time>
      </trkpt>
      <trkpt lat="45.93826" lon="2.89472">
        <ele>713</ele>
        <time>2015-10-18T23:55:47Z</time>
      </trkpt>
      <trkpt lat="45.93758" lon="2.89493">
        <ele>717</ele>
        <time>2015-10-18T23:57:47Z</time>
      </trkpt>
      <trkpt lat="45.937" lon="2.89532">
        <ele>721</ele>
        <time>2015-10-18T23:59:47Z</time>
      </trkpt>
      <trkpt lat="45.93655" lon="2.89553">
        <ele>724</ele>
        <time>2015-10-19T00:01:47Z</time>
      </trkpt>
      <trkpt lat="45.93614" lon="2.89574">
        <ele>726</ele>
        <time>2015-10-19T00:03:47Z</time>
      </trkpt>
      <trkpt lat="45.93582" lon="2.89583">
        <ele>727</ele>
        <time>2015-10-19T00:05:47Z</time>
      </trkpt>
      <trkpt lat="45.93531" lon="2.89588">
        <ele>729</ele>
        <time>2015-10-19T00:07:47Z</time>
      </trkpt>
      <trkpt lat="45.93503" lon="2.89605">
        <ele>730</ele>
        <time>2015-10-19T00:09:47Z</time>
      </trkpt>
      <trkpt lat="45.93498" lon="2.89627">
        <ele>730</ele>
        <time>2015-10-19T00:11:47Z</time>
      </trkpt>
      <trkpt lat="45.93489" lon="2.89655">
        <ele>729</ele>
        <time>2015-10-19T00:13:47Z</time>
      </trkpt>
      <trkpt lat="45.93471" lon="2.89673">
        <ele>729</ele>
        <time>2015-10-19T00:15:47Z</time>
      </trkpt>
      <trkpt lat="45.93452" lon="2.89693">
        <ele>728</ele>
        <time>2015-10-19T00:17:47Z</time>
      </trkpt>
      <trkpt lat="45.93435" lon="2.89718">
        <ele>725</ele>
        <time>2015-10-19T00:19:47Z</time>
      </trkpt>
      <trkpt lat="45.93417" lon="2.89746">
        <ele>721</ele>
        <time>2015-10-19T00:21:47Z</time>
      </trkpt>
      <trkpt lat="45.93373" lon="2.89747">
        <ele>720</ele>
        <time>2015-10-19T00:23:47Z</time>
      </trkpt>
      <trkpt lat="45.93322" lon="2.89756">
        <ele>718</ele>
        <time>2015-10-19T00:25:47Z</time>
      </trkpt>
      <trkpt lat="45.93306" lon="2.89801">
        <ele>718</ele>
        <time>2015-10-19T00:27:47Z</time>
      </trkpt>
      <trkpt lat="45.93251" lon="2.89802">
        <ele>723</ele>
        <time>2015-10-19T00:29:47Z</time>
      </trkpt>
      <trkpt lat="45.93209" lon="2.89819">
        <ele>727</ele>
        <time>2015-10-19T00:31:47Z</time>
      </trkpt>
      <trkpt lat="45.93167" lon="2.89833">
        <ele>731</ele>
        <time>2015-10-19T00:33:47Z</time>
      </trkpt>
      <trkpt lat="45.93132" lon="2.89847">
        <ele>735</ele>
        <time>2015-10-19T00:35:47Z</time>
      </trkpt>
      <trkpt lat="45.93081" lon="2.89869">
        <ele>741</ele>
        <time>2015-10-19T00:37:47Z</time>
      </trkpt>
      <trkpt lat="45.93056" lon="2.8989">
        <ele>745</ele>
        <time>2015-10-19T00:39:47Z</time>
      </trkpt>
      <trkpt lat="45.92998" lon="2.89921">
        <ele>749</ele>
        <time>2015-10-19T00:41:47Z</time>
      </trkpt>
      <trkpt lat="45.9296" lon="2.89944">
        <ele>751</ele>
        <time>2015-10-19T00:43:47Z</time>
      </trkpt>
      <trkpt lat="45.92928" lon="2.89978">
        <ele>753</ele>
        <time>2015-10-19T00:45:47Z</time>
      </trkpt>
      <trkpt lat="45.92909" lon="2.89994">
        <ele>755</ele>
        <time>2015-10-19T00:47:47Z</time>
      </trkpt>
      <trkpt lat="45.92921" lon="2.9002">
        <ele>758</ele>
        <time>2015-10-19T00:49:47Z</time>
      </trkpt>
      <trkpt lat="45.92934" lon="2.90038">
        <ele>762</ele>
        <time>2015-10-19T00:51:47Z</time>
      </trkpt>
      <trkpt lat="45.92952" lon="2.90043">
        <ele>763</ele>
        <time>2015-10-19T00:53:47Z</time>
      </trkpt>
      <trkpt lat="45.92975" lon="2.90044">
        <ele>764</ele>
        <time>2015-10-19T00:55:47Z</time>
      </trkpt>
      <trkpt lat="45.92988" lon="2.90057">
        <ele>766</ele>
        <time>2015-10-19T00:57:47Z</time>
      </trkpt>
      <trkpt lat="45.92994" lon="2.90074">
        <ele>769</ele>
        <time>2015-10-19T00:59:47Z</time>
      </trkpt>
      <trkpt lat="45.92988" lon="2.90099">
        <ele>773</ele>
        <time>2015-10-19T01:01:47Z</time>
      </trkpt>
      <trkpt lat="45.92981" lon="2.9014">
        <ele>781</ele>
        <time>2015-10-19T01:03:47Z</time>
      </trkpt>
      <trkpt lat="45.9297" lon="2.90164">
        <ele>785</ele>
        <time>2015-10-19T01:05:47Z</time>
      </trkpt>
      <trkpt lat="45.92975" lon="2.90183">
        <ele>789</ele>
        <time>2015-10-19T01:07:47Z</time>
      </trkpt>
      <trkpt lat="45.92984" lon="2.90186">
        <ele>790</ele>
        <time>2015-10-19T01:09:47Z</time>
      </trkpt>
      <trkpt lat="45.92985" lon="2.90204">
        <ele>794</ele>
        <time>2015-10-19T01:11:47Z</time>
      </trkpt>
      <trkpt lat="45.9297" lon="2.90218">
        <ele>797</ele>
        <time>2015-10-19T01:13:47Z</time>
      </trkpt>
      <trkpt lat="45.92955" lon="2.90241">
        <ele>802</ele>
        <time>2015-10-19T01:15:47Z</time>
      </trkpt>
      <trkpt lat="45.92976" lon="2.90237">
        <ele>802</ele>
        <time>2015-10-19T01:17:47Z</time>
      </trkpt>
      <trkpt lat="45.93015" lon="2.90239">
        <ele>803</ele>
        <time>2015-10-19T01:19:47Z</time>
      </trkpt>
      <trkpt lat="45.93035" lon="2.90256">
        <ele>805</ele>
        <time>2015-10-19T01:21:47Z</time>
      </trkpt>
      <trkpt lat="45.93041" lon="2.9028">
        <ele>806</ele>
        <time>2015-10-19T01:23:47Z</time>
      </trkpt>
      <trkpt lat="45.93044" lon="2.90317">
        <ele>808</ele>
        <time>2015-10-19T01:25:47Z</time>
      </trkpt>
      <trkpt lat="45.93049" lon="2.90372">
        <ele>808</ele>
        <time>2015-10-19T01:27:47Z</time>
      </trkpt>
      <trkpt lat="45.93097" lon="2.90397">
        <ele>804</ele>
        <time>2015-10-19T01:29:47Z</time>
      </trkpt>
      <trkpt lat="45.93132" lon="2.90404">
        <ele>799</ele>
        <time>2015-10-19T01:31:47Z</time>
      </trkpt>
      <trkpt lat="45.93159" lon="2.90404">
        <ele>797</ele>
        <time>2015-10-19T01:33:47Z</time>
      </trkpt>
      <trkpt lat="45.93236" lon="2.90441">
        <ele>780</ele>
        <time>2015-10-19T01:35:47Z</time>
      </trkpt>
      <trkpt lat="45.93281" lon="2.90467">
        <ele>769</ele>
        <time>2015-10-19T01:37:47Z</time>
      </trkpt>
      <trkpt lat="45.93293" lon="2.90487">
        <ele>766</ele>
        <time>2015-10-19T01:39:47Z</time>
      </trkpt>
      <trkpt lat="45.93282" lon="2.9051">
        <ele>768</ele>
        <time>2015-10-19T01:41:47Z</time>
      </trkpt>
      <trkpt lat="45.93253" lon="2.90553">
        <ele>774</ele>
        <time>2015-10-19T01:43:47Z</time>
      </trkpt>
      <trkpt lat="45.93227" lon="2.90588">
        <ele>778</ele>
        <time>2015-10-19T01:45:47Z</time>
      </trkpt>
      <trkpt lat="45.93214" lon="2.90622">
        <ele>781</ele>
        <time>2015-10-19T01:47:47Z</time>
      </trkpt>
      <trkpt lat="45.93203" lon="2.90655">
        <ele>784</ele>
        <time>2015-10-19T01:49:47Z</time>
      </trkpt>
      <trkpt lat="45.93187" lon="2.90664">
        <ele>788</ele>
        <time>2015-10-19T01:51:47Z</time>
      </trkpt>
      <trkpt lat="45.93147" lon="2.9065">
        <ele>795</ele>
        <time>2015-10-19T01:53:47Z</time>
      </trkpt>
      <trkpt lat="45.93121" lon="2.90636">
        <ele>798</ele>
        <time>2015-10-19T01:55:47Z</time>
      </trkpt>
      <trkpt lat="45.93101" lon="2.90644">
        <ele>802</ele>
        <time>2015-10-19T01:57:47Z</time>
      </trkpt>
      <trkpt lat="45.9309" lon="2.90659">
        <ele>805</ele>
        <time>2015-10-19T01:59:47Z</time>
      </trkpt>
      <trkpt lat="45.93082" lon="2.90691">
        <ele>807</ele>
        <time>2015-10-19T02:01:47Z</time>
      </trkpt>
      <trkpt lat="45.93076" lon="2.90731">
        <ele>808</ele>
        <time>2015-10-19T02:03:47Z</time>
      </trkpt>
      <trkpt lat="45.93062" lon="2.90788">
        <ele>808</ele>
        <time>2015-10-19T02:05:47Z</time>
      </trkpt>
      <trkpt lat="45.93044" lon="2.90824">
        <ele>810</ele>
        <time>2015-10-19T02:07:47Z</time>
      </trkpt>
      <trkpt lat="45.93032" lon="2.90853">
        <ele>811</ele>
        <time>2015-10-19T02:09:47Z</time>
      </trkpt>
      <trkpt lat="45.93023" lon="2.9089">
        <ele>813</ele>
        <time>2015-10-19T02:11:47Z</time>
      </trkpt>
      <trkpt lat="45.93017" lon="2.9093">
        <ele>815</ele>
        <time>2015-10-19T02:13:47Z</time>
      </trkpt>
      <trkpt lat="45.93012" lon="2.90958">
        <ele>817</ele>
        <time>2015-10-19T02:15:47Z</time>
      </trkpt>
      <trkpt lat="45.93016" lon="2.90994">
        <ele>818</ele>
        <time>2015-10-19T02:17:47Z</time>
      </trkpt>
      <trkpt lat="45.93027" lon="2.91029">
        <ele>814</ele>
        <time>2015-10-19T02:19:47Z</time>
      </trkpt>
      <trkpt lat="45.93035" lon="2.91071">
        <ele>810</ele>
        <time>2015-10-19T02:21:47Z</time>
      </trkpt>
      <trkpt lat="45.93127" lon="2.91078">
        <ele>787</ele>
        <time>2015-10-19T02:23:47Z</time>
      </trkpt>
      <trkpt lat="45.93152" lon="2.91083">
        <ele>781</ele>
        <time>2015-10-19T02:25:47Z</time>
      </trkpt>
      <trkpt lat="45.93183" lon="2.91084">
        <ele>772</ele>
        <time>2015-10-19T02:27:47Z</time>
      </trkpt>
      <trkpt lat="45.93254" lon="2.91087">
        <ele>753</ele>
        <time>2015-10-19T02:29:47Z</time>
      </trkpt>
      <trkpt lat="45.93282" lon="2.91088">
        <ele>747</ele>
        <time>2015-10-19T02:31:47Z</time>
      </trkpt>
      <trkpt lat="45.93292" lon="2.91098">
        <ele>745</ele>
        <time>2015-10-19T02:33:47Z</time>
      </trkpt>
      <trkpt lat="45.93302" lon="2.91118">
        <ele>743</ele>
        <time>2015-10-19T02:35:47Z</time>
      </trkpt>
      <trkpt lat="45.93314" lon="2.91134">
        <ele>740</ele>
        <time>2015-10-19T02:37:47Z</time>
      </trkpt>
      <trkpt lat="45.93343" lon="2.91139">
        <ele>738</ele>
        <time>2015-10-19T02:39:47Z</time>
      </trkpt>
      <trkpt lat="45.93345" lon="2.91177">
        <ele>739</ele>
        <time>2015-10-19T02:41:47Z</time>
      </trkpt>
      <trkpt lat="45.93342" lon="2.91228">
        <ele>739</ele>
        <time>2015-10-19T02:43:47Z</time>
      </trkpt>
      <trkpt lat="45.93341" lon="2.91274">
        <ele>740</ele>
        <time>2015-10-19T02:45:47Z</time>
      </trkpt>
      <trkpt lat="45.93341" lon="2.91312">
        <ele>742</ele>
        <time>2015-10-19T02:47:47Z</time>
      </trkpt>
      <trkpt lat="45.93329" lon="2.91379">
        <ele>744</ele>
        <time>2015-10-19T02:49:47Z</time>
      </trkpt>
      <trkpt lat="45.93333" lon="2.91419">
        <ele>745</ele>
        <time>2015-10-19T02:51:47Z</time>
      </trkpt>
      <trkpt lat="45.93338" lon="2.91435">
        <ele>747</ele>
        <time>2015-10-19T02:53:47Z</time>
      </trkpt>
      <trkpt lat="45.93356" lon="2.91413">
        <ele>749</ele>
        <time>2015-10-19T02:55:47Z</time>
      </trkpt>
      <trkpt lat="45.93373" lon="2.91408">
        <ele>752</ele>
        <time>2015-10-19T02:57:47Z</time>
      </trkpt>
      <trkpt lat="45.93405" lon="2.91426">
        <ele>759</ele>
        <time>2015-10-19T02:59:47Z</time>
      </trkpt>
      <trkpt lat="45.93438" lon="2.91449">
        <ele>764</ele>
        <time>2015-10-19T03:01:47Z</time>
      </trkpt>
      <trkpt lat="45.9351" lon="2.91445">
        <ele>776</ele>
        <time>2015-10-19T03:03:47Z</time>
      </trkpt>
      <trkpt lat="45.93535" lon="2.91445">
        <ele>779</ele>
        <time>2015-10-19T03:05:47Z</time>
      </trkpt>
      <trkpt lat="45.93567" lon="2.91437">
        <ele>783</ele>
        <time>2015-10-19T03:07:47Z</time>
      </trkpt>
      <trkpt lat="45.93619" lon="2.91424">
        <ele>790</ele>
        <time>2015-10-19T03:09:47Z</time>
      </trkpt>
      <trkpt lat="45.93629" lon="2.91429">
        <ele>792</ele>
        <time>2015-10-19T03:11:47Z</time>
      </trkpt>
      <trkpt lat="45.93639" lon="2.91453">
        <ele>796</ele>
        <time>2015-10-19T03:13:47Z</time>
      </trkpt>
      <trkpt lat="45.93655" lon="2.9144">
        <ele>797</ele>
        <time>2015-10-19T03:15:47Z</time>
      </trkpt>
      <trkpt lat="45.93683" lon="2.91423">
        <ele>798</ele>
        <time>2015-10-19T03:17:47Z</time>
      </trkpt>
      <trkpt lat="45.93715" lon="2.91407">
        <ele>798</ele>
        <time>2015-10-19T03:19:47Z</time>
      </trkpt>
      <trkpt lat="45.93761" lon="2.9139">
        <ele>799</ele>
        <time>2015-10-19T03:21:47Z</time>
      </trkpt>
      <trkpt lat="45.93782" lon="2.91378">
        <ele>798</ele>
        <time>2015-10-19T03:23:47Z</time>
      </trkpt>
      <trkpt lat="45.93802" lon="2.91389">
        <ele>800</ele>
        <time>2015-10-19T03:25:47Z</time>
      </trkpt>
      <trkpt lat="45.93838" lon="2.91411">
        <ele>804</ele>
        <time>2015-10-19T03:27:47Z</time>
      </trkpt>
      <trkpt lat="45.93857" lon="2.91421">
        <ele>805</ele>
        <time>2015-10-19T03:29:47Z</time>
      </trkpt>
      <trkpt lat="45.93882" lon="2.91434">
        <ele>807</ele>
        <time>2015-10-19T03:31:47Z</time>
      </trkpt>
      <trkpt lat="45.93902" lon="2.91439">
        <ele>807</ele>
        <time>2015-10-19T03:33:47Z</time>
      </trkpt>
      <trkpt lat="45.93914" lon="2.9144">
        <ele>807</ele>
        <time>2015-10-19T03:35:47Z</time>
      </trkpt>
      <trkpt lat="45.9394" lon="2.91469">
        <ele>810</ele>
        <time>2015-10-19T03:37:47Z</time>
      </trkpt>
      <trkpt lat="45.93956" lon="2.91486">
        <ele>811</ele>
        <time>2015-10-19T03:39:47Z</time>
      </trkpt>
      <trkpt lat="45.93974" lon="2.91536">
        <ele>810</ele>
        <time>2015-10-19T03:41:47Z</time>
      </trkpt>
      <trkpt lat="45.93952" lon="2.91566">
        <ele>812</ele>
        <time>2015-10-19T03:43:47Z</time>
      </trkpt>
      <trkpt lat="45.93896" lon="2.91559">
        <ele>814</ele>
        <time>2015-10-19T03:45:47Z</time>
      </trkpt>
      <trkpt lat="45.9388" lon="2.91583">
        <ele>815</ele>
        <time>2015-10-19T03:47:47Z</time>
      </trkpt>
      <trkpt lat="45.93863" lon="2.91644">
        <ele>818</ele>
        <time>2015-10-19T03:49:47Z</time>
      </trkpt>
      <trkpt lat="45.93861" lon="2.91692">
        <ele>820</ele>
        <time>2015-10-19T03:51:47Z</time>
      </trkpt>
      <trkpt lat="45.93866" lon="2.91735">
        <ele>821</ele>
        <time>2015-10-19T03:53:47Z</time>
      </trkpt>
      <trkpt lat="45.93872" lon="2.91784">
        <ele>822</ele>
        <time>2015-10-19T03:55:47Z</time>
      </trkpt>
      <trkpt lat="45.93877" lon="2.91822">
        <ele>823</ele>
        <time>2015-10-19T03:57:47Z</time>
      </trkpt>
      <trkpt lat="45.93855" lon="2.91923">
        <ele>828</ele>
        <time>2015-10-19T03:59:47Z</time>
      </trkpt>
      <trkpt lat="45.93838" lon="2.91978">
        <ele>830</ele>
        <time>2015-10-19T04:01:47Z</time>
      </trkpt>
      <trkpt lat="45.93822" lon="2.92032">
        <ele>830</ele>
        <time>2015-10-19T04:03:47Z</time>
      </trkpt>
      <trkpt lat="45.93811" lon="2.92088">
        <ele>830</ele>
        <time>2015-10-19T04:05:47Z</time>
      </trkpt>
      <trkpt lat="45.93816" lon="2.92129">
        <ele>831</ele>
        <time>2015-10-19T04:07:47Z</time>
      </trkpt>
      <trkpt lat="45.93821" lon="2.92174">
        <ele>833</ele>
        <time>2015-10-19T04:09:47Z</time>
      </trkpt>
      <trkpt lat="45.93815" lon="2.92277">
        <ele>837</ele>
        <time>2015-10-19T04:11:47Z</time>
      </trkpt>
      <trkpt lat="45.93802" lon="2.92317">
        <ele>838</ele>
        <time>2015-10-19T04:13:47Z</time>
      </trkpt>
      <trkpt lat="45.93795" lon="2.92342">
        <ele>838</ele>
        <time>2015-10-19T04:15:47Z</time>
      </trkpt>
      <trkpt lat="45.93906" lon="2.9242">
        <ele>836</ele>
        <time>2015-10-19T04:17:47Z</time>
      </trkpt>
      <trkpt lat="45.93932" lon="2.92429">
        <ele>834</ele>
        <time>2015-10-19T04:19:47Z</time>
      </trkpt>
      <trkpt lat="45.93969" lon="2.92447">
        <ele>831</ele>
        <time>2015-10-19T04:21:47Z</time>
      </trkpt>
      <trkpt lat="45.9401" lon="2.92469">
        <ele>829</ele>
        <time>2015-10-19T04:23:47Z</time>
      </trkpt>
      <trkpt lat="45.94134" lon="2.9256">
        <ele>820</ele>
        <time>2015-10-19T04:25:47Z</time>
      </trkpt>
      <trkpt lat="45.94205" lon="2.92605">
        <ele>810</ele>
        <time>2015-10-19T04:27:47Z</time>
      </trkpt>
      <trkpt lat="45.9423" lon="2.92617">
        <ele>808</ele>
        <time>2015-10-19T04:29:47Z</time>
      </trkpt>
      <trkpt lat="45.94283" lon="2.92629">
        <ele>803</ele>
        <time>2015-10-19T04:31:47Z</time>
      </trkpt>
      <trkpt lat="45.94339" lon="2.92635">
        <ele>798</ele>
        <time>2015-10-19T04:33:47Z</time>
      </trkpt>
      <trkpt lat="45.94446" lon="2.92659">
        <ele>783</ele>
        <time>2015-10-19T04:35:47Z</time>
      </trkpt>
      <trkpt lat="45.94492" lon="2.92667">
        <ele>775</ele>
        <time>2015-10-19T04:37:47Z</time>
      </trkpt>
      <trkpt lat="45.94541" lon="2.92665">
        <ele>769</ele>
        <time>2015-10-19T04:39:47Z</time>
      </trkpt>
      <trkpt lat="45.94661" lon="2.92671">
        <ele>756</ele>
        <time>2015-10-19T04:41:47Z</time>
      </trkpt>
      <trkpt lat="45.94687" lon="2.92658">
        <ele>752</ele>
        <time>2015-10-19T04:43:47Z</time>
      </trkpt>
      <trkpt lat="45.94711" lon="2.9266">
        <ele>749</ele>
        <time>2015-10-19T04:45:47Z</time>
      </trkpt>
      <trkpt lat="45.94746" lon="2.92677">
        <ele>746</ele>
        <time>2015-10-19T04:47:47Z</time>
      </trkpt>
      <trkpt lat="45.94776" lon="2.92699">
        <ele>743</ele>
        <time>2015-10-19T04:49:47Z</time>
      </trkpt>
      <trkpt lat="45.94807" lon="2.92723">
        <ele>741</ele>
        <time>2015-10-19T04:51:47Z</time>
      </trkpt>
      <trkpt lat="45.94833" lon="2.92776">
        <ele>739</ele>
        <time>2015-10-19T04:53:47Z</time>
      </trkpt>
      <trkpt lat="45.94861" lon="2.92824">
        <ele>736</ele>
        <time>2015-10-19T04:55:47Z</time>
      </trkpt>
      <trkpt lat="45.94903" lon="2.9287">
        <ele>731</ele>
        <time>2015-10-19T04:57:47Z</time>
      </trkpt>
      <trkpt lat="45.94918" lon="2.9285">
        <ele>728</ele>
        <time>2015-10-19T04:59:47Z</time>
      </trkpt>
      <trkpt lat="45.9493" lon="2.92799">
        <ele>728</ele>
        <time>2015-10-19T05:01:47Z</time>
      </trkpt>
      <trkpt lat="45.94941" lon="2.92738">
        <ele>729</ele>
        <time>2015-10-19T05:03:47Z</time>
      </trkpt>
      <trkpt lat="45.94946" lon="2.92706">
        <ele>729</ele>
        <time>2015-10-19T05:05:47Z</time>
      </trkpt>
      <trkpt lat="45.94899" lon="2.92513">
        <ele>734</ele>
        <time>2015-10-19T05:07:47Z</time>
      </trkpt>
      <trkpt lat="45.94871" lon="2.92387">
        <ele>731</ele>
        <time>2015-10-19T05:09:47Z</time>
      </trkpt>
      <trkpt lat="45.94878" lon="2.92367">
        <ele>731</ele>
        <time>2015-10-19T05:11:47Z</time>
      </trkpt>
      <trkpt lat="45.94873" lon="2.92337">
        <ele>730</ele>
        <time>2015-10-19T05:13:47Z</time>
      </trkpt>
      <trkpt lat="45.94864" lon="2.92276">
        <ele>730</ele>
        <time>2015-10-19T05:15:47Z</time>
      </trkpt>
      <trkpt lat="45.94857" lon="2.92248">
        <ele>730</ele>
        <time>2015-10-19T05:17:47Z</time>
      </trkpt>
      <trkpt lat="45.9486" lon="2.9222">
        <ele>729</ele>
        <time>2015-10-19T05:19:47Z</time>
      </trkpt>
      <trkpt lat="45.94872" lon="2.92177">
        <ele>729</ele>
        <time>2015-10-19T05:21:47Z</time>
      </trkpt>
      <trkpt lat="45.94865" lon="2.92138">
        <ele>729</ele>
        <time>2015-10-19T05:23:47Z</time>
      </trkpt>
      <trkpt lat="45.94851" lon="2.92085">
        <ele>731</ele>
        <time>2015-10-19T05:25:47Z</time>
      </trkpt>
      <trkpt lat="45.94828" lon="2.92041">
        <ele>733</ele>
        <time>2015-10-19T05:27:47Z</time>
      </trkpt>
      <trkpt lat="45.94821" lon="2.92015">
        <ele>734</ele>
        <time>2015-10-19T05:29:47Z</time>
      </trkpt>
      <trkpt lat="45.94823" lon="2.91971">
        <ele>735</ele>
        <time>2015-10-19T05:31:47Z</time>
      </trkpt>
      <trkpt lat="45.94828" lon="2.9193">
        <ele>735</ele>
        <time>2015-10-19T05:33:47Z</time>
      </trkpt>
      <trkpt lat="45.94834" lon="2.91857">
        <ele>733</ele>
        <time>2015-10-19T05:35:47Z</time>
      </trkpt>
      <trkpt lat="45.9483" lon="2.9182">
        <ele>731</ele>
        <time>2015-10-19T05:37:47Z</time>
      </trkpt>
      <trkpt lat="45.94825" lon="2.91778">
        <ele>728</ele>
        <time>2015-10-19T05:39:47Z</time>
      </trkpt>
      <trkpt lat="45.94833" lon="2.91745">
        <ele>726</ele>
        <time>2015-10-19T05:41:47Z</time>
      </trkpt>
      <trkpt lat="45.94837" lon="2.91714">
        <ele>724</ele>
        <time>2015-10-19T05:43:47Z</time>
      </trkpt>
      <trkpt lat="45.94839" lon="2.91666">
        <ele>722</ele>
        <time>2015-10-19T05:45:47Z</time>
      </trkpt>
      <trkpt lat="45.94842" lon="2.91608">
        <ele>718</ele>
        <time>2015-10-19T05:47:47Z</time>
      </trkpt>
      <trkpt lat="45.94848" lon="2.91577">
        <ele>715</ele>
        <time>2015-10-19T05:49:47Z</time>
      </trkpt>
      <trkpt lat="45.94857" lon="2.91545">
        <ele>712</ele>
        <time>2015-10-19T05:51:47Z</time>
      </trkpt>
      <trkpt lat="45.94875" lon="2.91511">
        <ele>708</ele>
        <time>2015-10-19T05:53:47Z</time>
      </trkpt>
      <trkpt lat="45.94892" lon="2.91482">
        <ele>706</ele>
        <time>2015-10-19T05:55:47Z</time>
      </trkpt>
      <trkpt lat="45.94917" lon="2.9148">
        <ele>704</ele>
        <time>2015-10-19T05:57:47Z</time>
      </trkpt>
      <trkpt lat="45.9494" lon="2.91476">
        <ele>702</ele>
        <time>2015-10-19T05:59:47Z</time>
      </trkpt>
      <trkpt lat="45.94954" lon="2.91461">
        <ele>701</ele>
        <time>2015-10-19T06:01:47Z</time>
      </trkpt>
      <trkpt lat="45.94965" lon="2.91438">
        <ele>701</ele>
        <time>2015-10-19T06:03:47Z</time>
      </trkpt>
      <trkpt lat="45.94978" lon="2.91402">
        <ele>701</ele>
        <time>2015-10-19T06:05:47Z</time>
      </trkpt>
      <trkpt lat="45.94984" lon="2.91377">
        <ele>701</ele>
        <time>2015-10-19T06:07:47Z</time>
      </trkpt>
      <trkpt lat="45.94988" lon="2.9134">
        <ele>701</ele>
        <time>2015-10-19T06:09:47Z</time>
      </trkpt>
      <trkpt lat="45.94991" lon="2.91301">
        <ele>699</ele>
        <time>2015-10-19T06:11:47Z</time>
      </trkpt>
      <trkpt lat="45.94988" lon="2.91278">
        <ele>698</ele>
        <time>2015-10-19T06:13:47Z</time>
      </trkpt>
      <trkpt lat="45.94983" lon="2.91247">
        <ele>698</ele>
        <time>2015-10-19T06:15:47Z</time>
      </trkpt>
      <trkpt lat="45.94983" lon="2.91221">
        <ele>698</ele>
        <time>2015-10-19T06:17:47Z</time>
      </trkpt>
      <trkpt lat="45.94988" lon="2.91206">
        <ele>697</ele>
        <time>2015-10-19T06:19:47Z</time>
      </trkpt>
      <trkpt lat="45.94995" lon="2.91192">
        <ele>697</ele>
        <time>2015-10-19T06:21:47Z</time>
      </trkpt>
      <trkpt lat="45.9501" lon="2.91184">
        <ele>696</ele>
        <time>2015-10-19T06:23:47Z</time>
      </trkpt>
      <trkpt lat="45.95022" lon="2.91169">
        <ele>696</ele>
        <time>2015-10-19T06:25:47Z</time>
      </trkpt>
      <trkpt lat="45.95031" lon="2.91143">
        <ele>697</ele>
        <time>2015-10-19T06:27:47Z</time>
      </trkpt>
      <trkpt lat="45.95041" lon="2.91055">
        <ele>701</ele>
        <time>2015-10-19T06:29:47Z</time>
      </trkpt>
      <trkpt lat="45.95045" lon="2.91007">
        <ele>701</ele>
        <time>2015-10-19T06:31:47Z</time>
      </trkpt>
      <trkpt lat="45.95045" lon="2.90953">
        <ele>700</ele>
        <time>2015-10-19T06:33:47Z</time>
      </trkpt>
      <trkpt lat="45.95054" lon="2.90919">
        <ele>698</ele>
        <time>2015-10-19T06:35:47Z</time>
      </trkpt>
      <trkpt lat="45.95066" lon="2.90891">
        <ele>697</ele>
        <time>2015-10-19T06:37:47Z</time>
      </trkpt>
      <trkpt lat="45.95083" lon="2.90855">
        <ele>695</ele>
        <time>2015-10-19T06:39:47Z</time>
      </trkpt>
      <trkpt lat="45.95104" lon="2.90825">
        <ele>693</ele>
        <time>2015-10-19T06:41:47Z</time>
      </trkpt>
      <trkpt lat="45.95124" lon="2.90801">
        <ele>691</ele>
        <time>2015-10-19T06:43:47Z</time>
      </trkpt>
      <trkpt lat="45.95144" lon="2.90774">
        <ele>689</ele>
        <time>2015-10-19T06:45:47Z</time>
      </trkpt>
      <trkpt lat="45.95154" lon="2.90751">
        <ele>688</ele>
        <time>2015-10-19T06:47:47Z</time>
      </trkpt>
      <trkpt lat="45.95171" lon="2.90697">
        <ele>683</ele>
        <time>2015-10-19T06:49:47Z</time>
      </trkpt>
      <trkpt lat="45.95192" lon="2.90644">
        <ele>678</ele>
        <time>2015-10-19T06:51:47Z</time>
      </trkpt>
      <trkpt lat="45.95202" lon="2.90617">
        <ele>675</ele>
        <time>2015-10-19T06:53:47Z</time>
      </trkpt>
      <trkpt lat="45.95212" lon="2.9058">
        <ele>670</ele>
        <time>2015-10-19T06:55:47Z</time>
      </trkpt>
      <trkpt lat="45.95218" lon="2.90558">
        <ele>668</ele>
        <time>2015-10-19T06:57:47Z</time>
      </trkpt>
      <trkpt lat="45.95214" lon="2.90523">
        <ele>665</ele>
        <time>2015-10-19T06:59:47Z</time>
      </trkpt>
      <trkpt lat="45.9521" lon="2.90496">
        <ele>663</ele>
        <time>2015-10-19T07:01:47Z</time>
      </trkpt>
      <trkpt lat="45.95204" lon="2.90456">
        <ele>662</ele>
        <time>2015-10-19T07:03:47Z</time>
      </trkpt>
      <trkpt lat="45.95192" lon="2.90428">
        <ele>662</ele>
        <time>2015-10-19T07:05:47Z</time>
      </trkpt>
      <trkpt lat="45.95145" lon="2.90366">
        <ele>663</ele>
        <time>2015-10-19T07:07:47Z</time>
      </trkpt>
      <trkpt lat="45.9513" lon="2.90345">
        <ele>663</ele>
        <time>2015-10-19T07:09:47Z</time>
      </trkpt>
      <trkpt lat="45.95119" lon="2.90326">
        <ele>663</ele>
        <time>2015-10-19T07:11:47Z</time>
      </trkpt>
      <trkpt lat="45.95113" lon="2.90294">
        <ele>662</ele>
        <time>2015-10-19T07:13:47Z</time>
      </trkpt>
      <trkpt lat="45.9511" lon="2.90281">
        <ele>661</ele>
        <time>2015-10-19T07:15:47Z</time>
      </trkpt>
      <trkpt lat="45.95106" lon="2.90267">
        <ele>661</ele>
        <time>2015-10-19T07:17:47Z</time>
      </trkpt>
      <trkpt lat="45.95091" lon="2.90245">
        <ele>661</ele>
        <time>2015-10-19T07:19:47Z</time>
      </trkpt>
      <trkpt lat="45.95082" lon="2.90215">
        <ele>661</ele>
        <time>2015-10-19T07:21:47Z</time>
      </trkpt>
      <trkpt lat="45.95074" lon="2.90183">
        <ele>661</ele>
        <time>2015-10-19T07:23:47Z</time>
      </trkpt>
      <trkpt lat="45.9506" lon="2.9015">
        <ele>663</ele>
        <time>2015-10-19T07:25:47Z</time>
      </trkpt>
      <trkpt lat="45.95054" lon="2.90144">
        <ele>663</ele>
        <time>2015-10-19T07:27:47Z</time>
      </trkpt>
      <trkpt lat="45.95107" lon="2.90064">
        <ele>671</ele>
        <time>2015-10-19T07:29:47Z</time>
      </trkpt>
      <trkpt lat="45.95134" lon="2.90011">
        <ele>676</ele>
        <time>2015-10-19T07:31:47Z</time>
      </trkpt>
      <trkpt lat="45.9515" lon="2.89985">
        <ele>678</ele>
        <time>2015-10-19T07:33:47Z</time>
      </trkpt>
      <trkpt lat="45.95162" lon="2.89979">
        <ele>679</ele>
        <time>2015-10-19T07:35:47Z</time>
      </trkpt>
      <trkpt lat="45.95171" lon="2.89971">
        <ele>679</ele>
        <time>2015-10-19T07:37:47Z</time>
      </trkpt>
      <trkpt lat="45.95174" lon="2.89951">
        <ele>679</ele>
        <time>2015-10-19T07:39:47Z</time>
      </trkpt>
      <trkpt lat="45.95177" lon="2.89938">
        <ele>680</ele>
        <time>2015-10-19T07:41:47Z</time>
      </trkpt>
      <trkpt lat="45.95167" lon="2.89921">
        <ele>681</ele>
        <time>2015-10-19T07:43:47Z</time>
      </trkpt>
      <trkpt lat="45.9516" lon="2.89892">
        <ele>681</ele>
        <time>2015-10-19T07:45:47Z</time>
      </trkpt>
      <trkpt lat="45.95166" lon="2.89831">
        <ele>682</ele>
        <time>2015-10-19T07:47:47Z</time>
      </trkpt>
      <trkpt lat="45.95171" lon="2.89764">
        <ele>682</ele>
        <time>2015-10-19T07:49:47Z</time>
      </trkpt>
      <trkpt lat="45.95184" lon="2.89693">
        <ele>681</ele>
        <time>2015-10-19T07:51:47Z</time>
      </trkpt>
      <trkpt lat="45.95196" lon="2.89652">
        <ele>681</ele>
        <time>2015-10-19T07:53:47Z</time>
      </trkpt>
      <trkpt lat="45.95218" lon="2.89594">
        <ele>680</ele>
        <time>2015-10-19T07:55:47Z</time>
      </trkpt>
      <trkpt lat="45.95253" lon="2.89525">
        <ele>678</ele>
        <time>2015-10-19T07:57:47Z</time>
      </trkpt>
      <trkpt lat="45.95288" lon="2.89459">
        <ele>676</ele>
        <time>2015-10-19T07:59:47Z</time>
      </trkpt>
      <trkpt lat="45.95303" lon="2.89428">
        <ele>675</ele>
        <time>2015-10-19T08:01:47Z</time>
      </trkpt>
      <trkpt lat="45.95311" lon="2.89415">
        <ele>674</ele>
        <time>2015-10-19T08:03:47Z</time>
      </trkpt>
      <trkpt lat="45.95297" lon="2.894">
        <ele>674</ele>
        <time>2015-10-19T08:05:47Z</time>
      </trkpt>
      <trkpt lat="45.95323" lon="2.89351">
        <ele>674</ele>
        <time>2015-10-19T08:07:47Z</time>
      </trkpt>
      <trkpt lat="45.95337" lon="2.89304">
        <ele>676</ele>
        <time>2015-10-19T08:09:47Z</time>
      </trkpt>
      <trkpt lat="45.95347" lon="2.89277">
        <ele>678</ele>
        <time>2015-10-19T08:11:47Z</time>
      </trkpt>
      <trkpt lat="45.95389" lon="2.89241">
        <ele>681</ele>
        <time>2015-10-19T08:13:47Z</time>
      </trkpt>
      <trkpt lat="45.95403" lon="2.89222">
        <ele>681</ele>
        <time>2015-10-19T08:15:47Z</time>
      </trkpt>
      <trkpt lat="45.95419" lon="2.89171">
        <ele>683</ele>
        <time>2015-10-19T08:17:47Z</time>
      </trkpt>
      <trkpt lat="45.95433" lon="2.89117">
        <ele>687</ele>
        <time>2015-10-19T08:19:47Z</time>
      </trkpt>
      <trkpt lat="45.95438" lon="2.89082">
        <ele>690</ele>
        <time>2015-10-19T08:21:47Z</time>
      </trkpt>
      <trkpt lat="45.95442" lon="2.89031">
        <ele>695</ele>
        <time>2015-10-19T08:23:47Z</time>
      </trkpt>
      <trkpt lat="45.95444" lon="2.88983">
        <ele>698</ele>
        <time>2015-10-19T08:25:47Z</time>
      </trkpt>
      <trkpt lat="45.95453" lon="2.88953">
        <ele>700</ele>
        <time>2015-10-19T08:27:47Z</time>
      </trkpt>
      <trkpt lat="45.9546" lon="2.88922">
        <ele>702</ele>
        <time>2015-10-19T08:29:47Z</time>
      </trkpt>
      <trkpt lat="45.95468" lon="2.8889">
        <ele>705</ele>
        <time>2015-10-19T08:31:47Z</time>
      </trkpt>
      <trkpt lat="45.95473" lon="2.88809">
        <ele>710</ele>
        <time>2015-10-19T08:33:47Z</time>
      </trkpt>
      <trkpt lat="45.9545" lon="2.888">
        <ele>709</ele>
        <time>2015-10-19T08:35:47Z</time>
      </trkpt>
      <trkpt lat="45.95422" lon="2.88803">
        <ele>708</ele>
        <time>2015-10-19T08:37:47Z</time>
      </trkpt>
      <trkpt lat="45.95386" lon="2.88802">
        <ele>706</ele>
        <time>2015-10-19T08:39:47Z</time>
      </trkpt>
      <trkpt lat="45.95372" lon="2.88802">
        <ele>705</ele>
        <time>2015-10-19T08:41:47Z</time>
      </trkpt>
      <trkpt lat="45.95349" lon="2.88798">
        <ele>704</ele>
        <time>2015-10-19T08:43:47Z</time>
      </trkpt>
      <trkpt lat="45.9533" lon="2.88795">
        <ele>703</ele>
        <time>2015-10-19T08:45:47Z</time>
      </trkpt>
      <trkpt lat="45.95312" lon="2.88786">
        <ele>702</ele>
        <time>2015-10-19T08:47:47Z</time>
      </trkpt>
      <trkpt lat="45.9528" lon="2.88756">
        <ele>703</ele>
        <time>2015-10-19T08:49:47Z</time>
      </trkpt>
      <trkpt lat="45.95275" lon="2.88736">
        <ele>704</ele>
        <time>2015-10-19T08:51:47Z</time>
      </trkpt>
      <trkpt lat="45.95275" lon="2.88687">
        <ele>706</ele>
        <time>2015-10-19T08:53:47Z</time>
      </trkpt>
      <trkpt lat="45.95271" lon="2.88649">
        <ele>707</ele>
        <time>2015-10-19T08:55:47Z</time>
      </trkpt>
      <trkpt lat="45.95265" lon="2.88592">
        <ele>708</ele>
        <time>2015-10-19T08:57:47Z</time>
      </trkpt>
      <trkpt lat="45.95273" lon="2.88571">
        <ele>709</ele>
        <time>2015-10-19T08:59:47Z</time>
      </trkpt>
      <trkpt lat="45.95282" lon="2.88546">
        <ele>711</ele>
        <time>2015-10-19T09:01:47Z</time>
      </trkpt>
      <trkpt lat="45.95294" lon="2.88521">
        <ele>713</ele>
        <time>2015-10-19T09:03:47Z</time>
      </trkpt>
      <trkpt lat="45.95303" lon="2.88515">
        <ele>713</ele>
        <time>2015-10-19T09:05:47Z</time>
      </trkpt>
      <trkpt lat="45.9531" lon="2.88505">
        <ele>714</ele>
        <time>2015-10-19T09:07:47Z</time>
      </trkpt>
      <trkpt lat="45.95317" lon="2.88477">
        <ele>715</ele>
        <time>2015-10-19T09:09:47Z</time>
      </trkpt>
      <trkpt lat="45.95332" lon="2.88409">
        <ele>718</ele>
        <time>2015-10-19T09:11:47Z</time>
      </trkpt>
      <trkpt lat="45.95342" lon="2.88358">
        <ele>721</ele>
        <time>2015-10-19T09:13:47Z</time>
      </trkpt>
      <trkpt lat="45.95346" lon="2.88299">
        <ele>725</ele>
        <time>2015-10-19T09:15:47Z</time>
      </trkpt>
      <trkpt lat="45.95345" lon="2.8824">
        <ele>730</ele>
        <time>2015-10-19T09:17:47Z</time>
      </trkpt>
      <trkpt lat="45.95337" lon="2.88192">
        <ele>735</ele>
        <time>2015-10-19T09:19:47Z</time>
      </trkpt>
      <trkpt lat="45.95338" lon="2.8813">
        <ele>740</ele>
        <time>2015-10-19T09:21:47Z</time>
      </trkpt>
      <trkpt lat="45.95335" lon="2.88101">
        <ele>742</ele>
        <time>2015-10-19T09:23:47Z</time>
      </trkpt>
      <trkpt lat="45.95333" lon="2.88075">
        <ele>744</ele>
        <time>2015-10-19T09:25:47Z</time>
      </trkpt>
      <trkpt lat="45.95333" lon="2.8803">
        <ele>746</ele>
        <time>2015-10-19T09:27:47Z</time>
      </trkpt>
      <trkpt lat="45.95327" lon="2.87998">
        <ele>748</ele>
        <time>2015-10-19T09:29:47Z</time>
      </trkpt>
      <trkpt lat="45.95314" lon="2.87975">
        <ele>750</ele>
        <time>2015-10-19T09:31:47Z</time>
      </trkpt>
      <trkpt lat="45.95306" lon="2.87951">
        <ele>752</ele>
        <time>2015-10-19T09:33:47Z</time>
      </trkpt>
      <trkpt lat="45.95272" lon="2.87863">
        <ele>755</ele>
        <time>2015-10-19T09:35:47Z</time>
      </trkpt>
      <trkpt lat="45.95262" lon="2.87835">
        <ele>756</ele>
        <time>2015-10-19T09:37:47Z</time>
      </trkpt>
      <trkpt lat="45.95231" lon="2.87768">
        <ele>758</ele>
        <time>2015-10-19T09:39:47Z</time>
      </trkpt>
      <trkpt lat="45.95171" lon="2.87722">
        <ele>759</ele>
        <time>2015-10-19T09:41:47Z</time>
      </trkpt>
      <trkpt lat="45.95144" lon="2.87701">
        <ele>757</ele>
        <time>2015-10-19T09:43:47Z</time>
      </trkpt>
      <trkpt lat="45.951" lon="2.8767">
        <ele>757</ele>
        <time>2015-10-19T09:45:47Z</time>
      </trkpt>
      <trkpt lat="45.95064" lon="2.87644">
        <ele>757</ele>
        <time>2015-10-19T09:47:47Z</time>
      </trkpt>
      <trkpt lat="45.9504" lon="2.87621">
        <ele>756</ele>
        <time>2015-10-19T09:49:47Z</time>
      </trkpt>
      <trkpt lat="45.95005" lon="2.87596">
        <ele>756</ele>
        <time>2015-10-19T09:51:47Z</time>
      </trkpt>
      <trkpt lat="45.94967" lon="2.8757">
        <ele>755</ele>
        <time>2015-10-19T09:53:47Z</time>
      </trkpt>
      <trkpt lat="45.94917" lon="2.87528">
        <ele>756</ele>
        <time>2015-10-19T09:55:47Z</time>
      </trkpt>
      <trkpt lat="45.94982" lon="2.87422">
        <ele>753</ele>
        <time>2015-10-19T09:57:47Z</time>
      </trkpt>
      <trkpt lat="45.95045" lon="2.87322">
        <ele>748</ele>
        <time>2015-10-19T09:59:47Z</time>
      </trkpt>
      <trkpt lat="45.95084" lon="2.87263">
        <ele>745</ele>
        <time>2015-10-19T10:01:47Z</time>
      </trkpt>
      <trkpt lat="45.9511" lon="2.87203">
        <ele>743</ele>
        <time>2015-10-19T10:03:47Z</time>
      </trkpt>
      <trkpt lat="45.9515" lon="2.87176">
        <ele>743</ele>
        <time>2015-10-19T10:05:47Z</time>
      </trkpt>
      <trkpt lat="45.95169" lon="2.87153">
        <ele>744</ele>
        <time>2015-10-19T10:07:47Z</time>
      </trkpt>
      <trkpt lat="45.95192" lon="2.8712">
        <ele>746</ele>
        <time>2015-10-19T10:09:47Z</time>
      </trkpt>
      <trkpt lat="45.95223" lon="2.87082">
        <ele>748</ele>
        <time>2015-10-19T10:11:47Z</time>
      </trkpt>
      <trkpt lat="45.95241" lon="2.87053">
        <ele>747</ele>
        <time>2015-10-19T10:13:47Z</time>
      </trkpt>
      <trkpt lat="45.95258" lon="2.87019">
        <ele>746</ele>
        <time>2015-10-19T10:15:47Z</time>
      </trkpt>
      <trkpt lat="45.95284" lon="2.86914">
        <ele>743</ele>
        <time>2015-10-19T10:17:47Z</time>
      </trkpt>
      <trkpt lat="45.95286" lon="2.86851">
        <ele>739</ele>
        <time>2015-10-19T10:19:47Z</time>
      </trkpt>
      <trkpt lat="45.95295" lon="2.86734">
        <ele>729</ele>
        <time>2015-10-19T10:21:47Z</time>
      </trkpt>
      <trkpt lat="45.95251" lon="2.8672">
        <ele>731</ele>
        <time>2015-10-19T10:23:47Z</time>
      </trkpt>
      <trkpt lat="45.95204" lon="2.86704">
        <ele>733</ele>
        <time>2015-10-19T10:25:47Z</time>
      </trkpt>
      <trkpt lat="45.95165" lon="2.86708">
        <ele>737</ele>
        <time>2015-10-19T10:27:47Z</time>
      </trkpt>
      <trkpt lat="45.9511" lon="2.86729">
        <ele>740</ele>
        <time>2015-10-19T10:29:47Z</time>
      </trkpt>
      <trkpt lat="45.95036" lon="2.86744">
        <ele>745</ele>
        <time>2015-10-19T10:31:47Z</time>
      </trkpt>
      <trkpt lat="45.94975" lon="2.86734">
        <ele>747</ele>
        <time>2015-10-19T10:33:47Z</time>
      </trkpt>
      <trkpt lat="45.94958" lon="2.8673">
        <ele>747</ele>
        <time>2015-10-19T10:35:47Z</time>
      </trkpt>
      <trkpt lat="45.94939" lon="2.8671">
        <ele>747</ele>
        <time>2015-10-19T10:37:47Z</time>
      </trkpt>
      <trkpt lat="45.94925" lon="2.86709">
        <ele>748</ele>
        <time>2015-10-19T10:39:47Z</time>
      </trkpt>
      <trkpt lat="45.9489" lon="2.86735">
        <ele>752</ele>
        <time>2015-10-19T10:41:47Z</time>
      </trkpt>
      <trkpt lat="45.94875" lon="2.86734">
        <ele>753</ele>
        <time>2015-10-19T10:43:47Z</time>
      </trkpt>
      <trkpt lat="45.94863" lon="2.86728">
        <ele>754</ele>
        <time>2015-10-19T10:45:47Z</time>
      </trkpt>
      <trkpt lat="45.94851" lon="2.86718">
        <ele>755</ele>
        <time>2015-10-19T10:47:47Z</time>
      </trkpt>
      <trkpt lat="45.94837" lon="2.86706">
        <ele>756</ele>
        <time>2015-10-19T10:49:47Z</time>
      </trkpt>
      <trkpt lat="45.94823" lon="2.86685">
        <ele>756</ele>
        <time>2015-10-19T10:51:47Z</time>
      </trkpt>
      <trkpt lat="45.94804" lon="2.86667">
        <ele>757</ele>
        <time>2015-10-19T10:53:47Z</time>
      </trkpt>
      <trkpt lat="45.94796" lon="2.86662">
        <ele>758</ele>
        <time>2015-10-19T10:55:47Z</time>
      </trkpt>
      <trkpt lat="45.94784" lon="2.86615">
        <ele>756</ele>
        <time>2015-10-19T10:57:47Z</time>
      </trkpt>
      <trkpt lat="45.94795" lon="2.86596">
        <ele>754</ele>
        <time>2015-10-19T10:59:47Z</time>
      </trkpt>
      <trkpt lat="45.94816" lon="2.86578">
        <ele>751</ele>
        <time>2015-10-19T11:01:47Z</time>
      </trkpt>
      <trkpt lat="45.94831" lon="2.86562">
        <ele>750</ele>
        <time>2015-10-19T11:03:47Z</time>
      </trkpt>
      <trkpt lat="45.94847" lon="2.86549">
        <ele>748</ele>
        <time>2015-10-19T11:05:47Z</time>
      </trkpt>
      <trkpt lat="45.9486" lon="2.86508">
        <ele>746</ele>
        <time>2015-10-19T11:07:47Z</time>
      </trkpt>
      <trkpt lat="45.94835" lon="2.86462">
        <ele>746</ele>
        <time>2015-10-19T11:09:47Z</time>
      </trkpt>
      <trkpt lat="45.94831" lon="2.86444">
        <ele>745</ele>
        <time>2015-10-19T11:11:47Z</time>
      </trkpt>
      <trkpt lat="45.94829" lon="2.86395">
        <ele>744</ele>
        <time>2015-10-19T11:13:47Z</time>
      </trkpt>
      <trkpt lat="45.94832" lon="2.86357">
        <ele>744</ele>
        <time>2015-10-19T11:15:47Z</time>
      </trkpt>
      <trkpt lat="45.94836" lon="2.8632">
        <ele>744</ele>
        <time>2015-10-19T11:17:47Z</time>
      </trkpt>
      <trkpt lat="45.94848" lon="2.86292">
        <ele>744</ele>
        <time>2015-10-19T11:19:47Z</time>
      </trkpt>
      <trkpt lat="45.94863" lon="2.86258">
        <ele>743</ele>
        <time>2015-10-19T11:21:47Z</time>
      </trkpt>
      <trkpt lat="45.94871" lon="2.86238">
        <ele>743</ele>
        <time>2015-10-19T11:23:47Z</time>
      </trkpt>
      <trkpt lat="45.94892" lon="2.86219">
        <ele>741</ele>
        <time>2015-10-19T11:25:47Z</time>
      </trkpt>
      <trkpt lat="45.94902" lon="2.86201">
        <ele>741</ele>
        <time>2015-10-19T11:27:47Z</time>
      </trkpt>
      <trkpt lat="45.94907" lon="2.86173">
        <ele>741</ele>
        <time>2015-10-19T11:29:47Z</time>
      </trkpt>
      <trkpt lat="45.94904" lon="2.86145">
        <ele>741</ele>
        <time>2015-10-19T11:31:47Z</time>
      </trkpt>
      <trkpt lat="45.94898" lon="2.86123">
        <ele>741</ele>
        <time>2015-10-19T11:33:47Z</time>
      </trkpt>
      <trkpt lat="45.9489" lon="2.861">
        <ele>741</ele>
        <time>2015-10-19T11:35:47Z</time>
      </trkpt>
      <trkpt lat="45.94866" lon="2.86054">
        <ele>742</ele>
        <time>2015-10-19T11:37:47Z</time>
      </trkpt>
      <trkpt lat="45.94952" lon="2.85974">
        <ele>738</ele>
        <time>2015-10-19T11:39:47Z</time>
      </trkpt>
      <trkpt lat="45.94927" lon="2.85945">
        <ele>739</ele>
        <time>2015-10-19T11:41:47Z</time>
      </trkpt>
      <trkpt lat="45.94915" lon="2.85842">
        <ele>743</ele>
        <time>2015-10-19T11:43:47Z</time>
      </trkpt>
      <trkpt lat="45.9491" lon="2.85804">
        <ele>744</ele>
        <time>2015-10-19T11:45:47Z</time>
      </trkpt>
      <trkpt lat="45.94907" lon="2.85762">
        <ele>744</ele>
        <time>2015-10-19T11:47:47Z</time>
      </trkpt>
      <trkpt lat="45.94907" lon="2.8573">
        <ele>745</ele>
        <time>2015-10-19T11:49:47Z</time>
      </trkpt>
      <trkpt lat="45.94924" lon="2.8568">
        <ele>746</ele>
        <time>2015-10-19T11:51:47Z</time>
      </trkpt>
      <trkpt lat="45.94947" lon="2.85642">
        <ele>748</ele>
        <time>2015-10-19T11:53:47Z</time>
      </trkpt>
      <trkpt lat="45.94964" lon="2.85608">
        <ele>749</ele>
        <time>2015-10-19T11:55:47Z</time>
      </trkpt>
      <trkpt lat="45.94982" lon="2.85576">
        <ele>750</ele>
        <time>2015-10-19T11:57:47Z</time>
      </trkpt>
      <trkpt lat="45.95001" lon="2.85548">
        <ele>751</ele>
        <time>2015-10-19T11:59:47Z</time>
      </trkpt>
      <trkpt lat="45.95018" lon="2.85522">
        <ele>752</ele>
        <time>2015-10-19T12:01:47Z</time>
      </trkpt>
      <trkpt lat="45.95007" lon="2.85493">
        <ele>754</ele>
        <time>2015-10-19T12:03:47Z</time>
      </trkpt>
      <trkpt lat="45.94986" lon="2.8545">
        <ele>755</ele>
        <time>2015-10-19T12:05:47Z</time>
      </trkpt>
      <trkpt lat="45.94966" lon="2.85403">
        <ele>757</ele>
        <time>2015-10-19T12:07:47Z</time>
      </trkpt>
      <trkpt lat="45.94936" lon="2.85334">
        <ele>758</ele>
        <time>2015-10-19T12:09:47Z</time>
      </trkpt>
      <trkpt lat="45.94914" lon="2.85308">
        <ele>759</ele>
        <time>2015-10-19T12:11:47Z</time>
      </trkpt>
      <trkpt lat="45.9493" lon="2.85251">
        <ele>760</ele>
        <time>2015-10-19T12:13:47Z</time>
      </trkpt>
      <trkpt lat="45.94946" lon="2.85222">
        <ele>759</ele>
        <time>2015-10-19T12:15:47Z</time>
      </trkpt>
      <trkpt lat="45.94972" lon="2.8515">
        <ele>757</ele>
        <time>2015-10-19T12:17:47Z</time>
      </trkpt>
      <trkpt lat="45.94985" lon="2.85124">
        <ele>757</ele>
        <time>2015-10-19T12:19:47Z</time>
      </trkpt>
      <trkpt lat="45.95014" lon="2.85089">
        <ele>756</ele>
        <time>2015-10-19T12:21:47Z</time>
      </trkpt>
      <trkpt lat="45.9501" lon="2.8503">
        <ele>756</ele>
        <time>2015-10-19T12:23:47Z</time>
      </trkpt>
      <trkpt lat="45.9501" lon="2.84932">
        <ele>753</ele>
        <time>2015-10-19T12:25:47Z</time>
      </trkpt>
      <trkpt lat="45.95004" lon="2.84889">
        <ele>752</ele>
        <time>2015-10-19T12:27:47Z</time>
      </trkpt>
      <trkpt lat="45.94994" lon="2.84856">
        <ele>752</ele>
        <time>2015-10-19T12:29:47Z</time>
      </trkpt>
      <trkpt lat="45.94967" lon="2.84714">
        <ele>746</ele>
        <time>2015-10-19T12:31:47Z</time>
      </trkpt>
      <trkpt lat="45.9496" lon="2.84658">
        <ele>743</ele>
        <time>2015-10-19T12:33:47Z</time>
      </trkpt>
      <trkpt lat="45.94955" lon="2.84623">
        <ele>742</ele>
        <time>2015-10-19T12:35:47Z</time>
      </trkpt>
      <trkpt lat="45.9496" lon="2.84604">
        <ele>741</ele>
        <time>2015-10-19T12:37:47Z</time>
      </trkpt>
      <trkpt lat="45.94974" lon="2.84593">
        <ele>741</ele>
        <time>2015-10-19T12:39:47Z</time>
      </trkpt>
      <trkpt lat="45.94991" lon="2.84583">
        <ele>741</ele>
        <time>2015-10-19T12:41:47Z</time>
      </trkpt>
      <trkpt lat="45.95022" lon="2.84567">
        <ele>742</ele>
        <time>2015-10-19T12:43:47Z</time>
      </trkpt>
      <trkpt lat="45.95056" lon="2.84542">
        <ele>742</ele>
        <time>2015-10-19T12:45:47Z</time>
      </trkpt>
      <trkpt lat="45.95045" lon="2.84496">
        <ele>741</ele>
        <time>2015-10-19T12:47:47Z</time>
      </trkpt>
      <trkpt lat="45.95032" lon="2.84458">
        <ele>739</ele>
        <time>2015-10-19T12:49:47Z</time>
      </trkpt>
      <trkpt lat="45.95013" lon="2.84408">
        <ele>738</ele>
        <time>2015-10-19T12:51:47Z</time>
      </trkpt>
      <trkpt lat="45.94983" lon="2.84323">
        <ele>734</ele>
        <time>2015-10-19T12:53:47Z</time>
      </trkpt>
      <trkpt lat="45.94968" lon="2.84282">
        <ele>732</ele>
        <time>2015-10-19T12:55:47Z</time>
      </trkpt>
      <trkpt lat="45.94948" lon="2.84236">
        <ele>730</ele>
        <time>2015-10-19T12:57:47Z</time>
      </trkpt>
      <trkpt lat="45.94904" lon="2.84258">
        <ele>730</ele>
        <time>2015-10-19T12:59:47Z</time>
      </trkpt>
      <trkpt lat="45.94851" lon="2.84282">
        <ele>730</ele>
        <time>2015-10-19T13:01:47Z</time>
      </trkpt>
      <trkpt lat="45.94826" lon="2.84277">
        <ele>730</ele>
        <time>2015-10-19T13:03:47Z</time>
      </trkpt>
      <trkpt lat="45.94806" lon="2.84269">
        <ele>731</ele>
        <time>2015-10-19T13:05:47Z</time>
      </trkpt>
      <trkpt lat="45.94782" lon="2.84246">
        <ele>732</ele>
        <time>2015-10-19T13:07:47Z</time>
      </trkpt>
      <trkpt lat="45.9475" lon="2.84228">
        <ele>734</ele>
        <time>2015-10-19T13:09:47Z</time>
      </trkpt>
      <trkpt lat="45.94672" lon="2.84201">
        <ele>735</ele>
        <time>2015-10-19T13:11:47Z</time>
      </trkpt>
      <trkpt lat="45.94646" lon="2.84208">
        <ele>736</ele>
        <time>2015-10-19T13:13:47Z</time>
      </trkpt>
      <trkpt lat="45.94616" lon="2.84193">
        <ele>735</ele>
        <time>2015-10-19T13:15:47Z</time>
      </trkpt>
      <trkpt lat="45.94581" lon="2.8417">
        <ele>733</ele>
        <time>2015-10-19T13:17:47Z</time>
      </trkpt>
      <trkpt lat="45.94516" lon="2.84169">
        <ele>735</ele>
        <time>2015-10-19T13:19:47Z</time>
      </trkpt>
      <trkpt lat="45.94457" lon="2.84176">
        <ele>736</ele>
        <time>2015-10-19T13:21:47Z</time>
      </trkpt>
      <trkpt lat="45.94407" lon="2.84185">
        <ele>737</ele>
        <time>2015-10-19T13:23:47Z</time>
      </trkpt>
      <trkpt lat="45.94405" lon="2.84123">
        <ele>733</ele>
        <time>2015-10-19T13:25:47Z</time>
      </trkpt>
      <trkpt lat="45.94403" lon="2.84058">
        <ele>731</ele>
        <time>2015-10-19T13:27:47Z</time>
      </trkpt>
      <trkpt lat="45.94408" lon="2.84034">
        <ele>730</ele>
        <time>2015-10-19T13:29:47Z</time>
      </trkpt>
      <trkpt lat="45.94418" lon="2.83986">
        <ele>729</ele>
        <time>2015-10-19T13:31:47Z</time>
      </trkpt>
      <trkpt lat="45.94417" lon="2.83903">
        <ele>728</ele>
        <time>2015-10-19T13:33:47Z</time>
      </trkpt>
      <trkpt lat="45.94375" lon="2.83907">
        <ele>731</ele>
        <time>2015-10-19T13:35:47Z</time>
      </trkpt>
      <trkpt lat="45.94318" lon="2.83915">
        <ele>733</ele>
        <time>2015-10-19T13:37:47Z</time>
      </trkpt>
      <trkpt lat="45.94235" lon="2.83936">
        <ele>734</ele>
        <time>2015-10-19T13:39:47Z</time>
      </trkpt>
      <trkpt lat="45.94208" lon="2.83943">
        <ele>734</ele>
        <time>2015-10-19T13:41:47Z</time>
      </trkpt>
      <trkpt lat="45.94166" lon="2.83956">
        <ele>733</ele>
        <time>2015-10-19T13:43:47Z</time>
      </trkpt>
      <trkpt lat="45.94146" lon="2.83952">
        <ele>733</ele>
        <time>2015-10-19T13:45:47Z</time>
      </trkpt>
      <trkpt lat="45.94113" lon="2.83929">
        <ele>733</ele>
        <time>2015-10-19T13:47:47Z</time>
      </trkpt>
      <trkpt lat="45.9409" lon="2.83921">
        <ele>733</ele>
        <time>2015-10-19T13:49:47Z</time>
      </trkpt>
      <trkpt lat="45.94074" lon="2.83938">
        <ele>733</ele>
        <time>2015-10-19T13:51:47Z</time>
      </trkpt>
      <trkpt lat="45.94062" lon="2.83962">
        <ele>733</ele>
        <time>2015-10-19T13:53:47Z</time>
      </trkpt>
      <trkpt lat="45.94048" lon="2.83991">
        <ele>733</ele>
        <time>2015-10-19T13:55:47Z</time>
      </trkpt>
      <trkpt lat="45.94037" lon="2.84019">
        <ele>733</ele>
        <time>2015-10-19T13:57:47Z</time>
      </trkpt>
      <trkpt lat="45.94026" lon="2.84053">
        <ele>733</ele>
        <time>2015-10-19T13:59:47Z</time>
      </trkpt>
    </trkseg>
  </trk>
  <trk>
    <name><![CDATA[--Saint-Jacques-d'Ambur-- OR-5366937:ser-jb02-b]]></name>
    <trkseg>
      <trkpt lat="45.90027" lon="2.77586">
        <ele>684</ele>
        <time>2015-10-17T12:38:41Z</time>
      </trkpt>
      <trkpt lat="45.90071" lon="2.77586">
        <ele>684</ele>
        <time>2015-10-17T12:40:41Z</time>
      </trkpt>
      <trkpt lat="45.90116" lon="2.7761">
        <ele>685</ele>
        <time>2015-10-17T12:42:41Z</time>
      </trkpt>
      <trkpt lat="45.90182" lon="2.77644">
        <ele>685</ele>
        <time>2015-10-17T12:44:41Z</time>
      </trkpt>
      <trkpt lat="45.90251" lon="2.77608">
        <ele>686</ele>
        <time>2015-10-17T12:46:41Z</time>
      </trkpt>
      <trkpt lat="45.90363" lon="2.77546">
        <ele>686</ele>
        <time>2015-10-17T12:48:41Z</time>
      </trkpt>
      <trkpt lat="45.90431" lon="2.77423">
        <ele>683</ele>
        <time>2015-10-17T12:50:41Z</time>
      </trkpt>
      <trkpt lat="45.90425" lon="2.7726">
        <ele>680</ele>
        <time>2015-10-17T12:52:41Z</time>
      </trkpt>
      <trkpt lat="45.90439" lon="2.77082">
        <ele>680</ele>
        <time>2015-10-17T12:54:41Z</time>
      </trkpt>
      <trkpt lat="45.90458" lon="2.76988">
        <ele>679</ele>
        <time>2015-10-17T12:56:41Z</time>
      </trkpt>
      <trkpt lat="45.90457" lon="2.7691">
        <ele>678</ele>
        <time>2015-10-17T12:58:41Z</time>
      </trkpt>
      <trkpt lat="45.90439" lon="2.76807">
        <ele>675</ele>
        <time>2015-10-17T13:00:41Z</time>
      </trkpt>
      <trkpt lat="45.90397" lon="2.76743">
        <ele>673</ele>
        <time>2015-10-17T13:02:41Z</time>
      </trkpt>
      <trkpt lat="45.90283" lon="2.76679">
        <ele>661</ele>
        <time>2015-10-17T13:04:41Z</time>
      </trkpt>
      <trkpt lat="45.90207" lon="2.76617">
        <ele>645</ele>
        <time>2015-10-17T13:06:41Z</time>
      </trkpt>
      <trkpt lat="45.90189" lon="2.7649">
        <ele>632</ele>
        <time>2015-10-17T13:08:41Z</time>
      </trkpt>
      <trkpt lat="45.90216" lon="2.76396">
        <ele>626</ele>
        <time>2015-10-17T13:10:41Z</time>
      </trkpt>
      <trkpt lat="45.90243" lon="2.76308">
        <ele>618</ele>
        <time>2015-10-17T13:12:41Z</time>
      </trkpt>
      <trkpt lat="45.90294" lon="2.76241">
        <ele>614</ele>
        <time>2015-10-17T13:14:41Z</time>
      </trkpt>
      <trkpt lat="45.90325" lon="2.76179">
        <ele>606</ele>
        <time>2015-10-17T13:16:41Z</time>
      </trkpt>
      <trkpt lat="45.90363" lon="2.76074">
        <ele>585</ele>
        <time>2015-10-17T13:18:41Z</time>
      </trkpt>
      <trkpt lat="45.90395" lon="2.76061">
        <ele>590</ele>
        <time>2015-10-17T13:20:41Z</time>
      </trkpt>
      <trkpt lat="45.90412" lon="2.76056">
        <ele>593</ele>
        <time>2015-10-17T13:22:41Z</time>
      </trkpt>
      <trkpt lat="45.90427" lon="2.75992">
        <ele>578</ele>
        <time>2015-10-17T13:24:41Z</time>
      </trkpt>
      <trkpt lat="45.90466" lon="2.75934">
        <ele>570</ele>
        <time>2015-10-17T13:26:41Z</time>
      </trkpt>
      <trkpt lat="45.90521" lon="2.75885">
        <ele>562</ele>
        <time>2015-10-17T13:28:41Z</time>
      </trkpt>
      <trkpt lat="45.90588" lon="2.75838">
        <ele>551</ele>
        <time>2015-10-17T13:30:41Z</time>
      </trkpt>
      <trkpt lat="45.9063" lon="2.75803">
        <ele>534</ele>
        <time>2015-10-17T13:32:41Z</time>
      </trkpt>
      <trkpt lat="45.9067" lon="2.75803">
        <ele>529</ele>
        <time>2015-10-17T13:34:41Z</time>
      </trkpt>
      <trkpt lat="45.90654" lon="2.75773">
        <ele>521</ele>
        <time>2015-10-17T13:36:41Z</time>
      </trkpt>
      <trkpt lat="45.90619" lon="2.75769">
        <ele>523</ele>
        <time>2015-10-17T13:38:41Z</time>
      </trkpt>
      <trkpt lat="45.90587" lon="2.75771">
        <ele>526</ele>
        <time>2015-10-17T13:40:41Z</time>
      </trkpt>
      <trkpt lat="45.90561" lon="2.75763">
        <ele>524</ele>
        <time>2015-10-17T13:42:41Z</time>
      </trkpt>
      <trkpt lat="45.90566" lon="2.75745">
        <ele>520</ele>
        <time>2015-10-17T13:44:41Z</time>
      </trkpt>
      <trkpt lat="45.90595" lon="2.75707">
        <ele>520</ele>
        <time>2015-10-17T13:46:41Z</time>
      </trkpt>
      <trkpt lat="45.90636" lon="2.75644">
        <ele>514</ele>
        <time>2015-10-17T13:48:41Z</time>
      </trkpt>
      <trkpt lat="45.90646" lon="2.75614">
        <ele>514</ele>
        <time>2015-10-17T13:50:41Z</time>
      </trkpt>
      <trkpt lat="45.90639" lon="2.75574">
        <ele>519</ele>
        <time>2015-10-17T13:52:41Z</time>
      </trkpt>
      <trkpt lat="45.90634" lon="2.75541">
        <ele>521</ele>
        <time>2015-10-17T13:54:41Z</time>
      </trkpt>
      <trkpt lat="45.90676" lon="2.75471">
        <ele>524</ele>
        <time>2015-10-17T13:56:41Z</time>
      </trkpt>
      <trkpt lat="45.90736" lon="2.75383">
        <ele>525</ele>
        <time>2015-10-17T13:58:41Z</time>
      </trkpt>
      <trkpt lat="45.90761" lon="2.7532">
        <ele>528</ele>
        <time>2015-10-17T14:00:41Z</time>
      </trkpt>
      <trkpt lat="45.90764" lon="2.75241">
        <ele>537</ele>
        <time>2015-10-17T14:02:41Z</time>
      </trkpt>
      <trkpt lat="45.90763" lon="2.75194">
        <ele>541</ele>
        <time>2015-10-17T14:04:41Z</time>
      </trkpt>
      <trkpt lat="45.90775" lon="2.75084">
        <ele>546</ele>
        <time>2015-10-17T14:06:41Z</time>
      </trkpt>
      <trkpt lat="45.90807" lon="2.75044">
        <ele>535</ele>
        <time>2015-10-17T14:08:41Z</time>
      </trkpt>
      <trkpt lat="45.90803" lon="2.74988">
        <ele>532</ele>
        <time>2015-10-17T14:10:41Z</time>
      </trkpt>
      <trkpt lat="45.90749" lon="2.74928">
        <ele>533</ele>
        <time>2015-10-17T14:12:41Z</time>
      </trkpt>
      <trkpt lat="45.90696" lon="2.74887">
        <ele>534</ele>
        <time>2015-10-17T14:14:41Z</time>
      </trkpt>
      <trkpt lat="45.90631" lon="2.7484">
        <ele>531</ele>
        <time>2015-10-17T14:16:41Z</time>
      </trkpt>
      <trkpt lat="45.90548" lon="2.7475">
        <ele>522</ele>
        <time>2015-10-17T14:18:41Z</time>
      </trkpt>
      <trkpt lat="45.90509" lon="2.74711">
        <ele>520</ele>
        <time>2015-10-17T14:20:41Z</time>
      </trkpt>
      <trkpt lat="45.90454" lon="2.74709">
        <ele>525</ele>
        <time>2015-10-17T14:22:41Z</time>
      </trkpt>
      <trkpt lat="45.90409" lon="2.74724">
        <ele>533</ele>
        <time>2015-10-17T14:24:41Z</time>
      </trkpt>
      <trkpt lat="45.90363" lon="2.74748">
        <ele>544</ele>
        <time>2015-10-17T14:26:41Z</time>
      </trkpt>
      <trkpt lat="45.90322" lon="2.74737">
        <ele>546</ele>
        <time>2015-10-17T14:28:41Z</time>
      </trkpt>
      <trkpt lat="45.90267" lon="2.74702">
        <ele>545</ele>
        <time>2015-10-17T14:30:41Z</time>
      </trkpt>
      <trkpt lat="45.90239" lon="2.74694">
        <ele>546</ele>
        <time>2015-10-17T14:32:41Z</time>
      </trkpt>
      <trkpt lat="45.90167" lon="2.74713">
        <ele>552</ele>
        <time>2015-10-17T14:34:41Z</time>
      </trkpt>
      <trkpt lat="45.90097" lon="2.74743">
        <ele>558</ele>
        <time>2015-10-17T14:36:41Z</time>
      </trkpt>
      <trkpt lat="45.90022" lon="2.74765">
        <ele>569</ele>
        <time>2015-10-17T14:38:41Z</time>
      </trkpt>
      <trkpt lat="45.89973" lon="2.74767">
        <ele>575</ele>
        <time>2015-10-17T14:40:41Z</time>
      </trkpt>
      <trkpt lat="45.89932" lon="2.74775">
        <ele>582</ele>
        <time>2015-10-17T14:42:41Z</time>
      </trkpt>
      <trkpt lat="45.89915" lon="2.74765">
        <ele>583</ele>
        <time>2015-10-17T14:44:41Z</time>
      </trkpt>
      <trkpt lat="45.89919" lon="2.74726">
        <ele>578</ele>
        <time>2015-10-17T14:46:41Z</time>
      </trkpt>
      <trkpt lat="45.89916" lon="2.74668">
        <ele>576</ele>
        <time>2015-10-17T14:48:41Z</time>
      </trkpt>
      <trkpt lat="45.8988" lon="2.7463">
        <ele>581</ele>
        <time>2015-10-17T14:50:41Z</time>
      </trkpt>
      <trkpt lat="45.89847" lon="2.74608">
        <ele>587</ele>
        <time>2015-10-17T14:52:41Z</time>
      </trkpt>
      <trkpt lat="45.89829" lon="2.74602">
        <ele>591</ele>
        <time>2015-10-17T14:54:41Z</time>
      </trkpt>
      <trkpt lat="45.89816" lon="2.74574">
        <ele>595</ele>
        <time>2015-10-17T14:56:41Z</time>
      </trkpt>
      <trkpt lat="45.89803" lon="2.74488">
        <ele>594</ele>
        <time>2015-10-17T14:58:41Z</time>
      </trkpt>
      <trkpt lat="45.89832" lon="2.74381">
        <ele>591</ele>
        <time>2015-10-17T15:00:41Z</time>
      </trkpt>
      <trkpt lat="45.89859" lon="2.74275">
        <ele>593</ele>
        <time>2015-10-17T15:02:41Z</time>
      </trkpt>
      <trkpt lat="45.89892" lon="2.74237">
        <ele>587</ele>
        <time>2015-10-17T15:04:41Z</time>
      </trkpt>
      <trkpt lat="45.89916" lon="2.74233">
        <ele>581</ele>
        <time>2015-10-17T15:06:41Z</time>
      </trkpt>
      <trkpt lat="45.89932" lon="2.74177">
        <ele>583</ele>
        <time>2015-10-17T15:08:41Z</time>
      </trkpt>
      <trkpt lat="45.89944" lon="2.74089">
        <ele>586</ele>
        <time>2015-10-17T15:10:41Z</time>
      </trkpt>
      <trkpt lat="45.89932" lon="2.74016">
        <ele>593</ele>
        <time>2015-10-17T15:12:41Z</time>
      </trkpt>
      <trkpt lat="45.8991" lon="2.73932">
        <ele>601</ele>
        <time>2015-10-17T15:14:41Z</time>
      </trkpt>
      <trkpt lat="45.89885" lon="2.73889">
        <ele>606</ele>
        <time>2015-10-17T15:16:41Z</time>
      </trkpt>
      <trkpt lat="45.89846" lon="2.73851">
        <ele>610</ele>
        <time>2015-10-17T15:18:41Z</time>
      </trkpt>
      <trkpt lat="45.89815" lon="2.73857">
        <ele>611</ele>
        <time>2015-10-17T15:20:41Z</time>
      </trkpt>
      <trkpt lat="45.89785" lon="2.73896">
        <ele>616</ele>
        <time>2015-10-17T15:22:41Z</time>
      </trkpt>
      <trkpt lat="45.89756" lon="2.73962">
        <ele>626</ele>
        <time>2015-10-17T15:24:41Z</time>
      </trkpt>
      <trkpt lat="45.89737" lon="2.74039">
        <ele>633</ele>
        <time>2015-10-17T15:26:41Z</time>
      </trkpt>
      <trkpt lat="45.89726" lon="2.74136">
        <ele>635</ele>
        <time>2015-10-17T15:28:41Z</time>
      </trkpt>
      <trkpt lat="45.89711" lon="2.74207">
        <ele>637</ele>
        <time>2015-10-17T15:30:41Z</time>
      </trkpt>
      <trkpt lat="45.89691" lon="2.74254">
        <ele>641</ele>
        <time>2015-10-17T15:32:41Z</time>
      </trkpt>
      <trkpt lat="45.89632" lon="2.74321">
        <ele>650</ele>
        <time>2015-10-17T15:34:41Z</time>
      </trkpt>
      <trkpt lat="45.89583" lon="2.74368">
        <ele>658</ele>
        <time>2015-10-17T15:36:41Z</time>
      </trkpt>
      <trkpt lat="45.89541" lon="2.74394">
        <ele>668</ele>
        <time>2015-10-17T15:38:41Z</time>
      </trkpt>
      <trkpt lat="45.89517" lon="2.74421">
        <ele>672</ele>
        <time>2015-10-17T15:40:41Z</time>
      </trkpt>
      <trkpt lat="45.89516" lon="2.74447">
        <ele>676</ele>
        <time>2015-10-17T15:42:41Z</time>
      </trkpt>
      <trkpt lat="45.89543" lon="2.74462">
        <ele>672</ele>
        <time>2015-10-17T15:44:41Z</time>
      </trkpt>
      <trkpt lat="45.89583" lon="2.74542">
        <ele>676</ele>
        <time>2015-10-17T15:46:41Z</time>
      </trkpt>
      <trkpt lat="45.89565" lon="2.74559">
        <ele>681</ele>
        <time>2015-10-17T15:48:41Z</time>
      </trkpt>
      <trkpt lat="45.89519" lon="2.7455">
        <ele>687</ele>
        <time>2015-10-17T15:50:41Z</time>
      </trkpt>
      <trkpt lat="45.89483" lon="2.74569">
        <ele>694</ele>
        <time>2015-10-17T15:52:41Z</time>
      </trkpt>
      <trkpt lat="45.89461" lon="2.74606">
        <ele>700</ele>
        <time>2015-10-17T15:54:41Z</time>
      </trkpt>
      <trkpt lat="45.8944" lon="2.74664">
        <ele>708</ele>
        <time>2015-10-17T15:56:41Z</time>
      </trkpt>
      <trkpt lat="45.89401" lon="2.747">
        <ele>715</ele>
        <time>2015-10-17T15:58:41Z</time>
      </trkpt>
      <trkpt lat="45.89365" lon="2.74739">
        <ele>720</ele>
        <time>2015-10-17T16:00:41Z</time>
      </trkpt>
      <trkpt lat="45.89326" lon="2.74758">
        <ele>722</ele>
        <time>2015-10-17T16:02:41Z</time>
      </trkpt>
      <trkpt lat="45.89286" lon="2.74758">
        <ele>726</ele>
        <time>2015-10-17T16:04:41Z</time>
      </trkpt>
      <trkpt lat="45.89252" lon="2.74769">
        <ele>729</ele>
        <time>2015-10-17T16:06:41Z</time>
      </trkpt>
      <trkpt lat="45.89211" lon="2.74788">
        <ele>735</ele>
        <time>2015-10-17T16:08:41Z</time>
      </trkpt>
      <trkpt lat="45.8918" lon="2.74814">
        <ele>738</ele>
        <time>2015-10-17T16:10:41Z</time>
      </trkpt>
      <trkpt lat="45.89165" lon="2.74833">
        <ele>739</ele>
        <time>2015-10-17T16:12:41Z</time>
      </trkpt>
      <trkpt lat="45.89134" lon="2.74904">
        <ele>741</ele>
        <time>2015-10-17T16:14:41Z</time>
      </trkpt>
      <trkpt lat="45.89104" lon="2.74962">
        <ele>744</ele>
        <time>2015-10-17T16:16:41Z</time>
      </trkpt>
      <trkpt lat="45.89096" lon="2.75011">
        <ele>745</ele>
        <time>2015-10-17T16:18:41Z</time>
      </trkpt>
      <trkpt lat="45.8905" lon="2.75074">
        <ele>752</ele>
        <time>2015-10-17T16:20:41Z</time>
      </trkpt>
      <trkpt lat="45.89017" lon="2.75142">
        <ele>754</ele>
        <time>2015-10-17T16:22:41Z</time>
      </trkpt>
      <trkpt lat="45.88984" lon="2.75192">
        <ele>755</ele>
        <time>2015-10-17T16:24:41Z</time>
      </trkpt>
      <trkpt lat="45.88941" lon="2.75226">
        <ele>757</ele>
        <time>2015-10-17T16:26:41Z</time>
      </trkpt>
      <trkpt lat="45.88883" lon="2.75267">
        <ele>759</ele>
        <time>2015-10-17T16:28:41Z</time>
      </trkpt>
      <trkpt lat="45.88839" lon="2.75308">
        <ele>759</ele>
        <time>2015-10-17T16:30:41Z</time>
      </trkpt>
      <trkpt lat="45.88778" lon="2.75335">
        <ele>757</ele>
        <time>2015-10-17T16:32:41Z</time>
      </trkpt>
      <trkpt lat="45.88708" lon="2.75368">
        <ele>757</ele>
        <time>2015-10-17T16:34:41Z</time>
      </trkpt>
      <trkpt lat="45.88676" lon="2.75408">
        <ele>755</ele>
        <time>2015-10-17T16:36:41Z</time>
      </trkpt>
      <trkpt lat="45.88606" lon="2.75477">
        <ele>752</ele>
        <time>2015-10-17T16:38:41Z</time>
      </trkpt>
      <trkpt lat="45.88585" lon="2.75441">
        <ele>756</ele>
        <time>2015-10-17T16:40:41Z</time>
      </trkpt>
      <trkpt lat="45.88556" lon="2.75428">
        <ele>757</ele>
        <time>2015-10-17T16:42:41Z</time>
      </trkpt>
      <trkpt lat="45.88518" lon="2.75454">
        <ele>754</ele>
        <time>2015-10-17T16:44:41Z</time>
      </trkpt>
      <trkpt lat="45.88479" lon="2.75464">
        <ele>755</ele>
        <time>2015-10-17T16:46:41Z</time>
      </trkpt>
      <trkpt lat="45.88452" lon="2.75503">
        <ele>755</ele>
        <time>2015-10-17T16:48:41Z</time>
      </trkpt>
      <trkpt lat="45.88402" lon="2.75569">
        <ele>753</ele>
        <time>2015-10-17T16:50:41Z</time>
      </trkpt>
      <trkpt lat="45.88339" lon="2.75565">
        <ele>753</ele>
        <time>2015-10-17T16:52:41Z</time>
      </trkpt>
      <trkpt lat="45.88294" lon="2.75548">
        <ele>756</ele>
        <time>2015-10-17T16:54:41Z</time>
      </trkpt>
      <trkpt lat="45.88258" lon="2.75548">
        <ele>757</ele>
        <time>2015-10-17T16:56:41Z</time>
      </trkpt>
      <trkpt lat="45.88236" lon="2.7555">
        <ele>757</ele>
        <time>2015-10-17T16:58:41Z</time>
      </trkpt>
      <trkpt lat="45.88184" lon="2.75587">
        <ele>754</ele>
        <time>2015-10-17T17:00:41Z</time>
      </trkpt>
      <trkpt lat="45.88148" lon="2.7561">
        <ele>752</ele>
        <time>2015-10-17T17:02:41Z</time>
      </trkpt>
      <trkpt lat="45.88055" lon="2.75679">
        <ele>746</ele>
        <time>2015-10-17T17:04:41Z</time>
      </trkpt>
      <trkpt lat="45.87997" lon="2.75825">
        <ele>739</ele>
        <time>2015-10-17T17:06:41Z</time>
      </trkpt>
      <trkpt lat="45.87989" lon="2.7587">
        <ele>737</ele>
        <time>2015-10-17T17:08:41Z</time>
      </trkpt>
      <trkpt lat="45.87915" lon="2.75986">
        <ele>733</ele>
        <time>2015-10-17T17:10:41Z</time>
      </trkpt>
      <trkpt lat="45.8793" lon="2.76014">
        <ele>733</ele>
        <time>2015-10-17T17:12:41Z</time>
      </trkpt>
      <trkpt lat="45.879" lon="2.76226">
        <ele>727</ele>
        <time>2015-10-17T17:14:41Z</time>
      </trkpt>
      <trkpt lat="45.87882" lon="2.76378">
        <ele>724</ele>
        <time>2015-10-17T17:16:41Z</time>
      </trkpt>
      <trkpt lat="45.87868" lon="2.76447">
        <ele>722</ele>
        <time>2015-10-17T17:18:41Z</time>
      </trkpt>
      <trkpt lat="45.87815" lon="2.76593">
        <ele>722</ele>
        <time>2015-10-17T17:20:41Z</time>
      </trkpt>
      <trkpt lat="45.87758" lon="2.76728">
        <ele>720</ele>
        <time>2015-10-17T17:22:41Z</time>
      </trkpt>
      <trkpt lat="45.87704" lon="2.76829">
        <ele>719</ele>
        <time>2015-10-17T17:24:41Z</time>
      </trkpt>
      <trkpt lat="45.87592" lon="2.77054">
        <ele>713</ele>
        <time>2015-10-17T17:26:41Z</time>
      </trkpt>
      <trkpt lat="45.87574" lon="2.7711">
        <ele>709</ele>
        <time>2015-10-17T17:28:41Z</time>
      </trkpt>
      <trkpt lat="45.87582" lon="2.77149">
        <ele>706</ele>
        <time>2015-10-17T17:30:41Z</time>
      </trkpt>
      <trkpt lat="45.8758" lon="2.77198">
        <ele>703</ele>
        <time>2015-10-17T17:32:41Z</time>
      </trkpt>
      <trkpt lat="45.87582" lon="2.7725">
        <ele>701</ele>
        <time>2015-10-17T17:34:41Z</time>
      </trkpt>
      <trkpt lat="45.87583" lon="2.77322">
        <ele>698</ele>
        <time>2015-10-17T17:36:41Z</time>
      </trkpt>
      <trkpt lat="45.87579" lon="2.77355">
        <ele>698</ele>
        <time>2015-10-17T17:38:41Z</time>
      </trkpt>
      <trkpt lat="45.87583" lon="2.77398">
        <ele>699</ele>
        <time>2015-10-17T17:40:41Z</time>
      </trkpt>
      <trkpt lat="45.87589" lon="2.77449">
        <ele>699</ele>
        <time>2015-10-17T17:42:41Z</time>
      </trkpt>
      <trkpt lat="45.87595" lon="2.77488">
        <ele>698</ele>
        <time>2015-10-17T17:44:41Z</time>
      </trkpt>
      <trkpt lat="45.87602" lon="2.77544">
        <ele>697</ele>
        <time>2015-10-17T17:46:41Z</time>
      </trkpt>
      <trkpt lat="45.87608" lon="2.77596">
        <ele>696</ele>
        <time>2015-10-17T17:48:41Z</time>
      </trkpt>
      <trkpt lat="45.87613" lon="2.77641">
        <ele>696</ele>
        <time>2015-10-17T17:50:41Z</time>
      </trkpt>
      <trkpt lat="45.87617" lon="2.77676">
        <ele>696</ele>
        <time>2015-10-17T17:52:41Z</time>
      </trkpt>
      <trkpt lat="45.87617" lon="2.77695">
        <ele>696</ele>
        <time>2015-10-17T17:54:41Z</time>
      </trkpt>
      <trkpt lat="45.87588" lon="2.77692">
        <ele>696</ele>
        <time>2015-10-17T17:56:41Z</time>
      </trkpt>
      <trkpt lat="45.87562" lon="2.77689">
        <ele>695</ele>
        <time>2015-10-17T17:58:41Z</time>
      </trkpt>
      <trkpt lat="45.87537" lon="2.77687">
        <ele>695</ele>
        <time>2015-10-17T18:00:41Z</time>
      </trkpt>
      <trkpt lat="45.87515" lon="2.77684">
        <ele>695</ele>
        <time>2015-10-17T18:02:41Z</time>
      </trkpt>
      <trkpt lat="45.87499" lon="2.77678">
        <ele>694</ele>
        <time>2015-10-17T18:04:41Z</time>
      </trkpt>
      <trkpt lat="45.87476" lon="2.7767">
        <ele>692</ele>
        <time>2015-10-17T18:06:41Z</time>
      </trkpt>
      <trkpt lat="45.87454" lon="2.77664">
        <ele>690</ele>
        <time>2015-10-17T18:08:41Z</time>
      </trkpt>
      <trkpt lat="45.87443" lon="2.77662">
        <ele>689</ele>
        <time>2015-10-17T18:10:41Z</time>
      </trkpt>
      <trkpt lat="45.87428" lon="2.77658">
        <ele>687</ele>
        <time>2015-10-17T18:12:41Z</time>
      </trkpt>
      <trkpt lat="45.87408" lon="2.7765">
        <ele>686</ele>
        <time>2015-10-17T18:14:41Z</time>
      </trkpt>
      <trkpt lat="45.8739" lon="2.77629">
        <ele>685</ele>
        <time>2015-10-17T18:16:41Z</time>
      </trkpt>
      <trkpt lat="45.87378" lon="2.77616">
        <ele>684</ele>
        <time>2015-10-17T18:18:41Z</time>
      </trkpt>
      <trkpt lat="45.87363" lon="2.77599">
        <ele>683</ele>
        <time>2015-10-17T18:20:41Z</time>
      </trkpt>
      <trkpt lat="45.87346" lon="2.77581">
        <ele>681</ele>
        <time>2015-10-17T18:22:41Z</time>
      </trkpt>
      <trkpt lat="45.87328" lon="2.77556">
        <ele>681</ele>
        <time>2015-10-17T18:24:41Z</time>
      </trkpt>
      <trkpt lat="45.87304" lon="2.7754">
        <ele>683</ele>
        <time>2015-10-17T18:26:41Z</time>
      </trkpt>
      <trkpt lat="45.87273" lon="2.77523">
        <ele>684</ele>
        <time>2015-10-17T18:28:41Z</time>
      </trkpt>
      <trkpt lat="45.87259" lon="2.77527">
        <ele>684</ele>
        <time>2015-10-17T18:30:41Z</time>
      </trkpt>
      <trkpt lat="45.87248" lon="2.77537">
        <ele>684</ele>
        <time>2015-10-17T18:32:41Z</time>
      </trkpt>
      <trkpt lat="45.8723" lon="2.77559">
        <ele>686</ele>
        <time>2015-10-17T18:34:41Z</time>
      </trkpt>
      <trkpt lat="45.87213" lon="2.77569">
        <ele>687</ele>
        <time>2015-10-17T18:36:41Z</time>
      </trkpt>
      <trkpt lat="45.87191" lon="2.77575">
        <ele>690</ele>
        <time>2015-10-17T18:38:41Z</time>
      </trkpt>
      <trkpt lat="45.87172" lon="2.77586">
        <ele>692</ele>
        <time>2015-10-17T18:40:41Z</time>
      </trkpt>
      <trkpt lat="45.87164" lon="2.77598">
        <ele>693</ele>
        <time>2015-10-17T18:42:41Z</time>
      </trkpt>
      <trkpt lat="45.87145" lon="2.77629">
        <ele>694</ele>
        <time>2015-10-17T18:44:41Z</time>
      </trkpt>
      <trkpt lat="45.87136" lon="2.77644">
        <ele>694</ele>
        <time>2015-10-17T18:46:41Z</time>
      </trkpt>
      <trkpt lat="45.87106" lon="2.77653">
        <ele>696</ele>
        <time>2015-10-17T18:48:41Z</time>
      </trkpt>
      <trkpt lat="45.87083" lon="2.77646">
        <ele>698</ele>
        <time>2015-10-17T18:50:41Z</time>
      </trkpt>
      <trkpt lat="45.87067" lon="2.77641">
        <ele>698</ele>
        <time>2015-10-17T18:52:41Z</time>
      </trkpt>
      <trkpt lat="45.87047" lon="2.77645">
        <ele>699</ele>
        <time>2015-10-17T18:54:41Z</time>
      </trkpt>
      <trkpt lat="45.87014" lon="2.77684">
        <ele>700</ele>
        <time>2015-10-17T18:56:41Z</time>
      </trkpt>
      <trkpt lat="45.86998" lon="2.77709">
        <ele>701</ele>
        <time>2015-10-17T18:58:41Z</time>
      </trkpt>
      <trkpt lat="45.86965" lon="2.77744">
        <ele>702</ele>
        <time>2015-10-17T19:00:41Z</time>
      </trkpt>
      <trkpt lat="45.86945" lon="2.77759">
        <ele>700</ele>
        <time>2015-10-17T19:02:41Z</time>
      </trkpt>
      <trkpt lat="45.8692" lon="2.77773">
        <ele>697</ele>
        <time>2015-10-17T19:04:41Z</time>
      </trkpt>
      <trkpt lat="45.86893" lon="2.77771">
        <ele>697</ele>
        <time>2015-10-17T19:06:41Z</time>
      </trkpt>
      <trkpt lat="45.86873" lon="2.77766">
        <ele>698</ele>
        <time>2015-10-17T19:08:41Z</time>
      </trkpt>
      <trkpt lat="45.86856" lon="2.77778">
        <ele>696</ele>
        <time>2015-10-17T19:10:41Z</time>
      </trkpt>
      <trkpt lat="45.86839" lon="2.77791">
        <ele>694</ele>
        <time>2015-10-17T19:12:41Z</time>
      </trkpt>
      <trkpt lat="45.86821" lon="2.77797">
        <ele>694</ele>
        <time>2015-10-17T19:14:41Z</time>
      </trkpt>
      <trkpt lat="45.86798" lon="2.77802">
        <ele>696</ele>
        <time>2015-10-17T19:16:41Z</time>
      </trkpt>
      <trkpt lat="45.86755" lon="2.77815">
        <ele>698</ele>
        <time>2015-10-17T19:18:41Z</time>
      </trkpt>
      <trkpt lat="45.86718" lon="2.7785">
        <ele>695</ele>
        <time>2015-10-17T19:20:41Z</time>
      </trkpt>
      <trkpt lat="45.86702" lon="2.77864">
        <ele>694</ele>
        <time>2015-10-17T19:22:41Z</time>
      </trkpt>
      <trkpt lat="45.8668" lon="2.77887">
        <ele>691</ele>
        <time>2015-10-17T19:24:41Z</time>
      </trkpt>
      <trkpt lat="45.86666" lon="2.77906">
        <ele>689</ele>
        <time>2015-10-17T19:26:41Z</time>
      </trkpt>
      <trkpt lat="45.86646" lon="2.77923">
        <ele>687</ele>
        <time>2015-10-17T19:28:41Z</time>
      </trkpt>
      <trkpt lat="45.86628" lon="2.77908">
        <ele>689</ele>
        <time>2015-10-17T19:30:41Z</time>
      </trkpt>
      <trkpt lat="45.86589" lon="2.77842">
        <ele>691</ele>
        <time>2015-10-17T19:32:41Z</time>
      </trkpt>
      <trkpt lat="45.86581" lon="2.77843">
        <ele>691</ele>
        <time>2015-10-17T19:34:41Z</time>
      </trkpt>
      <trkpt lat="45.86578" lon="2.77854">
        <ele>690</ele>
        <time>2015-10-17T19:36:41Z</time>
      </trkpt>
      <trkpt lat="45.86601" lon="2.77884">
        <ele>690</ele>
        <time>2015-10-17T19:38:41Z</time>
      </trkpt>
      <trkpt lat="45.8661" lon="2.77913">
        <ele>689</ele>
        <time>2015-10-17T19:40:41Z</time>
      </trkpt>
      <trkpt lat="45.86619" lon="2.77939">
        <ele>688</ele>
        <time>2015-10-17T19:42:41Z</time>
      </trkpt>
      <trkpt lat="45.86639" lon="2.77992">
        <ele>687</ele>
        <time>2015-10-17T19:44:41Z</time>
      </trkpt>
      <trkpt lat="45.86659" lon="2.78009">
        <ele>687</ele>
        <time>2015-10-17T19:46:41Z</time>
      </trkpt>
      <trkpt lat="45.86687" lon="2.77996">
        <ele>687</ele>
        <time>2015-10-17T19:48:41Z</time>
      </trkpt>
      <trkpt lat="45.86728" lon="2.77982">
        <ele>690</ele>
        <time>2015-10-17T19:50:41Z</time>
      </trkpt>
      <trkpt lat="45.86754" lon="2.77982">
        <ele>692</ele>
        <time>2015-10-17T19:52:41Z</time>
      </trkpt>
      <trkpt lat="45.86772" lon="2.77984">
        <ele>694</ele>
        <time>2015-10-17T19:54:41Z</time>
      </trkpt>
      <trkpt lat="45.86803" lon="2.77992">
        <ele>698</ele>
        <time>2015-10-17T19:56:41Z</time>
      </trkpt>
      <trkpt lat="45.8684" lon="2.78014">
        <ele>704</ele>
        <time>2015-10-17T19:58:41Z</time>
      </trkpt>
      <trkpt lat="45.86858" lon="2.7803">
        <ele>706</ele>
        <time>2015-10-17T20:00:41Z</time>
      </trkpt>
      <trkpt lat="45.86868" lon="2.78058">
        <ele>709</ele>
        <time>2015-10-17T20:02:41Z</time>
      </trkpt>
      <trkpt lat="45.86892" lon="2.78166">
        <ele>712</ele>
        <time>2015-10-17T20:04:41Z</time>
      </trkpt>
      <trkpt lat="45.86909" lon="2.78209">
        <ele>714</ele>
        <time>2015-10-17T20:06:41Z</time>
      </trkpt>
      <trkpt lat="45.86929" lon="2.78234">
        <ele>715</ele>
        <time>2015-10-17T20:08:41Z</time>
      </trkpt>
      <trkpt lat="45.86942" lon="2.78256">
        <ele>715</ele>
        <time>2015-10-17T20:10:41Z</time>
      </trkpt>
      <trkpt lat="45.86965" lon="2.78271">
        <ele>715</ele>
        <time>2015-10-17T20:12:41Z</time>
      </trkpt>
      <trkpt lat="45.86982" lon="2.78282">
        <ele>715</ele>
        <time>2015-10-17T20:14:41Z</time>
      </trkpt>
      <trkpt lat="45.87021" lon="2.78352">
        <ele>717</ele>
        <time>2015-10-17T20:16:41Z</time>
      </trkpt>
      <trkpt lat="45.87033" lon="2.7838">
        <ele>717</ele>
        <time>2015-10-17T20:18:41Z</time>
      </trkpt>
      <trkpt lat="45.87023" lon="2.78432">
        <ele>719</ele>
        <time>2015-10-17T20:20:41Z</time>
      </trkpt>
      <trkpt lat="45.87018" lon="2.78473">
        <ele>720</ele>
        <time>2015-10-17T20:22:41Z</time>
      </trkpt>
      <trkpt lat="45.87041" lon="2.78537">
        <ele>720</ele>
        <time>2015-10-17T20:24:41Z</time>
      </trkpt>
      <trkpt lat="45.87059" lon="2.78556">
        <ele>719</ele>
        <time>2015-10-17T20:26:41Z</time>
      </trkpt>
      <trkpt lat="45.87077" lon="2.78588">
        <ele>719</ele>
        <time>2015-10-17T20:28:41Z</time>
      </trkpt>
      <trkpt lat="45.87096" lon="2.78629">
        <ele>718</ele>
        <time>2015-10-17T20:30:41Z</time>
      </trkpt>
      <trkpt lat="45.87111" lon="2.78655">
        <ele>718</ele>
        <time>2015-10-17T20:32:41Z</time>
      </trkpt>
      <trkpt lat="45.87138" lon="2.78728">
        <ele>719</ele>
        <time>2015-10-17T20:34:41Z</time>
      </trkpt>
      <trkpt lat="45.8716" lon="2.78784">
        <ele>721</ele>
        <time>2015-10-17T20:36:41Z</time>
      </trkpt>
      <trkpt lat="45.87181" lon="2.78818">
        <ele>723</ele>
        <time>2015-10-17T20:38:41Z</time>
      </trkpt>
      <trkpt lat="45.87213" lon="2.78837">
        <ele>724</ele>
        <time>2015-10-17T20:40:41Z</time>
      </trkpt>
      <trkpt lat="45.87229" lon="2.78953">
        <ele>726</ele>
        <time>2015-10-17T20:42:41Z</time>
      </trkpt>
      <trkpt lat="45.87239" lon="2.79011">
        <ele>726</ele>
        <time>2015-10-17T20:44:41Z</time>
      </trkpt>
      <trkpt lat="45.87257" lon="2.79125">
        <ele>725</ele>
        <time>2015-10-17T20:46:41Z</time>
      </trkpt>
      <trkpt lat="45.87262" lon="2.79189">
        <ele>724</ele>
        <time>2015-10-17T20:48:41Z</time>
      </trkpt>
      <trkpt lat="45.87284" lon="2.79284">
        <ele>725</ele>
        <time>2015-10-17T20:50:41Z</time>
      </trkpt>
      <trkpt lat="45.87317" lon="2.79355">
        <ele>724</ele>
        <time>2015-10-17T20:52:41Z</time>
      </trkpt>
      <trkpt lat="45.87332" lon="2.79393">
        <ele>723</ele>
        <time>2015-10-17T20:54:41Z</time>
      </trkpt>
      <trkpt lat="45.8728" lon="2.79458">
        <ele>725</ele>
        <time>2015-10-17T20:56:41Z</time>
      </trkpt>
      <trkpt lat="45.87334" lon="2.79506">
        <ele>722</ele>
        <time>2015-10-17T20:58:41Z</time>
      </trkpt>
      <trkpt lat="45.87435" lon="2.79609">
        <ele>718</ele>
        <time>2015-10-17T21:00:41Z</time>
      </trkpt>
      <trkpt lat="45.87384" lon="2.79708">
        <ele>714</ele>
        <time>2015-10-17T21:02:41Z</time>
      </trkpt>
      <trkpt lat="45.87399" lon="2.79802">
        <ele>712</ele>
        <time>2015-10-17T21:04:41Z</time>
      </trkpt>
      <trkpt lat="45.87486" lon="2.79982">
        <ele>703</ele>
        <time>2015-10-17T21:06:41Z</time>
      </trkpt>
      <trkpt lat="45.87471" lon="2.80077">
        <ele>704</ele>
        <time>2015-10-17T21:08:41Z</time>
      </trkpt>
      <trkpt lat="45.87465" lon="2.80162">
        <ele>702</ele>
        <time>2015-10-17T21:10:41Z</time>
      </trkpt>
      <trkpt lat="45.87465" lon="2.80278">
        <ele>697</ele>
        <time>2015-10-17T21:12:41Z</time>
      </trkpt>
      <trkpt lat="45.87459" lon="2.80347">
        <ele>692</ele>
        <time>2015-10-17T21:14:41Z</time>
      </trkpt>
      <trkpt lat="45.87474" lon="2.80411">
        <ele>690</ele>
        <time>2015-10-17T21:16:41Z</time>
      </trkpt>
      <trkpt lat="45.87504" lon="2.8048">
        <ele>685</ele>
        <time>2015-10-17T21:18:41Z</time>
      </trkpt>
      <trkpt lat="45.87537" lon="2.80523">
        <ele>685</ele>
        <time>2015-10-17T21:20:41Z</time>
      </trkpt>
      <trkpt lat="45.87561" lon="2.80583">
        <ele>679</ele>
        <time>2015-10-17T21:22:41Z</time>
      </trkpt>
      <trkpt lat="45.87585" lon="2.80647">
        <ele>672</ele>
        <time>2015-10-17T21:24:41Z</time>
      </trkpt>
      <trkpt lat="45.87626" lon="2.80793">
        <ele>651</ele>
        <time>2015-10-17T21:26:41Z</time>
      </trkpt>
      <trkpt lat="45.87686" lon="2.80875">
        <ele>640</ele>
        <time>2015-10-17T21:28:41Z</time>
      </trkpt>
      <trkpt lat="45.87731" lon="2.80888">
        <ele>634</ele>
        <time>2015-10-17T21:30:41Z</time>
      </trkpt>
      <trkpt lat="45.87806" lon="2.80853">
        <ele>623</ele>
        <time>2015-10-17T21:32:41Z</time>
      </trkpt>
      <trkpt lat="45.87874" lon="2.80823">
        <ele>606</ele>
        <time>2015-10-17T21:34:41Z</time>
      </trkpt>
      <trkpt lat="45.87903" lon="2.80788">
        <ele>599</ele>
        <time>2015-10-17T21:36:41Z</time>
      </trkpt>
      <trkpt lat="45.87936" lon="2.80827">
        <ele>585</ele>
        <time>2015-10-17T21:38:41Z</time>
      </trkpt>
      <trkpt lat="45.87942" lon="2.80884">
        <ele>572</ele>
        <time>2015-10-17T21:40:41Z</time>
      </trkpt>
      <trkpt lat="45.87974" lon="2.80996">
        <ele>564</ele>
        <time>2015-10-17T21:42:41Z</time>
      </trkpt>
      <trkpt lat="45.87934" lon="2.81157">
        <ele>568</ele>
        <time>2015-10-17T21:44:41Z</time>
      </trkpt>
      <trkpt lat="45.8798" lon="2.81288">
        <ele>572</ele>
        <time>2015-10-17T21:46:41Z</time>
      </trkpt>
      <trkpt lat="45.88039" lon="2.81423">
        <ele>569</ele>
        <time>2015-10-17T21:48:41Z</time>
      </trkpt>
      <trkpt lat="45.88036" lon="2.81623">
        <ele>580</ele>
        <time>2015-10-17T21:50:41Z</time>
      </trkpt>
      <trkpt lat="45.88058" lon="2.81618">
        <ele>588</ele>
        <time>2015-10-17T21:52:41Z</time>
      </trkpt>
      <trkpt lat="45.88094" lon="2.81541">
        <ele>584</ele>
        <time>2015-10-17T21:54:41Z</time>
      </trkpt>
      <trkpt lat="45.88136" lon="2.81554">
        <ele>588</ele>
        <time>2015-10-17T21:56:41Z</time>
      </trkpt>
      <trkpt lat="45.88176" lon="2.81539">
        <ele>587</ele>
        <time>2015-10-17T21:58:41Z</time>
      </trkpt>
      <trkpt lat="45.88242" lon="2.8153">
        <ele>587</ele>
        <time>2015-10-17T22:00:41Z</time>
      </trkpt>
      <trkpt lat="45.88343" lon="2.81498">
        <ele>589</ele>
        <time>2015-10-17T22:02:41Z</time>
      </trkpt>
      <trkpt lat="45.88367" lon="2.81475">
        <ele>589</ele>
        <time>2015-10-17T22:04:41Z</time>
      </trkpt>
      <trkpt lat="45.884" lon="2.81408">
        <ele>578</ele>
        <time>2015-10-17T22:06:41Z</time>
      </trkpt>
      <trkpt lat="45.88432" lon="2.81333">
        <ele>575</ele>
        <time>2015-10-17T22:08:41Z</time>
      </trkpt>
      <trkpt lat="45.88485" lon="2.81153">
        <ele>571</ele>
        <time>2015-10-17T22:10:41Z</time>
      </trkpt>
      <trkpt lat="45.88493" lon="2.81075">
        <ele>568</ele>
        <time>2015-10-17T22:12:41Z</time>
      </trkpt>
      <trkpt lat="45.88466" lon="2.80966">
        <ele>571</ele>
        <time>2015-10-17T22:14:41Z</time>
      </trkpt>
      <trkpt lat="45.88424" lon="2.80893">
        <ele>568</ele>
        <time>2015-10-17T22:16:41Z</time>
      </trkpt>
      <trkpt lat="45.88364" lon="2.8082">
        <ele>566</ele>
        <time>2015-10-17T22:18:41Z</time>
      </trkpt>
      <trkpt lat="45.88302" lon="2.80736">
        <ele>561</ele>
        <time>2015-10-17T22:20:41Z</time>
      </trkpt>
      <trkpt lat="45.8832" lon="2.80689">
        <ele>563</ele>
        <time>2015-10-17T22:22:41Z</time>
      </trkpt>
      <trkpt lat="45.88387" lon="2.8061">
        <ele>569</ele>
        <time>2015-10-17T22:24:41Z</time>
      </trkpt>
      <trkpt lat="45.88408" lon="2.80571">
        <ele>565</ele>
        <time>2015-10-17T22:26:41Z</time>
      </trkpt>
      <trkpt lat="45.88432" lon="2.80507">
        <ele>564</ele>
        <time>2015-10-17T22:28:41Z</time>
      </trkpt>
      <trkpt lat="45.88406" lon="2.80408">
        <ele>560</ele>
        <time>2015-10-17T22:30:41Z</time>
      </trkpt>
      <trkpt lat="45.88384" lon="2.80378">
        <ele>560</ele>
        <time>2015-10-17T22:32:41Z</time>
      </trkpt>
      <trkpt lat="45.88366" lon="2.80318">
        <ele>558</ele>
        <time>2015-10-17T22:34:41Z</time>
      </trkpt>
      <trkpt lat="45.88387" lon="2.80299">
        <ele>559</ele>
        <time>2015-10-17T22:36:41Z</time>
      </trkpt>
      <trkpt lat="45.88446" lon="2.8035">
        <ele>559</ele>
        <time>2015-10-17T22:38:41Z</time>
      </trkpt>
      <trkpt lat="45.88538" lon="2.80438">
        <ele>564</ele>
        <time>2015-10-17T22:40:41Z</time>
      </trkpt>
      <trkpt lat="45.88597" lon="2.80528">
        <ele>574</ele>
        <time>2015-10-17T22:42:41Z</time>
      </trkpt>
      <trkpt lat="45.8862" lon="2.80552">
        <ele>577</ele>
        <time>2015-10-17T22:44:41Z</time>
      </trkpt>
      <trkpt lat="45.88685" lon="2.8058">
        <ele>568</ele>
        <time>2015-10-17T22:46:41Z</time>
      </trkpt>
      <trkpt lat="45.88789" lon="2.80603">
        <ele>571</ele>
        <time>2015-10-17T22:48:41Z</time>
      </trkpt>
      <trkpt lat="45.88886" lon="2.80565">
        <ele>570</ele>
        <time>2015-10-17T22:50:41Z</time>
      </trkpt>
      <trkpt lat="45.88914" lon="2.80518">
        <ele>564</ele>
        <time>2015-10-17T22:52:41Z</time>
      </trkpt>
      <trkpt lat="45.88942" lon="2.80369">
        <ele>568</ele>
        <time>2015-10-17T22:54:41Z</time>
      </trkpt>
      <trkpt lat="45.88896" lon="2.80236">
        <ele>556</ele>
        <time>2015-10-17T22:56:41Z</time>
      </trkpt>
      <trkpt lat="45.88871" lon="2.80082">
        <ele>547</ele>
        <time>2015-10-17T22:58:41Z</time>
      </trkpt>
      <trkpt lat="45.88865" lon="2.80035">
        <ele>544</ele>
        <time>2015-10-17T23:00:41Z</time>
      </trkpt>
      <trkpt lat="45.88895" lon="2.80052">
        <ele>546</ele>
        <time>2015-10-17T23:02:41Z</time>
      </trkpt>
      <trkpt lat="45.88939" lon="2.80088">
        <ele>549</ele>
        <time>2015-10-17T23:04:41Z</time>
      </trkpt>
      <trkpt lat="45.89001" lon="2.80133">
        <ele>550</ele>
        <time>2015-10-17T23:06:41Z</time>
      </trkpt>
      <trkpt lat="45.89056" lon="2.80176">
        <ele>547</ele>
        <time>2015-10-17T23:08:41Z</time>
      </trkpt>
      <trkpt lat="45.89166" lon="2.80281">
        <ele>549</ele>
        <time>2015-10-17T23:10:41Z</time>
      </trkpt>
      <trkpt lat="45.89232" lon="2.80367">
        <ele>549</ele>
        <time>2015-10-17T23:12:41Z</time>
      </trkpt>
      <trkpt lat="45.89268" lon="2.80412">
        <ele>549</ele>
        <time>2015-10-17T23:14:41Z</time>
      </trkpt>
      <trkpt lat="45.89359" lon="2.80518">
        <ele>558</ele>
        <time>2015-10-17T23:16:41Z</time>
      </trkpt>
      <trkpt lat="45.89423" lon="2.80552">
        <ele>570</ele>
        <time>2015-10-17T23:18:41Z</time>
      </trkpt>
      <trkpt lat="45.89481" lon="2.80539">
        <ele>571</ele>
        <time>2015-10-17T23:20:41Z</time>
      </trkpt>
      <trkpt lat="45.89526" lon="2.8049">
        <ele>566</ele>
        <time>2015-10-17T23:22:41Z</time>
      </trkpt>
      <trkpt lat="45.89547" lon="2.8043">
        <ele>563</ele>
        <time>2015-10-17T23:24:41Z</time>
      </trkpt>
      <trkpt lat="45.89532" lon="2.80206">
        <ele>549</ele>
        <time>2015-10-17T23:26:41Z</time>
      </trkpt>
      <trkpt lat="45.89546" lon="2.80155">
        <ele>548</ele>
        <time>2015-10-17T23:28:41Z</time>
      </trkpt>
      <trkpt lat="45.89573" lon="2.80067">
        <ele>543</ele>
        <time>2015-10-17T23:30:41Z</time>
      </trkpt>
      <trkpt lat="45.89646" lon="2.79983">
        <ele>552</ele>
        <time>2015-10-17T23:32:41Z</time>
      </trkpt>
      <trkpt lat="45.89665" lon="2.79947">
        <ele>547</ele>
        <time>2015-10-17T23:34:41Z</time>
      </trkpt>
      <trkpt lat="45.89667" lon="2.79915">
        <ele>539</ele>
        <time>2015-10-17T23:36:41Z</time>
      </trkpt>
      <trkpt lat="45.89743" lon="2.79859">
        <ele>540</ele>
        <time>2015-10-17T23:38:41Z</time>
      </trkpt>
      <trkpt lat="45.89791" lon="2.79842">
        <ele>540</ele>
        <time>2015-10-17T23:40:41Z</time>
      </trkpt>
      <trkpt lat="45.89883" lon="2.79822">
        <ele>538</ele>
        <time>2015-10-17T23:42:41Z</time>
      </trkpt>
      <trkpt lat="45.89921" lon="2.79837">
        <ele>538</ele>
        <time>2015-10-17T23:44:41Z</time>
      </trkpt>
      <trkpt lat="45.89988" lon="2.79904">
        <ele>541</ele>
        <time>2015-10-17T23:46:41Z</time>
      </trkpt>
      <trkpt lat="45.90059" lon="2.79949">
        <ele>542</ele>
        <time>2015-10-17T23:48:41Z</time>
      </trkpt>
      <trkpt lat="45.90098" lon="2.79966">
        <ele>542</ele>
        <time>2015-10-17T23:50:41Z</time>
      </trkpt>
      <trkpt lat="45.90133" lon="2.79994">
        <ele>541</ele>
        <time>2015-10-17T23:52:41Z</time>
      </trkpt>
      <trkpt lat="45.90168" lon="2.8">
        <ele>536</ele>
        <time>2015-10-17T23:54:41Z</time>
      </trkpt>
      <trkpt lat="45.902" lon="2.80037">
        <ele>542</ele>
        <time>2015-10-17T23:56:41Z</time>
      </trkpt>
      <trkpt lat="45.90224" lon="2.80063">
        <ele>547</ele>
        <time>2015-10-17T23:58:41Z</time>
      </trkpt>
      <trkpt lat="45.90315" lon="2.80112">
        <ele>556</ele>
        <time>2015-10-18T00:00:41Z</time>
      </trkpt>
      <trkpt lat="45.90394" lon="2.80097">
        <ele>558</ele>
        <time>2015-10-18T00:02:41Z</time>
      </trkpt>
      <trkpt lat="45.90436" lon="2.80071">
        <ele>559</ele>
        <time>2015-10-18T00:04:41Z</time>
      </trkpt>
      <trkpt lat="45.90463" lon="2.80033">
        <ele>556</ele>
        <time>2015-10-18T00:06:41Z</time>
      </trkpt>
      <trkpt lat="45.90507" lon="2.79942">
        <ele>541</ele>
        <time>2015-10-18T00:08:41Z</time>
      </trkpt>
      <trkpt lat="45.90534" lon="2.79915">
        <ele>538</ele>
        <time>2015-10-18T00:10:41Z</time>
      </trkpt>
      <trkpt lat="45.90552" lon="2.79904">
        <ele>539</ele>
        <time>2015-10-18T00:12:41Z</time>
      </trkpt>
      <trkpt lat="45.90578" lon="2.79894">
        <ele>541</ele>
        <time>2015-10-18T00:14:41Z</time>
      </trkpt>
      <trkpt lat="45.90616" lon="2.79902">
        <ele>539</ele>
        <time>2015-10-18T00:16:41Z</time>
      </trkpt>
      <trkpt lat="45.90598" lon="2.79873">
        <ele>535</ele>
        <time>2015-10-18T00:18:41Z</time>
      </trkpt>
      <trkpt lat="45.90571" lon="2.7985">
        <ele>530</ele>
        <time>2015-10-18T00:20:41Z</time>
      </trkpt>
      <trkpt lat="45.90528" lon="2.79782">
        <ele>539</ele>
        <time>2015-10-18T00:22:41Z</time>
      </trkpt>
      <trkpt lat="45.90519" lon="2.79771">
        <ele>542</ele>
        <time>2015-10-18T00:24:41Z</time>
      </trkpt>
      <trkpt lat="45.90498" lon="2.7978">
        <ele>541</ele>
        <time>2015-10-18T00:26:41Z</time>
      </trkpt>
      <trkpt lat="45.90475" lon="2.79781">
        <ele>544</ele>
        <time>2015-10-18T00:28:41Z</time>
      </trkpt>
      <trkpt lat="45.90455" lon="2.79777">
        <ele>548</ele>
        <time>2015-10-18T00:30:41Z</time>
      </trkpt>
      <trkpt lat="45.90425" lon="2.79741">
        <ele>561</ele>
        <time>2015-10-18T00:32:41Z</time>
      </trkpt>
      <trkpt lat="45.90398" lon="2.79729">
        <ele>564</ele>
        <time>2015-10-18T00:34:41Z</time>
      </trkpt>
      <trkpt lat="45.90345" lon="2.79696">
        <ele>568</ele>
        <time>2015-10-18T00:36:41Z</time>
      </trkpt>
      <trkpt lat="45.90306" lon="2.79646">
        <ele>575</ele>
        <time>2015-10-18T00:38:41Z</time>
      </trkpt>
      <trkpt lat="45.90288" lon="2.7962">
        <ele>579</ele>
        <time>2015-10-18T00:40:41Z</time>
      </trkpt>
      <trkpt lat="45.90254" lon="2.7957">
        <ele>584</ele>
        <time>2015-10-18T00:42:41Z</time>
      </trkpt>
      <trkpt lat="45.90245" lon="2.79548">
        <ele>586</ele>
        <time>2015-10-18T00:44:41Z</time>
      </trkpt>
      <trkpt lat="45.90248" lon="2.79528">
        <ele>588</ele>
        <time>2015-10-18T00:46:41Z</time>
      </trkpt>
      <trkpt lat="45.90258" lon="2.79515">
        <ele>591</ele>
        <time>2015-10-18T00:48:41Z</time>
      </trkpt>
      <trkpt lat="45.90277" lon="2.79475">
        <ele>600</ele>
        <time>2015-10-18T00:50:41Z</time>
      </trkpt>
      <trkpt lat="45.90276" lon="2.79416">
        <ele>610</ele>
        <time>2015-10-18T00:52:41Z</time>
      </trkpt>
      <trkpt lat="45.9025" lon="2.79386">
        <ele>617</ele>
        <time>2015-10-18T00:54:41Z</time>
      </trkpt>
      <trkpt lat="45.90207" lon="2.79359">
        <ele>615</ele>
        <time>2015-10-18T00:56:41Z</time>
      </trkpt>
      <trkpt lat="45.90179" lon="2.79315">
        <ele>619</ele>
        <time>2015-10-18T00:58:41Z</time>
      </trkpt>
      <trkpt lat="45.90153" lon="2.79219">
        <ele>628</ele>
        <time>2015-10-18T01:00:41Z</time>
      </trkpt>
      <trkpt lat="45.9013" lon="2.79098">
        <ele>640</ele>
        <time>2015-10-18T01:02:41Z</time>
      </trkpt>
      <trkpt lat="45.90127" lon="2.7907">
        <ele>644</ele>
        <time>2015-10-18T01:04:41Z</time>
      </trkpt>
      <trkpt lat="45.90129" lon="2.79049">
        <ele>647</ele>
        <time>2015-10-18T01:06:41Z</time>
      </trkpt>
      <trkpt lat="45.90152" lon="2.79026">
        <ele>653</ele>
        <time>2015-10-18T01:08:41Z</time>
      </trkpt>
      <trkpt lat="45.90207" lon="2.78976">
        <ele>659</ele>
        <time>2015-10-18T01:10:41Z</time>
      </trkpt>
      <trkpt lat="45.90223" lon="2.78955">
        <ele>661</ele>
        <time>2015-10-18T01:12:41Z</time>
      </trkpt>
      <trkpt lat="45.90221" lon="2.78926">
        <ele>662</ele>
        <time>2015-10-18T01:14:41Z</time>
      </trkpt>
      <trkpt lat="45.90207" lon="2.7889">
        <ele>661</ele>
        <time>2015-10-18T01:16:41Z</time>
      </trkpt>
      <trkpt lat="45.90154" lon="2.7872">
        <ele>662</ele>
        <time>2015-10-18T01:18:41Z</time>
      </trkpt>
      <trkpt lat="45.90149" lon="2.78651">
        <ele>662</ele>
        <time>2015-10-18T01:20:41Z</time>
      </trkpt>
      <trkpt lat="45.9014" lon="2.78556">
        <ele>661</ele>
        <time>2015-10-18T01:22:41Z</time>
      </trkpt>
      <trkpt lat="45.90121" lon="2.78376">
        <ele>664</ele>
        <time>2015-10-18T01:24:41Z</time>
      </trkpt>
      <trkpt lat="45.90118" lon="2.78264">
        <ele>664</ele>
        <time>2015-10-18T01:26:41Z</time>
      </trkpt>
      <trkpt lat="45.90112" lon="2.78185">
        <ele>670</ele>
        <time>2015-10-18T01:28:41Z</time>
      </trkpt>
      <trkpt lat="45.90103" lon="2.78144">
        <ele>673</ele>
        <time>2015-10-18T01:30:41Z</time>
      </trkpt>
      <trkpt lat="45.90094" lon="2.78089">
        <ele>676</ele>
        <time>2015-10-18T01:32:41Z</time>
      </trkpt>
      <trkpt lat="45.90125" lon="2.78048">
        <ele>678</ele>
        <time>2015-10-18T01:34:41Z</time>
      </trkpt>
      <trkpt lat="45.90146" lon="2.78039">
        <ele>677</ele>
        <time>2015-10-18T01:36:41Z</time>
      </trkpt>
      <trkpt lat="45.90161" lon="2.78013">
        <ele>677</ele>
        <time>2015-10-18T01:38:41Z</time>
      </trkpt>
      <trkpt lat="45.90183" lon="2.77908">
        <ele>679</ele>
        <time>2015-10-18T01:40:41Z</time>
      </trkpt>
      <trkpt lat="45.90191" lon="2.77842">
        <ele>681</ele>
        <time>2015-10-18T01:42:41Z</time>
      </trkpt>
      <trkpt lat="45.90215" lon="2.77767">
        <ele>684</ele>
        <time>2015-10-18T01:44:41Z</time>
      </trkpt>
      <trkpt lat="45.90227" lon="2.77732">
        <ele>685</ele>
        <time>2015-10-18T01:46:41Z</time>
      </trkpt>
      <trkpt lat="45.90206" lon="2.77659">
        <ele>685</ele>
        <time>2015-10-18T01:48:41Z</time>
      </trkpt>
      <trkpt lat="45.90159" lon="2.77642">
        <ele>685</ele>
        <time>2015-10-18T01:50:41Z</time>
      </trkpt>
      <trkpt lat="45.90113" lon="2.77612">
        <ele>685</ele>
        <time>2015-10-18T01:52:41Z</time>
      </trkpt>
      <trkpt lat="45.90041" lon="2.77593">
        <ele>684</ele>
        <time>2015-10-18T01:54:41Z</time>
      </trkpt>
    </trkseg>
  </trk>
  <trk>
    <name><![CDATA[--Volvic-- OR-5366920:ser-jb01-l]]></name>
    <trkseg>
      <trkpt lat="45.87125" lon="3.02784">
        <ele>578</ele>
        <time>2015-10-17T12:38:30Z</time>
      </trkpt>
      <trkpt lat="45.87112" lon="3.02779">
        <ele>578</ele>
        <time>2015-10-17T12:40:30Z</time>
      </trkpt>
      <trkpt lat="45.87119" lon="3.02751">
        <ele>580</ele>
        <time>2015-10-17T12:42:30Z</time>
      </trkpt>
      <trkpt lat="45.87124" lon="3.02732">
        <ele>583</ele>
        <time>2015-10-17T12:44:30Z</time>
      </trkpt>
      <trkpt lat="45.8713" lon="3.02711">
        <ele>585</ele>
        <time>2015-10-17T12:46:30Z</time>
      </trkpt>
      <trkpt lat="45.87126" lon="3.0269">
        <ele>588</ele>
        <time>2015-10-17T12:48:30Z</time>
      </trkpt>
      <trkpt lat="45.87128" lon="3.0267">
        <ele>591</ele>
        <time>2015-10-17T12:50:30Z</time>
      </trkpt>
      <trkpt lat="45.87137" lon="3.02651">
        <ele>592</ele>
        <time>2015-10-17T12:52:30Z</time>
      </trkpt>
      <trkpt lat="45.87143" lon="3.02633">
        <ele>593</ele>
        <time>2015-10-17T12:54:30Z</time>
      </trkpt>
      <trkpt lat="45.87145" lon="3.02612">
        <ele>595</ele>
        <time>2015-10-17T12:56:30Z</time>
      </trkpt>
      <trkpt lat="45.87149" lon="3.02584">
        <ele>598</ele>
        <time>2015-10-17T12:58:30Z</time>
      </trkpt>
      <trkpt lat="45.8715" lon="3.02555">
        <ele>600</ele>
        <time>2015-10-17T13:00:30Z</time>
      </trkpt>
      <trkpt lat="45.8715" lon="3.02521">
        <ele>603</ele>
        <time>2015-10-17T13:02:30Z</time>
      </trkpt>
      <trkpt lat="45.87148" lon="3.02494">
        <ele>606</ele>
        <time>2015-10-17T13:04:30Z</time>
      </trkpt>
      <trkpt lat="45.87152" lon="3.02472">
        <ele>608</ele>
        <time>2015-10-17T13:06:30Z</time>
      </trkpt>
      <trkpt lat="45.87157" lon="3.02431">
        <ele>611</ele>
        <time>2015-10-17T13:08:30Z</time>
      </trkpt>
      <trkpt lat="45.87171" lon="3.02421">
        <ele>611</ele>
        <time>2015-10-17T13:10:30Z</time>
      </trkpt>
      <trkpt lat="45.87184" lon="3.02406">
        <ele>612</ele>
        <time>2015-10-17T13:12:30Z</time>
      </trkpt>
      <trkpt lat="45.87197" lon="3.0239">
        <ele>613</ele>
        <time>2015-10-17T13:14:30Z</time>
      </trkpt>
      <trkpt lat="45.87211" lon="3.02365">
        <ele>615</ele>
        <time>2015-10-17T13:16:30Z</time>
      </trkpt>
      <trkpt lat="45.87222" lon="3.02345">
        <ele>616</ele>
        <time>2015-10-17T13:18:30Z</time>
      </trkpt>
      <trkpt lat="45.87236" lon="3.02327">
        <ele>616</ele>
        <time>2015-10-17T13:20:30Z</time>
      </trkpt>
      <trkpt lat="45.87239" lon="3.02307">
        <ele>617</ele>
        <time>2015-10-17T13:22:30Z</time>
      </trkpt>
      <trkpt lat="45.87243" lon="3.02289">
        <ele>618</ele>
        <time>2015-10-17T13:24:30Z</time>
      </trkpt>
      <trkpt lat="45.87242" lon="3.02253">
        <ele>619</ele>
        <time>2015-10-17T13:26:30Z</time>
      </trkpt>
      <trkpt lat="45.87238" lon="3.02229">
        <ele>620</ele>
        <time>2015-10-17T13:28:30Z</time>
      </trkpt>
      <trkpt lat="45.87235" lon="3.02191">
        <ele>620</ele>
        <time>2015-10-17T13:30:30Z</time>
      </trkpt>
      <trkpt lat="45.87233" lon="3.02169">
        <ele>620</ele>
        <time>2015-10-17T13:32:30Z</time>
      </trkpt>
      <trkpt lat="45.87228" lon="3.0214">
        <ele>620</ele>
        <time>2015-10-17T13:34:30Z</time>
      </trkpt>
      <trkpt lat="45.87227" lon="3.02114">
        <ele>621</ele>
        <time>2015-10-17T13:36:30Z</time>
      </trkpt>
      <trkpt lat="45.87225" lon="3.02087">
        <ele>621</ele>
        <time>2015-10-17T13:38:30Z</time>
      </trkpt>
      <trkpt lat="45.87222" lon="3.02058">
        <ele>622</ele>
        <time>2015-10-17T13:40:30Z</time>
      </trkpt>
      <trkpt lat="45.87216" lon="3.02024">
        <ele>623</ele>
        <time>2015-10-17T13:42:30Z</time>
      </trkpt>
      <trkpt lat="45.87211" lon="3.02003">
        <ele>624</ele>
        <time>2015-10-17T13:44:30Z</time>
      </trkpt>
      <trkpt lat="45.87194" lon="3.01998">
        <ele>625</ele>
        <time>2015-10-17T13:46:30Z</time>
      </trkpt>
      <trkpt lat="45.87182" lon="3.01998">
        <ele>625</ele>
        <time>2015-10-17T13:48:30Z</time>
      </trkpt>
      <trkpt lat="45.87171" lon="3.01993">
        <ele>626</ele>
        <time>2015-10-17T13:50:30Z</time>
      </trkpt>
      <trkpt lat="45.87161" lon="3.01977">
        <ele>628</ele>
        <time>2015-10-17T13:52:30Z</time>
      </trkpt>
      <trkpt lat="45.87153" lon="3.01962">
        <ele>629</ele>
        <time>2015-10-17T13:54:30Z</time>
      </trkpt>
      <trkpt lat="45.87141" lon="3.01934">
        <ele>631</ele>
        <time>2015-10-17T13:56:30Z</time>
      </trkpt>
      <trkpt lat="45.87129" lon="3.01916">
        <ele>633</ele>
        <time>2015-10-17T13:58:30Z</time>
      </trkpt>
      <trkpt lat="45.8712" lon="3.01903">
        <ele>635</ele>
        <time>2015-10-17T14:00:30Z</time>
      </trkpt>
      <trkpt lat="45.87116" lon="3.01875">
        <ele>636</ele>
        <time>2015-10-17T14:02:30Z</time>
      </trkpt>
      <trkpt lat="45.87114" lon="3.01848">
        <ele>638</ele>
        <time>2015-10-17T14:04:30Z</time>
      </trkpt>
      <trkpt lat="45.87117" lon="3.01829">
        <ele>639</ele>
        <time>2015-10-17T14:06:30Z</time>
      </trkpt>
      <trkpt lat="45.87118" lon="3.01806">
        <ele>640</ele>
        <time>2015-10-17T14:08:30Z</time>
      </trkpt>
      <trkpt lat="45.87119" lon="3.01782">
        <ele>642</ele>
        <time>2015-10-17T14:10:30Z</time>
      </trkpt>
      <trkpt lat="45.87123" lon="3.01759">
        <ele>644</ele>
        <time>2015-10-17T14:12:30Z</time>
      </trkpt>
      <trkpt lat="45.87129" lon="3.01741">
        <ele>645</ele>
        <time>2015-10-17T14:14:30Z</time>
      </trkpt>
      <trkpt lat="45.87138" lon="3.01733">
        <ele>646</ele>
        <time>2015-10-17T14:16:30Z</time>
      </trkpt>
      <trkpt lat="45.87145" lon="3.01719">
        <ele>648</ele>
        <time>2015-10-17T14:18:30Z</time>
      </trkpt>
      <trkpt lat="45.87151" lon="3.01702">
        <ele>649</ele>
        <time>2015-10-17T14:20:30Z</time>
      </trkpt>
      <trkpt lat="45.87155" lon="3.01687">
        <ele>650</ele>
        <time>2015-10-17T14:22:30Z</time>
      </trkpt>
      <trkpt lat="45.87161" lon="3.01662">
        <ele>652</ele>
        <time>2015-10-17T14:24:30Z</time>
      </trkpt>
      <trkpt lat="45.87168" lon="3.01644">
        <ele>654</ele>
        <time>2015-10-17T14:26:30Z</time>
      </trkpt>
      <trkpt lat="45.87177" lon="3.01632">
        <ele>655</ele>
        <time>2015-10-17T14:28:30Z</time>
      </trkpt>
      <trkpt lat="45.8719" lon="3.01621">
        <ele>656</ele>
        <time>2015-10-17T14:30:30Z</time>
      </trkpt>
      <trkpt lat="45.87208" lon="3.01608">
        <ele>657</ele>
        <time>2015-10-17T14:32:30Z</time>
      </trkpt>
      <trkpt lat="45.8722" lon="3.01593">
        <ele>658</ele>
        <time>2015-10-17T14:34:30Z</time>
      </trkpt>
      <trkpt lat="45.87227" lon="3.01562">
        <ele>659</ele>
        <time>2015-10-17T14:36:30Z</time>
      </trkpt>
      <trkpt lat="45.87235" lon="3.01535">
        <ele>660</ele>
        <time>2015-10-17T14:38:30Z</time>
      </trkpt>
      <trkpt lat="45.8724" lon="3.01512">
        <ele>661</ele>
        <time>2015-10-17T14:40:30Z</time>
      </trkpt>
      <trkpt lat="45.87241" lon="3.01483">
        <ele>661</ele>
        <time>2015-10-17T14:42:30Z</time>
      </trkpt>
      <trkpt lat="45.87239" lon="3.01459">
        <ele>661</ele>
        <time>2015-10-17T14:44:30Z</time>
      </trkpt>
      <trkpt lat="45.87239" lon="3.01426">
        <ele>661</ele>
        <time>2015-10-17T14:46:30Z</time>
      </trkpt>
      <trkpt lat="45.87238" lon="3.01404">
        <ele>661</ele>
        <time>2015-10-17T14:48:30Z</time>
      </trkpt>
      <trkpt lat="45.8723" lon="3.01385">
        <ele>662</ele>
        <time>2015-10-17T14:50:30Z</time>
      </trkpt>
      <trkpt lat="45.87221" lon="3.01355">
        <ele>662</ele>
        <time>2015-10-17T14:52:30Z</time>
      </trkpt>
      <trkpt lat="45.87215" lon="3.01342">
        <ele>663</ele>
        <time>2015-10-17T14:54:30Z</time>
      </trkpt>
      <trkpt lat="45.87213" lon="3.01322">
        <ele>663</ele>
        <time>2015-10-17T14:56:30Z</time>
      </trkpt>
      <trkpt lat="45.8721" lon="3.01291">
        <ele>664</ele>
        <time>2015-10-17T14:58:30Z</time>
      </trkpt>
      <trkpt lat="45.8721" lon="3.0126">
        <ele>666</ele>
        <time>2015-10-17T15:00:30Z</time>
      </trkpt>
      <trkpt lat="45.87207" lon="3.01232">
        <ele>667</ele>
        <time>2015-10-17T15:02:30Z</time>
      </trkpt>
      <trkpt lat="45.87201" lon="3.01206">
        <ele>668</ele>
        <time>2015-10-17T15:04:30Z</time>
      </trkpt>
      <trkpt lat="45.87195" lon="3.01178">
        <ele>669</ele>
        <time>2015-10-17T15:06:30Z</time>
      </trkpt>
      <trkpt lat="45.87189" lon="3.01158">
        <ele>669</ele>
        <time>2015-10-17T15:08:30Z</time>
      </trkpt>
      <trkpt lat="45.8718" lon="3.01143">
        <ele>670</ele>
        <time>2015-10-17T15:10:30Z</time>
      </trkpt>
      <trkpt lat="45.87171" lon="3.01126">
        <ele>671</ele>
        <time>2015-10-17T15:12:30Z</time>
      </trkpt>
      <trkpt lat="45.87165" lon="3.011">
        <ele>672</ele>
        <time>2015-10-17T15:14:30Z</time>
      </trkpt>
      <trkpt lat="45.87156" lon="3.01068">
        <ele>674</ele>
        <time>2015-10-17T15:16:30Z</time>
      </trkpt>
      <trkpt lat="45.87155" lon="3.01033">
        <ele>676</ele>
        <time>2015-10-17T15:18:30Z</time>
      </trkpt>
      <trkpt lat="45.87151" lon="3.01005">
        <ele>677</ele>
        <time>2015-10-17T15:20:30Z</time>
      </trkpt>
      <trkpt lat="45.87148" lon="3.00977">
        <ele>679</ele>
        <time>2015-10-17T15:22:30Z</time>
      </trkpt>
      <trkpt lat="45.87148" lon="3.00943">
        <ele>681</ele>
        <time>2015-10-17T15:24:30Z</time>
      </trkpt>
      <trkpt lat="45.87146" lon="3.00913">
        <ele>683</ele>
        <time>2015-10-17T15:26:30Z</time>
      </trkpt>
      <trkpt lat="45.87142" lon="3.00892">
        <ele>684</ele>
        <time>2015-10-17T15:28:30Z</time>
      </trkpt>
      <trkpt lat="45.87133" lon="3.00853">
        <ele>685</ele>
        <time>2015-10-17T15:30:30Z</time>
      </trkpt>
      <trkpt lat="45.87127" lon="3.0083">
        <ele>687</ele>
        <time>2015-10-17T15:32:30Z</time>
      </trkpt>
      <trkpt lat="45.87121" lon="3.00807">
        <ele>688</ele>
        <time>2015-10-17T15:34:30Z</time>
      </trkpt>
      <trkpt lat="45.87114" lon="3.00781">
        <ele>689</ele>
        <time>2015-10-17T15:36:30Z</time>
      </trkpt>
      <trkpt lat="45.87101" lon="3.00768">
        <ele>690</ele>
        <time>2015-10-17T15:38:30Z</time>
      </trkpt>
      <trkpt lat="45.87086" lon="3.00763">
        <ele>690</ele>
        <time>2015-10-17T15:40:30Z</time>
      </trkpt>
      <trkpt lat="45.87071" lon="3.00761">
        <ele>692</ele>
        <time>2015-10-17T15:42:30Z</time>
      </trkpt>
      <trkpt lat="45.87053" lon="3.00759">
        <ele>693</ele>
        <time>2015-10-17T15:44:30Z</time>
      </trkpt>
      <trkpt lat="45.87049" lon="3.0074">
        <ele>695</ele>
        <time>2015-10-17T15:46:30Z</time>
      </trkpt>
      <trkpt lat="45.87042" lon="3.00714">
        <ele>698</ele>
        <time>2015-10-17T15:48:30Z</time>
      </trkpt>
      <trkpt lat="45.87043" lon="3.00688">
        <ele>700</ele>
        <time>2015-10-17T15:50:30Z</time>
      </trkpt>
      <trkpt lat="45.87043" lon="3.00664">
        <ele>702</ele>
        <time>2015-10-17T15:52:30Z</time>
      </trkpt>
      <trkpt lat="45.87038" lon="3.00641">
        <ele>704</ele>
        <time>2015-10-17T15:54:30Z</time>
      </trkpt>
      <trkpt lat="45.87045" lon="3.00616">
        <ele>706</ele>
        <time>2015-10-17T15:56:30Z</time>
      </trkpt>
      <trkpt lat="45.87051" lon="3.00604">
        <ele>707</ele>
        <time>2015-10-17T15:58:30Z</time>
      </trkpt>
      <trkpt lat="45.87063" lon="3.00596">
        <ele>708</ele>
        <time>2015-10-17T16:00:30Z</time>
      </trkpt>
      <trkpt lat="45.87076" lon="3.00587">
        <ele>708</ele>
        <time>2015-10-17T16:02:30Z</time>
      </trkpt>
      <trkpt lat="45.87084" lon="3.00576">
        <ele>709</ele>
        <time>2015-10-17T16:04:30Z</time>
      </trkpt>
      <trkpt lat="45.87091" lon="3.00557">
        <ele>710</ele>
        <time>2015-10-17T16:06:30Z</time>
      </trkpt>
      <trkpt lat="45.87093" lon="3.00535">
        <ele>712</ele>
        <time>2015-10-17T16:08:30Z</time>
      </trkpt>
      <trkpt lat="45.87089" lon="3.00498">
        <ele>715</ele>
        <time>2015-10-17T16:10:30Z</time>
      </trkpt>
      <trkpt lat="45.87091" lon="3.00465">
        <ele>716</ele>
        <time>2015-10-17T16:12:30Z</time>
      </trkpt>
      <trkpt lat="45.8709" lon="3.0043">
        <ele>718</ele>
        <time>2015-10-17T16:14:30Z</time>
      </trkpt>
      <trkpt lat="45.87089" lon="3.00398">
        <ele>718</ele>
        <time>2015-10-17T16:16:30Z</time>
      </trkpt>
      <trkpt lat="45.87087" lon="3.00361">
        <ele>718</ele>
        <time>2015-10-17T16:18:30Z</time>
      </trkpt>
      <trkpt lat="45.87086" lon="3.00321">
        <ele>718</ele>
        <time>2015-10-17T16:20:30Z</time>
      </trkpt>
      <trkpt lat="45.87086" lon="3.00285">
        <ele>719</ele>
        <time>2015-10-17T16:22:30Z</time>
      </trkpt>
      <trkpt lat="45.87084" lon="3.00249">
        <ele>720</ele>
        <time>2015-10-17T16:24:30Z</time>
      </trkpt>
      <trkpt lat="45.87085" lon="3.00214">
        <ele>722</ele>
        <time>2015-10-17T16:26:30Z</time>
      </trkpt>
      <trkpt lat="45.87083" lon="3.00182">
        <ele>723</ele>
        <time>2015-10-17T16:28:30Z</time>
      </trkpt>
      <trkpt lat="45.87083" lon="3.00156">
        <ele>724</ele>
        <time>2015-10-17T16:30:30Z</time>
      </trkpt>
      <trkpt lat="45.87083" lon="3.00125">
        <ele>725</ele>
        <time>2015-10-17T16:32:30Z</time>
      </trkpt>
      <trkpt lat="45.87083" lon="3.00101">
        <ele>726</ele>
        <time>2015-10-17T16:34:30Z</time>
      </trkpt>
      <trkpt lat="45.87083" lon="3.00057">
        <ele>728</ele>
        <time>2015-10-17T16:36:30Z</time>
      </trkpt>
      <trkpt lat="45.8708" lon="3.00021">
        <ele>731</ele>
        <time>2015-10-17T16:38:30Z</time>
      </trkpt>
      <trkpt lat="45.8708" lon="2.99983">
        <ele>734</ele>
        <time>2015-10-17T16:40:30Z</time>
      </trkpt>
      <trkpt lat="45.8708" lon="2.99906">
        <ele>739</ele>
        <time>2015-10-17T16:42:30Z</time>
      </trkpt>
      <trkpt lat="45.87081" lon="2.99865">
        <ele>742</ele>
        <time>2015-10-17T16:44:30Z</time>
      </trkpt>
      <trkpt lat="45.87078" lon="2.99834">
        <ele>744</ele>
        <time>2015-10-17T16:46:30Z</time>
      </trkpt>
      <trkpt lat="45.87074" lon="2.99795">
        <ele>746</ele>
        <time>2015-10-17T16:48:30Z</time>
      </trkpt>
      <trkpt lat="45.87075" lon="2.99739">
        <ele>749</ele>
        <time>2015-10-17T16:50:30Z</time>
      </trkpt>
      <trkpt lat="45.87075" lon="2.99712">
        <ele>750</ele>
        <time>2015-10-17T16:52:30Z</time>
      </trkpt>
      <trkpt lat="45.87082" lon="2.99679">
        <ele>751</ele>
        <time>2015-10-17T16:54:30Z</time>
      </trkpt>
      <trkpt lat="45.87083" lon="2.99641">
        <ele>754</ele>
        <time>2015-10-17T16:56:30Z</time>
      </trkpt>
      <trkpt lat="45.8708" lon="2.99595">
        <ele>756</ele>
        <time>2015-10-17T16:58:30Z</time>
      </trkpt>
      <trkpt lat="45.87082" lon="2.99555">
        <ele>759</ele>
        <time>2015-10-17T17:00:30Z</time>
      </trkpt>
      <trkpt lat="45.87083" lon="2.9953">
        <ele>761</ele>
        <time>2015-10-17T17:02:30Z</time>
      </trkpt>
      <trkpt lat="45.87089" lon="2.99481">
        <ele>766</ele>
        <time>2015-10-17T17:04:30Z</time>
      </trkpt>
      <trkpt lat="45.87091" lon="2.9945">
        <ele>770</ele>
        <time>2015-10-17T17:06:30Z</time>
      </trkpt>
      <trkpt lat="45.87082" lon="2.99418">
        <ele>773</ele>
        <time>2015-10-17T17:08:30Z</time>
      </trkpt>
      <trkpt lat="45.87098" lon="2.9941">
        <ele>774</ele>
        <time>2015-10-17T17:10:30Z</time>
      </trkpt>
      <trkpt lat="45.87114" lon="2.99398">
        <ele>775</ele>
        <time>2015-10-17T17:12:30Z</time>
      </trkpt>
      <trkpt lat="45.87125" lon="2.99389">
        <ele>775</ele>
        <time>2015-10-17T17:14:30Z</time>
      </trkpt>
      <trkpt lat="45.87142" lon="2.99374">
        <ele>776</ele>
        <time>2015-10-17T17:16:30Z</time>
      </trkpt>
      <trkpt lat="45.87151" lon="2.99361">
        <ele>776</ele>
        <time>2015-10-17T17:18:30Z</time>
      </trkpt>
      <trkpt lat="45.87163" lon="2.99343">
        <ele>777</ele>
        <time>2015-10-17T17:20:30Z</time>
      </trkpt>
      <trkpt lat="45.87166" lon="2.99325">
        <ele>777</ele>
        <time>2015-10-17T17:22:30Z</time>
      </trkpt>
      <trkpt lat="45.8716" lon="2.99291">
        <ele>779</ele>
        <time>2015-10-17T17:24:30Z</time>
      </trkpt>
      <trkpt lat="45.87154" lon="2.99267">
        <ele>780</ele>
        <time>2015-10-17T17:26:30Z</time>
      </trkpt>
      <trkpt lat="45.87148" lon="2.99248">
        <ele>781</ele>
        <time>2015-10-17T17:28:30Z</time>
      </trkpt>
      <trkpt lat="45.87137" lon="2.99232">
        <ele>782</ele>
        <time>2015-10-17T17:30:30Z</time>
      </trkpt>
      <trkpt lat="45.87127" lon="2.9921">
        <ele>783</ele>
        <time>2015-10-17T17:32:30Z</time>
      </trkpt>
      <trkpt lat="45.8712" lon="2.99186">
        <ele>785</ele>
        <time>2015-10-17T17:34:30Z</time>
      </trkpt>
      <trkpt lat="45.87113" lon="2.9916">
        <ele>786</ele>
        <time>2015-10-17T17:36:30Z</time>
      </trkpt>
      <trkpt lat="45.87118" lon="2.99133">
        <ele>788</ele>
        <time>2015-10-17T17:38:30Z</time>
      </trkpt>
      <trkpt lat="45.87134" lon="2.991">
        <ele>790</ele>
        <time>2015-10-17T17:40:30Z</time>
      </trkpt>
      <trkpt lat="45.87148" lon="2.99079">
        <ele>791</ele>
        <time>2015-10-17T17:42:30Z</time>
      </trkpt>
      <trkpt lat="45.87179" lon="2.99041">
        <ele>790</ele>
        <time>2015-10-17T17:44:30Z</time>
      </trkpt>
      <trkpt lat="45.872" lon="2.99024">
        <ele>788</ele>
        <time>2015-10-17T17:46:30Z</time>
      </trkpt>
      <trkpt lat="45.87219" lon="2.99014">
        <ele>787</ele>
        <time>2015-10-17T17:48:30Z</time>
      </trkpt>
      <trkpt lat="45.87235" lon="2.99007">
        <ele>785</ele>
        <time>2015-10-17T17:50:30Z</time>
      </trkpt>
      <trkpt lat="45.87248" lon="2.99012">
        <ele>784</ele>
        <time>2015-10-17T17:52:30Z</time>
      </trkpt>
      <trkpt lat="45.87262" lon="2.99011">
        <ele>784</ele>
        <time>2015-10-17T17:54:30Z</time>
      </trkpt>
      <trkpt lat="45.87269" lon="2.98994">
        <ele>784</ele>
        <time>2015-10-17T17:56:30Z</time>
      </trkpt>
      <trkpt lat="45.87262" lon="2.98963">
        <ele>785</ele>
        <time>2015-10-17T17:58:30Z</time>
      </trkpt>
      <trkpt lat="45.8726" lon="2.98928">
        <ele>787</ele>
        <time>2015-10-17T18:00:30Z</time>
      </trkpt>
      <trkpt lat="45.87258" lon="2.98905">
        <ele>788</ele>
        <time>2015-10-17T18:02:30Z</time>
      </trkpt>
      <trkpt lat="45.87264" lon="2.98868">
        <ele>787</ele>
        <time>2015-10-17T18:04:30Z</time>
      </trkpt>
      <trkpt lat="45.87268" lon="2.98841">
        <ele>787</ele>
        <time>2015-10-17T18:06:30Z</time>
      </trkpt>
      <trkpt lat="45.87269" lon="2.9882">
        <ele>788</ele>
        <time>2015-10-17T18:08:30Z</time>
      </trkpt>
      <trkpt lat="45.87272" lon="2.98786">
        <ele>788</ele>
        <time>2015-10-17T18:10:30Z</time>
      </trkpt>
      <trkpt lat="45.87269" lon="2.98742">
        <ele>789</ele>
        <time>2015-10-17T18:12:30Z</time>
      </trkpt>
      <trkpt lat="45.87264" lon="2.98699">
        <ele>791</ele>
        <time>2015-10-17T18:14:30Z</time>
      </trkpt>
      <trkpt lat="45.87263" lon="2.98662">
        <ele>793</ele>
        <time>2015-10-17T18:16:30Z</time>
      </trkpt>
      <trkpt lat="45.87267" lon="2.98634">
        <ele>793</ele>
        <time>2015-10-17T18:18:30Z</time>
      </trkpt>
      <trkpt lat="45.87274" lon="2.98614">
        <ele>793</ele>
        <time>2015-10-17T18:20:30Z</time>
      </trkpt>
      <trkpt lat="45.87281" lon="2.98595">
        <ele>793</ele>
        <time>2015-10-17T18:22:30Z</time>
      </trkpt>
      <trkpt lat="45.87289" lon="2.98565">
        <ele>793</ele>
        <time>2015-10-17T18:24:30Z</time>
      </trkpt>
      <trkpt lat="45.87278" lon="2.98547">
        <ele>794</ele>
        <time>2015-10-17T18:26:30Z</time>
      </trkpt>
      <trkpt lat="45.87266" lon="2.98531">
        <ele>795</ele>
        <time>2015-10-17T18:28:30Z</time>
      </trkpt>
      <trkpt lat="45.87254" lon="2.98515">
        <ele>796</ele>
        <time>2015-10-17T18:30:30Z</time>
      </trkpt>
      <trkpt lat="45.87244" lon="2.98499">
        <ele>796</ele>
        <time>2015-10-17T18:32:30Z</time>
      </trkpt>
      <trkpt lat="45.87245" lon="2.98478">
        <ele>797</ele>
        <time>2015-10-17T18:34:30Z</time>
      </trkpt>
      <trkpt lat="45.87249" lon="2.98458">
        <ele>798</ele>
        <time>2015-10-17T18:36:30Z</time>
      </trkpt>
      <trkpt lat="45.87245" lon="2.98441">
        <ele>799</ele>
        <time>2015-10-17T18:38:30Z</time>
      </trkpt>
      <trkpt lat="45.87233" lon="2.98417">
        <ele>802</ele>
        <time>2015-10-17T18:40:30Z</time>
      </trkpt>
      <trkpt lat="45.87225" lon="2.98383">
        <ele>803</ele>
        <time>2015-10-17T18:42:30Z</time>
      </trkpt>
      <trkpt lat="45.87223" lon="2.98357">
        <ele>804</ele>
        <time>2015-10-17T18:44:30Z</time>
      </trkpt>
      <trkpt lat="45.87226" lon="2.98326">
        <ele>805</ele>
        <time>2015-10-17T18:46:30Z</time>
      </trkpt>
      <trkpt lat="45.87225" lon="2.98295">
        <ele>805</ele>
        <time>2015-10-17T18:48:30Z</time>
      </trkpt>
      <trkpt lat="45.87219" lon="2.98274">
        <ele>806</ele>
        <time>2015-10-17T18:50:30Z</time>
      </trkpt>
      <trkpt lat="45.87208" lon="2.98243">
        <ele>807</ele>
        <time>2015-10-17T18:52:30Z</time>
      </trkpt>
      <trkpt lat="45.87198" lon="2.98217">
        <ele>808</ele>
        <time>2015-10-17T18:54:30Z</time>
      </trkpt>
      <trkpt lat="45.87187" lon="2.98179">
        <ele>809</ele>
        <time>2015-10-17T18:56:30Z</time>
      </trkpt>
      <trkpt lat="45.87175" lon="2.98144">
        <ele>810</ele>
        <time>2015-10-17T18:58:30Z</time>
      </trkpt>
      <trkpt lat="45.87166" lon="2.98125">
        <ele>810</ele>
        <time>2015-10-17T19:00:30Z</time>
      </trkpt>
      <trkpt lat="45.87153" lon="2.98107">
        <ele>811</ele>
        <time>2015-10-17T19:02:30Z</time>
      </trkpt>
      <trkpt lat="45.87135" lon="2.98089">
        <ele>812</ele>
        <time>2015-10-17T19:04:30Z</time>
      </trkpt>
      <trkpt lat="45.87136" lon="2.98111">
        <ele>812</ele>
        <time>2015-10-17T19:06:30Z</time>
      </trkpt>
      <trkpt lat="45.87132" lon="2.98136">
        <ele>812</ele>
        <time>2015-10-17T19:08:30Z</time>
      </trkpt>
      <trkpt lat="45.87111" lon="2.98176">
        <ele>814</ele>
        <time>2015-10-17T19:10:30Z</time>
      </trkpt>
      <trkpt lat="45.87098" lon="2.98188">
        <ele>815</ele>
        <time>2015-10-17T19:12:30Z</time>
      </trkpt>
      <trkpt lat="45.8708" lon="2.98197">
        <ele>816</ele>
        <time>2015-10-17T19:14:30Z</time>
      </trkpt>
      <trkpt lat="45.87061" lon="2.98205">
        <ele>816</ele>
        <time>2015-10-17T19:16:30Z</time>
      </trkpt>
      <trkpt lat="45.87039" lon="2.98208">
        <ele>816</ele>
        <time>2015-10-17T19:18:30Z</time>
      </trkpt>
      <trkpt lat="45.87015" lon="2.98218">
        <ele>815</ele>
        <time>2015-10-17T19:20:30Z</time>
      </trkpt>
      <trkpt lat="45.86994" lon="2.98226">
        <ele>815</ele>
        <time>2015-10-17T19:22:30Z</time>
      </trkpt>
      <trkpt lat="45.86955" lon="2.98242">
        <ele>815</ele>
        <time>2015-10-17T19:24:30Z</time>
      </trkpt>
      <trkpt lat="45.86935" lon="2.98249">
        <ele>814</ele>
        <time>2015-10-17T19:26:30Z</time>
      </trkpt>
      <trkpt lat="45.86921" lon="2.98258">
        <ele>814</ele>
        <time>2015-10-17T19:28:30Z</time>
      </trkpt>
      <trkpt lat="45.86898" lon="2.98279">
        <ele>815</ele>
        <time>2015-10-17T19:30:30Z</time>
      </trkpt>
      <trkpt lat="45.86882" lon="2.98297">
        <ele>815</ele>
        <time>2015-10-17T19:32:30Z</time>
      </trkpt>
      <trkpt lat="45.86861" lon="2.98315">
        <ele>816</ele>
        <time>2015-10-17T19:34:30Z</time>
      </trkpt>
      <trkpt lat="45.86842" lon="2.98327">
        <ele>817</ele>
        <time>2015-10-17T19:36:30Z</time>
      </trkpt>
      <trkpt lat="45.86823" lon="2.98332">
        <ele>818</ele>
        <time>2015-10-17T19:38:30Z</time>
      </trkpt>
      <trkpt lat="45.86808" lon="2.98345">
        <ele>820</ele>
        <time>2015-10-17T19:40:30Z</time>
      </trkpt>
      <trkpt lat="45.86793" lon="2.98359">
        <ele>822</ele>
        <time>2015-10-17T19:42:30Z</time>
      </trkpt>
      <trkpt lat="45.86764" lon="2.98402">
        <ele>825</ele>
        <time>2015-10-17T19:44:30Z</time>
      </trkpt>
      <trkpt lat="45.86758" lon="2.9843">
        <ele>825</ele>
        <time>2015-10-17T19:46:30Z</time>
      </trkpt>
      <trkpt lat="45.86753" lon="2.9846">
        <ele>825</ele>
        <time>2015-10-17T19:48:30Z</time>
      </trkpt>
      <trkpt lat="45.86746" lon="2.9848">
        <ele>825</ele>
        <time>2015-10-17T19:50:30Z</time>
      </trkpt>
      <trkpt lat="45.86735" lon="2.98503">
        <ele>827</ele>
        <time>2015-10-17T19:52:30Z</time>
      </trkpt>
      <trkpt lat="45.86722" lon="2.98521">
        <ele>829</ele>
        <time>2015-10-17T19:54:30Z</time>
      </trkpt>
      <trkpt lat="45.86707" lon="2.9854">
        <ele>832</ele>
        <time>2015-10-17T19:56:30Z</time>
      </trkpt>
      <trkpt lat="45.86693" lon="2.9856">
        <ele>834</ele>
        <time>2015-10-17T19:58:30Z</time>
      </trkpt>
      <trkpt lat="45.86683" lon="2.98573">
        <ele>836</ele>
        <time>2015-10-17T20:00:30Z</time>
      </trkpt>
      <trkpt lat="45.86666" lon="2.98585">
        <ele>839</ele>
        <time>2015-10-17T20:02:30Z</time>
      </trkpt>
      <trkpt lat="45.86649" lon="2.98602">
        <ele>845</ele>
        <time>2015-10-17T20:04:30Z</time>
      </trkpt>
      <trkpt lat="45.86643" lon="2.98625">
        <ele>846</ele>
        <time>2015-10-17T20:06:30Z</time>
      </trkpt>
      <trkpt lat="45.86632" lon="2.98644">
        <ele>849</ele>
        <time>2015-10-17T20:08:30Z</time>
      </trkpt>
      <trkpt lat="45.86611" lon="2.98666">
        <ele>853</ele>
        <time>2015-10-17T20:10:30Z</time>
      </trkpt>
      <trkpt lat="45.86595" lon="2.98676">
        <ele>855</ele>
        <time>2015-10-17T20:12:30Z</time>
      </trkpt>
      <trkpt lat="45.86573" lon="2.98673">
        <ele>859</ele>
        <time>2015-10-17T20:14:30Z</time>
      </trkpt>
      <trkpt lat="45.86549" lon="2.98655">
        <ele>864</ele>
        <time>2015-10-17T20:16:30Z</time>
      </trkpt>
      <trkpt lat="45.86524" lon="2.98651">
        <ele>868</ele>
        <time>2015-10-17T20:18:30Z</time>
      </trkpt>
      <trkpt lat="45.86498" lon="2.98641">
        <ele>873</ele>
        <time>2015-10-17T20:20:30Z</time>
      </trkpt>
      <trkpt lat="45.86477" lon="2.98639">
        <ele>876</ele>
        <time>2015-10-17T20:22:30Z</time>
      </trkpt>
      <trkpt lat="45.86459" lon="2.98636">
        <ele>878</ele>
        <time>2015-10-17T20:24:30Z</time>
      </trkpt>
      <trkpt lat="45.86442" lon="2.98629">
        <ele>881</ele>
        <time>2015-10-17T20:26:30Z</time>
      </trkpt>
      <trkpt lat="45.86424" lon="2.98628">
        <ele>884</ele>
        <time>2015-10-17T20:28:30Z</time>
      </trkpt>
      <trkpt lat="45.86412" lon="2.98636">
        <ele>885</ele>
        <time>2015-10-17T20:30:30Z</time>
      </trkpt>
      <trkpt lat="45.86398" lon="2.98634">
        <ele>888</ele>
        <time>2015-10-17T20:32:30Z</time>
      </trkpt>
      <trkpt lat="45.86381" lon="2.98634">
        <ele>893</ele>
        <time>2015-10-17T20:34:30Z</time>
      </trkpt>
      <trkpt lat="45.86362" lon="2.98638">
        <ele>897</ele>
        <time>2015-10-17T20:36:30Z</time>
      </trkpt>
      <trkpt lat="45.86347" lon="2.98652">
        <ele>897</ele>
        <time>2015-10-17T20:38:30Z</time>
      </trkpt>
      <trkpt lat="45.86337" lon="2.98668">
        <ele>896</ele>
        <time>2015-10-17T20:40:30Z</time>
      </trkpt>
      <trkpt lat="45.86319" lon="2.98681">
        <ele>902</ele>
        <time>2015-10-17T20:42:30Z</time>
      </trkpt>
      <trkpt lat="45.86293" lon="2.98673">
        <ele>913</ele>
        <time>2015-10-17T20:44:30Z</time>
      </trkpt>
      <trkpt lat="45.8627" lon="2.98663">
        <ele>923</ele>
        <time>2015-10-17T20:46:30Z</time>
      </trkpt>
      <trkpt lat="45.86252" lon="2.98656">
        <ele>931</ele>
        <time>2015-10-17T20:48:30Z</time>
      </trkpt>
      <trkpt lat="45.86235" lon="2.98648">
        <ele>935</ele>
        <time>2015-10-17T20:50:30Z</time>
      </trkpt>
      <trkpt lat="45.86225" lon="2.98646">
        <ele>936</ele>
        <time>2015-10-17T20:52:30Z</time>
      </trkpt>
      <trkpt lat="45.86205" lon="2.98627">
        <ele>938</ele>
        <time>2015-10-17T20:54:30Z</time>
      </trkpt>
      <trkpt lat="45.86176" lon="2.98607">
        <ele>938</ele>
        <time>2015-10-17T20:56:30Z</time>
      </trkpt>
      <trkpt lat="45.86164" lon="2.98589">
        <ele>935</ele>
        <time>2015-10-17T20:58:30Z</time>
      </trkpt>
      <trkpt lat="45.86152" lon="2.98575">
        <ele>935</ele>
        <time>2015-10-17T21:00:30Z</time>
      </trkpt>
      <trkpt lat="45.86139" lon="2.98562">
        <ele>935</ele>
        <time>2015-10-17T21:02:30Z</time>
      </trkpt>
      <trkpt lat="45.86115" lon="2.98555">
        <ele>933</ele>
        <time>2015-10-17T21:04:30Z</time>
      </trkpt>
      <trkpt lat="45.86087" lon="2.98548">
        <ele>931</ele>
        <time>2015-10-17T21:06:30Z</time>
      </trkpt>
      <trkpt lat="45.86055" lon="2.98546">
        <ele>935</ele>
        <time>2015-10-17T21:08:30Z</time>
      </trkpt>
      <trkpt lat="45.86037" lon="2.98547">
        <ele>937</ele>
        <time>2015-10-17T21:10:30Z</time>
      </trkpt>
      <trkpt lat="45.86019" lon="2.98563">
        <ele>937</ele>
        <time>2015-10-17T21:12:30Z</time>
      </trkpt>
      <trkpt lat="45.86007" lon="2.98588">
        <ele>936</ele>
        <time>2015-10-17T21:14:30Z</time>
      </trkpt>
      <trkpt lat="45.85996" lon="2.9862">
        <ele>940</ele>
        <time>2015-10-17T21:16:30Z</time>
      </trkpt>
      <trkpt lat="45.85987" lon="2.98648">
        <ele>944</ele>
        <time>2015-10-17T21:18:30Z</time>
      </trkpt>
      <trkpt lat="45.85963" lon="2.98685">
        <ele>949</ele>
        <time>2015-10-17T21:20:30Z</time>
      </trkpt>
      <trkpt lat="45.8595" lon="2.98697">
        <ele>951</ele>
        <time>2015-10-17T21:22:30Z</time>
      </trkpt>
      <trkpt lat="45.85941" lon="2.98705">
        <ele>952</ele>
        <time>2015-10-17T21:24:30Z</time>
      </trkpt>
      <trkpt lat="45.85932" lon="2.98674">
        <ele>952</ele>
        <time>2015-10-17T21:26:30Z</time>
      </trkpt>
      <trkpt lat="45.85922" lon="2.98653">
        <ele>954</ele>
        <time>2015-10-17T21:28:30Z</time>
      </trkpt>
      <trkpt lat="45.85919" lon="2.98626">
        <ele>955</ele>
        <time>2015-10-17T21:30:30Z</time>
      </trkpt>
      <trkpt lat="45.85919" lon="2.98602">
        <ele>957</ele>
        <time>2015-10-17T21:32:30Z</time>
      </trkpt>
      <trkpt lat="45.85909" lon="2.9859">
        <ele>956</ele>
        <time>2015-10-17T21:34:30Z</time>
      </trkpt>
      <trkpt lat="45.85903" lon="2.98559">
        <ele>958</ele>
        <time>2015-10-17T21:36:30Z</time>
      </trkpt>
      <trkpt lat="45.85896" lon="2.9853">
        <ele>960</ele>
        <time>2015-10-17T21:38:30Z</time>
      </trkpt>
      <trkpt lat="45.85887" lon="2.98481">
        <ele>963</ele>
        <time>2015-10-17T21:40:30Z</time>
      </trkpt>
      <trkpt lat="45.85881" lon="2.98451">
        <ele>963</ele>
        <time>2015-10-17T21:42:30Z</time>
      </trkpt>
      <trkpt lat="45.85883" lon="2.9843">
        <ele>965</ele>
        <time>2015-10-17T21:44:30Z</time>
      </trkpt>
      <trkpt lat="45.85861" lon="2.98413">
        <ele>959</ele>
        <time>2015-10-17T21:46:30Z</time>
      </trkpt>
      <trkpt lat="45.85842" lon="2.98389">
        <ele>952</ele>
        <time>2015-10-17T21:48:30Z</time>
      </trkpt>
      <trkpt lat="45.85825" lon="2.98363">
        <ele>947</ele>
        <time>2015-10-17T21:50:30Z</time>
      </trkpt>
      <trkpt lat="45.85814" lon="2.98343">
        <ele>943</ele>
        <time>2015-10-17T21:52:30Z</time>
      </trkpt>
      <trkpt lat="45.85801" lon="2.98304">
        <ele>936</ele>
        <time>2015-10-17T21:54:30Z</time>
      </trkpt>
      <trkpt lat="45.85799" lon="2.98257">
        <ele>931</ele>
        <time>2015-10-17T21:56:30Z</time>
      </trkpt>
      <trkpt lat="45.85801" lon="2.98223">
        <ele>929</ele>
        <time>2015-10-17T21:58:30Z</time>
      </trkpt>
      <trkpt lat="45.85806" lon="2.98209">
        <ele>929</ele>
        <time>2015-10-17T22:00:30Z</time>
      </trkpt>
      <trkpt lat="45.85821" lon="2.98192">
        <ele>931</ele>
        <time>2015-10-17T22:02:30Z</time>
      </trkpt>
      <trkpt lat="45.85841" lon="2.98171">
        <ele>933</ele>
        <time>2015-10-17T22:04:30Z</time>
      </trkpt>
      <trkpt lat="45.85857" lon="2.98151">
        <ele>930</ele>
        <time>2015-10-17T22:06:30Z</time>
      </trkpt>
      <trkpt lat="45.85869" lon="2.98136">
        <ele>928</ele>
        <time>2015-10-17T22:08:30Z</time>
      </trkpt>
      <trkpt lat="45.85874" lon="2.98123">
        <ele>925</ele>
        <time>2015-10-17T22:10:30Z</time>
      </trkpt>
      <trkpt lat="45.85872" lon="2.98106">
        <ele>921</ele>
        <time>2015-10-17T22:12:30Z</time>
      </trkpt>
      <trkpt lat="45.8586" lon="2.98079">
        <ele>915</ele>
        <time>2015-10-17T22:14:30Z</time>
      </trkpt>
      <trkpt lat="45.85848" lon="2.98066">
        <ele>912</ele>
        <time>2015-10-17T22:16:30Z</time>
      </trkpt>
      <trkpt lat="45.8583" lon="2.98053">
        <ele>908</ele>
        <time>2015-10-17T22:18:30Z</time>
      </trkpt>
      <trkpt lat="45.85812" lon="2.98039">
        <ele>903</ele>
        <time>2015-10-17T22:20:30Z</time>
      </trkpt>
      <trkpt lat="45.85795" lon="2.9803">
        <ele>899</ele>
        <time>2015-10-17T22:22:30Z</time>
      </trkpt>
      <trkpt lat="45.85783" lon="2.98028">
        <ele>898</ele>
        <time>2015-10-17T22:24:30Z</time>
      </trkpt>
      <trkpt lat="45.85768" lon="2.98038">
        <ele>898</ele>
        <time>2015-10-17T22:26:30Z</time>
      </trkpt>
      <trkpt lat="45.85755" lon="2.98025">
        <ele>895</ele>
        <time>2015-10-17T22:28:30Z</time>
      </trkpt>
      <trkpt lat="45.85739" lon="2.98031">
        <ele>894</ele>
        <time>2015-10-17T22:30:30Z</time>
      </trkpt>
      <trkpt lat="45.85725" lon="2.98039">
        <ele>893</ele>
        <time>2015-10-17T22:32:30Z</time>
      </trkpt>
      <trkpt lat="45.85715" lon="2.9806">
        <ele>894</ele>
        <time>2015-10-17T22:34:30Z</time>
      </trkpt>
      <trkpt lat="45.85698" lon="2.98074">
        <ele>892</ele>
        <time>2015-10-17T22:36:30Z</time>
      </trkpt>
      <trkpt lat="45.85679" lon="2.98091">
        <ele>890</ele>
        <time>2015-10-17T22:38:30Z</time>
      </trkpt>
      <trkpt lat="45.85665" lon="2.98109">
        <ele>888</ele>
        <time>2015-10-17T22:40:30Z</time>
      </trkpt>
      <trkpt lat="45.85651" lon="2.98114">
        <ele>887</ele>
        <time>2015-10-17T22:42:30Z</time>
      </trkpt>
      <trkpt lat="45.85662" lon="2.98062">
        <ele>888</ele>
        <time>2015-10-17T22:44:30Z</time>
      </trkpt>
      <trkpt lat="45.85661" lon="2.98045">
        <ele>888</ele>
        <time>2015-10-17T22:46:30Z</time>
      </trkpt>
      <trkpt lat="45.8565" lon="2.98019">
        <ele>889</ele>
        <time>2015-10-17T22:48:30Z</time>
      </trkpt>
      <trkpt lat="45.85628" lon="2.97962">
        <ele>893</ele>
        <time>2015-10-17T22:50:30Z</time>
      </trkpt>
      <trkpt lat="45.85612" lon="2.9795">
        <ele>895</ele>
        <time>2015-10-17T22:52:30Z</time>
      </trkpt>
      <trkpt lat="45.85598" lon="2.97946">
        <ele>897</ele>
        <time>2015-10-17T22:54:30Z</time>
      </trkpt>
      <trkpt lat="45.85579" lon="2.97912">
        <ele>900</ele>
        <time>2015-10-17T22:56:30Z</time>
      </trkpt>
      <trkpt lat="45.85559" lon="2.97894">
        <ele>903</ele>
        <time>2015-10-17T22:58:30Z</time>
      </trkpt>
      <trkpt lat="45.85525" lon="2.97874">
        <ele>908</ele>
        <time>2015-10-17T23:00:30Z</time>
      </trkpt>
      <trkpt lat="45.85495" lon="2.97843">
        <ele>910</ele>
        <time>2015-10-17T23:02:30Z</time>
      </trkpt>
      <trkpt lat="45.8545" lon="2.97829">
        <ele>915</ele>
        <time>2015-10-17T23:04:30Z</time>
      </trkpt>
      <trkpt lat="45.85436" lon="2.97817">
        <ele>916</ele>
        <time>2015-10-17T23:06:30Z</time>
      </trkpt>
      <trkpt lat="45.85402" lon="2.97802">
        <ele>919</ele>
        <time>2015-10-17T23:08:30Z</time>
      </trkpt>
      <trkpt lat="45.85374" lon="2.97795">
        <ele>920</ele>
        <time>2015-10-17T23:10:30Z</time>
      </trkpt>
      <trkpt lat="45.85339" lon="2.97735">
        <ele>927</ele>
        <time>2015-10-17T23:12:30Z</time>
      </trkpt>
      <trkpt lat="45.85316" lon="2.9769">
        <ele>932</ele>
        <time>2015-10-17T23:14:30Z</time>
      </trkpt>
      <trkpt lat="45.85295" lon="2.97661">
        <ele>934</ele>
        <time>2015-10-17T23:16:30Z</time>
      </trkpt>
      <trkpt lat="45.85268" lon="2.97629">
        <ele>937</ele>
        <time>2015-10-17T23:18:30Z</time>
      </trkpt>
      <trkpt lat="45.85253" lon="2.97603">
        <ele>939</ele>
        <time>2015-10-17T23:20:30Z</time>
      </trkpt>
      <trkpt lat="45.85239" lon="2.97577">
        <ele>943</ele>
        <time>2015-10-17T23:22:30Z</time>
      </trkpt>
      <trkpt lat="45.85224" lon="2.9755">
        <ele>948</ele>
        <time>2015-10-17T23:24:30Z</time>
      </trkpt>
      <trkpt lat="45.85201" lon="2.97498">
        <ele>959</ele>
        <time>2015-10-17T23:26:30Z</time>
      </trkpt>
      <trkpt lat="45.85173" lon="2.97463">
        <ele>965</ele>
        <time>2015-10-17T23:28:30Z</time>
      </trkpt>
      <trkpt lat="45.85154" lon="2.9743">
        <ele>972</ele>
        <time>2015-10-17T23:30:30Z</time>
      </trkpt>
      <trkpt lat="45.85139" lon="2.97399">
        <ele>978</ele>
        <time>2015-10-17T23:32:30Z</time>
      </trkpt>
      <trkpt lat="45.85126" lon="2.97377">
        <ele>983</ele>
        <time>2015-10-17T23:34:30Z</time>
      </trkpt>
      <trkpt lat="45.85085" lon="2.97352">
        <ele>987</ele>
        <time>2015-10-17T23:36:30Z</time>
      </trkpt>
      <trkpt lat="45.85099" lon="2.97317">
        <ele>994</ele>
        <time>2015-10-17T23:38:30Z</time>
      </trkpt>
      <trkpt lat="45.85116" lon="2.97294">
        <ele>997</ele>
        <time>2015-10-17T23:40:30Z</time>
      </trkpt>
      <trkpt lat="45.85133" lon="2.97272">
        <ele>1000</ele>
        <time>2015-10-17T23:42:30Z</time>
      </trkpt>
      <trkpt lat="45.85154" lon="2.97256">
        <ele>1001</ele>
        <time>2015-10-17T23:44:30Z</time>
      </trkpt>
      <trkpt lat="45.85163" lon="2.97241">
        <ele>1002</ele>
        <time>2015-10-17T23:46:30Z</time>
      </trkpt>
      <trkpt lat="45.85178" lon="2.97197">
        <ele>1003</ele>
        <time>2015-10-17T23:48:30Z</time>
      </trkpt>
      <trkpt lat="45.85196" lon="2.97161">
        <ele>1005</ele>
        <time>2015-10-17T23:50:30Z</time>
      </trkpt>
      <trkpt lat="45.85209" lon="2.97137">
        <ele>1006</ele>
        <time>2015-10-17T23:52:30Z</time>
      </trkpt>
      <trkpt lat="45.85217" lon="2.97106">
        <ele>1007</ele>
        <time>2015-10-17T23:54:30Z</time>
      </trkpt>
      <trkpt lat="45.85233" lon="2.97052">
        <ele>1008</ele>
        <time>2015-10-17T23:56:30Z</time>
      </trkpt>
      <trkpt lat="45.85243" lon="2.97032">
        <ele>1009</ele>
        <time>2015-10-17T23:58:30Z</time>
      </trkpt>
      <trkpt lat="45.85247" lon="2.97002">
        <ele>1010</ele>
        <time>2015-10-18T00:00:30Z</time>
      </trkpt>
      <trkpt lat="45.85251" lon="2.96963">
        <ele>1012</ele>
        <time>2015-10-18T00:02:30Z</time>
      </trkpt>
      <trkpt lat="45.85251" lon="2.96922">
        <ele>1015</ele>
        <time>2015-10-18T00:04:30Z</time>
      </trkpt>
      <trkpt lat="45.85249" lon="2.96904">
        <ele>1015</ele>
        <time>2015-10-18T00:06:30Z</time>
      </trkpt>
      <trkpt lat="45.85239" lon="2.96877">
        <ele>1017</ele>
        <time>2015-10-18T00:08:30Z</time>
      </trkpt>
      <trkpt lat="45.85235" lon="2.96854">
        <ele>1019</ele>
        <time>2015-10-18T00:10:30Z</time>
      </trkpt>
      <trkpt lat="45.85239" lon="2.96822">
        <ele>1019</ele>
        <time>2015-10-18T00:12:30Z</time>
      </trkpt>
      <trkpt lat="45.85242" lon="2.96795">
        <ele>1020</ele>
        <time>2015-10-18T00:14:30Z</time>
      </trkpt>
      <trkpt lat="45.85248" lon="2.96771">
        <ele>1020</ele>
        <time>2015-10-18T00:16:30Z</time>
      </trkpt>
      <trkpt lat="45.85261" lon="2.96756">
        <ele>1018</ele>
        <time>2015-10-18T00:18:30Z</time>
      </trkpt>
      <trkpt lat="45.85274" lon="2.96741">
        <ele>1017</ele>
        <time>2015-10-18T00:20:30Z</time>
      </trkpt>
      <trkpt lat="45.85285" lon="2.96718">
        <ele>1016</ele>
        <time>2015-10-18T00:22:30Z</time>
      </trkpt>
      <trkpt lat="45.85289" lon="2.96692">
        <ele>1016</ele>
        <time>2015-10-18T00:24:30Z</time>
      </trkpt>
      <trkpt lat="45.85292" lon="2.96668">
        <ele>1017</ele>
        <time>2015-10-18T00:26:30Z</time>
      </trkpt>
      <trkpt lat="45.85295" lon="2.9665">
        <ele>1017</ele>
        <time>2015-10-18T00:28:30Z</time>
      </trkpt>
      <trkpt lat="45.85286" lon="2.96632">
        <ele>1019</ele>
        <time>2015-10-18T00:30:30Z</time>
      </trkpt>
      <trkpt lat="45.85274" lon="2.9662">
        <ele>1020</ele>
        <time>2015-10-18T00:32:30Z</time>
      </trkpt>
      <trkpt lat="45.85265" lon="2.96606">
        <ele>1022</ele>
        <time>2015-10-18T00:34:30Z</time>
      </trkpt>
      <trkpt lat="45.85255" lon="2.96575">
        <ele>1025</ele>
        <time>2015-10-18T00:36:30Z</time>
      </trkpt>
      <trkpt lat="45.8524" lon="2.96536">
        <ele>1029</ele>
        <time>2015-10-18T00:38:30Z</time>
      </trkpt>
      <trkpt lat="45.85223" lon="2.96487">
        <ele>1034</ele>
        <time>2015-10-18T00:40:30Z</time>
      </trkpt>
      <trkpt lat="45.85211" lon="2.96451">
        <ele>1037</ele>
        <time>2015-10-18T00:42:30Z</time>
      </trkpt>
      <trkpt lat="45.85189" lon="2.96428">
        <ele>1037</ele>
        <time>2015-10-18T00:44:30Z</time>
      </trkpt>
      <trkpt lat="45.85174" lon="2.96413">
        <ele>1037</ele>
        <time>2015-10-18T00:46:30Z</time>
      </trkpt>
      <trkpt lat="45.85162" lon="2.96397">
        <ele>1038</ele>
        <time>2015-10-18T00:48:30Z</time>
      </trkpt>
      <trkpt lat="45.85155" lon="2.96424">
        <ele>1040</ele>
        <time>2015-10-18T00:50:30Z</time>
      </trkpt>
      <trkpt lat="45.85147" lon="2.96456">
        <ele>1044</ele>
        <time>2015-10-18T00:52:30Z</time>
      </trkpt>
      <trkpt lat="45.85138" lon="2.9648">
        <ele>1048</ele>
        <time>2015-10-18T00:54:30Z</time>
      </trkpt>
      <trkpt lat="45.85125" lon="2.9651">
        <ele>1053</ele>
        <time>2015-10-18T00:56:30Z</time>
      </trkpt>
      <trkpt lat="45.85121" lon="2.96534">
        <ele>1056</ele>
        <time>2015-10-18T00:58:30Z</time>
      </trkpt>
      <trkpt lat="45.85121" lon="2.96562">
        <ele>1059</ele>
        <time>2015-10-18T01:00:30Z</time>
      </trkpt>
      <trkpt lat="45.85109" lon="2.96586">
        <ele>1064</ele>
        <time>2015-10-18T01:02:30Z</time>
      </trkpt>
      <trkpt lat="45.85092" lon="2.96605">
        <ele>1069</ele>
        <time>2015-10-18T01:04:30Z</time>
      </trkpt>
      <trkpt lat="45.8507" lon="2.96626">
        <ele>1076</ele>
        <time>2015-10-18T01:06:30Z</time>
      </trkpt>
      <trkpt lat="45.85057" lon="2.9665">
        <ele>1080</ele>
        <time>2015-10-18T01:08:30Z</time>
      </trkpt>
      <trkpt lat="45.85041" lon="2.96668">
        <ele>1085</ele>
        <time>2015-10-18T01:10:30Z</time>
      </trkpt>
      <trkpt lat="45.8502" lon="2.96686">
        <ele>1090</ele>
        <time>2015-10-18T01:12:30Z</time>
      </trkpt>
      <trkpt lat="45.84992" lon="2.96704">
        <ele>1098</ele>
        <time>2015-10-18T01:14:30Z</time>
      </trkpt>
      <trkpt lat="45.84964" lon="2.96727">
        <ele>1103</ele>
        <time>2015-10-18T01:16:30Z</time>
      </trkpt>
      <trkpt lat="45.84941" lon="2.96737">
        <ele>1109</ele>
        <time>2015-10-18T01:18:30Z</time>
      </trkpt>
      <trkpt lat="45.84918" lon="2.96749">
        <ele>1115</ele>
        <time>2015-10-18T01:20:30Z</time>
      </trkpt>
      <trkpt lat="45.84909" lon="2.96771">
        <ele>1116</ele>
        <time>2015-10-18T01:22:30Z</time>
      </trkpt>
      <trkpt lat="45.84896" lon="2.96802">
        <ele>1118</ele>
        <time>2015-10-18T01:24:30Z</time>
      </trkpt>
      <trkpt lat="45.84887" lon="2.96818">
        <ele>1121</ele>
        <time>2015-10-18T01:26:30Z</time>
      </trkpt>
      <trkpt lat="45.8487" lon="2.96845">
        <ele>1125</ele>
        <time>2015-10-18T01:28:30Z</time>
      </trkpt>
      <trkpt lat="45.84851" lon="2.96861">
        <ele>1129</ele>
        <time>2015-10-18T01:30:30Z</time>
      </trkpt>
      <trkpt lat="45.84819" lon="2.96891">
        <ele>1136</ele>
        <time>2015-10-18T01:32:30Z</time>
      </trkpt>
      <trkpt lat="45.84795" lon="2.96882">
        <ele>1137</ele>
        <time>2015-10-18T01:34:30Z</time>
      </trkpt>
      <trkpt lat="45.84758" lon="2.96859">
        <ele>1139</ele>
        <time>2015-10-18T01:36:30Z</time>
      </trkpt>
      <trkpt lat="45.84712" lon="2.96808">
        <ele>1138</ele>
        <time>2015-10-18T01:38:30Z</time>
      </trkpt>
      <trkpt lat="45.84696" lon="2.96782">
        <ele>1140</ele>
        <time>2015-10-18T01:40:30Z</time>
      </trkpt>
      <trkpt lat="45.84686" lon="2.96754">
        <ele>1143</ele>
        <time>2015-10-18T01:42:30Z</time>
      </trkpt>
      <trkpt lat="45.84679" lon="2.96731">
        <ele>1145</ele>
        <time>2015-10-18T01:44:30Z</time>
      </trkpt>
      <trkpt lat="45.84668" lon="2.96698">
        <ele>1148</ele>
        <time>2015-10-18T01:46:30Z</time>
      </trkpt>
      <trkpt lat="45.84662" lon="2.96667">
        <ele>1149</ele>
        <time>2015-10-18T01:48:30Z</time>
      </trkpt>
      <trkpt lat="45.84644" lon="2.96662">
        <ele>1146</ele>
        <time>2015-10-18T01:50:30Z</time>
      </trkpt>
      <trkpt lat="45.84631" lon="2.96654">
        <ele>1144</ele>
        <time>2015-10-18T01:52:30Z</time>
      </trkpt>
      <trkpt lat="45.84603" lon="2.96631">
        <ele>1138</ele>
        <time>2015-10-18T01:54:30Z</time>
      </trkpt>
      <trkpt lat="45.84594" lon="2.96611">
        <ele>1137</ele>
        <time>2015-10-18T01:56:30Z</time>
      </trkpt>
      <trkpt lat="45.84591" lon="2.96592">
        <ele>1136</ele>
        <time>2015-10-18T01:58:30Z</time>
      </trkpt>
      <trkpt lat="45.84561" lon="2.96577">
        <ele>1132</ele>
        <time>2015-10-18T02:00:30Z</time>
      </trkpt>
      <trkpt lat="45.84548" lon="2.96558">
        <ele>1129</ele>
        <time>2015-10-18T02:02:30Z</time>
      </trkpt>
      <trkpt lat="45.84535" lon="2.96549">
        <ele>1127</ele>
        <time>2015-10-18T02:04:30Z</time>
      </trkpt>
      <trkpt lat="45.84513" lon="2.96545">
        <ele>1126</ele>
        <time>2015-10-18T02:06:30Z</time>
      </trkpt>
      <trkpt lat="45.84493" lon="2.96541">
        <ele>1127</ele>
        <time>2015-10-18T02:08:30Z</time>
      </trkpt>
      <trkpt lat="45.8448" lon="2.96535">
        <ele>1129</ele>
        <time>2015-10-18T02:10:30Z</time>
      </trkpt>
      <trkpt lat="45.84471" lon="2.9651">
        <ele>1130</ele>
        <time>2015-10-18T02:12:30Z</time>
      </trkpt>
      <trkpt lat="45.84471" lon="2.96487">
        <ele>1128</ele>
        <time>2015-10-18T02:14:30Z</time>
      </trkpt>
      <trkpt lat="45.84458" lon="2.96465">
        <ele>1128</ele>
        <time>2015-10-18T02:16:30Z</time>
      </trkpt>
      <trkpt lat="45.84447" lon="2.96453">
        <ele>1129</ele>
        <time>2015-10-18T02:18:30Z</time>
      </trkpt>
      <trkpt lat="45.84432" lon="2.96439">
        <ele>1130</ele>
        <time>2015-10-18T02:20:30Z</time>
      </trkpt>
      <trkpt lat="45.84417" lon="2.96447">
        <ele>1134</ele>
        <time>2015-10-18T02:22:30Z</time>
      </trkpt>
      <trkpt lat="45.84399" lon="2.96455">
        <ele>1135</ele>
        <time>2015-10-18T02:24:30Z</time>
      </trkpt>
      <trkpt lat="45.84388" lon="2.96462">
        <ele>1135</ele>
        <time>2015-10-18T02:26:30Z</time>
      </trkpt>
      <trkpt lat="45.84394" lon="2.96475">
        <ele>1137</ele>
        <time>2015-10-18T02:28:30Z</time>
      </trkpt>
      <trkpt lat="45.84387" lon="2.96504">
        <ele>1139</ele>
        <time>2015-10-18T02:30:30Z</time>
      </trkpt>
      <trkpt lat="45.84377" lon="2.96512">
        <ele>1138</ele>
        <time>2015-10-18T02:32:30Z</time>
      </trkpt>
      <trkpt lat="45.8436" lon="2.96517">
        <ele>1137</ele>
        <time>2015-10-18T02:34:30Z</time>
      </trkpt>
      <trkpt lat="45.84339" lon="2.96514">
        <ele>1137</ele>
        <time>2015-10-18T02:36:30Z</time>
      </trkpt>
      <trkpt lat="45.84326" lon="2.96509">
        <ele>1136</ele>
        <time>2015-10-18T02:38:30Z</time>
      </trkpt>
      <trkpt lat="45.84313" lon="2.965">
        <ele>1136</ele>
        <time>2015-10-18T02:40:30Z</time>
      </trkpt>
      <trkpt lat="45.8427" lon="2.96464">
        <ele>1132</ele>
        <time>2015-10-18T02:42:30Z</time>
      </trkpt>
      <trkpt lat="45.84245" lon="2.96436">
        <ele>1133</ele>
        <time>2015-10-18T02:44:30Z</time>
      </trkpt>
      <trkpt lat="45.84227" lon="2.96419">
        <ele>1133</ele>
        <time>2015-10-18T02:46:30Z</time>
      </trkpt>
      <trkpt lat="45.8421" lon="2.96395">
        <ele>1134</ele>
        <time>2015-10-18T02:48:30Z</time>
      </trkpt>
      <trkpt lat="45.84192" lon="2.9637">
        <ele>1135</ele>
        <time>2015-10-18T02:50:30Z</time>
      </trkpt>
      <trkpt lat="45.84174" lon="2.96352">
        <ele>1137</ele>
        <time>2015-10-18T02:52:30Z</time>
      </trkpt>
      <trkpt lat="45.84144" lon="2.96331">
        <ele>1133</ele>
        <time>2015-10-18T02:54:30Z</time>
      </trkpt>
      <trkpt lat="45.8411" lon="2.96293">
        <ele>1122</ele>
        <time>2015-10-18T02:56:30Z</time>
      </trkpt>
      <trkpt lat="45.84084" lon="2.96269">
        <ele>1113</ele>
        <time>2015-10-18T02:58:30Z</time>
      </trkpt>
      <trkpt lat="45.8405" lon="2.96241">
        <ele>1107</ele>
        <time>2015-10-18T03:00:30Z</time>
      </trkpt>
      <trkpt lat="45.84014" lon="2.9623">
        <ele>1100</ele>
        <time>2015-10-18T03:02:30Z</time>
      </trkpt>
      <trkpt lat="45.83971" lon="2.96215">
        <ele>1093</ele>
        <time>2015-10-18T03:04:30Z</time>
      </trkpt>
      <trkpt lat="45.83955" lon="2.96206">
        <ele>1090</ele>
        <time>2015-10-18T03:06:30Z</time>
      </trkpt>
      <trkpt lat="45.83896" lon="2.96224">
        <ele>1084</ele>
        <time>2015-10-18T03:08:30Z</time>
      </trkpt>
      <trkpt lat="45.83861" lon="2.96224">
        <ele>1078</ele>
        <time>2015-10-18T03:10:30Z</time>
      </trkpt>
      <trkpt lat="45.83811" lon="2.96224">
        <ele>1069</ele>
        <time>2015-10-18T03:12:30Z</time>
      </trkpt>
      <trkpt lat="45.83761" lon="2.96211">
        <ele>1058</ele>
        <time>2015-10-18T03:14:30Z</time>
      </trkpt>
      <trkpt lat="45.83745" lon="2.962">
        <ele>1054</ele>
        <time>2015-10-18T03:16:30Z</time>
      </trkpt>
      <trkpt lat="45.83738" lon="2.96155">
        <ele>1050</ele>
        <time>2015-10-18T03:18:30Z</time>
      </trkpt>
      <trkpt lat="45.83733" lon="2.96126">
        <ele>1047</ele>
        <time>2015-10-18T03:20:30Z</time>
      </trkpt>
      <trkpt lat="45.83732" lon="2.9608">
        <ele>1043</ele>
        <time>2015-10-18T03:22:30Z</time>
      </trkpt>
      <trkpt lat="45.83728" lon="2.96042">
        <ele>1039</ele>
        <time>2015-10-18T03:24:30Z</time>
      </trkpt>
      <trkpt lat="45.83723" lon="2.9602">
        <ele>1037</ele>
        <time>2015-10-18T03:26:30Z</time>
      </trkpt>
      <trkpt lat="45.83706" lon="2.96">
        <ele>1034</ele>
        <time>2015-10-18T03:28:30Z</time>
      </trkpt>
      <trkpt lat="45.8368" lon="2.95978">
        <ele>1031</ele>
        <time>2015-10-18T03:30:30Z</time>
      </trkpt>
      <trkpt lat="45.83669" lon="2.95969">
        <ele>1031</ele>
        <time>2015-10-18T03:32:30Z</time>
      </trkpt>
      <trkpt lat="45.83686" lon="2.95923">
        <ele>1028</ele>
        <time>2015-10-18T03:34:30Z</time>
      </trkpt>
      <trkpt lat="45.83675" lon="2.95931">
        <ele>1029</ele>
        <time>2015-10-18T03:36:30Z</time>
      </trkpt>
      <trkpt lat="45.83664" lon="2.95936">
        <ele>1029</ele>
        <time>2015-10-18T03:38:30Z</time>
      </trkpt>
      <trkpt lat="45.83648" lon="2.95928">
        <ele>1029</ele>
        <time>2015-10-18T03:40:30Z</time>
      </trkpt>
      <trkpt lat="45.83627" lon="2.95918">
        <ele>1031</ele>
        <time>2015-10-18T03:42:30Z</time>
      </trkpt>
      <trkpt lat="45.83602" lon="2.95903">
        <ele>1034</ele>
        <time>2015-10-18T03:44:30Z</time>
      </trkpt>
      <trkpt lat="45.83576" lon="2.95886">
        <ele>1038</ele>
        <time>2015-10-18T03:46:30Z</time>
      </trkpt>
      <trkpt lat="45.83555" lon="2.9587">
        <ele>1042</ele>
        <time>2015-10-18T03:48:30Z</time>
      </trkpt>
      <trkpt lat="45.83592" lon="2.95799">
        <ele>1045</ele>
        <time>2015-10-18T03:50:30Z</time>
      </trkpt>
      <trkpt lat="45.83607" lon="2.95751">
        <ele>1045</ele>
        <time>2015-10-18T03:52:30Z</time>
      </trkpt>
      <trkpt lat="45.83627" lon="2.95707">
        <ele>1042</ele>
        <time>2015-10-18T03:54:30Z</time>
      </trkpt>
      <trkpt lat="45.83669" lon="2.95622">
        <ele>1035</ele>
        <time>2015-10-18T03:56:30Z</time>
      </trkpt>
      <trkpt lat="45.83683" lon="2.95597">
        <ele>1034</ele>
        <time>2015-10-18T03:58:30Z</time>
      </trkpt>
      <trkpt lat="45.83671" lon="2.95573">
        <ele>1035</ele>
        <time>2015-10-18T04:00:30Z</time>
      </trkpt>
      <trkpt lat="45.83662" lon="2.95549">
        <ele>1034</ele>
        <time>2015-10-18T04:02:30Z</time>
      </trkpt>
      <trkpt lat="45.83629" lon="2.95549">
        <ele>1039</ele>
        <time>2015-10-18T04:04:30Z</time>
      </trkpt>
      <trkpt lat="45.83611" lon="2.95545">
        <ele>1042</ele>
        <time>2015-10-18T04:06:30Z</time>
      </trkpt>
      <trkpt lat="45.83591" lon="2.95531">
        <ele>1043</ele>
        <time>2015-10-18T04:08:30Z</time>
      </trkpt>
      <trkpt lat="45.83575" lon="2.95513">
        <ele>1041</ele>
        <time>2015-10-18T04:10:30Z</time>
      </trkpt>
      <trkpt lat="45.83551" lon="2.95494">
        <ele>1040</ele>
        <time>2015-10-18T04:12:30Z</time>
      </trkpt>
      <trkpt lat="45.83523" lon="2.95475">
        <ele>1038</ele>
        <time>2015-10-18T04:14:30Z</time>
      </trkpt>
      <trkpt lat="45.83487" lon="2.95456">
        <ele>1036</ele>
        <time>2015-10-18T04:16:30Z</time>
      </trkpt>
      <trkpt lat="45.8347" lon="2.95441">
        <ele>1033</ele>
        <time>2015-10-18T04:18:30Z</time>
      </trkpt>
      <trkpt lat="45.83448" lon="2.95435">
        <ele>1033</ele>
        <time>2015-10-18T04:20:30Z</time>
      </trkpt>
      <trkpt lat="45.83428" lon="2.95431">
        <ele>1034</ele>
        <time>2015-10-18T04:22:30Z</time>
      </trkpt>
      <trkpt lat="45.83416" lon="2.95412">
        <ele>1031</ele>
        <time>2015-10-18T04:24:30Z</time>
      </trkpt>
      <trkpt lat="45.83405" lon="2.95401">
        <ele>1028</ele>
        <time>2015-10-18T04:26:30Z</time>
      </trkpt>
      <trkpt lat="45.83388" lon="2.95398">
        <ele>1027</ele>
        <time>2015-10-18T04:28:30Z</time>
      </trkpt>
      <trkpt lat="45.8335" lon="2.95405">
        <ele>1025</ele>
        <time>2015-10-18T04:30:30Z</time>
      </trkpt>
      <trkpt lat="45.83319" lon="2.9541">
        <ele>1024</ele>
        <time>2015-10-18T04:32:30Z</time>
      </trkpt>
      <trkpt lat="45.83301" lon="2.95415">
        <ele>1024</ele>
        <time>2015-10-18T04:34:30Z</time>
      </trkpt>
      <trkpt lat="45.83268" lon="2.95425">
        <ele>1026</ele>
        <time>2015-10-18T04:36:30Z</time>
      </trkpt>
      <trkpt lat="45.83235" lon="2.95429">
        <ele>1026</ele>
        <time>2015-10-18T04:38:30Z</time>
      </trkpt>
      <trkpt lat="45.83209" lon="2.95435">
        <ele>1026</ele>
        <time>2015-10-18T04:40:30Z</time>
      </trkpt>
      <trkpt lat="45.83185" lon="2.9544">
        <ele>1027</ele>
        <time>2015-10-18T04:42:30Z</time>
      </trkpt>
      <trkpt lat="45.83167" lon="2.9544">
        <ele>1026</ele>
        <time>2015-10-18T04:44:30Z</time>
      </trkpt>
      <trkpt lat="45.83153" lon="2.95458">
        <ele>1029</ele>
        <time>2015-10-18T04:46:30Z</time>
      </trkpt>
      <trkpt lat="45.83136" lon="2.95482">
        <ele>1032</ele>
        <time>2015-10-18T04:48:30Z</time>
      </trkpt>
      <trkpt lat="45.83123" lon="2.955">
        <ele>1034</ele>
        <time>2015-10-18T04:50:30Z</time>
      </trkpt>
      <trkpt lat="45.83108" lon="2.95527">
        <ele>1036</ele>
        <time>2015-10-18T04:52:30Z</time>
      </trkpt>
      <trkpt lat="45.83108" lon="2.95464">
        <ele>1033</ele>
        <time>2015-10-18T04:54:30Z</time>
      </trkpt>
      <trkpt lat="45.83101" lon="2.95425">
        <ele>1032</ele>
        <time>2015-10-18T04:56:30Z</time>
      </trkpt>
      <trkpt lat="45.83075" lon="2.95364">
        <ele>1032</ele>
        <time>2015-10-18T04:58:30Z</time>
      </trkpt>
      <trkpt lat="45.83065" lon="2.95338">
        <ele>1032</ele>
        <time>2015-10-18T05:00:30Z</time>
      </trkpt>
      <trkpt lat="45.83055" lon="2.95301">
        <ele>1031</ele>
        <time>2015-10-18T05:02:30Z</time>
      </trkpt>
      <trkpt lat="45.83038" lon="2.95239">
        <ele>1029</ele>
        <time>2015-10-18T05:04:30Z</time>
      </trkpt>
      <trkpt lat="45.83029" lon="2.952">
        <ele>1029</ele>
        <time>2015-10-18T05:06:30Z</time>
      </trkpt>
      <trkpt lat="45.83017" lon="2.95159">
        <ele>1029</ele>
        <time>2015-10-18T05:08:30Z</time>
      </trkpt>
      <trkpt lat="45.83011" lon="2.95128">
        <ele>1027</ele>
        <time>2015-10-18T05:10:30Z</time>
      </trkpt>
      <trkpt lat="45.82998" lon="2.95093">
        <ele>1026</ele>
        <time>2015-10-18T05:12:30Z</time>
      </trkpt>
      <trkpt lat="45.82985" lon="2.95064">
        <ele>1025</ele>
        <time>2015-10-18T05:14:30Z</time>
      </trkpt>
      <trkpt lat="45.82958" lon="2.95065">
        <ele>1030</ele>
        <time>2015-10-18T05:16:30Z</time>
      </trkpt>
      <trkpt lat="45.82936" lon="2.95082">
        <ele>1035</ele>
        <time>2015-10-18T05:18:30Z</time>
      </trkpt>
      <trkpt lat="45.82912" lon="2.95103">
        <ele>1041</ele>
        <time>2015-10-18T05:20:30Z</time>
      </trkpt>
      <trkpt lat="45.82887" lon="2.95116">
        <ele>1047</ele>
        <time>2015-10-18T05:22:30Z</time>
      </trkpt>
      <trkpt lat="45.82866" lon="2.95129">
        <ele>1052</ele>
        <time>2015-10-18T05:24:30Z</time>
      </trkpt>
      <trkpt lat="45.82836" lon="2.95129">
        <ele>1057</ele>
        <time>2015-10-18T05:26:30Z</time>
      </trkpt>
      <trkpt lat="45.82783" lon="2.95137">
        <ele>1066</ele>
        <time>2015-10-18T05:28:30Z</time>
      </trkpt>
      <trkpt lat="45.82762" lon="2.95147">
        <ele>1069</ele>
        <time>2015-10-18T05:30:30Z</time>
      </trkpt>
      <trkpt lat="45.82739" lon="2.95166">
        <ele>1071</ele>
        <time>2015-10-18T05:32:30Z</time>
      </trkpt>
      <trkpt lat="45.82711" lon="2.95188">
        <ele>1076</ele>
        <time>2015-10-18T05:34:30Z</time>
      </trkpt>
      <trkpt lat="45.82691" lon="2.95196">
        <ele>1078</ele>
        <time>2015-10-18T05:36:30Z</time>
      </trkpt>
      <trkpt lat="45.82651" lon="2.95219">
        <ele>1081</ele>
        <time>2015-10-18T05:38:30Z</time>
      </trkpt>
      <trkpt lat="45.82635" lon="2.95198">
        <ele>1084</ele>
        <time>2015-10-18T05:40:30Z</time>
      </trkpt>
      <trkpt lat="45.82615" lon="2.95198">
        <ele>1086</ele>
        <time>2015-10-18T05:42:30Z</time>
      </trkpt>
      <trkpt lat="45.82602" lon="2.95192">
        <ele>1088</ele>
        <time>2015-10-18T05:44:30Z</time>
      </trkpt>
      <trkpt lat="45.82587" lon="2.95173">
        <ele>1089</ele>
        <time>2015-10-18T05:46:30Z</time>
      </trkpt>
      <trkpt lat="45.82553" lon="2.95151">
        <ele>1091</ele>
        <time>2015-10-18T05:48:30Z</time>
      </trkpt>
      <trkpt lat="45.82536" lon="2.95137">
        <ele>1092</ele>
        <time>2015-10-18T05:50:30Z</time>
      </trkpt>
      <trkpt lat="45.8251" lon="2.95134">
        <ele>1092</ele>
        <time>2015-10-18T05:52:30Z</time>
      </trkpt>
      <trkpt lat="45.82492" lon="2.95133">
        <ele>1093</ele>
        <time>2015-10-18T05:54:30Z</time>
      </trkpt>
      <trkpt lat="45.82475" lon="2.95128">
        <ele>1095</ele>
        <time>2015-10-18T05:56:30Z</time>
      </trkpt>
      <trkpt lat="45.82469" lon="2.95105">
        <ele>1096</ele>
        <time>2015-10-18T05:58:30Z</time>
      </trkpt>
      <trkpt lat="45.82458" lon="2.95099">
        <ele>1097</ele>
        <time>2015-10-18T06:00:30Z</time>
      </trkpt>
      <trkpt lat="45.82442" lon="2.95092">
        <ele>1098</ele>
        <time>2015-10-18T06:02:30Z</time>
      </trkpt>
      <trkpt lat="45.8243" lon="2.9509">
        <ele>1099</ele>
        <time>2015-10-18T06:04:30Z</time>
      </trkpt>
      <trkpt lat="45.82418" lon="2.95073">
        <ele>1099</ele>
        <time>2015-10-18T06:06:30Z</time>
      </trkpt>
      <trkpt lat="45.82408" lon="2.95038">
        <ele>1095</ele>
        <time>2015-10-18T06:08:30Z</time>
      </trkpt>
      <trkpt lat="45.82405" lon="2.95022">
        <ele>1094</ele>
        <time>2015-10-18T06:10:30Z</time>
      </trkpt>
      <trkpt lat="45.82392" lon="2.95026">
        <ele>1091</ele>
        <time>2015-10-18T06:12:30Z</time>
      </trkpt>
      <trkpt lat="45.82379" lon="2.95043">
        <ele>1090</ele>
        <time>2015-10-18T06:14:30Z</time>
      </trkpt>
      <trkpt lat="45.82374" lon="2.95069">
        <ele>1091</ele>
        <time>2015-10-18T06:16:30Z</time>
      </trkpt>
      <trkpt lat="45.82373" lon="2.95092">
        <ele>1092</ele>
        <time>2015-10-18T06:18:30Z</time>
      </trkpt>
      <trkpt lat="45.82376" lon="2.95119">
        <ele>1094</ele>
        <time>2015-10-18T06:20:30Z</time>
      </trkpt>
      <trkpt lat="45.82382" lon="2.95143">
        <ele>1096</ele>
        <time>2015-10-18T06:22:30Z</time>
      </trkpt>
      <trkpt lat="45.82384" lon="2.95169">
        <ele>1098</ele>
        <time>2015-10-18T06:24:30Z</time>
      </trkpt>
      <trkpt lat="45.82382" lon="2.95194">
        <ele>1099</ele>
        <time>2015-10-18T06:26:30Z</time>
      </trkpt>
      <trkpt lat="45.82385" lon="2.95228">
        <ele>1101</ele>
        <time>2015-10-18T06:28:30Z</time>
      </trkpt>
      <trkpt lat="45.82392" lon="2.95256">
        <ele>1103</ele>
        <time>2015-10-18T06:30:30Z</time>
      </trkpt>
      <trkpt lat="45.82398" lon="2.9528">
        <ele>1105</ele>
        <time>2015-10-18T06:32:30Z</time>
      </trkpt>
      <trkpt lat="45.82408" lon="2.95309">
        <ele>1109</ele>
        <time>2015-10-18T06:34:30Z</time>
      </trkpt>
      <trkpt lat="45.82424" lon="2.95336">
        <ele>1113</ele>
        <time>2015-10-18T06:36:30Z</time>
      </trkpt>
      <trkpt lat="45.82437" lon="2.95354">
        <ele>1113</ele>
        <time>2015-10-18T06:38:30Z</time>
      </trkpt>
      <trkpt lat="45.82452" lon="2.95376">
        <ele>1113</ele>
        <time>2015-10-18T06:40:30Z</time>
      </trkpt>
      <trkpt lat="45.82469" lon="2.95402">
        <ele>1114</ele>
        <time>2015-10-18T06:42:30Z</time>
      </trkpt>
      <trkpt lat="45.82473" lon="2.95463">
        <ele>1111</ele>
        <time>2015-10-18T06:44:30Z</time>
      </trkpt>
      <trkpt lat="45.82477" lon="2.95493">
        <ele>1109</ele>
        <time>2015-10-18T06:46:30Z</time>
      </trkpt>
      <trkpt lat="45.82481" lon="2.95535">
        <ele>1106</ele>
        <time>2015-10-18T06:48:30Z</time>
      </trkpt>
      <trkpt lat="45.82486" lon="2.95557">
        <ele>1104</ele>
        <time>2015-10-18T06:50:30Z</time>
      </trkpt>
      <trkpt lat="45.82494" lon="2.95624">
        <ele>1096</ele>
        <time>2015-10-18T06:52:30Z</time>
      </trkpt>
      <trkpt lat="45.82503" lon="2.95654">
        <ele>1092</ele>
        <time>2015-10-18T06:54:30Z</time>
      </trkpt>
      <trkpt lat="45.8251" lon="2.95676">
        <ele>1087</ele>
        <time>2015-10-18T06:56:30Z</time>
      </trkpt>
      <trkpt lat="45.82519" lon="2.95696">
        <ele>1083</ele>
        <time>2015-10-18T06:58:30Z</time>
      </trkpt>
      <trkpt lat="45.82531" lon="2.95712">
        <ele>1079</ele>
        <time>2015-10-18T07:00:30Z</time>
      </trkpt>
      <trkpt lat="45.82539" lon="2.95727">
        <ele>1076</ele>
        <time>2015-10-18T07:02:30Z</time>
      </trkpt>
      <trkpt lat="45.82541" lon="2.95756">
        <ele>1071</ele>
        <time>2015-10-18T07:04:30Z</time>
      </trkpt>
      <trkpt lat="45.8255" lon="2.95773">
        <ele>1068</ele>
        <time>2015-10-18T07:06:30Z</time>
      </trkpt>
      <trkpt lat="45.82554" lon="2.95787">
        <ele>1066</ele>
        <time>2015-10-18T07:08:30Z</time>
      </trkpt>
      <trkpt lat="45.82554" lon="2.95801">
        <ele>1063</ele>
        <time>2015-10-18T07:10:30Z</time>
      </trkpt>
      <trkpt lat="45.82535" lon="2.95816">
        <ele>1060</ele>
        <time>2015-10-18T07:12:30Z</time>
      </trkpt>
      <trkpt lat="45.82507" lon="2.95842">
        <ele>1053</ele>
        <time>2015-10-18T07:14:30Z</time>
      </trkpt>
      <trkpt lat="45.825" lon="2.95874">
        <ele>1046</ele>
        <time>2015-10-18T07:16:30Z</time>
      </trkpt>
      <trkpt lat="45.82487" lon="2.95906">
        <ele>1037</ele>
        <time>2015-10-18T07:18:30Z</time>
      </trkpt>
      <trkpt lat="45.82484" lon="2.95926">
        <ele>1033</ele>
        <time>2015-10-18T07:20:30Z</time>
      </trkpt>
      <trkpt lat="45.82473" lon="2.95955">
        <ele>1027</ele>
        <time>2015-10-18T07:22:30Z</time>
      </trkpt>
      <trkpt lat="45.82463" lon="2.95973">
        <ele>1022</ele>
        <time>2015-10-18T07:24:30Z</time>
      </trkpt>
      <trkpt lat="45.82444" lon="2.95986">
        <ele>1018</ele>
        <time>2015-10-18T07:26:30Z</time>
      </trkpt>
      <trkpt lat="45.82433" lon="2.96003">
        <ele>1014</ele>
        <time>2015-10-18T07:28:30Z</time>
      </trkpt>
      <trkpt lat="45.82421" lon="2.96013">
        <ele>1011</ele>
        <time>2015-10-18T07:30:30Z</time>
      </trkpt>
      <trkpt lat="45.82404" lon="2.9602">
        <ele>1008</ele>
        <time>2015-10-18T07:32:30Z</time>
      </trkpt>
      <trkpt lat="45.82395" lon="2.96029">
        <ele>1005</ele>
        <time>2015-10-18T07:34:30Z</time>
      </trkpt>
      <trkpt lat="45.82387" lon="2.96044">
        <ele>1001</ele>
        <time>2015-10-18T07:36:30Z</time>
      </trkpt>
      <trkpt lat="45.82389" lon="2.96066">
        <ele>998</ele>
        <time>2015-10-18T07:38:30Z</time>
      </trkpt>
      <trkpt lat="45.82401" lon="2.9609">
        <ele>996</ele>
        <time>2015-10-18T07:40:30Z</time>
      </trkpt>
      <trkpt lat="45.82412" lon="2.96103">
        <ele>996</ele>
        <time>2015-10-18T07:42:30Z</time>
      </trkpt>
      <trkpt lat="45.82426" lon="2.96119">
        <ele>995</ele>
        <time>2015-10-18T07:44:30Z</time>
      </trkpt>
      <trkpt lat="45.82444" lon="2.96135">
        <ele>993</ele>
        <time>2015-10-18T07:46:30Z</time>
      </trkpt>
      <trkpt lat="45.82457" lon="2.96142">
        <ele>993</ele>
        <time>2015-10-18T07:48:30Z</time>
      </trkpt>
      <trkpt lat="45.82471" lon="2.96154">
        <ele>992</ele>
        <time>2015-10-18T07:50:30Z</time>
      </trkpt>
      <trkpt lat="45.8248" lon="2.96161">
        <ele>991</ele>
        <time>2015-10-18T07:52:30Z</time>
      </trkpt>
      <trkpt lat="45.82472" lon="2.96183">
        <ele>987</ele>
        <time>2015-10-18T07:54:30Z</time>
      </trkpt>
      <trkpt lat="45.82475" lon="2.96207">
        <ele>983</ele>
        <time>2015-10-18T07:56:30Z</time>
      </trkpt>
      <trkpt lat="45.82477" lon="2.96233">
        <ele>979</ele>
        <time>2015-10-18T07:58:30Z</time>
      </trkpt>
      <trkpt lat="45.82473" lon="2.96252">
        <ele>977</ele>
        <time>2015-10-18T08:00:30Z</time>
      </trkpt>
      <trkpt lat="45.82474" lon="2.96273">
        <ele>977</ele>
        <time>2015-10-18T08:02:30Z</time>
      </trkpt>
      <trkpt lat="45.82477" lon="2.96294">
        <ele>978</ele>
        <time>2015-10-18T08:04:30Z</time>
      </trkpt>
      <trkpt lat="45.82463" lon="2.96307">
        <ele>979</ele>
        <time>2015-10-18T08:06:30Z</time>
      </trkpt>
      <trkpt lat="45.82451" lon="2.96314">
        <ele>980</ele>
        <time>2015-10-18T08:08:30Z</time>
      </trkpt>
      <trkpt lat="45.82425" lon="2.96317">
        <ele>981</ele>
        <time>2015-10-18T08:10:30Z</time>
      </trkpt>
      <trkpt lat="45.82398" lon="2.96313">
        <ele>981</ele>
        <time>2015-10-18T08:12:30Z</time>
      </trkpt>
      <trkpt lat="45.82368" lon="2.96313">
        <ele>980</ele>
        <time>2015-10-18T08:14:30Z</time>
      </trkpt>
      <trkpt lat="45.82335" lon="2.96316">
        <ele>979</ele>
        <time>2015-10-18T08:16:30Z</time>
      </trkpt>
      <trkpt lat="45.82305" lon="2.96317">
        <ele>978</ele>
        <time>2015-10-18T08:18:30Z</time>
      </trkpt>
      <trkpt lat="45.82282" lon="2.96328">
        <ele>977</ele>
        <time>2015-10-18T08:20:30Z</time>
      </trkpt>
      <trkpt lat="45.82258" lon="2.96333">
        <ele>975</ele>
        <time>2015-10-18T08:22:30Z</time>
      </trkpt>
      <trkpt lat="45.82227" lon="2.96339">
        <ele>974</ele>
        <time>2015-10-18T08:24:30Z</time>
      </trkpt>
      <trkpt lat="45.82206" lon="2.96347">
        <ele>974</ele>
        <time>2015-10-18T08:26:30Z</time>
      </trkpt>
      <trkpt lat="45.82175" lon="2.96356">
        <ele>973</ele>
        <time>2015-10-18T08:28:30Z</time>
      </trkpt>
      <trkpt lat="45.82155" lon="2.96369">
        <ele>973</ele>
        <time>2015-10-18T08:30:30Z</time>
      </trkpt>
      <trkpt lat="45.82134" lon="2.96381">
        <ele>972</ele>
        <time>2015-10-18T08:32:30Z</time>
      </trkpt>
      <trkpt lat="45.82113" lon="2.96386">
        <ele>971</ele>
        <time>2015-10-18T08:34:30Z</time>
      </trkpt>
      <trkpt lat="45.82089" lon="2.96396">
        <ele>970</ele>
        <time>2015-10-18T08:36:30Z</time>
      </trkpt>
      <trkpt lat="45.82067" lon="2.9641">
        <ele>969</ele>
        <time>2015-10-18T08:38:30Z</time>
      </trkpt>
      <trkpt lat="45.82045" lon="2.96421">
        <ele>968</ele>
        <time>2015-10-18T08:40:30Z</time>
      </trkpt>
      <trkpt lat="45.82012" lon="2.9644">
        <ele>968</ele>
        <time>2015-10-18T08:42:30Z</time>
      </trkpt>
      <trkpt lat="45.81987" lon="2.96454">
        <ele>968</ele>
        <time>2015-10-18T08:44:30Z</time>
      </trkpt>
      <trkpt lat="45.81962" lon="2.96464">
        <ele>969</ele>
        <time>2015-10-18T08:46:30Z</time>
      </trkpt>
      <trkpt lat="45.81923" lon="2.9648">
        <ele>971</ele>
        <time>2015-10-18T08:48:30Z</time>
      </trkpt>
      <trkpt lat="45.819" lon="2.96492">
        <ele>971</ele>
        <time>2015-10-18T08:50:30Z</time>
      </trkpt>
      <trkpt lat="45.81859" lon="2.96509">
        <ele>971</ele>
        <time>2015-10-18T08:52:30Z</time>
      </trkpt>
      <trkpt lat="45.81833" lon="2.96528">
        <ele>971</ele>
        <time>2015-10-18T08:54:30Z</time>
      </trkpt>
      <trkpt lat="45.81811" lon="2.96551">
        <ele>972</ele>
        <time>2015-10-18T08:56:30Z</time>
      </trkpt>
      <trkpt lat="45.81784" lon="2.96584">
        <ele>973</ele>
        <time>2015-10-18T08:58:30Z</time>
      </trkpt>
      <trkpt lat="45.8175" lon="2.96625">
        <ele>973</ele>
        <time>2015-10-18T09:00:30Z</time>
      </trkpt>
      <trkpt lat="45.81726" lon="2.9666">
        <ele>972</ele>
        <time>2015-10-18T09:02:30Z</time>
      </trkpt>
      <trkpt lat="45.81712" lon="2.96675">
        <ele>972</ele>
        <time>2015-10-18T09:04:30Z</time>
      </trkpt>
      <trkpt lat="45.81697" lon="2.96694">
        <ele>972</ele>
        <time>2015-10-18T09:06:30Z</time>
      </trkpt>
      <trkpt lat="45.81683" lon="2.9671">
        <ele>972</ele>
        <time>2015-10-18T09:08:30Z</time>
      </trkpt>
      <trkpt lat="45.81682" lon="2.96725">
        <ele>972</ele>
        <time>2015-10-18T09:10:30Z</time>
      </trkpt>
      <trkpt lat="45.81668" lon="2.96738">
        <ele>972</ele>
        <time>2015-10-18T09:12:30Z</time>
      </trkpt>
      <trkpt lat="45.81657" lon="2.96742">
        <ele>972</ele>
        <time>2015-10-18T09:14:30Z</time>
      </trkpt>
      <trkpt lat="45.81651" lon="2.9676">
        <ele>972</ele>
        <time>2015-10-18T09:16:30Z</time>
      </trkpt>
      <trkpt lat="45.81639" lon="2.96773">
        <ele>971</ele>
        <time>2015-10-18T09:18:30Z</time>
      </trkpt>
      <trkpt lat="45.81621" lon="2.96797">
        <ele>971</ele>
        <time>2015-10-18T09:20:30Z</time>
      </trkpt>
      <trkpt lat="45.81603" lon="2.96821">
        <ele>972</ele>
        <time>2015-10-18T09:22:30Z</time>
      </trkpt>
      <trkpt lat="45.81586" lon="2.96852">
        <ele>972</ele>
        <time>2015-10-18T09:24:30Z</time>
      </trkpt>
      <trkpt lat="45.81574" lon="2.96876">
        <ele>972</ele>
        <time>2015-10-18T09:26:30Z</time>
      </trkpt>
      <trkpt lat="45.81562" lon="2.96901">
        <ele>973</ele>
        <time>2015-10-18T09:28:30Z</time>
      </trkpt>
      <trkpt lat="45.81547" lon="2.96926">
        <ele>973</ele>
        <time>2015-10-18T09:30:30Z</time>
      </trkpt>
      <trkpt lat="45.81562" lon="2.96958">
        <ele>973</ele>
        <time>2015-10-18T09:32:30Z</time>
      </trkpt>
      <trkpt lat="45.81577" lon="2.96991">
        <ele>973</ele>
        <time>2015-10-18T09:34:30Z</time>
      </trkpt>
      <trkpt lat="45.81595" lon="2.97029">
        <ele>973</ele>
        <time>2015-10-18T09:36:30Z</time>
      </trkpt>
      <trkpt lat="45.81612" lon="2.97065">
        <ele>972</ele>
        <time>2015-10-18T09:38:30Z</time>
      </trkpt>
      <trkpt lat="45.81628" lon="2.971">
        <ele>970</ele>
        <time>2015-10-18T09:40:30Z</time>
      </trkpt>
      <trkpt lat="45.81643" lon="2.97128">
        <ele>967</ele>
        <time>2015-10-18T09:42:30Z</time>
      </trkpt>
      <trkpt lat="45.81668" lon="2.97167">
        <ele>963</ele>
        <time>2015-10-18T09:44:30Z</time>
      </trkpt>
      <trkpt lat="45.81636" lon="2.97186">
        <ele>965</ele>
        <time>2015-10-18T09:46:30Z</time>
      </trkpt>
      <trkpt lat="45.81612" lon="2.9721">
        <ele>966</ele>
        <time>2015-10-18T09:48:30Z</time>
      </trkpt>
      <trkpt lat="45.81585" lon="2.9723">
        <ele>966</ele>
        <time>2015-10-18T09:50:30Z</time>
      </trkpt>
      <trkpt lat="45.81562" lon="2.97249">
        <ele>967</ele>
        <time>2015-10-18T09:52:30Z</time>
      </trkpt>
      <trkpt lat="45.81539" lon="2.97267">
        <ele>968</ele>
        <time>2015-10-18T09:54:30Z</time>
      </trkpt>
      <trkpt lat="45.81509" lon="2.9729">
        <ele>970</ele>
        <time>2015-10-18T09:56:30Z</time>
      </trkpt>
      <trkpt lat="45.81482" lon="2.97314">
        <ele>970</ele>
        <time>2015-10-18T09:58:30Z</time>
      </trkpt>
      <trkpt lat="45.81461" lon="2.97332">
        <ele>970</ele>
        <time>2015-10-18T10:00:30Z</time>
      </trkpt>
      <trkpt lat="45.81437" lon="2.97351">
        <ele>970</ele>
        <time>2015-10-18T10:02:30Z</time>
      </trkpt>
      <trkpt lat="45.81412" lon="2.97375">
        <ele>970</ele>
        <time>2015-10-18T10:04:30Z</time>
      </trkpt>
      <trkpt lat="45.81394" lon="2.97397">
        <ele>968</ele>
        <time>2015-10-18T10:06:30Z</time>
      </trkpt>
      <trkpt lat="45.81374" lon="2.9742">
        <ele>968</ele>
        <time>2015-10-18T10:08:30Z</time>
      </trkpt>
      <trkpt lat="45.81363" lon="2.97473">
        <ele>969</ele>
        <time>2015-10-18T10:10:30Z</time>
      </trkpt>
      <trkpt lat="45.81357" lon="2.97504">
        <ele>970</ele>
        <time>2015-10-18T10:12:30Z</time>
      </trkpt>
      <trkpt lat="45.81345" lon="2.97533">
        <ele>976</ele>
        <time>2015-10-18T10:14:30Z</time>
      </trkpt>
      <trkpt lat="45.81338" lon="2.97575">
        <ele>984</ele>
        <time>2015-10-18T10:16:30Z</time>
      </trkpt>
      <trkpt lat="45.81326" lon="2.97606">
        <ele>994</ele>
        <time>2015-10-18T10:18:30Z</time>
      </trkpt>
      <trkpt lat="45.81312" lon="2.97636">
        <ele>1004</ele>
        <time>2015-10-18T10:20:30Z</time>
      </trkpt>
      <trkpt lat="45.81298" lon="2.9766">
        <ele>1012</ele>
        <time>2015-10-18T10:22:30Z</time>
      </trkpt>
      <trkpt lat="45.81267" lon="2.97697">
        <ele>1023</ele>
        <time>2015-10-18T10:24:30Z</time>
      </trkpt>
      <trkpt lat="45.81255" lon="2.97715">
        <ele>1026</ele>
        <time>2015-10-18T10:26:30Z</time>
      </trkpt>
      <trkpt lat="45.81242" lon="2.9775">
        <ele>1032</ele>
        <time>2015-10-18T10:28:30Z</time>
      </trkpt>
      <trkpt lat="45.81235" lon="2.97784">
        <ele>1041</ele>
        <time>2015-10-18T10:30:30Z</time>
      </trkpt>
      <trkpt lat="45.8123" lon="2.97805">
        <ele>1047</ele>
        <time>2015-10-18T10:32:30Z</time>
      </trkpt>
      <trkpt lat="45.8122" lon="2.97846">
        <ele>1057</ele>
        <time>2015-10-18T10:34:30Z</time>
      </trkpt>
      <trkpt lat="45.81211" lon="2.97885">
        <ele>1064</ele>
        <time>2015-10-18T10:36:30Z</time>
      </trkpt>
      <trkpt lat="45.81196" lon="2.97918">
        <ele>1068</ele>
        <time>2015-10-18T10:38:30Z</time>
      </trkpt>
      <trkpt lat="45.81188" lon="2.97948">
        <ele>1070</ele>
        <time>2015-10-18T10:40:30Z</time>
      </trkpt>
      <trkpt lat="45.81182" lon="2.97971">
        <ele>1070</ele>
        <time>2015-10-18T10:42:30Z</time>
      </trkpt>
      <trkpt lat="45.8117" lon="2.97996">
        <ele>1068</ele>
        <time>2015-10-18T10:44:30Z</time>
      </trkpt>
      <trkpt lat="45.81146" lon="2.98032">
        <ele>1074</ele>
        <time>2015-10-18T10:46:30Z</time>
      </trkpt>
      <trkpt lat="45.81132" lon="2.98054">
        <ele>1077</ele>
        <time>2015-10-18T10:48:30Z</time>
      </trkpt>
      <trkpt lat="45.81123" lon="2.98083">
        <ele>1077</ele>
        <time>2015-10-18T10:50:30Z</time>
      </trkpt>
      <trkpt lat="45.81116" lon="2.98122">
        <ele>1074</ele>
        <time>2015-10-18T10:52:30Z</time>
      </trkpt>
      <trkpt lat="45.81114" lon="2.9815">
        <ele>1071</ele>
        <time>2015-10-18T10:54:30Z</time>
      </trkpt>
      <trkpt lat="45.81115" lon="2.98192">
        <ele>1065</ele>
        <time>2015-10-18T10:56:30Z</time>
      </trkpt>
      <trkpt lat="45.81096" lon="2.98235">
        <ele>1058</ele>
        <time>2015-10-18T10:58:30Z</time>
      </trkpt>
      <trkpt lat="45.81073" lon="2.98287">
        <ele>1050</ele>
        <time>2015-10-18T11:00:30Z</time>
      </trkpt>
      <trkpt lat="45.81048" lon="2.98332">
        <ele>1046</ele>
        <time>2015-10-18T11:02:30Z</time>
      </trkpt>
      <trkpt lat="45.81025" lon="2.98362">
        <ele>1042</ele>
        <time>2015-10-18T11:04:30Z</time>
      </trkpt>
      <trkpt lat="45.80991" lon="2.98381">
        <ele>1041</ele>
        <time>2015-10-18T11:06:30Z</time>
      </trkpt>
      <trkpt lat="45.80961" lon="2.98394">
        <ele>1040</ele>
        <time>2015-10-18T11:08:30Z</time>
      </trkpt>
      <trkpt lat="45.80927" lon="2.98433">
        <ele>1032</ele>
        <time>2015-10-18T11:10:30Z</time>
      </trkpt>
      <trkpt lat="45.80892" lon="2.98482">
        <ele>1020</ele>
        <time>2015-10-18T11:12:30Z</time>
      </trkpt>
      <trkpt lat="45.80861" lon="2.98529">
        <ele>1009</ele>
        <time>2015-10-18T11:14:30Z</time>
      </trkpt>
      <trkpt lat="45.80843" lon="2.98545">
        <ele>1005</ele>
        <time>2015-10-18T11:16:30Z</time>
      </trkpt>
      <trkpt lat="45.80822" lon="2.98563">
        <ele>1000</ele>
        <time>2015-10-18T11:18:30Z</time>
      </trkpt>
      <trkpt lat="45.80799" lon="2.98582">
        <ele>996</ele>
        <time>2015-10-18T11:20:30Z</time>
      </trkpt>
      <trkpt lat="45.80777" lon="2.98593">
        <ele>993</ele>
        <time>2015-10-18T11:22:30Z</time>
      </trkpt>
      <trkpt lat="45.8076" lon="2.98605">
        <ele>992</ele>
        <time>2015-10-18T11:24:30Z</time>
      </trkpt>
      <trkpt lat="45.80744" lon="2.98617">
        <ele>990</ele>
        <time>2015-10-18T11:26:30Z</time>
      </trkpt>
      <trkpt lat="45.80734" lon="2.98624">
        <ele>988</ele>
        <time>2015-10-18T11:28:30Z</time>
      </trkpt>
      <trkpt lat="45.80718" lon="2.98617">
        <ele>988</ele>
        <time>2015-10-18T11:30:30Z</time>
      </trkpt>
      <trkpt lat="45.80702" lon="2.98609">
        <ele>987</ele>
        <time>2015-10-18T11:32:30Z</time>
      </trkpt>
      <trkpt lat="45.80689" lon="2.98594">
        <ele>986</ele>
        <time>2015-10-18T11:34:30Z</time>
      </trkpt>
      <trkpt lat="45.80678" lon="2.98578">
        <ele>986</ele>
        <time>2015-10-18T11:36:30Z</time>
      </trkpt>
      <trkpt lat="45.80666" lon="2.98567">
        <ele>985</ele>
        <time>2015-10-18T11:38:30Z</time>
      </trkpt>
      <trkpt lat="45.80667" lon="2.98591">
        <ele>984</ele>
        <time>2015-10-18T11:40:30Z</time>
      </trkpt>
      <trkpt lat="45.8067" lon="2.98619">
        <ele>984</ele>
        <time>2015-10-18T11:42:30Z</time>
      </trkpt>
      <trkpt lat="45.80673" lon="2.9865">
        <ele>984</ele>
        <time>2015-10-18T11:44:30Z</time>
      </trkpt>
      <trkpt lat="45.80678" lon="2.98681">
        <ele>983</ele>
        <time>2015-10-18T11:46:30Z</time>
      </trkpt>
      <trkpt lat="45.80684" lon="2.98712">
        <ele>982</ele>
        <time>2015-10-18T11:48:30Z</time>
      </trkpt>
      <trkpt lat="45.80688" lon="2.98745">
        <ele>981</ele>
        <time>2015-10-18T11:50:30Z</time>
      </trkpt>
      <trkpt lat="45.80698" lon="2.98779">
        <ele>981</ele>
        <time>2015-10-18T11:52:30Z</time>
      </trkpt>
      <trkpt lat="45.80689" lon="2.98798">
        <ele>981</ele>
        <time>2015-10-18T11:54:30Z</time>
      </trkpt>
      <trkpt lat="45.8067" lon="2.98798">
        <ele>981</ele>
        <time>2015-10-18T11:56:30Z</time>
      </trkpt>
      <trkpt lat="45.80636" lon="2.98803">
        <ele>980</ele>
        <time>2015-10-18T11:58:30Z</time>
      </trkpt>
      <trkpt lat="45.8062" lon="2.98805">
        <ele>980</ele>
        <time>2015-10-18T12:00:30Z</time>
      </trkpt>
      <trkpt lat="45.80611" lon="2.9882">
        <ele>980</ele>
        <time>2015-10-18T12:02:30Z</time>
      </trkpt>
      <trkpt lat="45.80601" lon="2.98836">
        <ele>980</ele>
        <time>2015-10-18T12:04:30Z</time>
      </trkpt>
      <trkpt lat="45.80593" lon="2.98858">
        <ele>982</ele>
        <time>2015-10-18T12:06:30Z</time>
      </trkpt>
      <trkpt lat="45.80568" lon="2.98878">
        <ele>982</ele>
        <time>2015-10-18T12:08:30Z</time>
      </trkpt>
      <trkpt lat="45.80553" lon="2.98891">
        <ele>981</ele>
        <time>2015-10-18T12:10:30Z</time>
      </trkpt>
      <trkpt lat="45.8054" lon="2.98913">
        <ele>981</ele>
        <time>2015-10-18T12:12:30Z</time>
      </trkpt>
      <trkpt lat="45.8053" lon="2.98929">
        <ele>980</ele>
        <time>2015-10-18T12:14:30Z</time>
      </trkpt>
      <trkpt lat="45.80523" lon="2.98948">
        <ele>979</ele>
        <time>2015-10-18T12:16:30Z</time>
      </trkpt>
      <trkpt lat="45.80515" lon="2.98965">
        <ele>979</ele>
        <time>2015-10-18T12:18:30Z</time>
      </trkpt>
      <trkpt lat="45.80508" lon="2.98996">
        <ele>978</ele>
        <time>2015-10-18T12:20:30Z</time>
      </trkpt>
      <trkpt lat="45.80498" lon="2.99025">
        <ele>977</ele>
        <time>2015-10-18T12:22:30Z</time>
      </trkpt>
      <trkpt lat="45.80495" lon="2.99059">
        <ele>977</ele>
        <time>2015-10-18T12:24:30Z</time>
      </trkpt>
      <trkpt lat="45.8048" lon="2.99103">
        <ele>977</ele>
        <time>2015-10-18T12:26:30Z</time>
      </trkpt>
      <trkpt lat="45.8047" lon="2.99126">
        <ele>977</ele>
        <time>2015-10-18T12:28:30Z</time>
      </trkpt>
      <trkpt lat="45.8046" lon="2.99132">
        <ele>977</ele>
        <time>2015-10-18T12:30:30Z</time>
      </trkpt>
      <trkpt lat="45.80449" lon="2.99134">
        <ele>976</ele>
        <time>2015-10-18T12:32:30Z</time>
      </trkpt>
      <trkpt lat="45.8044" lon="2.99119">
        <ele>975</ele>
        <time>2015-10-18T12:34:30Z</time>
      </trkpt>
      <trkpt lat="45.80445" lon="2.99155">
        <ele>976</ele>
        <time>2015-10-18T12:36:30Z</time>
      </trkpt>
      <trkpt lat="45.8045" lon="2.99181">
        <ele>977</ele>
        <time>2015-10-18T12:38:30Z</time>
      </trkpt>
      <trkpt lat="45.80453" lon="2.99216">
        <ele>977</ele>
        <time>2015-10-18T12:40:30Z</time>
      </trkpt>
      <trkpt lat="45.80455" lon="2.99258">
        <ele>976</ele>
        <time>2015-10-18T12:42:30Z</time>
      </trkpt>
      <trkpt lat="45.80461" lon="2.99296">
        <ele>977</ele>
        <time>2015-10-18T12:44:30Z</time>
      </trkpt>
      <trkpt lat="45.80466" lon="2.99335">
        <ele>977</ele>
        <time>2015-10-18T12:46:30Z</time>
      </trkpt>
      <trkpt lat="45.80471" lon="2.9939">
        <ele>978</ele>
        <time>2015-10-18T12:48:30Z</time>
      </trkpt>
      <trkpt lat="45.80479" lon="2.99439">
        <ele>980</ele>
        <time>2015-10-18T12:50:30Z</time>
      </trkpt>
      <trkpt lat="45.80483" lon="2.99472">
        <ele>981</ele>
        <time>2015-10-18T12:52:30Z</time>
      </trkpt>
      <trkpt lat="45.8049" lon="2.99511">
        <ele>983</ele>
        <time>2015-10-18T12:54:30Z</time>
      </trkpt>
      <trkpt lat="45.80501" lon="2.99542">
        <ele>985</ele>
        <time>2015-10-18T12:56:30Z</time>
      </trkpt>
      <trkpt lat="45.80511" lon="2.99586">
        <ele>988</ele>
        <time>2015-10-18T12:58:30Z</time>
      </trkpt>
      <trkpt lat="45.80523" lon="2.99629">
        <ele>989</ele>
        <time>2015-10-18T13:00:30Z</time>
      </trkpt>
      <trkpt lat="45.80532" lon="2.99659">
        <ele>990</ele>
        <time>2015-10-18T13:02:30Z</time>
      </trkpt>
      <trkpt lat="45.80544" lon="2.99689">
        <ele>992</ele>
        <time>2015-10-18T13:04:30Z</time>
      </trkpt>
      <trkpt lat="45.80551" lon="2.99716">
        <ele>993</ele>
        <time>2015-10-18T13:06:30Z</time>
      </trkpt>
      <trkpt lat="45.80573" lon="2.99781">
        <ele>996</ele>
        <time>2015-10-18T13:08:30Z</time>
      </trkpt>
      <trkpt lat="45.80595" lon="2.99836">
        <ele>1000</ele>
        <time>2015-10-18T13:10:30Z</time>
      </trkpt>
      <trkpt lat="45.80617" lon="2.99885">
        <ele>1004</ele>
        <time>2015-10-18T13:12:30Z</time>
      </trkpt>
      <trkpt lat="45.80631" lon="2.99937">
        <ele>1006</ele>
        <time>2015-10-18T13:14:30Z</time>
      </trkpt>
      <trkpt lat="45.80645" lon="2.99974">
        <ele>1007</ele>
        <time>2015-10-18T13:16:30Z</time>
      </trkpt>
      <trkpt lat="45.80657" lon="3.00016">
        <ele>1005</ele>
        <time>2015-10-18T13:18:30Z</time>
      </trkpt>
      <trkpt lat="45.80669" lon="3.00055">
        <ele>1002</ele>
        <time>2015-10-18T13:20:30Z</time>
      </trkpt>
      <trkpt lat="45.80672" lon="3.00075">
        <ele>1002</ele>
        <time>2015-10-18T13:22:30Z</time>
      </trkpt>
      <trkpt lat="45.80669" lon="3.00097">
        <ele>1000</ele>
        <time>2015-10-18T13:24:30Z</time>
      </trkpt>
      <trkpt lat="45.80664" lon="3.00113">
        <ele>998</ele>
        <time>2015-10-18T13:26:30Z</time>
      </trkpt>
      <trkpt lat="45.80719" lon="3.00133">
        <ele>997</ele>
        <time>2015-10-18T13:28:30Z</time>
      </trkpt>
      <trkpt lat="45.80705" lon="3.00145">
        <ele>995</ele>
        <time>2015-10-18T13:30:30Z</time>
      </trkpt>
      <trkpt lat="45.80703" lon="3.0018">
        <ele>991</ele>
        <time>2015-10-18T13:32:30Z</time>
      </trkpt>
      <trkpt lat="45.80702" lon="3.00214">
        <ele>987</ele>
        <time>2015-10-18T13:34:30Z</time>
      </trkpt>
      <trkpt lat="45.807" lon="3.00232">
        <ele>984</ele>
        <time>2015-10-18T13:36:30Z</time>
      </trkpt>
      <trkpt lat="45.80694" lon="3.00251">
        <ele>982</ele>
        <time>2015-10-18T13:38:30Z</time>
      </trkpt>
      <trkpt lat="45.80691" lon="3.00281">
        <ele>977</ele>
        <time>2015-10-18T13:40:30Z</time>
      </trkpt>
      <trkpt lat="45.80686" lon="3.00319">
        <ele>972</ele>
        <time>2015-10-18T13:42:30Z</time>
      </trkpt>
      <trkpt lat="45.80687" lon="3.00352">
        <ele>966</ele>
        <time>2015-10-18T13:44:30Z</time>
      </trkpt>
      <trkpt lat="45.80683" lon="3.00378">
        <ele>961</ele>
        <time>2015-10-18T13:46:30Z</time>
      </trkpt>
      <trkpt lat="45.80685" lon="3.00433">
        <ele>949</ele>
        <time>2015-10-18T13:48:30Z</time>
      </trkpt>
      <trkpt lat="45.80689" lon="3.00457">
        <ele>944</ele>
        <time>2015-10-18T13:50:30Z</time>
      </trkpt>
      <trkpt lat="45.80709" lon="3.00486">
        <ele>938</ele>
        <time>2015-10-18T13:52:30Z</time>
      </trkpt>
      <trkpt lat="45.80727" lon="3.00503">
        <ele>935</ele>
        <time>2015-10-18T13:54:30Z</time>
      </trkpt>
      <trkpt lat="45.8074" lon="3.00509">
        <ele>934</ele>
        <time>2015-10-18T13:56:30Z</time>
      </trkpt>
      <trkpt lat="45.80752" lon="3.00519">
        <ele>932</ele>
        <time>2015-10-18T13:58:30Z</time>
      </trkpt>
      <trkpt lat="45.80764" lon="3.00548">
        <ele>926</ele>
        <time>2015-10-18T14:00:30Z</time>
      </trkpt>
      <trkpt lat="45.80794" lon="3.0059">
        <ele>919</ele>
        <time>2015-10-18T14:02:30Z</time>
      </trkpt>
      <trkpt lat="45.80806" lon="3.00608">
        <ele>915</ele>
        <time>2015-10-18T14:04:30Z</time>
      </trkpt>
      <trkpt lat="45.80817" lon="3.00631">
        <ele>910</ele>
        <time>2015-10-18T14:06:30Z</time>
      </trkpt>
      <trkpt lat="45.80832" lon="3.00665">
        <ele>903</ele>
        <time>2015-10-18T14:08:30Z</time>
      </trkpt>
      <trkpt lat="45.80835" lon="3.00697">
        <ele>898</ele>
        <time>2015-10-18T14:10:30Z</time>
      </trkpt>
      <trkpt lat="45.80837" lon="3.00723">
        <ele>893</ele>
        <time>2015-10-18T14:12:30Z</time>
      </trkpt>
      <trkpt lat="45.80837" lon="3.00744">
        <ele>889</ele>
        <time>2015-10-18T14:14:30Z</time>
      </trkpt>
      <trkpt lat="45.80841" lon="3.00763">
        <ele>887</ele>
        <time>2015-10-18T14:16:30Z</time>
      </trkpt>
      <trkpt lat="45.80848" lon="3.00778">
        <ele>886</ele>
        <time>2015-10-18T14:18:30Z</time>
      </trkpt>
      <trkpt lat="45.80862" lon="3.00793">
        <ele>885</ele>
        <time>2015-10-18T14:20:30Z</time>
      </trkpt>
      <trkpt lat="45.80871" lon="3.00807">
        <ele>883</ele>
        <time>2015-10-18T14:22:30Z</time>
      </trkpt>
      <trkpt lat="45.80877" lon="3.00823">
        <ele>881</ele>
        <time>2015-10-18T14:24:30Z</time>
      </trkpt>
      <trkpt lat="45.80895" lon="3.00848">
        <ele>878</ele>
        <time>2015-10-18T14:26:30Z</time>
      </trkpt>
      <trkpt lat="45.80912" lon="3.00863">
        <ele>876</ele>
        <time>2015-10-18T14:28:30Z</time>
      </trkpt>
      <trkpt lat="45.80924" lon="3.00878">
        <ele>874</ele>
        <time>2015-10-18T14:30:30Z</time>
      </trkpt>
      <trkpt lat="45.80935" lon="3.00886">
        <ele>873</ele>
        <time>2015-10-18T14:32:30Z</time>
      </trkpt>
      <trkpt lat="45.80947" lon="3.00901">
        <ele>871</ele>
        <time>2015-10-18T14:34:30Z</time>
      </trkpt>
      <trkpt lat="45.80954" lon="3.00896">
        <ele>872</ele>
        <time>2015-10-18T14:36:30Z</time>
      </trkpt>
    </trkseg>
  </trk>
  <trk>
    <name><![CDATA[--Volvic-- OR-5366948:ser-jb01-b]]></name>
    <trkseg>
      <trkpt lat="45.87124" lon="3.02787">
        <ele>578</ele>
        <time>2015-10-17T12:38:13Z</time>
      </trkpt>
      <trkpt lat="45.8711" lon="3.02783">
        <ele>578</ele>
        <time>2015-10-17T12:40:13Z</time>
      </trkpt>
      <trkpt lat="45.87104" lon="3.0282">
        <ele>575</ele>
        <time>2015-10-17T12:42:13Z</time>
      </trkpt>
      <trkpt lat="45.87097" lon="3.02847">
        <ele>573</ele>
        <time>2015-10-17T12:44:13Z</time>
      </trkpt>
      <trkpt lat="45.87092" lon="3.02865">
        <ele>572</ele>
        <time>2015-10-17T12:46:13Z</time>
      </trkpt>
      <trkpt lat="45.87087" lon="3.02883">
        <ele>571</ele>
        <time>2015-10-17T12:48:13Z</time>
      </trkpt>
      <trkpt lat="45.87078" lon="3.02919">
        <ele>570</ele>
        <time>2015-10-17T12:50:13Z</time>
      </trkpt>
      <trkpt lat="45.87068" lon="3.02951">
        <ele>569</ele>
        <time>2015-10-17T12:52:13Z</time>
      </trkpt>
      <trkpt lat="45.87061" lon="3.02978">
        <ele>567</ele>
        <time>2015-10-17T12:54:13Z</time>
      </trkpt>
      <trkpt lat="45.87043" lon="3.0303">
        <ele>565</ele>
        <time>2015-10-17T12:56:13Z</time>
      </trkpt>
      <trkpt lat="45.87032" lon="3.03058">
        <ele>564</ele>
        <time>2015-10-17T12:58:13Z</time>
      </trkpt>
      <trkpt lat="45.87027" lon="3.03076">
        <ele>563</ele>
        <time>2015-10-17T13:00:13Z</time>
      </trkpt>
      <trkpt lat="45.87036" lon="3.03103">
        <ele>562</ele>
        <time>2015-10-17T13:02:13Z</time>
      </trkpt>
      <trkpt lat="45.87052" lon="3.03111">
        <ele>562</ele>
        <time>2015-10-17T13:04:13Z</time>
      </trkpt>
      <trkpt lat="45.87068" lon="3.03116">
        <ele>563</ele>
        <time>2015-10-17T13:06:13Z</time>
      </trkpt>
      <trkpt lat="45.87105" lon="3.03123">
        <ele>563</ele>
        <time>2015-10-17T13:08:13Z</time>
      </trkpt>
      <trkpt lat="45.87126" lon="3.03125">
        <ele>562</ele>
        <time>2015-10-17T13:10:13Z</time>
      </trkpt>
      <trkpt lat="45.87141" lon="3.03129">
        <ele>562</ele>
        <time>2015-10-17T13:12:13Z</time>
      </trkpt>
      <trkpt lat="45.87152" lon="3.03137">
        <ele>561</ele>
        <time>2015-10-17T13:14:13Z</time>
      </trkpt>
      <trkpt lat="45.87172" lon="3.03156">
        <ele>560</ele>
        <time>2015-10-17T13:16:13Z</time>
      </trkpt>
      <trkpt lat="45.87183" lon="3.03171">
        <ele>560</ele>
        <time>2015-10-17T13:18:13Z</time>
      </trkpt>
      <trkpt lat="45.872" lon="3.0321">
        <ele>561</ele>
        <time>2015-10-17T13:20:13Z</time>
      </trkpt>
      <trkpt lat="45.87205" lon="3.03271">
        <ele>560</ele>
        <time>2015-10-17T13:22:13Z</time>
      </trkpt>
      <trkpt lat="45.87201" lon="3.03295">
        <ele>559</ele>
        <time>2015-10-17T13:24:13Z</time>
      </trkpt>
      <trkpt lat="45.87186" lon="3.03334">
        <ele>557</ele>
        <time>2015-10-17T13:26:13Z</time>
      </trkpt>
      <trkpt lat="45.87187" lon="3.03366">
        <ele>556</ele>
        <time>2015-10-17T13:28:13Z</time>
      </trkpt>
      <trkpt lat="45.87203" lon="3.03386">
        <ele>557</ele>
        <time>2015-10-17T13:30:13Z</time>
      </trkpt>
      <trkpt lat="45.87215" lon="3.03388">
        <ele>559</ele>
        <time>2015-10-17T13:32:13Z</time>
      </trkpt>
      <trkpt lat="45.8723" lon="3.03384">
        <ele>561</ele>
        <time>2015-10-17T13:34:13Z</time>
      </trkpt>
      <trkpt lat="45.87246" lon="3.03374">
        <ele>564</ele>
        <time>2015-10-17T13:36:13Z</time>
      </trkpt>
      <trkpt lat="45.87256" lon="3.03366">
        <ele>566</ele>
        <time>2015-10-17T13:38:13Z</time>
      </trkpt>
      <trkpt lat="45.87269" lon="3.03359">
        <ele>568</ele>
        <time>2015-10-17T13:40:13Z</time>
      </trkpt>
      <trkpt lat="45.87288" lon="3.03344">
        <ele>572</ele>
        <time>2015-10-17T13:42:13Z</time>
      </trkpt>
      <trkpt lat="45.87295" lon="3.03341">
        <ele>573</ele>
        <time>2015-10-17T13:44:13Z</time>
      </trkpt>
      <trkpt lat="45.87292" lon="3.03354">
        <ele>573</ele>
        <time>2015-10-17T13:46:13Z</time>
      </trkpt>
      <trkpt lat="45.87282" lon="3.03365">
        <ele>571</ele>
        <time>2015-10-17T13:48:13Z</time>
      </trkpt>
      <trkpt lat="45.87272" lon="3.03384">
        <ele>569</ele>
        <time>2015-10-17T13:50:13Z</time>
      </trkpt>
      <trkpt lat="45.87276" lon="3.03392">
        <ele>570</ele>
        <time>2015-10-17T13:52:13Z</time>
      </trkpt>
      <trkpt lat="45.87291" lon="3.03396">
        <ele>573</ele>
        <time>2015-10-17T13:54:13Z</time>
      </trkpt>
      <trkpt lat="45.87304" lon="3.03401">
        <ele>575</ele>
        <time>2015-10-17T13:56:13Z</time>
      </trkpt>
      <trkpt lat="45.8731" lon="3.03412">
        <ele>577</ele>
        <time>2015-10-17T13:58:13Z</time>
      </trkpt>
      <trkpt lat="45.87316" lon="3.03422">
        <ele>578</ele>
        <time>2015-10-17T14:00:13Z</time>
      </trkpt>
      <trkpt lat="45.87323" lon="3.03429">
        <ele>578</ele>
        <time>2015-10-17T14:02:13Z</time>
      </trkpt>
      <trkpt lat="45.87333" lon="3.03427">
        <ele>581</ele>
        <time>2015-10-17T14:04:13Z</time>
      </trkpt>
      <trkpt lat="45.87345" lon="3.03427">
        <ele>585</ele>
        <time>2015-10-17T14:06:13Z</time>
      </trkpt>
      <trkpt lat="45.87355" lon="3.03432">
        <ele>587</ele>
        <time>2015-10-17T14:08:13Z</time>
      </trkpt>
      <trkpt lat="45.87371" lon="3.03444">
        <ele>591</ele>
        <time>2015-10-17T14:10:13Z</time>
      </trkpt>
      <trkpt lat="45.87385" lon="3.03454">
        <ele>594</ele>
        <time>2015-10-17T14:12:13Z</time>
      </trkpt>
      <trkpt lat="45.87404" lon="3.03463">
        <ele>599</ele>
        <time>2015-10-17T14:14:13Z</time>
      </trkpt>
      <trkpt lat="45.87436" lon="3.03475">
        <ele>606</ele>
        <time>2015-10-17T14:16:13Z</time>
      </trkpt>
      <trkpt lat="45.87471" lon="3.03493">
        <ele>612</ele>
        <time>2015-10-17T14:18:13Z</time>
      </trkpt>
      <trkpt lat="45.875" lon="3.03512">
        <ele>616</ele>
        <time>2015-10-17T14:20:13Z</time>
      </trkpt>
      <trkpt lat="45.87522" lon="3.03528">
        <ele>621</ele>
        <time>2015-10-17T14:22:13Z</time>
      </trkpt>
      <trkpt lat="45.8753" lon="3.0354">
        <ele>621</ele>
        <time>2015-10-17T14:24:13Z</time>
      </trkpt>
      <trkpt lat="45.87547" lon="3.03576">
        <ele>623</ele>
        <time>2015-10-17T14:26:13Z</time>
      </trkpt>
      <trkpt lat="45.87566" lon="3.03613">
        <ele>624</ele>
        <time>2015-10-17T14:28:13Z</time>
      </trkpt>
      <trkpt lat="45.87586" lon="3.03643">
        <ele>627</ele>
        <time>2015-10-17T14:30:13Z</time>
      </trkpt>
      <trkpt lat="45.87605" lon="3.03662">
        <ele>628</ele>
        <time>2015-10-17T14:32:13Z</time>
      </trkpt>
      <trkpt lat="45.87619" lon="3.0368">
        <ele>626</ele>
        <time>2015-10-17T14:34:13Z</time>
      </trkpt>
      <trkpt lat="45.87645" lon="3.03685">
        <ele>629</ele>
        <time>2015-10-17T14:36:13Z</time>
      </trkpt>
      <trkpt lat="45.87679" lon="3.03692">
        <ele>631</ele>
        <time>2015-10-17T14:38:13Z</time>
      </trkpt>
      <trkpt lat="45.87718" lon="3.037">
        <ele>629</ele>
        <time>2015-10-17T14:40:13Z</time>
      </trkpt>
      <trkpt lat="45.87752" lon="3.03703">
        <ele>629</ele>
        <time>2015-10-17T14:42:13Z</time>
      </trkpt>
      <trkpt lat="45.87771" lon="3.03694">
        <ele>630</ele>
        <time>2015-10-17T14:44:13Z</time>
      </trkpt>
      <trkpt lat="45.87799" lon="3.03684">
        <ele>631</ele>
        <time>2015-10-17T14:46:13Z</time>
      </trkpt>
      <trkpt lat="45.87839" lon="3.03672">
        <ele>630</ele>
        <time>2015-10-17T14:48:13Z</time>
      </trkpt>
      <trkpt lat="45.87868" lon="3.03667">
        <ele>629</ele>
        <time>2015-10-17T14:50:13Z</time>
      </trkpt>
      <trkpt lat="45.87898" lon="3.03664">
        <ele>626</ele>
        <time>2015-10-17T14:52:13Z</time>
      </trkpt>
      <trkpt lat="45.87973" lon="3.0366">
        <ele>621</ele>
        <time>2015-10-17T14:54:13Z</time>
      </trkpt>
      <trkpt lat="45.88007" lon="3.03662">
        <ele>617</ele>
        <time>2015-10-17T14:56:13Z</time>
      </trkpt>
      <trkpt lat="45.88028" lon="3.03664">
        <ele>615</ele>
        <time>2015-10-17T14:58:13Z</time>
      </trkpt>
      <trkpt lat="45.88062" lon="3.03662">
        <ele>615</ele>
        <time>2015-10-17T15:00:13Z</time>
      </trkpt>
      <trkpt lat="45.88087" lon="3.03656">
        <ele>616</ele>
        <time>2015-10-17T15:02:13Z</time>
      </trkpt>
      <trkpt lat="45.88159" lon="3.03641">
        <ele>614</ele>
        <time>2015-10-17T15:04:13Z</time>
      </trkpt>
      <trkpt lat="45.88177" lon="3.03634">
        <ele>616</ele>
        <time>2015-10-17T15:06:13Z</time>
      </trkpt>
      <trkpt lat="45.88195" lon="3.03633">
        <ele>616</ele>
        <time>2015-10-17T15:08:13Z</time>
      </trkpt>
      <trkpt lat="45.88209" lon="3.03633">
        <ele>616</ele>
        <time>2015-10-17T15:10:13Z</time>
      </trkpt>
      <trkpt lat="45.88233" lon="3.03643">
        <ele>612</ele>
        <time>2015-10-17T15:12:13Z</time>
      </trkpt>
      <trkpt lat="45.88265" lon="3.03667">
        <ele>605</ele>
        <time>2015-10-17T15:14:13Z</time>
      </trkpt>
      <trkpt lat="45.88301" lon="3.03691">
        <ele>601</ele>
        <time>2015-10-17T15:16:13Z</time>
      </trkpt>
      <trkpt lat="45.88348" lon="3.03721">
        <ele>596</ele>
        <time>2015-10-17T15:18:13Z</time>
      </trkpt>
      <trkpt lat="45.88392" lon="3.03743">
        <ele>593</ele>
        <time>2015-10-17T15:20:13Z</time>
      </trkpt>
      <trkpt lat="45.88422" lon="3.03759">
        <ele>592</ele>
        <time>2015-10-17T15:22:13Z</time>
      </trkpt>
      <trkpt lat="45.88441" lon="3.03773">
        <ele>590</ele>
        <time>2015-10-17T15:24:13Z</time>
      </trkpt>
      <trkpt lat="45.88459" lon="3.03796">
        <ele>589</ele>
        <time>2015-10-17T15:26:13Z</time>
      </trkpt>
      <trkpt lat="45.88482" lon="3.03766">
        <ele>589</ele>
        <time>2015-10-17T15:28:13Z</time>
      </trkpt>
      <trkpt lat="45.88505" lon="3.03786">
        <ele>588</ele>
        <time>2015-10-17T15:30:13Z</time>
      </trkpt>
      <trkpt lat="45.88545" lon="3.03841">
        <ele>581</ele>
        <time>2015-10-17T15:32:13Z</time>
      </trkpt>
      <trkpt lat="45.88563" lon="3.0387">
        <ele>575</ele>
        <time>2015-10-17T15:34:13Z</time>
      </trkpt>
      <trkpt lat="45.88439" lon="3.0371">
        <ele>589</ele>
        <time>2015-10-17T15:36:13Z</time>
      </trkpt>
      <trkpt lat="45.88389" lon="3.03628">
        <ele>603</ele>
        <time>2015-10-17T15:38:13Z</time>
      </trkpt>
      <trkpt lat="45.88369" lon="3.03589">
        <ele>612</ele>
        <time>2015-10-17T15:40:13Z</time>
      </trkpt>
      <trkpt lat="45.88371" lon="3.03567">
        <ele>615</ele>
        <time>2015-10-17T15:42:13Z</time>
      </trkpt>
      <trkpt lat="45.88402" lon="3.03519">
        <ele>612</ele>
        <time>2015-10-17T15:44:13Z</time>
      </trkpt>
      <trkpt lat="45.88411" lon="3.03501">
        <ele>610</ele>
        <time>2015-10-17T15:46:13Z</time>
      </trkpt>
      <trkpt lat="45.88405" lon="3.03445">
        <ele>615</ele>
        <time>2015-10-17T15:48:13Z</time>
      </trkpt>
      <trkpt lat="45.88386" lon="3.03386">
        <ele>621</ele>
        <time>2015-10-17T15:50:13Z</time>
      </trkpt>
      <trkpt lat="45.88294" lon="3.03229">
        <ele>641</ele>
        <time>2015-10-17T15:52:13Z</time>
      </trkpt>
      <trkpt lat="45.88282" lon="3.03211">
        <ele>644</ele>
        <time>2015-10-17T15:54:13Z</time>
      </trkpt>
      <trkpt lat="45.88249" lon="3.03158">
        <ele>648</ele>
        <time>2015-10-17T15:56:13Z</time>
      </trkpt>
      <trkpt lat="45.88191" lon="3.03068">
        <ele>656</ele>
        <time>2015-10-17T15:58:13Z</time>
      </trkpt>
      <trkpt lat="45.88138" lon="3.02947">
        <ele>668</ele>
        <time>2015-10-17T16:00:13Z</time>
      </trkpt>
      <trkpt lat="45.88119" lon="3.02817">
        <ele>680</ele>
        <time>2015-10-17T16:02:13Z</time>
      </trkpt>
      <trkpt lat="45.88125" lon="3.028">
        <ele>683</ele>
        <time>2015-10-17T16:04:13Z</time>
      </trkpt>
      <trkpt lat="45.88142" lon="3.02784">
        <ele>687</ele>
        <time>2015-10-17T16:06:13Z</time>
      </trkpt>
      <trkpt lat="45.88231" lon="3.02759">
        <ele>700</ele>
        <time>2015-10-17T16:08:13Z</time>
      </trkpt>
      <trkpt lat="45.88268" lon="3.0276">
        <ele>701</ele>
        <time>2015-10-17T16:10:13Z</time>
      </trkpt>
      <trkpt lat="45.88295" lon="3.0275">
        <ele>702</ele>
        <time>2015-10-17T16:12:13Z</time>
      </trkpt>
      <trkpt lat="45.88303" lon="3.02731">
        <ele>704</ele>
        <time>2015-10-17T16:14:13Z</time>
      </trkpt>
      <trkpt lat="45.88298" lon="3.02706">
        <ele>708</ele>
        <time>2015-10-17T16:16:13Z</time>
      </trkpt>
      <trkpt lat="45.8827" lon="3.02662">
        <ele>715</ele>
        <time>2015-10-17T16:18:13Z</time>
      </trkpt>
      <trkpt lat="45.88241" lon="3.02602">
        <ele>723</ele>
        <time>2015-10-17T16:20:13Z</time>
      </trkpt>
      <trkpt lat="45.88229" lon="3.02578">
        <ele>725</ele>
        <time>2015-10-17T16:22:13Z</time>
      </trkpt>
      <trkpt lat="45.88233" lon="3.02554">
        <ele>727</ele>
        <time>2015-10-17T16:24:13Z</time>
      </trkpt>
      <trkpt lat="45.88253" lon="3.02523">
        <ele>729</ele>
        <time>2015-10-17T16:26:13Z</time>
      </trkpt>
      <trkpt lat="45.88265" lon="3.02496">
        <ele>729</ele>
        <time>2015-10-17T16:28:13Z</time>
      </trkpt>
      <trkpt lat="45.88278" lon="3.02462">
        <ele>729</ele>
        <time>2015-10-17T16:30:13Z</time>
      </trkpt>
      <trkpt lat="45.88297" lon="3.02444">
        <ele>729</ele>
        <time>2015-10-17T16:32:13Z</time>
      </trkpt>
      <trkpt lat="45.88336" lon="3.0242">
        <ele>731</ele>
        <time>2015-10-17T16:34:13Z</time>
      </trkpt>
      <trkpt lat="45.88379" lon="3.02403">
        <ele>732</ele>
        <time>2015-10-17T16:36:13Z</time>
      </trkpt>
      <trkpt lat="45.88404" lon="3.0239">
        <ele>734</ele>
        <time>2015-10-17T16:38:13Z</time>
      </trkpt>
      <trkpt lat="45.88414" lon="3.02376">
        <ele>736</ele>
        <time>2015-10-17T16:40:13Z</time>
      </trkpt>
      <trkpt lat="45.88449" lon="3.02369">
        <ele>737</ele>
        <time>2015-10-17T16:42:13Z</time>
      </trkpt>
      <trkpt lat="45.88552" lon="3.02364">
        <ele>740</ele>
        <time>2015-10-17T16:44:13Z</time>
      </trkpt>
      <trkpt lat="45.8857" lon="3.02359">
        <ele>740</ele>
        <time>2015-10-17T16:46:13Z</time>
      </trkpt>
      <trkpt lat="45.88585" lon="3.02328">
        <ele>741</ele>
        <time>2015-10-17T16:48:13Z</time>
      </trkpt>
      <trkpt lat="45.88632" lon="3.02222">
        <ele>740</ele>
        <time>2015-10-17T16:50:13Z</time>
      </trkpt>
      <trkpt lat="45.88639" lon="3.02184">
        <ele>738</ele>
        <time>2015-10-17T16:52:13Z</time>
      </trkpt>
      <trkpt lat="45.8866" lon="3.02114">
        <ele>735</ele>
        <time>2015-10-17T16:54:13Z</time>
      </trkpt>
      <trkpt lat="45.88681" lon="3.02037">
        <ele>732</ele>
        <time>2015-10-17T16:56:13Z</time>
      </trkpt>
      <trkpt lat="45.8875" lon="3.01969">
        <ele>735</ele>
        <time>2015-10-17T16:58:13Z</time>
      </trkpt>
      <trkpt lat="45.88794" lon="3.01935">
        <ele>736</ele>
        <time>2015-10-17T17:00:13Z</time>
      </trkpt>
      <trkpt lat="45.88831" lon="3.01845">
        <ele>738</ele>
        <time>2015-10-17T17:02:13Z</time>
      </trkpt>
      <trkpt lat="45.88849" lon="3.01811">
        <ele>738</ele>
        <time>2015-10-17T17:04:13Z</time>
      </trkpt>
      <trkpt lat="45.88839" lon="3.01777">
        <ele>737</ele>
        <time>2015-10-17T17:06:13Z</time>
      </trkpt>
      <trkpt lat="45.888" lon="3.01718">
        <ele>733</ele>
        <time>2015-10-17T17:08:13Z</time>
      </trkpt>
      <trkpt lat="45.88777" lon="3.01684">
        <ele>732</ele>
        <time>2015-10-17T17:10:13Z</time>
      </trkpt>
      <trkpt lat="45.88768" lon="3.0166">
        <ele>731</ele>
        <time>2015-10-17T17:12:13Z</time>
      </trkpt>
      <trkpt lat="45.88768" lon="3.01637">
        <ele>728</ele>
        <time>2015-10-17T17:14:13Z</time>
      </trkpt>
      <trkpt lat="45.88795" lon="3.01638">
        <ele>729</ele>
        <time>2015-10-17T17:16:13Z</time>
      </trkpt>
      <trkpt lat="45.88828" lon="3.01632">
        <ele>729</ele>
        <time>2015-10-17T17:18:13Z</time>
      </trkpt>
      <trkpt lat="45.8888" lon="3.01616">
        <ele>730</ele>
        <time>2015-10-17T17:20:13Z</time>
      </trkpt>
      <trkpt lat="45.8897" lon="3.01595">
        <ele>738</ele>
        <time>2015-10-17T17:22:13Z</time>
      </trkpt>
      <trkpt lat="45.88989" lon="3.01555">
        <ele>740</ele>
        <time>2015-10-17T17:24:13Z</time>
      </trkpt>
      <trkpt lat="45.89003" lon="3.01509">
        <ele>741</ele>
        <time>2015-10-17T17:26:13Z</time>
      </trkpt>
      <trkpt lat="45.89009" lon="3.0146">
        <ele>740</ele>
        <time>2015-10-17T17:28:13Z</time>
      </trkpt>
      <trkpt lat="45.89016" lon="3.0143">
        <ele>740</ele>
        <time>2015-10-17T17:30:13Z</time>
      </trkpt>
      <trkpt lat="45.89033" lon="3.01405">
        <ele>741</ele>
        <time>2015-10-17T17:32:13Z</time>
      </trkpt>
      <trkpt lat="45.89063" lon="3.0139">
        <ele>743</ele>
        <time>2015-10-17T17:34:13Z</time>
      </trkpt>
      <trkpt lat="45.89082" lon="3.01361">
        <ele>743</ele>
        <time>2015-10-17T17:36:13Z</time>
      </trkpt>
      <trkpt lat="45.89086" lon="3.01333">
        <ele>741</ele>
        <time>2015-10-17T17:38:13Z</time>
      </trkpt>
      <trkpt lat="45.89082" lon="3.01272">
        <ele>739</ele>
        <time>2015-10-17T17:40:13Z</time>
      </trkpt>
      <trkpt lat="45.8908" lon="3.01234">
        <ele>738</ele>
        <time>2015-10-17T17:42:13Z</time>
      </trkpt>
      <trkpt lat="45.89092" lon="3.01183">
        <ele>740</ele>
        <time>2015-10-17T17:44:13Z</time>
      </trkpt>
      <trkpt lat="45.89089" lon="3.01132">
        <ele>740</ele>
        <time>2015-10-17T17:46:13Z</time>
      </trkpt>
      <trkpt lat="45.89073" lon="3.01048">
        <ele>740</ele>
        <time>2015-10-17T17:48:13Z</time>
      </trkpt>
      <trkpt lat="45.89048" lon="3.00992">
        <ele>737</ele>
        <time>2015-10-17T17:50:13Z</time>
      </trkpt>
      <trkpt lat="45.89021" lon="3.00928">
        <ele>733</ele>
        <time>2015-10-17T17:52:13Z</time>
      </trkpt>
      <trkpt lat="45.88999" lon="3.00873">
        <ele>732</ele>
        <time>2015-10-17T17:54:13Z</time>
      </trkpt>
      <trkpt lat="45.88974" lon="3.00803">
        <ele>733</ele>
        <time>2015-10-17T17:56:13Z</time>
      </trkpt>
      <trkpt lat="45.8896" lon="3.00769">
        <ele>735</ele>
        <time>2015-10-17T17:58:13Z</time>
      </trkpt>
      <trkpt lat="45.88958" lon="3.00743">
        <ele>735</ele>
        <time>2015-10-17T18:00:13Z</time>
      </trkpt>
      <trkpt lat="45.88969" lon="3.00719">
        <ele>736</ele>
        <time>2015-10-17T18:02:13Z</time>
      </trkpt>
      <trkpt lat="45.88979" lon="3.007">
        <ele>736</ele>
        <time>2015-10-17T18:04:13Z</time>
      </trkpt>
      <trkpt lat="45.8898" lon="3.00653">
        <ele>736</ele>
        <time>2015-10-17T18:06:13Z</time>
      </trkpt>
      <trkpt lat="45.88969" lon="3.00628">
        <ele>737</ele>
        <time>2015-10-17T18:08:13Z</time>
      </trkpt>
      <trkpt lat="45.8896" lon="3.00612">
        <ele>738</ele>
        <time>2015-10-17T18:10:13Z</time>
      </trkpt>
      <trkpt lat="45.88945" lon="3.00581">
        <ele>739</ele>
        <time>2015-10-17T18:12:13Z</time>
      </trkpt>
      <trkpt lat="45.88908" lon="3.00519">
        <ele>745</ele>
        <time>2015-10-17T18:14:13Z</time>
      </trkpt>
      <trkpt lat="45.88871" lon="3.00457">
        <ele>754</ele>
        <time>2015-10-17T18:16:13Z</time>
      </trkpt>
      <trkpt lat="45.88834" lon="3.00361">
        <ele>762</ele>
        <time>2015-10-17T18:18:13Z</time>
      </trkpt>
      <trkpt lat="45.8882" lon="3.00342">
        <ele>763</ele>
        <time>2015-10-17T18:20:13Z</time>
      </trkpt>
      <trkpt lat="45.88771" lon="3.00341">
        <ele>766</ele>
        <time>2015-10-17T18:22:13Z</time>
      </trkpt>
      <trkpt lat="45.88724" lon="3.00342">
        <ele>767</ele>
        <time>2015-10-17T18:24:13Z</time>
      </trkpt>
      <trkpt lat="45.88681" lon="3.00306">
        <ele>766</ele>
        <time>2015-10-17T18:26:13Z</time>
      </trkpt>
      <trkpt lat="45.88567" lon="3.00201">
        <ele>766</ele>
        <time>2015-10-17T18:28:13Z</time>
      </trkpt>
      <trkpt lat="45.88396" lon="3.00053">
        <ele>768</ele>
        <time>2015-10-17T18:30:13Z</time>
      </trkpt>
      <trkpt lat="45.88346" lon="3.00134">
        <ele>768</ele>
        <time>2015-10-17T18:32:13Z</time>
      </trkpt>
      <trkpt lat="45.883" lon="3.00241">
        <ele>765</ele>
        <time>2015-10-17T18:34:13Z</time>
      </trkpt>
      <trkpt lat="45.88239" lon="3.00387">
        <ele>761</ele>
        <time>2015-10-17T18:36:13Z</time>
      </trkpt>
      <trkpt lat="45.88204" lon="3.0037">
        <ele>761</ele>
        <time>2015-10-17T18:38:13Z</time>
      </trkpt>
      <trkpt lat="45.882" lon="3.00415">
        <ele>759</ele>
        <time>2015-10-17T18:40:13Z</time>
      </trkpt>
      <trkpt lat="45.88185" lon="3.00585">
        <ele>756</ele>
        <time>2015-10-17T18:42:13Z</time>
      </trkpt>
      <trkpt lat="45.8816" lon="3.00748">
        <ele>749</ele>
        <time>2015-10-17T18:44:13Z</time>
      </trkpt>
      <trkpt lat="45.88115" lon="3.00853">
        <ele>740</ele>
        <time>2015-10-17T18:46:13Z</time>
      </trkpt>
      <trkpt lat="45.88048" lon="3.00997">
        <ele>730</ele>
        <time>2015-10-17T18:48:13Z</time>
      </trkpt>
      <trkpt lat="45.88004" lon="3.01091">
        <ele>722</ele>
        <time>2015-10-17T18:50:13Z</time>
      </trkpt>
      <trkpt lat="45.87957" lon="3.01259">
        <ele>708</ele>
        <time>2015-10-17T18:52:13Z</time>
      </trkpt>
      <trkpt lat="45.87936" lon="3.01319">
        <ele>703</ele>
        <time>2015-10-17T18:54:13Z</time>
      </trkpt>
      <trkpt lat="45.87921" lon="3.01394">
        <ele>694</ele>
        <time>2015-10-17T18:56:13Z</time>
      </trkpt>
      <trkpt lat="45.87921" lon="3.01452">
        <ele>687</ele>
        <time>2015-10-17T18:58:13Z</time>
      </trkpt>
      <trkpt lat="45.87925" lon="3.01514">
        <ele>680</ele>
        <time>2015-10-17T19:00:13Z</time>
      </trkpt>
      <trkpt lat="45.87964" lon="3.01572">
        <ele>678</ele>
        <time>2015-10-17T19:02:13Z</time>
      </trkpt>
      <trkpt lat="45.87974" lon="3.01604">
        <ele>675</ele>
        <time>2015-10-17T19:04:13Z</time>
      </trkpt>
      <trkpt lat="45.87952" lon="3.01625">
        <ele>671</ele>
        <time>2015-10-17T19:06:13Z</time>
      </trkpt>
      <trkpt lat="45.87924" lon="3.01628">
        <ele>670</ele>
        <time>2015-10-17T19:08:13Z</time>
      </trkpt>
      <trkpt lat="45.87841" lon="3.01598">
        <ele>661</ele>
        <time>2015-10-17T19:10:13Z</time>
      </trkpt>
      <trkpt lat="45.87815" lon="3.01595">
        <ele>656</ele>
        <time>2015-10-17T19:12:13Z</time>
      </trkpt>
      <trkpt lat="45.87795" lon="3.01608">
        <ele>652</ele>
        <time>2015-10-17T19:14:13Z</time>
      </trkpt>
      <trkpt lat="45.87777" lon="3.01658">
        <ele>649</ele>
        <time>2015-10-17T19:16:13Z</time>
      </trkpt>
      <trkpt lat="45.8774" lon="3.01709">
        <ele>646</ele>
        <time>2015-10-17T19:18:13Z</time>
      </trkpt>
      <trkpt lat="45.87712" lon="3.0178">
        <ele>641</ele>
        <time>2015-10-17T19:20:13Z</time>
      </trkpt>
      <trkpt lat="45.87694" lon="3.01853">
        <ele>629</ele>
        <time>2015-10-17T19:22:13Z</time>
      </trkpt>
      <trkpt lat="45.87691" lon="3.01907">
        <ele>623</ele>
        <time>2015-10-17T19:24:13Z</time>
      </trkpt>
      <trkpt lat="45.87647" lon="3.01876">
        <ele>621</ele>
        <time>2015-10-17T19:26:13Z</time>
      </trkpt>
      <trkpt lat="45.87611" lon="3.01874">
        <ele>627</ele>
        <time>2015-10-17T19:28:13Z</time>
      </trkpt>
      <trkpt lat="45.87579" lon="3.01892">
        <ele>629</ele>
        <time>2015-10-17T19:30:13Z</time>
      </trkpt>
      <trkpt lat="45.87549" lon="3.01928">
        <ele>630</ele>
        <time>2015-10-17T19:32:13Z</time>
      </trkpt>
      <trkpt lat="45.87505" lon="3.01958">
        <ele>634</ele>
        <time>2015-10-17T19:34:13Z</time>
      </trkpt>
      <trkpt lat="45.87465" lon="3.01979">
        <ele>632</ele>
        <time>2015-10-17T19:36:13Z</time>
      </trkpt>
      <trkpt lat="45.87414" lon="3.01975">
        <ele>638</ele>
        <time>2015-10-17T19:38:13Z</time>
      </trkpt>
      <trkpt lat="45.87365" lon="3.01964">
        <ele>639</ele>
        <time>2015-10-17T19:40:13Z</time>
      </trkpt>
      <trkpt lat="45.87295" lon="3.0193">
        <ele>641</ele>
        <time>2015-10-17T19:42:13Z</time>
      </trkpt>
      <trkpt lat="45.87251" lon="3.01894">
        <ele>640</ele>
        <time>2015-10-17T19:44:13Z</time>
      </trkpt>
      <trkpt lat="45.87213" lon="3.01872">
        <ele>641</ele>
        <time>2015-10-17T19:46:13Z</time>
      </trkpt>
      <trkpt lat="45.87184" lon="3.01812">
        <ele>644</ele>
        <time>2015-10-17T19:48:13Z</time>
      </trkpt>
      <trkpt lat="45.87159" lon="3.01743">
        <ele>646</ele>
        <time>2015-10-17T19:50:13Z</time>
      </trkpt>
      <trkpt lat="45.87142" lon="3.01718">
        <ele>648</ele>
        <time>2015-10-17T19:52:13Z</time>
      </trkpt>
      <trkpt lat="45.87118" lon="3.01767">
        <ele>643</ele>
        <time>2015-10-17T19:54:13Z</time>
      </trkpt>
      <trkpt lat="45.87111" lon="3.01842">
        <ele>638</ele>
        <time>2015-10-17T19:56:13Z</time>
      </trkpt>
      <trkpt lat="45.87121" lon="3.01896">
        <ele>635</ele>
        <time>2015-10-17T19:58:13Z</time>
      </trkpt>
      <trkpt lat="45.87138" lon="3.01941">
        <ele>631</ele>
        <time>2015-10-17T20:00:13Z</time>
      </trkpt>
      <trkpt lat="45.87169" lon="3.01982">
        <ele>627</ele>
        <time>2015-10-17T20:02:13Z</time>
      </trkpt>
      <trkpt lat="45.87207" lon="3.02003">
        <ele>624</ele>
        <time>2015-10-17T20:04:13Z</time>
      </trkpt>
      <trkpt lat="45.87219" lon="3.02067">
        <ele>622</ele>
        <time>2015-10-17T20:06:13Z</time>
      </trkpt>
      <trkpt lat="45.87229" lon="3.02164">
        <ele>620</ele>
        <time>2015-10-17T20:08:13Z</time>
      </trkpt>
      <trkpt lat="45.87236" lon="3.02218">
        <ele>620</ele>
        <time>2015-10-17T20:10:13Z</time>
      </trkpt>
      <trkpt lat="45.87241" lon="3.02301">
        <ele>617</ele>
        <time>2015-10-17T20:12:13Z</time>
      </trkpt>
      <trkpt lat="45.87214" lon="3.02366">
        <ele>614</ele>
        <time>2015-10-17T20:14:13Z</time>
      </trkpt>
      <trkpt lat="45.87165" lon="3.02434">
        <ele>610</ele>
        <time>2015-10-17T20:16:13Z</time>
      </trkpt>
      <trkpt lat="45.87148" lon="3.02522">
        <ele>604</ele>
        <time>2015-10-17T20:18:13Z</time>
      </trkpt>
      <trkpt lat="45.8715" lon="3.0258">
        <ele>598</ele>
        <time>2015-10-17T20:20:13Z</time>
      </trkpt>
      <trkpt lat="45.87135" lon="3.02679">
        <ele>589</ele>
        <time>2015-10-17T20:22:13Z</time>
      </trkpt>
      <trkpt lat="45.87128" lon="3.02711">
        <ele>586</ele>
        <time>2015-10-17T20:24:13Z</time>
      </trkpt>
      <trkpt lat="45.87112" lon="3.02776">
        <ele>578</ele>
        <time>2015-10-17T20:26:13Z</time>
      </trkpt>
      <trkpt lat="45.87125" lon="3.02779">
        <ele>579</ele>
        <time>2015-10-17T20:28:13Z</time>
      </trkpt>
    </trkseg>
  </trk>
</gpx>